<?xml version="1.0" encoding="UTF-8" standalone="no" ?>
<gpx xmlns="http://www.topografix.com/GPX/1/1" xmlns:xsi="http://www.w3.org/2001/XMLSchema-instance" xsi:schemaLocation="http://www.topografix.com/GPX/1/1 http://www.topografix.com/GPX/1/1/gpx.xsd" version="1.1" creator="VisuGPX - https://www.visugpx.com">
  <metadata>
    <name>2018-10-12 Bike ride-Georges de Reneins O v47k</name>
    <desc><![CDATA[2018-10-12 Bike ride-Georges de Reneins O v47k]]></desc>
  </metadata>
  <wpt lat="45.92458" lon="4.73718">
    <ele>174</ele>
    <name><![CDATA[2018-10-12 10:16 (Start)]]></name>
  </wpt>
  <wpt lat="45.92462" lon="4.73712">
    <ele>174</ele>
    <name><![CDATA[2018-10-12 10:16 (End)]]></name>
  </wpt>
  <trk>
    <name><![CDATA[2018-10-12 10:16]]></name>
    <trkseg>
      <trkpt lat="45.92458" lon="4.73718">
        <ele>174</ele>
        <time>2018-10-12T08:16:35.177Z</time>
      </trkpt>
      <trkpt lat="45.92451" lon="4.73716">
        <ele>174</ele>
        <time>2018-10-12T08:16:47.479Z</time>
      </trkpt>
      <trkpt lat="45.9245" lon="4.73716">
        <ele>174</ele>
        <time>2018-10-12T08:16:48.479Z</time>
      </trkpt>
      <trkpt lat="45.9245" lon="4.73712">
        <ele>174</ele>
        <time>2018-10-12T08:16:49.468Z</time>
      </trkpt>
      <trkpt lat="45.92459" lon="4.73711">
        <ele>174</ele>
        <time>2018-10-12T08:16:57Z</time>
      </trkpt>
      <trkpt lat="45.9246" lon="4.73711">
        <ele>174</ele>
        <time>2018-10-12T08:16:58Z</time>
      </trkpt>
      <trkpt lat="45.92464" lon="4.73701">
        <ele>174</ele>
        <time>2018-10-12T08:17:03Z</time>
      </trkpt>
      <trkpt lat="45.92464" lon="4.73698">
        <ele>174</ele>
        <time>2018-10-12T08:17:04Z</time>
      </trkpt>
      <trkpt lat="45.92465" lon="4.73688">
        <ele>174</ele>
        <time>2018-10-12T08:17:07Z</time>
      </trkpt>
      <trkpt lat="45.92465" lon="4.73684">
        <ele>174</ele>
        <time>2018-10-12T08:17:08Z</time>
      </trkpt>
      <trkpt lat="45.92465" lon="4.73679">
        <ele>174</ele>
        <time>2018-10-12T08:17:09Z</time>
      </trkpt>
      <trkpt lat="45.92466" lon="4.73669">
        <ele>174</ele>
        <time>2018-10-12T08:17:10Z</time>
      </trkpt>
      <trkpt lat="45.92467" lon="4.73658">
        <ele>174</ele>
        <time>2018-10-12T08:17:12Z</time>
      </trkpt>
      <trkpt lat="45.92468" lon="4.73652">
        <ele>174</ele>
        <time>2018-10-12T08:17:13Z</time>
      </trkpt>
      <trkpt lat="45.92468" lon="4.73646">
        <ele>174</ele>
        <time>2018-10-12T08:17:14Z</time>
      </trkpt>
      <trkpt lat="45.92469" lon="4.73639">
        <ele>174</ele>
        <time>2018-10-12T08:17:15Z</time>
      </trkpt>
      <trkpt lat="45.92468" lon="4.73632">
        <ele>174</ele>
        <time>2018-10-12T08:17:16Z</time>
      </trkpt>
      <trkpt lat="45.92468" lon="4.73625">
        <ele>174</ele>
        <time>2018-10-12T08:17:17Z</time>
      </trkpt>
      <trkpt lat="45.92467" lon="4.73618">
        <ele>174</ele>
        <time>2018-10-12T08:17:18Z</time>
      </trkpt>
      <trkpt lat="45.92468" lon="4.73611">
        <ele>174</ele>
        <time>2018-10-12T08:17:19Z</time>
      </trkpt>
      <trkpt lat="45.92466" lon="4.736">
        <ele>174</ele>
        <time>2018-10-12T08:17:21Z</time>
      </trkpt>
      <trkpt lat="45.92466" lon="4.73594">
        <ele>174</ele>
        <time>2018-10-12T08:17:22Z</time>
      </trkpt>
      <trkpt lat="45.92465" lon="4.73582">
        <ele>173</ele>
        <time>2018-10-12T08:17:25Z</time>
      </trkpt>
      <trkpt lat="45.92465" lon="4.73573">
        <ele>173</ele>
        <time>2018-10-12T08:17:26Z</time>
      </trkpt>
      <trkpt lat="45.92464" lon="4.7356">
        <ele>173</ele>
        <time>2018-10-12T08:17:29Z</time>
      </trkpt>
      <trkpt lat="45.92465" lon="4.73557">
        <ele>173</ele>
        <time>2018-10-12T08:17:30Z</time>
      </trkpt>
      <trkpt lat="45.92466" lon="4.73545">
        <ele>173</ele>
        <time>2018-10-12T08:17:34Z</time>
      </trkpt>
      <trkpt lat="45.92468" lon="4.73542">
        <ele>173</ele>
        <time>2018-10-12T08:17:35Z</time>
      </trkpt>
      <trkpt lat="45.92469" lon="4.73538">
        <ele>174</ele>
        <time>2018-10-12T08:17:36Z</time>
      </trkpt>
      <trkpt lat="45.92471" lon="4.73529">
        <ele>174</ele>
        <time>2018-10-12T08:17:37Z</time>
      </trkpt>
      <trkpt lat="45.9247" lon="4.7352">
        <ele>174</ele>
        <time>2018-10-12T08:17:39Z</time>
      </trkpt>
      <trkpt lat="45.92468" lon="4.73514">
        <ele>174</ele>
        <time>2018-10-12T08:17:40Z</time>
      </trkpt>
      <trkpt lat="45.92469" lon="4.73506">
        <ele>174</ele>
        <time>2018-10-12T08:17:41Z</time>
      </trkpt>
      <trkpt lat="45.9247" lon="4.73498">
        <ele>173</ele>
        <time>2018-10-12T08:17:42Z</time>
      </trkpt>
      <trkpt lat="45.92471" lon="4.7349">
        <ele>173</ele>
        <time>2018-10-12T08:17:43Z</time>
      </trkpt>
      <trkpt lat="45.92471" lon="4.73483">
        <ele>173</ele>
        <time>2018-10-12T08:17:44Z</time>
      </trkpt>
      <trkpt lat="45.92471" lon="4.73475">
        <ele>173</ele>
        <time>2018-10-12T08:17:45Z</time>
      </trkpt>
      <trkpt lat="45.9247" lon="4.73468">
        <ele>173</ele>
        <time>2018-10-12T08:17:46Z</time>
      </trkpt>
      <trkpt lat="45.92469" lon="4.7346">
        <ele>173</ele>
        <time>2018-10-12T08:17:47Z</time>
      </trkpt>
      <trkpt lat="45.92468" lon="4.73453">
        <ele>173</ele>
        <time>2018-10-12T08:17:48Z</time>
      </trkpt>
      <trkpt lat="45.92467" lon="4.73447">
        <ele>173</ele>
        <time>2018-10-12T08:17:49Z</time>
      </trkpt>
      <trkpt lat="45.92465" lon="4.73441">
        <ele>173</ele>
        <time>2018-10-12T08:17:50Z</time>
      </trkpt>
      <trkpt lat="45.92462" lon="4.73435">
        <ele>173</ele>
        <time>2018-10-12T08:17:51Z</time>
      </trkpt>
      <trkpt lat="45.92459" lon="4.7343">
        <ele>173</ele>
        <time>2018-10-12T08:17:52Z</time>
      </trkpt>
      <trkpt lat="45.92452" lon="4.73423">
        <ele>173</ele>
        <time>2018-10-12T08:17:54Z</time>
      </trkpt>
      <trkpt lat="45.92449" lon="4.73421">
        <ele>173</ele>
        <time>2018-10-12T08:17:55Z</time>
      </trkpt>
      <trkpt lat="45.92445" lon="4.73419">
        <ele>173</ele>
        <time>2018-10-12T08:17:56Z</time>
      </trkpt>
      <trkpt lat="45.92441" lon="4.73415">
        <ele>172</ele>
        <time>2018-10-12T08:17:57Z</time>
      </trkpt>
      <trkpt lat="45.92434" lon="4.73408">
        <ele>172</ele>
        <time>2018-10-12T08:17:59Z</time>
      </trkpt>
      <trkpt lat="45.92431" lon="4.73401">
        <ele>172</ele>
        <time>2018-10-12T08:18:00Z</time>
      </trkpt>
      <trkpt lat="45.92429" lon="4.73394">
        <ele>172</ele>
        <time>2018-10-12T08:18:01Z</time>
      </trkpt>
      <trkpt lat="45.92428" lon="4.73387">
        <ele>172</ele>
        <time>2018-10-12T08:18:02Z</time>
      </trkpt>
      <trkpt lat="45.92426" lon="4.7338">
        <ele>172</ele>
        <time>2018-10-12T08:18:03Z</time>
      </trkpt>
      <trkpt lat="45.92425" lon="4.73372">
        <ele>172</ele>
        <time>2018-10-12T08:18:04Z</time>
      </trkpt>
      <trkpt lat="45.92424" lon="4.73364">
        <ele>172</ele>
        <time>2018-10-12T08:18:05Z</time>
      </trkpt>
      <trkpt lat="45.92423" lon="4.73357">
        <ele>171</ele>
        <time>2018-10-12T08:18:06Z</time>
      </trkpt>
      <trkpt lat="45.92422" lon="4.73349">
        <ele>171</ele>
        <time>2018-10-12T08:18:07Z</time>
      </trkpt>
      <trkpt lat="45.92423" lon="4.73341">
        <ele>171</ele>
        <time>2018-10-12T08:18:08Z</time>
      </trkpt>
      <trkpt lat="45.92421" lon="4.73334">
        <ele>171</ele>
        <time>2018-10-12T08:18:09Z</time>
      </trkpt>
      <trkpt lat="45.9242" lon="4.73326">
        <ele>171</ele>
        <time>2018-10-12T08:18:10Z</time>
      </trkpt>
      <trkpt lat="45.92418" lon="4.73319">
        <ele>171</ele>
        <time>2018-10-12T08:18:11Z</time>
      </trkpt>
      <trkpt lat="45.92417" lon="4.73313">
        <ele>171</ele>
        <time>2018-10-12T08:18:12Z</time>
      </trkpt>
      <trkpt lat="45.92414" lon="4.73301">
        <ele>171</ele>
        <time>2018-10-12T08:18:14Z</time>
      </trkpt>
      <trkpt lat="45.92414" lon="4.73295">
        <ele>171</ele>
        <time>2018-10-12T08:18:15Z</time>
      </trkpt>
      <trkpt lat="45.92413" lon="4.73289">
        <ele>171</ele>
        <time>2018-10-12T08:18:16Z</time>
      </trkpt>
      <trkpt lat="45.92412" lon="4.73282">
        <ele>171</ele>
        <time>2018-10-12T08:18:17Z</time>
      </trkpt>
      <trkpt lat="45.92412" lon="4.73275">
        <ele>171</ele>
        <time>2018-10-12T08:18:18Z</time>
      </trkpt>
      <trkpt lat="45.92412" lon="4.73267">
        <ele>171</ele>
        <time>2018-10-12T08:18:19Z</time>
      </trkpt>
      <trkpt lat="45.92412" lon="4.7326">
        <ele>171</ele>
        <time>2018-10-12T08:18:20Z</time>
      </trkpt>
      <trkpt lat="45.92412" lon="4.73252">
        <ele>171</ele>
        <time>2018-10-12T08:18:21Z</time>
      </trkpt>
      <trkpt lat="45.92412" lon="4.73243">
        <ele>171</ele>
        <time>2018-10-12T08:18:22Z</time>
      </trkpt>
      <trkpt lat="45.92411" lon="4.73236">
        <ele>171</ele>
        <time>2018-10-12T08:18:23Z</time>
      </trkpt>
      <trkpt lat="45.92412" lon="4.73228">
        <ele>171</ele>
        <time>2018-10-12T08:18:24Z</time>
      </trkpt>
      <trkpt lat="45.92411" lon="4.7322">
        <ele>171</ele>
        <time>2018-10-12T08:18:25Z</time>
      </trkpt>
      <trkpt lat="45.92411" lon="4.73212">
        <ele>171</ele>
        <time>2018-10-12T08:18:26Z</time>
      </trkpt>
      <trkpt lat="45.92411" lon="4.73203">
        <ele>171</ele>
        <time>2018-10-12T08:18:27Z</time>
      </trkpt>
      <trkpt lat="45.92411" lon="4.73196">
        <ele>171</ele>
        <time>2018-10-12T08:18:28Z</time>
      </trkpt>
      <trkpt lat="45.92411" lon="4.73189">
        <ele>171</ele>
        <time>2018-10-12T08:18:29Z</time>
      </trkpt>
      <trkpt lat="45.92411" lon="4.73181">
        <ele>171</ele>
        <time>2018-10-12T08:18:30Z</time>
      </trkpt>
      <trkpt lat="45.9241" lon="4.73174">
        <ele>170</ele>
        <time>2018-10-12T08:18:31Z</time>
      </trkpt>
      <trkpt lat="45.9241" lon="4.73168">
        <ele>170</ele>
        <time>2018-10-12T08:18:32Z</time>
      </trkpt>
      <trkpt lat="45.9241" lon="4.73161">
        <ele>170</ele>
        <time>2018-10-12T08:18:33Z</time>
      </trkpt>
      <trkpt lat="45.9241" lon="4.73149">
        <ele>171</ele>
        <time>2018-10-12T08:18:35Z</time>
      </trkpt>
      <trkpt lat="45.9241" lon="4.73144">
        <ele>171</ele>
        <time>2018-10-12T08:18:36Z</time>
      </trkpt>
      <trkpt lat="45.92411" lon="4.73137">
        <ele>171</ele>
        <time>2018-10-12T08:18:37Z</time>
      </trkpt>
      <trkpt lat="45.92411" lon="4.7313">
        <ele>171</ele>
        <time>2018-10-12T08:18:38Z</time>
      </trkpt>
      <trkpt lat="45.92413" lon="4.73125">
        <ele>171</ele>
        <time>2018-10-12T08:18:39Z</time>
      </trkpt>
      <trkpt lat="45.92415" lon="4.73119">
        <ele>171</ele>
        <time>2018-10-12T08:18:40Z</time>
      </trkpt>
      <trkpt lat="45.92419" lon="4.73114">
        <ele>170</ele>
        <time>2018-10-12T08:18:41Z</time>
      </trkpt>
      <trkpt lat="45.92423" lon="4.7311">
        <ele>170</ele>
        <time>2018-10-12T08:18:42Z</time>
      </trkpt>
      <trkpt lat="45.92427" lon="4.73106">
        <ele>171</ele>
        <time>2018-10-12T08:18:43Z</time>
      </trkpt>
      <trkpt lat="45.92432" lon="4.73102">
        <ele>171</ele>
        <time>2018-10-12T08:18:44Z</time>
      </trkpt>
      <trkpt lat="45.92437" lon="4.73099">
        <ele>170</ele>
        <time>2018-10-12T08:18:45Z</time>
      </trkpt>
      <trkpt lat="45.92442" lon="4.73095">
        <ele>170</ele>
        <time>2018-10-12T08:18:46Z</time>
      </trkpt>
      <trkpt lat="45.92448" lon="4.7309">
        <ele>170</ele>
        <time>2018-10-12T08:18:47Z</time>
      </trkpt>
      <trkpt lat="45.92453" lon="4.73086">
        <ele>170</ele>
        <time>2018-10-12T08:18:48Z</time>
      </trkpt>
      <trkpt lat="45.92457" lon="4.73082">
        <ele>170</ele>
        <time>2018-10-12T08:18:49Z</time>
      </trkpt>
      <trkpt lat="45.92462" lon="4.73078">
        <ele>170</ele>
        <time>2018-10-12T08:18:50Z</time>
      </trkpt>
      <trkpt lat="45.92467" lon="4.73074">
        <ele>170</ele>
        <time>2018-10-12T08:18:51Z</time>
      </trkpt>
      <trkpt lat="45.92472" lon="4.7307">
        <ele>170</ele>
        <time>2018-10-12T08:18:52Z</time>
      </trkpt>
      <trkpt lat="45.92476" lon="4.73066">
        <ele>170</ele>
        <time>2018-10-12T08:18:53Z</time>
      </trkpt>
      <trkpt lat="45.92482" lon="4.73062">
        <ele>170</ele>
        <time>2018-10-12T08:18:54Z</time>
      </trkpt>
      <trkpt lat="45.92486" lon="4.73058">
        <ele>170</ele>
        <time>2018-10-12T08:18:55Z</time>
      </trkpt>
      <trkpt lat="45.92491" lon="4.73054">
        <ele>170</ele>
        <time>2018-10-12T08:18:56Z</time>
      </trkpt>
      <trkpt lat="45.92496" lon="4.7305">
        <ele>170</ele>
        <time>2018-10-12T08:18:57Z</time>
      </trkpt>
      <trkpt lat="45.925" lon="4.73046">
        <ele>170</ele>
        <time>2018-10-12T08:18:58Z</time>
      </trkpt>
      <trkpt lat="45.92505" lon="4.73042">
        <ele>170</ele>
        <time>2018-10-12T08:18:59Z</time>
      </trkpt>
      <trkpt lat="45.9251" lon="4.73038">
        <ele>169</ele>
        <time>2018-10-12T08:19:00Z</time>
      </trkpt>
      <trkpt lat="45.92515" lon="4.73034">
        <ele>169</ele>
        <time>2018-10-12T08:19:01Z</time>
      </trkpt>
      <trkpt lat="45.9252" lon="4.73029">
        <ele>169</ele>
        <time>2018-10-12T08:19:02Z</time>
      </trkpt>
      <trkpt lat="45.92526" lon="4.73025">
        <ele>169</ele>
        <time>2018-10-12T08:19:03Z</time>
      </trkpt>
      <trkpt lat="45.92531" lon="4.7302">
        <ele>169</ele>
        <time>2018-10-12T08:19:04Z</time>
      </trkpt>
      <trkpt lat="45.92536" lon="4.73016">
        <ele>169</ele>
        <time>2018-10-12T08:19:05Z</time>
      </trkpt>
      <trkpt lat="45.92541" lon="4.73012">
        <ele>169</ele>
        <time>2018-10-12T08:19:06Z</time>
      </trkpt>
      <trkpt lat="45.92546" lon="4.73008">
        <ele>169</ele>
        <time>2018-10-12T08:19:07Z</time>
      </trkpt>
      <trkpt lat="45.9255" lon="4.73004">
        <ele>169</ele>
        <time>2018-10-12T08:19:08Z</time>
      </trkpt>
      <trkpt lat="45.92555" lon="4.72999">
        <ele>169</ele>
        <time>2018-10-12T08:19:09Z</time>
      </trkpt>
      <trkpt lat="45.92559" lon="4.72995">
        <ele>169</ele>
        <time>2018-10-12T08:19:10Z</time>
      </trkpt>
      <trkpt lat="45.92563" lon="4.7299">
        <ele>169</ele>
        <time>2018-10-12T08:19:11Z</time>
      </trkpt>
      <trkpt lat="45.92567" lon="4.72985">
        <ele>169</ele>
        <time>2018-10-12T08:19:12Z</time>
      </trkpt>
      <trkpt lat="45.92571" lon="4.72981">
        <ele>169</ele>
        <time>2018-10-12T08:19:13Z</time>
      </trkpt>
      <trkpt lat="45.92576" lon="4.72976">
        <ele>169</ele>
        <time>2018-10-12T08:19:14Z</time>
      </trkpt>
      <trkpt lat="45.9258" lon="4.7297">
        <ele>169</ele>
        <time>2018-10-12T08:19:15Z</time>
      </trkpt>
      <trkpt lat="45.92585" lon="4.72965">
        <ele>169</ele>
        <time>2018-10-12T08:19:16Z</time>
      </trkpt>
      <trkpt lat="45.92589" lon="4.7296">
        <ele>169</ele>
        <time>2018-10-12T08:19:17Z</time>
      </trkpt>
      <trkpt lat="45.92594" lon="4.72955">
        <ele>169</ele>
        <time>2018-10-12T08:19:18Z</time>
      </trkpt>
      <trkpt lat="45.92599" lon="4.72949">
        <ele>169</ele>
        <time>2018-10-12T08:19:19Z</time>
      </trkpt>
      <trkpt lat="45.92603" lon="4.72945">
        <ele>169</ele>
        <time>2018-10-12T08:19:20Z</time>
      </trkpt>
      <trkpt lat="45.92608" lon="4.72939">
        <ele>169</ele>
        <time>2018-10-12T08:19:21Z</time>
      </trkpt>
      <trkpt lat="45.92614" lon="4.72933">
        <ele>169</ele>
        <time>2018-10-12T08:19:22Z</time>
      </trkpt>
      <trkpt lat="45.92618" lon="4.72929">
        <ele>169</ele>
        <time>2018-10-12T08:19:23Z</time>
      </trkpt>
      <trkpt lat="45.92624" lon="4.72924">
        <ele>169</ele>
        <time>2018-10-12T08:19:24Z</time>
      </trkpt>
      <trkpt lat="45.92629" lon="4.7292">
        <ele>170</ele>
        <time>2018-10-12T08:19:25Z</time>
      </trkpt>
      <trkpt lat="45.92634" lon="4.72916">
        <ele>169</ele>
        <time>2018-10-12T08:19:26Z</time>
      </trkpt>
      <trkpt lat="45.92639" lon="4.72913">
        <ele>169</ele>
        <time>2018-10-12T08:19:27Z</time>
      </trkpt>
      <trkpt lat="45.92643" lon="4.72909">
        <ele>170</ele>
        <time>2018-10-12T08:19:28Z</time>
      </trkpt>
      <trkpt lat="45.92648" lon="4.72906">
        <ele>170</ele>
        <time>2018-10-12T08:19:29Z</time>
      </trkpt>
      <trkpt lat="45.92653" lon="4.72902">
        <ele>170</ele>
        <time>2018-10-12T08:19:30Z</time>
      </trkpt>
      <trkpt lat="45.92658" lon="4.72898">
        <ele>170</ele>
        <time>2018-10-12T08:19:31Z</time>
      </trkpt>
      <trkpt lat="45.92663" lon="4.72895">
        <ele>170</ele>
        <time>2018-10-12T08:19:32Z</time>
      </trkpt>
      <trkpt lat="45.92668" lon="4.72891">
        <ele>170</ele>
        <time>2018-10-12T08:19:33Z</time>
      </trkpt>
      <trkpt lat="45.92674" lon="4.72887">
        <ele>170</ele>
        <time>2018-10-12T08:19:34Z</time>
      </trkpt>
      <trkpt lat="45.92678" lon="4.72882">
        <ele>170</ele>
        <time>2018-10-12T08:19:35Z</time>
      </trkpt>
      <trkpt lat="45.92684" lon="4.72878">
        <ele>170</ele>
        <time>2018-10-12T08:19:36Z</time>
      </trkpt>
      <trkpt lat="45.92689" lon="4.72874">
        <ele>169</ele>
        <time>2018-10-12T08:19:37Z</time>
      </trkpt>
      <trkpt lat="45.92694" lon="4.7287">
        <ele>169</ele>
        <time>2018-10-12T08:19:38Z</time>
      </trkpt>
      <trkpt lat="45.927" lon="4.72865">
        <ele>169</ele>
        <time>2018-10-12T08:19:39Z</time>
      </trkpt>
      <trkpt lat="45.92705" lon="4.72861">
        <ele>169</ele>
        <time>2018-10-12T08:19:40Z</time>
      </trkpt>
      <trkpt lat="45.92711" lon="4.72857">
        <ele>169</ele>
        <time>2018-10-12T08:19:41Z</time>
      </trkpt>
      <trkpt lat="45.92716" lon="4.72853">
        <ele>169</ele>
        <time>2018-10-12T08:19:42Z</time>
      </trkpt>
      <trkpt lat="45.92721" lon="4.72848">
        <ele>169</ele>
        <time>2018-10-12T08:19:43Z</time>
      </trkpt>
      <trkpt lat="45.92726" lon="4.72845">
        <ele>169</ele>
        <time>2018-10-12T08:19:44Z</time>
      </trkpt>
      <trkpt lat="45.92731" lon="4.72841">
        <ele>169</ele>
        <time>2018-10-12T08:19:45Z</time>
      </trkpt>
      <trkpt lat="45.92736" lon="4.72838">
        <ele>169</ele>
        <time>2018-10-12T08:19:46Z</time>
      </trkpt>
      <trkpt lat="45.92741" lon="4.72834">
        <ele>169</ele>
        <time>2018-10-12T08:19:47Z</time>
      </trkpt>
      <trkpt lat="45.92746" lon="4.72831">
        <ele>169</ele>
        <time>2018-10-12T08:19:48Z</time>
      </trkpt>
      <trkpt lat="45.9275" lon="4.72827">
        <ele>169</ele>
        <time>2018-10-12T08:19:49Z</time>
      </trkpt>
      <trkpt lat="45.92755" lon="4.72823">
        <ele>170</ele>
        <time>2018-10-12T08:19:50Z</time>
      </trkpt>
      <trkpt lat="45.9276" lon="4.72819">
        <ele>170</ele>
        <time>2018-10-12T08:19:51Z</time>
      </trkpt>
      <trkpt lat="45.92764" lon="4.72814">
        <ele>170</ele>
        <time>2018-10-12T08:19:52Z</time>
      </trkpt>
      <trkpt lat="45.92769" lon="4.7281">
        <ele>170</ele>
        <time>2018-10-12T08:19:53Z</time>
      </trkpt>
      <trkpt lat="45.92773" lon="4.72806">
        <ele>170</ele>
        <time>2018-10-12T08:19:54Z</time>
      </trkpt>
      <trkpt lat="45.92778" lon="4.72801">
        <ele>170</ele>
        <time>2018-10-12T08:19:55Z</time>
      </trkpt>
      <trkpt lat="45.92782" lon="4.72798">
        <ele>170</ele>
        <time>2018-10-12T08:19:56Z</time>
      </trkpt>
      <trkpt lat="45.92787" lon="4.72795">
        <ele>170</ele>
        <time>2018-10-12T08:19:57Z</time>
      </trkpt>
      <trkpt lat="45.92791" lon="4.72793">
        <ele>170</ele>
        <time>2018-10-12T08:19:58Z</time>
      </trkpt>
      <trkpt lat="45.92799" lon="4.72792">
        <ele>171</ele>
        <time>2018-10-12T08:20:00Z</time>
      </trkpt>
      <trkpt lat="45.92801" lon="4.72795">
        <ele>171</ele>
        <time>2018-10-12T08:20:01Z</time>
      </trkpt>
      <trkpt lat="45.92804" lon="4.72806">
        <ele>171</ele>
        <time>2018-10-12T08:20:03Z</time>
      </trkpt>
      <trkpt lat="45.92805" lon="4.72813">
        <ele>171</ele>
        <time>2018-10-12T08:20:04Z</time>
      </trkpt>
      <trkpt lat="45.92805" lon="4.7282">
        <ele>171</ele>
        <time>2018-10-12T08:20:05Z</time>
      </trkpt>
      <trkpt lat="45.92805" lon="4.72826">
        <ele>171</ele>
        <time>2018-10-12T08:20:06Z</time>
      </trkpt>
      <trkpt lat="45.92806" lon="4.72834">
        <ele>170</ele>
        <time>2018-10-12T08:20:07Z</time>
      </trkpt>
      <trkpt lat="45.92808" lon="4.72841">
        <ele>170</ele>
        <time>2018-10-12T08:20:08Z</time>
      </trkpt>
      <trkpt lat="45.92809" lon="4.72848">
        <ele>170</ele>
        <time>2018-10-12T08:20:09Z</time>
      </trkpt>
      <trkpt lat="45.92811" lon="4.72855">
        <ele>170</ele>
        <time>2018-10-12T08:20:10Z</time>
      </trkpt>
      <trkpt lat="45.92813" lon="4.72863">
        <ele>170</ele>
        <time>2018-10-12T08:20:11Z</time>
      </trkpt>
      <trkpt lat="45.92815" lon="4.7287">
        <ele>170</ele>
        <time>2018-10-12T08:20:12Z</time>
      </trkpt>
      <trkpt lat="45.92816" lon="4.72877">
        <ele>170</ele>
        <time>2018-10-12T08:20:13Z</time>
      </trkpt>
      <trkpt lat="45.92818" lon="4.72885">
        <ele>170</ele>
        <time>2018-10-12T08:20:14Z</time>
      </trkpt>
      <trkpt lat="45.92819" lon="4.72892">
        <ele>170</ele>
        <time>2018-10-12T08:20:15Z</time>
      </trkpt>
      <trkpt lat="45.9282" lon="4.72898">
        <ele>170</ele>
        <time>2018-10-12T08:20:16Z</time>
      </trkpt>
      <trkpt lat="45.92823" lon="4.72904">
        <ele>170</ele>
        <time>2018-10-12T08:20:17Z</time>
      </trkpt>
      <trkpt lat="45.92823" lon="4.72911">
        <ele>170</ele>
        <time>2018-10-12T08:20:18Z</time>
      </trkpt>
      <trkpt lat="45.92824" lon="4.72918">
        <ele>170</ele>
        <time>2018-10-12T08:20:19Z</time>
      </trkpt>
      <trkpt lat="45.92825" lon="4.72925">
        <ele>170</ele>
        <time>2018-10-12T08:20:20Z</time>
      </trkpt>
      <trkpt lat="45.92825" lon="4.72932">
        <ele>170</ele>
        <time>2018-10-12T08:20:21Z</time>
      </trkpt>
      <trkpt lat="45.92827" lon="4.7294">
        <ele>170</ele>
        <time>2018-10-12T08:20:22Z</time>
      </trkpt>
      <trkpt lat="45.92827" lon="4.72948">
        <ele>170</ele>
        <time>2018-10-12T08:20:23Z</time>
      </trkpt>
      <trkpt lat="45.92828" lon="4.72957">
        <ele>170</ele>
        <time>2018-10-12T08:20:24Z</time>
      </trkpt>
      <trkpt lat="45.92828" lon="4.72964">
        <ele>170</ele>
        <time>2018-10-12T08:20:25Z</time>
      </trkpt>
      <trkpt lat="45.92828" lon="4.72973">
        <ele>170</ele>
        <time>2018-10-12T08:20:26Z</time>
      </trkpt>
      <trkpt lat="45.92829" lon="4.72981">
        <ele>170</ele>
        <time>2018-10-12T08:20:27Z</time>
      </trkpt>
      <trkpt lat="45.9283" lon="4.72989">
        <ele>170</ele>
        <time>2018-10-12T08:20:28Z</time>
      </trkpt>
      <trkpt lat="45.92831" lon="4.72997">
        <ele>170</ele>
        <time>2018-10-12T08:20:29Z</time>
      </trkpt>
      <trkpt lat="45.92832" lon="4.73004">
        <ele>170</ele>
        <time>2018-10-12T08:20:30Z</time>
      </trkpt>
      <trkpt lat="45.92833" lon="4.73012">
        <ele>170</ele>
        <time>2018-10-12T08:20:31Z</time>
      </trkpt>
      <trkpt lat="45.92834" lon="4.73019">
        <ele>171</ele>
        <time>2018-10-12T08:20:32Z</time>
      </trkpt>
      <trkpt lat="45.92836" lon="4.73027">
        <ele>171</ele>
        <time>2018-10-12T08:20:33Z</time>
      </trkpt>
      <trkpt lat="45.92838" lon="4.73035">
        <ele>171</ele>
        <time>2018-10-12T08:20:34Z</time>
      </trkpt>
      <trkpt lat="45.92839" lon="4.73042">
        <ele>171</ele>
        <time>2018-10-12T08:20:35Z</time>
      </trkpt>
      <trkpt lat="45.92841" lon="4.7305">
        <ele>171</ele>
        <time>2018-10-12T08:20:36Z</time>
      </trkpt>
      <trkpt lat="45.92842" lon="4.73058">
        <ele>171</ele>
        <time>2018-10-12T08:20:37Z</time>
      </trkpt>
      <trkpt lat="45.92844" lon="4.73066">
        <ele>171</ele>
        <time>2018-10-12T08:20:38Z</time>
      </trkpt>
      <trkpt lat="45.92844" lon="4.73073">
        <ele>171</ele>
        <time>2018-10-12T08:20:39Z</time>
      </trkpt>
      <trkpt lat="45.92845" lon="4.7308">
        <ele>171</ele>
        <time>2018-10-12T08:20:40Z</time>
      </trkpt>
      <trkpt lat="45.92846" lon="4.73088">
        <ele>171</ele>
        <time>2018-10-12T08:20:41Z</time>
      </trkpt>
      <trkpt lat="45.92847" lon="4.73094">
        <ele>171</ele>
        <time>2018-10-12T08:20:42Z</time>
      </trkpt>
      <trkpt lat="45.92852" lon="4.73103">
        <ele>171</ele>
        <time>2018-10-12T08:20:44Z</time>
      </trkpt>
      <trkpt lat="45.92855" lon="4.73104">
        <ele>171</ele>
        <time>2018-10-12T08:20:45Z</time>
      </trkpt>
      <trkpt lat="45.92859" lon="4.73102">
        <ele>171</ele>
        <time>2018-10-12T08:20:47Z</time>
      </trkpt>
      <trkpt lat="45.92864" lon="4.73097">
        <ele>171</ele>
        <time>2018-10-12T08:20:48Z</time>
      </trkpt>
      <trkpt lat="45.92869" lon="4.73089">
        <ele>172</ele>
        <time>2018-10-12T08:20:50Z</time>
      </trkpt>
      <trkpt lat="45.92871" lon="4.73087">
        <ele>172</ele>
        <time>2018-10-12T08:20:51Z</time>
      </trkpt>
      <trkpt lat="45.92878" lon="4.73079">
        <ele>172</ele>
        <time>2018-10-12T08:20:54Z</time>
      </trkpt>
      <trkpt lat="45.92883" lon="4.73072">
        <ele>172</ele>
        <time>2018-10-12T08:20:55Z</time>
      </trkpt>
      <trkpt lat="45.9289" lon="4.73064">
        <ele>172</ele>
        <time>2018-10-12T08:20:57Z</time>
      </trkpt>
      <trkpt lat="45.92893" lon="4.7306">
        <ele>172</ele>
        <time>2018-10-12T08:20:58Z</time>
      </trkpt>
      <trkpt lat="45.92897" lon="4.73057">
        <ele>172</ele>
        <time>2018-10-12T08:20:59Z</time>
      </trkpt>
      <trkpt lat="45.92902" lon="4.73052">
        <ele>172</ele>
        <time>2018-10-12T08:21:00Z</time>
      </trkpt>
      <trkpt lat="45.92907" lon="4.73048">
        <ele>172</ele>
        <time>2018-10-12T08:21:01Z</time>
      </trkpt>
      <trkpt lat="45.92911" lon="4.73042">
        <ele>172</ele>
        <time>2018-10-12T08:21:02Z</time>
      </trkpt>
      <trkpt lat="45.92915" lon="4.73036">
        <ele>172</ele>
        <time>2018-10-12T08:21:03Z</time>
      </trkpt>
      <trkpt lat="45.9292" lon="4.73029">
        <ele>172</ele>
        <time>2018-10-12T08:21:04Z</time>
      </trkpt>
      <trkpt lat="45.92924" lon="4.73023">
        <ele>171</ele>
        <time>2018-10-12T08:21:05Z</time>
      </trkpt>
      <trkpt lat="45.92929" lon="4.73016">
        <ele>171</ele>
        <time>2018-10-12T08:21:06Z</time>
      </trkpt>
      <trkpt lat="45.92934" lon="4.73011">
        <ele>171</ele>
        <time>2018-10-12T08:21:07Z</time>
      </trkpt>
      <trkpt lat="45.92938" lon="4.73006">
        <ele>171</ele>
        <time>2018-10-12T08:21:08Z</time>
      </trkpt>
      <trkpt lat="45.92943" lon="4.73">
        <ele>171</ele>
        <time>2018-10-12T08:21:09Z</time>
      </trkpt>
      <trkpt lat="45.92947" lon="4.72995">
        <ele>171</ele>
        <time>2018-10-12T08:21:10Z</time>
      </trkpt>
      <trkpt lat="45.92952" lon="4.7299">
        <ele>171</ele>
        <time>2018-10-12T08:21:11Z</time>
      </trkpt>
      <trkpt lat="45.92957" lon="4.72985">
        <ele>171</ele>
        <time>2018-10-12T08:21:12Z</time>
      </trkpt>
      <trkpt lat="45.9296" lon="4.72981">
        <ele>171</ele>
        <time>2018-10-12T08:21:13Z</time>
      </trkpt>
      <trkpt lat="45.92965" lon="4.72976">
        <ele>171</ele>
        <time>2018-10-12T08:21:14Z</time>
      </trkpt>
      <trkpt lat="45.92969" lon="4.72972">
        <ele>171</ele>
        <time>2018-10-12T08:21:15Z</time>
      </trkpt>
      <trkpt lat="45.92973" lon="4.72967">
        <ele>171</ele>
        <time>2018-10-12T08:21:16Z</time>
      </trkpt>
      <trkpt lat="45.92977" lon="4.72961">
        <ele>171</ele>
        <time>2018-10-12T08:21:17Z</time>
      </trkpt>
      <trkpt lat="45.92982" lon="4.72955">
        <ele>171</ele>
        <time>2018-10-12T08:21:18Z</time>
      </trkpt>
      <trkpt lat="45.92987" lon="4.72949">
        <ele>171</ele>
        <time>2018-10-12T08:21:19Z</time>
      </trkpt>
      <trkpt lat="45.92993" lon="4.72944">
        <ele>171</ele>
        <time>2018-10-12T08:21:20Z</time>
      </trkpt>
      <trkpt lat="45.92998" lon="4.72938">
        <ele>171</ele>
        <time>2018-10-12T08:21:21Z</time>
      </trkpt>
      <trkpt lat="45.93002" lon="4.72932">
        <ele>170</ele>
        <time>2018-10-12T08:21:22Z</time>
      </trkpt>
      <trkpt lat="45.93007" lon="4.72926">
        <ele>170</ele>
        <time>2018-10-12T08:21:23Z</time>
      </trkpt>
      <trkpt lat="45.93012" lon="4.72921">
        <ele>170</ele>
        <time>2018-10-12T08:21:24Z</time>
      </trkpt>
      <trkpt lat="45.93016" lon="4.72915">
        <ele>171</ele>
        <time>2018-10-12T08:21:25Z</time>
      </trkpt>
      <trkpt lat="45.93021" lon="4.7291">
        <ele>172</ele>
        <time>2018-10-12T08:21:26Z</time>
      </trkpt>
      <trkpt lat="45.93025" lon="4.72904">
        <ele>172</ele>
        <time>2018-10-12T08:21:27Z</time>
      </trkpt>
      <trkpt lat="45.93029" lon="4.72899">
        <ele>172</ele>
        <time>2018-10-12T08:21:28Z</time>
      </trkpt>
      <trkpt lat="45.93034" lon="4.72894">
        <ele>172</ele>
        <time>2018-10-12T08:21:29Z</time>
      </trkpt>
      <trkpt lat="45.93039" lon="4.72889">
        <ele>172</ele>
        <time>2018-10-12T08:21:30Z</time>
      </trkpt>
      <trkpt lat="45.93043" lon="4.72883">
        <ele>172</ele>
        <time>2018-10-12T08:21:31Z</time>
      </trkpt>
      <trkpt lat="45.93048" lon="4.72877">
        <ele>172</ele>
        <time>2018-10-12T08:21:32Z</time>
      </trkpt>
      <trkpt lat="45.93053" lon="4.72871">
        <ele>172</ele>
        <time>2018-10-12T08:21:33Z</time>
      </trkpt>
      <trkpt lat="45.93058" lon="4.72866">
        <ele>172</ele>
        <time>2018-10-12T08:21:34Z</time>
      </trkpt>
      <trkpt lat="45.93063" lon="4.7286">
        <ele>172</ele>
        <time>2018-10-12T08:21:35Z</time>
      </trkpt>
      <trkpt lat="45.93068" lon="4.72855">
        <ele>172</ele>
        <time>2018-10-12T08:21:36Z</time>
      </trkpt>
      <trkpt lat="45.93097" lon="4.72828">
        <ele>172</ele>
        <time>2018-10-12T08:21:41Z</time>
      </trkpt>
      <trkpt lat="45.93102" lon="4.72816">
        <ele>172</ele>
        <time>2018-10-12T08:21:42Z</time>
      </trkpt>
      <trkpt lat="45.93106" lon="4.72805">
        <ele>171</ele>
        <time>2018-10-12T08:21:44Z</time>
      </trkpt>
      <trkpt lat="45.93112" lon="4.728">
        <ele>171</ele>
        <time>2018-10-12T08:21:45Z</time>
      </trkpt>
      <trkpt lat="45.93115" lon="4.72796">
        <ele>171</ele>
        <time>2018-10-12T08:21:46Z</time>
      </trkpt>
      <trkpt lat="45.93119" lon="4.72791">
        <ele>171</ele>
        <time>2018-10-12T08:21:47Z</time>
      </trkpt>
      <trkpt lat="45.93124" lon="4.72788">
        <ele>171</ele>
        <time>2018-10-12T08:21:48Z</time>
      </trkpt>
      <trkpt lat="45.93128" lon="4.72783">
        <ele>171</ele>
        <time>2018-10-12T08:21:49Z</time>
      </trkpt>
      <trkpt lat="45.93133" lon="4.72778">
        <ele>171</ele>
        <time>2018-10-12T08:21:50Z</time>
      </trkpt>
      <trkpt lat="45.93137" lon="4.72773">
        <ele>171</ele>
        <time>2018-10-12T08:21:51Z</time>
      </trkpt>
      <trkpt lat="45.93141" lon="4.72768">
        <ele>171</ele>
        <time>2018-10-12T08:21:52Z</time>
      </trkpt>
      <trkpt lat="45.93146" lon="4.72763">
        <ele>171</ele>
        <time>2018-10-12T08:21:53Z</time>
      </trkpt>
      <trkpt lat="45.93152" lon="4.72755">
        <ele>170</ele>
        <time>2018-10-12T08:21:54Z</time>
      </trkpt>
      <trkpt lat="45.93157" lon="4.72749">
        <ele>170</ele>
        <time>2018-10-12T08:21:55Z</time>
      </trkpt>
      <trkpt lat="45.93161" lon="4.72744">
        <ele>170</ele>
        <time>2018-10-12T08:21:56Z</time>
      </trkpt>
      <trkpt lat="45.93166" lon="4.72738">
        <ele>170</ele>
        <time>2018-10-12T08:21:57Z</time>
      </trkpt>
      <trkpt lat="45.9317" lon="4.72733">
        <ele>170</ele>
        <time>2018-10-12T08:21:58Z</time>
      </trkpt>
      <trkpt lat="45.93174" lon="4.72728">
        <ele>170</ele>
        <time>2018-10-12T08:21:59Z</time>
      </trkpt>
      <trkpt lat="45.93178" lon="4.72723">
        <ele>170</ele>
        <time>2018-10-12T08:22:00Z</time>
      </trkpt>
      <trkpt lat="45.93182" lon="4.72716">
        <ele>169</ele>
        <time>2018-10-12T08:22:01Z</time>
      </trkpt>
      <trkpt lat="45.93186" lon="4.72711">
        <ele>169</ele>
        <time>2018-10-12T08:22:02Z</time>
      </trkpt>
      <trkpt lat="45.9319" lon="4.72706">
        <ele>169</ele>
        <time>2018-10-12T08:22:03Z</time>
      </trkpt>
      <trkpt lat="45.93194" lon="4.72701">
        <ele>169</ele>
        <time>2018-10-12T08:22:04Z</time>
      </trkpt>
      <trkpt lat="45.93199" lon="4.72695">
        <ele>169</ele>
        <time>2018-10-12T08:22:05Z</time>
      </trkpt>
      <trkpt lat="45.93204" lon="4.72689">
        <ele>169</ele>
        <time>2018-10-12T08:22:06Z</time>
      </trkpt>
      <trkpt lat="45.93209" lon="4.72684">
        <ele>169</ele>
        <time>2018-10-12T08:22:07Z</time>
      </trkpt>
      <trkpt lat="45.93213" lon="4.72678">
        <ele>169</ele>
        <time>2018-10-12T08:22:08Z</time>
      </trkpt>
      <trkpt lat="45.93218" lon="4.72671">
        <ele>169</ele>
        <time>2018-10-12T08:22:09Z</time>
      </trkpt>
      <trkpt lat="45.93223" lon="4.72666">
        <ele>170</ele>
        <time>2018-10-12T08:22:10Z</time>
      </trkpt>
      <trkpt lat="45.93228" lon="4.72661">
        <ele>169</ele>
        <time>2018-10-12T08:22:11Z</time>
      </trkpt>
      <trkpt lat="45.93233" lon="4.72656">
        <ele>169</ele>
        <time>2018-10-12T08:22:12Z</time>
      </trkpt>
      <trkpt lat="45.93238" lon="4.7265">
        <ele>169</ele>
        <time>2018-10-12T08:22:13Z</time>
      </trkpt>
      <trkpt lat="45.93243" lon="4.72645">
        <ele>170</ele>
        <time>2018-10-12T08:22:14Z</time>
      </trkpt>
      <trkpt lat="45.93249" lon="4.72638">
        <ele>170</ele>
        <time>2018-10-12T08:22:15Z</time>
      </trkpt>
      <trkpt lat="45.93253" lon="4.72632">
        <ele>170</ele>
        <time>2018-10-12T08:22:16Z</time>
      </trkpt>
      <trkpt lat="45.93258" lon="4.72626">
        <ele>170</ele>
        <time>2018-10-12T08:22:17Z</time>
      </trkpt>
      <trkpt lat="45.93263" lon="4.72619">
        <ele>170</ele>
        <time>2018-10-12T08:22:18Z</time>
      </trkpt>
      <trkpt lat="45.93269" lon="4.72613">
        <ele>170</ele>
        <time>2018-10-12T08:22:19Z</time>
      </trkpt>
      <trkpt lat="45.93273" lon="4.72608">
        <ele>170</ele>
        <time>2018-10-12T08:22:20Z</time>
      </trkpt>
      <trkpt lat="45.93277" lon="4.72601">
        <ele>170</ele>
        <time>2018-10-12T08:22:21Z</time>
      </trkpt>
      <trkpt lat="45.93282" lon="4.72595">
        <ele>170</ele>
        <time>2018-10-12T08:22:22Z</time>
      </trkpt>
      <trkpt lat="45.93287" lon="4.72589">
        <ele>170</ele>
        <time>2018-10-12T08:22:23Z</time>
      </trkpt>
      <trkpt lat="45.93291" lon="4.72584">
        <ele>170</ele>
        <time>2018-10-12T08:22:24Z</time>
      </trkpt>
      <trkpt lat="45.93296" lon="4.72579">
        <ele>171</ele>
        <time>2018-10-12T08:22:25Z</time>
      </trkpt>
      <trkpt lat="45.93301" lon="4.72574">
        <ele>171</ele>
        <time>2018-10-12T08:22:26Z</time>
      </trkpt>
      <trkpt lat="45.93306" lon="4.7257">
        <ele>171</ele>
        <time>2018-10-12T08:22:27Z</time>
      </trkpt>
      <trkpt lat="45.93311" lon="4.72564">
        <ele>171</ele>
        <time>2018-10-12T08:22:28Z</time>
      </trkpt>
      <trkpt lat="45.93316" lon="4.72559">
        <ele>171</ele>
        <time>2018-10-12T08:22:29Z</time>
      </trkpt>
      <trkpt lat="45.9332" lon="4.72555">
        <ele>172</ele>
        <time>2018-10-12T08:22:30Z</time>
      </trkpt>
      <trkpt lat="45.93323" lon="4.72549">
        <ele>172</ele>
        <time>2018-10-12T08:22:31Z</time>
      </trkpt>
      <trkpt lat="45.93327" lon="4.72544">
        <ele>172</ele>
        <time>2018-10-12T08:22:32Z</time>
      </trkpt>
      <trkpt lat="45.93332" lon="4.72537">
        <ele>172</ele>
        <time>2018-10-12T08:22:33Z</time>
      </trkpt>
      <trkpt lat="45.93338" lon="4.72532">
        <ele>172</ele>
        <time>2018-10-12T08:22:34Z</time>
      </trkpt>
      <trkpt lat="45.93342" lon="4.72527">
        <ele>172</ele>
        <time>2018-10-12T08:22:35Z</time>
      </trkpt>
      <trkpt lat="45.93347" lon="4.72522">
        <ele>172</ele>
        <time>2018-10-12T08:22:36Z</time>
      </trkpt>
      <trkpt lat="45.93353" lon="4.72516">
        <ele>172</ele>
        <time>2018-10-12T08:22:37Z</time>
      </trkpt>
      <trkpt lat="45.93357" lon="4.7251">
        <ele>172</ele>
        <time>2018-10-12T08:22:38Z</time>
      </trkpt>
      <trkpt lat="45.93362" lon="4.72506">
        <ele>172</ele>
        <time>2018-10-12T08:22:39Z</time>
      </trkpt>
      <trkpt lat="45.93365" lon="4.72502">
        <ele>172</ele>
        <time>2018-10-12T08:22:40Z</time>
      </trkpt>
      <trkpt lat="45.9337" lon="4.72497">
        <ele>173</ele>
        <time>2018-10-12T08:22:41Z</time>
      </trkpt>
      <trkpt lat="45.93374" lon="4.72493">
        <ele>173</ele>
        <time>2018-10-12T08:22:42Z</time>
      </trkpt>
      <trkpt lat="45.93379" lon="4.7249">
        <ele>173</ele>
        <time>2018-10-12T08:22:43Z</time>
      </trkpt>
      <trkpt lat="45.93383" lon="4.72485">
        <ele>173</ele>
        <time>2018-10-12T08:22:44Z</time>
      </trkpt>
      <trkpt lat="45.93387" lon="4.7248">
        <ele>173</ele>
        <time>2018-10-12T08:22:45Z</time>
      </trkpt>
      <trkpt lat="45.93391" lon="4.72475">
        <ele>173</ele>
        <time>2018-10-12T08:22:46Z</time>
      </trkpt>
      <trkpt lat="45.93394" lon="4.7247">
        <ele>173</ele>
        <time>2018-10-12T08:22:47Z</time>
      </trkpt>
      <trkpt lat="45.93397" lon="4.72464">
        <ele>173</ele>
        <time>2018-10-12T08:22:48Z</time>
      </trkpt>
      <trkpt lat="45.93399" lon="4.72454">
        <ele>173</ele>
        <time>2018-10-12T08:22:49Z</time>
      </trkpt>
      <trkpt lat="45.93402" lon="4.72448">
        <ele>173</ele>
        <time>2018-10-12T08:22:50Z</time>
      </trkpt>
      <trkpt lat="45.93403" lon="4.72441">
        <ele>173</ele>
        <time>2018-10-12T08:22:51Z</time>
      </trkpt>
      <trkpt lat="45.93405" lon="4.72434">
        <ele>173</ele>
        <time>2018-10-12T08:22:52Z</time>
      </trkpt>
      <trkpt lat="45.9341" lon="4.72426">
        <ele>174</ele>
        <time>2018-10-12T08:22:53Z</time>
      </trkpt>
      <trkpt lat="45.93414" lon="4.72421">
        <ele>174</ele>
        <time>2018-10-12T08:22:54Z</time>
      </trkpt>
      <trkpt lat="45.93419" lon="4.72418">
        <ele>174</ele>
        <time>2018-10-12T08:22:55Z</time>
      </trkpt>
      <trkpt lat="45.93423" lon="4.72415">
        <ele>174</ele>
        <time>2018-10-12T08:22:56Z</time>
      </trkpt>
      <trkpt lat="45.93429" lon="4.72413">
        <ele>174</ele>
        <time>2018-10-12T08:22:57Z</time>
      </trkpt>
      <trkpt lat="45.93433" lon="4.72409">
        <ele>174</ele>
        <time>2018-10-12T08:22:58Z</time>
      </trkpt>
      <trkpt lat="45.93438" lon="4.72405">
        <ele>174</ele>
        <time>2018-10-12T08:22:59Z</time>
      </trkpt>
      <trkpt lat="45.93442" lon="4.72401">
        <ele>173</ele>
        <time>2018-10-12T08:23:00Z</time>
      </trkpt>
      <trkpt lat="45.93447" lon="4.72397">
        <ele>173</ele>
        <time>2018-10-12T08:23:01Z</time>
      </trkpt>
      <trkpt lat="45.93452" lon="4.72393">
        <ele>173</ele>
        <time>2018-10-12T08:23:02Z</time>
      </trkpt>
      <trkpt lat="45.93456" lon="4.72388">
        <ele>173</ele>
        <time>2018-10-12T08:23:03Z</time>
      </trkpt>
      <trkpt lat="45.93461" lon="4.72383">
        <ele>173</ele>
        <time>2018-10-12T08:23:04Z</time>
      </trkpt>
      <trkpt lat="45.93466" lon="4.72378">
        <ele>173</ele>
        <time>2018-10-12T08:23:05Z</time>
      </trkpt>
      <trkpt lat="45.93469" lon="4.72372">
        <ele>173</ele>
        <time>2018-10-12T08:23:06Z</time>
      </trkpt>
      <trkpt lat="45.93474" lon="4.72367">
        <ele>173</ele>
        <time>2018-10-12T08:23:07Z</time>
      </trkpt>
      <trkpt lat="45.93478" lon="4.72362">
        <ele>173</ele>
        <time>2018-10-12T08:23:08Z</time>
      </trkpt>
      <trkpt lat="45.93482" lon="4.72356">
        <ele>173</ele>
        <time>2018-10-12T08:23:09Z</time>
      </trkpt>
      <trkpt lat="45.93487" lon="4.7235">
        <ele>173</ele>
        <time>2018-10-12T08:23:10Z</time>
      </trkpt>
      <trkpt lat="45.93492" lon="4.72342">
        <ele>173</ele>
        <time>2018-10-12T08:23:11Z</time>
      </trkpt>
      <trkpt lat="45.93497" lon="4.72335">
        <ele>173</ele>
        <time>2018-10-12T08:23:12Z</time>
      </trkpt>
      <trkpt lat="45.93501" lon="4.72329">
        <ele>173</ele>
        <time>2018-10-12T08:23:13Z</time>
      </trkpt>
      <trkpt lat="45.93507" lon="4.72323">
        <ele>173</ele>
        <time>2018-10-12T08:23:14Z</time>
      </trkpt>
      <trkpt lat="45.93511" lon="4.72317">
        <ele>173</ele>
        <time>2018-10-12T08:23:15Z</time>
      </trkpt>
      <trkpt lat="45.93516" lon="4.72312">
        <ele>173</ele>
        <time>2018-10-12T08:23:16Z</time>
      </trkpt>
      <trkpt lat="45.9352" lon="4.72305">
        <ele>173</ele>
        <time>2018-10-12T08:23:17Z</time>
      </trkpt>
      <trkpt lat="45.93523" lon="4.72298">
        <ele>172</ele>
        <time>2018-10-12T08:23:18Z</time>
      </trkpt>
      <trkpt lat="45.93526" lon="4.72293">
        <ele>172</ele>
        <time>2018-10-12T08:23:19Z</time>
      </trkpt>
      <trkpt lat="45.93528" lon="4.72287">
        <ele>172</ele>
        <time>2018-10-12T08:23:20Z</time>
      </trkpt>
      <trkpt lat="45.93531" lon="4.7228">
        <ele>172</ele>
        <time>2018-10-12T08:23:21Z</time>
      </trkpt>
      <trkpt lat="45.93534" lon="4.72272">
        <ele>172</ele>
        <time>2018-10-12T08:23:22Z</time>
      </trkpt>
      <trkpt lat="45.93535" lon="4.72265">
        <ele>172</ele>
        <time>2018-10-12T08:23:23Z</time>
      </trkpt>
      <trkpt lat="45.93538" lon="4.72259">
        <ele>172</ele>
        <time>2018-10-12T08:23:24Z</time>
      </trkpt>
      <trkpt lat="45.93541" lon="4.72253">
        <ele>172</ele>
        <time>2018-10-12T08:23:25Z</time>
      </trkpt>
      <trkpt lat="45.93544" lon="4.72246">
        <ele>172</ele>
        <time>2018-10-12T08:23:26Z</time>
      </trkpt>
      <trkpt lat="45.93547" lon="4.7224">
        <ele>172</ele>
        <time>2018-10-12T08:23:27Z</time>
      </trkpt>
      <trkpt lat="45.93549" lon="4.72233">
        <ele>172</ele>
        <time>2018-10-12T08:23:28Z</time>
      </trkpt>
      <trkpt lat="45.93553" lon="4.72228">
        <ele>173</ele>
        <time>2018-10-12T08:23:29Z</time>
      </trkpt>
      <trkpt lat="45.93558" lon="4.72226">
        <ele>173</ele>
        <time>2018-10-12T08:23:30Z</time>
      </trkpt>
      <trkpt lat="45.93564" lon="4.72226">
        <ele>173</ele>
        <time>2018-10-12T08:23:31Z</time>
      </trkpt>
      <trkpt lat="45.93569" lon="4.7223">
        <ele>173</ele>
        <time>2018-10-12T08:23:32Z</time>
      </trkpt>
      <trkpt lat="45.93574" lon="4.72235">
        <ele>173</ele>
        <time>2018-10-12T08:23:33Z</time>
      </trkpt>
      <trkpt lat="45.93578" lon="4.72241">
        <ele>173</ele>
        <time>2018-10-12T08:23:34Z</time>
      </trkpt>
      <trkpt lat="45.93583" lon="4.72245">
        <ele>173</ele>
        <time>2018-10-12T08:23:35Z</time>
      </trkpt>
      <trkpt lat="45.93587" lon="4.7225">
        <ele>173</ele>
        <time>2018-10-12T08:23:36Z</time>
      </trkpt>
      <trkpt lat="45.9359" lon="4.72255">
        <ele>173</ele>
        <time>2018-10-12T08:23:37Z</time>
      </trkpt>
      <trkpt lat="45.93594" lon="4.7226">
        <ele>173</ele>
        <time>2018-10-12T08:23:38Z</time>
      </trkpt>
      <trkpt lat="45.93598" lon="4.72264">
        <ele>173</ele>
        <time>2018-10-12T08:23:39Z</time>
      </trkpt>
      <trkpt lat="45.93603" lon="4.72267">
        <ele>173</ele>
        <time>2018-10-12T08:23:40Z</time>
      </trkpt>
      <trkpt lat="45.93608" lon="4.7227">
        <ele>172</ele>
        <time>2018-10-12T08:23:41Z</time>
      </trkpt>
      <trkpt lat="45.93612" lon="4.72274">
        <ele>172</ele>
        <time>2018-10-12T08:23:42Z</time>
      </trkpt>
      <trkpt lat="45.93616" lon="4.72278">
        <ele>172</ele>
        <time>2018-10-12T08:23:43Z</time>
      </trkpt>
      <trkpt lat="45.93623" lon="4.72284">
        <ele>172</ele>
        <time>2018-10-12T08:23:45Z</time>
      </trkpt>
      <trkpt lat="45.93627" lon="4.72289">
        <ele>172</ele>
        <time>2018-10-12T08:23:46Z</time>
      </trkpt>
      <trkpt lat="45.93635" lon="4.72294">
        <ele>172</ele>
        <time>2018-10-12T08:23:48Z</time>
      </trkpt>
      <trkpt lat="45.93641" lon="4.72302">
        <ele>172</ele>
        <time>2018-10-12T08:23:49Z</time>
      </trkpt>
      <trkpt lat="45.93646" lon="4.72307">
        <ele>172</ele>
        <time>2018-10-12T08:23:50Z</time>
      </trkpt>
      <trkpt lat="45.93654" lon="4.72311">
        <ele>172</ele>
        <time>2018-10-12T08:23:51Z</time>
      </trkpt>
      <trkpt lat="45.93658" lon="4.72316">
        <ele>172</ele>
        <time>2018-10-12T08:23:52Z</time>
      </trkpt>
      <trkpt lat="45.93662" lon="4.72321">
        <ele>172</ele>
        <time>2018-10-12T08:23:53Z</time>
      </trkpt>
      <trkpt lat="45.93666" lon="4.72326">
        <ele>171</ele>
        <time>2018-10-12T08:23:54Z</time>
      </trkpt>
      <trkpt lat="45.93673" lon="4.72333">
        <ele>171</ele>
        <time>2018-10-12T08:23:55Z</time>
      </trkpt>
      <trkpt lat="45.93678" lon="4.72336">
        <ele>171</ele>
        <time>2018-10-12T08:23:56Z</time>
      </trkpt>
      <trkpt lat="45.93682" lon="4.7234">
        <ele>171</ele>
        <time>2018-10-12T08:23:57Z</time>
      </trkpt>
      <trkpt lat="45.93686" lon="4.72344">
        <ele>171</ele>
        <time>2018-10-12T08:23:58Z</time>
      </trkpt>
      <trkpt lat="45.9369" lon="4.72348">
        <ele>171</ele>
        <time>2018-10-12T08:23:59Z</time>
      </trkpt>
      <trkpt lat="45.93705" lon="4.72363">
        <ele>171</ele>
        <time>2018-10-12T08:24:02Z</time>
      </trkpt>
      <trkpt lat="45.93713" lon="4.72374">
        <ele>172</ele>
        <time>2018-10-12T08:24:03Z</time>
      </trkpt>
      <trkpt lat="45.93719" lon="4.72382">
        <ele>171</ele>
        <time>2018-10-12T08:24:05Z</time>
      </trkpt>
      <trkpt lat="45.93724" lon="4.72384">
        <ele>171</ele>
        <time>2018-10-12T08:24:06Z</time>
      </trkpt>
      <trkpt lat="45.93731" lon="4.72391">
        <ele>171</ele>
        <time>2018-10-12T08:24:08Z</time>
      </trkpt>
      <trkpt lat="45.93735" lon="4.72394">
        <ele>171</ele>
        <time>2018-10-12T08:24:09Z</time>
      </trkpt>
      <trkpt lat="45.93739" lon="4.72398">
        <ele>171</ele>
        <time>2018-10-12T08:24:10Z</time>
      </trkpt>
      <trkpt lat="45.93745" lon="4.72402">
        <ele>171</ele>
        <time>2018-10-12T08:24:11Z</time>
      </trkpt>
      <trkpt lat="45.9375" lon="4.72406">
        <ele>171</ele>
        <time>2018-10-12T08:24:12Z</time>
      </trkpt>
      <trkpt lat="45.93755" lon="4.7241">
        <ele>171</ele>
        <time>2018-10-12T08:24:13Z</time>
      </trkpt>
      <trkpt lat="45.93759" lon="4.72414">
        <ele>171</ele>
        <time>2018-10-12T08:24:14Z</time>
      </trkpt>
      <trkpt lat="45.93763" lon="4.72418">
        <ele>171</ele>
        <time>2018-10-12T08:24:15Z</time>
      </trkpt>
      <trkpt lat="45.93768" lon="4.72423">
        <ele>171</ele>
        <time>2018-10-12T08:24:16Z</time>
      </trkpt>
      <trkpt lat="45.93772" lon="4.72428">
        <ele>171</ele>
        <time>2018-10-12T08:24:17Z</time>
      </trkpt>
      <trkpt lat="45.93776" lon="4.72431">
        <ele>171</ele>
        <time>2018-10-12T08:24:18Z</time>
      </trkpt>
      <trkpt lat="45.93781" lon="4.72437">
        <ele>172</ele>
        <time>2018-10-12T08:24:19Z</time>
      </trkpt>
      <trkpt lat="45.93786" lon="4.72442">
        <ele>172</ele>
        <time>2018-10-12T08:24:20Z</time>
      </trkpt>
      <trkpt lat="45.93791" lon="4.72448">
        <ele>172</ele>
        <time>2018-10-12T08:24:21Z</time>
      </trkpt>
      <trkpt lat="45.93795" lon="4.72452">
        <ele>172</ele>
        <time>2018-10-12T08:24:22Z</time>
      </trkpt>
      <trkpt lat="45.93799" lon="4.72457">
        <ele>172</ele>
        <time>2018-10-12T08:24:23Z</time>
      </trkpt>
      <trkpt lat="45.93803" lon="4.72459">
        <ele>172</ele>
        <time>2018-10-12T08:24:24Z</time>
      </trkpt>
      <trkpt lat="45.93808" lon="4.72464">
        <ele>172</ele>
        <time>2018-10-12T08:24:25Z</time>
      </trkpt>
      <trkpt lat="45.93812" lon="4.72469">
        <ele>172</ele>
        <time>2018-10-12T08:24:26Z</time>
      </trkpt>
      <trkpt lat="45.93818" lon="4.72472">
        <ele>172</ele>
        <time>2018-10-12T08:24:27Z</time>
      </trkpt>
      <trkpt lat="45.93824" lon="4.72474">
        <ele>172</ele>
        <time>2018-10-12T08:24:28Z</time>
      </trkpt>
      <trkpt lat="45.93828" lon="4.72477">
        <ele>173</ele>
        <time>2018-10-12T08:24:29Z</time>
      </trkpt>
      <trkpt lat="45.93832" lon="4.72482">
        <ele>173</ele>
        <time>2018-10-12T08:24:34Z</time>
      </trkpt>
      <trkpt lat="45.93836" lon="4.72483">
        <ele>173</ele>
        <time>2018-10-12T08:24:35Z</time>
      </trkpt>
      <trkpt lat="45.93854" lon="4.72492">
        <ele>173</ele>
        <time>2018-10-12T08:24:36Z</time>
      </trkpt>
      <trkpt lat="45.93861" lon="4.72505">
        <ele>173</ele>
        <time>2018-10-12T08:24:37Z</time>
      </trkpt>
      <trkpt lat="45.93868" lon="4.72512">
        <ele>173</ele>
        <time>2018-10-12T08:24:38Z</time>
      </trkpt>
      <trkpt lat="45.93873" lon="4.72514">
        <ele>173</ele>
        <time>2018-10-12T08:24:39Z</time>
      </trkpt>
      <trkpt lat="45.9388" lon="4.72508">
        <ele>173</ele>
        <time>2018-10-12T08:24:41Z</time>
      </trkpt>
      <trkpt lat="45.93885" lon="4.72504">
        <ele>173</ele>
        <time>2018-10-12T08:24:42Z</time>
      </trkpt>
      <trkpt lat="45.93888" lon="4.72499">
        <ele>172</ele>
        <time>2018-10-12T08:24:43Z</time>
      </trkpt>
      <trkpt lat="45.93892" lon="4.72495">
        <ele>172</ele>
        <time>2018-10-12T08:24:44Z</time>
      </trkpt>
      <trkpt lat="45.93896" lon="4.72491">
        <ele>172</ele>
        <time>2018-10-12T08:24:45Z</time>
      </trkpt>
      <trkpt lat="45.939" lon="4.72486">
        <ele>172</ele>
        <time>2018-10-12T08:24:46Z</time>
      </trkpt>
      <trkpt lat="45.93904" lon="4.72481">
        <ele>172</ele>
        <time>2018-10-12T08:24:47Z</time>
      </trkpt>
      <trkpt lat="45.93908" lon="4.72477">
        <ele>172</ele>
        <time>2018-10-12T08:24:48Z</time>
      </trkpt>
      <trkpt lat="45.93913" lon="4.7247">
        <ele>172</ele>
        <time>2018-10-12T08:24:49Z</time>
      </trkpt>
      <trkpt lat="45.93917" lon="4.72464">
        <ele>171</ele>
        <time>2018-10-12T08:24:50Z</time>
      </trkpt>
      <trkpt lat="45.93923" lon="4.72458">
        <ele>171</ele>
        <time>2018-10-12T08:24:51Z</time>
      </trkpt>
      <trkpt lat="45.93929" lon="4.7245">
        <ele>171</ele>
        <time>2018-10-12T08:24:52Z</time>
      </trkpt>
      <trkpt lat="45.93934" lon="4.72443">
        <ele>171</ele>
        <time>2018-10-12T08:24:53Z</time>
      </trkpt>
      <trkpt lat="45.93939" lon="4.72438">
        <ele>171</ele>
        <time>2018-10-12T08:24:54Z</time>
      </trkpt>
      <trkpt lat="45.93944" lon="4.72432">
        <ele>171</ele>
        <time>2018-10-12T08:24:55Z</time>
      </trkpt>
      <trkpt lat="45.9395" lon="4.72426">
        <ele>171</ele>
        <time>2018-10-12T08:24:56Z</time>
      </trkpt>
      <trkpt lat="45.93955" lon="4.72422">
        <ele>171</ele>
        <time>2018-10-12T08:24:57Z</time>
      </trkpt>
      <trkpt lat="45.9396" lon="4.72416">
        <ele>171</ele>
        <time>2018-10-12T08:24:58Z</time>
      </trkpt>
      <trkpt lat="45.93964" lon="4.72411">
        <ele>171</ele>
        <time>2018-10-12T08:24:59Z</time>
      </trkpt>
      <trkpt lat="45.93969" lon="4.72405">
        <ele>171</ele>
        <time>2018-10-12T08:25:00Z</time>
      </trkpt>
      <trkpt lat="45.93974" lon="4.72399">
        <ele>171</ele>
        <time>2018-10-12T08:25:01Z</time>
      </trkpt>
      <trkpt lat="45.93978" lon="4.72393">
        <ele>171</ele>
        <time>2018-10-12T08:25:02Z</time>
      </trkpt>
      <trkpt lat="45.93984" lon="4.72388">
        <ele>171</ele>
        <time>2018-10-12T08:25:03Z</time>
      </trkpt>
      <trkpt lat="45.93989" lon="4.72382">
        <ele>171</ele>
        <time>2018-10-12T08:25:04Z</time>
      </trkpt>
      <trkpt lat="45.93994" lon="4.72377">
        <ele>171</ele>
        <time>2018-10-12T08:25:05Z</time>
      </trkpt>
      <trkpt lat="45.93997" lon="4.72371">
        <ele>171</ele>
        <time>2018-10-12T08:25:06Z</time>
      </trkpt>
      <trkpt lat="45.94001" lon="4.72365">
        <ele>171</ele>
        <time>2018-10-12T08:25:07Z</time>
      </trkpt>
      <trkpt lat="45.94005" lon="4.72361">
        <ele>171</ele>
        <time>2018-10-12T08:25:08Z</time>
      </trkpt>
      <trkpt lat="45.9401" lon="4.72354">
        <ele>171</ele>
        <time>2018-10-12T08:25:09Z</time>
      </trkpt>
      <trkpt lat="45.94013" lon="4.7235">
        <ele>171</ele>
        <time>2018-10-12T08:25:10Z</time>
      </trkpt>
      <trkpt lat="45.94017" lon="4.72345">
        <ele>171</ele>
        <time>2018-10-12T08:25:11Z</time>
      </trkpt>
      <trkpt lat="45.9402" lon="4.7234">
        <ele>171</ele>
        <time>2018-10-12T08:25:12Z</time>
      </trkpt>
      <trkpt lat="45.94024" lon="4.72336">
        <ele>171</ele>
        <time>2018-10-12T08:25:13Z</time>
      </trkpt>
      <trkpt lat="45.94027" lon="4.72331">
        <ele>171</ele>
        <time>2018-10-12T08:25:14Z</time>
      </trkpt>
      <trkpt lat="45.94033" lon="4.72322">
        <ele>171</ele>
        <time>2018-10-12T08:25:16Z</time>
      </trkpt>
      <trkpt lat="45.94036" lon="4.72318">
        <ele>171</ele>
        <time>2018-10-12T08:25:17Z</time>
      </trkpt>
      <trkpt lat="45.94043" lon="4.72309">
        <ele>171</ele>
        <time>2018-10-12T08:25:19Z</time>
      </trkpt>
      <trkpt lat="45.94047" lon="4.72305">
        <ele>171</ele>
        <time>2018-10-12T08:25:20Z</time>
      </trkpt>
      <trkpt lat="45.94054" lon="4.72298">
        <ele>171</ele>
        <time>2018-10-12T08:25:22Z</time>
      </trkpt>
      <trkpt lat="45.94057" lon="4.72294">
        <ele>171</ele>
        <time>2018-10-12T08:25:23Z</time>
      </trkpt>
      <trkpt lat="45.94062" lon="4.72286">
        <ele>171</ele>
        <time>2018-10-12T08:25:24Z</time>
      </trkpt>
      <trkpt lat="45.94067" lon="4.7228">
        <ele>171</ele>
        <time>2018-10-12T08:25:25Z</time>
      </trkpt>
      <trkpt lat="45.94072" lon="4.72277">
        <ele>171</ele>
        <time>2018-10-12T08:25:26Z</time>
      </trkpt>
      <trkpt lat="45.94077" lon="4.72273">
        <ele>171</ele>
        <time>2018-10-12T08:25:27Z</time>
      </trkpt>
      <trkpt lat="45.94082" lon="4.7227">
        <ele>171</ele>
        <time>2018-10-12T08:25:28Z</time>
      </trkpt>
      <trkpt lat="45.94088" lon="4.72268">
        <ele>171</ele>
        <time>2018-10-12T08:25:29Z</time>
      </trkpt>
      <trkpt lat="45.94094" lon="4.72269">
        <ele>171</ele>
        <time>2018-10-12T08:25:30Z</time>
      </trkpt>
      <trkpt lat="45.94098" lon="4.72269">
        <ele>171</ele>
        <time>2018-10-12T08:25:31Z</time>
      </trkpt>
      <trkpt lat="45.94104" lon="4.7227">
        <ele>171</ele>
        <time>2018-10-12T08:25:32Z</time>
      </trkpt>
      <trkpt lat="45.94107" lon="4.72271">
        <ele>171</ele>
        <time>2018-10-12T08:25:33Z</time>
      </trkpt>
      <trkpt lat="45.94116" lon="4.72274">
        <ele>171</ele>
        <time>2018-10-12T08:25:35Z</time>
      </trkpt>
      <trkpt lat="45.94121" lon="4.72277">
        <ele>171</ele>
        <time>2018-10-12T08:25:36Z</time>
      </trkpt>
      <trkpt lat="45.94126" lon="4.72279">
        <ele>171</ele>
        <time>2018-10-12T08:25:37Z</time>
      </trkpt>
      <trkpt lat="45.94132" lon="4.72282">
        <ele>171</ele>
        <time>2018-10-12T08:25:38Z</time>
      </trkpt>
      <trkpt lat="45.94138" lon="4.72283">
        <ele>171</ele>
        <time>2018-10-12T08:25:39Z</time>
      </trkpt>
      <trkpt lat="45.94143" lon="4.72286">
        <ele>171</ele>
        <time>2018-10-12T08:25:40Z</time>
      </trkpt>
      <trkpt lat="45.9415" lon="4.72289">
        <ele>171</ele>
        <time>2018-10-12T08:25:41Z</time>
      </trkpt>
      <trkpt lat="45.94155" lon="4.7229">
        <ele>171</ele>
        <time>2018-10-12T08:25:42Z</time>
      </trkpt>
      <trkpt lat="45.94161" lon="4.72292">
        <ele>171</ele>
        <time>2018-10-12T08:25:43Z</time>
      </trkpt>
      <trkpt lat="45.94166" lon="4.72292">
        <ele>171</ele>
        <time>2018-10-12T08:25:44Z</time>
      </trkpt>
      <trkpt lat="45.94172" lon="4.72292">
        <ele>171</ele>
        <time>2018-10-12T08:25:45Z</time>
      </trkpt>
      <trkpt lat="45.94178" lon="4.72293">
        <ele>171</ele>
        <time>2018-10-12T08:25:46Z</time>
      </trkpt>
      <trkpt lat="45.94184" lon="4.72292">
        <ele>171</ele>
        <time>2018-10-12T08:25:47Z</time>
      </trkpt>
      <trkpt lat="45.94189" lon="4.72292">
        <ele>171</ele>
        <time>2018-10-12T08:25:48Z</time>
      </trkpt>
      <trkpt lat="45.94194" lon="4.72292">
        <ele>171</ele>
        <time>2018-10-12T08:25:49Z</time>
      </trkpt>
      <trkpt lat="45.942" lon="4.72293">
        <ele>171</ele>
        <time>2018-10-12T08:25:50Z</time>
      </trkpt>
      <trkpt lat="45.94205" lon="4.72293">
        <ele>171</ele>
        <time>2018-10-12T08:25:51Z</time>
      </trkpt>
      <trkpt lat="45.94211" lon="4.72292">
        <ele>171</ele>
        <time>2018-10-12T08:25:52Z</time>
      </trkpt>
      <trkpt lat="45.94216" lon="4.72292">
        <ele>171</ele>
        <time>2018-10-12T08:25:53Z</time>
      </trkpt>
      <trkpt lat="45.94222" lon="4.72291">
        <ele>171</ele>
        <time>2018-10-12T08:25:54Z</time>
      </trkpt>
      <trkpt lat="45.94227" lon="4.7229">
        <ele>171</ele>
        <time>2018-10-12T08:25:55Z</time>
      </trkpt>
      <trkpt lat="45.94232" lon="4.72289">
        <ele>171</ele>
        <time>2018-10-12T08:25:56Z</time>
      </trkpt>
      <trkpt lat="45.94237" lon="4.72287">
        <ele>171</ele>
        <time>2018-10-12T08:25:57Z</time>
      </trkpt>
      <trkpt lat="45.94242" lon="4.72286">
        <ele>171</ele>
        <time>2018-10-12T08:25:58Z</time>
      </trkpt>
      <trkpt lat="45.94247" lon="4.72284">
        <ele>171</ele>
        <time>2018-10-12T08:25:59Z</time>
      </trkpt>
      <trkpt lat="45.94252" lon="4.72281">
        <ele>171</ele>
        <time>2018-10-12T08:26:00Z</time>
      </trkpt>
      <trkpt lat="45.94257" lon="4.72279">
        <ele>171</ele>
        <time>2018-10-12T08:26:01Z</time>
      </trkpt>
      <trkpt lat="45.94261" lon="4.72276">
        <ele>171</ele>
        <time>2018-10-12T08:26:02Z</time>
      </trkpt>
      <trkpt lat="45.94267" lon="4.72275">
        <ele>171</ele>
        <time>2018-10-12T08:26:03Z</time>
      </trkpt>
      <trkpt lat="45.94272" lon="4.72273">
        <ele>171</ele>
        <time>2018-10-12T08:26:04Z</time>
      </trkpt>
      <trkpt lat="45.94279" lon="4.72278">
        <ele>171</ele>
        <time>2018-10-12T08:26:06Z</time>
      </trkpt>
      <trkpt lat="45.94282" lon="4.72282">
        <ele>171</ele>
        <time>2018-10-12T08:26:07Z</time>
      </trkpt>
      <trkpt lat="45.94284" lon="4.72289">
        <ele>171</ele>
        <time>2018-10-12T08:26:08Z</time>
      </trkpt>
      <trkpt lat="45.94287" lon="4.72294">
        <ele>171</ele>
        <time>2018-10-12T08:26:09Z</time>
      </trkpt>
      <trkpt lat="45.9429" lon="4.72302">
        <ele>171</ele>
        <time>2018-10-12T08:26:10Z</time>
      </trkpt>
      <trkpt lat="45.94293" lon="4.72308">
        <ele>171</ele>
        <time>2018-10-12T08:26:11Z</time>
      </trkpt>
      <trkpt lat="45.94296" lon="4.72315">
        <ele>171</ele>
        <time>2018-10-12T08:26:12Z</time>
      </trkpt>
      <trkpt lat="45.94299" lon="4.72321">
        <ele>171</ele>
        <time>2018-10-12T08:26:13Z</time>
      </trkpt>
      <trkpt lat="45.94302" lon="4.72329">
        <ele>171</ele>
        <time>2018-10-12T08:26:14Z</time>
      </trkpt>
      <trkpt lat="45.94305" lon="4.72337">
        <ele>172</ele>
        <time>2018-10-12T08:26:15Z</time>
      </trkpt>
      <trkpt lat="45.94308" lon="4.72345">
        <ele>172</ele>
        <time>2018-10-12T08:26:16Z</time>
      </trkpt>
      <trkpt lat="45.94311" lon="4.72352">
        <ele>172</ele>
        <time>2018-10-12T08:26:17Z</time>
      </trkpt>
      <trkpt lat="45.94313" lon="4.7236">
        <ele>172</ele>
        <time>2018-10-12T08:26:18Z</time>
      </trkpt>
      <trkpt lat="45.94316" lon="4.72367">
        <ele>172</ele>
        <time>2018-10-12T08:26:19Z</time>
      </trkpt>
      <trkpt lat="45.9432" lon="4.72374">
        <ele>172</ele>
        <time>2018-10-12T08:26:20Z</time>
      </trkpt>
      <trkpt lat="45.94322" lon="4.72381">
        <ele>172</ele>
        <time>2018-10-12T08:26:21Z</time>
      </trkpt>
      <trkpt lat="45.94325" lon="4.72388">
        <ele>172</ele>
        <time>2018-10-12T08:26:22Z</time>
      </trkpt>
      <trkpt lat="45.94328" lon="4.72395">
        <ele>172</ele>
        <time>2018-10-12T08:26:23Z</time>
      </trkpt>
      <trkpt lat="45.94331" lon="4.72401">
        <ele>173</ele>
        <time>2018-10-12T08:26:24Z</time>
      </trkpt>
      <trkpt lat="45.94334" lon="4.72408">
        <ele>173</ele>
        <time>2018-10-12T08:26:25Z</time>
      </trkpt>
      <trkpt lat="45.94337" lon="4.72414">
        <ele>173</ele>
        <time>2018-10-12T08:26:26Z</time>
      </trkpt>
      <trkpt lat="45.94341" lon="4.72421">
        <ele>173</ele>
        <time>2018-10-12T08:26:27Z</time>
      </trkpt>
      <trkpt lat="45.94343" lon="4.72428">
        <ele>173</ele>
        <time>2018-10-12T08:26:28Z</time>
      </trkpt>
      <trkpt lat="45.94346" lon="4.72435">
        <ele>173</ele>
        <time>2018-10-12T08:26:29Z</time>
      </trkpt>
      <trkpt lat="45.94349" lon="4.72442">
        <ele>173</ele>
        <time>2018-10-12T08:26:30Z</time>
      </trkpt>
      <trkpt lat="45.94352" lon="4.7245">
        <ele>173</ele>
        <time>2018-10-12T08:26:31Z</time>
      </trkpt>
      <trkpt lat="45.94355" lon="4.72457">
        <ele>173</ele>
        <time>2018-10-12T08:26:32Z</time>
      </trkpt>
      <trkpt lat="45.94358" lon="4.72464">
        <ele>173</ele>
        <time>2018-10-12T08:26:33Z</time>
      </trkpt>
      <trkpt lat="45.94361" lon="4.72473">
        <ele>173</ele>
        <time>2018-10-12T08:26:34Z</time>
      </trkpt>
      <trkpt lat="45.94364" lon="4.72481">
        <ele>173</ele>
        <time>2018-10-12T08:26:35Z</time>
      </trkpt>
      <trkpt lat="45.94366" lon="4.7249">
        <ele>173</ele>
        <time>2018-10-12T08:26:36Z</time>
      </trkpt>
      <trkpt lat="45.94368" lon="4.72497">
        <ele>173</ele>
        <time>2018-10-12T08:26:37Z</time>
      </trkpt>
      <trkpt lat="45.94371" lon="4.72505">
        <ele>173</ele>
        <time>2018-10-12T08:26:38Z</time>
      </trkpt>
      <trkpt lat="45.94373" lon="4.72513">
        <ele>173</ele>
        <time>2018-10-12T08:26:39Z</time>
      </trkpt>
      <trkpt lat="45.94375" lon="4.7252">
        <ele>174</ele>
        <time>2018-10-12T08:26:40Z</time>
      </trkpt>
      <trkpt lat="45.94377" lon="4.72527">
        <ele>174</ele>
        <time>2018-10-12T08:26:41Z</time>
      </trkpt>
      <trkpt lat="45.94379" lon="4.72533">
        <ele>174</ele>
        <time>2018-10-12T08:26:42Z</time>
      </trkpt>
      <trkpt lat="45.94381" lon="4.7254">
        <ele>174</ele>
        <time>2018-10-12T08:26:43Z</time>
      </trkpt>
      <trkpt lat="45.94382" lon="4.72547">
        <ele>173</ele>
        <time>2018-10-12T08:26:44Z</time>
      </trkpt>
      <trkpt lat="45.94384" lon="4.72555">
        <ele>173</ele>
        <time>2018-10-12T08:26:45Z</time>
      </trkpt>
      <trkpt lat="45.94387" lon="4.72564">
        <ele>173</ele>
        <time>2018-10-12T08:26:46Z</time>
      </trkpt>
      <trkpt lat="45.94388" lon="4.72572">
        <ele>173</ele>
        <time>2018-10-12T08:26:47Z</time>
      </trkpt>
      <trkpt lat="45.9439" lon="4.7258">
        <ele>173</ele>
        <time>2018-10-12T08:26:48Z</time>
      </trkpt>
      <trkpt lat="45.94392" lon="4.72589">
        <ele>173</ele>
        <time>2018-10-12T08:26:49Z</time>
      </trkpt>
      <trkpt lat="45.94393" lon="4.72597">
        <ele>173</ele>
        <time>2018-10-12T08:26:50Z</time>
      </trkpt>
      <trkpt lat="45.94395" lon="4.72604">
        <ele>173</ele>
        <time>2018-10-12T08:26:51Z</time>
      </trkpt>
      <trkpt lat="45.94396" lon="4.72613">
        <ele>173</ele>
        <time>2018-10-12T08:26:52Z</time>
      </trkpt>
      <trkpt lat="45.94398" lon="4.72619">
        <ele>173</ele>
        <time>2018-10-12T08:26:53Z</time>
      </trkpt>
      <trkpt lat="45.94399" lon="4.72626">
        <ele>174</ele>
        <time>2018-10-12T08:26:54Z</time>
      </trkpt>
      <trkpt lat="45.944" lon="4.72632">
        <ele>174</ele>
        <time>2018-10-12T08:26:55Z</time>
      </trkpt>
      <trkpt lat="45.94402" lon="4.7264">
        <ele>174</ele>
        <time>2018-10-12T08:26:56Z</time>
      </trkpt>
      <trkpt lat="45.94403" lon="4.72647">
        <ele>174</ele>
        <time>2018-10-12T08:26:57Z</time>
      </trkpt>
      <trkpt lat="45.94403" lon="4.72655">
        <ele>174</ele>
        <time>2018-10-12T08:26:58Z</time>
      </trkpt>
      <trkpt lat="45.94404" lon="4.72663">
        <ele>174</ele>
        <time>2018-10-12T08:26:59Z</time>
      </trkpt>
      <trkpt lat="45.94406" lon="4.72671">
        <ele>173</ele>
        <time>2018-10-12T08:27:00Z</time>
      </trkpt>
      <trkpt lat="45.94408" lon="4.72678">
        <ele>173</ele>
        <time>2018-10-12T08:27:01Z</time>
      </trkpt>
      <trkpt lat="45.94409" lon="4.72686">
        <ele>173</ele>
        <time>2018-10-12T08:27:02Z</time>
      </trkpt>
      <trkpt lat="45.94409" lon="4.72693">
        <ele>173</ele>
        <time>2018-10-12T08:27:03Z</time>
      </trkpt>
      <trkpt lat="45.9441" lon="4.72701">
        <ele>172</ele>
        <time>2018-10-12T08:27:04Z</time>
      </trkpt>
      <trkpt lat="45.94412" lon="4.72709">
        <ele>172</ele>
        <time>2018-10-12T08:27:05Z</time>
      </trkpt>
      <trkpt lat="45.94413" lon="4.72717">
        <ele>172</ele>
        <time>2018-10-12T08:27:06Z</time>
      </trkpt>
      <trkpt lat="45.94414" lon="4.72725">
        <ele>172</ele>
        <time>2018-10-12T08:27:07Z</time>
      </trkpt>
      <trkpt lat="45.94415" lon="4.72733">
        <ele>172</ele>
        <time>2018-10-12T08:27:08Z</time>
      </trkpt>
      <trkpt lat="45.94416" lon="4.7274">
        <ele>171</ele>
        <time>2018-10-12T08:27:09Z</time>
      </trkpt>
      <trkpt lat="45.94418" lon="4.72749">
        <ele>171</ele>
        <time>2018-10-12T08:27:10Z</time>
      </trkpt>
      <trkpt lat="45.94419" lon="4.72757">
        <ele>170</ele>
        <time>2018-10-12T08:27:11Z</time>
      </trkpt>
      <trkpt lat="45.9442" lon="4.72764">
        <ele>169</ele>
        <time>2018-10-12T08:27:12Z</time>
      </trkpt>
      <trkpt lat="45.94421" lon="4.72772">
        <ele>169</ele>
        <time>2018-10-12T08:27:13Z</time>
      </trkpt>
      <trkpt lat="45.94423" lon="4.7278">
        <ele>168</ele>
        <time>2018-10-12T08:27:14Z</time>
      </trkpt>
      <trkpt lat="45.94424" lon="4.72787">
        <ele>168</ele>
        <time>2018-10-12T08:27:15Z</time>
      </trkpt>
      <trkpt lat="45.94425" lon="4.72794">
        <ele>168</ele>
        <time>2018-10-12T08:27:16Z</time>
      </trkpt>
      <trkpt lat="45.94427" lon="4.72802">
        <ele>167</ele>
        <time>2018-10-12T08:27:17Z</time>
      </trkpt>
      <trkpt lat="45.94428" lon="4.7281">
        <ele>167</ele>
        <time>2018-10-12T08:27:18Z</time>
      </trkpt>
      <trkpt lat="45.94429" lon="4.72815">
        <ele>167</ele>
        <time>2018-10-12T08:27:19Z</time>
      </trkpt>
      <trkpt lat="45.94431" lon="4.72821">
        <ele>167</ele>
        <time>2018-10-12T08:27:20Z</time>
      </trkpt>
      <trkpt lat="45.94431" lon="4.72828">
        <ele>167</ele>
        <time>2018-10-12T08:27:21Z</time>
      </trkpt>
      <trkpt lat="45.94432" lon="4.72836">
        <ele>166</ele>
        <time>2018-10-12T08:27:22Z</time>
      </trkpt>
      <trkpt lat="45.94432" lon="4.72842">
        <ele>166</ele>
        <time>2018-10-12T08:27:23Z</time>
      </trkpt>
      <trkpt lat="45.94433" lon="4.72854">
        <ele>166</ele>
        <time>2018-10-12T08:27:25Z</time>
      </trkpt>
      <trkpt lat="45.94435" lon="4.7286">
        <ele>166</ele>
        <time>2018-10-12T08:27:26Z</time>
      </trkpt>
      <trkpt lat="45.94436" lon="4.72871">
        <ele>166</ele>
        <time>2018-10-12T08:27:28Z</time>
      </trkpt>
      <trkpt lat="45.94437" lon="4.72877">
        <ele>166</ele>
        <time>2018-10-12T08:27:29Z</time>
      </trkpt>
      <trkpt lat="45.94437" lon="4.7289">
        <ele>166</ele>
        <time>2018-10-12T08:27:31Z</time>
      </trkpt>
      <trkpt lat="45.94438" lon="4.72897">
        <ele>166</ele>
        <time>2018-10-12T08:27:32Z</time>
      </trkpt>
      <trkpt lat="45.94439" lon="4.72909">
        <ele>166</ele>
        <time>2018-10-12T08:27:34Z</time>
      </trkpt>
      <trkpt lat="45.9444" lon="4.72915">
        <ele>166</ele>
        <time>2018-10-12T08:27:35Z</time>
      </trkpt>
      <trkpt lat="45.94441" lon="4.72923">
        <ele>167</ele>
        <time>2018-10-12T08:27:36Z</time>
      </trkpt>
      <trkpt lat="45.94441" lon="4.7293">
        <ele>167</ele>
        <time>2018-10-12T08:27:37Z</time>
      </trkpt>
      <trkpt lat="45.94442" lon="4.72937">
        <ele>167</ele>
        <time>2018-10-12T08:27:38Z</time>
      </trkpt>
      <trkpt lat="45.94442" lon="4.72944">
        <ele>167</ele>
        <time>2018-10-12T08:27:39Z</time>
      </trkpt>
      <trkpt lat="45.94444" lon="4.72952">
        <ele>167</ele>
        <time>2018-10-12T08:27:40Z</time>
      </trkpt>
      <trkpt lat="45.94445" lon="4.72959">
        <ele>167</ele>
        <time>2018-10-12T08:27:41Z</time>
      </trkpt>
      <trkpt lat="45.94446" lon="4.72967">
        <ele>167</ele>
        <time>2018-10-12T08:27:42Z</time>
      </trkpt>
      <trkpt lat="45.94447" lon="4.72976">
        <ele>167</ele>
        <time>2018-10-12T08:27:43Z</time>
      </trkpt>
      <trkpt lat="45.94448" lon="4.72984">
        <ele>167</ele>
        <time>2018-10-12T08:27:44Z</time>
      </trkpt>
      <trkpt lat="45.94449" lon="4.72992">
        <ele>167</ele>
        <time>2018-10-12T08:27:45Z</time>
      </trkpt>
      <trkpt lat="45.94451" lon="4.73002">
        <ele>169</ele>
        <time>2018-10-12T08:27:46Z</time>
      </trkpt>
      <trkpt lat="45.94452" lon="4.73011">
        <ele>169</ele>
        <time>2018-10-12T08:27:47Z</time>
      </trkpt>
      <trkpt lat="45.94453" lon="4.73022">
        <ele>169</ele>
        <time>2018-10-12T08:27:48Z</time>
      </trkpt>
      <trkpt lat="45.94455" lon="4.73031">
        <ele>169</ele>
        <time>2018-10-12T08:27:49Z</time>
      </trkpt>
      <trkpt lat="45.94457" lon="4.73041">
        <ele>169</ele>
        <time>2018-10-12T08:27:50Z</time>
      </trkpt>
      <trkpt lat="45.94458" lon="4.73051">
        <ele>170</ele>
        <time>2018-10-12T08:27:51Z</time>
      </trkpt>
      <trkpt lat="45.9446" lon="4.73061">
        <ele>170</ele>
        <time>2018-10-12T08:27:52Z</time>
      </trkpt>
      <trkpt lat="45.94462" lon="4.7307">
        <ele>170</ele>
        <time>2018-10-12T08:27:53Z</time>
      </trkpt>
      <trkpt lat="45.94463" lon="4.7308">
        <ele>170</ele>
        <time>2018-10-12T08:27:54Z</time>
      </trkpt>
      <trkpt lat="45.94463" lon="4.73089">
        <ele>171</ele>
        <time>2018-10-12T08:27:55Z</time>
      </trkpt>
      <trkpt lat="45.94464" lon="4.73099">
        <ele>172</ele>
        <time>2018-10-12T08:27:56Z</time>
      </trkpt>
      <trkpt lat="45.94465" lon="4.73109">
        <ele>172</ele>
        <time>2018-10-12T08:27:57Z</time>
      </trkpt>
      <trkpt lat="45.94466" lon="4.73118">
        <ele>172</ele>
        <time>2018-10-12T08:27:58Z</time>
      </trkpt>
      <trkpt lat="45.94466" lon="4.73126">
        <ele>172</ele>
        <time>2018-10-12T08:27:59Z</time>
      </trkpt>
      <trkpt lat="45.94467" lon="4.73134">
        <ele>172</ele>
        <time>2018-10-12T08:28:00Z</time>
      </trkpt>
      <trkpt lat="45.94468" lon="4.73143">
        <ele>172</ele>
        <time>2018-10-12T08:28:01Z</time>
      </trkpt>
      <trkpt lat="45.94469" lon="4.7315">
        <ele>172</ele>
        <time>2018-10-12T08:28:02Z</time>
      </trkpt>
      <trkpt lat="45.9447" lon="4.73158">
        <ele>172</ele>
        <time>2018-10-12T08:28:03Z</time>
      </trkpt>
      <trkpt lat="45.94472" lon="4.73166">
        <ele>173</ele>
        <time>2018-10-12T08:28:04Z</time>
      </trkpt>
      <trkpt lat="45.94472" lon="4.73174">
        <ele>174</ele>
        <time>2018-10-12T08:28:05Z</time>
      </trkpt>
      <trkpt lat="45.94474" lon="4.73182">
        <ele>174</ele>
        <time>2018-10-12T08:28:06Z</time>
      </trkpt>
      <trkpt lat="45.94475" lon="4.7319">
        <ele>174</ele>
        <time>2018-10-12T08:28:07Z</time>
      </trkpt>
      <trkpt lat="45.94476" lon="4.73198">
        <ele>174</ele>
        <time>2018-10-12T08:28:08Z</time>
      </trkpt>
      <trkpt lat="45.94477" lon="4.73205">
        <ele>175</ele>
        <time>2018-10-12T08:28:09Z</time>
      </trkpt>
      <trkpt lat="45.94478" lon="4.73212">
        <ele>175</ele>
        <time>2018-10-12T08:28:10Z</time>
      </trkpt>
      <trkpt lat="45.94479" lon="4.73219">
        <ele>175</ele>
        <time>2018-10-12T08:28:11Z</time>
      </trkpt>
      <trkpt lat="45.94479" lon="4.73226">
        <ele>175</ele>
        <time>2018-10-12T08:28:12Z</time>
      </trkpt>
      <trkpt lat="45.9448" lon="4.73233">
        <ele>175</ele>
        <time>2018-10-12T08:28:13Z</time>
      </trkpt>
      <trkpt lat="45.94483" lon="4.73244">
        <ele>175</ele>
        <time>2018-10-12T08:28:15Z</time>
      </trkpt>
      <trkpt lat="45.94484" lon="4.7325">
        <ele>175</ele>
        <time>2018-10-12T08:28:16Z</time>
      </trkpt>
      <trkpt lat="45.94484" lon="4.73256">
        <ele>176</ele>
        <time>2018-10-12T08:28:17Z</time>
      </trkpt>
      <trkpt lat="45.94484" lon="4.73263">
        <ele>177</ele>
        <time>2018-10-12T08:28:18Z</time>
      </trkpt>
      <trkpt lat="45.94484" lon="4.73275">
        <ele>177</ele>
        <time>2018-10-12T08:28:20Z</time>
      </trkpt>
      <trkpt lat="45.94485" lon="4.7328">
        <ele>177</ele>
        <time>2018-10-12T08:28:21Z</time>
      </trkpt>
      <trkpt lat="45.94487" lon="4.73292">
        <ele>177</ele>
        <time>2018-10-12T08:28:23Z</time>
      </trkpt>
      <trkpt lat="45.94487" lon="4.73298">
        <ele>177</ele>
        <time>2018-10-12T08:28:24Z</time>
      </trkpt>
      <trkpt lat="45.94487" lon="4.7331">
        <ele>177</ele>
        <time>2018-10-12T08:28:26Z</time>
      </trkpt>
      <trkpt lat="45.94487" lon="4.73315">
        <ele>177</ele>
        <time>2018-10-12T08:28:27Z</time>
      </trkpt>
      <trkpt lat="45.94488" lon="4.73328">
        <ele>177</ele>
        <time>2018-10-12T08:28:30Z</time>
      </trkpt>
      <trkpt lat="45.94489" lon="4.73336">
        <ele>178</ele>
        <time>2018-10-12T08:28:31Z</time>
      </trkpt>
      <trkpt lat="45.9449" lon="4.73345">
        <ele>178</ele>
        <time>2018-10-12T08:28:33Z</time>
      </trkpt>
      <trkpt lat="45.94491" lon="4.73352">
        <ele>178</ele>
        <time>2018-10-12T08:28:34Z</time>
      </trkpt>
      <trkpt lat="45.94492" lon="4.73363">
        <ele>179</ele>
        <time>2018-10-12T08:28:36Z</time>
      </trkpt>
      <trkpt lat="45.94492" lon="4.73366">
        <ele>179</ele>
        <time>2018-10-12T08:28:37Z</time>
      </trkpt>
      <trkpt lat="45.94494" lon="4.73379">
        <ele>179</ele>
        <time>2018-10-12T08:28:39Z</time>
      </trkpt>
      <trkpt lat="45.94494" lon="4.73384">
        <ele>179</ele>
        <time>2018-10-12T08:28:40Z</time>
      </trkpt>
      <trkpt lat="45.94495" lon="4.73395">
        <ele>179</ele>
        <time>2018-10-12T08:28:42Z</time>
      </trkpt>
      <trkpt lat="45.94495" lon="4.734">
        <ele>180</ele>
        <time>2018-10-12T08:28:43Z</time>
      </trkpt>
      <trkpt lat="45.94496" lon="4.73411">
        <ele>180</ele>
        <time>2018-10-12T08:28:45Z</time>
      </trkpt>
      <trkpt lat="45.94496" lon="4.73416">
        <ele>180</ele>
        <time>2018-10-12T08:28:46Z</time>
      </trkpt>
      <trkpt lat="45.94498" lon="4.73428">
        <ele>181</ele>
        <time>2018-10-12T08:28:48Z</time>
      </trkpt>
      <trkpt lat="45.94498" lon="4.73433">
        <ele>181</ele>
        <time>2018-10-12T08:28:49Z</time>
      </trkpt>
      <trkpt lat="45.94499" lon="4.73445">
        <ele>181</ele>
        <time>2018-10-12T08:28:51Z</time>
      </trkpt>
      <trkpt lat="45.94499" lon="4.73451">
        <ele>182</ele>
        <time>2018-10-12T08:28:52Z</time>
      </trkpt>
      <trkpt lat="45.945" lon="4.73462">
        <ele>181</ele>
        <time>2018-10-12T08:28:54Z</time>
      </trkpt>
      <trkpt lat="45.94501" lon="4.73468">
        <ele>181</ele>
        <time>2018-10-12T08:28:55Z</time>
      </trkpt>
      <trkpt lat="45.94501" lon="4.73477">
        <ele>182</ele>
        <time>2018-10-12T08:28:57Z</time>
      </trkpt>
      <trkpt lat="45.94501" lon="4.73484">
        <ele>182</ele>
        <time>2018-10-12T08:28:58Z</time>
      </trkpt>
      <trkpt lat="45.94501" lon="4.73495">
        <ele>183</ele>
        <time>2018-10-12T08:29:00Z</time>
      </trkpt>
      <trkpt lat="45.94501" lon="4.735">
        <ele>183</ele>
        <time>2018-10-12T08:29:01Z</time>
      </trkpt>
      <trkpt lat="45.94501" lon="4.73511">
        <ele>183</ele>
        <time>2018-10-12T08:29:03Z</time>
      </trkpt>
      <trkpt lat="45.945" lon="4.73516">
        <ele>183</ele>
        <time>2018-10-12T08:29:04Z</time>
      </trkpt>
      <trkpt lat="45.945" lon="4.73527">
        <ele>183</ele>
        <time>2018-10-12T08:29:06Z</time>
      </trkpt>
      <trkpt lat="45.945" lon="4.73533">
        <ele>183</ele>
        <time>2018-10-12T08:29:07Z</time>
      </trkpt>
      <trkpt lat="45.94499" lon="4.73543">
        <ele>184</ele>
        <time>2018-10-12T08:29:09Z</time>
      </trkpt>
      <trkpt lat="45.94499" lon="4.73548">
        <ele>185</ele>
        <time>2018-10-12T08:29:10Z</time>
      </trkpt>
      <trkpt lat="45.94499" lon="4.73559">
        <ele>185</ele>
        <time>2018-10-12T08:29:12Z</time>
      </trkpt>
      <trkpt lat="45.94499" lon="4.73565">
        <ele>185</ele>
        <time>2018-10-12T08:29:13Z</time>
      </trkpt>
      <trkpt lat="45.94498" lon="4.73576">
        <ele>185</ele>
        <time>2018-10-12T08:29:16Z</time>
      </trkpt>
      <trkpt lat="45.94498" lon="4.7358">
        <ele>185</ele>
        <time>2018-10-12T08:29:17Z</time>
      </trkpt>
      <trkpt lat="45.94498" lon="4.7359">
        <ele>185</ele>
        <time>2018-10-12T08:29:19Z</time>
      </trkpt>
      <trkpt lat="45.94498" lon="4.73595">
        <ele>185</ele>
        <time>2018-10-12T08:29:20Z</time>
      </trkpt>
      <trkpt lat="45.94497" lon="4.73605">
        <ele>186</ele>
        <time>2018-10-12T08:29:22Z</time>
      </trkpt>
      <trkpt lat="45.94497" lon="4.73611">
        <ele>186</ele>
        <time>2018-10-12T08:29:23Z</time>
      </trkpt>
      <trkpt lat="45.94497" lon="4.73623">
        <ele>186</ele>
        <time>2018-10-12T08:29:26Z</time>
      </trkpt>
      <trkpt lat="45.94497" lon="4.73626">
        <ele>186</ele>
        <time>2018-10-12T08:29:27Z</time>
      </trkpt>
      <trkpt lat="45.94496" lon="4.73637">
        <ele>186</ele>
        <time>2018-10-12T08:29:30Z</time>
      </trkpt>
      <trkpt lat="45.94495" lon="4.7364">
        <ele>186</ele>
        <time>2018-10-12T08:29:31Z</time>
      </trkpt>
      <trkpt lat="45.94495" lon="4.73648">
        <ele>185</ele>
        <time>2018-10-12T08:29:33Z</time>
      </trkpt>
      <trkpt lat="45.94496" lon="4.73658">
        <ele>185</ele>
        <time>2018-10-12T08:29:34Z</time>
      </trkpt>
      <trkpt lat="45.94496" lon="4.73668">
        <ele>185</ele>
        <time>2018-10-12T08:29:36Z</time>
      </trkpt>
      <trkpt lat="45.94496" lon="4.73673">
        <ele>185</ele>
        <time>2018-10-12T08:29:37Z</time>
      </trkpt>
      <trkpt lat="45.94494" lon="4.73686">
        <ele>186</ele>
        <time>2018-10-12T08:29:39Z</time>
      </trkpt>
      <trkpt lat="45.94493" lon="4.73692">
        <ele>186</ele>
        <time>2018-10-12T08:29:40Z</time>
      </trkpt>
      <trkpt lat="45.94492" lon="4.73698">
        <ele>186</ele>
        <time>2018-10-12T08:29:41Z</time>
      </trkpt>
      <trkpt lat="45.9449" lon="4.73706">
        <ele>186</ele>
        <time>2018-10-12T08:29:42Z</time>
      </trkpt>
      <trkpt lat="45.9449" lon="4.73712">
        <ele>186</ele>
        <time>2018-10-12T08:29:43Z</time>
      </trkpt>
      <trkpt lat="45.94489" lon="4.73719">
        <ele>186</ele>
        <time>2018-10-12T08:29:44Z</time>
      </trkpt>
      <trkpt lat="45.94487" lon="4.73726">
        <ele>186</ele>
        <time>2018-10-12T08:29:45Z</time>
      </trkpt>
      <trkpt lat="45.94486" lon="4.73732">
        <ele>186</ele>
        <time>2018-10-12T08:29:46Z</time>
      </trkpt>
      <trkpt lat="45.94484" lon="4.73743">
        <ele>186</ele>
        <time>2018-10-12T08:29:49Z</time>
      </trkpt>
      <trkpt lat="45.94484" lon="4.73744">
        <ele>186</ele>
        <time>2018-10-12T08:29:50Z</time>
      </trkpt>
      <trkpt lat="45.94478" lon="4.73754">
        <ele>186</ele>
        <time>2018-10-12T08:29:58Z</time>
      </trkpt>
      <trkpt lat="45.94478" lon="4.73756">
        <ele>186</ele>
        <time>2018-10-12T08:29:59Z</time>
      </trkpt>
      <trkpt lat="45.94476" lon="4.73763">
        <ele>186</ele>
        <time>2018-10-12T08:30:01Z</time>
      </trkpt>
      <trkpt lat="45.94477" lon="4.73772">
        <ele>186</ele>
        <time>2018-10-12T08:30:02Z</time>
      </trkpt>
      <trkpt lat="45.94484" lon="4.73778">
        <ele>186</ele>
        <time>2018-10-12T08:30:05Z</time>
      </trkpt>
      <trkpt lat="45.9449" lon="4.7378">
        <ele>186</ele>
        <time>2018-10-12T08:30:06Z</time>
      </trkpt>
      <trkpt lat="45.94497" lon="4.73784">
        <ele>186</ele>
        <time>2018-10-12T08:30:08Z</time>
      </trkpt>
      <trkpt lat="45.94501" lon="4.73788">
        <ele>186</ele>
        <time>2018-10-12T08:30:09Z</time>
      </trkpt>
      <trkpt lat="45.94505" lon="4.73792">
        <ele>186</ele>
        <time>2018-10-12T08:30:10Z</time>
      </trkpt>
      <trkpt lat="45.94509" lon="4.73795">
        <ele>186</ele>
        <time>2018-10-12T08:30:11Z</time>
      </trkpt>
      <trkpt lat="45.94516" lon="4.73803">
        <ele>186</ele>
        <time>2018-10-12T08:30:13Z</time>
      </trkpt>
      <trkpt lat="45.94519" lon="4.73806">
        <ele>186</ele>
        <time>2018-10-12T08:30:14Z</time>
      </trkpt>
      <trkpt lat="45.94523" lon="4.73811">
        <ele>186</ele>
        <time>2018-10-12T08:30:15Z</time>
      </trkpt>
      <trkpt lat="45.94527" lon="4.73814">
        <ele>186</ele>
        <time>2018-10-12T08:30:16Z</time>
      </trkpt>
      <trkpt lat="45.94534" lon="4.7382">
        <ele>186</ele>
        <time>2018-10-12T08:30:18Z</time>
      </trkpt>
      <trkpt lat="45.94538" lon="4.73825">
        <ele>186</ele>
        <time>2018-10-12T08:30:19Z</time>
      </trkpt>
      <trkpt lat="45.94542" lon="4.73829">
        <ele>186</ele>
        <time>2018-10-12T08:30:20Z</time>
      </trkpt>
      <trkpt lat="45.94546" lon="4.73833">
        <ele>186</ele>
        <time>2018-10-12T08:30:21Z</time>
      </trkpt>
      <trkpt lat="45.9455" lon="4.73837">
        <ele>186</ele>
        <time>2018-10-12T08:30:22Z</time>
      </trkpt>
      <trkpt lat="45.94555" lon="4.73841">
        <ele>186</ele>
        <time>2018-10-12T08:30:23Z</time>
      </trkpt>
      <trkpt lat="45.94558" lon="4.73845">
        <ele>186</ele>
        <time>2018-10-12T08:30:24Z</time>
      </trkpt>
      <trkpt lat="45.94563" lon="4.73849">
        <ele>186</ele>
        <time>2018-10-12T08:30:25Z</time>
      </trkpt>
      <trkpt lat="45.94567" lon="4.73854">
        <ele>186</ele>
        <time>2018-10-12T08:30:26Z</time>
      </trkpt>
      <trkpt lat="45.94572" lon="4.73856">
        <ele>186</ele>
        <time>2018-10-12T08:30:27Z</time>
      </trkpt>
      <trkpt lat="45.94576" lon="4.73861">
        <ele>186</ele>
        <time>2018-10-12T08:30:28Z</time>
      </trkpt>
      <trkpt lat="45.9458" lon="4.73865">
        <ele>186</ele>
        <time>2018-10-12T08:30:29Z</time>
      </trkpt>
      <trkpt lat="45.94584" lon="4.73869">
        <ele>187</ele>
        <time>2018-10-12T08:30:30Z</time>
      </trkpt>
      <trkpt lat="45.94588" lon="4.73874">
        <ele>187</ele>
        <time>2018-10-12T08:30:31Z</time>
      </trkpt>
      <trkpt lat="45.94594" lon="4.73882">
        <ele>187</ele>
        <time>2018-10-12T08:30:33Z</time>
      </trkpt>
      <trkpt lat="45.94598" lon="4.73885">
        <ele>187</ele>
        <time>2018-10-12T08:30:34Z</time>
      </trkpt>
      <trkpt lat="45.94604" lon="4.73894">
        <ele>187</ele>
        <time>2018-10-12T08:30:36Z</time>
      </trkpt>
      <trkpt lat="45.94607" lon="4.73899">
        <ele>187</ele>
        <time>2018-10-12T08:30:37Z</time>
      </trkpt>
      <trkpt lat="45.9461" lon="4.73903">
        <ele>187</ele>
        <time>2018-10-12T08:30:38Z</time>
      </trkpt>
      <trkpt lat="45.94614" lon="4.73908">
        <ele>187</ele>
        <time>2018-10-12T08:30:39Z</time>
      </trkpt>
      <trkpt lat="45.94617" lon="4.73912">
        <ele>187</ele>
        <time>2018-10-12T08:30:40Z</time>
      </trkpt>
      <trkpt lat="45.94621" lon="4.73917">
        <ele>187</ele>
        <time>2018-10-12T08:30:41Z</time>
      </trkpt>
      <trkpt lat="45.94625" lon="4.73922">
        <ele>187</ele>
        <time>2018-10-12T08:30:42Z</time>
      </trkpt>
      <trkpt lat="45.94629" lon="4.73927">
        <ele>187</ele>
        <time>2018-10-12T08:30:43Z</time>
      </trkpt>
      <trkpt lat="45.94636" lon="4.73935">
        <ele>187</ele>
        <time>2018-10-12T08:30:45Z</time>
      </trkpt>
      <trkpt lat="45.94638" lon="4.73939">
        <ele>187</ele>
        <time>2018-10-12T08:30:46Z</time>
      </trkpt>
      <trkpt lat="45.94644" lon="4.73947">
        <ele>187</ele>
        <time>2018-10-12T08:30:48Z</time>
      </trkpt>
      <trkpt lat="45.94648" lon="4.73951">
        <ele>187</ele>
        <time>2018-10-12T08:30:49Z</time>
      </trkpt>
      <trkpt lat="45.94651" lon="4.73956">
        <ele>187</ele>
        <time>2018-10-12T08:30:50Z</time>
      </trkpt>
      <trkpt lat="45.94655" lon="4.7396">
        <ele>187</ele>
        <time>2018-10-12T08:30:51Z</time>
      </trkpt>
      <trkpt lat="45.94658" lon="4.73964">
        <ele>187</ele>
        <time>2018-10-12T08:30:52Z</time>
      </trkpt>
      <trkpt lat="45.94662" lon="4.73969">
        <ele>187</ele>
        <time>2018-10-12T08:30:53Z</time>
      </trkpt>
      <trkpt lat="45.94666" lon="4.73972">
        <ele>187</ele>
        <time>2018-10-12T08:30:54Z</time>
      </trkpt>
      <trkpt lat="45.94669" lon="4.73977">
        <ele>187</ele>
        <time>2018-10-12T08:30:55Z</time>
      </trkpt>
      <trkpt lat="45.94675" lon="4.73985">
        <ele>187</ele>
        <time>2018-10-12T08:30:57Z</time>
      </trkpt>
      <trkpt lat="45.94679" lon="4.7399">
        <ele>187</ele>
        <time>2018-10-12T08:30:58Z</time>
      </trkpt>
      <trkpt lat="45.94682" lon="4.73995">
        <ele>187</ele>
        <time>2018-10-12T08:30:59Z</time>
      </trkpt>
      <trkpt lat="45.94686" lon="4.73999">
        <ele>187</ele>
        <time>2018-10-12T08:31:00Z</time>
      </trkpt>
      <trkpt lat="45.94689" lon="4.74004">
        <ele>187</ele>
        <time>2018-10-12T08:31:01Z</time>
      </trkpt>
      <trkpt lat="45.94693" lon="4.74009">
        <ele>187</ele>
        <time>2018-10-12T08:31:02Z</time>
      </trkpt>
      <trkpt lat="45.94696" lon="4.74014">
        <ele>187</ele>
        <time>2018-10-12T08:31:03Z</time>
      </trkpt>
      <trkpt lat="45.947" lon="4.74019">
        <ele>187</ele>
        <time>2018-10-12T08:31:04Z</time>
      </trkpt>
      <trkpt lat="45.94703" lon="4.74024">
        <ele>187</ele>
        <time>2018-10-12T08:31:05Z</time>
      </trkpt>
      <trkpt lat="45.94706" lon="4.74028">
        <ele>187</ele>
        <time>2018-10-12T08:31:06Z</time>
      </trkpt>
      <trkpt lat="45.94713" lon="4.74036">
        <ele>187</ele>
        <time>2018-10-12T08:31:08Z</time>
      </trkpt>
      <trkpt lat="45.94716" lon="4.7404">
        <ele>187</ele>
        <time>2018-10-12T08:31:09Z</time>
      </trkpt>
      <trkpt lat="45.94722" lon="4.74048">
        <ele>187</ele>
        <time>2018-10-12T08:31:11Z</time>
      </trkpt>
      <trkpt lat="45.94726" lon="4.74053">
        <ele>188</ele>
        <time>2018-10-12T08:31:12Z</time>
      </trkpt>
      <trkpt lat="45.94732" lon="4.74061">
        <ele>188</ele>
        <time>2018-10-12T08:31:14Z</time>
      </trkpt>
      <trkpt lat="45.94735" lon="4.74066">
        <ele>188</ele>
        <time>2018-10-12T08:31:15Z</time>
      </trkpt>
      <trkpt lat="45.94739" lon="4.74071">
        <ele>188</ele>
        <time>2018-10-12T08:31:16Z</time>
      </trkpt>
      <trkpt lat="45.94742" lon="4.74076">
        <ele>188</ele>
        <time>2018-10-12T08:31:17Z</time>
      </trkpt>
      <trkpt lat="45.94745" lon="4.74081">
        <ele>189</ele>
        <time>2018-10-12T08:31:18Z</time>
      </trkpt>
      <trkpt lat="45.94749" lon="4.74086">
        <ele>189</ele>
        <time>2018-10-12T08:31:19Z</time>
      </trkpt>
      <trkpt lat="45.94753" lon="4.74092">
        <ele>189</ele>
        <time>2018-10-12T08:31:20Z</time>
      </trkpt>
      <trkpt lat="45.94755" lon="4.74097">
        <ele>189</ele>
        <time>2018-10-12T08:31:21Z</time>
      </trkpt>
      <trkpt lat="45.94759" lon="4.74102">
        <ele>189</ele>
        <time>2018-10-12T08:31:22Z</time>
      </trkpt>
      <trkpt lat="45.94762" lon="4.74107">
        <ele>189</ele>
        <time>2018-10-12T08:31:23Z</time>
      </trkpt>
      <trkpt lat="45.94765" lon="4.74112">
        <ele>189</ele>
        <time>2018-10-12T08:31:24Z</time>
      </trkpt>
      <trkpt lat="45.94769" lon="4.74117">
        <ele>189</ele>
        <time>2018-10-12T08:31:25Z</time>
      </trkpt>
      <trkpt lat="45.94772" lon="4.74123">
        <ele>189</ele>
        <time>2018-10-12T08:31:26Z</time>
      </trkpt>
      <trkpt lat="45.94777" lon="4.74127">
        <ele>189</ele>
        <time>2018-10-12T08:31:27Z</time>
      </trkpt>
      <trkpt lat="45.94781" lon="4.74132">
        <ele>189</ele>
        <time>2018-10-12T08:31:28Z</time>
      </trkpt>
      <trkpt lat="45.94785" lon="4.74138">
        <ele>189</ele>
        <time>2018-10-12T08:31:29Z</time>
      </trkpt>
      <trkpt lat="45.94788" lon="4.74143">
        <ele>189</ele>
        <time>2018-10-12T08:31:30Z</time>
      </trkpt>
      <trkpt lat="45.94792" lon="4.74149">
        <ele>189</ele>
        <time>2018-10-12T08:31:31Z</time>
      </trkpt>
      <trkpt lat="45.94797" lon="4.74158">
        <ele>189</ele>
        <time>2018-10-12T08:31:33Z</time>
      </trkpt>
      <trkpt lat="45.94799" lon="4.74163">
        <ele>189</ele>
        <time>2018-10-12T08:31:34Z</time>
      </trkpt>
      <trkpt lat="45.94802" lon="4.74169">
        <ele>189</ele>
        <time>2018-10-12T08:31:35Z</time>
      </trkpt>
      <trkpt lat="45.94806" lon="4.74174">
        <ele>189</ele>
        <time>2018-10-12T08:31:36Z</time>
      </trkpt>
      <trkpt lat="45.94811" lon="4.74183">
        <ele>189</ele>
        <time>2018-10-12T08:31:38Z</time>
      </trkpt>
      <trkpt lat="45.94815" lon="4.74187">
        <ele>189</ele>
        <time>2018-10-12T08:31:39Z</time>
      </trkpt>
      <trkpt lat="45.9482" lon="4.74195">
        <ele>189</ele>
        <time>2018-10-12T08:31:41Z</time>
      </trkpt>
      <trkpt lat="45.94822" lon="4.742">
        <ele>189</ele>
        <time>2018-10-12T08:31:42Z</time>
      </trkpt>
      <trkpt lat="45.94825" lon="4.74206">
        <ele>189</ele>
        <time>2018-10-12T08:31:43Z</time>
      </trkpt>
      <trkpt lat="45.94829" lon="4.74213">
        <ele>188</ele>
        <time>2018-10-12T08:31:44Z</time>
      </trkpt>
      <trkpt lat="45.94831" lon="4.7422">
        <ele>188</ele>
        <time>2018-10-12T08:31:45Z</time>
      </trkpt>
      <trkpt lat="45.94833" lon="4.74227">
        <ele>190</ele>
        <time>2018-10-12T08:31:46Z</time>
      </trkpt>
      <trkpt lat="45.94837" lon="4.74233">
        <ele>190</ele>
        <time>2018-10-12T08:31:47Z</time>
      </trkpt>
      <trkpt lat="45.9484" lon="4.74239">
        <ele>190</ele>
        <time>2018-10-12T08:31:48Z</time>
      </trkpt>
      <trkpt lat="45.94842" lon="4.74244">
        <ele>189</ele>
        <time>2018-10-12T08:31:49Z</time>
      </trkpt>
      <trkpt lat="45.94846" lon="4.7425">
        <ele>190</ele>
        <time>2018-10-12T08:31:50Z</time>
      </trkpt>
      <trkpt lat="45.94852" lon="4.74259">
        <ele>190</ele>
        <time>2018-10-12T08:31:52Z</time>
      </trkpt>
      <trkpt lat="45.94855" lon="4.74264">
        <ele>190</ele>
        <time>2018-10-12T08:31:53Z</time>
      </trkpt>
      <trkpt lat="45.94858" lon="4.7427">
        <ele>190</ele>
        <time>2018-10-12T08:31:54Z</time>
      </trkpt>
      <trkpt lat="45.9486" lon="4.74276">
        <ele>190</ele>
        <time>2018-10-12T08:31:55Z</time>
      </trkpt>
      <trkpt lat="45.94863" lon="4.74281">
        <ele>191</ele>
        <time>2018-10-12T08:31:56Z</time>
      </trkpt>
      <trkpt lat="45.94865" lon="4.74288">
        <ele>191</ele>
        <time>2018-10-12T08:31:57Z</time>
      </trkpt>
      <trkpt lat="45.94868" lon="4.74293">
        <ele>191</ele>
        <time>2018-10-12T08:31:58Z</time>
      </trkpt>
      <trkpt lat="45.9487" lon="4.74299">
        <ele>191</ele>
        <time>2018-10-12T08:31:59Z</time>
      </trkpt>
      <trkpt lat="45.94873" lon="4.74304">
        <ele>191</ele>
        <time>2018-10-12T08:32:00Z</time>
      </trkpt>
      <trkpt lat="45.94875" lon="4.7431">
        <ele>191</ele>
        <time>2018-10-12T08:32:01Z</time>
      </trkpt>
      <trkpt lat="45.9488" lon="4.74319">
        <ele>191</ele>
        <time>2018-10-12T08:32:03Z</time>
      </trkpt>
      <trkpt lat="45.94883" lon="4.74324">
        <ele>191</ele>
        <time>2018-10-12T08:32:04Z</time>
      </trkpt>
      <trkpt lat="45.94886" lon="4.74329">
        <ele>191</ele>
        <time>2018-10-12T08:32:05Z</time>
      </trkpt>
      <trkpt lat="45.94889" lon="4.74335">
        <ele>191</ele>
        <time>2018-10-12T08:32:06Z</time>
      </trkpt>
      <trkpt lat="45.94892" lon="4.74339">
        <ele>191</ele>
        <time>2018-10-12T08:32:07Z</time>
      </trkpt>
      <trkpt lat="45.94895" lon="4.74345">
        <ele>191</ele>
        <time>2018-10-12T08:32:08Z</time>
      </trkpt>
      <trkpt lat="45.94898" lon="4.7435">
        <ele>191</ele>
        <time>2018-10-12T08:32:09Z</time>
      </trkpt>
      <trkpt lat="45.94901" lon="4.74356">
        <ele>191</ele>
        <time>2018-10-12T08:32:10Z</time>
      </trkpt>
      <trkpt lat="45.94905" lon="4.74363">
        <ele>191</ele>
        <time>2018-10-12T08:32:11Z</time>
      </trkpt>
      <trkpt lat="45.94909" lon="4.74369">
        <ele>191</ele>
        <time>2018-10-12T08:32:12Z</time>
      </trkpt>
      <trkpt lat="45.94912" lon="4.74375">
        <ele>191</ele>
        <time>2018-10-12T08:32:13Z</time>
      </trkpt>
      <trkpt lat="45.94916" lon="4.7438">
        <ele>191</ele>
        <time>2018-10-12T08:32:14Z</time>
      </trkpt>
      <trkpt lat="45.9492" lon="4.74387">
        <ele>192</ele>
        <time>2018-10-12T08:32:15Z</time>
      </trkpt>
      <trkpt lat="45.94923" lon="4.74394">
        <ele>192</ele>
        <time>2018-10-12T08:32:16Z</time>
      </trkpt>
      <trkpt lat="45.94926" lon="4.74401">
        <ele>192</ele>
        <time>2018-10-12T08:32:17Z</time>
      </trkpt>
      <trkpt lat="45.94929" lon="4.74408">
        <ele>192</ele>
        <time>2018-10-12T08:32:18Z</time>
      </trkpt>
      <trkpt lat="45.94934" lon="4.74418">
        <ele>192</ele>
        <time>2018-10-12T08:32:20Z</time>
      </trkpt>
      <trkpt lat="45.94937" lon="4.74423">
        <ele>192</ele>
        <time>2018-10-12T08:32:21Z</time>
      </trkpt>
      <trkpt lat="45.94939" lon="4.74429">
        <ele>192</ele>
        <time>2018-10-12T08:32:22Z</time>
      </trkpt>
      <trkpt lat="45.94941" lon="4.74435">
        <ele>192</ele>
        <time>2018-10-12T08:32:23Z</time>
      </trkpt>
      <trkpt lat="45.94944" lon="4.74441">
        <ele>192</ele>
        <time>2018-10-12T08:32:24Z</time>
      </trkpt>
      <trkpt lat="45.94947" lon="4.74447">
        <ele>192</ele>
        <time>2018-10-12T08:32:25Z</time>
      </trkpt>
      <trkpt lat="45.9495" lon="4.74453">
        <ele>192</ele>
        <time>2018-10-12T08:32:26Z</time>
      </trkpt>
      <trkpt lat="45.94952" lon="4.74459">
        <ele>193</ele>
        <time>2018-10-12T08:32:27Z</time>
      </trkpt>
      <trkpt lat="45.94955" lon="4.74465">
        <ele>193</ele>
        <time>2018-10-12T08:32:28Z</time>
      </trkpt>
      <trkpt lat="45.94957" lon="4.7447">
        <ele>193</ele>
        <time>2018-10-12T08:32:29Z</time>
      </trkpt>
      <trkpt lat="45.94962" lon="4.74479">
        <ele>193</ele>
        <time>2018-10-12T08:32:31Z</time>
      </trkpt>
      <trkpt lat="45.94965" lon="4.74484">
        <ele>193</ele>
        <time>2018-10-12T08:32:32Z</time>
      </trkpt>
      <trkpt lat="45.94971" lon="4.74492">
        <ele>193</ele>
        <time>2018-10-12T08:32:34Z</time>
      </trkpt>
      <trkpt lat="45.94974" lon="4.74497">
        <ele>193</ele>
        <time>2018-10-12T08:32:35Z</time>
      </trkpt>
      <trkpt lat="45.94976" lon="4.74503">
        <ele>193</ele>
        <time>2018-10-12T08:32:36Z</time>
      </trkpt>
      <trkpt lat="45.94978" lon="4.74509">
        <ele>193</ele>
        <time>2018-10-12T08:32:37Z</time>
      </trkpt>
      <trkpt lat="45.94981" lon="4.74515">
        <ele>193</ele>
        <time>2018-10-12T08:32:38Z</time>
      </trkpt>
      <trkpt lat="45.94984" lon="4.7452">
        <ele>193</ele>
        <time>2018-10-12T08:32:39Z</time>
      </trkpt>
      <trkpt lat="45.94987" lon="4.74525">
        <ele>193</ele>
        <time>2018-10-12T08:32:40Z</time>
      </trkpt>
      <trkpt lat="45.9499" lon="4.7453">
        <ele>193</ele>
        <time>2018-10-12T08:32:41Z</time>
      </trkpt>
      <trkpt lat="45.94995" lon="4.74541">
        <ele>193</ele>
        <time>2018-10-12T08:32:43Z</time>
      </trkpt>
      <trkpt lat="45.94997" lon="4.74546">
        <ele>193</ele>
        <time>2018-10-12T08:32:44Z</time>
      </trkpt>
      <trkpt lat="45.95003" lon="4.74555">
        <ele>194</ele>
        <time>2018-10-12T08:32:46Z</time>
      </trkpt>
      <trkpt lat="45.95007" lon="4.7456">
        <ele>194</ele>
        <time>2018-10-12T08:32:47Z</time>
      </trkpt>
      <trkpt lat="45.9501" lon="4.74565">
        <ele>194</ele>
        <time>2018-10-12T08:32:48Z</time>
      </trkpt>
      <trkpt lat="45.95013" lon="4.74571">
        <ele>194</ele>
        <time>2018-10-12T08:32:49Z</time>
      </trkpt>
      <trkpt lat="45.95016" lon="4.74578">
        <ele>194</ele>
        <time>2018-10-12T08:32:50Z</time>
      </trkpt>
      <trkpt lat="45.95018" lon="4.74583">
        <ele>194</ele>
        <time>2018-10-12T08:32:51Z</time>
      </trkpt>
      <trkpt lat="45.95021" lon="4.74589">
        <ele>194</ele>
        <time>2018-10-12T08:32:52Z</time>
      </trkpt>
      <trkpt lat="45.95024" lon="4.74593">
        <ele>194</ele>
        <time>2018-10-12T08:32:53Z</time>
      </trkpt>
      <trkpt lat="45.95029" lon="4.74604">
        <ele>194</ele>
        <time>2018-10-12T08:32:55Z</time>
      </trkpt>
      <trkpt lat="45.95032" lon="4.74609">
        <ele>194</ele>
        <time>2018-10-12T08:32:56Z</time>
      </trkpt>
      <trkpt lat="45.95034" lon="4.74615">
        <ele>194</ele>
        <time>2018-10-12T08:32:57Z</time>
      </trkpt>
      <trkpt lat="45.95037" lon="4.7462">
        <ele>194</ele>
        <time>2018-10-12T08:32:58Z</time>
      </trkpt>
      <trkpt lat="45.95042" lon="4.74629">
        <ele>194</ele>
        <time>2018-10-12T08:33:00Z</time>
      </trkpt>
      <trkpt lat="45.95046" lon="4.74634">
        <ele>194</ele>
        <time>2018-10-12T08:33:01Z</time>
      </trkpt>
      <trkpt lat="45.95049" lon="4.7464">
        <ele>194</ele>
        <time>2018-10-12T08:33:02Z</time>
      </trkpt>
      <trkpt lat="45.95052" lon="4.74647">
        <ele>194</ele>
        <time>2018-10-12T08:33:03Z</time>
      </trkpt>
      <trkpt lat="45.95055" lon="4.74653">
        <ele>194</ele>
        <time>2018-10-12T08:33:04Z</time>
      </trkpt>
      <trkpt lat="45.95059" lon="4.74658">
        <ele>194</ele>
        <time>2018-10-12T08:33:05Z</time>
      </trkpt>
      <trkpt lat="45.95062" lon="4.74664">
        <ele>195</ele>
        <time>2018-10-12T08:33:06Z</time>
      </trkpt>
      <trkpt lat="45.95065" lon="4.7467">
        <ele>194</ele>
        <time>2018-10-12T08:33:07Z</time>
      </trkpt>
      <trkpt lat="45.95067" lon="4.74676">
        <ele>194</ele>
        <time>2018-10-12T08:33:08Z</time>
      </trkpt>
      <trkpt lat="45.9507" lon="4.74681">
        <ele>194</ele>
        <time>2018-10-12T08:33:09Z</time>
      </trkpt>
      <trkpt lat="45.95073" lon="4.74686">
        <ele>194</ele>
        <time>2018-10-12T08:33:10Z</time>
      </trkpt>
      <trkpt lat="45.95077" lon="4.74691">
        <ele>194</ele>
        <time>2018-10-12T08:33:11Z</time>
      </trkpt>
      <trkpt lat="45.95081" lon="4.74696">
        <ele>194</ele>
        <time>2018-10-12T08:33:12Z</time>
      </trkpt>
      <trkpt lat="45.95084" lon="4.74702">
        <ele>194</ele>
        <time>2018-10-12T08:33:13Z</time>
      </trkpt>
      <trkpt lat="45.95087" lon="4.74709">
        <ele>194</ele>
        <time>2018-10-12T08:33:14Z</time>
      </trkpt>
      <trkpt lat="45.9509" lon="4.74715">
        <ele>194</ele>
        <time>2018-10-12T08:33:15Z</time>
      </trkpt>
      <trkpt lat="45.95093" lon="4.74721">
        <ele>194</ele>
        <time>2018-10-12T08:33:16Z</time>
      </trkpt>
      <trkpt lat="45.95096" lon="4.74726">
        <ele>194</ele>
        <time>2018-10-12T08:33:17Z</time>
      </trkpt>
      <trkpt lat="45.95099" lon="4.74731">
        <ele>194</ele>
        <time>2018-10-12T08:33:18Z</time>
      </trkpt>
      <trkpt lat="45.95102" lon="4.74736">
        <ele>194</ele>
        <time>2018-10-12T08:33:19Z</time>
      </trkpt>
      <trkpt lat="45.95106" lon="4.74742">
        <ele>194</ele>
        <time>2018-10-12T08:33:20Z</time>
      </trkpt>
      <trkpt lat="45.95109" lon="4.74746">
        <ele>194</ele>
        <time>2018-10-12T08:33:21Z</time>
      </trkpt>
      <trkpt lat="45.95112" lon="4.74751">
        <ele>194</ele>
        <time>2018-10-12T08:33:22Z</time>
      </trkpt>
      <trkpt lat="45.95116" lon="4.74757">
        <ele>194</ele>
        <time>2018-10-12T08:33:23Z</time>
      </trkpt>
      <trkpt lat="45.9512" lon="4.74762">
        <ele>194</ele>
        <time>2018-10-12T08:33:24Z</time>
      </trkpt>
      <trkpt lat="45.95123" lon="4.74767">
        <ele>194</ele>
        <time>2018-10-12T08:33:25Z</time>
      </trkpt>
      <trkpt lat="45.95127" lon="4.74773">
        <ele>194</ele>
        <time>2018-10-12T08:33:26Z</time>
      </trkpt>
      <trkpt lat="45.95132" lon="4.74779">
        <ele>194</ele>
        <time>2018-10-12T08:33:27Z</time>
      </trkpt>
      <trkpt lat="45.95135" lon="4.74785">
        <ele>194</ele>
        <time>2018-10-12T08:33:28Z</time>
      </trkpt>
      <trkpt lat="45.95138" lon="4.74791">
        <ele>194</ele>
        <time>2018-10-12T08:33:29Z</time>
      </trkpt>
      <trkpt lat="45.95142" lon="4.74797">
        <ele>194</ele>
        <time>2018-10-12T08:33:30Z</time>
      </trkpt>
      <trkpt lat="45.95145" lon="4.74804">
        <ele>194</ele>
        <time>2018-10-12T08:33:31Z</time>
      </trkpt>
      <trkpt lat="45.9515" lon="4.74809">
        <ele>194</ele>
        <time>2018-10-12T08:33:32Z</time>
      </trkpt>
      <trkpt lat="45.95154" lon="4.74816">
        <ele>194</ele>
        <time>2018-10-12T08:33:33Z</time>
      </trkpt>
      <trkpt lat="45.95158" lon="4.74822">
        <ele>194</ele>
        <time>2018-10-12T08:33:34Z</time>
      </trkpt>
      <trkpt lat="45.9516" lon="4.74827">
        <ele>194</ele>
        <time>2018-10-12T08:33:35Z</time>
      </trkpt>
      <trkpt lat="45.95163" lon="4.74834">
        <ele>194</ele>
        <time>2018-10-12T08:33:36Z</time>
      </trkpt>
      <trkpt lat="45.95166" lon="4.74839">
        <ele>194</ele>
        <time>2018-10-12T08:33:37Z</time>
      </trkpt>
      <trkpt lat="45.9517" lon="4.74845">
        <ele>194</ele>
        <time>2018-10-12T08:33:38Z</time>
      </trkpt>
      <trkpt lat="45.95173" lon="4.7485">
        <ele>194</ele>
        <time>2018-10-12T08:33:39Z</time>
      </trkpt>
      <trkpt lat="45.95176" lon="4.74856">
        <ele>194</ele>
        <time>2018-10-12T08:33:40Z</time>
      </trkpt>
      <trkpt lat="45.9518" lon="4.7486">
        <ele>194</ele>
        <time>2018-10-12T08:33:41Z</time>
      </trkpt>
      <trkpt lat="45.95185" lon="4.74869">
        <ele>194</ele>
        <time>2018-10-12T08:33:43Z</time>
      </trkpt>
      <trkpt lat="45.95188" lon="4.74873">
        <ele>194</ele>
        <time>2018-10-12T08:33:44Z</time>
      </trkpt>
      <trkpt lat="45.95192" lon="4.74878">
        <ele>194</ele>
        <time>2018-10-12T08:33:45Z</time>
      </trkpt>
      <trkpt lat="45.95196" lon="4.74884">
        <ele>194</ele>
        <time>2018-10-12T08:33:46Z</time>
      </trkpt>
      <trkpt lat="45.95199" lon="4.7489">
        <ele>194</ele>
        <time>2018-10-12T08:33:47Z</time>
      </trkpt>
      <trkpt lat="45.95203" lon="4.74895">
        <ele>194</ele>
        <time>2018-10-12T08:33:48Z</time>
      </trkpt>
      <trkpt lat="45.95206" lon="4.74901">
        <ele>194</ele>
        <time>2018-10-12T08:33:49Z</time>
      </trkpt>
      <trkpt lat="45.9521" lon="4.74907">
        <ele>193</ele>
        <time>2018-10-12T08:33:50Z</time>
      </trkpt>
      <trkpt lat="45.95213" lon="4.74912">
        <ele>193</ele>
        <time>2018-10-12T08:33:51Z</time>
      </trkpt>
      <trkpt lat="45.95215" lon="4.74918">
        <ele>192</ele>
        <time>2018-10-12T08:33:52Z</time>
      </trkpt>
      <trkpt lat="45.95218" lon="4.74923">
        <ele>192</ele>
        <time>2018-10-12T08:33:53Z</time>
      </trkpt>
      <trkpt lat="45.95221" lon="4.7493">
        <ele>192</ele>
        <time>2018-10-12T08:33:54Z</time>
      </trkpt>
      <trkpt lat="45.95224" lon="4.74935">
        <ele>192</ele>
        <time>2018-10-12T08:33:55Z</time>
      </trkpt>
      <trkpt lat="45.95228" lon="4.74939">
        <ele>192</ele>
        <time>2018-10-12T08:33:56Z</time>
      </trkpt>
      <trkpt lat="45.95233" lon="4.74945">
        <ele>192</ele>
        <time>2018-10-12T08:33:57Z</time>
      </trkpt>
      <trkpt lat="45.95236" lon="4.74951">
        <ele>192</ele>
        <time>2018-10-12T08:33:58Z</time>
      </trkpt>
      <trkpt lat="45.9524" lon="4.74956">
        <ele>192</ele>
        <time>2018-10-12T08:33:59Z</time>
      </trkpt>
      <trkpt lat="45.95244" lon="4.74962">
        <ele>191</ele>
        <time>2018-10-12T08:34:00Z</time>
      </trkpt>
      <trkpt lat="45.95248" lon="4.74967">
        <ele>191</ele>
        <time>2018-10-12T08:34:01Z</time>
      </trkpt>
      <trkpt lat="45.95252" lon="4.74973">
        <ele>192</ele>
        <time>2018-10-12T08:34:02Z</time>
      </trkpt>
      <trkpt lat="45.95256" lon="4.74979">
        <ele>192</ele>
        <time>2018-10-12T08:34:03Z</time>
      </trkpt>
      <trkpt lat="45.9526" lon="4.74983">
        <ele>192</ele>
        <time>2018-10-12T08:34:04Z</time>
      </trkpt>
      <trkpt lat="45.95263" lon="4.74988">
        <ele>192</ele>
        <time>2018-10-12T08:34:05Z</time>
      </trkpt>
      <trkpt lat="45.95267" lon="4.74994">
        <ele>192</ele>
        <time>2018-10-12T08:34:06Z</time>
      </trkpt>
      <trkpt lat="45.95271" lon="4.74999">
        <ele>192</ele>
        <time>2018-10-12T08:34:07Z</time>
      </trkpt>
      <trkpt lat="45.95275" lon="4.75005">
        <ele>191</ele>
        <time>2018-10-12T08:34:08Z</time>
      </trkpt>
      <trkpt lat="45.95279" lon="4.7501">
        <ele>191</ele>
        <time>2018-10-12T08:34:09Z</time>
      </trkpt>
      <trkpt lat="45.95282" lon="4.75016">
        <ele>191</ele>
        <time>2018-10-12T08:34:10Z</time>
      </trkpt>
      <trkpt lat="45.95286" lon="4.7502">
        <ele>191</ele>
        <time>2018-10-12T08:34:11Z</time>
      </trkpt>
      <trkpt lat="45.95289" lon="4.75026">
        <ele>191</ele>
        <time>2018-10-12T08:34:12Z</time>
      </trkpt>
      <trkpt lat="45.95292" lon="4.75031">
        <ele>191</ele>
        <time>2018-10-12T08:34:13Z</time>
      </trkpt>
      <trkpt lat="45.95296" lon="4.75037">
        <ele>191</ele>
        <time>2018-10-12T08:34:14Z</time>
      </trkpt>
      <trkpt lat="45.953" lon="4.75042">
        <ele>191</ele>
        <time>2018-10-12T08:34:15Z</time>
      </trkpt>
      <trkpt lat="45.95303" lon="4.75049">
        <ele>191</ele>
        <time>2018-10-12T08:34:16Z</time>
      </trkpt>
      <trkpt lat="45.95307" lon="4.75055">
        <ele>192</ele>
        <time>2018-10-12T08:34:17Z</time>
      </trkpt>
      <trkpt lat="45.95311" lon="4.75062">
        <ele>192</ele>
        <time>2018-10-12T08:34:18Z</time>
      </trkpt>
      <trkpt lat="45.95316" lon="4.75068">
        <ele>192</ele>
        <time>2018-10-12T08:34:19Z</time>
      </trkpt>
      <trkpt lat="45.95319" lon="4.75074">
        <ele>192</ele>
        <time>2018-10-12T08:34:20Z</time>
      </trkpt>
      <trkpt lat="45.95323" lon="4.7508">
        <ele>192</ele>
        <time>2018-10-12T08:34:21Z</time>
      </trkpt>
      <trkpt lat="45.95327" lon="4.75085">
        <ele>192</ele>
        <time>2018-10-12T08:34:22Z</time>
      </trkpt>
      <trkpt lat="45.95331" lon="4.75091">
        <ele>192</ele>
        <time>2018-10-12T08:34:23Z</time>
      </trkpt>
      <trkpt lat="45.95336" lon="4.75097">
        <ele>192</ele>
        <time>2018-10-12T08:34:24Z</time>
      </trkpt>
      <trkpt lat="45.95339" lon="4.75103">
        <ele>192</ele>
        <time>2018-10-12T08:34:25Z</time>
      </trkpt>
      <trkpt lat="45.95343" lon="4.75109">
        <ele>192</ele>
        <time>2018-10-12T08:34:26Z</time>
      </trkpt>
      <trkpt lat="45.95347" lon="4.75115">
        <ele>192</ele>
        <time>2018-10-12T08:34:27Z</time>
      </trkpt>
      <trkpt lat="45.9535" lon="4.75121">
        <ele>191</ele>
        <time>2018-10-12T08:34:28Z</time>
      </trkpt>
      <trkpt lat="45.95354" lon="4.75126">
        <ele>191</ele>
        <time>2018-10-12T08:34:29Z</time>
      </trkpt>
      <trkpt lat="45.95358" lon="4.75132">
        <ele>191</ele>
        <time>2018-10-12T08:34:30Z</time>
      </trkpt>
      <trkpt lat="45.95361" lon="4.75139">
        <ele>191</ele>
        <time>2018-10-12T08:34:31Z</time>
      </trkpt>
      <trkpt lat="45.95366" lon="4.75145">
        <ele>191</ele>
        <time>2018-10-12T08:34:32Z</time>
      </trkpt>
      <trkpt lat="45.9537" lon="4.75151">
        <ele>191</ele>
        <time>2018-10-12T08:34:33Z</time>
      </trkpt>
      <trkpt lat="45.95374" lon="4.75158">
        <ele>191</ele>
        <time>2018-10-12T08:34:34Z</time>
      </trkpt>
      <trkpt lat="45.95379" lon="4.75165">
        <ele>191</ele>
        <time>2018-10-12T08:34:35Z</time>
      </trkpt>
      <trkpt lat="45.95383" lon="4.75171">
        <ele>189</ele>
        <time>2018-10-12T08:34:36Z</time>
      </trkpt>
      <trkpt lat="45.95387" lon="4.75177">
        <ele>189</ele>
        <time>2018-10-12T08:34:37Z</time>
      </trkpt>
      <trkpt lat="45.95391" lon="4.75184">
        <ele>189</ele>
        <time>2018-10-12T08:34:38Z</time>
      </trkpt>
      <trkpt lat="45.95395" lon="4.75192">
        <ele>189</ele>
        <time>2018-10-12T08:34:39Z</time>
      </trkpt>
      <trkpt lat="45.95399" lon="4.75199">
        <ele>189</ele>
        <time>2018-10-12T08:34:40Z</time>
      </trkpt>
      <trkpt lat="45.95402" lon="4.75206">
        <ele>189</ele>
        <time>2018-10-12T08:34:41Z</time>
      </trkpt>
      <trkpt lat="45.95406" lon="4.75213">
        <ele>189</ele>
        <time>2018-10-12T08:34:42Z</time>
      </trkpt>
      <trkpt lat="45.9541" lon="4.7522">
        <ele>189</ele>
        <time>2018-10-12T08:34:43Z</time>
      </trkpt>
      <trkpt lat="45.95413" lon="4.75227">
        <ele>189</ele>
        <time>2018-10-12T08:34:44Z</time>
      </trkpt>
      <trkpt lat="45.95416" lon="4.75233">
        <ele>189</ele>
        <time>2018-10-12T08:34:45Z</time>
      </trkpt>
      <trkpt lat="45.95419" lon="4.7524">
        <ele>190</ele>
        <time>2018-10-12T08:34:46Z</time>
      </trkpt>
      <trkpt lat="45.95423" lon="4.75244">
        <ele>190</ele>
        <time>2018-10-12T08:34:47Z</time>
      </trkpt>
      <trkpt lat="45.95426" lon="4.7525">
        <ele>190</ele>
        <time>2018-10-12T08:34:48Z</time>
      </trkpt>
      <trkpt lat="45.9543" lon="4.75255">
        <ele>189</ele>
        <time>2018-10-12T08:34:49Z</time>
      </trkpt>
      <trkpt lat="45.95433" lon="4.75262">
        <ele>189</ele>
        <time>2018-10-12T08:34:50Z</time>
      </trkpt>
      <trkpt lat="45.95437" lon="4.75268">
        <ele>189</ele>
        <time>2018-10-12T08:34:51Z</time>
      </trkpt>
      <trkpt lat="45.9544" lon="4.75273">
        <ele>189</ele>
        <time>2018-10-12T08:34:52Z</time>
      </trkpt>
      <trkpt lat="45.95443" lon="4.75279">
        <ele>188</ele>
        <time>2018-10-12T08:34:53Z</time>
      </trkpt>
      <trkpt lat="45.95448" lon="4.75287">
        <ele>188</ele>
        <time>2018-10-12T08:34:54Z</time>
      </trkpt>
      <trkpt lat="45.95451" lon="4.75294">
        <ele>188</ele>
        <time>2018-10-12T08:34:55Z</time>
      </trkpt>
      <trkpt lat="45.95455" lon="4.75298">
        <ele>188</ele>
        <time>2018-10-12T08:34:56Z</time>
      </trkpt>
      <trkpt lat="45.95458" lon="4.75304">
        <ele>188</ele>
        <time>2018-10-12T08:34:57Z</time>
      </trkpt>
      <trkpt lat="45.95461" lon="4.75312">
        <ele>188</ele>
        <time>2018-10-12T08:34:58Z</time>
      </trkpt>
      <trkpt lat="45.95466" lon="4.7532">
        <ele>188</ele>
        <time>2018-10-12T08:34:59Z</time>
      </trkpt>
      <trkpt lat="45.9547" lon="4.75327">
        <ele>188</ele>
        <time>2018-10-12T08:35:00Z</time>
      </trkpt>
      <trkpt lat="45.95473" lon="4.75333">
        <ele>188</ele>
        <time>2018-10-12T08:35:01Z</time>
      </trkpt>
      <trkpt lat="45.95477" lon="4.7534">
        <ele>186</ele>
        <time>2018-10-12T08:35:02Z</time>
      </trkpt>
      <trkpt lat="45.95481" lon="4.75348">
        <ele>186</ele>
        <time>2018-10-12T08:35:03Z</time>
      </trkpt>
      <trkpt lat="45.95485" lon="4.75356">
        <ele>186</ele>
        <time>2018-10-12T08:35:04Z</time>
      </trkpt>
      <trkpt lat="45.95488" lon="4.75363">
        <ele>186</ele>
        <time>2018-10-12T08:35:05Z</time>
      </trkpt>
      <trkpt lat="45.95491" lon="4.75369">
        <ele>186</ele>
        <time>2018-10-12T08:35:06Z</time>
      </trkpt>
      <trkpt lat="45.95494" lon="4.75378">
        <ele>185</ele>
        <time>2018-10-12T08:35:07Z</time>
      </trkpt>
      <trkpt lat="45.95497" lon="4.75386">
        <ele>185</ele>
        <time>2018-10-12T08:35:08Z</time>
      </trkpt>
      <trkpt lat="45.955" lon="4.75394">
        <ele>185</ele>
        <time>2018-10-12T08:35:09Z</time>
      </trkpt>
      <trkpt lat="45.95502" lon="4.75402">
        <ele>187</ele>
        <time>2018-10-12T08:35:10Z</time>
      </trkpt>
      <trkpt lat="45.95505" lon="4.75409">
        <ele>186</ele>
        <time>2018-10-12T08:35:11Z</time>
      </trkpt>
      <trkpt lat="45.95506" lon="4.75418">
        <ele>186</ele>
        <time>2018-10-12T08:35:12Z</time>
      </trkpt>
      <trkpt lat="45.95508" lon="4.75427">
        <ele>186</ele>
        <time>2018-10-12T08:35:13Z</time>
      </trkpt>
      <trkpt lat="45.95511" lon="4.75435">
        <ele>186</ele>
        <time>2018-10-12T08:35:14Z</time>
      </trkpt>
      <trkpt lat="45.95514" lon="4.75444">
        <ele>187</ele>
        <time>2018-10-12T08:35:15Z</time>
      </trkpt>
      <trkpt lat="45.95513" lon="4.75453">
        <ele>187</ele>
        <time>2018-10-12T08:35:16Z</time>
      </trkpt>
      <trkpt lat="45.95512" lon="4.75462">
        <ele>187</ele>
        <time>2018-10-12T08:35:17Z</time>
      </trkpt>
      <trkpt lat="45.95513" lon="4.75472">
        <ele>186</ele>
        <time>2018-10-12T08:35:18Z</time>
      </trkpt>
      <trkpt lat="45.95514" lon="4.7548">
        <ele>186</ele>
        <time>2018-10-12T08:35:19Z</time>
      </trkpt>
      <trkpt lat="45.95517" lon="4.75489">
        <ele>186</ele>
        <time>2018-10-12T08:35:20Z</time>
      </trkpt>
      <trkpt lat="45.95522" lon="4.75493">
        <ele>186</ele>
        <time>2018-10-12T08:35:21Z</time>
      </trkpt>
      <trkpt lat="45.95527" lon="4.75495">
        <ele>186</ele>
        <time>2018-10-12T08:35:22Z</time>
      </trkpt>
      <trkpt lat="45.95531" lon="4.75494">
        <ele>187</ele>
        <time>2018-10-12T08:35:23Z</time>
      </trkpt>
      <trkpt lat="45.95535" lon="4.7549">
        <ele>187</ele>
        <time>2018-10-12T08:35:24Z</time>
      </trkpt>
      <trkpt lat="45.95539" lon="4.75487">
        <ele>187</ele>
        <time>2018-10-12T08:35:25Z</time>
      </trkpt>
      <trkpt lat="45.95543" lon="4.75482">
        <ele>187</ele>
        <time>2018-10-12T08:35:26Z</time>
      </trkpt>
      <trkpt lat="45.95547" lon="4.75472">
        <ele>188</ele>
        <time>2018-10-12T08:35:28Z</time>
      </trkpt>
      <trkpt lat="45.95551" lon="4.75467">
        <ele>188</ele>
        <time>2018-10-12T08:35:29Z</time>
      </trkpt>
      <trkpt lat="45.95554" lon="4.75464">
        <ele>188</ele>
        <time>2018-10-12T08:35:30Z</time>
      </trkpt>
      <trkpt lat="45.95558" lon="4.75459">
        <ele>188</ele>
        <time>2018-10-12T08:35:31Z</time>
      </trkpt>
      <trkpt lat="45.95563" lon="4.75456">
        <ele>188</ele>
        <time>2018-10-12T08:35:32Z</time>
      </trkpt>
      <trkpt lat="45.95567" lon="4.75452">
        <ele>188</ele>
        <time>2018-10-12T08:35:33Z</time>
      </trkpt>
      <trkpt lat="45.95572" lon="4.75448">
        <ele>189</ele>
        <time>2018-10-12T08:35:34Z</time>
      </trkpt>
      <trkpt lat="45.95575" lon="4.75443">
        <ele>189</ele>
        <time>2018-10-12T08:35:35Z</time>
      </trkpt>
      <trkpt lat="45.95579" lon="4.75441">
        <ele>189</ele>
        <time>2018-10-12T08:35:36Z</time>
      </trkpt>
      <trkpt lat="45.95583" lon="4.75438">
        <ele>192</ele>
        <time>2018-10-12T08:35:37Z</time>
      </trkpt>
      <trkpt lat="45.95588" lon="4.75434">
        <ele>192</ele>
        <time>2018-10-12T08:35:38Z</time>
      </trkpt>
      <trkpt lat="45.95593" lon="4.7543">
        <ele>192</ele>
        <time>2018-10-12T08:35:39Z</time>
      </trkpt>
      <trkpt lat="45.95597" lon="4.75427">
        <ele>192</ele>
        <time>2018-10-12T08:35:40Z</time>
      </trkpt>
      <trkpt lat="45.95601" lon="4.75424">
        <ele>192</ele>
        <time>2018-10-12T08:35:41Z</time>
      </trkpt>
      <trkpt lat="45.95605" lon="4.75421">
        <ele>192</ele>
        <time>2018-10-12T08:35:42Z</time>
      </trkpt>
      <trkpt lat="45.9561" lon="4.75418">
        <ele>192</ele>
        <time>2018-10-12T08:35:43Z</time>
      </trkpt>
      <trkpt lat="45.95614" lon="4.75415">
        <ele>193</ele>
        <time>2018-10-12T08:35:44Z</time>
      </trkpt>
      <trkpt lat="45.95618" lon="4.75412">
        <ele>193</ele>
        <time>2018-10-12T08:35:45Z</time>
      </trkpt>
      <trkpt lat="45.95622" lon="4.75409">
        <ele>193</ele>
        <time>2018-10-12T08:35:46Z</time>
      </trkpt>
      <trkpt lat="45.95626" lon="4.75406">
        <ele>193</ele>
        <time>2018-10-12T08:35:47Z</time>
      </trkpt>
      <trkpt lat="45.95634" lon="4.754">
        <ele>193</ele>
        <time>2018-10-12T08:35:49Z</time>
      </trkpt>
      <trkpt lat="45.95637" lon="4.75398">
        <ele>193</ele>
        <time>2018-10-12T08:35:50Z</time>
      </trkpt>
      <trkpt lat="45.95645" lon="4.75393">
        <ele>193</ele>
        <time>2018-10-12T08:35:52Z</time>
      </trkpt>
      <trkpt lat="45.95648" lon="4.7539">
        <ele>193</ele>
        <time>2018-10-12T08:35:53Z</time>
      </trkpt>
      <trkpt lat="45.95655" lon="4.75383">
        <ele>193</ele>
        <time>2018-10-12T08:35:55Z</time>
      </trkpt>
      <trkpt lat="45.95659" lon="4.7538">
        <ele>193</ele>
        <time>2018-10-12T08:35:56Z</time>
      </trkpt>
      <trkpt lat="45.95663" lon="4.75377">
        <ele>193</ele>
        <time>2018-10-12T08:35:57Z</time>
      </trkpt>
      <trkpt lat="45.95667" lon="4.75374">
        <ele>193</ele>
        <time>2018-10-12T08:35:58Z</time>
      </trkpt>
      <trkpt lat="45.95674" lon="4.75367">
        <ele>193</ele>
        <time>2018-10-12T08:36:00Z</time>
      </trkpt>
      <trkpt lat="45.95678" lon="4.75364">
        <ele>193</ele>
        <time>2018-10-12T08:36:01Z</time>
      </trkpt>
      <trkpt lat="45.95685" lon="4.75357">
        <ele>193</ele>
        <time>2018-10-12T08:36:03Z</time>
      </trkpt>
      <trkpt lat="45.95689" lon="4.75354">
        <ele>193</ele>
        <time>2018-10-12T08:36:04Z</time>
      </trkpt>
      <trkpt lat="45.95697" lon="4.75347">
        <ele>193</ele>
        <time>2018-10-12T08:36:06Z</time>
      </trkpt>
      <trkpt lat="45.957" lon="4.75343">
        <ele>193</ele>
        <time>2018-10-12T08:36:07Z</time>
      </trkpt>
      <trkpt lat="45.95704" lon="4.75335">
        <ele>193</ele>
        <time>2018-10-12T08:36:08Z</time>
      </trkpt>
      <trkpt lat="45.95707" lon="4.75331">
        <ele>193</ele>
        <time>2018-10-12T08:36:09Z</time>
      </trkpt>
      <trkpt lat="45.95711" lon="4.75328">
        <ele>193</ele>
        <time>2018-10-12T08:36:10Z</time>
      </trkpt>
      <trkpt lat="45.95714" lon="4.75323">
        <ele>193</ele>
        <time>2018-10-12T08:36:11Z</time>
      </trkpt>
      <trkpt lat="45.95719" lon="4.7532">
        <ele>193</ele>
        <time>2018-10-12T08:36:12Z</time>
      </trkpt>
      <trkpt lat="45.95722" lon="4.75315">
        <ele>193</ele>
        <time>2018-10-12T08:36:13Z</time>
      </trkpt>
      <trkpt lat="45.95728" lon="4.7531">
        <ele>193</ele>
        <time>2018-10-12T08:36:14Z</time>
      </trkpt>
      <trkpt lat="45.95732" lon="4.75306">
        <ele>193</ele>
        <time>2018-10-12T08:36:15Z</time>
      </trkpt>
      <trkpt lat="45.95736" lon="4.75301">
        <ele>193</ele>
        <time>2018-10-12T08:36:16Z</time>
      </trkpt>
      <trkpt lat="45.9574" lon="4.75297">
        <ele>193</ele>
        <time>2018-10-12T08:36:17Z</time>
      </trkpt>
      <trkpt lat="45.95744" lon="4.75292">
        <ele>193</ele>
        <time>2018-10-12T08:36:18Z</time>
      </trkpt>
      <trkpt lat="45.95749" lon="4.75288">
        <ele>193</ele>
        <time>2018-10-12T08:36:19Z</time>
      </trkpt>
      <trkpt lat="45.95754" lon="4.75283">
        <ele>193</ele>
        <time>2018-10-12T08:36:20Z</time>
      </trkpt>
      <trkpt lat="45.95759" lon="4.75279">
        <ele>193</ele>
        <time>2018-10-12T08:36:21Z</time>
      </trkpt>
      <trkpt lat="45.95763" lon="4.75274">
        <ele>193</ele>
        <time>2018-10-12T08:36:22Z</time>
      </trkpt>
      <trkpt lat="45.95767" lon="4.7527">
        <ele>193</ele>
        <time>2018-10-12T08:36:23Z</time>
      </trkpt>
      <trkpt lat="45.95771" lon="4.75266">
        <ele>193</ele>
        <time>2018-10-12T08:36:24Z</time>
      </trkpt>
      <trkpt lat="45.95776" lon="4.75262">
        <ele>193</ele>
        <time>2018-10-12T08:36:25Z</time>
      </trkpt>
      <trkpt lat="45.9578" lon="4.75257">
        <ele>193</ele>
        <time>2018-10-12T08:36:26Z</time>
      </trkpt>
      <trkpt lat="45.95784" lon="4.75253">
        <ele>193</ele>
        <time>2018-10-12T08:36:27Z</time>
      </trkpt>
      <trkpt lat="45.9579" lon="4.75244">
        <ele>193</ele>
        <time>2018-10-12T08:36:29Z</time>
      </trkpt>
      <trkpt lat="45.95795" lon="4.75238">
        <ele>193</ele>
        <time>2018-10-12T08:36:30Z</time>
      </trkpt>
      <trkpt lat="45.95799" lon="4.75233">
        <ele>193</ele>
        <time>2018-10-12T08:36:31Z</time>
      </trkpt>
      <trkpt lat="45.95802" lon="4.75229">
        <ele>193</ele>
        <time>2018-10-12T08:36:32Z</time>
      </trkpt>
      <trkpt lat="45.95808" lon="4.75223">
        <ele>193</ele>
        <time>2018-10-12T08:36:33Z</time>
      </trkpt>
      <trkpt lat="45.95811" lon="4.75219">
        <ele>193</ele>
        <time>2018-10-12T08:36:34Z</time>
      </trkpt>
      <trkpt lat="45.95815" lon="4.75214">
        <ele>193</ele>
        <time>2018-10-12T08:36:35Z</time>
      </trkpt>
      <trkpt lat="45.95819" lon="4.75208">
        <ele>193</ele>
        <time>2018-10-12T08:36:36Z</time>
      </trkpt>
      <trkpt lat="45.95824" lon="4.75203">
        <ele>193</ele>
        <time>2018-10-12T08:36:37Z</time>
      </trkpt>
      <trkpt lat="45.95828" lon="4.75197">
        <ele>193</ele>
        <time>2018-10-12T08:36:38Z</time>
      </trkpt>
      <trkpt lat="45.95832" lon="4.75192">
        <ele>192</ele>
        <time>2018-10-12T08:36:39Z</time>
      </trkpt>
      <trkpt lat="45.95835" lon="4.75187">
        <ele>193</ele>
        <time>2018-10-12T08:36:40Z</time>
      </trkpt>
      <trkpt lat="45.95839" lon="4.75181">
        <ele>193</ele>
        <time>2018-10-12T08:36:41Z</time>
      </trkpt>
      <trkpt lat="45.95843" lon="4.75176">
        <ele>193</ele>
        <time>2018-10-12T08:36:42Z</time>
      </trkpt>
      <trkpt lat="45.95847" lon="4.7517">
        <ele>193</ele>
        <time>2018-10-12T08:36:43Z</time>
      </trkpt>
      <trkpt lat="45.9585" lon="4.75165">
        <ele>191</ele>
        <time>2018-10-12T08:36:44Z</time>
      </trkpt>
      <trkpt lat="45.95855" lon="4.7516">
        <ele>191</ele>
        <time>2018-10-12T08:36:45Z</time>
      </trkpt>
      <trkpt lat="45.9586" lon="4.75154">
        <ele>191</ele>
        <time>2018-10-12T08:36:46Z</time>
      </trkpt>
      <trkpt lat="45.95865" lon="4.75149">
        <ele>191</ele>
        <time>2018-10-12T08:36:47Z</time>
      </trkpt>
      <trkpt lat="45.9587" lon="4.75143">
        <ele>191</ele>
        <time>2018-10-12T08:36:48Z</time>
      </trkpt>
      <trkpt lat="45.95875" lon="4.75139">
        <ele>191</ele>
        <time>2018-10-12T08:36:49Z</time>
      </trkpt>
      <trkpt lat="45.95879" lon="4.75133">
        <ele>191</ele>
        <time>2018-10-12T08:36:50Z</time>
      </trkpt>
      <trkpt lat="45.95884" lon="4.75129">
        <ele>191</ele>
        <time>2018-10-12T08:36:51Z</time>
      </trkpt>
      <trkpt lat="45.9589" lon="4.75124">
        <ele>191</ele>
        <time>2018-10-12T08:36:52Z</time>
      </trkpt>
      <trkpt lat="45.95894" lon="4.7512">
        <ele>191</ele>
        <time>2018-10-12T08:36:53Z</time>
      </trkpt>
      <trkpt lat="45.959" lon="4.75115">
        <ele>191</ele>
        <time>2018-10-12T08:36:54Z</time>
      </trkpt>
      <trkpt lat="45.95906" lon="4.75111">
        <ele>191</ele>
        <time>2018-10-12T08:36:55Z</time>
      </trkpt>
      <trkpt lat="45.95912" lon="4.75108">
        <ele>191</ele>
        <time>2018-10-12T08:36:56Z</time>
      </trkpt>
      <trkpt lat="45.95918" lon="4.75104">
        <ele>192</ele>
        <time>2018-10-12T08:36:57Z</time>
      </trkpt>
      <trkpt lat="45.95925" lon="4.75101">
        <ele>192</ele>
        <time>2018-10-12T08:36:58Z</time>
      </trkpt>
      <trkpt lat="45.95932" lon="4.75099">
        <ele>192</ele>
        <time>2018-10-12T08:36:59Z</time>
      </trkpt>
      <trkpt lat="45.95938" lon="4.75095">
        <ele>192</ele>
        <time>2018-10-12T08:37:00Z</time>
      </trkpt>
      <trkpt lat="45.95945" lon="4.75093">
        <ele>193</ele>
        <time>2018-10-12T08:37:01Z</time>
      </trkpt>
      <trkpt lat="45.95952" lon="4.7509">
        <ele>193</ele>
        <time>2018-10-12T08:37:02Z</time>
      </trkpt>
      <trkpt lat="45.95959" lon="4.75086">
        <ele>193</ele>
        <time>2018-10-12T08:37:03Z</time>
      </trkpt>
      <trkpt lat="45.95964" lon="4.75083">
        <ele>191</ele>
        <time>2018-10-12T08:37:04Z</time>
      </trkpt>
      <trkpt lat="45.95971" lon="4.7508">
        <ele>191</ele>
        <time>2018-10-12T08:37:05Z</time>
      </trkpt>
      <trkpt lat="45.95978" lon="4.75077">
        <ele>192</ele>
        <time>2018-10-12T08:37:06Z</time>
      </trkpt>
      <trkpt lat="45.95986" lon="4.75074">
        <ele>192</ele>
        <time>2018-10-12T08:37:07Z</time>
      </trkpt>
      <trkpt lat="45.95994" lon="4.75071">
        <ele>193</ele>
        <time>2018-10-12T08:37:08Z</time>
      </trkpt>
      <trkpt lat="45.96002" lon="4.7507">
        <ele>192</ele>
        <time>2018-10-12T08:37:09Z</time>
      </trkpt>
      <trkpt lat="45.9601" lon="4.75068">
        <ele>192</ele>
        <time>2018-10-12T08:37:10Z</time>
      </trkpt>
      <trkpt lat="45.96016" lon="4.75064">
        <ele>191</ele>
        <time>2018-10-12T08:37:11Z</time>
      </trkpt>
      <trkpt lat="45.96023" lon="4.75061">
        <ele>190</ele>
        <time>2018-10-12T08:37:12Z</time>
      </trkpt>
      <trkpt lat="45.96031" lon="4.75058">
        <ele>190</ele>
        <time>2018-10-12T08:37:13Z</time>
      </trkpt>
      <trkpt lat="45.9604" lon="4.75059">
        <ele>189</ele>
        <time>2018-10-12T08:37:14Z</time>
      </trkpt>
      <trkpt lat="45.96048" lon="4.75058">
        <ele>189</ele>
        <time>2018-10-12T08:37:15Z</time>
      </trkpt>
      <trkpt lat="45.96055" lon="4.75059">
        <ele>189</ele>
        <time>2018-10-12T08:37:16Z</time>
      </trkpt>
      <trkpt lat="45.9606" lon="4.75059">
        <ele>189</ele>
        <time>2018-10-12T08:37:17Z</time>
      </trkpt>
      <trkpt lat="45.96067" lon="4.75062">
        <ele>189</ele>
        <time>2018-10-12T08:37:18Z</time>
      </trkpt>
      <trkpt lat="45.96075" lon="4.75064">
        <ele>189</ele>
        <time>2018-10-12T08:37:19Z</time>
      </trkpt>
      <trkpt lat="45.96082" lon="4.75068">
        <ele>190</ele>
        <time>2018-10-12T08:37:20Z</time>
      </trkpt>
      <trkpt lat="45.96089" lon="4.7507">
        <ele>186</ele>
        <time>2018-10-12T08:37:21Z</time>
      </trkpt>
      <trkpt lat="45.96097" lon="4.75077">
        <ele>186</ele>
        <time>2018-10-12T08:37:22Z</time>
      </trkpt>
      <trkpt lat="45.96102" lon="4.75084">
        <ele>190</ele>
        <time>2018-10-12T08:37:23Z</time>
      </trkpt>
      <trkpt lat="45.96108" lon="4.75088">
        <ele>190</ele>
        <time>2018-10-12T08:37:24Z</time>
      </trkpt>
      <trkpt lat="45.96113" lon="4.75095">
        <ele>190</ele>
        <time>2018-10-12T08:37:25Z</time>
      </trkpt>
      <trkpt lat="45.96118" lon="4.751">
        <ele>190</ele>
        <time>2018-10-12T08:37:26Z</time>
      </trkpt>
      <trkpt lat="45.96124" lon="4.75106">
        <ele>189</ele>
        <time>2018-10-12T08:37:27Z</time>
      </trkpt>
      <trkpt lat="45.9613" lon="4.75112">
        <ele>189</ele>
        <time>2018-10-12T08:37:28Z</time>
      </trkpt>
      <trkpt lat="45.96136" lon="4.75119">
        <ele>190</ele>
        <time>2018-10-12T08:37:29Z</time>
      </trkpt>
      <trkpt lat="45.96144" lon="4.75126">
        <ele>190</ele>
        <time>2018-10-12T08:37:30Z</time>
      </trkpt>
      <trkpt lat="45.96151" lon="4.75134">
        <ele>191</ele>
        <time>2018-10-12T08:37:31Z</time>
      </trkpt>
      <trkpt lat="45.96152" lon="4.75139">
        <ele>191</ele>
        <time>2018-10-12T08:37:32Z</time>
      </trkpt>
      <trkpt lat="45.96159" lon="4.75145">
        <ele>192</ele>
        <time>2018-10-12T08:37:33Z</time>
      </trkpt>
      <trkpt lat="45.96164" lon="4.7515">
        <ele>193</ele>
        <time>2018-10-12T08:37:34Z</time>
      </trkpt>
      <trkpt lat="45.96171" lon="4.75156">
        <ele>191</ele>
        <time>2018-10-12T08:37:35Z</time>
      </trkpt>
      <trkpt lat="45.96177" lon="4.75162">
        <ele>191</ele>
        <time>2018-10-12T08:37:36Z</time>
      </trkpt>
      <trkpt lat="45.96182" lon="4.75167">
        <ele>190</ele>
        <time>2018-10-12T08:37:37Z</time>
      </trkpt>
      <trkpt lat="45.96186" lon="4.75172">
        <ele>195</ele>
        <time>2018-10-12T08:37:38Z</time>
      </trkpt>
      <trkpt lat="45.96193" lon="4.75177">
        <ele>195</ele>
        <time>2018-10-12T08:37:39Z</time>
      </trkpt>
      <trkpt lat="45.96198" lon="4.7518">
        <ele>195</ele>
        <time>2018-10-12T08:37:40Z</time>
      </trkpt>
      <trkpt lat="45.96205" lon="4.75184">
        <ele>194</ele>
        <time>2018-10-12T08:37:41Z</time>
      </trkpt>
      <trkpt lat="45.96209" lon="4.75188">
        <ele>194</ele>
        <time>2018-10-12T08:37:42Z</time>
      </trkpt>
      <trkpt lat="45.96216" lon="4.75192">
        <ele>194</ele>
        <time>2018-10-12T08:37:43Z</time>
      </trkpt>
      <trkpt lat="45.96224" lon="4.75196">
        <ele>193</ele>
        <time>2018-10-12T08:37:44Z</time>
      </trkpt>
      <trkpt lat="45.9623" lon="4.75199">
        <ele>193</ele>
        <time>2018-10-12T08:37:45Z</time>
      </trkpt>
      <trkpt lat="45.96236" lon="4.75201">
        <ele>193</ele>
        <time>2018-10-12T08:37:46Z</time>
      </trkpt>
      <trkpt lat="45.96244" lon="4.75206">
        <ele>193</ele>
        <time>2018-10-12T08:37:47Z</time>
      </trkpt>
      <trkpt lat="45.96252" lon="4.7521">
        <ele>187</ele>
        <time>2018-10-12T08:37:48Z</time>
      </trkpt>
      <trkpt lat="45.96259" lon="4.75212">
        <ele>187</ele>
        <time>2018-10-12T08:37:49Z</time>
      </trkpt>
      <trkpt lat="45.96266" lon="4.75215">
        <ele>187</ele>
        <time>2018-10-12T08:37:50Z</time>
      </trkpt>
      <trkpt lat="45.96272" lon="4.75217">
        <ele>187</ele>
        <time>2018-10-12T08:37:51Z</time>
      </trkpt>
      <trkpt lat="45.96279" lon="4.7522">
        <ele>187</ele>
        <time>2018-10-12T08:37:52Z</time>
      </trkpt>
      <trkpt lat="45.96286" lon="4.75222">
        <ele>186</ele>
        <time>2018-10-12T08:37:53Z</time>
      </trkpt>
      <trkpt lat="45.96291" lon="4.75225">
        <ele>186</ele>
        <time>2018-10-12T08:37:54Z</time>
      </trkpt>
      <trkpt lat="45.96298" lon="4.75227">
        <ele>186</ele>
        <time>2018-10-12T08:37:55Z</time>
      </trkpt>
      <trkpt lat="45.96305" lon="4.75228">
        <ele>186</ele>
        <time>2018-10-12T08:37:56Z</time>
      </trkpt>
      <trkpt lat="45.96312" lon="4.75231">
        <ele>186</ele>
        <time>2018-10-12T08:37:57Z</time>
      </trkpt>
      <trkpt lat="45.9632" lon="4.75234">
        <ele>186</ele>
        <time>2018-10-12T08:37:58Z</time>
      </trkpt>
      <trkpt lat="45.96332" lon="4.75238">
        <ele>187</ele>
        <time>2018-10-12T08:37:59Z</time>
      </trkpt>
      <trkpt lat="45.9634" lon="4.75241">
        <ele>184</ele>
        <time>2018-10-12T08:38:00Z</time>
      </trkpt>
      <trkpt lat="45.96348" lon="4.75243">
        <ele>183</ele>
        <time>2018-10-12T08:38:01Z</time>
      </trkpt>
      <trkpt lat="45.96352" lon="4.75246">
        <ele>183</ele>
        <time>2018-10-12T08:38:02Z</time>
      </trkpt>
      <trkpt lat="45.96359" lon="4.75247">
        <ele>182</ele>
        <time>2018-10-12T08:38:03Z</time>
      </trkpt>
      <trkpt lat="45.96366" lon="4.75249">
        <ele>181</ele>
        <time>2018-10-12T08:38:04Z</time>
      </trkpt>
      <trkpt lat="45.96373" lon="4.75251">
        <ele>193</ele>
        <time>2018-10-12T08:38:05Z</time>
      </trkpt>
      <trkpt lat="45.9638" lon="4.75254">
        <ele>192</ele>
        <time>2018-10-12T08:38:06Z</time>
      </trkpt>
      <trkpt lat="45.96386" lon="4.75256">
        <ele>192</ele>
        <time>2018-10-12T08:38:07Z</time>
      </trkpt>
      <trkpt lat="45.9639" lon="4.7526">
        <ele>192</ele>
        <time>2018-10-12T08:38:08Z</time>
      </trkpt>
      <trkpt lat="45.96397" lon="4.75265">
        <ele>191</ele>
        <time>2018-10-12T08:38:09Z</time>
      </trkpt>
      <trkpt lat="45.96401" lon="4.75268">
        <ele>191</ele>
        <time>2018-10-12T08:38:10Z</time>
      </trkpt>
      <trkpt lat="45.96411" lon="4.75272">
        <ele>191</ele>
        <time>2018-10-12T08:38:11Z</time>
      </trkpt>
      <trkpt lat="45.96419" lon="4.75277">
        <ele>186</ele>
        <time>2018-10-12T08:38:12Z</time>
      </trkpt>
      <trkpt lat="45.96424" lon="4.75279">
        <ele>187</ele>
        <time>2018-10-12T08:38:13Z</time>
      </trkpt>
      <trkpt lat="45.96432" lon="4.75284">
        <ele>187</ele>
        <time>2018-10-12T08:38:14Z</time>
      </trkpt>
      <trkpt lat="45.96439" lon="4.75288">
        <ele>187</ele>
        <time>2018-10-12T08:38:15Z</time>
      </trkpt>
      <trkpt lat="45.96446" lon="4.75292">
        <ele>187</ele>
        <time>2018-10-12T08:38:16Z</time>
      </trkpt>
      <trkpt lat="45.96454" lon="4.75296">
        <ele>187</ele>
        <time>2018-10-12T08:38:17Z</time>
      </trkpt>
      <trkpt lat="45.96461" lon="4.75299">
        <ele>187</ele>
        <time>2018-10-12T08:38:18Z</time>
      </trkpt>
      <trkpt lat="45.96469" lon="4.75302">
        <ele>187</ele>
        <time>2018-10-12T08:38:19Z</time>
      </trkpt>
      <trkpt lat="45.96477" lon="4.75307">
        <ele>186</ele>
        <time>2018-10-12T08:38:20Z</time>
      </trkpt>
      <trkpt lat="45.96487" lon="4.75312">
        <ele>187</ele>
        <time>2018-10-12T08:38:21Z</time>
      </trkpt>
      <trkpt lat="45.96493" lon="4.75317">
        <ele>187</ele>
        <time>2018-10-12T08:38:23Z</time>
      </trkpt>
      <trkpt lat="45.96498" lon="4.7532">
        <ele>187</ele>
        <time>2018-10-12T08:38:24Z</time>
      </trkpt>
      <trkpt lat="45.96503" lon="4.75323">
        <ele>183</ele>
        <time>2018-10-12T08:38:25Z</time>
      </trkpt>
      <trkpt lat="45.96509" lon="4.75326">
        <ele>183</ele>
        <time>2018-10-12T08:38:26Z</time>
      </trkpt>
      <trkpt lat="45.96516" lon="4.75329">
        <ele>182</ele>
        <time>2018-10-12T08:38:27Z</time>
      </trkpt>
      <trkpt lat="45.96523" lon="4.75332">
        <ele>180</ele>
        <time>2018-10-12T08:38:28Z</time>
      </trkpt>
      <trkpt lat="45.96528" lon="4.75336">
        <ele>191</ele>
        <time>2018-10-12T08:38:29Z</time>
      </trkpt>
      <trkpt lat="45.96533" lon="4.7534">
        <ele>191</ele>
        <time>2018-10-12T08:38:30Z</time>
      </trkpt>
      <trkpt lat="45.96538" lon="4.75344">
        <ele>191</ele>
        <time>2018-10-12T08:38:31Z</time>
      </trkpt>
      <trkpt lat="45.96546" lon="4.75349">
        <ele>190</ele>
        <time>2018-10-12T08:38:32Z</time>
      </trkpt>
      <trkpt lat="45.96552" lon="4.75353">
        <ele>190</ele>
        <time>2018-10-12T08:38:33Z</time>
      </trkpt>
      <trkpt lat="45.96559" lon="4.75357">
        <ele>189</ele>
        <time>2018-10-12T08:38:34Z</time>
      </trkpt>
      <trkpt lat="45.96567" lon="4.75362">
        <ele>190</ele>
        <time>2018-10-12T08:38:35Z</time>
      </trkpt>
      <trkpt lat="45.96574" lon="4.75366">
        <ele>190</ele>
        <time>2018-10-12T08:38:36Z</time>
      </trkpt>
      <trkpt lat="45.96579" lon="4.75369">
        <ele>190</ele>
        <time>2018-10-12T08:38:37Z</time>
      </trkpt>
      <trkpt lat="45.96586" lon="4.75373">
        <ele>182</ele>
        <time>2018-10-12T08:38:38Z</time>
      </trkpt>
      <trkpt lat="45.96592" lon="4.75376">
        <ele>182</ele>
        <time>2018-10-12T08:38:39Z</time>
      </trkpt>
      <trkpt lat="45.96598" lon="4.75381">
        <ele>183</ele>
        <time>2018-10-12T08:38:40Z</time>
      </trkpt>
      <trkpt lat="45.96603" lon="4.75384">
        <ele>183</ele>
        <time>2018-10-12T08:38:41Z</time>
      </trkpt>
      <trkpt lat="45.96609" lon="4.75387">
        <ele>183</ele>
        <time>2018-10-12T08:38:42Z</time>
      </trkpt>
      <trkpt lat="45.96615" lon="4.7539">
        <ele>182</ele>
        <time>2018-10-12T08:38:43Z</time>
      </trkpt>
      <trkpt lat="45.9662" lon="4.75393">
        <ele>182</ele>
        <time>2018-10-12T08:38:44Z</time>
      </trkpt>
      <trkpt lat="45.96626" lon="4.75397">
        <ele>181</ele>
        <time>2018-10-12T08:38:45Z</time>
      </trkpt>
      <trkpt lat="45.96631" lon="4.75399">
        <ele>181</ele>
        <time>2018-10-12T08:38:46Z</time>
      </trkpt>
      <trkpt lat="45.96636" lon="4.75402">
        <ele>180</ele>
        <time>2018-10-12T08:38:47Z</time>
      </trkpt>
      <trkpt lat="45.96642" lon="4.75404">
        <ele>179</ele>
        <time>2018-10-12T08:38:48Z</time>
      </trkpt>
      <trkpt lat="45.96647" lon="4.75408">
        <ele>179</ele>
        <time>2018-10-12T08:38:49Z</time>
      </trkpt>
      <trkpt lat="45.96655" lon="4.75411">
        <ele>178</ele>
        <time>2018-10-12T08:38:50Z</time>
      </trkpt>
      <trkpt lat="45.9666" lon="4.75414">
        <ele>177</ele>
        <time>2018-10-12T08:38:51Z</time>
      </trkpt>
      <trkpt lat="45.96666" lon="4.75417">
        <ele>177</ele>
        <time>2018-10-12T08:38:52Z</time>
      </trkpt>
      <trkpt lat="45.96671" lon="4.7542">
        <ele>177</ele>
        <time>2018-10-12T08:38:53Z</time>
      </trkpt>
      <trkpt lat="45.96676" lon="4.75424">
        <ele>178</ele>
        <time>2018-10-12T08:38:54Z</time>
      </trkpt>
      <trkpt lat="45.96682" lon="4.75427">
        <ele>179</ele>
        <time>2018-10-12T08:38:55Z</time>
      </trkpt>
      <trkpt lat="45.96688" lon="4.7543">
        <ele>180</ele>
        <time>2018-10-12T08:38:56Z</time>
      </trkpt>
      <trkpt lat="45.96694" lon="4.75433">
        <ele>180</ele>
        <time>2018-10-12T08:38:57Z</time>
      </trkpt>
      <trkpt lat="45.967" lon="4.75436">
        <ele>180</ele>
        <time>2018-10-12T08:38:58Z</time>
      </trkpt>
      <trkpt lat="45.96705" lon="4.75439">
        <ele>180</ele>
        <time>2018-10-12T08:38:59Z</time>
      </trkpt>
      <trkpt lat="45.96711" lon="4.75443">
        <ele>180</ele>
        <time>2018-10-12T08:39:00Z</time>
      </trkpt>
      <trkpt lat="45.96717" lon="4.75446">
        <ele>180</ele>
        <time>2018-10-12T08:39:01Z</time>
      </trkpt>
      <trkpt lat="45.96722" lon="4.7545">
        <ele>180</ele>
        <time>2018-10-12T08:39:02Z</time>
      </trkpt>
      <trkpt lat="45.96728" lon="4.75453">
        <ele>180</ele>
        <time>2018-10-12T08:39:03Z</time>
      </trkpt>
      <trkpt lat="45.96733" lon="4.75456">
        <ele>180</ele>
        <time>2018-10-12T08:39:04Z</time>
      </trkpt>
      <trkpt lat="45.96738" lon="4.7546">
        <ele>181</ele>
        <time>2018-10-12T08:39:05Z</time>
      </trkpt>
      <trkpt lat="45.96744" lon="4.75463">
        <ele>181</ele>
        <time>2018-10-12T08:39:06Z</time>
      </trkpt>
      <trkpt lat="45.96749" lon="4.75466">
        <ele>181</ele>
        <time>2018-10-12T08:39:07Z</time>
      </trkpt>
      <trkpt lat="45.96755" lon="4.75471">
        <ele>176</ele>
        <time>2018-10-12T08:39:08Z</time>
      </trkpt>
      <trkpt lat="45.96761" lon="4.75474">
        <ele>176</ele>
        <time>2018-10-12T08:39:09Z</time>
      </trkpt>
      <trkpt lat="45.96768" lon="4.75476">
        <ele>176</ele>
        <time>2018-10-12T08:39:10Z</time>
      </trkpt>
      <trkpt lat="45.96773" lon="4.75478">
        <ele>176</ele>
        <time>2018-10-12T08:39:11Z</time>
      </trkpt>
      <trkpt lat="45.96779" lon="4.75481">
        <ele>176</ele>
        <time>2018-10-12T08:39:12Z</time>
      </trkpt>
      <trkpt lat="45.96784" lon="4.75483">
        <ele>175</ele>
        <time>2018-10-12T08:39:13Z</time>
      </trkpt>
      <trkpt lat="45.96789" lon="4.75485">
        <ele>175</ele>
        <time>2018-10-12T08:39:14Z</time>
      </trkpt>
      <trkpt lat="45.96794" lon="4.75488">
        <ele>175</ele>
        <time>2018-10-12T08:39:15Z</time>
      </trkpt>
      <trkpt lat="45.968" lon="4.7549">
        <ele>175</ele>
        <time>2018-10-12T08:39:16Z</time>
      </trkpt>
      <trkpt lat="45.96805" lon="4.75493">
        <ele>174</ele>
        <time>2018-10-12T08:39:17Z</time>
      </trkpt>
      <trkpt lat="45.96811" lon="4.75496">
        <ele>174</ele>
        <time>2018-10-12T08:39:18Z</time>
      </trkpt>
      <trkpt lat="45.96818" lon="4.75498">
        <ele>174</ele>
        <time>2018-10-12T08:39:19Z</time>
      </trkpt>
      <trkpt lat="45.96824" lon="4.75499">
        <ele>174</ele>
        <time>2018-10-12T08:39:20Z</time>
      </trkpt>
      <trkpt lat="45.96829" lon="4.75499">
        <ele>174</ele>
        <time>2018-10-12T08:39:21Z</time>
      </trkpt>
      <trkpt lat="45.96836" lon="4.75502">
        <ele>175</ele>
        <time>2018-10-12T08:39:23Z</time>
      </trkpt>
      <trkpt lat="45.96841" lon="4.75503">
        <ele>176</ele>
        <time>2018-10-12T08:39:24Z</time>
      </trkpt>
      <trkpt lat="45.96845" lon="4.75505">
        <ele>177</ele>
        <time>2018-10-12T08:39:25Z</time>
      </trkpt>
      <trkpt lat="45.9685" lon="4.75506">
        <ele>178</ele>
        <time>2018-10-12T08:39:26Z</time>
      </trkpt>
      <trkpt lat="45.96855" lon="4.75508">
        <ele>178</ele>
        <time>2018-10-12T08:39:27Z</time>
      </trkpt>
      <trkpt lat="45.9686" lon="4.7551">
        <ele>179</ele>
        <time>2018-10-12T08:39:28Z</time>
      </trkpt>
      <trkpt lat="45.96865" lon="4.75513">
        <ele>179</ele>
        <time>2018-10-12T08:39:29Z</time>
      </trkpt>
      <trkpt lat="45.9687" lon="4.75515">
        <ele>179</ele>
        <time>2018-10-12T08:39:30Z</time>
      </trkpt>
      <trkpt lat="45.96875" lon="4.75517">
        <ele>179</ele>
        <time>2018-10-12T08:39:31Z</time>
      </trkpt>
      <trkpt lat="45.96882" lon="4.75519">
        <ele>179</ele>
        <time>2018-10-12T08:39:32Z</time>
      </trkpt>
      <trkpt lat="45.96888" lon="4.75522">
        <ele>179</ele>
        <time>2018-10-12T08:39:33Z</time>
      </trkpt>
      <trkpt lat="45.96893" lon="4.75525">
        <ele>179</ele>
        <time>2018-10-12T08:39:34Z</time>
      </trkpt>
      <trkpt lat="45.96899" lon="4.75527">
        <ele>179</ele>
        <time>2018-10-12T08:39:35Z</time>
      </trkpt>
      <trkpt lat="45.96906" lon="4.75529">
        <ele>179</ele>
        <time>2018-10-12T08:39:36Z</time>
      </trkpt>
      <trkpt lat="45.96912" lon="4.75531">
        <ele>179</ele>
        <time>2018-10-12T08:39:37Z</time>
      </trkpt>
      <trkpt lat="45.96918" lon="4.75533">
        <ele>175</ele>
        <time>2018-10-12T08:39:38Z</time>
      </trkpt>
      <trkpt lat="45.96923" lon="4.75535">
        <ele>175</ele>
        <time>2018-10-12T08:39:39Z</time>
      </trkpt>
      <trkpt lat="45.96928" lon="4.75536">
        <ele>175</ele>
        <time>2018-10-12T08:39:40Z</time>
      </trkpt>
      <trkpt lat="45.96932" lon="4.75539">
        <ele>175</ele>
        <time>2018-10-12T08:39:41Z</time>
      </trkpt>
      <trkpt lat="45.96936" lon="4.7554">
        <ele>175</ele>
        <time>2018-10-12T08:39:42Z</time>
      </trkpt>
      <trkpt lat="45.96944" lon="4.75542">
        <ele>175</ele>
        <time>2018-10-12T08:39:44Z</time>
      </trkpt>
      <trkpt lat="45.9695" lon="4.75545">
        <ele>175</ele>
        <time>2018-10-12T08:39:45Z</time>
      </trkpt>
      <trkpt lat="45.96955" lon="4.75547">
        <ele>175</ele>
        <time>2018-10-12T08:39:46Z</time>
      </trkpt>
      <trkpt lat="45.9696" lon="4.7555">
        <ele>175</ele>
        <time>2018-10-12T08:39:47Z</time>
      </trkpt>
      <trkpt lat="45.96966" lon="4.75551">
        <ele>175</ele>
        <time>2018-10-12T08:39:48Z</time>
      </trkpt>
      <trkpt lat="45.96972" lon="4.75553">
        <ele>176</ele>
        <time>2018-10-12T08:39:49Z</time>
      </trkpt>
      <trkpt lat="45.96977" lon="4.75555">
        <ele>176</ele>
        <time>2018-10-12T08:39:50Z</time>
      </trkpt>
      <trkpt lat="45.96984" lon="4.75557">
        <ele>176</ele>
        <time>2018-10-12T08:39:51Z</time>
      </trkpt>
      <trkpt lat="45.96989" lon="4.7556">
        <ele>176</ele>
        <time>2018-10-12T08:39:52Z</time>
      </trkpt>
      <trkpt lat="45.96994" lon="4.75562">
        <ele>177</ele>
        <time>2018-10-12T08:39:53Z</time>
      </trkpt>
      <trkpt lat="45.97" lon="4.75564">
        <ele>177</ele>
        <time>2018-10-12T08:39:54Z</time>
      </trkpt>
      <trkpt lat="45.97005" lon="4.75567">
        <ele>176</ele>
        <time>2018-10-12T08:39:55Z</time>
      </trkpt>
      <trkpt lat="45.97012" lon="4.75569">
        <ele>176</ele>
        <time>2018-10-12T08:39:56Z</time>
      </trkpt>
      <trkpt lat="45.97019" lon="4.75573">
        <ele>175</ele>
        <time>2018-10-12T08:39:57Z</time>
      </trkpt>
      <trkpt lat="45.97025" lon="4.75576">
        <ele>175</ele>
        <time>2018-10-12T08:39:58Z</time>
      </trkpt>
      <trkpt lat="45.97031" lon="4.75578">
        <ele>174</ele>
        <time>2018-10-12T08:39:59Z</time>
      </trkpt>
      <trkpt lat="45.97038" lon="4.75582">
        <ele>174</ele>
        <time>2018-10-12T08:40:00Z</time>
      </trkpt>
      <trkpt lat="45.97044" lon="4.75583">
        <ele>181</ele>
        <time>2018-10-12T08:40:01Z</time>
      </trkpt>
      <trkpt lat="45.97049" lon="4.75586">
        <ele>181</ele>
        <time>2018-10-12T08:40:02Z</time>
      </trkpt>
      <trkpt lat="45.97056" lon="4.75589">
        <ele>180</ele>
        <time>2018-10-12T08:40:03Z</time>
      </trkpt>
      <trkpt lat="45.97062" lon="4.7559">
        <ele>180</ele>
        <time>2018-10-12T08:40:04Z</time>
      </trkpt>
      <trkpt lat="45.97065" lon="4.75595">
        <ele>180</ele>
        <time>2018-10-12T08:40:05Z</time>
      </trkpt>
      <trkpt lat="45.9707" lon="4.75598">
        <ele>179</ele>
        <time>2018-10-12T08:40:06Z</time>
      </trkpt>
      <trkpt lat="45.97078" lon="4.75601">
        <ele>179</ele>
        <time>2018-10-12T08:40:07Z</time>
      </trkpt>
      <trkpt lat="45.97084" lon="4.75604">
        <ele>176</ele>
        <time>2018-10-12T08:40:08Z</time>
      </trkpt>
      <trkpt lat="45.97091" lon="4.75606">
        <ele>176</ele>
        <time>2018-10-12T08:40:09Z</time>
      </trkpt>
      <trkpt lat="45.97097" lon="4.75608">
        <ele>176</ele>
        <time>2018-10-12T08:40:10Z</time>
      </trkpt>
      <trkpt lat="45.97103" lon="4.75612">
        <ele>177</ele>
        <time>2018-10-12T08:40:11Z</time>
      </trkpt>
      <trkpt lat="45.9711" lon="4.75616">
        <ele>177</ele>
        <time>2018-10-12T08:40:12Z</time>
      </trkpt>
      <trkpt lat="45.97116" lon="4.75619">
        <ele>177</ele>
        <time>2018-10-12T08:40:13Z</time>
      </trkpt>
      <trkpt lat="45.97122" lon="4.75621">
        <ele>177</ele>
        <time>2018-10-12T08:40:14Z</time>
      </trkpt>
      <trkpt lat="45.97128" lon="4.75625">
        <ele>177</ele>
        <time>2018-10-12T08:40:15Z</time>
      </trkpt>
      <trkpt lat="45.97134" lon="4.75627">
        <ele>177</ele>
        <time>2018-10-12T08:40:16Z</time>
      </trkpt>
      <trkpt lat="45.9714" lon="4.7563">
        <ele>177</ele>
        <time>2018-10-12T08:40:17Z</time>
      </trkpt>
      <trkpt lat="45.97145" lon="4.75632">
        <ele>177</ele>
        <time>2018-10-12T08:40:18Z</time>
      </trkpt>
      <trkpt lat="45.9715" lon="4.75633">
        <ele>177</ele>
        <time>2018-10-12T08:40:19Z</time>
      </trkpt>
      <trkpt lat="45.97155" lon="4.75635">
        <ele>177</ele>
        <time>2018-10-12T08:40:20Z</time>
      </trkpt>
      <trkpt lat="45.97161" lon="4.75637">
        <ele>177</ele>
        <time>2018-10-12T08:40:21Z</time>
      </trkpt>
      <trkpt lat="45.97166" lon="4.75639">
        <ele>177</ele>
        <time>2018-10-12T08:40:22Z</time>
      </trkpt>
      <trkpt lat="45.9717" lon="4.75642">
        <ele>174</ele>
        <time>2018-10-12T08:40:23Z</time>
      </trkpt>
      <trkpt lat="45.97178" lon="4.75647">
        <ele>174</ele>
        <time>2018-10-12T08:40:25Z</time>
      </trkpt>
      <trkpt lat="45.97183" lon="4.7565">
        <ele>174</ele>
        <time>2018-10-12T08:40:26Z</time>
      </trkpt>
      <trkpt lat="45.97189" lon="4.75652">
        <ele>174</ele>
        <time>2018-10-12T08:40:27Z</time>
      </trkpt>
      <trkpt lat="45.97195" lon="4.75654">
        <ele>174</ele>
        <time>2018-10-12T08:40:28Z</time>
      </trkpt>
      <trkpt lat="45.97201" lon="4.75657">
        <ele>174</ele>
        <time>2018-10-12T08:40:29Z</time>
      </trkpt>
      <trkpt lat="45.97208" lon="4.7566">
        <ele>174</ele>
        <time>2018-10-12T08:40:30Z</time>
      </trkpt>
      <trkpt lat="45.97214" lon="4.75663">
        <ele>173</ele>
        <time>2018-10-12T08:40:31Z</time>
      </trkpt>
      <trkpt lat="45.97221" lon="4.75665">
        <ele>173</ele>
        <time>2018-10-12T08:40:32Z</time>
      </trkpt>
      <trkpt lat="45.97227" lon="4.75667">
        <ele>177</ele>
        <time>2018-10-12T08:40:33Z</time>
      </trkpt>
      <trkpt lat="45.97231" lon="4.75669">
        <ele>176</ele>
        <time>2018-10-12T08:40:34Z</time>
      </trkpt>
      <trkpt lat="45.97237" lon="4.7567">
        <ele>176</ele>
        <time>2018-10-12T08:40:35Z</time>
      </trkpt>
      <trkpt lat="45.97243" lon="4.75672">
        <ele>175</ele>
        <time>2018-10-12T08:40:36Z</time>
      </trkpt>
      <trkpt lat="45.97248" lon="4.75673">
        <ele>175</ele>
        <time>2018-10-12T08:40:37Z</time>
      </trkpt>
      <trkpt lat="45.97253" lon="4.75674">
        <ele>175</ele>
        <time>2018-10-12T08:40:38Z</time>
      </trkpt>
      <trkpt lat="45.97259" lon="4.75676">
        <ele>175</ele>
        <time>2018-10-12T08:40:39Z</time>
      </trkpt>
      <trkpt lat="45.97264" lon="4.75676">
        <ele>175</ele>
        <time>2018-10-12T08:40:40Z</time>
      </trkpt>
      <trkpt lat="45.97269" lon="4.75678">
        <ele>176</ele>
        <time>2018-10-12T08:40:41Z</time>
      </trkpt>
      <trkpt lat="45.97275" lon="4.7568">
        <ele>176</ele>
        <time>2018-10-12T08:40:42Z</time>
      </trkpt>
      <trkpt lat="45.97281" lon="4.75681">
        <ele>176</ele>
        <time>2018-10-12T08:40:43Z</time>
      </trkpt>
      <trkpt lat="45.97287" lon="4.75682">
        <ele>176</ele>
        <time>2018-10-12T08:40:44Z</time>
      </trkpt>
      <trkpt lat="45.97293" lon="4.75683">
        <ele>176</ele>
        <time>2018-10-12T08:40:45Z</time>
      </trkpt>
      <trkpt lat="45.97299" lon="4.75684">
        <ele>177</ele>
        <time>2018-10-12T08:40:46Z</time>
      </trkpt>
      <trkpt lat="45.97306" lon="4.75685">
        <ele>177</ele>
        <time>2018-10-12T08:40:47Z</time>
      </trkpt>
      <trkpt lat="45.97312" lon="4.75686">
        <ele>177</ele>
        <time>2018-10-12T08:40:48Z</time>
      </trkpt>
      <trkpt lat="45.97318" lon="4.75687">
        <ele>177</ele>
        <time>2018-10-12T08:40:49Z</time>
      </trkpt>
      <trkpt lat="45.97325" lon="4.75688">
        <ele>177</ele>
        <time>2018-10-12T08:40:50Z</time>
      </trkpt>
      <trkpt lat="45.97332" lon="4.75689">
        <ele>177</ele>
        <time>2018-10-12T08:40:51Z</time>
      </trkpt>
      <trkpt lat="45.97339" lon="4.75689">
        <ele>175</ele>
        <time>2018-10-12T08:40:52Z</time>
      </trkpt>
      <trkpt lat="45.97345" lon="4.7569">
        <ele>175</ele>
        <time>2018-10-12T08:40:53Z</time>
      </trkpt>
      <trkpt lat="45.97352" lon="4.75691">
        <ele>175</ele>
        <time>2018-10-12T08:40:54Z</time>
      </trkpt>
      <trkpt lat="45.97359" lon="4.75691">
        <ele>174</ele>
        <time>2018-10-12T08:40:55Z</time>
      </trkpt>
      <trkpt lat="45.97365" lon="4.75692">
        <ele>174</ele>
        <time>2018-10-12T08:40:56Z</time>
      </trkpt>
      <trkpt lat="45.97373" lon="4.75693">
        <ele>174</ele>
        <time>2018-10-12T08:40:57Z</time>
      </trkpt>
      <trkpt lat="45.97379" lon="4.75693">
        <ele>174</ele>
        <time>2018-10-12T08:40:58Z</time>
      </trkpt>
      <trkpt lat="45.97385" lon="4.75693">
        <ele>173</ele>
        <time>2018-10-12T08:40:59Z</time>
      </trkpt>
      <trkpt lat="45.97391" lon="4.75693">
        <ele>173</ele>
        <time>2018-10-12T08:41:00Z</time>
      </trkpt>
      <trkpt lat="45.97396" lon="4.75693">
        <ele>173</ele>
        <time>2018-10-12T08:41:01Z</time>
      </trkpt>
      <trkpt lat="45.97401" lon="4.75692">
        <ele>172</ele>
        <time>2018-10-12T08:41:02Z</time>
      </trkpt>
      <trkpt lat="45.97408" lon="4.75693">
        <ele>172</ele>
        <time>2018-10-12T08:41:03Z</time>
      </trkpt>
      <trkpt lat="45.97414" lon="4.75693">
        <ele>172</ele>
        <time>2018-10-12T08:41:04Z</time>
      </trkpt>
      <trkpt lat="45.97419" lon="4.75692">
        <ele>170</ele>
        <time>2018-10-12T08:41:05Z</time>
      </trkpt>
      <trkpt lat="45.97425" lon="4.75692">
        <ele>170</ele>
        <time>2018-10-12T08:41:06Z</time>
      </trkpt>
      <trkpt lat="45.97431" lon="4.75692">
        <ele>170</ele>
        <time>2018-10-12T08:41:07Z</time>
      </trkpt>
      <trkpt lat="45.97437" lon="4.75691">
        <ele>170</ele>
        <time>2018-10-12T08:41:08Z</time>
      </trkpt>
      <trkpt lat="45.97442" lon="4.75691">
        <ele>171</ele>
        <time>2018-10-12T08:41:09Z</time>
      </trkpt>
      <trkpt lat="45.97448" lon="4.75691">
        <ele>171</ele>
        <time>2018-10-12T08:41:10Z</time>
      </trkpt>
      <trkpt lat="45.97453" lon="4.75691">
        <ele>171</ele>
        <time>2018-10-12T08:41:11Z</time>
      </trkpt>
      <trkpt lat="45.97459" lon="4.75691">
        <ele>171</ele>
        <time>2018-10-12T08:41:12Z</time>
      </trkpt>
      <trkpt lat="45.97465" lon="4.7569">
        <ele>171</ele>
        <time>2018-10-12T08:41:13Z</time>
      </trkpt>
      <trkpt lat="45.97471" lon="4.7569">
        <ele>171</ele>
        <time>2018-10-12T08:41:14Z</time>
      </trkpt>
      <trkpt lat="45.97476" lon="4.7569">
        <ele>171</ele>
        <time>2018-10-12T08:41:15Z</time>
      </trkpt>
      <trkpt lat="45.97482" lon="4.75689">
        <ele>171</ele>
        <time>2018-10-12T08:41:16Z</time>
      </trkpt>
      <trkpt lat="45.97487" lon="4.75686">
        <ele>171</ele>
        <time>2018-10-12T08:41:17Z</time>
      </trkpt>
      <trkpt lat="45.97493" lon="4.75685">
        <ele>171</ele>
        <time>2018-10-12T08:41:18Z</time>
      </trkpt>
      <trkpt lat="45.97497" lon="4.75684">
        <ele>171</ele>
        <time>2018-10-12T08:41:19Z</time>
      </trkpt>
      <trkpt lat="45.97503" lon="4.7568">
        <ele>171</ele>
        <time>2018-10-12T08:41:20Z</time>
      </trkpt>
      <trkpt lat="45.97509" lon="4.75678">
        <ele>171</ele>
        <time>2018-10-12T08:41:21Z</time>
      </trkpt>
      <trkpt lat="45.97515" lon="4.75676">
        <ele>171</ele>
        <time>2018-10-12T08:41:22Z</time>
      </trkpt>
      <trkpt lat="45.97521" lon="4.75672">
        <ele>171</ele>
        <time>2018-10-12T08:41:23Z</time>
      </trkpt>
      <trkpt lat="45.97526" lon="4.75669">
        <ele>171</ele>
        <time>2018-10-12T08:41:24Z</time>
      </trkpt>
      <trkpt lat="45.9753" lon="4.75666">
        <ele>169</ele>
        <time>2018-10-12T08:41:25Z</time>
      </trkpt>
      <trkpt lat="45.97536" lon="4.75666">
        <ele>169</ele>
        <time>2018-10-12T08:41:26Z</time>
      </trkpt>
      <trkpt lat="45.97541" lon="4.75668">
        <ele>171</ele>
        <time>2018-10-12T08:41:27Z</time>
      </trkpt>
      <trkpt lat="45.97545" lon="4.75671">
        <ele>171</ele>
        <time>2018-10-12T08:41:28Z</time>
      </trkpt>
      <trkpt lat="45.97548" lon="4.75675">
        <ele>171</ele>
        <time>2018-10-12T08:41:29Z</time>
      </trkpt>
      <trkpt lat="45.97551" lon="4.75681">
        <ele>171</ele>
        <time>2018-10-12T08:41:30Z</time>
      </trkpt>
      <trkpt lat="45.97557" lon="4.75691">
        <ele>172</ele>
        <time>2018-10-12T08:41:32Z</time>
      </trkpt>
      <trkpt lat="45.97562" lon="4.75693">
        <ele>172</ele>
        <time>2018-10-12T08:41:33Z</time>
      </trkpt>
      <trkpt lat="45.97567" lon="4.75693">
        <ele>172</ele>
        <time>2018-10-12T08:41:34Z</time>
      </trkpt>
      <trkpt lat="45.97572" lon="4.75692">
        <ele>172</ele>
        <time>2018-10-12T08:41:35Z</time>
      </trkpt>
      <trkpt lat="45.97576" lon="4.75691">
        <ele>172</ele>
        <time>2018-10-12T08:41:36Z</time>
      </trkpt>
      <trkpt lat="45.97581" lon="4.75691">
        <ele>172</ele>
        <time>2018-10-12T08:41:37Z</time>
      </trkpt>
      <trkpt lat="45.97586" lon="4.75691">
        <ele>171</ele>
        <time>2018-10-12T08:41:38Z</time>
      </trkpt>
      <trkpt lat="45.97591" lon="4.75689">
        <ele>171</ele>
        <time>2018-10-12T08:41:39Z</time>
      </trkpt>
      <trkpt lat="45.97596" lon="4.75687">
        <ele>171</ele>
        <time>2018-10-12T08:41:40Z</time>
      </trkpt>
      <trkpt lat="45.976" lon="4.75685">
        <ele>171</ele>
        <time>2018-10-12T08:41:41Z</time>
      </trkpt>
      <trkpt lat="45.97605" lon="4.75681">
        <ele>171</ele>
        <time>2018-10-12T08:41:42Z</time>
      </trkpt>
      <trkpt lat="45.9761" lon="4.75679">
        <ele>171</ele>
        <time>2018-10-12T08:41:43Z</time>
      </trkpt>
      <trkpt lat="45.97615" lon="4.75676">
        <ele>171</ele>
        <time>2018-10-12T08:41:44Z</time>
      </trkpt>
      <trkpt lat="45.9762" lon="4.75675">
        <ele>171</ele>
        <time>2018-10-12T08:41:45Z</time>
      </trkpt>
      <trkpt lat="45.97626" lon="4.75674">
        <ele>171</ele>
        <time>2018-10-12T08:41:46Z</time>
      </trkpt>
      <trkpt lat="45.97632" lon="4.75675">
        <ele>171</ele>
        <time>2018-10-12T08:41:47Z</time>
      </trkpt>
      <trkpt lat="45.97638" lon="4.75675">
        <ele>170</ele>
        <time>2018-10-12T08:41:48Z</time>
      </trkpt>
      <trkpt lat="45.97644" lon="4.75674">
        <ele>170</ele>
        <time>2018-10-12T08:41:49Z</time>
      </trkpt>
      <trkpt lat="45.97651" lon="4.75673">
        <ele>170</ele>
        <time>2018-10-12T08:41:50Z</time>
      </trkpt>
      <trkpt lat="45.97657" lon="4.75672">
        <ele>170</ele>
        <time>2018-10-12T08:41:51Z</time>
      </trkpt>
      <trkpt lat="45.97663" lon="4.75672">
        <ele>169</ele>
        <time>2018-10-12T08:41:52Z</time>
      </trkpt>
      <trkpt lat="45.97669" lon="4.75672">
        <ele>170</ele>
        <time>2018-10-12T08:41:53Z</time>
      </trkpt>
      <trkpt lat="45.97675" lon="4.75673">
        <ele>170</ele>
        <time>2018-10-12T08:41:54Z</time>
      </trkpt>
      <trkpt lat="45.97681" lon="4.75672">
        <ele>170</ele>
        <time>2018-10-12T08:41:55Z</time>
      </trkpt>
      <trkpt lat="45.97686" lon="4.75673">
        <ele>170</ele>
        <time>2018-10-12T08:41:56Z</time>
      </trkpt>
      <trkpt lat="45.97692" lon="4.75673">
        <ele>171</ele>
        <time>2018-10-12T08:41:57Z</time>
      </trkpt>
      <trkpt lat="45.97698" lon="4.75673">
        <ele>171</ele>
        <time>2018-10-12T08:41:58Z</time>
      </trkpt>
      <trkpt lat="45.97705" lon="4.75672">
        <ele>171</ele>
        <time>2018-10-12T08:41:59Z</time>
      </trkpt>
      <trkpt lat="45.97711" lon="4.75672">
        <ele>171</ele>
        <time>2018-10-12T08:42:00Z</time>
      </trkpt>
      <trkpt lat="45.97718" lon="4.75673">
        <ele>171</ele>
        <time>2018-10-12T08:42:01Z</time>
      </trkpt>
      <trkpt lat="45.97725" lon="4.75673">
        <ele>172</ele>
        <time>2018-10-12T08:42:02Z</time>
      </trkpt>
      <trkpt lat="45.9773" lon="4.75674">
        <ele>172</ele>
        <time>2018-10-12T08:42:03Z</time>
      </trkpt>
      <trkpt lat="45.97736" lon="4.75673">
        <ele>172</ele>
        <time>2018-10-12T08:42:04Z</time>
      </trkpt>
      <trkpt lat="45.97743" lon="4.75673">
        <ele>172</ele>
        <time>2018-10-12T08:42:05Z</time>
      </trkpt>
      <trkpt lat="45.97748" lon="4.75673">
        <ele>172</ele>
        <time>2018-10-12T08:42:06Z</time>
      </trkpt>
      <trkpt lat="45.97754" lon="4.75676">
        <ele>173</ele>
        <time>2018-10-12T08:42:07Z</time>
      </trkpt>
      <trkpt lat="45.97762" lon="4.75677">
        <ele>173</ele>
        <time>2018-10-12T08:42:09Z</time>
      </trkpt>
      <trkpt lat="45.97768" lon="4.75678">
        <ele>174</ele>
        <time>2018-10-12T08:42:10Z</time>
      </trkpt>
      <trkpt lat="45.97773" lon="4.75679">
        <ele>174</ele>
        <time>2018-10-12T08:42:11Z</time>
      </trkpt>
      <trkpt lat="45.97779" lon="4.75677">
        <ele>174</ele>
        <time>2018-10-12T08:42:12Z</time>
      </trkpt>
      <trkpt lat="45.97785" lon="4.75679">
        <ele>174</ele>
        <time>2018-10-12T08:42:13Z</time>
      </trkpt>
      <trkpt lat="45.9779" lon="4.7568">
        <ele>174</ele>
        <time>2018-10-12T08:42:14Z</time>
      </trkpt>
      <trkpt lat="45.97796" lon="4.7568">
        <ele>174</ele>
        <time>2018-10-12T08:42:15Z</time>
      </trkpt>
      <trkpt lat="45.97801" lon="4.75682">
        <ele>175</ele>
        <time>2018-10-12T08:42:16Z</time>
      </trkpt>
      <trkpt lat="45.97806" lon="4.75682">
        <ele>175</ele>
        <time>2018-10-12T08:42:17Z</time>
      </trkpt>
      <trkpt lat="45.97811" lon="4.75683">
        <ele>175</ele>
        <time>2018-10-12T08:42:18Z</time>
      </trkpt>
      <trkpt lat="45.97817" lon="4.75683">
        <ele>175</ele>
        <time>2018-10-12T08:42:19Z</time>
      </trkpt>
      <trkpt lat="45.97822" lon="4.75684">
        <ele>175</ele>
        <time>2018-10-12T08:42:20Z</time>
      </trkpt>
      <trkpt lat="45.97828" lon="4.75686">
        <ele>175</ele>
        <time>2018-10-12T08:42:21Z</time>
      </trkpt>
      <trkpt lat="45.97832" lon="4.75687">
        <ele>175</ele>
        <time>2018-10-12T08:42:22Z</time>
      </trkpt>
      <trkpt lat="45.97838" lon="4.75688">
        <ele>175</ele>
        <time>2018-10-12T08:42:23Z</time>
      </trkpt>
      <trkpt lat="45.97844" lon="4.75689">
        <ele>175</ele>
        <time>2018-10-12T08:42:24Z</time>
      </trkpt>
      <trkpt lat="45.9785" lon="4.7569">
        <ele>175</ele>
        <time>2018-10-12T08:42:25Z</time>
      </trkpt>
      <trkpt lat="45.97857" lon="4.75692">
        <ele>175</ele>
        <time>2018-10-12T08:42:26Z</time>
      </trkpt>
      <trkpt lat="45.97861" lon="4.75692">
        <ele>175</ele>
        <time>2018-10-12T08:42:27Z</time>
      </trkpt>
      <trkpt lat="45.97867" lon="4.75694">
        <ele>175</ele>
        <time>2018-10-12T08:42:28Z</time>
      </trkpt>
      <trkpt lat="45.97872" lon="4.75695">
        <ele>175</ele>
        <time>2018-10-12T08:42:29Z</time>
      </trkpt>
      <trkpt lat="45.97877" lon="4.75697">
        <ele>175</ele>
        <time>2018-10-12T08:42:30Z</time>
      </trkpt>
      <trkpt lat="45.97885" lon="4.75701">
        <ele>175</ele>
        <time>2018-10-12T08:42:32Z</time>
      </trkpt>
      <trkpt lat="45.9789" lon="4.75703">
        <ele>175</ele>
        <time>2018-10-12T08:42:33Z</time>
      </trkpt>
      <trkpt lat="45.97898" lon="4.75706">
        <ele>175</ele>
        <time>2018-10-12T08:42:35Z</time>
      </trkpt>
      <trkpt lat="45.97903" lon="4.75709">
        <ele>175</ele>
        <time>2018-10-12T08:42:36Z</time>
      </trkpt>
      <trkpt lat="45.97906" lon="4.75712">
        <ele>175</ele>
        <time>2018-10-12T08:42:37Z</time>
      </trkpt>
      <trkpt lat="45.97911" lon="4.75715">
        <ele>175</ele>
        <time>2018-10-12T08:42:38Z</time>
      </trkpt>
      <trkpt lat="45.97915" lon="4.75718">
        <ele>175</ele>
        <time>2018-10-12T08:42:39Z</time>
      </trkpt>
      <trkpt lat="45.9792" lon="4.7572">
        <ele>174</ele>
        <time>2018-10-12T08:42:40Z</time>
      </trkpt>
      <trkpt lat="45.97924" lon="4.75722">
        <ele>174</ele>
        <time>2018-10-12T08:42:41Z</time>
      </trkpt>
      <trkpt lat="45.97929" lon="4.75725">
        <ele>174</ele>
        <time>2018-10-12T08:42:42Z</time>
      </trkpt>
      <trkpt lat="45.97937" lon="4.7573">
        <ele>174</ele>
        <time>2018-10-12T08:42:44Z</time>
      </trkpt>
      <trkpt lat="45.97941" lon="4.75733">
        <ele>174</ele>
        <time>2018-10-12T08:42:45Z</time>
      </trkpt>
      <trkpt lat="45.97944" lon="4.75737">
        <ele>174</ele>
        <time>2018-10-12T08:42:46Z</time>
      </trkpt>
      <trkpt lat="45.97948" lon="4.75741">
        <ele>174</ele>
        <time>2018-10-12T08:42:47Z</time>
      </trkpt>
      <trkpt lat="45.97956" lon="4.75748">
        <ele>174</ele>
        <time>2018-10-12T08:42:49Z</time>
      </trkpt>
      <trkpt lat="45.9796" lon="4.75748">
        <ele>174</ele>
        <time>2018-10-12T08:42:50Z</time>
      </trkpt>
      <trkpt lat="45.97964" lon="4.75746">
        <ele>174</ele>
        <time>2018-10-12T08:42:51Z</time>
      </trkpt>
      <trkpt lat="45.97968" lon="4.75742">
        <ele>174</ele>
        <time>2018-10-12T08:42:52Z</time>
      </trkpt>
      <trkpt lat="45.97976" lon="4.75736">
        <ele>174</ele>
        <time>2018-10-12T08:42:54Z</time>
      </trkpt>
      <trkpt lat="45.97981" lon="4.75733">
        <ele>174</ele>
        <time>2018-10-12T08:42:55Z</time>
      </trkpt>
      <trkpt lat="45.97987" lon="4.75729">
        <ele>174</ele>
        <time>2018-10-12T08:42:56Z</time>
      </trkpt>
      <trkpt lat="45.97993" lon="4.75726">
        <ele>174</ele>
        <time>2018-10-12T08:42:57Z</time>
      </trkpt>
      <trkpt lat="45.97998" lon="4.75723">
        <ele>174</ele>
        <time>2018-10-12T08:42:58Z</time>
      </trkpt>
      <trkpt lat="45.98004" lon="4.7572">
        <ele>174</ele>
        <time>2018-10-12T08:42:59Z</time>
      </trkpt>
      <trkpt lat="45.98009" lon="4.75717">
        <ele>174</ele>
        <time>2018-10-12T08:43:00Z</time>
      </trkpt>
      <trkpt lat="45.98015" lon="4.75715">
        <ele>174</ele>
        <time>2018-10-12T08:43:01Z</time>
      </trkpt>
      <trkpt lat="45.9802" lon="4.75713">
        <ele>174</ele>
        <time>2018-10-12T08:43:02Z</time>
      </trkpt>
      <trkpt lat="45.98025" lon="4.75712">
        <ele>174</ele>
        <time>2018-10-12T08:43:03Z</time>
      </trkpt>
      <trkpt lat="45.98031" lon="4.75711">
        <ele>174</ele>
        <time>2018-10-12T08:43:04Z</time>
      </trkpt>
      <trkpt lat="45.98036" lon="4.75711">
        <ele>174</ele>
        <time>2018-10-12T08:43:05Z</time>
      </trkpt>
      <trkpt lat="45.98041" lon="4.75711">
        <ele>174</ele>
        <time>2018-10-12T08:43:06Z</time>
      </trkpt>
      <trkpt lat="45.98046" lon="4.75711">
        <ele>174</ele>
        <time>2018-10-12T08:43:07Z</time>
      </trkpt>
      <trkpt lat="45.98052" lon="4.75709">
        <ele>174</ele>
        <time>2018-10-12T08:43:08Z</time>
      </trkpt>
      <trkpt lat="45.98057" lon="4.75709">
        <ele>174</ele>
        <time>2018-10-12T08:43:09Z</time>
      </trkpt>
      <trkpt lat="45.98062" lon="4.75708">
        <ele>174</ele>
        <time>2018-10-12T08:43:10Z</time>
      </trkpt>
      <trkpt lat="45.98067" lon="4.75707">
        <ele>174</ele>
        <time>2018-10-12T08:43:11Z</time>
      </trkpt>
      <trkpt lat="45.98072" lon="4.75705">
        <ele>174</ele>
        <time>2018-10-12T08:43:12Z</time>
      </trkpt>
      <trkpt lat="45.98079" lon="4.75705">
        <ele>174</ele>
        <time>2018-10-12T08:43:13Z</time>
      </trkpt>
      <trkpt lat="45.98084" lon="4.75704">
        <ele>174</ele>
        <time>2018-10-12T08:43:14Z</time>
      </trkpt>
      <trkpt lat="45.98089" lon="4.75705">
        <ele>174</ele>
        <time>2018-10-12T08:43:15Z</time>
      </trkpt>
      <trkpt lat="45.98094" lon="4.75705">
        <ele>174</ele>
        <time>2018-10-12T08:43:16Z</time>
      </trkpt>
      <trkpt lat="45.981" lon="4.75704">
        <ele>174</ele>
        <time>2018-10-12T08:43:17Z</time>
      </trkpt>
      <trkpt lat="45.98106" lon="4.75703">
        <ele>174</ele>
        <time>2018-10-12T08:43:18Z</time>
      </trkpt>
      <trkpt lat="45.98111" lon="4.75703">
        <ele>174</ele>
        <time>2018-10-12T08:43:19Z</time>
      </trkpt>
      <trkpt lat="45.98116" lon="4.75703">
        <ele>174</ele>
        <time>2018-10-12T08:43:20Z</time>
      </trkpt>
      <trkpt lat="45.98122" lon="4.75702">
        <ele>174</ele>
        <time>2018-10-12T08:43:21Z</time>
      </trkpt>
      <trkpt lat="45.98128" lon="4.75701">
        <ele>174</ele>
        <time>2018-10-12T08:43:22Z</time>
      </trkpt>
      <trkpt lat="45.98134" lon="4.75701">
        <ele>174</ele>
        <time>2018-10-12T08:43:23Z</time>
      </trkpt>
      <trkpt lat="45.98138" lon="4.75701">
        <ele>174</ele>
        <time>2018-10-12T08:43:24Z</time>
      </trkpt>
      <trkpt lat="45.98144" lon="4.75699">
        <ele>174</ele>
        <time>2018-10-12T08:43:25Z</time>
      </trkpt>
      <trkpt lat="45.98149" lon="4.75698">
        <ele>174</ele>
        <time>2018-10-12T08:43:26Z</time>
      </trkpt>
      <trkpt lat="45.98154" lon="4.75697">
        <ele>174</ele>
        <time>2018-10-12T08:43:27Z</time>
      </trkpt>
      <trkpt lat="45.98159" lon="4.75697">
        <ele>174</ele>
        <time>2018-10-12T08:43:28Z</time>
      </trkpt>
      <trkpt lat="45.98164" lon="4.75696">
        <ele>174</ele>
        <time>2018-10-12T08:43:29Z</time>
      </trkpt>
      <trkpt lat="45.98169" lon="4.75696">
        <ele>174</ele>
        <time>2018-10-12T08:43:30Z</time>
      </trkpt>
      <trkpt lat="45.98175" lon="4.75696">
        <ele>174</ele>
        <time>2018-10-12T08:43:31Z</time>
      </trkpt>
      <trkpt lat="45.98179" lon="4.75696">
        <ele>174</ele>
        <time>2018-10-12T08:43:32Z</time>
      </trkpt>
      <trkpt lat="45.98184" lon="4.75696">
        <ele>174</ele>
        <time>2018-10-12T08:43:33Z</time>
      </trkpt>
      <trkpt lat="45.9819" lon="4.75695">
        <ele>174</ele>
        <time>2018-10-12T08:43:34Z</time>
      </trkpt>
      <trkpt lat="45.98197" lon="4.75694">
        <ele>174</ele>
        <time>2018-10-12T08:43:35Z</time>
      </trkpt>
      <trkpt lat="45.98202" lon="4.75695">
        <ele>174</ele>
        <time>2018-10-12T08:43:36Z</time>
      </trkpt>
      <trkpt lat="45.98208" lon="4.75694">
        <ele>174</ele>
        <time>2018-10-12T08:43:37Z</time>
      </trkpt>
      <trkpt lat="45.98214" lon="4.75693">
        <ele>174</ele>
        <time>2018-10-12T08:43:38Z</time>
      </trkpt>
      <trkpt lat="45.98219" lon="4.75692">
        <ele>174</ele>
        <time>2018-10-12T08:43:39Z</time>
      </trkpt>
      <trkpt lat="45.98225" lon="4.7569">
        <ele>174</ele>
        <time>2018-10-12T08:43:40Z</time>
      </trkpt>
      <trkpt lat="45.98231" lon="4.75688">
        <ele>174</ele>
        <time>2018-10-12T08:43:41Z</time>
      </trkpt>
      <trkpt lat="45.98236" lon="4.75688">
        <ele>174</ele>
        <time>2018-10-12T08:43:42Z</time>
      </trkpt>
      <trkpt lat="45.98242" lon="4.75687">
        <ele>174</ele>
        <time>2018-10-12T08:43:43Z</time>
      </trkpt>
      <trkpt lat="45.98247" lon="4.75687">
        <ele>174</ele>
        <time>2018-10-12T08:43:44Z</time>
      </trkpt>
      <trkpt lat="45.98251" lon="4.75687">
        <ele>173</ele>
        <time>2018-10-12T08:43:45Z</time>
      </trkpt>
      <trkpt lat="45.98257" lon="4.75687">
        <ele>173</ele>
        <time>2018-10-12T08:43:46Z</time>
      </trkpt>
      <trkpt lat="45.98261" lon="4.75688">
        <ele>173</ele>
        <time>2018-10-12T08:43:47Z</time>
      </trkpt>
      <trkpt lat="45.98267" lon="4.75686">
        <ele>174</ele>
        <time>2018-10-12T08:43:48Z</time>
      </trkpt>
      <trkpt lat="45.98272" lon="4.75687">
        <ele>174</ele>
        <time>2018-10-12T08:43:49Z</time>
      </trkpt>
      <trkpt lat="45.98277" lon="4.75687">
        <ele>174</ele>
        <time>2018-10-12T08:43:50Z</time>
      </trkpt>
      <trkpt lat="45.98284" lon="4.75688">
        <ele>174</ele>
        <time>2018-10-12T08:43:51Z</time>
      </trkpt>
      <trkpt lat="45.9829" lon="4.75688">
        <ele>174</ele>
        <time>2018-10-12T08:43:52Z</time>
      </trkpt>
      <trkpt lat="45.98296" lon="4.75688">
        <ele>174</ele>
        <time>2018-10-12T08:43:53Z</time>
      </trkpt>
      <trkpt lat="45.98301" lon="4.75688">
        <ele>174</ele>
        <time>2018-10-12T08:43:54Z</time>
      </trkpt>
      <trkpt lat="45.98307" lon="4.75688">
        <ele>174</ele>
        <time>2018-10-12T08:43:55Z</time>
      </trkpt>
      <trkpt lat="45.98312" lon="4.75689">
        <ele>174</ele>
        <time>2018-10-12T08:43:56Z</time>
      </trkpt>
      <trkpt lat="45.98318" lon="4.75691">
        <ele>174</ele>
        <time>2018-10-12T08:43:57Z</time>
      </trkpt>
      <trkpt lat="45.98324" lon="4.75691">
        <ele>174</ele>
        <time>2018-10-12T08:43:58Z</time>
      </trkpt>
      <trkpt lat="45.98329" lon="4.75692">
        <ele>174</ele>
        <time>2018-10-12T08:43:59Z</time>
      </trkpt>
      <trkpt lat="45.98335" lon="4.75692">
        <ele>174</ele>
        <time>2018-10-12T08:44:00Z</time>
      </trkpt>
      <trkpt lat="45.98339" lon="4.75693">
        <ele>174</ele>
        <time>2018-10-12T08:44:01Z</time>
      </trkpt>
      <trkpt lat="45.98345" lon="4.75694">
        <ele>174</ele>
        <time>2018-10-12T08:44:02Z</time>
      </trkpt>
      <trkpt lat="45.98349" lon="4.75695">
        <ele>174</ele>
        <time>2018-10-12T08:44:03Z</time>
      </trkpt>
      <trkpt lat="45.98354" lon="4.75695">
        <ele>174</ele>
        <time>2018-10-12T08:44:04Z</time>
      </trkpt>
      <trkpt lat="45.98359" lon="4.75695">
        <ele>174</ele>
        <time>2018-10-12T08:44:05Z</time>
      </trkpt>
      <trkpt lat="45.98367" lon="4.75696">
        <ele>174</ele>
        <time>2018-10-12T08:44:07Z</time>
      </trkpt>
      <trkpt lat="45.98371" lon="4.757">
        <ele>174</ele>
        <time>2018-10-12T08:44:08Z</time>
      </trkpt>
      <trkpt lat="45.98375" lon="4.75702">
        <ele>174</ele>
        <time>2018-10-12T08:44:09Z</time>
      </trkpt>
      <trkpt lat="45.9838" lon="4.75705">
        <ele>174</ele>
        <time>2018-10-12T08:44:10Z</time>
      </trkpt>
      <trkpt lat="45.98384" lon="4.75706">
        <ele>174</ele>
        <time>2018-10-12T08:44:11Z</time>
      </trkpt>
      <trkpt lat="45.9839" lon="4.75705">
        <ele>174</ele>
        <time>2018-10-12T08:44:12Z</time>
      </trkpt>
      <trkpt lat="45.98395" lon="4.75704">
        <ele>174</ele>
        <time>2018-10-12T08:44:13Z</time>
      </trkpt>
      <trkpt lat="45.98401" lon="4.75704">
        <ele>174</ele>
        <time>2018-10-12T08:44:14Z</time>
      </trkpt>
      <trkpt lat="45.98406" lon="4.75704">
        <ele>174</ele>
        <time>2018-10-12T08:44:15Z</time>
      </trkpt>
      <trkpt lat="45.98411" lon="4.75705">
        <ele>174</ele>
        <time>2018-10-12T08:44:16Z</time>
      </trkpt>
      <trkpt lat="45.98416" lon="4.75706">
        <ele>174</ele>
        <time>2018-10-12T08:44:17Z</time>
      </trkpt>
      <trkpt lat="45.98421" lon="4.75707">
        <ele>175</ele>
        <time>2018-10-12T08:44:18Z</time>
      </trkpt>
      <trkpt lat="45.98426" lon="4.75709">
        <ele>174</ele>
        <time>2018-10-12T08:44:19Z</time>
      </trkpt>
      <trkpt lat="45.98431" lon="4.75709">
        <ele>174</ele>
        <time>2018-10-12T08:44:20Z</time>
      </trkpt>
      <trkpt lat="45.98436" lon="4.7571">
        <ele>174</ele>
        <time>2018-10-12T08:44:21Z</time>
      </trkpt>
      <trkpt lat="45.98442" lon="4.75712">
        <ele>174</ele>
        <time>2018-10-12T08:44:22Z</time>
      </trkpt>
      <trkpt lat="45.98447" lon="4.75713">
        <ele>174</ele>
        <time>2018-10-12T08:44:23Z</time>
      </trkpt>
      <trkpt lat="45.98453" lon="4.75714">
        <ele>174</ele>
        <time>2018-10-12T08:44:24Z</time>
      </trkpt>
      <trkpt lat="45.98458" lon="4.75715">
        <ele>174</ele>
        <time>2018-10-12T08:44:25Z</time>
      </trkpt>
      <trkpt lat="45.98464" lon="4.75717">
        <ele>175</ele>
        <time>2018-10-12T08:44:26Z</time>
      </trkpt>
      <trkpt lat="45.98469" lon="4.75718">
        <ele>175</ele>
        <time>2018-10-12T08:44:27Z</time>
      </trkpt>
      <trkpt lat="45.98474" lon="4.75716">
        <ele>175</ele>
        <time>2018-10-12T08:44:28Z</time>
      </trkpt>
      <trkpt lat="45.9848" lon="4.75716">
        <ele>175</ele>
        <time>2018-10-12T08:44:29Z</time>
      </trkpt>
      <trkpt lat="45.98484" lon="4.75717">
        <ele>175</ele>
        <time>2018-10-12T08:44:30Z</time>
      </trkpt>
      <trkpt lat="45.98491" lon="4.75723">
        <ele>175</ele>
        <time>2018-10-12T08:44:32Z</time>
      </trkpt>
      <trkpt lat="45.98492" lon="4.75728">
        <ele>175</ele>
        <time>2018-10-12T08:44:33Z</time>
      </trkpt>
      <trkpt lat="45.98494" lon="4.75739">
        <ele>175</ele>
        <time>2018-10-12T08:44:36Z</time>
      </trkpt>
      <trkpt lat="45.98494" lon="4.75743">
        <ele>175</ele>
        <time>2018-10-12T08:44:37Z</time>
      </trkpt>
      <trkpt lat="45.98494" lon="4.75752">
        <ele>175</ele>
        <time>2018-10-12T08:44:39Z</time>
      </trkpt>
      <trkpt lat="45.98494" lon="4.75757">
        <ele>175</ele>
        <time>2018-10-12T08:44:40Z</time>
      </trkpt>
      <trkpt lat="45.98494" lon="4.75767">
        <ele>176</ele>
        <time>2018-10-12T08:44:41Z</time>
      </trkpt>
      <trkpt lat="45.98494" lon="4.75773">
        <ele>176</ele>
        <time>2018-10-12T08:44:42Z</time>
      </trkpt>
      <trkpt lat="45.98495" lon="4.75785">
        <ele>176</ele>
        <time>2018-10-12T08:44:44Z</time>
      </trkpt>
      <trkpt lat="45.98496" lon="4.75791">
        <ele>176</ele>
        <time>2018-10-12T08:44:45Z</time>
      </trkpt>
      <trkpt lat="45.98498" lon="4.75796">
        <ele>177</ele>
        <time>2018-10-12T08:44:46Z</time>
      </trkpt>
      <trkpt lat="45.98504" lon="4.75798">
        <ele>176</ele>
        <time>2018-10-12T08:44:47Z</time>
      </trkpt>
      <trkpt lat="45.98509" lon="4.75799">
        <ele>176</ele>
        <time>2018-10-12T08:44:48Z</time>
      </trkpt>
      <trkpt lat="45.98513" lon="4.75801">
        <ele>176</ele>
        <time>2018-10-12T08:44:49Z</time>
      </trkpt>
      <trkpt lat="45.98519" lon="4.75802">
        <ele>176</ele>
        <time>2018-10-12T08:44:50Z</time>
      </trkpt>
      <trkpt lat="45.98522" lon="4.75803">
        <ele>176</ele>
        <time>2018-10-12T08:44:51Z</time>
      </trkpt>
      <trkpt lat="45.98528" lon="4.75805">
        <ele>176</ele>
        <time>2018-10-12T08:44:52Z</time>
      </trkpt>
      <trkpt lat="45.98534" lon="4.75806">
        <ele>176</ele>
        <time>2018-10-12T08:44:53Z</time>
      </trkpt>
      <trkpt lat="45.98539" lon="4.75806">
        <ele>176</ele>
        <time>2018-10-12T08:44:54Z</time>
      </trkpt>
      <trkpt lat="45.98545" lon="4.75807">
        <ele>176</ele>
        <time>2018-10-12T08:44:55Z</time>
      </trkpt>
      <trkpt lat="45.9855" lon="4.7581">
        <ele>176</ele>
        <time>2018-10-12T08:44:56Z</time>
      </trkpt>
      <trkpt lat="45.98556" lon="4.75812">
        <ele>176</ele>
        <time>2018-10-12T08:44:57Z</time>
      </trkpt>
      <trkpt lat="45.98561" lon="4.75815">
        <ele>176</ele>
        <time>2018-10-12T08:44:58Z</time>
      </trkpt>
      <trkpt lat="45.98566" lon="4.75819">
        <ele>176</ele>
        <time>2018-10-12T08:44:59Z</time>
      </trkpt>
      <trkpt lat="45.98571" lon="4.75823">
        <ele>176</ele>
        <time>2018-10-12T08:45:00Z</time>
      </trkpt>
      <trkpt lat="45.98574" lon="4.75827">
        <ele>176</ele>
        <time>2018-10-12T08:45:01Z</time>
      </trkpt>
      <trkpt lat="45.98581" lon="4.75835">
        <ele>176</ele>
        <time>2018-10-12T08:45:03Z</time>
      </trkpt>
      <trkpt lat="45.98585" lon="4.75839">
        <ele>177</ele>
        <time>2018-10-12T08:45:04Z</time>
      </trkpt>
      <trkpt lat="45.98589" lon="4.75842">
        <ele>177</ele>
        <time>2018-10-12T08:45:05Z</time>
      </trkpt>
      <trkpt lat="45.98593" lon="4.75843">
        <ele>177</ele>
        <time>2018-10-12T08:45:06Z</time>
      </trkpt>
      <trkpt lat="45.98602" lon="4.7584">
        <ele>177</ele>
        <time>2018-10-12T08:45:08Z</time>
      </trkpt>
      <trkpt lat="45.98604" lon="4.75834">
        <ele>178</ele>
        <time>2018-10-12T08:45:09Z</time>
      </trkpt>
      <trkpt lat="45.98606" lon="4.75827">
        <ele>176</ele>
        <time>2018-10-12T08:45:10Z</time>
      </trkpt>
      <trkpt lat="45.98606" lon="4.75818">
        <ele>176</ele>
        <time>2018-10-12T08:45:11Z</time>
      </trkpt>
      <trkpt lat="45.98606" lon="4.7581">
        <ele>176</ele>
        <time>2018-10-12T08:45:12Z</time>
      </trkpt>
      <trkpt lat="45.98605" lon="4.75801">
        <ele>176</ele>
        <time>2018-10-12T08:45:13Z</time>
      </trkpt>
      <trkpt lat="45.98605" lon="4.75794">
        <ele>176</ele>
        <time>2018-10-12T08:45:14Z</time>
      </trkpt>
      <trkpt lat="45.98604" lon="4.75786">
        <ele>176</ele>
        <time>2018-10-12T08:45:15Z</time>
      </trkpt>
      <trkpt lat="45.98604" lon="4.75777">
        <ele>175</ele>
        <time>2018-10-12T08:45:16Z</time>
      </trkpt>
      <trkpt lat="45.98603" lon="4.7577">
        <ele>175</ele>
        <time>2018-10-12T08:45:17Z</time>
      </trkpt>
      <trkpt lat="45.98603" lon="4.75763">
        <ele>175</ele>
        <time>2018-10-12T08:45:18Z</time>
      </trkpt>
      <trkpt lat="45.98603" lon="4.75755">
        <ele>175</ele>
        <time>2018-10-12T08:45:19Z</time>
      </trkpt>
      <trkpt lat="45.98602" lon="4.75747">
        <ele>174</ele>
        <time>2018-10-12T08:45:20Z</time>
      </trkpt>
      <trkpt lat="45.98603" lon="4.7574">
        <ele>174</ele>
        <time>2018-10-12T08:45:21Z</time>
      </trkpt>
      <trkpt lat="45.98605" lon="4.75732">
        <ele>174</ele>
        <time>2018-10-12T08:45:23Z</time>
      </trkpt>
      <trkpt lat="45.9861" lon="4.75731">
        <ele>175</ele>
        <time>2018-10-12T08:45:24Z</time>
      </trkpt>
      <trkpt lat="45.98615" lon="4.7573">
        <ele>175</ele>
        <time>2018-10-12T08:45:25Z</time>
      </trkpt>
      <trkpt lat="45.98619" lon="4.75729">
        <ele>175</ele>
        <time>2018-10-12T08:45:26Z</time>
      </trkpt>
      <trkpt lat="45.98625" lon="4.75729">
        <ele>175</ele>
        <time>2018-10-12T08:45:27Z</time>
      </trkpt>
      <trkpt lat="45.98631" lon="4.75729">
        <ele>175</ele>
        <time>2018-10-12T08:45:28Z</time>
      </trkpt>
      <trkpt lat="45.98639" lon="4.75732">
        <ele>175</ele>
        <time>2018-10-12T08:45:29Z</time>
      </trkpt>
      <trkpt lat="45.98642" lon="4.75733">
        <ele>176</ele>
        <time>2018-10-12T08:45:30Z</time>
      </trkpt>
      <trkpt lat="45.98647" lon="4.75733">
        <ele>176</ele>
        <time>2018-10-12T08:45:31Z</time>
      </trkpt>
      <trkpt lat="45.98652" lon="4.75733">
        <ele>176</ele>
        <time>2018-10-12T08:45:32Z</time>
      </trkpt>
      <trkpt lat="45.98661" lon="4.75734">
        <ele>176</ele>
        <time>2018-10-12T08:45:34Z</time>
      </trkpt>
      <trkpt lat="45.98666" lon="4.75735">
        <ele>176</ele>
        <time>2018-10-12T08:45:35Z</time>
      </trkpt>
      <trkpt lat="45.98671" lon="4.75735">
        <ele>177</ele>
        <time>2018-10-12T08:45:36Z</time>
      </trkpt>
      <trkpt lat="45.98675" lon="4.75734">
        <ele>177</ele>
        <time>2018-10-12T08:45:37Z</time>
      </trkpt>
      <trkpt lat="45.98681" lon="4.75734">
        <ele>177</ele>
        <time>2018-10-12T08:45:38Z</time>
      </trkpt>
      <trkpt lat="45.98685" lon="4.75735">
        <ele>177</ele>
        <time>2018-10-12T08:45:39Z</time>
      </trkpt>
      <trkpt lat="45.98694" lon="4.75735">
        <ele>177</ele>
        <time>2018-10-12T08:45:41Z</time>
      </trkpt>
      <trkpt lat="45.98698" lon="4.75735">
        <ele>177</ele>
        <time>2018-10-12T08:45:42Z</time>
      </trkpt>
      <trkpt lat="45.98707" lon="4.75736">
        <ele>177</ele>
        <time>2018-10-12T08:45:44Z</time>
      </trkpt>
      <trkpt lat="45.98712" lon="4.75737">
        <ele>177</ele>
        <time>2018-10-12T08:45:45Z</time>
      </trkpt>
      <trkpt lat="45.98721" lon="4.75736">
        <ele>177</ele>
        <time>2018-10-12T08:45:47Z</time>
      </trkpt>
      <trkpt lat="45.98724" lon="4.75737">
        <ele>177</ele>
        <time>2018-10-12T08:45:48Z</time>
      </trkpt>
      <trkpt lat="45.9873" lon="4.75733">
        <ele>177</ele>
        <time>2018-10-12T08:45:49Z</time>
      </trkpt>
      <trkpt lat="45.98734" lon="4.75732">
        <ele>177</ele>
        <time>2018-10-12T08:45:50Z</time>
      </trkpt>
      <trkpt lat="45.98739" lon="4.75733">
        <ele>177</ele>
        <time>2018-10-12T08:45:51Z</time>
      </trkpt>
      <trkpt lat="45.98744" lon="4.75733">
        <ele>177</ele>
        <time>2018-10-12T08:45:52Z</time>
      </trkpt>
      <trkpt lat="45.98749" lon="4.75733">
        <ele>178</ele>
        <time>2018-10-12T08:45:53Z</time>
      </trkpt>
      <trkpt lat="45.98753" lon="4.75732">
        <ele>178</ele>
        <time>2018-10-12T08:45:54Z</time>
      </trkpt>
      <trkpt lat="45.98757" lon="4.75731">
        <ele>178</ele>
        <time>2018-10-12T08:45:55Z</time>
      </trkpt>
      <trkpt lat="45.98762" lon="4.75731">
        <ele>178</ele>
        <time>2018-10-12T08:45:56Z</time>
      </trkpt>
      <trkpt lat="45.98766" lon="4.75731">
        <ele>178</ele>
        <time>2018-10-12T08:45:57Z</time>
      </trkpt>
      <trkpt lat="45.98771" lon="4.75731">
        <ele>178</ele>
        <time>2018-10-12T08:45:58Z</time>
      </trkpt>
      <trkpt lat="45.98776" lon="4.75728">
        <ele>178</ele>
        <time>2018-10-12T08:45:59Z</time>
      </trkpt>
      <trkpt lat="45.98781" lon="4.75727">
        <ele>178</ele>
        <time>2018-10-12T08:46:00Z</time>
      </trkpt>
      <trkpt lat="45.98785" lon="4.75725">
        <ele>178</ele>
        <time>2018-10-12T08:46:01Z</time>
      </trkpt>
      <trkpt lat="45.98791" lon="4.75723">
        <ele>178</ele>
        <time>2018-10-12T08:46:02Z</time>
      </trkpt>
      <trkpt lat="45.98796" lon="4.75722">
        <ele>179</ele>
        <time>2018-10-12T08:46:03Z</time>
      </trkpt>
      <trkpt lat="45.98802" lon="4.75721">
        <ele>179</ele>
        <time>2018-10-12T08:46:04Z</time>
      </trkpt>
      <trkpt lat="45.98808" lon="4.7572">
        <ele>179</ele>
        <time>2018-10-12T08:46:05Z</time>
      </trkpt>
      <trkpt lat="45.98814" lon="4.7572">
        <ele>179</ele>
        <time>2018-10-12T08:46:06Z</time>
      </trkpt>
      <trkpt lat="45.9882" lon="4.75721">
        <ele>179</ele>
        <time>2018-10-12T08:46:07Z</time>
      </trkpt>
      <trkpt lat="45.98826" lon="4.7572">
        <ele>179</ele>
        <time>2018-10-12T08:46:08Z</time>
      </trkpt>
      <trkpt lat="45.98832" lon="4.7572">
        <ele>179</ele>
        <time>2018-10-12T08:46:09Z</time>
      </trkpt>
      <trkpt lat="45.98837" lon="4.75719">
        <ele>180</ele>
        <time>2018-10-12T08:46:10Z</time>
      </trkpt>
      <trkpt lat="45.98843" lon="4.75718">
        <ele>180</ele>
        <time>2018-10-12T08:46:11Z</time>
      </trkpt>
      <trkpt lat="45.98849" lon="4.75717">
        <ele>180</ele>
        <time>2018-10-12T08:46:12Z</time>
      </trkpt>
      <trkpt lat="45.98857" lon="4.75719">
        <ele>180</ele>
        <time>2018-10-12T08:46:14Z</time>
      </trkpt>
      <trkpt lat="45.98861" lon="4.75717">
        <ele>180</ele>
        <time>2018-10-12T08:46:15Z</time>
      </trkpt>
      <trkpt lat="45.98867" lon="4.75716">
        <ele>180</ele>
        <time>2018-10-12T08:46:16Z</time>
      </trkpt>
      <trkpt lat="45.98872" lon="4.75715">
        <ele>180</ele>
        <time>2018-10-12T08:46:17Z</time>
      </trkpt>
      <trkpt lat="45.98878" lon="4.75712">
        <ele>180</ele>
        <time>2018-10-12T08:46:18Z</time>
      </trkpt>
      <trkpt lat="45.98884" lon="4.75709">
        <ele>180</ele>
        <time>2018-10-12T08:46:19Z</time>
      </trkpt>
      <trkpt lat="45.9889" lon="4.75706">
        <ele>180</ele>
        <time>2018-10-12T08:46:20Z</time>
      </trkpt>
      <trkpt lat="45.98896" lon="4.75705">
        <ele>180</ele>
        <time>2018-10-12T08:46:21Z</time>
      </trkpt>
      <trkpt lat="45.98902" lon="4.75703">
        <ele>180</ele>
        <time>2018-10-12T08:46:22Z</time>
      </trkpt>
      <trkpt lat="45.9891" lon="4.75701">
        <ele>180</ele>
        <time>2018-10-12T08:46:23Z</time>
      </trkpt>
      <trkpt lat="45.98915" lon="4.75698">
        <ele>180</ele>
        <time>2018-10-12T08:46:24Z</time>
      </trkpt>
      <trkpt lat="45.98924" lon="4.75694">
        <ele>181</ele>
        <time>2018-10-12T08:46:25Z</time>
      </trkpt>
      <trkpt lat="45.98929" lon="4.75693">
        <ele>181</ele>
        <time>2018-10-12T08:46:26Z</time>
      </trkpt>
      <trkpt lat="45.98935" lon="4.75691">
        <ele>181</ele>
        <time>2018-10-12T08:46:27Z</time>
      </trkpt>
      <trkpt lat="45.98943" lon="4.75686">
        <ele>181</ele>
        <time>2018-10-12T08:46:29Z</time>
      </trkpt>
      <trkpt lat="45.98949" lon="4.75683">
        <ele>181</ele>
        <time>2018-10-12T08:46:30Z</time>
      </trkpt>
      <trkpt lat="45.98953" lon="4.75681">
        <ele>181</ele>
        <time>2018-10-12T08:46:31Z</time>
      </trkpt>
      <trkpt lat="45.98959" lon="4.7568">
        <ele>181</ele>
        <time>2018-10-12T08:46:32Z</time>
      </trkpt>
      <trkpt lat="45.98963" lon="4.75677">
        <ele>181</ele>
        <time>2018-10-12T08:46:33Z</time>
      </trkpt>
      <trkpt lat="45.98968" lon="4.75675">
        <ele>181</ele>
        <time>2018-10-12T08:46:34Z</time>
      </trkpt>
      <trkpt lat="45.98973" lon="4.75673">
        <ele>181</ele>
        <time>2018-10-12T08:46:35Z</time>
      </trkpt>
      <trkpt lat="45.98979" lon="4.75669">
        <ele>181</ele>
        <time>2018-10-12T08:46:36Z</time>
      </trkpt>
      <trkpt lat="45.98989" lon="4.75669">
        <ele>181</ele>
        <time>2018-10-12T08:46:37Z</time>
      </trkpt>
      <trkpt lat="45.98994" lon="4.75668">
        <ele>181</ele>
        <time>2018-10-12T08:46:38Z</time>
      </trkpt>
      <trkpt lat="45.98999" lon="4.75667">
        <ele>180</ele>
        <time>2018-10-12T08:46:39Z</time>
      </trkpt>
      <trkpt lat="45.99005" lon="4.75667">
        <ele>181</ele>
        <time>2018-10-12T08:46:40Z</time>
      </trkpt>
      <trkpt lat="45.99014" lon="4.75669">
        <ele>182</ele>
        <time>2018-10-12T08:46:41Z</time>
      </trkpt>
      <trkpt lat="45.9902" lon="4.75669">
        <ele>182</ele>
        <time>2018-10-12T08:46:42Z</time>
      </trkpt>
      <trkpt lat="45.99025" lon="4.75669">
        <ele>182</ele>
        <time>2018-10-12T08:46:43Z</time>
      </trkpt>
      <trkpt lat="45.99031" lon="4.75669">
        <ele>183</ele>
        <time>2018-10-12T08:46:44Z</time>
      </trkpt>
      <trkpt lat="45.99036" lon="4.7567">
        <ele>183</ele>
        <time>2018-10-12T08:46:45Z</time>
      </trkpt>
      <trkpt lat="45.99041" lon="4.7567">
        <ele>183</ele>
        <time>2018-10-12T08:46:46Z</time>
      </trkpt>
      <trkpt lat="45.99046" lon="4.7567">
        <ele>183</ele>
        <time>2018-10-12T08:46:47Z</time>
      </trkpt>
      <trkpt lat="45.99052" lon="4.75671">
        <ele>183</ele>
        <time>2018-10-12T08:46:48Z</time>
      </trkpt>
      <trkpt lat="45.99057" lon="4.75669">
        <ele>183</ele>
        <time>2018-10-12T08:46:49Z</time>
      </trkpt>
      <trkpt lat="45.99062" lon="4.7567">
        <ele>182</ele>
        <time>2018-10-12T08:46:50Z</time>
      </trkpt>
      <trkpt lat="45.99066" lon="4.75671">
        <ele>182</ele>
        <time>2018-10-12T08:46:51Z</time>
      </trkpt>
      <trkpt lat="45.9907" lon="4.75672">
        <ele>182</ele>
        <time>2018-10-12T08:46:52Z</time>
      </trkpt>
      <trkpt lat="45.99076" lon="4.75671">
        <ele>181</ele>
        <time>2018-10-12T08:46:53Z</time>
      </trkpt>
      <trkpt lat="45.99085" lon="4.75669">
        <ele>180</ele>
        <time>2018-10-12T08:46:55Z</time>
      </trkpt>
      <trkpt lat="45.99088" lon="4.75668">
        <ele>181</ele>
        <time>2018-10-12T08:46:56Z</time>
      </trkpt>
      <trkpt lat="45.99094" lon="4.75667">
        <ele>179</ele>
        <time>2018-10-12T08:46:57Z</time>
      </trkpt>
      <trkpt lat="45.99098" lon="4.75665">
        <ele>179</ele>
        <time>2018-10-12T08:46:58Z</time>
      </trkpt>
      <trkpt lat="45.99104" lon="4.75664">
        <ele>178</ele>
        <time>2018-10-12T08:46:59Z</time>
      </trkpt>
      <trkpt lat="45.99107" lon="4.75662">
        <ele>178</ele>
        <time>2018-10-12T08:47:00Z</time>
      </trkpt>
      <trkpt lat="45.99112" lon="4.7566">
        <ele>178</ele>
        <time>2018-10-12T08:47:01Z</time>
      </trkpt>
      <trkpt lat="45.99116" lon="4.75657">
        <ele>178</ele>
        <time>2018-10-12T08:47:02Z</time>
      </trkpt>
      <trkpt lat="45.9912" lon="4.75655">
        <ele>178</ele>
        <time>2018-10-12T08:47:03Z</time>
      </trkpt>
      <trkpt lat="45.99125" lon="4.75653">
        <ele>178</ele>
        <time>2018-10-12T08:47:04Z</time>
      </trkpt>
      <trkpt lat="45.99133" lon="4.75648">
        <ele>178</ele>
        <time>2018-10-12T08:47:06Z</time>
      </trkpt>
      <trkpt lat="45.99138" lon="4.75643">
        <ele>178</ele>
        <time>2018-10-12T08:47:07Z</time>
      </trkpt>
      <trkpt lat="45.99142" lon="4.75639">
        <ele>178</ele>
        <time>2018-10-12T08:47:08Z</time>
      </trkpt>
      <trkpt lat="45.99147" lon="4.75634">
        <ele>178</ele>
        <time>2018-10-12T08:47:09Z</time>
      </trkpt>
      <trkpt lat="45.99152" lon="4.75629">
        <ele>177</ele>
        <time>2018-10-12T08:47:10Z</time>
      </trkpt>
      <trkpt lat="45.99159" lon="4.75625">
        <ele>177</ele>
        <time>2018-10-12T08:47:11Z</time>
      </trkpt>
      <trkpt lat="45.99165" lon="4.7562">
        <ele>177</ele>
        <time>2018-10-12T08:47:12Z</time>
      </trkpt>
      <trkpt lat="45.99172" lon="4.75615">
        <ele>178</ele>
        <time>2018-10-12T08:47:13Z</time>
      </trkpt>
      <trkpt lat="45.99178" lon="4.75612">
        <ele>178</ele>
        <time>2018-10-12T08:47:14Z</time>
      </trkpt>
      <trkpt lat="45.99184" lon="4.75608">
        <ele>178</ele>
        <time>2018-10-12T08:47:15Z</time>
      </trkpt>
      <trkpt lat="45.9919" lon="4.75602">
        <ele>178</ele>
        <time>2018-10-12T08:47:16Z</time>
      </trkpt>
      <trkpt lat="45.99197" lon="4.75598">
        <ele>178</ele>
        <time>2018-10-12T08:47:17Z</time>
      </trkpt>
      <trkpt lat="45.99203" lon="4.75593">
        <ele>178</ele>
        <time>2018-10-12T08:47:18Z</time>
      </trkpt>
      <trkpt lat="45.99209" lon="4.75589">
        <ele>178</ele>
        <time>2018-10-12T08:47:19Z</time>
      </trkpt>
      <trkpt lat="45.99215" lon="4.75584">
        <ele>178</ele>
        <time>2018-10-12T08:47:20Z</time>
      </trkpt>
      <trkpt lat="45.9922" lon="4.75581">
        <ele>175</ele>
        <time>2018-10-12T08:47:21Z</time>
      </trkpt>
      <trkpt lat="45.99227" lon="4.75577">
        <ele>175</ele>
        <time>2018-10-12T08:47:22Z</time>
      </trkpt>
      <trkpt lat="45.99232" lon="4.75572">
        <ele>175</ele>
        <time>2018-10-12T08:47:23Z</time>
      </trkpt>
      <trkpt lat="45.99239" lon="4.75569">
        <ele>175</ele>
        <time>2018-10-12T08:47:24Z</time>
      </trkpt>
      <trkpt lat="45.99245" lon="4.75566">
        <ele>175</ele>
        <time>2018-10-12T08:47:25Z</time>
      </trkpt>
      <trkpt lat="45.99251" lon="4.75562">
        <ele>177</ele>
        <time>2018-10-12T08:47:26Z</time>
      </trkpt>
      <trkpt lat="45.99257" lon="4.75559">
        <ele>177</ele>
        <time>2018-10-12T08:47:27Z</time>
      </trkpt>
      <trkpt lat="45.99263" lon="4.75556">
        <ele>177</ele>
        <time>2018-10-12T08:47:28Z</time>
      </trkpt>
      <trkpt lat="45.99269" lon="4.75553">
        <ele>177</ele>
        <time>2018-10-12T08:47:29Z</time>
      </trkpt>
      <trkpt lat="45.99271" lon="4.75545">
        <ele>177</ele>
        <time>2018-10-12T08:47:30Z</time>
      </trkpt>
      <trkpt lat="45.99277" lon="4.7554">
        <ele>177</ele>
        <time>2018-10-12T08:47:31Z</time>
      </trkpt>
      <trkpt lat="45.99282" lon="4.75534">
        <ele>177</ele>
        <time>2018-10-12T08:47:32Z</time>
      </trkpt>
      <trkpt lat="45.99288" lon="4.75529">
        <ele>177</ele>
        <time>2018-10-12T08:47:33Z</time>
      </trkpt>
      <trkpt lat="45.99293" lon="4.75524">
        <ele>177</ele>
        <time>2018-10-12T08:47:34Z</time>
      </trkpt>
      <trkpt lat="45.99299" lon="4.75517">
        <ele>177</ele>
        <time>2018-10-12T08:47:35Z</time>
      </trkpt>
      <trkpt lat="45.99304" lon="4.75511">
        <ele>177</ele>
        <time>2018-10-12T08:47:36Z</time>
      </trkpt>
      <trkpt lat="45.99309" lon="4.75505">
        <ele>177</ele>
        <time>2018-10-12T08:47:37Z</time>
      </trkpt>
      <trkpt lat="45.99315" lon="4.75499">
        <ele>175</ele>
        <time>2018-10-12T08:47:38Z</time>
      </trkpt>
      <trkpt lat="45.9932" lon="4.75492">
        <ele>175</ele>
        <time>2018-10-12T08:47:39Z</time>
      </trkpt>
      <trkpt lat="45.99324" lon="4.75485">
        <ele>175</ele>
        <time>2018-10-12T08:47:40Z</time>
      </trkpt>
      <trkpt lat="45.99329" lon="4.75479">
        <ele>175</ele>
        <time>2018-10-12T08:47:41Z</time>
      </trkpt>
      <trkpt lat="45.99332" lon="4.75472">
        <ele>174</ele>
        <time>2018-10-12T08:47:42Z</time>
      </trkpt>
      <trkpt lat="45.99336" lon="4.75465">
        <ele>177</ele>
        <time>2018-10-12T08:47:43Z</time>
      </trkpt>
      <trkpt lat="45.99339" lon="4.7546">
        <ele>177</ele>
        <time>2018-10-12T08:47:44Z</time>
      </trkpt>
      <trkpt lat="45.99343" lon="4.75454">
        <ele>177</ele>
        <time>2018-10-12T08:47:45Z</time>
      </trkpt>
      <trkpt lat="45.99346" lon="4.75449">
        <ele>176</ele>
        <time>2018-10-12T08:47:46Z</time>
      </trkpt>
      <trkpt lat="45.9935" lon="4.75443">
        <ele>176</ele>
        <time>2018-10-12T08:47:47Z</time>
      </trkpt>
      <trkpt lat="45.99355" lon="4.75439">
        <ele>176</ele>
        <time>2018-10-12T08:47:48Z</time>
      </trkpt>
      <trkpt lat="45.99359" lon="4.75433">
        <ele>176</ele>
        <time>2018-10-12T08:47:49Z</time>
      </trkpt>
      <trkpt lat="45.99361" lon="4.75424">
        <ele>176</ele>
        <time>2018-10-12T08:47:50Z</time>
      </trkpt>
      <trkpt lat="45.99362" lon="4.75416">
        <ele>173</ele>
        <time>2018-10-12T08:47:51Z</time>
      </trkpt>
      <trkpt lat="45.99364" lon="4.75404">
        <ele>173</ele>
        <time>2018-10-12T08:47:52Z</time>
      </trkpt>
      <trkpt lat="45.99365" lon="4.75394">
        <ele>173</ele>
        <time>2018-10-12T08:47:53Z</time>
      </trkpt>
      <trkpt lat="45.99366" lon="4.75383">
        <ele>172</ele>
        <time>2018-10-12T08:47:54Z</time>
      </trkpt>
      <trkpt lat="45.9937" lon="4.75375">
        <ele>172</ele>
        <time>2018-10-12T08:47:55Z</time>
      </trkpt>
      <trkpt lat="45.99373" lon="4.75367">
        <ele>172</ele>
        <time>2018-10-12T08:47:56Z</time>
      </trkpt>
      <trkpt lat="45.99376" lon="4.7536">
        <ele>172</ele>
        <time>2018-10-12T08:47:57Z</time>
      </trkpt>
      <trkpt lat="45.99379" lon="4.75354">
        <ele>172</ele>
        <time>2018-10-12T08:47:58Z</time>
      </trkpt>
      <trkpt lat="45.99383" lon="4.75349">
        <ele>172</ele>
        <time>2018-10-12T08:47:59Z</time>
      </trkpt>
      <trkpt lat="45.99387" lon="4.75344">
        <ele>171</ele>
        <time>2018-10-12T08:48:00Z</time>
      </trkpt>
      <trkpt lat="45.99391" lon="4.75339">
        <ele>171</ele>
        <time>2018-10-12T08:48:01Z</time>
      </trkpt>
      <trkpt lat="45.99396" lon="4.75335">
        <ele>171</ele>
        <time>2018-10-12T08:48:02Z</time>
      </trkpt>
      <trkpt lat="45.99401" lon="4.75332">
        <ele>170</ele>
        <time>2018-10-12T08:48:03Z</time>
      </trkpt>
      <trkpt lat="45.99407" lon="4.75329">
        <ele>170</ele>
        <time>2018-10-12T08:48:04Z</time>
      </trkpt>
      <trkpt lat="45.99411" lon="4.75326">
        <ele>170</ele>
        <time>2018-10-12T08:48:05Z</time>
      </trkpt>
      <trkpt lat="45.99416" lon="4.75323">
        <ele>170</ele>
        <time>2018-10-12T08:48:06Z</time>
      </trkpt>
      <trkpt lat="45.99422" lon="4.75321">
        <ele>170</ele>
        <time>2018-10-12T08:48:07Z</time>
      </trkpt>
      <trkpt lat="45.99427" lon="4.7532">
        <ele>171</ele>
        <time>2018-10-12T08:48:08Z</time>
      </trkpt>
      <trkpt lat="45.99433" lon="4.7532">
        <ele>171</ele>
        <time>2018-10-12T08:48:09Z</time>
      </trkpt>
      <trkpt lat="45.99439" lon="4.75319">
        <ele>171</ele>
        <time>2018-10-12T08:48:10Z</time>
      </trkpt>
      <trkpt lat="45.99445" lon="4.75318">
        <ele>171</ele>
        <time>2018-10-12T08:48:11Z</time>
      </trkpt>
      <trkpt lat="45.99451" lon="4.75317">
        <ele>171</ele>
        <time>2018-10-12T08:48:12Z</time>
      </trkpt>
      <trkpt lat="45.99456" lon="4.75317">
        <ele>171</ele>
        <time>2018-10-12T08:48:13Z</time>
      </trkpt>
      <trkpt lat="45.99462" lon="4.75316">
        <ele>171</ele>
        <time>2018-10-12T08:48:14Z</time>
      </trkpt>
      <trkpt lat="45.99468" lon="4.75315">
        <ele>171</ele>
        <time>2018-10-12T08:48:15Z</time>
      </trkpt>
      <trkpt lat="45.99474" lon="4.75313">
        <ele>171</ele>
        <time>2018-10-12T08:48:16Z</time>
      </trkpt>
      <trkpt lat="45.99479" lon="4.75313">
        <ele>171</ele>
        <time>2018-10-12T08:48:17Z</time>
      </trkpt>
      <trkpt lat="45.99485" lon="4.75313">
        <ele>171</ele>
        <time>2018-10-12T08:48:18Z</time>
      </trkpt>
      <trkpt lat="45.9949" lon="4.75312">
        <ele>171</ele>
        <time>2018-10-12T08:48:19Z</time>
      </trkpt>
      <trkpt lat="45.99496" lon="4.75312">
        <ele>171</ele>
        <time>2018-10-12T08:48:20Z</time>
      </trkpt>
      <trkpt lat="45.99501" lon="4.75311">
        <ele>172</ele>
        <time>2018-10-12T08:48:21Z</time>
      </trkpt>
      <trkpt lat="45.99506" lon="4.75311">
        <ele>172</ele>
        <time>2018-10-12T08:48:22Z</time>
      </trkpt>
      <trkpt lat="45.99512" lon="4.75312">
        <ele>172</ele>
        <time>2018-10-12T08:48:23Z</time>
      </trkpt>
      <trkpt lat="45.99518" lon="4.75311">
        <ele>172</ele>
        <time>2018-10-12T08:48:24Z</time>
      </trkpt>
      <trkpt lat="45.99524" lon="4.75312">
        <ele>172</ele>
        <time>2018-10-12T08:48:25Z</time>
      </trkpt>
      <trkpt lat="45.99528" lon="4.75311">
        <ele>172</ele>
        <time>2018-10-12T08:48:26Z</time>
      </trkpt>
      <trkpt lat="45.99534" lon="4.75312">
        <ele>172</ele>
        <time>2018-10-12T08:48:27Z</time>
      </trkpt>
      <trkpt lat="45.99539" lon="4.75312">
        <ele>172</ele>
        <time>2018-10-12T08:48:28Z</time>
      </trkpt>
      <trkpt lat="45.99543" lon="4.75312">
        <ele>172</ele>
        <time>2018-10-12T08:48:29Z</time>
      </trkpt>
      <trkpt lat="45.99551" lon="4.75317">
        <ele>172</ele>
        <time>2018-10-12T08:48:31Z</time>
      </trkpt>
      <trkpt lat="45.99554" lon="4.75321">
        <ele>172</ele>
        <time>2018-10-12T08:48:32Z</time>
      </trkpt>
      <trkpt lat="45.99558" lon="4.75325">
        <ele>172</ele>
        <time>2018-10-12T08:48:33Z</time>
      </trkpt>
      <trkpt lat="45.99562" lon="4.75327">
        <ele>172</ele>
        <time>2018-10-12T08:48:34Z</time>
      </trkpt>
      <trkpt lat="45.99567" lon="4.7533">
        <ele>173</ele>
        <time>2018-10-12T08:48:35Z</time>
      </trkpt>
      <trkpt lat="45.99573" lon="4.7533">
        <ele>173</ele>
        <time>2018-10-12T08:48:36Z</time>
      </trkpt>
      <trkpt lat="45.99578" lon="4.75328">
        <ele>173</ele>
        <time>2018-10-12T08:48:37Z</time>
      </trkpt>
      <trkpt lat="45.99583" lon="4.75325">
        <ele>173</ele>
        <time>2018-10-12T08:48:38Z</time>
      </trkpt>
      <trkpt lat="45.99587" lon="4.7532">
        <ele>173</ele>
        <time>2018-10-12T08:48:39Z</time>
      </trkpt>
      <trkpt lat="45.9959" lon="4.75315">
        <ele>174</ele>
        <time>2018-10-12T08:48:40Z</time>
      </trkpt>
      <trkpt lat="45.99593" lon="4.75308">
        <ele>174</ele>
        <time>2018-10-12T08:48:41Z</time>
      </trkpt>
      <trkpt lat="45.99596" lon="4.75302">
        <ele>174</ele>
        <time>2018-10-12T08:48:42Z</time>
      </trkpt>
      <trkpt lat="45.996" lon="4.75295">
        <ele>174</ele>
        <time>2018-10-12T08:48:43Z</time>
      </trkpt>
      <trkpt lat="45.99604" lon="4.75291">
        <ele>174</ele>
        <time>2018-10-12T08:48:44Z</time>
      </trkpt>
      <trkpt lat="45.99609" lon="4.75287">
        <ele>174</ele>
        <time>2018-10-12T08:48:45Z</time>
      </trkpt>
      <trkpt lat="45.99616" lon="4.75285">
        <ele>174</ele>
        <time>2018-10-12T08:48:46Z</time>
      </trkpt>
      <trkpt lat="45.99622" lon="4.75283">
        <ele>174</ele>
        <time>2018-10-12T08:48:47Z</time>
      </trkpt>
      <trkpt lat="45.9963" lon="4.75283">
        <ele>174</ele>
        <time>2018-10-12T08:48:48Z</time>
      </trkpt>
      <trkpt lat="45.99636" lon="4.75283">
        <ele>174</ele>
        <time>2018-10-12T08:48:49Z</time>
      </trkpt>
      <trkpt lat="45.99644" lon="4.75284">
        <ele>174</ele>
        <time>2018-10-12T08:48:50Z</time>
      </trkpt>
      <trkpt lat="45.99652" lon="4.75283">
        <ele>174</ele>
        <time>2018-10-12T08:48:51Z</time>
      </trkpt>
      <trkpt lat="45.9966" lon="4.75281">
        <ele>174</ele>
        <time>2018-10-12T08:48:52Z</time>
      </trkpt>
      <trkpt lat="45.99668" lon="4.75278">
        <ele>176</ele>
        <time>2018-10-12T08:48:53Z</time>
      </trkpt>
      <trkpt lat="45.99676" lon="4.75274">
        <ele>176</ele>
        <time>2018-10-12T08:48:54Z</time>
      </trkpt>
      <trkpt lat="45.99683" lon="4.7527">
        <ele>176</ele>
        <time>2018-10-12T08:48:55Z</time>
      </trkpt>
      <trkpt lat="45.9969" lon="4.75267">
        <ele>176</ele>
        <time>2018-10-12T08:48:56Z</time>
      </trkpt>
      <trkpt lat="45.99697" lon="4.75264">
        <ele>176</ele>
        <time>2018-10-12T08:48:57Z</time>
      </trkpt>
      <trkpt lat="45.99704" lon="4.7526">
        <ele>176</ele>
        <time>2018-10-12T08:48:58Z</time>
      </trkpt>
      <trkpt lat="45.9971" lon="4.75257">
        <ele>176</ele>
        <time>2018-10-12T08:48:59Z</time>
      </trkpt>
      <trkpt lat="45.99717" lon="4.75254">
        <ele>176</ele>
        <time>2018-10-12T08:49:00Z</time>
      </trkpt>
      <trkpt lat="45.99724" lon="4.75251">
        <ele>176</ele>
        <time>2018-10-12T08:49:01Z</time>
      </trkpt>
      <trkpt lat="45.99731" lon="4.75248">
        <ele>175</ele>
        <time>2018-10-12T08:49:02Z</time>
      </trkpt>
      <trkpt lat="45.99737" lon="4.75245">
        <ele>175</ele>
        <time>2018-10-12T08:49:03Z</time>
      </trkpt>
      <trkpt lat="45.99745" lon="4.75242">
        <ele>175</ele>
        <time>2018-10-12T08:49:04Z</time>
      </trkpt>
      <trkpt lat="45.99752" lon="4.75239">
        <ele>175</ele>
        <time>2018-10-12T08:49:05Z</time>
      </trkpt>
      <trkpt lat="45.99758" lon="4.75237">
        <ele>175</ele>
        <time>2018-10-12T08:49:06Z</time>
      </trkpt>
      <trkpt lat="45.99764" lon="4.75232">
        <ele>175</ele>
        <time>2018-10-12T08:49:07Z</time>
      </trkpt>
      <trkpt lat="45.9977" lon="4.75229">
        <ele>175</ele>
        <time>2018-10-12T08:49:08Z</time>
      </trkpt>
      <trkpt lat="45.99776" lon="4.75227">
        <ele>175</ele>
        <time>2018-10-12T08:49:09Z</time>
      </trkpt>
      <trkpt lat="45.99782" lon="4.75222">
        <ele>175</ele>
        <time>2018-10-12T08:49:10Z</time>
      </trkpt>
      <trkpt lat="45.99788" lon="4.7522">
        <ele>175</ele>
        <time>2018-10-12T08:49:11Z</time>
      </trkpt>
      <trkpt lat="45.99794" lon="4.75216">
        <ele>174</ele>
        <time>2018-10-12T08:49:12Z</time>
      </trkpt>
      <trkpt lat="45.998" lon="4.75214">
        <ele>174</ele>
        <time>2018-10-12T08:49:13Z</time>
      </trkpt>
      <trkpt lat="45.99806" lon="4.75212">
        <ele>174</ele>
        <time>2018-10-12T08:49:14Z</time>
      </trkpt>
      <trkpt lat="45.99812" lon="4.75209">
        <ele>174</ele>
        <time>2018-10-12T08:49:15Z</time>
      </trkpt>
      <trkpt lat="45.99819" lon="4.75206">
        <ele>174</ele>
        <time>2018-10-12T08:49:16Z</time>
      </trkpt>
      <trkpt lat="45.99825" lon="4.75202">
        <ele>174</ele>
        <time>2018-10-12T08:49:17Z</time>
      </trkpt>
      <trkpt lat="45.99832" lon="4.75199">
        <ele>174</ele>
        <time>2018-10-12T08:49:18Z</time>
      </trkpt>
      <trkpt lat="45.99838" lon="4.75196">
        <ele>174</ele>
        <time>2018-10-12T08:49:19Z</time>
      </trkpt>
      <trkpt lat="45.99844" lon="4.75193">
        <ele>174</ele>
        <time>2018-10-12T08:49:20Z</time>
      </trkpt>
      <trkpt lat="45.9985" lon="4.75191">
        <ele>174</ele>
        <time>2018-10-12T08:49:21Z</time>
      </trkpt>
      <trkpt lat="45.99854" lon="4.75189">
        <ele>174</ele>
        <time>2018-10-12T08:49:22Z</time>
      </trkpt>
      <trkpt lat="45.9986" lon="4.75186">
        <ele>174</ele>
        <time>2018-10-12T08:49:23Z</time>
      </trkpt>
      <trkpt lat="45.99865" lon="4.75184">
        <ele>174</ele>
        <time>2018-10-12T08:49:24Z</time>
      </trkpt>
      <trkpt lat="45.99869" lon="4.75182">
        <ele>174</ele>
        <time>2018-10-12T08:49:25Z</time>
      </trkpt>
      <trkpt lat="45.99874" lon="4.75178">
        <ele>174</ele>
        <time>2018-10-12T08:49:26Z</time>
      </trkpt>
      <trkpt lat="45.99879" lon="4.75175">
        <ele>174</ele>
        <time>2018-10-12T08:49:27Z</time>
      </trkpt>
      <trkpt lat="45.99885" lon="4.75173">
        <ele>174</ele>
        <time>2018-10-12T08:49:28Z</time>
      </trkpt>
      <trkpt lat="45.99891" lon="4.7517">
        <ele>174</ele>
        <time>2018-10-12T08:49:29Z</time>
      </trkpt>
      <trkpt lat="45.99897" lon="4.75168">
        <ele>174</ele>
        <time>2018-10-12T08:49:30Z</time>
      </trkpt>
      <trkpt lat="45.99903" lon="4.75166">
        <ele>173</ele>
        <time>2018-10-12T08:49:31Z</time>
      </trkpt>
      <trkpt lat="45.99909" lon="4.75163">
        <ele>173</ele>
        <time>2018-10-12T08:49:32Z</time>
      </trkpt>
      <trkpt lat="45.99915" lon="4.75161">
        <ele>173</ele>
        <time>2018-10-12T08:49:33Z</time>
      </trkpt>
      <trkpt lat="45.99921" lon="4.75159">
        <ele>173</ele>
        <time>2018-10-12T08:49:34Z</time>
      </trkpt>
      <trkpt lat="45.99927" lon="4.75156">
        <ele>173</ele>
        <time>2018-10-12T08:49:35Z</time>
      </trkpt>
      <trkpt lat="45.99932" lon="4.75154">
        <ele>173</ele>
        <time>2018-10-12T08:49:36Z</time>
      </trkpt>
      <trkpt lat="45.99938" lon="4.75151">
        <ele>173</ele>
        <time>2018-10-12T08:49:37Z</time>
      </trkpt>
      <trkpt lat="45.99944" lon="4.75149">
        <ele>173</ele>
        <time>2018-10-12T08:49:38Z</time>
      </trkpt>
      <trkpt lat="45.9995" lon="4.75146">
        <ele>173</ele>
        <time>2018-10-12T08:49:39Z</time>
      </trkpt>
      <trkpt lat="45.99955" lon="4.75144">
        <ele>173</ele>
        <time>2018-10-12T08:49:40Z</time>
      </trkpt>
      <trkpt lat="45.9996" lon="4.75143">
        <ele>173</ele>
        <time>2018-10-12T08:49:41Z</time>
      </trkpt>
      <trkpt lat="45.99964" lon="4.75141">
        <ele>173</ele>
        <time>2018-10-12T08:49:42Z</time>
      </trkpt>
      <trkpt lat="45.99969" lon="4.75138">
        <ele>173</ele>
        <time>2018-10-12T08:49:43Z</time>
      </trkpt>
      <trkpt lat="45.99974" lon="4.75136">
        <ele>173</ele>
        <time>2018-10-12T08:49:44Z</time>
      </trkpt>
      <trkpt lat="45.99979" lon="4.75133">
        <ele>173</ele>
        <time>2018-10-12T08:49:45Z</time>
      </trkpt>
      <trkpt lat="45.99985" lon="4.75131">
        <ele>173</ele>
        <time>2018-10-12T08:49:46Z</time>
      </trkpt>
      <trkpt lat="45.9999" lon="4.75129">
        <ele>173</ele>
        <time>2018-10-12T08:49:47Z</time>
      </trkpt>
      <trkpt lat="45.99996" lon="4.75127">
        <ele>173</ele>
        <time>2018-10-12T08:49:48Z</time>
      </trkpt>
      <trkpt lat="46.00002" lon="4.75126">
        <ele>174</ele>
        <time>2018-10-12T08:49:49Z</time>
      </trkpt>
      <trkpt lat="46.00009" lon="4.75124">
        <ele>174</ele>
        <time>2018-10-12T08:49:50Z</time>
      </trkpt>
      <trkpt lat="46.00016" lon="4.75122">
        <ele>174</ele>
        <time>2018-10-12T08:49:51Z</time>
      </trkpt>
      <trkpt lat="46.00022" lon="4.7512">
        <ele>174</ele>
        <time>2018-10-12T08:49:52Z</time>
      </trkpt>
      <trkpt lat="46.00027" lon="4.75119">
        <ele>174</ele>
        <time>2018-10-12T08:49:53Z</time>
      </trkpt>
      <trkpt lat="46.00032" lon="4.75118">
        <ele>174</ele>
        <time>2018-10-12T08:49:54Z</time>
      </trkpt>
      <trkpt lat="46.00036" lon="4.75117">
        <ele>174</ele>
        <time>2018-10-12T08:49:55Z</time>
      </trkpt>
      <trkpt lat="46.00042" lon="4.75117">
        <ele>174</ele>
        <time>2018-10-12T08:49:56Z</time>
      </trkpt>
      <trkpt lat="46.00047" lon="4.75117">
        <ele>174</ele>
        <time>2018-10-12T08:49:57Z</time>
      </trkpt>
      <trkpt lat="46.00052" lon="4.75118">
        <ele>174</ele>
        <time>2018-10-12T08:49:58Z</time>
      </trkpt>
      <trkpt lat="46.00058" lon="4.75117">
        <ele>174</ele>
        <time>2018-10-12T08:49:59Z</time>
      </trkpt>
      <trkpt lat="46.00064" lon="4.75116">
        <ele>174</ele>
        <time>2018-10-12T08:50:00Z</time>
      </trkpt>
      <trkpt lat="46.0007" lon="4.75117">
        <ele>174</ele>
        <time>2018-10-12T08:50:01Z</time>
      </trkpt>
      <trkpt lat="46.00076" lon="4.75118">
        <ele>174</ele>
        <time>2018-10-12T08:50:02Z</time>
      </trkpt>
      <trkpt lat="46.00082" lon="4.75118">
        <ele>174</ele>
        <time>2018-10-12T08:50:03Z</time>
      </trkpt>
      <trkpt lat="46.00087" lon="4.75118">
        <ele>175</ele>
        <time>2018-10-12T08:50:04Z</time>
      </trkpt>
      <trkpt lat="46.00093" lon="4.75122">
        <ele>175</ele>
        <time>2018-10-12T08:50:05Z</time>
      </trkpt>
      <trkpt lat="46.00098" lon="4.75127">
        <ele>175</ele>
        <time>2018-10-12T08:50:06Z</time>
      </trkpt>
      <trkpt lat="46.00104" lon="4.75124">
        <ele>175</ele>
        <time>2018-10-12T08:50:07Z</time>
      </trkpt>
      <trkpt lat="46.0011" lon="4.75125">
        <ele>175</ele>
        <time>2018-10-12T08:50:08Z</time>
      </trkpt>
      <trkpt lat="46.00114" lon="4.75118">
        <ele>175</ele>
        <time>2018-10-12T08:50:09Z</time>
      </trkpt>
      <trkpt lat="46.0012" lon="4.75119">
        <ele>175</ele>
        <time>2018-10-12T08:50:10Z</time>
      </trkpt>
      <trkpt lat="46.00124" lon="4.75118">
        <ele>175</ele>
        <time>2018-10-12T08:50:11Z</time>
      </trkpt>
      <trkpt lat="46.00129" lon="4.75119">
        <ele>175</ele>
        <time>2018-10-12T08:50:12Z</time>
      </trkpt>
      <trkpt lat="46.00135" lon="4.75118">
        <ele>175</ele>
        <time>2018-10-12T08:50:13Z</time>
      </trkpt>
      <trkpt lat="46.00141" lon="4.75118">
        <ele>175</ele>
        <time>2018-10-12T08:50:14Z</time>
      </trkpt>
      <trkpt lat="46.00147" lon="4.75117">
        <ele>175</ele>
        <time>2018-10-12T08:50:15Z</time>
      </trkpt>
      <trkpt lat="46.00153" lon="4.75116">
        <ele>175</ele>
        <time>2018-10-12T08:50:16Z</time>
      </trkpt>
      <trkpt lat="46.00159" lon="4.75117">
        <ele>175</ele>
        <time>2018-10-12T08:50:17Z</time>
      </trkpt>
      <trkpt lat="46.00165" lon="4.75118">
        <ele>175</ele>
        <time>2018-10-12T08:50:18Z</time>
      </trkpt>
      <trkpt lat="46.0017" lon="4.75119">
        <ele>176</ele>
        <time>2018-10-12T08:50:19Z</time>
      </trkpt>
      <trkpt lat="46.00176" lon="4.75119">
        <ele>176</ele>
        <time>2018-10-12T08:50:20Z</time>
      </trkpt>
      <trkpt lat="46.00182" lon="4.7512">
        <ele>176</ele>
        <time>2018-10-12T08:50:21Z</time>
      </trkpt>
      <trkpt lat="46.00186" lon="4.75119">
        <ele>176</ele>
        <time>2018-10-12T08:50:22Z</time>
      </trkpt>
      <trkpt lat="46.00193" lon="4.75121">
        <ele>176</ele>
        <time>2018-10-12T08:50:23Z</time>
      </trkpt>
      <trkpt lat="46.00198" lon="4.7512">
        <ele>176</ele>
        <time>2018-10-12T08:50:24Z</time>
      </trkpt>
      <trkpt lat="46.00205" lon="4.75119">
        <ele>176</ele>
        <time>2018-10-12T08:50:26Z</time>
      </trkpt>
      <trkpt lat="46.00207" lon="4.75122">
        <ele>176</ele>
        <time>2018-10-12T08:50:27Z</time>
      </trkpt>
      <trkpt lat="46.00208" lon="4.75132">
        <ele>176</ele>
        <time>2018-10-12T08:50:30Z</time>
      </trkpt>
      <trkpt lat="46.00208" lon="4.75138">
        <ele>176</ele>
        <time>2018-10-12T08:50:31Z</time>
      </trkpt>
      <trkpt lat="46.00207" lon="4.75149">
        <ele>177</ele>
        <time>2018-10-12T08:50:33Z</time>
      </trkpt>
      <trkpt lat="46.00207" lon="4.75154">
        <ele>177</ele>
        <time>2018-10-12T08:50:34Z</time>
      </trkpt>
      <trkpt lat="46.00208" lon="4.75163">
        <ele>177</ele>
        <time>2018-10-12T08:50:36Z</time>
      </trkpt>
      <trkpt lat="46.00208" lon="4.75167">
        <ele>179</ele>
        <time>2018-10-12T08:50:37Z</time>
      </trkpt>
      <trkpt lat="46.00208" lon="4.75176">
        <ele>179</ele>
        <time>2018-10-12T08:50:39Z</time>
      </trkpt>
      <trkpt lat="46.00208" lon="4.7518">
        <ele>179</ele>
        <time>2018-10-12T08:50:40Z</time>
      </trkpt>
      <trkpt lat="46.00208" lon="4.75192">
        <ele>179</ele>
        <time>2018-10-12T08:50:43Z</time>
      </trkpt>
      <trkpt lat="46.00208" lon="4.75196">
        <ele>179</ele>
        <time>2018-10-12T08:50:44Z</time>
      </trkpt>
      <trkpt lat="46.00207" lon="4.75207">
        <ele>179</ele>
        <time>2018-10-12T08:50:47Z</time>
      </trkpt>
      <trkpt lat="46.00208" lon="4.75213">
        <ele>180</ele>
        <time>2018-10-12T08:50:48Z</time>
      </trkpt>
      <trkpt lat="46.00208" lon="4.75225">
        <ele>180</ele>
        <time>2018-10-12T08:50:51Z</time>
      </trkpt>
      <trkpt lat="46.00208" lon="4.7523">
        <ele>180</ele>
        <time>2018-10-12T08:50:52Z</time>
      </trkpt>
      <trkpt lat="46.00207" lon="4.7524">
        <ele>180</ele>
        <time>2018-10-12T08:50:56Z</time>
      </trkpt>
      <trkpt lat="46.00207" lon="4.75244">
        <ele>180</ele>
        <time>2018-10-12T08:50:57Z</time>
      </trkpt>
      <trkpt lat="46.00207" lon="4.75253">
        <ele>184</ele>
        <time>2018-10-12T08:51:00Z</time>
      </trkpt>
      <trkpt lat="46.00207" lon="4.75258">
        <ele>184</ele>
        <time>2018-10-12T08:51:01Z</time>
      </trkpt>
      <trkpt lat="46.00208" lon="4.7527">
        <ele>184</ele>
        <time>2018-10-12T08:51:05Z</time>
      </trkpt>
      <trkpt lat="46.00208" lon="4.75274">
        <ele>184</ele>
        <time>2018-10-12T08:51:06Z</time>
      </trkpt>
      <trkpt lat="46.00208" lon="4.75285">
        <ele>185</ele>
        <time>2018-10-12T08:51:10Z</time>
      </trkpt>
      <trkpt lat="46.00208" lon="4.75289">
        <ele>185</ele>
        <time>2018-10-12T08:51:11Z</time>
      </trkpt>
      <trkpt lat="46.00208" lon="4.75298">
        <ele>185</ele>
        <time>2018-10-12T08:51:13Z</time>
      </trkpt>
      <trkpt lat="46.00208" lon="4.75302">
        <ele>185</ele>
        <time>2018-10-12T08:51:14Z</time>
      </trkpt>
      <trkpt lat="46.00208" lon="4.75312">
        <ele>186</ele>
        <time>2018-10-12T08:51:18Z</time>
      </trkpt>
      <trkpt lat="46.00208" lon="4.75315">
        <ele>186</ele>
        <time>2018-10-12T08:51:19Z</time>
      </trkpt>
      <trkpt lat="46.00207" lon="4.75325">
        <ele>186</ele>
        <time>2018-10-12T08:51:22Z</time>
      </trkpt>
      <trkpt lat="46.00207" lon="4.75329">
        <ele>186</ele>
        <time>2018-10-12T08:51:23Z</time>
      </trkpt>
      <trkpt lat="46.00207" lon="4.75341">
        <ele>191</ele>
        <time>2018-10-12T08:51:26Z</time>
      </trkpt>
      <trkpt lat="46.00207" lon="4.75346">
        <ele>191</ele>
        <time>2018-10-12T08:51:27Z</time>
      </trkpt>
      <trkpt lat="46.00207" lon="4.75357">
        <ele>191</ele>
        <time>2018-10-12T08:51:30Z</time>
      </trkpt>
      <trkpt lat="46.00208" lon="4.75361">
        <ele>191</ele>
        <time>2018-10-12T08:51:31Z</time>
      </trkpt>
      <trkpt lat="46.00208" lon="4.75372">
        <ele>191</ele>
        <time>2018-10-12T08:51:34Z</time>
      </trkpt>
      <trkpt lat="46.00208" lon="4.75377">
        <ele>192</ele>
        <time>2018-10-12T08:51:35Z</time>
      </trkpt>
      <trkpt lat="46.00209" lon="4.75387">
        <ele>192</ele>
        <time>2018-10-12T08:51:38Z</time>
      </trkpt>
      <trkpt lat="46.00209" lon="4.7539">
        <ele>192</ele>
        <time>2018-10-12T08:51:39Z</time>
      </trkpt>
      <trkpt lat="46.00211" lon="4.75403">
        <ele>192</ele>
        <time>2018-10-12T08:51:43Z</time>
      </trkpt>
      <trkpt lat="46.00211" lon="4.75407">
        <ele>192</ele>
        <time>2018-10-12T08:51:44Z</time>
      </trkpt>
      <trkpt lat="46.0021" lon="4.75418">
        <ele>196</ele>
        <time>2018-10-12T08:51:47Z</time>
      </trkpt>
      <trkpt lat="46.0021" lon="4.75421">
        <ele>196</ele>
        <time>2018-10-12T08:51:48Z</time>
      </trkpt>
      <trkpt lat="46.00211" lon="4.75433">
        <ele>197</ele>
        <time>2018-10-12T08:51:51Z</time>
      </trkpt>
      <trkpt lat="46.00211" lon="4.75437">
        <ele>197</ele>
        <time>2018-10-12T08:51:52Z</time>
      </trkpt>
      <trkpt lat="46.00211" lon="4.75446">
        <ele>197</ele>
        <time>2018-10-12T08:51:55Z</time>
      </trkpt>
      <trkpt lat="46.00211" lon="4.7545">
        <ele>197</ele>
        <time>2018-10-12T08:51:56Z</time>
      </trkpt>
      <trkpt lat="46.00212" lon="4.75462">
        <ele>198</ele>
        <time>2018-10-12T08:51:59Z</time>
      </trkpt>
      <trkpt lat="46.00212" lon="4.75466">
        <ele>198</ele>
        <time>2018-10-12T08:52:00Z</time>
      </trkpt>
      <trkpt lat="46.00212" lon="4.75476">
        <ele>198</ele>
        <time>2018-10-12T08:52:03Z</time>
      </trkpt>
      <trkpt lat="46.00212" lon="4.75479">
        <ele>198</ele>
        <time>2018-10-12T08:52:04Z</time>
      </trkpt>
      <trkpt lat="46.00212" lon="4.75487">
        <ele>198</ele>
        <time>2018-10-12T08:52:06Z</time>
      </trkpt>
      <trkpt lat="46.00212" lon="4.75492">
        <ele>198</ele>
        <time>2018-10-12T08:52:07Z</time>
      </trkpt>
      <trkpt lat="46.00212" lon="4.75503">
        <ele>204</ele>
        <time>2018-10-12T08:52:10Z</time>
      </trkpt>
      <trkpt lat="46.00212" lon="4.75506">
        <ele>204</ele>
        <time>2018-10-12T08:52:11Z</time>
      </trkpt>
      <trkpt lat="46.00213" lon="4.75516">
        <ele>204</ele>
        <time>2018-10-12T08:52:14Z</time>
      </trkpt>
      <trkpt lat="46.00213" lon="4.75519">
        <ele>204</ele>
        <time>2018-10-12T08:52:15Z</time>
      </trkpt>
      <trkpt lat="46.00212" lon="4.75531">
        <ele>205</ele>
        <time>2018-10-12T08:52:19Z</time>
      </trkpt>
      <trkpt lat="46.00212" lon="4.75534">
        <ele>206</ele>
        <time>2018-10-12T08:52:20Z</time>
      </trkpt>
      <trkpt lat="46.00213" lon="4.75546">
        <ele>206</ele>
        <time>2018-10-12T08:52:24Z</time>
      </trkpt>
      <trkpt lat="46.00214" lon="4.75549">
        <ele>206</ele>
        <time>2018-10-12T08:52:25Z</time>
      </trkpt>
      <trkpt lat="46.00218" lon="4.7556">
        <ele>207</ele>
        <time>2018-10-12T08:52:28Z</time>
      </trkpt>
      <trkpt lat="46.00219" lon="4.75563">
        <ele>207</ele>
        <time>2018-10-12T08:52:29Z</time>
      </trkpt>
      <trkpt lat="46.00224" lon="4.75573">
        <ele>206</ele>
        <time>2018-10-12T08:52:32Z</time>
      </trkpt>
      <trkpt lat="46.00226" lon="4.75576">
        <ele>206</ele>
        <time>2018-10-12T08:52:33Z</time>
      </trkpt>
      <trkpt lat="46.00231" lon="4.75585">
        <ele>210</ele>
        <time>2018-10-12T08:52:36Z</time>
      </trkpt>
      <trkpt lat="46.00233" lon="4.75587">
        <ele>210</ele>
        <time>2018-10-12T08:52:37Z</time>
      </trkpt>
      <trkpt lat="46.00238" lon="4.75594">
        <ele>209</ele>
        <time>2018-10-12T08:52:40Z</time>
      </trkpt>
      <trkpt lat="46.0024" lon="4.75596">
        <ele>209</ele>
        <time>2018-10-12T08:52:41Z</time>
      </trkpt>
      <trkpt lat="46.00245" lon="4.75603">
        <ele>210</ele>
        <time>2018-10-12T08:52:44Z</time>
      </trkpt>
      <trkpt lat="46.00248" lon="4.75607">
        <ele>211</ele>
        <time>2018-10-12T08:52:45Z</time>
      </trkpt>
      <trkpt lat="46.00252" lon="4.75614">
        <ele>206</ele>
        <time>2018-10-12T08:52:47Z</time>
      </trkpt>
      <trkpt lat="46.00254" lon="4.75618">
        <ele>206</ele>
        <time>2018-10-12T08:52:48Z</time>
      </trkpt>
      <trkpt lat="46.0026" lon="4.75626">
        <ele>206</ele>
        <time>2018-10-12T08:52:52Z</time>
      </trkpt>
      <trkpt lat="46.00262" lon="4.75629">
        <ele>207</ele>
        <time>2018-10-12T08:52:53Z</time>
      </trkpt>
      <trkpt lat="46.00267" lon="4.75637">
        <ele>207</ele>
        <time>2018-10-12T08:52:56Z</time>
      </trkpt>
      <trkpt lat="46.00269" lon="4.7564">
        <ele>207</ele>
        <time>2018-10-12T08:52:57Z</time>
      </trkpt>
      <trkpt lat="46.00274" lon="4.75648">
        <ele>207</ele>
        <time>2018-10-12T08:53:00Z</time>
      </trkpt>
      <trkpt lat="46.00276" lon="4.75651">
        <ele>207</ele>
        <time>2018-10-12T08:53:01Z</time>
      </trkpt>
      <trkpt lat="46.00282" lon="4.75661">
        <ele>207</ele>
        <time>2018-10-12T08:53:04Z</time>
      </trkpt>
      <trkpt lat="46.00283" lon="4.75664">
        <ele>207</ele>
        <time>2018-10-12T08:53:05Z</time>
      </trkpt>
      <trkpt lat="46.00289" lon="4.75673">
        <ele>209</ele>
        <time>2018-10-12T08:53:08Z</time>
      </trkpt>
      <trkpt lat="46.0029" lon="4.75676">
        <ele>209</ele>
        <time>2018-10-12T08:53:09Z</time>
      </trkpt>
      <trkpt lat="46.00296" lon="4.75684">
        <ele>208</ele>
        <time>2018-10-12T08:53:12Z</time>
      </trkpt>
      <trkpt lat="46.00298" lon="4.75686">
        <ele>208</ele>
        <time>2018-10-12T08:53:13Z</time>
      </trkpt>
      <trkpt lat="46.00304" lon="4.75694">
        <ele>208</ele>
        <time>2018-10-12T08:53:16Z</time>
      </trkpt>
      <trkpt lat="46.00305" lon="4.75696">
        <ele>208</ele>
        <time>2018-10-12T08:53:17Z</time>
      </trkpt>
      <trkpt lat="46.00311" lon="4.75704">
        <ele>208</ele>
        <time>2018-10-12T08:53:20Z</time>
      </trkpt>
      <trkpt lat="46.00312" lon="4.75707">
        <ele>208</ele>
        <time>2018-10-12T08:53:21Z</time>
      </trkpt>
      <trkpt lat="46.00318" lon="4.75715">
        <ele>208</ele>
        <time>2018-10-12T08:53:24Z</time>
      </trkpt>
      <trkpt lat="46.00321" lon="4.75718">
        <ele>208</ele>
        <time>2018-10-12T08:53:25Z</time>
      </trkpt>
      <trkpt lat="46.00324" lon="4.75724">
        <ele>208</ele>
        <time>2018-10-12T08:53:27Z</time>
      </trkpt>
      <trkpt lat="46.00327" lon="4.75727">
        <ele>208</ele>
        <time>2018-10-12T08:53:28Z</time>
      </trkpt>
      <trkpt lat="46.00333" lon="4.75736">
        <ele>208</ele>
        <time>2018-10-12T08:53:31Z</time>
      </trkpt>
      <trkpt lat="46.00334" lon="4.75738">
        <ele>209</ele>
        <time>2018-10-12T08:53:32Z</time>
      </trkpt>
      <trkpt lat="46.00341" lon="4.75747">
        <ele>209</ele>
        <time>2018-10-12T08:53:35Z</time>
      </trkpt>
      <trkpt lat="46.00343" lon="4.7575">
        <ele>209</ele>
        <time>2018-10-12T08:53:36Z</time>
      </trkpt>
      <trkpt lat="46.00348" lon="4.75759">
        <ele>211</ele>
        <time>2018-10-12T08:53:39Z</time>
      </trkpt>
      <trkpt lat="46.0035" lon="4.75762">
        <ele>211</ele>
        <time>2018-10-12T08:53:40Z</time>
      </trkpt>
      <trkpt lat="46.00356" lon="4.75772">
        <ele>212</ele>
        <time>2018-10-12T08:53:43Z</time>
      </trkpt>
      <trkpt lat="46.00358" lon="4.75776">
        <ele>212</ele>
        <time>2018-10-12T08:53:44Z</time>
      </trkpt>
      <trkpt lat="46.00363" lon="4.75785">
        <ele>213</ele>
        <time>2018-10-12T08:53:47Z</time>
      </trkpt>
      <trkpt lat="46.00365" lon="4.75787">
        <ele>213</ele>
        <time>2018-10-12T08:53:48Z</time>
      </trkpt>
      <trkpt lat="46.00371" lon="4.75796">
        <ele>213</ele>
        <time>2018-10-12T08:53:51Z</time>
      </trkpt>
      <trkpt lat="46.00373" lon="4.75799">
        <ele>213</ele>
        <time>2018-10-12T08:53:52Z</time>
      </trkpt>
      <trkpt lat="46.00379" lon="4.75808">
        <ele>213</ele>
        <time>2018-10-12T08:53:55Z</time>
      </trkpt>
      <trkpt lat="46.00381" lon="4.75811">
        <ele>213</ele>
        <time>2018-10-12T08:53:56Z</time>
      </trkpt>
      <trkpt lat="46.00387" lon="4.7582">
        <ele>213</ele>
        <time>2018-10-12T08:53:59Z</time>
      </trkpt>
      <trkpt lat="46.00389" lon="4.75823">
        <ele>213</ele>
        <time>2018-10-12T08:54:00Z</time>
      </trkpt>
      <trkpt lat="46.00394" lon="4.75832">
        <ele>213</ele>
        <time>2018-10-12T08:54:03Z</time>
      </trkpt>
      <trkpt lat="46.00396" lon="4.75835">
        <ele>214</ele>
        <time>2018-10-12T08:54:04Z</time>
      </trkpt>
      <trkpt lat="46.00401" lon="4.75844">
        <ele>214</ele>
        <time>2018-10-12T08:54:07Z</time>
      </trkpt>
      <trkpt lat="46.00402" lon="4.75847">
        <ele>214</ele>
        <time>2018-10-12T08:54:08Z</time>
      </trkpt>
      <trkpt lat="46.00407" lon="4.75855">
        <ele>215</ele>
        <time>2018-10-12T08:54:11Z</time>
      </trkpt>
      <trkpt lat="46.00409" lon="4.75858">
        <ele>215</ele>
        <time>2018-10-12T08:54:12Z</time>
      </trkpt>
      <trkpt lat="46.00414" lon="4.75868">
        <ele>215</ele>
        <time>2018-10-12T08:54:15Z</time>
      </trkpt>
      <trkpt lat="46.00415" lon="4.75872">
        <ele>215</ele>
        <time>2018-10-12T08:54:16Z</time>
      </trkpt>
      <trkpt lat="46.00419" lon="4.75882">
        <ele>217</ele>
        <time>2018-10-12T08:54:19Z</time>
      </trkpt>
      <trkpt lat="46.00421" lon="4.75884">
        <ele>217</ele>
        <time>2018-10-12T08:54:20Z</time>
      </trkpt>
      <trkpt lat="46.00426" lon="4.75893">
        <ele>217</ele>
        <time>2018-10-12T08:54:23Z</time>
      </trkpt>
      <trkpt lat="46.00427" lon="4.75896">
        <ele>217</ele>
        <time>2018-10-12T08:54:24Z</time>
      </trkpt>
      <trkpt lat="46.00432" lon="4.75906">
        <ele>217</ele>
        <time>2018-10-12T08:54:27Z</time>
      </trkpt>
      <trkpt lat="46.00433" lon="4.75909">
        <ele>217</ele>
        <time>2018-10-12T08:54:28Z</time>
      </trkpt>
      <trkpt lat="46.00436" lon="4.75918">
        <ele>218</ele>
        <time>2018-10-12T08:54:31Z</time>
      </trkpt>
      <trkpt lat="46.00437" lon="4.75922">
        <ele>218</ele>
        <time>2018-10-12T08:54:32Z</time>
      </trkpt>
      <trkpt lat="46.0044" lon="4.75932">
        <ele>218</ele>
        <time>2018-10-12T08:54:35Z</time>
      </trkpt>
      <trkpt lat="46.00441" lon="4.75936">
        <ele>218</ele>
        <time>2018-10-12T08:54:36Z</time>
      </trkpt>
      <trkpt lat="46.00444" lon="4.75946">
        <ele>219</ele>
        <time>2018-10-12T08:54:40Z</time>
      </trkpt>
      <trkpt lat="46.00444" lon="4.7595">
        <ele>219</ele>
        <time>2018-10-12T08:54:41Z</time>
      </trkpt>
      <trkpt lat="46.00441" lon="4.75961">
        <ele>219</ele>
        <time>2018-10-12T08:54:45Z</time>
      </trkpt>
      <trkpt lat="46.00441" lon="4.75963">
        <ele>219</ele>
        <time>2018-10-12T08:54:46Z</time>
      </trkpt>
      <trkpt lat="46.00436" lon="4.75972">
        <ele>219</ele>
        <time>2018-10-12T08:54:49Z</time>
      </trkpt>
      <trkpt lat="46.00435" lon="4.75975">
        <ele>219</ele>
        <time>2018-10-12T08:54:50Z</time>
      </trkpt>
      <trkpt lat="46.00429" lon="4.75983">
        <ele>220</ele>
        <time>2018-10-12T08:54:54Z</time>
      </trkpt>
      <trkpt lat="46.00427" lon="4.75985">
        <ele>220</ele>
        <time>2018-10-12T08:54:55Z</time>
      </trkpt>
      <trkpt lat="46.0042" lon="4.75992">
        <ele>220</ele>
        <time>2018-10-12T08:54:59Z</time>
      </trkpt>
      <trkpt lat="46.00418" lon="4.75994">
        <ele>220</ele>
        <time>2018-10-12T08:55:00Z</time>
      </trkpt>
      <trkpt lat="46.0041" lon="4.75999">
        <ele>221</ele>
        <time>2018-10-12T08:55:03Z</time>
      </trkpt>
      <trkpt lat="46.00407" lon="4.76">
        <ele>222</ele>
        <time>2018-10-12T08:55:04Z</time>
      </trkpt>
      <trkpt lat="46.00401" lon="4.76004">
        <ele>223</ele>
        <time>2018-10-12T08:55:07Z</time>
      </trkpt>
      <trkpt lat="46.00398" lon="4.76005">
        <ele>223</ele>
        <time>2018-10-12T08:55:08Z</time>
      </trkpt>
      <trkpt lat="46.0039" lon="4.76011">
        <ele>224</ele>
        <time>2018-10-12T08:55:12Z</time>
      </trkpt>
      <trkpt lat="46.00388" lon="4.76013">
        <ele>224</ele>
        <time>2018-10-12T08:55:13Z</time>
      </trkpt>
      <trkpt lat="46.00381" lon="4.76021">
        <ele>225</ele>
        <time>2018-10-12T08:55:17Z</time>
      </trkpt>
      <trkpt lat="46.00379" lon="4.76023">
        <ele>225</ele>
        <time>2018-10-12T08:55:18Z</time>
      </trkpt>
      <trkpt lat="46.00373" lon="4.76031">
        <ele>225</ele>
        <time>2018-10-12T08:55:21Z</time>
      </trkpt>
      <trkpt lat="46.00371" lon="4.76034">
        <ele>225</ele>
        <time>2018-10-12T08:55:22Z</time>
      </trkpt>
      <trkpt lat="46.00368" lon="4.76041">
        <ele>225</ele>
        <time>2018-10-12T08:55:24Z</time>
      </trkpt>
      <trkpt lat="46.00367" lon="4.76045">
        <ele>225</ele>
        <time>2018-10-12T08:55:25Z</time>
      </trkpt>
      <trkpt lat="46.00366" lon="4.76056">
        <ele>226</ele>
        <time>2018-10-12T08:55:28Z</time>
      </trkpt>
      <trkpt lat="46.00367" lon="4.76059">
        <ele>226</ele>
        <time>2018-10-12T08:55:29Z</time>
      </trkpt>
      <trkpt lat="46.00372" lon="4.76067">
        <ele>226</ele>
        <time>2018-10-12T08:55:32Z</time>
      </trkpt>
      <trkpt lat="46.00373" lon="4.76069">
        <ele>226</ele>
        <time>2018-10-12T08:55:33Z</time>
      </trkpt>
      <trkpt lat="46.00381" lon="4.76073">
        <ele>226</ele>
        <time>2018-10-12T08:55:36Z</time>
      </trkpt>
      <trkpt lat="46.00382" lon="4.76073">
        <ele>226</ele>
        <time>2018-10-12T08:55:37Z</time>
      </trkpt>
      <trkpt lat="46.00388" lon="4.76073">
        <ele>226</ele>
        <time>2018-10-12T08:55:39Z</time>
      </trkpt>
      <trkpt lat="46.00391" lon="4.76073">
        <ele>226</ele>
        <time>2018-10-12T08:55:40Z</time>
      </trkpt>
      <trkpt lat="46.00399" lon="4.76073">
        <ele>226</ele>
        <time>2018-10-12T08:55:43Z</time>
      </trkpt>
      <trkpt lat="46.00402" lon="4.76074">
        <ele>226</ele>
        <time>2018-10-12T08:55:44Z</time>
      </trkpt>
      <trkpt lat="46.0041" lon="4.76076">
        <ele>226</ele>
        <time>2018-10-12T08:55:47Z</time>
      </trkpt>
      <trkpt lat="46.00413" lon="4.76077">
        <ele>226</ele>
        <time>2018-10-12T08:55:48Z</time>
      </trkpt>
      <trkpt lat="46.00418" lon="4.76078">
        <ele>225</ele>
        <time>2018-10-12T08:55:50Z</time>
      </trkpt>
      <trkpt lat="46.00422" lon="4.7608">
        <ele>225</ele>
        <time>2018-10-12T08:55:51Z</time>
      </trkpt>
      <trkpt lat="46.0043" lon="4.76084">
        <ele>227</ele>
        <time>2018-10-12T08:55:54Z</time>
      </trkpt>
      <trkpt lat="46.00433" lon="4.76085">
        <ele>227</ele>
        <time>2018-10-12T08:55:55Z</time>
      </trkpt>
      <trkpt lat="46.0044" lon="4.7609">
        <ele>227</ele>
        <time>2018-10-12T08:55:58Z</time>
      </trkpt>
      <trkpt lat="46.00443" lon="4.76091">
        <ele>227</ele>
        <time>2018-10-12T08:55:59Z</time>
      </trkpt>
      <trkpt lat="46.00449" lon="4.76095">
        <ele>227</ele>
        <time>2018-10-12T08:56:02Z</time>
      </trkpt>
      <trkpt lat="46.00452" lon="4.76097">
        <ele>227</ele>
        <time>2018-10-12T08:56:03Z</time>
      </trkpt>
      <trkpt lat="46.00459" lon="4.76103">
        <ele>227</ele>
        <time>2018-10-12T08:56:07Z</time>
      </trkpt>
      <trkpt lat="46.00462" lon="4.76106">
        <ele>227</ele>
        <time>2018-10-12T08:56:08Z</time>
      </trkpt>
      <trkpt lat="46.00469" lon="4.76114">
        <ele>227</ele>
        <time>2018-10-12T08:56:11Z</time>
      </trkpt>
      <trkpt lat="46.00471" lon="4.76116">
        <ele>227</ele>
        <time>2018-10-12T08:56:12Z</time>
      </trkpt>
      <trkpt lat="46.00478" lon="4.76123">
        <ele>227</ele>
        <time>2018-10-12T08:56:15Z</time>
      </trkpt>
      <trkpt lat="46.0048" lon="4.76125">
        <ele>227</ele>
        <time>2018-10-12T08:56:16Z</time>
      </trkpt>
      <trkpt lat="46.00485" lon="4.76131">
        <ele>228</ele>
        <time>2018-10-12T08:56:19Z</time>
      </trkpt>
      <trkpt lat="46.00487" lon="4.76133">
        <ele>228</ele>
        <time>2018-10-12T08:56:20Z</time>
      </trkpt>
      <trkpt lat="46.00495" lon="4.7614">
        <ele>228</ele>
        <time>2018-10-12T08:56:23Z</time>
      </trkpt>
      <trkpt lat="46.00497" lon="4.76142">
        <ele>228</ele>
        <time>2018-10-12T08:56:24Z</time>
      </trkpt>
      <trkpt lat="46.00504" lon="4.76149">
        <ele>228</ele>
        <time>2018-10-12T08:56:27Z</time>
      </trkpt>
      <trkpt lat="46.00506" lon="4.76151">
        <ele>228</ele>
        <time>2018-10-12T08:56:28Z</time>
      </trkpt>
      <trkpt lat="46.00511" lon="4.76156">
        <ele>228</ele>
        <time>2018-10-12T08:56:30Z</time>
      </trkpt>
      <trkpt lat="46.00514" lon="4.76158">
        <ele>228</ele>
        <time>2018-10-12T08:56:31Z</time>
      </trkpt>
      <trkpt lat="46.00521" lon="4.76164">
        <ele>228</ele>
        <time>2018-10-12T08:56:34Z</time>
      </trkpt>
      <trkpt lat="46.00523" lon="4.76167">
        <ele>228</ele>
        <time>2018-10-12T08:56:35Z</time>
      </trkpt>
      <trkpt lat="46.00531" lon="4.76172">
        <ele>230</ele>
        <time>2018-10-12T08:56:38Z</time>
      </trkpt>
      <trkpt lat="46.00533" lon="4.76174">
        <ele>230</ele>
        <time>2018-10-12T08:56:39Z</time>
      </trkpt>
      <trkpt lat="46.00541" lon="4.7618">
        <ele>230</ele>
        <time>2018-10-12T08:56:42Z</time>
      </trkpt>
      <trkpt lat="46.00543" lon="4.76181">
        <ele>230</ele>
        <time>2018-10-12T08:56:43Z</time>
      </trkpt>
      <trkpt lat="46.00551" lon="4.76184">
        <ele>230</ele>
        <time>2018-10-12T08:56:46Z</time>
      </trkpt>
      <trkpt lat="46.00553" lon="4.76185">
        <ele>230</ele>
        <time>2018-10-12T08:56:47Z</time>
      </trkpt>
      <trkpt lat="46.00561" lon="4.76186">
        <ele>230</ele>
        <time>2018-10-12T08:56:50Z</time>
      </trkpt>
      <trkpt lat="46.00564" lon="4.76187">
        <ele>230</ele>
        <time>2018-10-12T08:56:51Z</time>
      </trkpt>
      <trkpt lat="46.00571" lon="4.76189">
        <ele>231</ele>
        <time>2018-10-12T08:56:54Z</time>
      </trkpt>
      <trkpt lat="46.00574" lon="4.7619">
        <ele>231</ele>
        <time>2018-10-12T08:56:55Z</time>
      </trkpt>
      <trkpt lat="46.00582" lon="4.76193">
        <ele>231</ele>
        <time>2018-10-12T08:56:58Z</time>
      </trkpt>
      <trkpt lat="46.00585" lon="4.76194">
        <ele>230</ele>
        <time>2018-10-12T08:56:59Z</time>
      </trkpt>
      <trkpt lat="46.00593" lon="4.76197">
        <ele>230</ele>
        <time>2018-10-12T08:57:02Z</time>
      </trkpt>
      <trkpt lat="46.00596" lon="4.76198">
        <ele>230</ele>
        <time>2018-10-12T08:57:03Z</time>
      </trkpt>
      <trkpt lat="46.00601" lon="4.76201">
        <ele>230</ele>
        <time>2018-10-12T08:57:05Z</time>
      </trkpt>
      <trkpt lat="46.00604" lon="4.76202">
        <ele>230</ele>
        <time>2018-10-12T08:57:06Z</time>
      </trkpt>
      <trkpt lat="46.00612" lon="4.76206">
        <ele>230</ele>
        <time>2018-10-12T08:57:09Z</time>
      </trkpt>
      <trkpt lat="46.00614" lon="4.76207">
        <ele>230</ele>
        <time>2018-10-12T08:57:10Z</time>
      </trkpt>
      <trkpt lat="46.00622" lon="4.76207">
        <ele>230</ele>
        <time>2018-10-12T08:57:13Z</time>
      </trkpt>
      <trkpt lat="46.00625" lon="4.76204">
        <ele>230</ele>
        <time>2018-10-12T08:57:14Z</time>
      </trkpt>
      <trkpt lat="46.00627" lon="4.762">
        <ele>230</ele>
        <time>2018-10-12T08:57:15Z</time>
      </trkpt>
      <trkpt lat="46.00628" lon="4.7619">
        <ele>230</ele>
        <time>2018-10-12T08:57:16Z</time>
      </trkpt>
      <trkpt lat="46.00626" lon="4.76178">
        <ele>230</ele>
        <time>2018-10-12T08:57:18Z</time>
      </trkpt>
      <trkpt lat="46.00627" lon="4.76171">
        <ele>230</ele>
        <time>2018-10-12T08:57:19Z</time>
      </trkpt>
      <trkpt lat="46.00631" lon="4.76165">
        <ele>228</ele>
        <time>2018-10-12T08:57:20Z</time>
      </trkpt>
      <trkpt lat="46.00634" lon="4.76161">
        <ele>228</ele>
        <time>2018-10-12T08:57:21Z</time>
      </trkpt>
      <trkpt lat="46.00639" lon="4.76154">
        <ele>228</ele>
        <time>2018-10-12T08:57:22Z</time>
      </trkpt>
      <trkpt lat="46.00645" lon="4.76149">
        <ele>228</ele>
        <time>2018-10-12T08:57:23Z</time>
      </trkpt>
      <trkpt lat="46.00651" lon="4.76142">
        <ele>228</ele>
        <time>2018-10-12T08:57:24Z</time>
      </trkpt>
      <trkpt lat="46.00658" lon="4.76135">
        <ele>228</ele>
        <time>2018-10-12T08:57:25Z</time>
      </trkpt>
      <trkpt lat="46.00665" lon="4.76129">
        <ele>228</ele>
        <time>2018-10-12T08:57:26Z</time>
      </trkpt>
      <trkpt lat="46.00674" lon="4.76125">
        <ele>226</ele>
        <time>2018-10-12T08:57:27Z</time>
      </trkpt>
      <trkpt lat="46.00684" lon="4.76122">
        <ele>225</ele>
        <time>2018-10-12T08:57:28Z</time>
      </trkpt>
      <trkpt lat="46.00694" lon="4.7612">
        <ele>225</ele>
        <time>2018-10-12T08:57:29Z</time>
      </trkpt>
      <trkpt lat="46.00704" lon="4.76119">
        <ele>225</ele>
        <time>2018-10-12T08:57:30Z</time>
      </trkpt>
      <trkpt lat="46.00715" lon="4.76119">
        <ele>224</ele>
        <time>2018-10-12T08:57:31Z</time>
      </trkpt>
      <trkpt lat="46.00726" lon="4.76118">
        <ele>224</ele>
        <time>2018-10-12T08:57:32Z</time>
      </trkpt>
      <trkpt lat="46.00736" lon="4.76117">
        <ele>223</ele>
        <time>2018-10-12T08:57:33Z</time>
      </trkpt>
      <trkpt lat="46.00747" lon="4.76116">
        <ele>223</ele>
        <time>2018-10-12T08:57:34Z</time>
      </trkpt>
      <trkpt lat="46.00758" lon="4.76115">
        <ele>219</ele>
        <time>2018-10-12T08:57:35Z</time>
      </trkpt>
      <trkpt lat="46.00768" lon="4.76114">
        <ele>219</ele>
        <time>2018-10-12T08:57:36Z</time>
      </trkpt>
      <trkpt lat="46.0078" lon="4.76113">
        <ele>219</ele>
        <time>2018-10-12T08:57:37Z</time>
      </trkpt>
      <trkpt lat="46.00791" lon="4.76111">
        <ele>219</ele>
        <time>2018-10-12T08:57:38Z</time>
      </trkpt>
      <trkpt lat="46.00802" lon="4.76111">
        <ele>218</ele>
        <time>2018-10-12T08:57:39Z</time>
      </trkpt>
      <trkpt lat="46.00812" lon="4.76111">
        <ele>218</ele>
        <time>2018-10-12T08:57:40Z</time>
      </trkpt>
      <trkpt lat="46.00823" lon="4.7611">
        <ele>218</ele>
        <time>2018-10-12T08:57:41Z</time>
      </trkpt>
      <trkpt lat="46.00835" lon="4.76109">
        <ele>216</ele>
        <time>2018-10-12T08:57:42Z</time>
      </trkpt>
      <trkpt lat="46.00846" lon="4.76107">
        <ele>216</ele>
        <time>2018-10-12T08:57:43Z</time>
      </trkpt>
      <trkpt lat="46.00856" lon="4.76102">
        <ele>215</ele>
        <time>2018-10-12T08:57:44Z</time>
      </trkpt>
      <trkpt lat="46.00867" lon="4.76098">
        <ele>215</ele>
        <time>2018-10-12T08:57:45Z</time>
      </trkpt>
      <trkpt lat="46.00878" lon="4.76096">
        <ele>215</ele>
        <time>2018-10-12T08:57:46Z</time>
      </trkpt>
      <trkpt lat="46.00888" lon="4.76093">
        <ele>215</ele>
        <time>2018-10-12T08:57:47Z</time>
      </trkpt>
      <trkpt lat="46.00899" lon="4.7609">
        <ele>214</ele>
        <time>2018-10-12T08:57:48Z</time>
      </trkpt>
      <trkpt lat="46.00909" lon="4.76088">
        <ele>214</ele>
        <time>2018-10-12T08:57:49Z</time>
      </trkpt>
      <trkpt lat="46.00919" lon="4.76086">
        <ele>213</ele>
        <time>2018-10-12T08:57:50Z</time>
      </trkpt>
      <trkpt lat="46.00929" lon="4.76084">
        <ele>213</ele>
        <time>2018-10-12T08:57:51Z</time>
      </trkpt>
      <trkpt lat="46.00939" lon="4.76081">
        <ele>212</ele>
        <time>2018-10-12T08:57:52Z</time>
      </trkpt>
      <trkpt lat="46.0095" lon="4.76079">
        <ele>212</ele>
        <time>2018-10-12T08:57:53Z</time>
      </trkpt>
      <trkpt lat="46.0096" lon="4.76077">
        <ele>212</ele>
        <time>2018-10-12T08:57:54Z</time>
      </trkpt>
      <trkpt lat="46.00969" lon="4.76075">
        <ele>212</ele>
        <time>2018-10-12T08:57:55Z</time>
      </trkpt>
      <trkpt lat="46.00979" lon="4.76073">
        <ele>212</ele>
        <time>2018-10-12T08:57:56Z</time>
      </trkpt>
      <trkpt lat="46.00988" lon="4.76072">
        <ele>212</ele>
        <time>2018-10-12T08:57:57Z</time>
      </trkpt>
      <trkpt lat="46.00998" lon="4.7607">
        <ele>212</ele>
        <time>2018-10-12T08:57:58Z</time>
      </trkpt>
      <trkpt lat="46.01008" lon="4.76069">
        <ele>211</ele>
        <time>2018-10-12T08:57:59Z</time>
      </trkpt>
      <trkpt lat="46.01017" lon="4.76068">
        <ele>210</ele>
        <time>2018-10-12T08:58:00Z</time>
      </trkpt>
      <trkpt lat="46.01027" lon="4.76068">
        <ele>210</ele>
        <time>2018-10-12T08:58:01Z</time>
      </trkpt>
      <trkpt lat="46.01036" lon="4.76068">
        <ele>210</ele>
        <time>2018-10-12T08:58:02Z</time>
      </trkpt>
      <trkpt lat="46.01045" lon="4.76068">
        <ele>210</ele>
        <time>2018-10-12T08:58:03Z</time>
      </trkpt>
      <trkpt lat="46.01055" lon="4.76068">
        <ele>210</ele>
        <time>2018-10-12T08:58:04Z</time>
      </trkpt>
      <trkpt lat="46.01064" lon="4.76067">
        <ele>209</ele>
        <time>2018-10-12T08:58:05Z</time>
      </trkpt>
      <trkpt lat="46.01073" lon="4.76066">
        <ele>209</ele>
        <time>2018-10-12T08:58:06Z</time>
      </trkpt>
      <trkpt lat="46.01082" lon="4.76066">
        <ele>209</ele>
        <time>2018-10-12T08:58:07Z</time>
      </trkpt>
      <trkpt lat="46.01091" lon="4.76065">
        <ele>208</ele>
        <time>2018-10-12T08:58:08Z</time>
      </trkpt>
      <trkpt lat="46.01101" lon="4.76059">
        <ele>208</ele>
        <time>2018-10-12T08:58:09Z</time>
      </trkpt>
      <trkpt lat="46.0111" lon="4.76058">
        <ele>208</ele>
        <time>2018-10-12T08:58:10Z</time>
      </trkpt>
      <trkpt lat="46.01119" lon="4.76059">
        <ele>208</ele>
        <time>2018-10-12T08:58:11Z</time>
      </trkpt>
      <trkpt lat="46.01129" lon="4.76058">
        <ele>208</ele>
        <time>2018-10-12T08:58:12Z</time>
      </trkpt>
      <trkpt lat="46.01137" lon="4.76056">
        <ele>208</ele>
        <time>2018-10-12T08:58:13Z</time>
      </trkpt>
      <trkpt lat="46.01146" lon="4.76055">
        <ele>208</ele>
        <time>2018-10-12T08:58:14Z</time>
      </trkpt>
      <trkpt lat="46.01149" lon="4.76049">
        <ele>208</ele>
        <time>2018-10-12T08:58:15Z</time>
      </trkpt>
      <trkpt lat="46.01156" lon="4.7605">
        <ele>208</ele>
        <time>2018-10-12T08:58:16Z</time>
      </trkpt>
      <trkpt lat="46.01166" lon="4.76052">
        <ele>208</ele>
        <time>2018-10-12T08:58:17Z</time>
      </trkpt>
      <trkpt lat="46.01174" lon="4.76054">
        <ele>207</ele>
        <time>2018-10-12T08:58:18Z</time>
      </trkpt>
      <trkpt lat="46.01183" lon="4.76055">
        <ele>207</ele>
        <time>2018-10-12T08:58:19Z</time>
      </trkpt>
      <trkpt lat="46.01191" lon="4.76057">
        <ele>206</ele>
        <time>2018-10-12T08:58:20Z</time>
      </trkpt>
      <trkpt lat="46.01199" lon="4.7606">
        <ele>206</ele>
        <time>2018-10-12T08:58:21Z</time>
      </trkpt>
      <trkpt lat="46.01207" lon="4.76063">
        <ele>206</ele>
        <time>2018-10-12T08:58:22Z</time>
      </trkpt>
      <trkpt lat="46.01216" lon="4.76065">
        <ele>206</ele>
        <time>2018-10-12T08:58:23Z</time>
      </trkpt>
      <trkpt lat="46.01223" lon="4.76067">
        <ele>206</ele>
        <time>2018-10-12T08:58:24Z</time>
      </trkpt>
      <trkpt lat="46.01231" lon="4.76069">
        <ele>205</ele>
        <time>2018-10-12T08:58:25Z</time>
      </trkpt>
      <trkpt lat="46.01239" lon="4.7607">
        <ele>205</ele>
        <time>2018-10-12T08:58:26Z</time>
      </trkpt>
      <trkpt lat="46.01246" lon="4.76071">
        <ele>205</ele>
        <time>2018-10-12T08:58:27Z</time>
      </trkpt>
      <trkpt lat="46.01254" lon="4.76071">
        <ele>204</ele>
        <time>2018-10-12T08:58:28Z</time>
      </trkpt>
      <trkpt lat="46.01261" lon="4.7607">
        <ele>204</ele>
        <time>2018-10-12T08:58:29Z</time>
      </trkpt>
      <trkpt lat="46.01268" lon="4.76069">
        <ele>204</ele>
        <time>2018-10-12T08:58:30Z</time>
      </trkpt>
      <trkpt lat="46.01276" lon="4.76067">
        <ele>204</ele>
        <time>2018-10-12T08:58:31Z</time>
      </trkpt>
      <trkpt lat="46.01283" lon="4.76065">
        <ele>204</ele>
        <time>2018-10-12T08:58:32Z</time>
      </trkpt>
      <trkpt lat="46.0129" lon="4.76064">
        <ele>204</ele>
        <time>2018-10-12T08:58:33Z</time>
      </trkpt>
      <trkpt lat="46.01296" lon="4.76062">
        <ele>203</ele>
        <time>2018-10-12T08:58:34Z</time>
      </trkpt>
      <trkpt lat="46.01303" lon="4.76061">
        <ele>203</ele>
        <time>2018-10-12T08:58:35Z</time>
      </trkpt>
      <trkpt lat="46.01311" lon="4.76059">
        <ele>203</ele>
        <time>2018-10-12T08:58:36Z</time>
      </trkpt>
      <trkpt lat="46.01318" lon="4.76059">
        <ele>203</ele>
        <time>2018-10-12T08:58:37Z</time>
      </trkpt>
      <trkpt lat="46.01325" lon="4.76057">
        <ele>203</ele>
        <time>2018-10-12T08:58:38Z</time>
      </trkpt>
      <trkpt lat="46.01331" lon="4.76054">
        <ele>203</ele>
        <time>2018-10-12T08:58:39Z</time>
      </trkpt>
      <trkpt lat="46.01338" lon="4.76052">
        <ele>203</ele>
        <time>2018-10-12T08:58:40Z</time>
      </trkpt>
      <trkpt lat="46.01344" lon="4.76051">
        <ele>203</ele>
        <time>2018-10-12T08:58:41Z</time>
      </trkpt>
      <trkpt lat="46.0135" lon="4.76049">
        <ele>203</ele>
        <time>2018-10-12T08:58:42Z</time>
      </trkpt>
      <trkpt lat="46.01357" lon="4.76047">
        <ele>203</ele>
        <time>2018-10-12T08:58:43Z</time>
      </trkpt>
      <trkpt lat="46.01363" lon="4.76044">
        <ele>203</ele>
        <time>2018-10-12T08:58:44Z</time>
      </trkpt>
      <trkpt lat="46.0137" lon="4.76043">
        <ele>203</ele>
        <time>2018-10-12T08:58:45Z</time>
      </trkpt>
      <trkpt lat="46.01376" lon="4.76042">
        <ele>203</ele>
        <time>2018-10-12T08:58:46Z</time>
      </trkpt>
      <trkpt lat="46.01382" lon="4.7604">
        <ele>203</ele>
        <time>2018-10-12T08:58:47Z</time>
      </trkpt>
      <trkpt lat="46.01389" lon="4.76041">
        <ele>203</ele>
        <time>2018-10-12T08:58:48Z</time>
      </trkpt>
      <trkpt lat="46.01394" lon="4.76042">
        <ele>203</ele>
        <time>2018-10-12T08:58:49Z</time>
      </trkpt>
      <trkpt lat="46.01401" lon="4.76044">
        <ele>203</ele>
        <time>2018-10-12T08:58:50Z</time>
      </trkpt>
      <trkpt lat="46.01405" lon="4.76045">
        <ele>203</ele>
        <time>2018-10-12T08:58:51Z</time>
      </trkpt>
      <trkpt lat="46.01411" lon="4.76048">
        <ele>203</ele>
        <time>2018-10-12T08:58:52Z</time>
      </trkpt>
      <trkpt lat="46.01416" lon="4.76052">
        <ele>203</ele>
        <time>2018-10-12T08:58:53Z</time>
      </trkpt>
      <trkpt lat="46.01421" lon="4.76055">
        <ele>203</ele>
        <time>2018-10-12T08:58:54Z</time>
      </trkpt>
      <trkpt lat="46.01426" lon="4.76059">
        <ele>203</ele>
        <time>2018-10-12T08:58:55Z</time>
      </trkpt>
      <trkpt lat="46.01432" lon="4.76063">
        <ele>203</ele>
        <time>2018-10-12T08:58:56Z</time>
      </trkpt>
      <trkpt lat="46.01436" lon="4.76066">
        <ele>203</ele>
        <time>2018-10-12T08:58:57Z</time>
      </trkpt>
      <trkpt lat="46.01441" lon="4.76068">
        <ele>203</ele>
        <time>2018-10-12T08:58:58Z</time>
      </trkpt>
      <trkpt lat="46.01445" lon="4.76072">
        <ele>203</ele>
        <time>2018-10-12T08:58:59Z</time>
      </trkpt>
      <trkpt lat="46.0145" lon="4.76073">
        <ele>203</ele>
        <time>2018-10-12T08:59:00Z</time>
      </trkpt>
      <trkpt lat="46.01454" lon="4.76075">
        <ele>203</ele>
        <time>2018-10-12T08:59:01Z</time>
      </trkpt>
      <trkpt lat="46.01459" lon="4.76077">
        <ele>203</ele>
        <time>2018-10-12T08:59:02Z</time>
      </trkpt>
      <trkpt lat="46.01463" lon="4.76079">
        <ele>203</ele>
        <time>2018-10-12T08:59:03Z</time>
      </trkpt>
      <trkpt lat="46.01468" lon="4.76079">
        <ele>203</ele>
        <time>2018-10-12T08:59:04Z</time>
      </trkpt>
      <trkpt lat="46.01473" lon="4.7608">
        <ele>203</ele>
        <time>2018-10-12T08:59:05Z</time>
      </trkpt>
      <trkpt lat="46.01478" lon="4.76081">
        <ele>203</ele>
        <time>2018-10-12T08:59:06Z</time>
      </trkpt>
      <trkpt lat="46.01482" lon="4.76082">
        <ele>203</ele>
        <time>2018-10-12T08:59:07Z</time>
      </trkpt>
      <trkpt lat="46.01486" lon="4.76085">
        <ele>203</ele>
        <time>2018-10-12T08:59:08Z</time>
      </trkpt>
      <trkpt lat="46.01491" lon="4.76086">
        <ele>203</ele>
        <time>2018-10-12T08:59:09Z</time>
      </trkpt>
      <trkpt lat="46.01496" lon="4.76087">
        <ele>203</ele>
        <time>2018-10-12T08:59:10Z</time>
      </trkpt>
      <trkpt lat="46.01501" lon="4.76088">
        <ele>203</ele>
        <time>2018-10-12T08:59:11Z</time>
      </trkpt>
      <trkpt lat="46.01506" lon="4.76089">
        <ele>203</ele>
        <time>2018-10-12T08:59:12Z</time>
      </trkpt>
      <trkpt lat="46.01512" lon="4.76088">
        <ele>203</ele>
        <time>2018-10-12T08:59:13Z</time>
      </trkpt>
      <trkpt lat="46.01519" lon="4.7609">
        <ele>203</ele>
        <time>2018-10-12T08:59:15Z</time>
      </trkpt>
      <trkpt lat="46.01524" lon="4.76091">
        <ele>202</ele>
        <time>2018-10-12T08:59:16Z</time>
      </trkpt>
      <trkpt lat="46.01529" lon="4.76093">
        <ele>202</ele>
        <time>2018-10-12T08:59:17Z</time>
      </trkpt>
      <trkpt lat="46.01534" lon="4.76096">
        <ele>202</ele>
        <time>2018-10-12T08:59:18Z</time>
      </trkpt>
      <trkpt lat="46.0154" lon="4.76099">
        <ele>202</ele>
        <time>2018-10-12T08:59:19Z</time>
      </trkpt>
      <trkpt lat="46.01545" lon="4.76099">
        <ele>202</ele>
        <time>2018-10-12T08:59:20Z</time>
      </trkpt>
      <trkpt lat="46.01551" lon="4.76103">
        <ele>202</ele>
        <time>2018-10-12T08:59:21Z</time>
      </trkpt>
      <trkpt lat="46.01557" lon="4.76105">
        <ele>202</ele>
        <time>2018-10-12T08:59:22Z</time>
      </trkpt>
      <trkpt lat="46.01562" lon="4.76108">
        <ele>202</ele>
        <time>2018-10-12T08:59:23Z</time>
      </trkpt>
      <trkpt lat="46.01567" lon="4.76109">
        <ele>202</ele>
        <time>2018-10-12T08:59:24Z</time>
      </trkpt>
      <trkpt lat="46.01572" lon="4.76111">
        <ele>202</ele>
        <time>2018-10-12T08:59:25Z</time>
      </trkpt>
      <trkpt lat="46.01578" lon="4.76111">
        <ele>202</ele>
        <time>2018-10-12T08:59:26Z</time>
      </trkpt>
      <trkpt lat="46.01582" lon="4.76112">
        <ele>202</ele>
        <time>2018-10-12T08:59:27Z</time>
      </trkpt>
      <trkpt lat="46.01587" lon="4.76112">
        <ele>200</ele>
        <time>2018-10-12T08:59:28Z</time>
      </trkpt>
      <trkpt lat="46.01592" lon="4.76113">
        <ele>200</ele>
        <time>2018-10-12T08:59:29Z</time>
      </trkpt>
      <trkpt lat="46.01598" lon="4.76114">
        <ele>200</ele>
        <time>2018-10-12T08:59:30Z</time>
      </trkpt>
      <trkpt lat="46.01603" lon="4.76115">
        <ele>200</ele>
        <time>2018-10-12T08:59:31Z</time>
      </trkpt>
      <trkpt lat="46.01608" lon="4.76116">
        <ele>200</ele>
        <time>2018-10-12T08:59:32Z</time>
      </trkpt>
      <trkpt lat="46.01614" lon="4.76118">
        <ele>200</ele>
        <time>2018-10-12T08:59:33Z</time>
      </trkpt>
      <trkpt lat="46.01621" lon="4.76119">
        <ele>200</ele>
        <time>2018-10-12T08:59:34Z</time>
      </trkpt>
      <trkpt lat="46.01627" lon="4.76121">
        <ele>199</ele>
        <time>2018-10-12T08:59:35Z</time>
      </trkpt>
      <trkpt lat="46.01632" lon="4.76121">
        <ele>199</ele>
        <time>2018-10-12T08:59:36Z</time>
      </trkpt>
      <trkpt lat="46.01638" lon="4.76121">
        <ele>199</ele>
        <time>2018-10-12T08:59:37Z</time>
      </trkpt>
      <trkpt lat="46.01644" lon="4.76122">
        <ele>199</ele>
        <time>2018-10-12T08:59:38Z</time>
      </trkpt>
      <trkpt lat="46.01651" lon="4.76122">
        <ele>199</ele>
        <time>2018-10-12T08:59:39Z</time>
      </trkpt>
      <trkpt lat="46.01657" lon="4.76123">
        <ele>199</ele>
        <time>2018-10-12T08:59:40Z</time>
      </trkpt>
      <trkpt lat="46.01663" lon="4.76124">
        <ele>199</ele>
        <time>2018-10-12T08:59:41Z</time>
      </trkpt>
      <trkpt lat="46.01669" lon="4.76125">
        <ele>198</ele>
        <time>2018-10-12T08:59:42Z</time>
      </trkpt>
      <trkpt lat="46.01675" lon="4.76125">
        <ele>198</ele>
        <time>2018-10-12T08:59:43Z</time>
      </trkpt>
      <trkpt lat="46.01681" lon="4.76126">
        <ele>198</ele>
        <time>2018-10-12T08:59:44Z</time>
      </trkpt>
      <trkpt lat="46.01687" lon="4.76127">
        <ele>198</ele>
        <time>2018-10-12T08:59:45Z</time>
      </trkpt>
      <trkpt lat="46.01693" lon="4.76128">
        <ele>198</ele>
        <time>2018-10-12T08:59:46Z</time>
      </trkpt>
      <trkpt lat="46.01698" lon="4.76129">
        <ele>198</ele>
        <time>2018-10-12T08:59:47Z</time>
      </trkpt>
      <trkpt lat="46.01705" lon="4.76131">
        <ele>197</ele>
        <time>2018-10-12T08:59:48Z</time>
      </trkpt>
      <trkpt lat="46.01712" lon="4.76133">
        <ele>197</ele>
        <time>2018-10-12T08:59:49Z</time>
      </trkpt>
      <trkpt lat="46.01717" lon="4.76134">
        <ele>197</ele>
        <time>2018-10-12T08:59:50Z</time>
      </trkpt>
      <trkpt lat="46.01724" lon="4.76134">
        <ele>197</ele>
        <time>2018-10-12T08:59:51Z</time>
      </trkpt>
      <trkpt lat="46.0173" lon="4.76135">
        <ele>197</ele>
        <time>2018-10-12T08:59:52Z</time>
      </trkpt>
      <trkpt lat="46.01735" lon="4.76136">
        <ele>197</ele>
        <time>2018-10-12T08:59:53Z</time>
      </trkpt>
      <trkpt lat="46.0174" lon="4.76137">
        <ele>197</ele>
        <time>2018-10-12T08:59:54Z</time>
      </trkpt>
      <trkpt lat="46.01745" lon="4.76135">
        <ele>197</ele>
        <time>2018-10-12T08:59:55Z</time>
      </trkpt>
      <trkpt lat="46.01749" lon="4.76137">
        <ele>197</ele>
        <time>2018-10-12T08:59:56Z</time>
      </trkpt>
      <trkpt lat="46.01755" lon="4.76134">
        <ele>197</ele>
        <time>2018-10-12T08:59:57Z</time>
      </trkpt>
      <trkpt lat="46.01761" lon="4.76134">
        <ele>198</ele>
        <time>2018-10-12T08:59:58Z</time>
      </trkpt>
      <trkpt lat="46.01766" lon="4.76136">
        <ele>198</ele>
        <time>2018-10-12T08:59:59Z</time>
      </trkpt>
      <trkpt lat="46.01772" lon="4.76138">
        <ele>198</ele>
        <time>2018-10-12T09:00:00Z</time>
      </trkpt>
      <trkpt lat="46.01778" lon="4.76138">
        <ele>198</ele>
        <time>2018-10-12T09:00:01Z</time>
      </trkpt>
      <trkpt lat="46.01784" lon="4.76139">
        <ele>198</ele>
        <time>2018-10-12T09:00:02Z</time>
      </trkpt>
      <trkpt lat="46.0179" lon="4.76139">
        <ele>198</ele>
        <time>2018-10-12T09:00:03Z</time>
      </trkpt>
      <trkpt lat="46.01794" lon="4.76138">
        <ele>198</ele>
        <time>2018-10-12T09:00:04Z</time>
      </trkpt>
      <trkpt lat="46.018" lon="4.76138">
        <ele>198</ele>
        <time>2018-10-12T09:00:05Z</time>
      </trkpt>
      <trkpt lat="46.01806" lon="4.76138">
        <ele>198</ele>
        <time>2018-10-12T09:00:06Z</time>
      </trkpt>
      <trkpt lat="46.01812" lon="4.76139">
        <ele>198</ele>
        <time>2018-10-12T09:00:07Z</time>
      </trkpt>
      <trkpt lat="46.01817" lon="4.76139">
        <ele>198</ele>
        <time>2018-10-12T09:00:08Z</time>
      </trkpt>
      <trkpt lat="46.01823" lon="4.76139">
        <ele>198</ele>
        <time>2018-10-12T09:00:09Z</time>
      </trkpt>
      <trkpt lat="46.01829" lon="4.76139">
        <ele>198</ele>
        <time>2018-10-12T09:00:10Z</time>
      </trkpt>
      <trkpt lat="46.01834" lon="4.76138">
        <ele>199</ele>
        <time>2018-10-12T09:00:11Z</time>
      </trkpt>
      <trkpt lat="46.01839" lon="4.76138">
        <ele>199</ele>
        <time>2018-10-12T09:00:12Z</time>
      </trkpt>
      <trkpt lat="46.01845" lon="4.76138">
        <ele>199</ele>
        <time>2018-10-12T09:00:13Z</time>
      </trkpt>
      <trkpt lat="46.01851" lon="4.76138">
        <ele>199</ele>
        <time>2018-10-12T09:00:14Z</time>
      </trkpt>
      <trkpt lat="46.01856" lon="4.76138">
        <ele>199</ele>
        <time>2018-10-12T09:00:15Z</time>
      </trkpt>
      <trkpt lat="46.01861" lon="4.76137">
        <ele>199</ele>
        <time>2018-10-12T09:00:16Z</time>
      </trkpt>
      <trkpt lat="46.01867" lon="4.76137">
        <ele>199</ele>
        <time>2018-10-12T09:00:17Z</time>
      </trkpt>
      <trkpt lat="46.01873" lon="4.76136">
        <ele>199</ele>
        <time>2018-10-12T09:00:18Z</time>
      </trkpt>
      <trkpt lat="46.01879" lon="4.76135">
        <ele>199</ele>
        <time>2018-10-12T09:00:19Z</time>
      </trkpt>
      <trkpt lat="46.01886" lon="4.76134">
        <ele>199</ele>
        <time>2018-10-12T09:00:20Z</time>
      </trkpt>
      <trkpt lat="46.01893" lon="4.76135">
        <ele>199</ele>
        <time>2018-10-12T09:00:21Z</time>
      </trkpt>
      <trkpt lat="46.019" lon="4.76134">
        <ele>199</ele>
        <time>2018-10-12T09:00:22Z</time>
      </trkpt>
      <trkpt lat="46.01906" lon="4.76134">
        <ele>199</ele>
        <time>2018-10-12T09:00:23Z</time>
      </trkpt>
      <trkpt lat="46.01912" lon="4.76133">
        <ele>199</ele>
        <time>2018-10-12T09:00:24Z</time>
      </trkpt>
      <trkpt lat="46.01919" lon="4.76132">
        <ele>199</ele>
        <time>2018-10-12T09:00:25Z</time>
      </trkpt>
      <trkpt lat="46.01924" lon="4.76131">
        <ele>199</ele>
        <time>2018-10-12T09:00:26Z</time>
      </trkpt>
      <trkpt lat="46.0193" lon="4.7613">
        <ele>199</ele>
        <time>2018-10-12T09:00:27Z</time>
      </trkpt>
      <trkpt lat="46.01935" lon="4.76128">
        <ele>199</ele>
        <time>2018-10-12T09:00:28Z</time>
      </trkpt>
      <trkpt lat="46.0194" lon="4.76126">
        <ele>199</ele>
        <time>2018-10-12T09:00:29Z</time>
      </trkpt>
      <trkpt lat="46.01945" lon="4.76125">
        <ele>199</ele>
        <time>2018-10-12T09:00:30Z</time>
      </trkpt>
      <trkpt lat="46.0195" lon="4.76123">
        <ele>198</ele>
        <time>2018-10-12T09:00:31Z</time>
      </trkpt>
      <trkpt lat="46.01956" lon="4.76123">
        <ele>198</ele>
        <time>2018-10-12T09:00:32Z</time>
      </trkpt>
      <trkpt lat="46.01962" lon="4.76121">
        <ele>198</ele>
        <time>2018-10-12T09:00:33Z</time>
      </trkpt>
      <trkpt lat="46.01967" lon="4.76121">
        <ele>198</ele>
        <time>2018-10-12T09:00:34Z</time>
      </trkpt>
      <trkpt lat="46.01969" lon="4.76117">
        <ele>198</ele>
        <time>2018-10-12T09:00:35Z</time>
      </trkpt>
      <trkpt lat="46.01974" lon="4.76112">
        <ele>198</ele>
        <time>2018-10-12T09:00:36Z</time>
      </trkpt>
      <trkpt lat="46.0198" lon="4.76111">
        <ele>198</ele>
        <time>2018-10-12T09:00:37Z</time>
      </trkpt>
      <trkpt lat="46.01986" lon="4.76111">
        <ele>198</ele>
        <time>2018-10-12T09:00:38Z</time>
      </trkpt>
      <trkpt lat="46.01991" lon="4.76109">
        <ele>198</ele>
        <time>2018-10-12T09:00:39Z</time>
      </trkpt>
      <trkpt lat="46.01995" lon="4.76107">
        <ele>198</ele>
        <time>2018-10-12T09:00:40Z</time>
      </trkpt>
      <trkpt lat="46.02" lon="4.76105">
        <ele>197</ele>
        <time>2018-10-12T09:00:41Z</time>
      </trkpt>
      <trkpt lat="46.02006" lon="4.76104">
        <ele>197</ele>
        <time>2018-10-12T09:00:42Z</time>
      </trkpt>
      <trkpt lat="46.02012" lon="4.76104">
        <ele>197</ele>
        <time>2018-10-12T09:00:43Z</time>
      </trkpt>
      <trkpt lat="46.02021" lon="4.76106">
        <ele>197</ele>
        <time>2018-10-12T09:00:44Z</time>
      </trkpt>
      <trkpt lat="46.02028" lon="4.76104">
        <ele>197</ele>
        <time>2018-10-12T09:00:45Z</time>
      </trkpt>
      <trkpt lat="46.02034" lon="4.76103">
        <ele>197</ele>
        <time>2018-10-12T09:00:46Z</time>
      </trkpt>
      <trkpt lat="46.0204" lon="4.76102">
        <ele>197</ele>
        <time>2018-10-12T09:00:47Z</time>
      </trkpt>
      <trkpt lat="46.02048" lon="4.76102">
        <ele>197</ele>
        <time>2018-10-12T09:00:48Z</time>
      </trkpt>
      <trkpt lat="46.02055" lon="4.76099">
        <ele>197</ele>
        <time>2018-10-12T09:00:49Z</time>
      </trkpt>
      <trkpt lat="46.02061" lon="4.76096">
        <ele>197</ele>
        <time>2018-10-12T09:00:50Z</time>
      </trkpt>
      <trkpt lat="46.02067" lon="4.76094">
        <ele>197</ele>
        <time>2018-10-12T09:00:51Z</time>
      </trkpt>
      <trkpt lat="46.02072" lon="4.76092">
        <ele>196</ele>
        <time>2018-10-12T09:00:52Z</time>
      </trkpt>
      <trkpt lat="46.0208" lon="4.76091">
        <ele>196</ele>
        <time>2018-10-12T09:00:53Z</time>
      </trkpt>
      <trkpt lat="46.02086" lon="4.76088">
        <ele>196</ele>
        <time>2018-10-12T09:00:54Z</time>
      </trkpt>
      <trkpt lat="46.02093" lon="4.76084">
        <ele>196</ele>
        <time>2018-10-12T09:00:55Z</time>
      </trkpt>
      <trkpt lat="46.02098" lon="4.7608">
        <ele>195</ele>
        <time>2018-10-12T09:00:56Z</time>
      </trkpt>
      <trkpt lat="46.02104" lon="4.76076">
        <ele>195</ele>
        <time>2018-10-12T09:00:57Z</time>
      </trkpt>
      <trkpt lat="46.0211" lon="4.76071">
        <ele>194</ele>
        <time>2018-10-12T09:00:58Z</time>
      </trkpt>
      <trkpt lat="46.02114" lon="4.76065">
        <ele>194</ele>
        <time>2018-10-12T09:00:59Z</time>
      </trkpt>
      <trkpt lat="46.02119" lon="4.7606">
        <ele>194</ele>
        <time>2018-10-12T09:01:00Z</time>
      </trkpt>
      <trkpt lat="46.02124" lon="4.76054">
        <ele>194</ele>
        <time>2018-10-12T09:01:01Z</time>
      </trkpt>
      <trkpt lat="46.0213" lon="4.76048">
        <ele>194</ele>
        <time>2018-10-12T09:01:02Z</time>
      </trkpt>
      <trkpt lat="46.02135" lon="4.76042">
        <ele>193</ele>
        <time>2018-10-12T09:01:03Z</time>
      </trkpt>
      <trkpt lat="46.0214" lon="4.76037">
        <ele>193</ele>
        <time>2018-10-12T09:01:04Z</time>
      </trkpt>
      <trkpt lat="46.02146" lon="4.76031">
        <ele>193</ele>
        <time>2018-10-12T09:01:05Z</time>
      </trkpt>
      <trkpt lat="46.02151" lon="4.76026">
        <ele>193</ele>
        <time>2018-10-12T09:01:06Z</time>
      </trkpt>
      <trkpt lat="46.02156" lon="4.76021">
        <ele>193</ele>
        <time>2018-10-12T09:01:07Z</time>
      </trkpt>
      <trkpt lat="46.02161" lon="4.76016">
        <ele>193</ele>
        <time>2018-10-12T09:01:08Z</time>
      </trkpt>
      <trkpt lat="46.02167" lon="4.76012">
        <ele>193</ele>
        <time>2018-10-12T09:01:09Z</time>
      </trkpt>
      <trkpt lat="46.02173" lon="4.76006">
        <ele>192</ele>
        <time>2018-10-12T09:01:10Z</time>
      </trkpt>
      <trkpt lat="46.02178" lon="4.76001">
        <ele>193</ele>
        <time>2018-10-12T09:01:11Z</time>
      </trkpt>
      <trkpt lat="46.02183" lon="4.75997">
        <ele>192</ele>
        <time>2018-10-12T09:01:12Z</time>
      </trkpt>
      <trkpt lat="46.02189" lon="4.75992">
        <ele>192</ele>
        <time>2018-10-12T09:01:13Z</time>
      </trkpt>
      <trkpt lat="46.02194" lon="4.75989">
        <ele>192</ele>
        <time>2018-10-12T09:01:14Z</time>
      </trkpt>
      <trkpt lat="46.02198" lon="4.75984">
        <ele>192</ele>
        <time>2018-10-12T09:01:15Z</time>
      </trkpt>
      <trkpt lat="46.02203" lon="4.7598">
        <ele>192</ele>
        <time>2018-10-12T09:01:16Z</time>
      </trkpt>
      <trkpt lat="46.02207" lon="4.75975">
        <ele>192</ele>
        <time>2018-10-12T09:01:17Z</time>
      </trkpt>
      <trkpt lat="46.02212" lon="4.75972">
        <ele>193</ele>
        <time>2018-10-12T09:01:18Z</time>
      </trkpt>
      <trkpt lat="46.02217" lon="4.75967">
        <ele>193</ele>
        <time>2018-10-12T09:01:19Z</time>
      </trkpt>
      <trkpt lat="46.02222" lon="4.75964">
        <ele>193</ele>
        <time>2018-10-12T09:01:20Z</time>
      </trkpt>
      <trkpt lat="46.02226" lon="4.75961">
        <ele>193</ele>
        <time>2018-10-12T09:01:21Z</time>
      </trkpt>
      <trkpt lat="46.0223" lon="4.75957">
        <ele>193</ele>
        <time>2018-10-12T09:01:22Z</time>
      </trkpt>
      <trkpt lat="46.02235" lon="4.75953">
        <ele>193</ele>
        <time>2018-10-12T09:01:23Z</time>
      </trkpt>
      <trkpt lat="46.0224" lon="4.7595">
        <ele>193</ele>
        <time>2018-10-12T09:01:24Z</time>
      </trkpt>
      <trkpt lat="46.02245" lon="4.75947">
        <ele>193</ele>
        <time>2018-10-12T09:01:25Z</time>
      </trkpt>
      <trkpt lat="46.0225" lon="4.75944">
        <ele>193</ele>
        <time>2018-10-12T09:01:26Z</time>
      </trkpt>
      <trkpt lat="46.02257" lon="4.75937">
        <ele>194</ele>
        <time>2018-10-12T09:01:28Z</time>
      </trkpt>
      <trkpt lat="46.02261" lon="4.75933">
        <ele>193</ele>
        <time>2018-10-12T09:01:29Z</time>
      </trkpt>
      <trkpt lat="46.02265" lon="4.7593">
        <ele>193</ele>
        <time>2018-10-12T09:01:30Z</time>
      </trkpt>
      <trkpt lat="46.02269" lon="4.75926">
        <ele>193</ele>
        <time>2018-10-12T09:01:31Z</time>
      </trkpt>
      <trkpt lat="46.02274" lon="4.75921">
        <ele>194</ele>
        <time>2018-10-12T09:01:32Z</time>
      </trkpt>
      <trkpt lat="46.02279" lon="4.75917">
        <ele>194</ele>
        <time>2018-10-12T09:01:33Z</time>
      </trkpt>
      <trkpt lat="46.02283" lon="4.75913">
        <ele>193</ele>
        <time>2018-10-12T09:01:34Z</time>
      </trkpt>
      <trkpt lat="46.02289" lon="4.75909">
        <ele>193</ele>
        <time>2018-10-12T09:01:35Z</time>
      </trkpt>
      <trkpt lat="46.02293" lon="4.75905">
        <ele>193</ele>
        <time>2018-10-12T09:01:36Z</time>
      </trkpt>
      <trkpt lat="46.02297" lon="4.75901">
        <ele>193</ele>
        <time>2018-10-12T09:01:37Z</time>
      </trkpt>
      <trkpt lat="46.02301" lon="4.75897">
        <ele>193</ele>
        <time>2018-10-12T09:01:38Z</time>
      </trkpt>
      <trkpt lat="46.02305" lon="4.75893">
        <ele>193</ele>
        <time>2018-10-12T09:01:39Z</time>
      </trkpt>
      <trkpt lat="46.0231" lon="4.75889">
        <ele>193</ele>
        <time>2018-10-12T09:01:40Z</time>
      </trkpt>
      <trkpt lat="46.02313" lon="4.75884">
        <ele>193</ele>
        <time>2018-10-12T09:01:41Z</time>
      </trkpt>
      <trkpt lat="46.02318" lon="4.7588">
        <ele>193</ele>
        <time>2018-10-12T09:01:42Z</time>
      </trkpt>
      <trkpt lat="46.02323" lon="4.75876">
        <ele>193</ele>
        <time>2018-10-12T09:01:43Z</time>
      </trkpt>
      <trkpt lat="46.02327" lon="4.75872">
        <ele>193</ele>
        <time>2018-10-12T09:01:44Z</time>
      </trkpt>
      <trkpt lat="46.02332" lon="4.75869">
        <ele>193</ele>
        <time>2018-10-12T09:01:45Z</time>
      </trkpt>
      <trkpt lat="46.02337" lon="4.75864">
        <ele>193</ele>
        <time>2018-10-12T09:01:46Z</time>
      </trkpt>
      <trkpt lat="46.02342" lon="4.7586">
        <ele>193</ele>
        <time>2018-10-12T09:01:47Z</time>
      </trkpt>
      <trkpt lat="46.02347" lon="4.75856">
        <ele>193</ele>
        <time>2018-10-12T09:01:48Z</time>
      </trkpt>
      <trkpt lat="46.02351" lon="4.7585">
        <ele>193</ele>
        <time>2018-10-12T09:01:49Z</time>
      </trkpt>
      <trkpt lat="46.02355" lon="4.75846">
        <ele>193</ele>
        <time>2018-10-12T09:01:50Z</time>
      </trkpt>
      <trkpt lat="46.0236" lon="4.75843">
        <ele>193</ele>
        <time>2018-10-12T09:01:51Z</time>
      </trkpt>
      <trkpt lat="46.02365" lon="4.75839">
        <ele>193</ele>
        <time>2018-10-12T09:01:52Z</time>
      </trkpt>
      <trkpt lat="46.02369" lon="4.75835">
        <ele>193</ele>
        <time>2018-10-12T09:01:53Z</time>
      </trkpt>
      <trkpt lat="46.02374" lon="4.75832">
        <ele>192</ele>
        <time>2018-10-12T09:01:54Z</time>
      </trkpt>
      <trkpt lat="46.02378" lon="4.75829">
        <ele>192</ele>
        <time>2018-10-12T09:01:55Z</time>
      </trkpt>
      <trkpt lat="46.02383" lon="4.75826">
        <ele>192</ele>
        <time>2018-10-12T09:01:56Z</time>
      </trkpt>
      <trkpt lat="46.02387" lon="4.75822">
        <ele>192</ele>
        <time>2018-10-12T09:01:57Z</time>
      </trkpt>
      <trkpt lat="46.02391" lon="4.75819">
        <ele>192</ele>
        <time>2018-10-12T09:01:58Z</time>
      </trkpt>
      <trkpt lat="46.02396" lon="4.75814">
        <ele>192</ele>
        <time>2018-10-12T09:01:59Z</time>
      </trkpt>
      <trkpt lat="46.02401" lon="4.7581">
        <ele>192</ele>
        <time>2018-10-12T09:02:00Z</time>
      </trkpt>
      <trkpt lat="46.02406" lon="4.75807">
        <ele>192</ele>
        <time>2018-10-12T09:02:01Z</time>
      </trkpt>
      <trkpt lat="46.02412" lon="4.75804">
        <ele>192</ele>
        <time>2018-10-12T09:02:02Z</time>
      </trkpt>
      <trkpt lat="46.02417" lon="4.75801">
        <ele>192</ele>
        <time>2018-10-12T09:02:03Z</time>
      </trkpt>
      <trkpt lat="46.02423" lon="4.75797">
        <ele>192</ele>
        <time>2018-10-12T09:02:04Z</time>
      </trkpt>
      <trkpt lat="46.02428" lon="4.75793">
        <ele>191</ele>
        <time>2018-10-12T09:02:05Z</time>
      </trkpt>
      <trkpt lat="46.02433" lon="4.75791">
        <ele>191</ele>
        <time>2018-10-12T09:02:06Z</time>
      </trkpt>
      <trkpt lat="46.02439" lon="4.75788">
        <ele>191</ele>
        <time>2018-10-12T09:02:07Z</time>
      </trkpt>
      <trkpt lat="46.02444" lon="4.75786">
        <ele>191</ele>
        <time>2018-10-12T09:02:08Z</time>
      </trkpt>
      <trkpt lat="46.02451" lon="4.75782">
        <ele>191</ele>
        <time>2018-10-12T09:02:09Z</time>
      </trkpt>
      <trkpt lat="46.02457" lon="4.75779">
        <ele>191</ele>
        <time>2018-10-12T09:02:10Z</time>
      </trkpt>
      <trkpt lat="46.02465" lon="4.75773">
        <ele>191</ele>
        <time>2018-10-12T09:02:11Z</time>
      </trkpt>
      <trkpt lat="46.02472" lon="4.7577">
        <ele>191</ele>
        <time>2018-10-12T09:02:12Z</time>
      </trkpt>
      <trkpt lat="46.02479" lon="4.75762">
        <ele>191</ele>
        <time>2018-10-12T09:02:13Z</time>
      </trkpt>
      <trkpt lat="46.02486" lon="4.75759">
        <ele>190</ele>
        <time>2018-10-12T09:02:14Z</time>
      </trkpt>
      <trkpt lat="46.02493" lon="4.75757">
        <ele>190</ele>
        <time>2018-10-12T09:02:15Z</time>
      </trkpt>
      <trkpt lat="46.025" lon="4.75754">
        <ele>189</ele>
        <time>2018-10-12T09:02:16Z</time>
      </trkpt>
      <trkpt lat="46.02508" lon="4.75751">
        <ele>189</ele>
        <time>2018-10-12T09:02:17Z</time>
      </trkpt>
      <trkpt lat="46.02516" lon="4.75749">
        <ele>188</ele>
        <time>2018-10-12T09:02:18Z</time>
      </trkpt>
      <trkpt lat="46.02524" lon="4.75746">
        <ele>187</ele>
        <time>2018-10-12T09:02:19Z</time>
      </trkpt>
      <trkpt lat="46.02533" lon="4.75745">
        <ele>187</ele>
        <time>2018-10-12T09:02:20Z</time>
      </trkpt>
      <trkpt lat="46.02542" lon="4.75745">
        <ele>186</ele>
        <time>2018-10-12T09:02:21Z</time>
      </trkpt>
      <trkpt lat="46.02552" lon="4.75744">
        <ele>186</ele>
        <time>2018-10-12T09:02:22Z</time>
      </trkpt>
      <trkpt lat="46.02561" lon="4.75744">
        <ele>185</ele>
        <time>2018-10-12T09:02:23Z</time>
      </trkpt>
      <trkpt lat="46.02572" lon="4.75746">
        <ele>184</ele>
        <time>2018-10-12T09:02:24Z</time>
      </trkpt>
      <trkpt lat="46.02582" lon="4.75746">
        <ele>184</ele>
        <time>2018-10-12T09:02:25Z</time>
      </trkpt>
      <trkpt lat="46.02592" lon="4.75747">
        <ele>183</ele>
        <time>2018-10-12T09:02:26Z</time>
      </trkpt>
      <trkpt lat="46.02603" lon="4.75748">
        <ele>183</ele>
        <time>2018-10-12T09:02:27Z</time>
      </trkpt>
      <trkpt lat="46.02614" lon="4.75749">
        <ele>182</ele>
        <time>2018-10-12T09:02:28Z</time>
      </trkpt>
      <trkpt lat="46.02625" lon="4.75749">
        <ele>182</ele>
        <time>2018-10-12T09:02:29Z</time>
      </trkpt>
      <trkpt lat="46.02637" lon="4.7575">
        <ele>182</ele>
        <time>2018-10-12T09:02:30Z</time>
      </trkpt>
      <trkpt lat="46.02648" lon="4.75749">
        <ele>182</ele>
        <time>2018-10-12T09:02:31Z</time>
      </trkpt>
      <trkpt lat="46.0266" lon="4.75749">
        <ele>181</ele>
        <time>2018-10-12T09:02:32Z</time>
      </trkpt>
      <trkpt lat="46.02672" lon="4.75747">
        <ele>181</ele>
        <time>2018-10-12T09:02:33Z</time>
      </trkpt>
      <trkpt lat="46.02683" lon="4.75744">
        <ele>181</ele>
        <time>2018-10-12T09:02:34Z</time>
      </trkpt>
      <trkpt lat="46.02694" lon="4.7574">
        <ele>182</ele>
        <time>2018-10-12T09:02:35Z</time>
      </trkpt>
      <trkpt lat="46.02705" lon="4.75735">
        <ele>182</ele>
        <time>2018-10-12T09:02:36Z</time>
      </trkpt>
      <trkpt lat="46.02715" lon="4.7573">
        <ele>182</ele>
        <time>2018-10-12T09:02:37Z</time>
      </trkpt>
      <trkpt lat="46.02723" lon="4.75728">
        <ele>182</ele>
        <time>2018-10-12T09:02:38Z</time>
      </trkpt>
      <trkpt lat="46.02734" lon="4.75721">
        <ele>182</ele>
        <time>2018-10-12T09:02:39Z</time>
      </trkpt>
      <trkpt lat="46.02743" lon="4.75718">
        <ele>182</ele>
        <time>2018-10-12T09:02:40Z</time>
      </trkpt>
      <trkpt lat="46.02757" lon="4.75719">
        <ele>183</ele>
        <time>2018-10-12T09:02:41Z</time>
      </trkpt>
      <trkpt lat="46.02767" lon="4.75721">
        <ele>183</ele>
        <time>2018-10-12T09:02:42Z</time>
      </trkpt>
      <trkpt lat="46.02773" lon="4.75721">
        <ele>183</ele>
        <time>2018-10-12T09:02:43Z</time>
      </trkpt>
      <trkpt lat="46.02782" lon="4.75721">
        <ele>183</ele>
        <time>2018-10-12T09:02:44Z</time>
      </trkpt>
      <trkpt lat="46.02791" lon="4.75723">
        <ele>183</ele>
        <time>2018-10-12T09:02:45Z</time>
      </trkpt>
      <trkpt lat="46.02799" lon="4.75725">
        <ele>184</ele>
        <time>2018-10-12T09:02:46Z</time>
      </trkpt>
      <trkpt lat="46.02806" lon="4.75725">
        <ele>184</ele>
        <time>2018-10-12T09:02:47Z</time>
      </trkpt>
      <trkpt lat="46.02813" lon="4.75725">
        <ele>184</ele>
        <time>2018-10-12T09:02:48Z</time>
      </trkpt>
      <trkpt lat="46.02822" lon="4.75729">
        <ele>184</ele>
        <time>2018-10-12T09:02:49Z</time>
      </trkpt>
      <trkpt lat="46.02828" lon="4.75729">
        <ele>184</ele>
        <time>2018-10-12T09:02:50Z</time>
      </trkpt>
      <trkpt lat="46.02834" lon="4.75729">
        <ele>184</ele>
        <time>2018-10-12T09:02:51Z</time>
      </trkpt>
      <trkpt lat="46.02839" lon="4.75729">
        <ele>184</ele>
        <time>2018-10-12T09:02:52Z</time>
      </trkpt>
      <trkpt lat="46.02845" lon="4.75731">
        <ele>184</ele>
        <time>2018-10-12T09:02:53Z</time>
      </trkpt>
      <trkpt lat="46.0285" lon="4.75731">
        <ele>184</ele>
        <time>2018-10-12T09:02:54Z</time>
      </trkpt>
      <trkpt lat="46.02855" lon="4.75732">
        <ele>184</ele>
        <time>2018-10-12T09:02:55Z</time>
      </trkpt>
      <trkpt lat="46.02864" lon="4.75733">
        <ele>184</ele>
        <time>2018-10-12T09:02:57Z</time>
      </trkpt>
      <trkpt lat="46.02869" lon="4.75732">
        <ele>184</ele>
        <time>2018-10-12T09:02:58Z</time>
      </trkpt>
      <trkpt lat="46.02874" lon="4.75735">
        <ele>184</ele>
        <time>2018-10-12T09:02:59Z</time>
      </trkpt>
      <trkpt lat="46.02881" lon="4.75735">
        <ele>183</ele>
        <time>2018-10-12T09:03:00Z</time>
      </trkpt>
      <trkpt lat="46.02887" lon="4.75737">
        <ele>183</ele>
        <time>2018-10-12T09:03:01Z</time>
      </trkpt>
      <trkpt lat="46.02892" lon="4.75738">
        <ele>183</ele>
        <time>2018-10-12T09:03:02Z</time>
      </trkpt>
      <trkpt lat="46.02895" lon="4.75738">
        <ele>183</ele>
        <time>2018-10-12T09:03:04Z</time>
      </trkpt>
      <trkpt lat="46.02904" lon="4.75738">
        <ele>183</ele>
        <time>2018-10-12T09:03:05Z</time>
      </trkpt>
      <trkpt lat="46.02913" lon="4.75737">
        <ele>184</ele>
        <time>2018-10-12T09:03:08Z</time>
      </trkpt>
      <trkpt lat="46.02921" lon="4.75739">
        <ele>184</ele>
        <time>2018-10-12T09:03:09Z</time>
      </trkpt>
      <trkpt lat="46.0293" lon="4.75736">
        <ele>183</ele>
        <time>2018-10-12T09:03:11Z</time>
      </trkpt>
      <trkpt lat="46.02932" lon="4.75736">
        <ele>183</ele>
        <time>2018-10-12T09:03:12Z</time>
      </trkpt>
      <trkpt lat="46.02937" lon="4.75734">
        <ele>183</ele>
        <time>2018-10-12T09:03:13Z</time>
      </trkpt>
      <trkpt lat="46.02942" lon="4.75733">
        <ele>183</ele>
        <time>2018-10-12T09:03:14Z</time>
      </trkpt>
      <trkpt lat="46.02947" lon="4.7573">
        <ele>183</ele>
        <time>2018-10-12T09:03:15Z</time>
      </trkpt>
      <trkpt lat="46.02955" lon="4.75727">
        <ele>183</ele>
        <time>2018-10-12T09:03:16Z</time>
      </trkpt>
      <trkpt lat="46.02959" lon="4.75726">
        <ele>183</ele>
        <time>2018-10-12T09:03:17Z</time>
      </trkpt>
      <trkpt lat="46.02964" lon="4.75724">
        <ele>183</ele>
        <time>2018-10-12T09:03:18Z</time>
      </trkpt>
      <trkpt lat="46.02968" lon="4.75723">
        <ele>183</ele>
        <time>2018-10-12T09:03:19Z</time>
      </trkpt>
      <trkpt lat="46.02973" lon="4.75722">
        <ele>183</ele>
        <time>2018-10-12T09:03:20Z</time>
      </trkpt>
      <trkpt lat="46.02977" lon="4.75721">
        <ele>183</ele>
        <time>2018-10-12T09:03:21Z</time>
      </trkpt>
      <trkpt lat="46.02982" lon="4.7572">
        <ele>183</ele>
        <time>2018-10-12T09:03:22Z</time>
      </trkpt>
      <trkpt lat="46.02987" lon="4.75717">
        <ele>183</ele>
        <time>2018-10-12T09:03:23Z</time>
      </trkpt>
      <trkpt lat="46.02991" lon="4.75715">
        <ele>183</ele>
        <time>2018-10-12T09:03:24Z</time>
      </trkpt>
      <trkpt lat="46.02996" lon="4.75713">
        <ele>183</ele>
        <time>2018-10-12T09:03:25Z</time>
      </trkpt>
      <trkpt lat="46.03001" lon="4.75712">
        <ele>184</ele>
        <time>2018-10-12T09:03:26Z</time>
      </trkpt>
      <trkpt lat="46.0301" lon="4.75708">
        <ele>184</ele>
        <time>2018-10-12T09:03:28Z</time>
      </trkpt>
      <trkpt lat="46.03015" lon="4.75706">
        <ele>184</ele>
        <time>2018-10-12T09:03:29Z</time>
      </trkpt>
      <trkpt lat="46.0302" lon="4.75703">
        <ele>184</ele>
        <time>2018-10-12T09:03:30Z</time>
      </trkpt>
      <trkpt lat="46.03024" lon="4.757">
        <ele>184</ele>
        <time>2018-10-12T09:03:31Z</time>
      </trkpt>
      <trkpt lat="46.03029" lon="4.75697">
        <ele>184</ele>
        <time>2018-10-12T09:03:32Z</time>
      </trkpt>
      <trkpt lat="46.03034" lon="4.75695">
        <ele>184</ele>
        <time>2018-10-12T09:03:33Z</time>
      </trkpt>
      <trkpt lat="46.03042" lon="4.75694">
        <ele>184</ele>
        <time>2018-10-12T09:03:35Z</time>
      </trkpt>
      <trkpt lat="46.03046" lon="4.75693">
        <ele>184</ele>
        <time>2018-10-12T09:03:36Z</time>
      </trkpt>
      <trkpt lat="46.03051" lon="4.75692">
        <ele>184</ele>
        <time>2018-10-12T09:03:37Z</time>
      </trkpt>
      <trkpt lat="46.03057" lon="4.75691">
        <ele>184</ele>
        <time>2018-10-12T09:03:38Z</time>
      </trkpt>
      <trkpt lat="46.03062" lon="4.75691">
        <ele>184</ele>
        <time>2018-10-12T09:03:39Z</time>
      </trkpt>
      <trkpt lat="46.03067" lon="4.75691">
        <ele>184</ele>
        <time>2018-10-12T09:03:40Z</time>
      </trkpt>
      <trkpt lat="46.03076" lon="4.7569">
        <ele>184</ele>
        <time>2018-10-12T09:03:42Z</time>
      </trkpt>
      <trkpt lat="46.0308" lon="4.75689">
        <ele>184</ele>
        <time>2018-10-12T09:03:43Z</time>
      </trkpt>
      <trkpt lat="46.03088" lon="4.75685">
        <ele>185</ele>
        <time>2018-10-12T09:03:44Z</time>
      </trkpt>
      <trkpt lat="46.03092" lon="4.75684">
        <ele>185</ele>
        <time>2018-10-12T09:03:45Z</time>
      </trkpt>
      <trkpt lat="46.03097" lon="4.75683">
        <ele>185</ele>
        <time>2018-10-12T09:03:46Z</time>
      </trkpt>
      <trkpt lat="46.03102" lon="4.75684">
        <ele>186</ele>
        <time>2018-10-12T09:03:47Z</time>
      </trkpt>
      <trkpt lat="46.03108" lon="4.75683">
        <ele>186</ele>
        <time>2018-10-12T09:03:48Z</time>
      </trkpt>
      <trkpt lat="46.03111" lon="4.75682">
        <ele>186</ele>
        <time>2018-10-12T09:03:49Z</time>
      </trkpt>
      <trkpt lat="46.03117" lon="4.75682">
        <ele>186</ele>
        <time>2018-10-12T09:03:50Z</time>
      </trkpt>
      <trkpt lat="46.03122" lon="4.75681">
        <ele>186</ele>
        <time>2018-10-12T09:03:51Z</time>
      </trkpt>
      <trkpt lat="46.0313" lon="4.7568">
        <ele>187</ele>
        <time>2018-10-12T09:03:52Z</time>
      </trkpt>
      <trkpt lat="46.03135" lon="4.7568">
        <ele>187</ele>
        <time>2018-10-12T09:03:53Z</time>
      </trkpt>
      <trkpt lat="46.03143" lon="4.75679">
        <ele>187</ele>
        <time>2018-10-12T09:03:55Z</time>
      </trkpt>
      <trkpt lat="46.03147" lon="4.75677">
        <ele>187</ele>
        <time>2018-10-12T09:03:56Z</time>
      </trkpt>
      <trkpt lat="46.03153" lon="4.75677">
        <ele>187</ele>
        <time>2018-10-12T09:03:58Z</time>
      </trkpt>
      <trkpt lat="46.03159" lon="4.75676">
        <ele>188</ele>
        <time>2018-10-12T09:03:59Z</time>
      </trkpt>
      <trkpt lat="46.03162" lon="4.75676">
        <ele>188</ele>
        <time>2018-10-12T09:04:01Z</time>
      </trkpt>
      <trkpt lat="46.03176" lon="4.75671">
        <ele>190</ele>
        <time>2018-10-12T09:04:02Z</time>
      </trkpt>
      <trkpt lat="46.03182" lon="4.7567">
        <ele>190</ele>
        <time>2018-10-12T09:04:03Z</time>
      </trkpt>
      <trkpt lat="46.03186" lon="4.75673">
        <ele>191</ele>
        <time>2018-10-12T09:04:04Z</time>
      </trkpt>
      <trkpt lat="46.03191" lon="4.75673">
        <ele>192</ele>
        <time>2018-10-12T09:04:05Z</time>
      </trkpt>
      <trkpt lat="46.03198" lon="4.75672">
        <ele>192</ele>
        <time>2018-10-12T09:04:06Z</time>
      </trkpt>
      <trkpt lat="46.03203" lon="4.75673">
        <ele>192</ele>
        <time>2018-10-12T09:04:07Z</time>
      </trkpt>
      <trkpt lat="46.03207" lon="4.75674">
        <ele>193</ele>
        <time>2018-10-12T09:04:08Z</time>
      </trkpt>
      <trkpt lat="46.03214" lon="4.75672">
        <ele>193</ele>
        <time>2018-10-12T09:04:10Z</time>
      </trkpt>
      <trkpt lat="46.03216" lon="4.75672">
        <ele>193</ele>
        <time>2018-10-12T09:04:11Z</time>
      </trkpt>
      <trkpt lat="46.03227" lon="4.75668">
        <ele>194</ele>
        <time>2018-10-12T09:04:12Z</time>
      </trkpt>
      <trkpt lat="46.03234" lon="4.75667">
        <ele>194</ele>
        <time>2018-10-12T09:04:14Z</time>
      </trkpt>
      <trkpt lat="46.03238" lon="4.75665">
        <ele>193</ele>
        <time>2018-10-12T09:04:15Z</time>
      </trkpt>
      <trkpt lat="46.03246" lon="4.75669">
        <ele>195</ele>
        <time>2018-10-12T09:04:17Z</time>
      </trkpt>
      <trkpt lat="46.03252" lon="4.75668">
        <ele>195</ele>
        <time>2018-10-12T09:04:18Z</time>
      </trkpt>
      <trkpt lat="46.03257" lon="4.75667">
        <ele>195</ele>
        <time>2018-10-12T09:04:19Z</time>
      </trkpt>
      <trkpt lat="46.03262" lon="4.75667">
        <ele>194</ele>
        <time>2018-10-12T09:04:20Z</time>
      </trkpt>
      <trkpt lat="46.03267" lon="4.75666">
        <ele>192</ele>
        <time>2018-10-12T09:04:21Z</time>
      </trkpt>
      <trkpt lat="46.03272" lon="4.75663">
        <ele>192</ele>
        <time>2018-10-12T09:04:22Z</time>
      </trkpt>
      <trkpt lat="46.03279" lon="4.75659">
        <ele>191</ele>
        <time>2018-10-12T09:04:24Z</time>
      </trkpt>
      <trkpt lat="46.03283" lon="4.75656">
        <ele>190</ele>
        <time>2018-10-12T09:04:25Z</time>
      </trkpt>
      <trkpt lat="46.03289" lon="4.75649">
        <ele>190</ele>
        <time>2018-10-12T09:04:27Z</time>
      </trkpt>
      <trkpt lat="46.03291" lon="4.75647">
        <ele>190</ele>
        <time>2018-10-12T09:04:28Z</time>
      </trkpt>
      <trkpt lat="46.03298" lon="4.75641">
        <ele>189</ele>
        <time>2018-10-12T09:04:30Z</time>
      </trkpt>
      <trkpt lat="46.03302" lon="4.75642">
        <ele>189</ele>
        <time>2018-10-12T09:04:31Z</time>
      </trkpt>
      <trkpt lat="46.0331" lon="4.75642">
        <ele>189</ele>
        <time>2018-10-12T09:04:33Z</time>
      </trkpt>
      <trkpt lat="46.03314" lon="4.75642">
        <ele>189</ele>
        <time>2018-10-12T09:04:34Z</time>
      </trkpt>
      <trkpt lat="46.03323" lon="4.75643">
        <ele>189</ele>
        <time>2018-10-12T09:04:36Z</time>
      </trkpt>
      <trkpt lat="46.03328" lon="4.75641">
        <ele>189</ele>
        <time>2018-10-12T09:04:37Z</time>
      </trkpt>
      <trkpt lat="46.03332" lon="4.75641">
        <ele>189</ele>
        <time>2018-10-12T09:04:38Z</time>
      </trkpt>
      <trkpt lat="46.03337" lon="4.75641">
        <ele>188</ele>
        <time>2018-10-12T09:04:39Z</time>
      </trkpt>
      <trkpt lat="46.03346" lon="4.7564">
        <ele>188</ele>
        <time>2018-10-12T09:04:41Z</time>
      </trkpt>
      <trkpt lat="46.03351" lon="4.7564">
        <ele>188</ele>
        <time>2018-10-12T09:04:42Z</time>
      </trkpt>
      <trkpt lat="46.03354" lon="4.7564">
        <ele>188</ele>
        <time>2018-10-12T09:04:43Z</time>
      </trkpt>
      <trkpt lat="46.0336" lon="4.75639">
        <ele>188</ele>
        <time>2018-10-12T09:04:44Z</time>
      </trkpt>
      <trkpt lat="46.03364" lon="4.75641">
        <ele>188</ele>
        <time>2018-10-12T09:04:45Z</time>
      </trkpt>
      <trkpt lat="46.03369" lon="4.75641">
        <ele>188</ele>
        <time>2018-10-12T09:04:46Z</time>
      </trkpt>
      <trkpt lat="46.03374" lon="4.7564">
        <ele>188</ele>
        <time>2018-10-12T09:04:47Z</time>
      </trkpt>
      <trkpt lat="46.03379" lon="4.7564">
        <ele>188</ele>
        <time>2018-10-12T09:04:48Z</time>
      </trkpt>
      <trkpt lat="46.03384" lon="4.75639">
        <ele>188</ele>
        <time>2018-10-12T09:04:49Z</time>
      </trkpt>
      <trkpt lat="46.03389" lon="4.75637">
        <ele>188</ele>
        <time>2018-10-12T09:04:50Z</time>
      </trkpt>
      <trkpt lat="46.03393" lon="4.75636">
        <ele>188</ele>
        <time>2018-10-12T09:04:51Z</time>
      </trkpt>
      <trkpt lat="46.03397" lon="4.75634">
        <ele>188</ele>
        <time>2018-10-12T09:04:52Z</time>
      </trkpt>
      <trkpt lat="46.03402" lon="4.75632">
        <ele>188</ele>
        <time>2018-10-12T09:04:53Z</time>
      </trkpt>
      <trkpt lat="46.03407" lon="4.75632">
        <ele>188</ele>
        <time>2018-10-12T09:04:54Z</time>
      </trkpt>
      <trkpt lat="46.03413" lon="4.7563">
        <ele>188</ele>
        <time>2018-10-12T09:04:55Z</time>
      </trkpt>
      <trkpt lat="46.03417" lon="4.7563">
        <ele>188</ele>
        <time>2018-10-12T09:04:56Z</time>
      </trkpt>
      <trkpt lat="46.03426" lon="4.75628">
        <ele>188</ele>
        <time>2018-10-12T09:04:58Z</time>
      </trkpt>
      <trkpt lat="46.03429" lon="4.75629">
        <ele>188</ele>
        <time>2018-10-12T09:04:59Z</time>
      </trkpt>
      <trkpt lat="46.03436" lon="4.75635">
        <ele>188</ele>
        <time>2018-10-12T09:05:01Z</time>
      </trkpt>
      <trkpt lat="46.03439" lon="4.75639">
        <ele>188</ele>
        <time>2018-10-12T09:05:02Z</time>
      </trkpt>
      <trkpt lat="46.03443" lon="4.75649">
        <ele>188</ele>
        <time>2018-10-12T09:05:04Z</time>
      </trkpt>
      <trkpt lat="46.03445" lon="4.75655">
        <ele>188</ele>
        <time>2018-10-12T09:05:05Z</time>
      </trkpt>
      <trkpt lat="46.03447" lon="4.75661">
        <ele>188</ele>
        <time>2018-10-12T09:05:06Z</time>
      </trkpt>
      <trkpt lat="46.0345" lon="4.75667">
        <ele>189</ele>
        <time>2018-10-12T09:05:07Z</time>
      </trkpt>
      <trkpt lat="46.03452" lon="4.75673">
        <ele>189</ele>
        <time>2018-10-12T09:05:08Z</time>
      </trkpt>
      <trkpt lat="46.03456" lon="4.75679">
        <ele>189</ele>
        <time>2018-10-12T09:05:09Z</time>
      </trkpt>
      <trkpt lat="46.03458" lon="4.75685">
        <ele>189</ele>
        <time>2018-10-12T09:05:10Z</time>
      </trkpt>
      <trkpt lat="46.0346" lon="4.75692">
        <ele>189</ele>
        <time>2018-10-12T09:05:11Z</time>
      </trkpt>
      <trkpt lat="46.03463" lon="4.75698">
        <ele>189</ele>
        <time>2018-10-12T09:05:12Z</time>
      </trkpt>
      <trkpt lat="46.03465" lon="4.75705">
        <ele>189</ele>
        <time>2018-10-12T09:05:13Z</time>
      </trkpt>
      <trkpt lat="46.03469" lon="4.75715">
        <ele>189</ele>
        <time>2018-10-12T09:05:15Z</time>
      </trkpt>
      <trkpt lat="46.03472" lon="4.7572">
        <ele>189</ele>
        <time>2018-10-12T09:05:16Z</time>
      </trkpt>
      <trkpt lat="46.03474" lon="4.75726">
        <ele>189</ele>
        <time>2018-10-12T09:05:17Z</time>
      </trkpt>
      <trkpt lat="46.03477" lon="4.75733">
        <ele>189</ele>
        <time>2018-10-12T09:05:18Z</time>
      </trkpt>
      <trkpt lat="46.0348" lon="4.75738">
        <ele>189</ele>
        <time>2018-10-12T09:05:19Z</time>
      </trkpt>
      <trkpt lat="46.03482" lon="4.75744">
        <ele>189</ele>
        <time>2018-10-12T09:05:20Z</time>
      </trkpt>
      <trkpt lat="46.03483" lon="4.7575">
        <ele>189</ele>
        <time>2018-10-12T09:05:21Z</time>
      </trkpt>
      <trkpt lat="46.03486" lon="4.75757">
        <ele>189</ele>
        <time>2018-10-12T09:05:22Z</time>
      </trkpt>
      <trkpt lat="46.0349" lon="4.75768">
        <ele>189</ele>
        <time>2018-10-12T09:05:24Z</time>
      </trkpt>
      <trkpt lat="46.03492" lon="4.75774">
        <ele>190</ele>
        <time>2018-10-12T09:05:25Z</time>
      </trkpt>
      <trkpt lat="46.03495" lon="4.7578">
        <ele>190</ele>
        <time>2018-10-12T09:05:26Z</time>
      </trkpt>
      <trkpt lat="46.03497" lon="4.75786">
        <ele>190</ele>
        <time>2018-10-12T09:05:27Z</time>
      </trkpt>
      <trkpt lat="46.03501" lon="4.75793">
        <ele>189</ele>
        <time>2018-10-12T09:05:28Z</time>
      </trkpt>
      <trkpt lat="46.03504" lon="4.75798">
        <ele>189</ele>
        <time>2018-10-12T09:05:29Z</time>
      </trkpt>
      <trkpt lat="46.03506" lon="4.75804">
        <ele>189</ele>
        <time>2018-10-12T09:05:30Z</time>
      </trkpt>
      <trkpt lat="46.03508" lon="4.75811">
        <ele>190</ele>
        <time>2018-10-12T09:05:31Z</time>
      </trkpt>
      <trkpt lat="46.03511" lon="4.75817">
        <ele>190</ele>
        <time>2018-10-12T09:05:32Z</time>
      </trkpt>
      <trkpt lat="46.03515" lon="4.75823">
        <ele>190</ele>
        <time>2018-10-12T09:05:33Z</time>
      </trkpt>
      <trkpt lat="46.03518" lon="4.75829">
        <ele>190</ele>
        <time>2018-10-12T09:05:34Z</time>
      </trkpt>
      <trkpt lat="46.03521" lon="4.75836">
        <ele>190</ele>
        <time>2018-10-12T09:05:35Z</time>
      </trkpt>
      <trkpt lat="46.03523" lon="4.75842">
        <ele>190</ele>
        <time>2018-10-12T09:05:36Z</time>
      </trkpt>
      <trkpt lat="46.03526" lon="4.75848">
        <ele>190</ele>
        <time>2018-10-12T09:05:37Z</time>
      </trkpt>
      <trkpt lat="46.03529" lon="4.75855">
        <ele>190</ele>
        <time>2018-10-12T09:05:38Z</time>
      </trkpt>
      <trkpt lat="46.03531" lon="4.75862">
        <ele>190</ele>
        <time>2018-10-12T09:05:39Z</time>
      </trkpt>
      <trkpt lat="46.03534" lon="4.75868">
        <ele>190</ele>
        <time>2018-10-12T09:05:40Z</time>
      </trkpt>
      <trkpt lat="46.03537" lon="4.75874">
        <ele>190</ele>
        <time>2018-10-12T09:05:41Z</time>
      </trkpt>
      <trkpt lat="46.0354" lon="4.7588">
        <ele>190</ele>
        <time>2018-10-12T09:05:42Z</time>
      </trkpt>
      <trkpt lat="46.03543" lon="4.75886">
        <ele>189</ele>
        <time>2018-10-12T09:05:43Z</time>
      </trkpt>
      <trkpt lat="46.03545" lon="4.75891">
        <ele>189</ele>
        <time>2018-10-12T09:05:44Z</time>
      </trkpt>
      <trkpt lat="46.03548" lon="4.75897">
        <ele>189</ele>
        <time>2018-10-12T09:05:45Z</time>
      </trkpt>
      <trkpt lat="46.03551" lon="4.75905">
        <ele>189</ele>
        <time>2018-10-12T09:05:46Z</time>
      </trkpt>
      <trkpt lat="46.03555" lon="4.75912">
        <ele>189</ele>
        <time>2018-10-12T09:05:47Z</time>
      </trkpt>
      <trkpt lat="46.03557" lon="4.75917">
        <ele>190</ele>
        <time>2018-10-12T09:05:48Z</time>
      </trkpt>
      <trkpt lat="46.0356" lon="4.75923">
        <ele>190</ele>
        <time>2018-10-12T09:05:49Z</time>
      </trkpt>
      <trkpt lat="46.03565" lon="4.75928">
        <ele>190</ele>
        <time>2018-10-12T09:05:50Z</time>
      </trkpt>
      <trkpt lat="46.03568" lon="4.75934">
        <ele>190</ele>
        <time>2018-10-12T09:05:51Z</time>
      </trkpt>
      <trkpt lat="46.0357" lon="4.7594">
        <ele>190</ele>
        <time>2018-10-12T09:05:52Z</time>
      </trkpt>
      <trkpt lat="46.03573" lon="4.75946">
        <ele>190</ele>
        <time>2018-10-12T09:05:53Z</time>
      </trkpt>
      <trkpt lat="46.03577" lon="4.75951">
        <ele>190</ele>
        <time>2018-10-12T09:05:54Z</time>
      </trkpt>
      <trkpt lat="46.0358" lon="4.75958">
        <ele>190</ele>
        <time>2018-10-12T09:05:55Z</time>
      </trkpt>
      <trkpt lat="46.03583" lon="4.75964">
        <ele>190</ele>
        <time>2018-10-12T09:05:56Z</time>
      </trkpt>
      <trkpt lat="46.03585" lon="4.7597">
        <ele>190</ele>
        <time>2018-10-12T09:05:57Z</time>
      </trkpt>
      <trkpt lat="46.03587" lon="4.75976">
        <ele>190</ele>
        <time>2018-10-12T09:05:58Z</time>
      </trkpt>
      <trkpt lat="46.0359" lon="4.75983">
        <ele>190</ele>
        <time>2018-10-12T09:05:59Z</time>
      </trkpt>
      <trkpt lat="46.03593" lon="4.75988">
        <ele>190</ele>
        <time>2018-10-12T09:06:00Z</time>
      </trkpt>
      <trkpt lat="46.03596" lon="4.75995">
        <ele>190</ele>
        <time>2018-10-12T09:06:01Z</time>
      </trkpt>
      <trkpt lat="46.03597" lon="4.76003">
        <ele>191</ele>
        <time>2018-10-12T09:06:02Z</time>
      </trkpt>
      <trkpt lat="46.03601" lon="4.76009">
        <ele>191</ele>
        <time>2018-10-12T09:06:03Z</time>
      </trkpt>
      <trkpt lat="46.03603" lon="4.76015">
        <ele>191</ele>
        <time>2018-10-12T09:06:04Z</time>
      </trkpt>
      <trkpt lat="46.03606" lon="4.76022">
        <ele>191</ele>
        <time>2018-10-12T09:06:05Z</time>
      </trkpt>
      <trkpt lat="46.03608" lon="4.7603">
        <ele>191</ele>
        <time>2018-10-12T09:06:06Z</time>
      </trkpt>
      <trkpt lat="46.03611" lon="4.76038">
        <ele>191</ele>
        <time>2018-10-12T09:06:07Z</time>
      </trkpt>
      <trkpt lat="46.03612" lon="4.76046">
        <ele>191</ele>
        <time>2018-10-12T09:06:08Z</time>
      </trkpt>
      <trkpt lat="46.03615" lon="4.76052">
        <ele>191</ele>
        <time>2018-10-12T09:06:09Z</time>
      </trkpt>
      <trkpt lat="46.03618" lon="4.76058">
        <ele>191</ele>
        <time>2018-10-12T09:06:10Z</time>
      </trkpt>
      <trkpt lat="46.03619" lon="4.76067">
        <ele>191</ele>
        <time>2018-10-12T09:06:11Z</time>
      </trkpt>
      <trkpt lat="46.03621" lon="4.76076">
        <ele>191</ele>
        <time>2018-10-12T09:06:12Z</time>
      </trkpt>
      <trkpt lat="46.03622" lon="4.76082">
        <ele>191</ele>
        <time>2018-10-12T09:06:13Z</time>
      </trkpt>
      <trkpt lat="46.03623" lon="4.7609">
        <ele>192</ele>
        <time>2018-10-12T09:06:14Z</time>
      </trkpt>
      <trkpt lat="46.03624" lon="4.76098">
        <ele>192</ele>
        <time>2018-10-12T09:06:15Z</time>
      </trkpt>
      <trkpt lat="46.03626" lon="4.76109">
        <ele>192</ele>
        <time>2018-10-12T09:06:17Z</time>
      </trkpt>
      <trkpt lat="46.03627" lon="4.76116">
        <ele>192</ele>
        <time>2018-10-12T09:06:18Z</time>
      </trkpt>
      <trkpt lat="46.03626" lon="4.76124">
        <ele>192</ele>
        <time>2018-10-12T09:06:19Z</time>
      </trkpt>
      <trkpt lat="46.03626" lon="4.76132">
        <ele>192</ele>
        <time>2018-10-12T09:06:20Z</time>
      </trkpt>
      <trkpt lat="46.03625" lon="4.76138">
        <ele>192</ele>
        <time>2018-10-12T09:06:21Z</time>
      </trkpt>
      <trkpt lat="46.03626" lon="4.76146">
        <ele>192</ele>
        <time>2018-10-12T09:06:22Z</time>
      </trkpt>
      <trkpt lat="46.03629" lon="4.76153">
        <ele>192</ele>
        <time>2018-10-12T09:06:23Z</time>
      </trkpt>
      <trkpt lat="46.03628" lon="4.76161">
        <ele>192</ele>
        <time>2018-10-12T09:06:24Z</time>
      </trkpt>
      <trkpt lat="46.03627" lon="4.7617">
        <ele>192</ele>
        <time>2018-10-12T09:06:25Z</time>
      </trkpt>
      <trkpt lat="46.03626" lon="4.76178">
        <ele>193</ele>
        <time>2018-10-12T09:06:26Z</time>
      </trkpt>
      <trkpt lat="46.03624" lon="4.76185">
        <ele>193</ele>
        <time>2018-10-12T09:06:27Z</time>
      </trkpt>
      <trkpt lat="46.03623" lon="4.76192">
        <ele>193</ele>
        <time>2018-10-12T09:06:28Z</time>
      </trkpt>
      <trkpt lat="46.03624" lon="4.762">
        <ele>193</ele>
        <time>2018-10-12T09:06:29Z</time>
      </trkpt>
      <trkpt lat="46.03623" lon="4.76209">
        <ele>193</ele>
        <time>2018-10-12T09:06:30Z</time>
      </trkpt>
      <trkpt lat="46.03621" lon="4.76216">
        <ele>193</ele>
        <time>2018-10-12T09:06:31Z</time>
      </trkpt>
      <trkpt lat="46.03619" lon="4.76224">
        <ele>193</ele>
        <time>2018-10-12T09:06:32Z</time>
      </trkpt>
      <trkpt lat="46.03618" lon="4.76232">
        <ele>193</ele>
        <time>2018-10-12T09:06:33Z</time>
      </trkpt>
      <trkpt lat="46.03617" lon="4.76239">
        <ele>193</ele>
        <time>2018-10-12T09:06:34Z</time>
      </trkpt>
      <trkpt lat="46.03616" lon="4.76247">
        <ele>193</ele>
        <time>2018-10-12T09:06:35Z</time>
      </trkpt>
      <trkpt lat="46.03614" lon="4.76254">
        <ele>194</ele>
        <time>2018-10-12T09:06:36Z</time>
      </trkpt>
      <trkpt lat="46.03612" lon="4.76261">
        <ele>194</ele>
        <time>2018-10-12T09:06:37Z</time>
      </trkpt>
      <trkpt lat="46.03612" lon="4.76269">
        <ele>194</ele>
        <time>2018-10-12T09:06:38Z</time>
      </trkpt>
      <trkpt lat="46.03611" lon="4.76277">
        <ele>194</ele>
        <time>2018-10-12T09:06:39Z</time>
      </trkpt>
      <trkpt lat="46.0361" lon="4.76284">
        <ele>194</ele>
        <time>2018-10-12T09:06:40Z</time>
      </trkpt>
      <trkpt lat="46.0361" lon="4.76291">
        <ele>194</ele>
        <time>2018-10-12T09:06:41Z</time>
      </trkpt>
      <trkpt lat="46.03609" lon="4.76299">
        <ele>195</ele>
        <time>2018-10-12T09:06:42Z</time>
      </trkpt>
      <trkpt lat="46.03608" lon="4.76306">
        <ele>195</ele>
        <time>2018-10-12T09:06:43Z</time>
      </trkpt>
      <trkpt lat="46.03606" lon="4.76314">
        <ele>195</ele>
        <time>2018-10-12T09:06:44Z</time>
      </trkpt>
      <trkpt lat="46.03606" lon="4.76321">
        <ele>195</ele>
        <time>2018-10-12T09:06:45Z</time>
      </trkpt>
      <trkpt lat="46.03605" lon="4.76327">
        <ele>195</ele>
        <time>2018-10-12T09:06:46Z</time>
      </trkpt>
      <trkpt lat="46.03604" lon="4.76334">
        <ele>196</ele>
        <time>2018-10-12T09:06:47Z</time>
      </trkpt>
      <trkpt lat="46.03604" lon="4.7634">
        <ele>196</ele>
        <time>2018-10-12T09:06:48Z</time>
      </trkpt>
      <trkpt lat="46.03604" lon="4.76347">
        <ele>196</ele>
        <time>2018-10-12T09:06:49Z</time>
      </trkpt>
      <trkpt lat="46.03604" lon="4.76353">
        <ele>196</ele>
        <time>2018-10-12T09:06:50Z</time>
      </trkpt>
      <trkpt lat="46.03603" lon="4.7636">
        <ele>196</ele>
        <time>2018-10-12T09:06:51Z</time>
      </trkpt>
      <trkpt lat="46.03602" lon="4.76366">
        <ele>197</ele>
        <time>2018-10-12T09:06:52Z</time>
      </trkpt>
      <trkpt lat="46.036" lon="4.76377">
        <ele>197</ele>
        <time>2018-10-12T09:06:54Z</time>
      </trkpt>
      <trkpt lat="46.03599" lon="4.76382">
        <ele>197</ele>
        <time>2018-10-12T09:06:55Z</time>
      </trkpt>
      <trkpt lat="46.03597" lon="4.76394">
        <ele>197</ele>
        <time>2018-10-12T09:06:57Z</time>
      </trkpt>
      <trkpt lat="46.03597" lon="4.764">
        <ele>198</ele>
        <time>2018-10-12T09:06:58Z</time>
      </trkpt>
      <trkpt lat="46.03596" lon="4.76413">
        <ele>198</ele>
        <time>2018-10-12T09:07:00Z</time>
      </trkpt>
      <trkpt lat="46.03596" lon="4.76419">
        <ele>199</ele>
        <time>2018-10-12T09:07:01Z</time>
      </trkpt>
      <trkpt lat="46.03595" lon="4.7643">
        <ele>199</ele>
        <time>2018-10-12T09:07:03Z</time>
      </trkpt>
      <trkpt lat="46.03595" lon="4.76436">
        <ele>199</ele>
        <time>2018-10-12T09:07:04Z</time>
      </trkpt>
      <trkpt lat="46.03594" lon="4.76448">
        <ele>199</ele>
        <time>2018-10-12T09:07:06Z</time>
      </trkpt>
      <trkpt lat="46.03594" lon="4.76455">
        <ele>199</ele>
        <time>2018-10-12T09:07:07Z</time>
      </trkpt>
      <trkpt lat="46.03595" lon="4.76466">
        <ele>199</ele>
        <time>2018-10-12T09:07:09Z</time>
      </trkpt>
      <trkpt lat="46.03596" lon="4.76472">
        <ele>199</ele>
        <time>2018-10-12T09:07:10Z</time>
      </trkpt>
      <trkpt lat="46.03601" lon="4.76476">
        <ele>199</ele>
        <time>2018-10-12T09:07:11Z</time>
      </trkpt>
      <trkpt lat="46.03604" lon="4.7648">
        <ele>199</ele>
        <time>2018-10-12T09:07:12Z</time>
      </trkpt>
      <trkpt lat="46.03607" lon="4.76485">
        <ele>199</ele>
        <time>2018-10-12T09:07:13Z</time>
      </trkpt>
      <trkpt lat="46.03611" lon="4.7649">
        <ele>199</ele>
        <time>2018-10-12T09:07:14Z</time>
      </trkpt>
      <trkpt lat="46.03614" lon="4.76495">
        <ele>199</ele>
        <time>2018-10-12T09:07:15Z</time>
      </trkpt>
      <trkpt lat="46.03618" lon="4.765">
        <ele>199</ele>
        <time>2018-10-12T09:07:16Z</time>
      </trkpt>
      <trkpt lat="46.03623" lon="4.76511">
        <ele>200</ele>
        <time>2018-10-12T09:07:18Z</time>
      </trkpt>
      <trkpt lat="46.03625" lon="4.76516">
        <ele>200</ele>
        <time>2018-10-12T09:07:19Z</time>
      </trkpt>
      <trkpt lat="46.03628" lon="4.76522">
        <ele>200</ele>
        <time>2018-10-12T09:07:20Z</time>
      </trkpt>
      <trkpt lat="46.0363" lon="4.76528">
        <ele>200</ele>
        <time>2018-10-12T09:07:21Z</time>
      </trkpt>
      <trkpt lat="46.03632" lon="4.76533">
        <ele>200</ele>
        <time>2018-10-12T09:07:22Z</time>
      </trkpt>
      <trkpt lat="46.03634" lon="4.76541">
        <ele>200</ele>
        <time>2018-10-12T09:07:23Z</time>
      </trkpt>
      <trkpt lat="46.03637" lon="4.76552">
        <ele>200</ele>
        <time>2018-10-12T09:07:25Z</time>
      </trkpt>
      <trkpt lat="46.03639" lon="4.76557">
        <ele>201</ele>
        <time>2018-10-12T09:07:26Z</time>
      </trkpt>
      <trkpt lat="46.03643" lon="4.76566">
        <ele>201</ele>
        <time>2018-10-12T09:07:28Z</time>
      </trkpt>
      <trkpt lat="46.03646" lon="4.76573">
        <ele>201</ele>
        <time>2018-10-12T09:07:29Z</time>
      </trkpt>
      <trkpt lat="46.03651" lon="4.76581">
        <ele>201</ele>
        <time>2018-10-12T09:07:31Z</time>
      </trkpt>
      <trkpt lat="46.03654" lon="4.76585">
        <ele>202</ele>
        <time>2018-10-12T09:07:32Z</time>
      </trkpt>
      <trkpt lat="46.03661" lon="4.76592">
        <ele>202</ele>
        <time>2018-10-12T09:07:34Z</time>
      </trkpt>
      <trkpt lat="46.03664" lon="4.76595">
        <ele>202</ele>
        <time>2018-10-12T09:07:35Z</time>
      </trkpt>
      <trkpt lat="46.0367" lon="4.76602">
        <ele>203</ele>
        <time>2018-10-12T09:07:37Z</time>
      </trkpt>
      <trkpt lat="46.03672" lon="4.76606">
        <ele>203</ele>
        <time>2018-10-12T09:07:38Z</time>
      </trkpt>
      <trkpt lat="46.03676" lon="4.76616">
        <ele>203</ele>
        <time>2018-10-12T09:07:40Z</time>
      </trkpt>
      <trkpt lat="46.03678" lon="4.76622">
        <ele>203</ele>
        <time>2018-10-12T09:07:41Z</time>
      </trkpt>
      <trkpt lat="46.03679" lon="4.76634">
        <ele>203</ele>
        <time>2018-10-12T09:07:43Z</time>
      </trkpt>
      <trkpt lat="46.03679" lon="4.7664">
        <ele>204</ele>
        <time>2018-10-12T09:07:44Z</time>
      </trkpt>
      <trkpt lat="46.0368" lon="4.76652">
        <ele>204</ele>
        <time>2018-10-12T09:07:46Z</time>
      </trkpt>
      <trkpt lat="46.03681" lon="4.76658">
        <ele>204</ele>
        <time>2018-10-12T09:07:47Z</time>
      </trkpt>
      <trkpt lat="46.03683" lon="4.76669">
        <ele>204</ele>
        <time>2018-10-12T09:07:49Z</time>
      </trkpt>
      <trkpt lat="46.03688" lon="4.76674">
        <ele>205</ele>
        <time>2018-10-12T09:07:50Z</time>
      </trkpt>
      <trkpt lat="46.0369" lon="4.7668">
        <ele>205</ele>
        <time>2018-10-12T09:07:51Z</time>
      </trkpt>
      <trkpt lat="46.03694" lon="4.76684">
        <ele>205</ele>
        <time>2018-10-12T09:07:52Z</time>
      </trkpt>
      <trkpt lat="46.03698" lon="4.76687">
        <ele>205</ele>
        <time>2018-10-12T09:07:53Z</time>
      </trkpt>
      <trkpt lat="46.03702" lon="4.7669">
        <ele>205</ele>
        <time>2018-10-12T09:07:54Z</time>
      </trkpt>
      <trkpt lat="46.03709" lon="4.76696">
        <ele>205</ele>
        <time>2018-10-12T09:07:56Z</time>
      </trkpt>
      <trkpt lat="46.03714" lon="4.76701">
        <ele>205</ele>
        <time>2018-10-12T09:07:57Z</time>
      </trkpt>
      <trkpt lat="46.03718" lon="4.76707">
        <ele>205</ele>
        <time>2018-10-12T09:07:58Z</time>
      </trkpt>
      <trkpt lat="46.03723" lon="4.76703">
        <ele>205</ele>
        <time>2018-10-12T09:07:59Z</time>
      </trkpt>
      <trkpt lat="46.03725" lon="4.76703">
        <ele>205</ele>
        <time>2018-10-12T09:08:00Z</time>
      </trkpt>
      <trkpt lat="46.03733" lon="4.76704">
        <ele>205</ele>
        <time>2018-10-12T09:08:01Z</time>
      </trkpt>
      <trkpt lat="46.03737" lon="4.76706">
        <ele>205</ele>
        <time>2018-10-12T09:08:02Z</time>
      </trkpt>
      <trkpt lat="46.03741" lon="4.76707">
        <ele>205</ele>
        <time>2018-10-12T09:08:03Z</time>
      </trkpt>
      <trkpt lat="46.03746" lon="4.76707">
        <ele>205</ele>
        <time>2018-10-12T09:08:04Z</time>
      </trkpt>
      <trkpt lat="46.03751" lon="4.76707">
        <ele>205</ele>
        <time>2018-10-12T09:08:05Z</time>
      </trkpt>
      <trkpt lat="46.03759" lon="4.7671">
        <ele>205</ele>
        <time>2018-10-12T09:08:07Z</time>
      </trkpt>
      <trkpt lat="46.03763" lon="4.76713">
        <ele>205</ele>
        <time>2018-10-12T09:08:08Z</time>
      </trkpt>
      <trkpt lat="46.03771" lon="4.76715">
        <ele>205</ele>
        <time>2018-10-12T09:08:10Z</time>
      </trkpt>
      <trkpt lat="46.03777" lon="4.76715">
        <ele>205</ele>
        <time>2018-10-12T09:08:11Z</time>
      </trkpt>
      <trkpt lat="46.03785" lon="4.76715">
        <ele>205</ele>
        <time>2018-10-12T09:08:13Z</time>
      </trkpt>
      <trkpt lat="46.0379" lon="4.76715">
        <ele>205</ele>
        <time>2018-10-12T09:08:14Z</time>
      </trkpt>
      <trkpt lat="46.03799" lon="4.76714">
        <ele>205</ele>
        <time>2018-10-12T09:08:16Z</time>
      </trkpt>
      <trkpt lat="46.03803" lon="4.76714">
        <ele>205</ele>
        <time>2018-10-12T09:08:17Z</time>
      </trkpt>
      <trkpt lat="46.03808" lon="4.76713">
        <ele>205</ele>
        <time>2018-10-12T09:08:18Z</time>
      </trkpt>
      <trkpt lat="46.03813" lon="4.76713">
        <ele>205</ele>
        <time>2018-10-12T09:08:19Z</time>
      </trkpt>
      <trkpt lat="46.03818" lon="4.76713">
        <ele>205</ele>
        <time>2018-10-12T09:08:20Z</time>
      </trkpt>
      <trkpt lat="46.03824" lon="4.76713">
        <ele>205</ele>
        <time>2018-10-12T09:08:21Z</time>
      </trkpt>
      <trkpt lat="46.03829" lon="4.76712">
        <ele>205</ele>
        <time>2018-10-12T09:08:22Z</time>
      </trkpt>
      <trkpt lat="46.03834" lon="4.76711">
        <ele>205</ele>
        <time>2018-10-12T09:08:23Z</time>
      </trkpt>
      <trkpt lat="46.0384" lon="4.7671">
        <ele>205</ele>
        <time>2018-10-12T09:08:24Z</time>
      </trkpt>
      <trkpt lat="46.03845" lon="4.76709">
        <ele>205</ele>
        <time>2018-10-12T09:08:25Z</time>
      </trkpt>
      <trkpt lat="46.03851" lon="4.76709">
        <ele>205</ele>
        <time>2018-10-12T09:08:26Z</time>
      </trkpt>
      <trkpt lat="46.03856" lon="4.76708">
        <ele>205</ele>
        <time>2018-10-12T09:08:27Z</time>
      </trkpt>
      <trkpt lat="46.03863" lon="4.76705">
        <ele>205</ele>
        <time>2018-10-12T09:08:28Z</time>
      </trkpt>
      <trkpt lat="46.03868" lon="4.76705">
        <ele>205</ele>
        <time>2018-10-12T09:08:29Z</time>
      </trkpt>
      <trkpt lat="46.03873" lon="4.76705">
        <ele>205</ele>
        <time>2018-10-12T09:08:30Z</time>
      </trkpt>
      <trkpt lat="46.03879" lon="4.76703">
        <ele>205</ele>
        <time>2018-10-12T09:08:31Z</time>
      </trkpt>
      <trkpt lat="46.03886" lon="4.76701">
        <ele>205</ele>
        <time>2018-10-12T09:08:32Z</time>
      </trkpt>
      <trkpt lat="46.03891" lon="4.76701">
        <ele>205</ele>
        <time>2018-10-12T09:08:33Z</time>
      </trkpt>
      <trkpt lat="46.03897" lon="4.76698">
        <ele>205</ele>
        <time>2018-10-12T09:08:34Z</time>
      </trkpt>
      <trkpt lat="46.03903" lon="4.76695">
        <ele>205</ele>
        <time>2018-10-12T09:08:35Z</time>
      </trkpt>
      <trkpt lat="46.03908" lon="4.76694">
        <ele>205</ele>
        <time>2018-10-12T09:08:36Z</time>
      </trkpt>
      <trkpt lat="46.03913" lon="4.76692">
        <ele>205</ele>
        <time>2018-10-12T09:08:37Z</time>
      </trkpt>
      <trkpt lat="46.03919" lon="4.76692">
        <ele>204</ele>
        <time>2018-10-12T09:08:38Z</time>
      </trkpt>
      <trkpt lat="46.03924" lon="4.76691">
        <ele>204</ele>
        <time>2018-10-12T09:08:39Z</time>
      </trkpt>
      <trkpt lat="46.03929" lon="4.7669">
        <ele>204</ele>
        <time>2018-10-12T09:08:40Z</time>
      </trkpt>
      <trkpt lat="46.03934" lon="4.76688">
        <ele>204</ele>
        <time>2018-10-12T09:08:41Z</time>
      </trkpt>
      <trkpt lat="46.03939" lon="4.76687">
        <ele>204</ele>
        <time>2018-10-12T09:08:42Z</time>
      </trkpt>
      <trkpt lat="46.03945" lon="4.76685">
        <ele>204</ele>
        <time>2018-10-12T09:08:43Z</time>
      </trkpt>
      <trkpt lat="46.03952" lon="4.76682">
        <ele>204</ele>
        <time>2018-10-12T09:08:45Z</time>
      </trkpt>
      <trkpt lat="46.03954" lon="4.76681">
        <ele>204</ele>
        <time>2018-10-12T09:08:46Z</time>
      </trkpt>
      <trkpt lat="46.03963" lon="4.76679">
        <ele>203</ele>
        <time>2018-10-12T09:08:50Z</time>
      </trkpt>
      <trkpt lat="46.03965" lon="4.76679">
        <ele>203</ele>
        <time>2018-10-12T09:08:51Z</time>
      </trkpt>
      <trkpt lat="46.03973" lon="4.76675">
        <ele>203</ele>
        <time>2018-10-12T09:09:47Z</time>
      </trkpt>
      <trkpt lat="46.03974" lon="4.76675">
        <ele>203</ele>
        <time>2018-10-12T09:09:48Z</time>
      </trkpt>
      <trkpt lat="46.03982" lon="4.76674">
        <ele>203</ele>
        <time>2018-10-12T09:09:52Z</time>
      </trkpt>
      <trkpt lat="46.03984" lon="4.76674">
        <ele>203</ele>
        <time>2018-10-12T09:09:53Z</time>
      </trkpt>
      <trkpt lat="46.0399" lon="4.76673">
        <ele>203</ele>
        <time>2018-10-12T09:09:55Z</time>
      </trkpt>
      <trkpt lat="46.03996" lon="4.76673">
        <ele>202</ele>
        <time>2018-10-12T09:09:56Z</time>
      </trkpt>
      <trkpt lat="46.04004" lon="4.76671">
        <ele>202</ele>
        <time>2018-10-12T09:09:58Z</time>
      </trkpt>
      <trkpt lat="46.04009" lon="4.76671">
        <ele>202</ele>
        <time>2018-10-12T09:09:59Z</time>
      </trkpt>
      <trkpt lat="46.04014" lon="4.76669">
        <ele>202</ele>
        <time>2018-10-12T09:10:00Z</time>
      </trkpt>
      <trkpt lat="46.04018" lon="4.76668">
        <ele>202</ele>
        <time>2018-10-12T09:10:01Z</time>
      </trkpt>
      <trkpt lat="46.04027" lon="4.76666">
        <ele>201</ele>
        <time>2018-10-12T09:10:03Z</time>
      </trkpt>
      <trkpt lat="46.04031" lon="4.76665">
        <ele>201</ele>
        <time>2018-10-12T09:10:04Z</time>
      </trkpt>
      <trkpt lat="46.04036" lon="4.76664">
        <ele>201</ele>
        <time>2018-10-12T09:10:05Z</time>
      </trkpt>
      <trkpt lat="46.04043" lon="4.76663">
        <ele>201</ele>
        <time>2018-10-12T09:10:06Z</time>
      </trkpt>
      <trkpt lat="46.04048" lon="4.76663">
        <ele>201</ele>
        <time>2018-10-12T09:10:07Z</time>
      </trkpt>
      <trkpt lat="46.04055" lon="4.7666">
        <ele>201</ele>
        <time>2018-10-12T09:10:08Z</time>
      </trkpt>
      <trkpt lat="46.04062" lon="4.7666">
        <ele>201</ele>
        <time>2018-10-12T09:10:09Z</time>
      </trkpt>
      <trkpt lat="46.04068" lon="4.7666">
        <ele>201</ele>
        <time>2018-10-12T09:10:10Z</time>
      </trkpt>
      <trkpt lat="46.04078" lon="4.76654">
        <ele>201</ele>
        <time>2018-10-12T09:10:11Z</time>
      </trkpt>
      <trkpt lat="46.04084" lon="4.76653">
        <ele>201</ele>
        <time>2018-10-12T09:10:12Z</time>
      </trkpt>
      <trkpt lat="46.0409" lon="4.76653">
        <ele>201</ele>
        <time>2018-10-12T09:10:13Z</time>
      </trkpt>
      <trkpt lat="46.04097" lon="4.76653">
        <ele>201</ele>
        <time>2018-10-12T09:10:14Z</time>
      </trkpt>
      <trkpt lat="46.04102" lon="4.76651">
        <ele>201</ele>
        <time>2018-10-12T09:10:15Z</time>
      </trkpt>
      <trkpt lat="46.0411" lon="4.7665">
        <ele>200</ele>
        <time>2018-10-12T09:10:16Z</time>
      </trkpt>
      <trkpt lat="46.04115" lon="4.76649">
        <ele>200</ele>
        <time>2018-10-12T09:10:17Z</time>
      </trkpt>
      <trkpt lat="46.04121" lon="4.76647">
        <ele>200</ele>
        <time>2018-10-12T09:10:18Z</time>
      </trkpt>
      <trkpt lat="46.04128" lon="4.76646">
        <ele>200</ele>
        <time>2018-10-12T09:10:19Z</time>
      </trkpt>
      <trkpt lat="46.04134" lon="4.76643">
        <ele>200</ele>
        <time>2018-10-12T09:10:20Z</time>
      </trkpt>
      <trkpt lat="46.04141" lon="4.76641">
        <ele>200</ele>
        <time>2018-10-12T09:10:21Z</time>
      </trkpt>
      <trkpt lat="46.04147" lon="4.76637">
        <ele>200</ele>
        <time>2018-10-12T09:10:22Z</time>
      </trkpt>
      <trkpt lat="46.04153" lon="4.76633">
        <ele>200</ele>
        <time>2018-10-12T09:10:23Z</time>
      </trkpt>
      <trkpt lat="46.04158" lon="4.76629">
        <ele>200</ele>
        <time>2018-10-12T09:10:24Z</time>
      </trkpt>
      <trkpt lat="46.04163" lon="4.76623">
        <ele>199</ele>
        <time>2018-10-12T09:10:25Z</time>
      </trkpt>
      <trkpt lat="46.0417" lon="4.76619">
        <ele>198</ele>
        <time>2018-10-12T09:10:26Z</time>
      </trkpt>
      <trkpt lat="46.04175" lon="4.76614">
        <ele>198</ele>
        <time>2018-10-12T09:10:27Z</time>
      </trkpt>
      <trkpt lat="46.04181" lon="4.76609">
        <ele>198</ele>
        <time>2018-10-12T09:10:28Z</time>
      </trkpt>
      <trkpt lat="46.04187" lon="4.76605">
        <ele>198</ele>
        <time>2018-10-12T09:10:29Z</time>
      </trkpt>
      <trkpt lat="46.04193" lon="4.766">
        <ele>198</ele>
        <time>2018-10-12T09:10:30Z</time>
      </trkpt>
      <trkpt lat="46.04199" lon="4.76598">
        <ele>198</ele>
        <time>2018-10-12T09:10:31Z</time>
      </trkpt>
      <trkpt lat="46.04206" lon="4.76596">
        <ele>198</ele>
        <time>2018-10-12T09:10:32Z</time>
      </trkpt>
      <trkpt lat="46.04213" lon="4.76594">
        <ele>198</ele>
        <time>2018-10-12T09:10:33Z</time>
      </trkpt>
      <trkpt lat="46.0422" lon="4.76593">
        <ele>198</ele>
        <time>2018-10-12T09:10:34Z</time>
      </trkpt>
      <trkpt lat="46.04227" lon="4.76592">
        <ele>198</ele>
        <time>2018-10-12T09:10:35Z</time>
      </trkpt>
      <trkpt lat="46.04233" lon="4.76591">
        <ele>198</ele>
        <time>2018-10-12T09:10:36Z</time>
      </trkpt>
      <trkpt lat="46.0424" lon="4.7659">
        <ele>197</ele>
        <time>2018-10-12T09:10:37Z</time>
      </trkpt>
      <trkpt lat="46.04248" lon="4.7659">
        <ele>197</ele>
        <time>2018-10-12T09:10:38Z</time>
      </trkpt>
      <trkpt lat="46.04255" lon="4.7659">
        <ele>197</ele>
        <time>2018-10-12T09:10:39Z</time>
      </trkpt>
      <trkpt lat="46.04261" lon="4.76589">
        <ele>197</ele>
        <time>2018-10-12T09:10:40Z</time>
      </trkpt>
      <trkpt lat="46.04269" lon="4.76589">
        <ele>197</ele>
        <time>2018-10-12T09:10:41Z</time>
      </trkpt>
      <trkpt lat="46.04276" lon="4.7659">
        <ele>198</ele>
        <time>2018-10-12T09:10:42Z</time>
      </trkpt>
      <trkpt lat="46.04283" lon="4.76589">
        <ele>198</ele>
        <time>2018-10-12T09:10:43Z</time>
      </trkpt>
      <trkpt lat="46.04291" lon="4.76589">
        <ele>198</ele>
        <time>2018-10-12T09:10:44Z</time>
      </trkpt>
      <trkpt lat="46.04299" lon="4.76579">
        <ele>197</ele>
        <time>2018-10-12T09:10:45Z</time>
      </trkpt>
      <trkpt lat="46.04308" lon="4.76579">
        <ele>197</ele>
        <time>2018-10-12T09:10:46Z</time>
      </trkpt>
      <trkpt lat="46.04314" lon="4.7658">
        <ele>197</ele>
        <time>2018-10-12T09:10:47Z</time>
      </trkpt>
      <trkpt lat="46.04321" lon="4.7658">
        <ele>198</ele>
        <time>2018-10-12T09:10:48Z</time>
      </trkpt>
      <trkpt lat="46.04329" lon="4.7658">
        <ele>198</ele>
        <time>2018-10-12T09:10:49Z</time>
      </trkpt>
      <trkpt lat="46.04337" lon="4.7658">
        <ele>199</ele>
        <time>2018-10-12T09:10:50Z</time>
      </trkpt>
      <trkpt lat="46.04346" lon="4.76583">
        <ele>198</ele>
        <time>2018-10-12T09:10:51Z</time>
      </trkpt>
      <trkpt lat="46.04354" lon="4.76583">
        <ele>198</ele>
        <time>2018-10-12T09:10:52Z</time>
      </trkpt>
      <trkpt lat="46.04362" lon="4.7658">
        <ele>198</ele>
        <time>2018-10-12T09:10:53Z</time>
      </trkpt>
      <trkpt lat="46.0437" lon="4.7658">
        <ele>197</ele>
        <time>2018-10-12T09:10:54Z</time>
      </trkpt>
      <trkpt lat="46.04377" lon="4.7658">
        <ele>197</ele>
        <time>2018-10-12T09:10:55Z</time>
      </trkpt>
      <trkpt lat="46.04385" lon="4.76579">
        <ele>197</ele>
        <time>2018-10-12T09:10:56Z</time>
      </trkpt>
      <trkpt lat="46.04392" lon="4.76579">
        <ele>198</ele>
        <time>2018-10-12T09:10:57Z</time>
      </trkpt>
      <trkpt lat="46.04399" lon="4.76577">
        <ele>198</ele>
        <time>2018-10-12T09:10:58Z</time>
      </trkpt>
      <trkpt lat="46.04406" lon="4.76575">
        <ele>198</ele>
        <time>2018-10-12T09:10:59Z</time>
      </trkpt>
      <trkpt lat="46.04412" lon="4.76575">
        <ele>198</ele>
        <time>2018-10-12T09:11:00Z</time>
      </trkpt>
      <trkpt lat="46.04422" lon="4.76576">
        <ele>197</ele>
        <time>2018-10-12T09:11:01Z</time>
      </trkpt>
      <trkpt lat="46.04428" lon="4.76576">
        <ele>197</ele>
        <time>2018-10-12T09:11:02Z</time>
      </trkpt>
      <trkpt lat="46.04434" lon="4.76577">
        <ele>196</ele>
        <time>2018-10-12T09:11:03Z</time>
      </trkpt>
      <trkpt lat="46.04441" lon="4.76575">
        <ele>195</ele>
        <time>2018-10-12T09:11:04Z</time>
      </trkpt>
      <trkpt lat="46.04447" lon="4.76574">
        <ele>195</ele>
        <time>2018-10-12T09:11:05Z</time>
      </trkpt>
      <trkpt lat="46.04453" lon="4.76575">
        <ele>194</ele>
        <time>2018-10-12T09:11:06Z</time>
      </trkpt>
      <trkpt lat="46.0446" lon="4.76574">
        <ele>194</ele>
        <time>2018-10-12T09:11:07Z</time>
      </trkpt>
      <trkpt lat="46.04464" lon="4.76573">
        <ele>194</ele>
        <time>2018-10-12T09:11:08Z</time>
      </trkpt>
      <trkpt lat="46.04471" lon="4.76573">
        <ele>193</ele>
        <time>2018-10-12T09:11:09Z</time>
      </trkpt>
      <trkpt lat="46.04478" lon="4.76574">
        <ele>193</ele>
        <time>2018-10-12T09:11:10Z</time>
      </trkpt>
      <trkpt lat="46.04486" lon="4.76573">
        <ele>192</ele>
        <time>2018-10-12T09:11:11Z</time>
      </trkpt>
      <trkpt lat="46.04491" lon="4.76573">
        <ele>192</ele>
        <time>2018-10-12T09:11:12Z</time>
      </trkpt>
      <trkpt lat="46.04497" lon="4.76573">
        <ele>192</ele>
        <time>2018-10-12T09:11:13Z</time>
      </trkpt>
      <trkpt lat="46.04504" lon="4.76571">
        <ele>190</ele>
        <time>2018-10-12T09:11:15Z</time>
      </trkpt>
      <trkpt lat="46.04507" lon="4.7657">
        <ele>190</ele>
        <time>2018-10-12T09:11:16Z</time>
      </trkpt>
      <trkpt lat="46.04511" lon="4.7657">
        <ele>190</ele>
        <time>2018-10-12T09:11:18Z</time>
      </trkpt>
      <trkpt lat="46.04518" lon="4.76569">
        <ele>189</ele>
        <time>2018-10-12T09:11:19Z</time>
      </trkpt>
      <trkpt lat="46.04526" lon="4.76568">
        <ele>189</ele>
        <time>2018-10-12T09:11:21Z</time>
      </trkpt>
      <trkpt lat="46.0453" lon="4.76567">
        <ele>189</ele>
        <time>2018-10-12T09:11:22Z</time>
      </trkpt>
      <trkpt lat="46.04534" lon="4.76566">
        <ele>188</ele>
        <time>2018-10-12T09:11:23Z</time>
      </trkpt>
      <trkpt lat="46.04539" lon="4.76565">
        <ele>188</ele>
        <time>2018-10-12T09:11:24Z</time>
      </trkpt>
      <trkpt lat="46.04544" lon="4.76563">
        <ele>188</ele>
        <time>2018-10-12T09:11:25Z</time>
      </trkpt>
      <trkpt lat="46.0455" lon="4.7656">
        <ele>188</ele>
        <time>2018-10-12T09:11:26Z</time>
      </trkpt>
      <trkpt lat="46.04555" lon="4.76558">
        <ele>188</ele>
        <time>2018-10-12T09:11:27Z</time>
      </trkpt>
      <trkpt lat="46.04561" lon="4.76556">
        <ele>187</ele>
        <time>2018-10-12T09:11:28Z</time>
      </trkpt>
      <trkpt lat="46.04566" lon="4.76552">
        <ele>187</ele>
        <time>2018-10-12T09:11:29Z</time>
      </trkpt>
      <trkpt lat="46.04572" lon="4.7655">
        <ele>187</ele>
        <time>2018-10-12T09:11:30Z</time>
      </trkpt>
      <trkpt lat="46.04577" lon="4.76548">
        <ele>187</ele>
        <time>2018-10-12T09:11:31Z</time>
      </trkpt>
      <trkpt lat="46.04583" lon="4.76546">
        <ele>187</ele>
        <time>2018-10-12T09:11:32Z</time>
      </trkpt>
      <trkpt lat="46.04588" lon="4.76544">
        <ele>186</ele>
        <time>2018-10-12T09:11:33Z</time>
      </trkpt>
      <trkpt lat="46.04594" lon="4.76541">
        <ele>186</ele>
        <time>2018-10-12T09:11:34Z</time>
      </trkpt>
      <trkpt lat="46.04599" lon="4.76539">
        <ele>186</ele>
        <time>2018-10-12T09:11:35Z</time>
      </trkpt>
      <trkpt lat="46.04605" lon="4.76537">
        <ele>186</ele>
        <time>2018-10-12T09:11:36Z</time>
      </trkpt>
      <trkpt lat="46.0461" lon="4.76535">
        <ele>186</ele>
        <time>2018-10-12T09:11:37Z</time>
      </trkpt>
      <trkpt lat="46.04615" lon="4.76533">
        <ele>186</ele>
        <time>2018-10-12T09:11:38Z</time>
      </trkpt>
      <trkpt lat="46.04621" lon="4.76531">
        <ele>186</ele>
        <time>2018-10-12T09:11:39Z</time>
      </trkpt>
      <trkpt lat="46.04626" lon="4.76529">
        <ele>186</ele>
        <time>2018-10-12T09:11:40Z</time>
      </trkpt>
      <trkpt lat="46.0463" lon="4.76528">
        <ele>186</ele>
        <time>2018-10-12T09:11:41Z</time>
      </trkpt>
      <trkpt lat="46.04637" lon="4.76523">
        <ele>186</ele>
        <time>2018-10-12T09:11:42Z</time>
      </trkpt>
      <trkpt lat="46.04641" lon="4.76522">
        <ele>186</ele>
        <time>2018-10-12T09:11:43Z</time>
      </trkpt>
      <trkpt lat="46.04646" lon="4.76522">
        <ele>186</ele>
        <time>2018-10-12T09:11:44Z</time>
      </trkpt>
      <trkpt lat="46.0465" lon="4.76522">
        <ele>186</ele>
        <time>2018-10-12T09:11:45Z</time>
      </trkpt>
      <trkpt lat="46.04655" lon="4.76521">
        <ele>186</ele>
        <time>2018-10-12T09:11:46Z</time>
      </trkpt>
      <trkpt lat="46.0466" lon="4.76522">
        <ele>186</ele>
        <time>2018-10-12T09:11:47Z</time>
      </trkpt>
      <trkpt lat="46.04665" lon="4.76522">
        <ele>186</ele>
        <time>2018-10-12T09:11:48Z</time>
      </trkpt>
      <trkpt lat="46.04673" lon="4.76523">
        <ele>187</ele>
        <time>2018-10-12T09:11:50Z</time>
      </trkpt>
      <trkpt lat="46.04675" lon="4.76523">
        <ele>187</ele>
        <time>2018-10-12T09:11:51Z</time>
      </trkpt>
      <trkpt lat="46.04684" lon="4.76523">
        <ele>187</ele>
        <time>2018-10-12T09:11:55Z</time>
      </trkpt>
      <trkpt lat="46.04685" lon="4.76523">
        <ele>187</ele>
        <time>2018-10-12T09:11:56Z</time>
      </trkpt>
      <trkpt lat="46.04691" lon="4.7652">
        <ele>187</ele>
        <time>2018-10-12T09:12:00Z</time>
      </trkpt>
      <trkpt lat="46.04693" lon="4.76517">
        <ele>187</ele>
        <time>2018-10-12T09:12:01Z</time>
      </trkpt>
      <trkpt lat="46.04699" lon="4.76508">
        <ele>187</ele>
        <time>2018-10-12T09:12:04Z</time>
      </trkpt>
      <trkpt lat="46.04701" lon="4.76505">
        <ele>188</ele>
        <time>2018-10-12T09:12:05Z</time>
      </trkpt>
      <trkpt lat="46.04707" lon="4.76497">
        <ele>189</ele>
        <time>2018-10-12T09:12:08Z</time>
      </trkpt>
      <trkpt lat="46.04709" lon="4.76496">
        <ele>189</ele>
        <time>2018-10-12T09:12:09Z</time>
      </trkpt>
      <trkpt lat="46.04718" lon="4.76493">
        <ele>189</ele>
        <time>2018-10-12T09:12:12Z</time>
      </trkpt>
      <trkpt lat="46.04721" lon="4.76492">
        <ele>189</ele>
        <time>2018-10-12T09:12:13Z</time>
      </trkpt>
      <trkpt lat="46.04727" lon="4.7649">
        <ele>189</ele>
        <time>2018-10-12T09:12:15Z</time>
      </trkpt>
      <trkpt lat="46.0473" lon="4.7649">
        <ele>190</ele>
        <time>2018-10-12T09:12:16Z</time>
      </trkpt>
      <trkpt lat="46.04738" lon="4.76487">
        <ele>190</ele>
        <time>2018-10-12T09:12:19Z</time>
      </trkpt>
      <trkpt lat="46.04742" lon="4.76486">
        <ele>190</ele>
        <time>2018-10-12T09:12:20Z</time>
      </trkpt>
      <trkpt lat="46.04748" lon="4.76483">
        <ele>190</ele>
        <time>2018-10-12T09:12:22Z</time>
      </trkpt>
      <trkpt lat="46.04752" lon="4.76482">
        <ele>192</ele>
        <time>2018-10-12T09:12:23Z</time>
      </trkpt>
      <trkpt lat="46.0476" lon="4.76477">
        <ele>192</ele>
        <time>2018-10-12T09:12:26Z</time>
      </trkpt>
      <trkpt lat="46.04763" lon="4.76475">
        <ele>192</ele>
        <time>2018-10-12T09:12:27Z</time>
      </trkpt>
      <trkpt lat="46.04765" lon="4.76473">
        <ele>192</ele>
        <time>2018-10-12T09:12:28Z</time>
      </trkpt>
      <trkpt lat="46.04773" lon="4.76465">
        <ele>192</ele>
        <time>2018-10-12T09:12:29Z</time>
      </trkpt>
      <trkpt lat="46.04779" lon="4.76456">
        <ele>192</ele>
        <time>2018-10-12T09:12:31Z</time>
      </trkpt>
      <trkpt lat="46.04783" lon="4.76447">
        <ele>192</ele>
        <time>2018-10-12T09:12:32Z</time>
      </trkpt>
      <trkpt lat="46.04791" lon="4.76442">
        <ele>192</ele>
        <time>2018-10-12T09:12:34Z</time>
      </trkpt>
      <trkpt lat="46.04794" lon="4.7644">
        <ele>193</ele>
        <time>2018-10-12T09:12:35Z</time>
      </trkpt>
      <trkpt lat="46.04802" lon="4.76436">
        <ele>193</ele>
        <time>2018-10-12T09:12:39Z</time>
      </trkpt>
      <trkpt lat="46.0481" lon="4.76436">
        <ele>193</ele>
        <time>2018-10-12T09:12:40Z</time>
      </trkpt>
      <trkpt lat="46.04818" lon="4.76437">
        <ele>193</ele>
        <time>2018-10-12T09:12:43Z</time>
      </trkpt>
      <trkpt lat="46.04826" lon="4.76439">
        <ele>193</ele>
        <time>2018-10-12T09:12:44Z</time>
      </trkpt>
      <trkpt lat="46.04834" lon="4.76441">
        <ele>194</ele>
        <time>2018-10-12T09:12:46Z</time>
      </trkpt>
      <trkpt lat="46.04838" lon="4.76441">
        <ele>194</ele>
        <time>2018-10-12T09:12:47Z</time>
      </trkpt>
      <trkpt lat="46.04846" lon="4.76443">
        <ele>194</ele>
        <time>2018-10-12T09:12:49Z</time>
      </trkpt>
      <trkpt lat="46.04849" lon="4.76443">
        <ele>193</ele>
        <time>2018-10-12T09:12:50Z</time>
      </trkpt>
      <trkpt lat="46.04854" lon="4.76445">
        <ele>193</ele>
        <time>2018-10-12T09:12:51Z</time>
      </trkpt>
      <trkpt lat="46.04858" lon="4.76446">
        <ele>193</ele>
        <time>2018-10-12T09:12:52Z</time>
      </trkpt>
      <trkpt lat="46.04867" lon="4.76448">
        <ele>193</ele>
        <time>2018-10-12T09:12:54Z</time>
      </trkpt>
      <trkpt lat="46.04871" lon="4.76449">
        <ele>193</ele>
        <time>2018-10-12T09:12:55Z</time>
      </trkpt>
      <trkpt lat="46.0488" lon="4.76451">
        <ele>193</ele>
        <time>2018-10-12T09:12:57Z</time>
      </trkpt>
      <trkpt lat="46.04884" lon="4.76451">
        <ele>193</ele>
        <time>2018-10-12T09:12:58Z</time>
      </trkpt>
      <trkpt lat="46.04893" lon="4.7645">
        <ele>193</ele>
        <time>2018-10-12T09:13:00Z</time>
      </trkpt>
      <trkpt lat="46.04897" lon="4.76449">
        <ele>193</ele>
        <time>2018-10-12T09:13:01Z</time>
      </trkpt>
      <trkpt lat="46.04902" lon="4.76449">
        <ele>193</ele>
        <time>2018-10-12T09:13:02Z</time>
      </trkpt>
      <trkpt lat="46.04906" lon="4.76447">
        <ele>193</ele>
        <time>2018-10-12T09:13:03Z</time>
      </trkpt>
      <trkpt lat="46.04911" lon="4.76444">
        <ele>193</ele>
        <time>2018-10-12T09:13:04Z</time>
      </trkpt>
      <trkpt lat="46.04918" lon="4.76438">
        <ele>191</ele>
        <time>2018-10-12T09:13:05Z</time>
      </trkpt>
      <trkpt lat="46.04923" lon="4.76436">
        <ele>191</ele>
        <time>2018-10-12T09:13:06Z</time>
      </trkpt>
      <trkpt lat="46.04928" lon="4.76433">
        <ele>191</ele>
        <time>2018-10-12T09:13:07Z</time>
      </trkpt>
      <trkpt lat="46.04933" lon="4.7643">
        <ele>191</ele>
        <time>2018-10-12T09:13:08Z</time>
      </trkpt>
      <trkpt lat="46.04937" lon="4.76428">
        <ele>191</ele>
        <time>2018-10-12T09:13:09Z</time>
      </trkpt>
      <trkpt lat="46.04946" lon="4.76437">
        <ele>191</ele>
        <time>2018-10-12T09:13:10Z</time>
      </trkpt>
      <trkpt lat="46.04953" lon="4.76438">
        <ele>191</ele>
        <time>2018-10-12T09:13:11Z</time>
      </trkpt>
      <trkpt lat="46.04957" lon="4.76442">
        <ele>191</ele>
        <time>2018-10-12T09:13:12Z</time>
      </trkpt>
      <trkpt lat="46.04961" lon="4.76447">
        <ele>191</ele>
        <time>2018-10-12T09:13:13Z</time>
      </trkpt>
      <trkpt lat="46.04965" lon="4.76452">
        <ele>191</ele>
        <time>2018-10-12T09:13:14Z</time>
      </trkpt>
      <trkpt lat="46.04969" lon="4.76457">
        <ele>191</ele>
        <time>2018-10-12T09:13:15Z</time>
      </trkpt>
      <trkpt lat="46.04971" lon="4.76463">
        <ele>191</ele>
        <time>2018-10-12T09:13:16Z</time>
      </trkpt>
      <trkpt lat="46.04975" lon="4.76474">
        <ele>191</ele>
        <time>2018-10-12T09:13:18Z</time>
      </trkpt>
      <trkpt lat="46.04976" lon="4.76481">
        <ele>191</ele>
        <time>2018-10-12T09:13:19Z</time>
      </trkpt>
      <trkpt lat="46.04979" lon="4.76491">
        <ele>191</ele>
        <time>2018-10-12T09:13:22Z</time>
      </trkpt>
      <trkpt lat="46.04984" lon="4.76502">
        <ele>191</ele>
        <time>2018-10-12T09:13:23Z</time>
      </trkpt>
      <trkpt lat="46.04987" lon="4.76508">
        <ele>191</ele>
        <time>2018-10-12T09:13:24Z</time>
      </trkpt>
      <trkpt lat="46.0499" lon="4.76513">
        <ele>191</ele>
        <time>2018-10-12T09:13:25Z</time>
      </trkpt>
      <trkpt lat="46.04992" lon="4.76524">
        <ele>191</ele>
        <time>2018-10-12T09:13:27Z</time>
      </trkpt>
      <trkpt lat="46.04994" lon="4.76529">
        <ele>191</ele>
        <time>2018-10-12T09:13:28Z</time>
      </trkpt>
      <trkpt lat="46.04999" lon="4.76538">
        <ele>191</ele>
        <time>2018-10-12T09:13:30Z</time>
      </trkpt>
      <trkpt lat="46.05001" lon="4.76543">
        <ele>190</ele>
        <time>2018-10-12T09:13:31Z</time>
      </trkpt>
      <trkpt lat="46.05005" lon="4.76553">
        <ele>190</ele>
        <time>2018-10-12T09:13:34Z</time>
      </trkpt>
      <trkpt lat="46.05007" lon="4.76556">
        <ele>190</ele>
        <time>2018-10-12T09:13:35Z</time>
      </trkpt>
      <trkpt lat="46.05008" lon="4.76559">
        <ele>190</ele>
        <time>2018-10-12T09:13:36Z</time>
      </trkpt>
      <trkpt lat="46.0501" lon="4.76568">
        <ele>191</ele>
        <time>2018-10-12T09:13:37Z</time>
      </trkpt>
      <trkpt lat="46.05017" lon="4.76574">
        <ele>191</ele>
        <time>2018-10-12T09:13:39Z</time>
      </trkpt>
      <trkpt lat="46.05021" lon="4.76575">
        <ele>191</ele>
        <time>2018-10-12T09:13:40Z</time>
      </trkpt>
      <trkpt lat="46.05025" lon="4.76575">
        <ele>190</ele>
        <time>2018-10-12T09:13:41Z</time>
      </trkpt>
      <trkpt lat="46.0503" lon="4.76577">
        <ele>190</ele>
        <time>2018-10-12T09:13:42Z</time>
      </trkpt>
      <trkpt lat="46.05037" lon="4.76581">
        <ele>190</ele>
        <time>2018-10-12T09:13:44Z</time>
      </trkpt>
      <trkpt lat="46.0504" lon="4.76583">
        <ele>190</ele>
        <time>2018-10-12T09:13:45Z</time>
      </trkpt>
      <trkpt lat="46.05045" lon="4.76585">
        <ele>191</ele>
        <time>2018-10-12T09:13:46Z</time>
      </trkpt>
      <trkpt lat="46.05049" lon="4.76588">
        <ele>191</ele>
        <time>2018-10-12T09:13:47Z</time>
      </trkpt>
      <trkpt lat="46.05053" lon="4.76591">
        <ele>191</ele>
        <time>2018-10-12T09:13:48Z</time>
      </trkpt>
      <trkpt lat="46.05058" lon="4.76597">
        <ele>191</ele>
        <time>2018-10-12T09:13:49Z</time>
      </trkpt>
      <trkpt lat="46.05062" lon="4.766">
        <ele>191</ele>
        <time>2018-10-12T09:13:50Z</time>
      </trkpt>
      <trkpt lat="46.05067" lon="4.76605">
        <ele>191</ele>
        <time>2018-10-12T09:13:51Z</time>
      </trkpt>
      <trkpt lat="46.0507" lon="4.76614">
        <ele>191</ele>
        <time>2018-10-12T09:13:52Z</time>
      </trkpt>
      <trkpt lat="46.05073" lon="4.7662">
        <ele>192</ele>
        <time>2018-10-12T09:13:53Z</time>
      </trkpt>
      <trkpt lat="46.05075" lon="4.76627">
        <ele>192</ele>
        <time>2018-10-12T09:13:54Z</time>
      </trkpt>
      <trkpt lat="46.05076" lon="4.76634">
        <ele>192</ele>
        <time>2018-10-12T09:13:55Z</time>
      </trkpt>
      <trkpt lat="46.05078" lon="4.76639">
        <ele>192</ele>
        <time>2018-10-12T09:13:56Z</time>
      </trkpt>
      <trkpt lat="46.05079" lon="4.76646">
        <ele>192</ele>
        <time>2018-10-12T09:13:57Z</time>
      </trkpt>
      <trkpt lat="46.0508" lon="4.76651">
        <ele>192</ele>
        <time>2018-10-12T09:13:58Z</time>
      </trkpt>
      <trkpt lat="46.0508" lon="4.76659">
        <ele>193</ele>
        <time>2018-10-12T09:13:59Z</time>
      </trkpt>
      <trkpt lat="46.05081" lon="4.76667">
        <ele>193</ele>
        <time>2018-10-12T09:14:00Z</time>
      </trkpt>
      <trkpt lat="46.05084" lon="4.76674">
        <ele>193</ele>
        <time>2018-10-12T09:14:01Z</time>
      </trkpt>
      <trkpt lat="46.05084" lon="4.76685">
        <ele>193</ele>
        <time>2018-10-12T09:14:03Z</time>
      </trkpt>
      <trkpt lat="46.05086" lon="4.76694">
        <ele>193</ele>
        <time>2018-10-12T09:14:04Z</time>
      </trkpt>
      <trkpt lat="46.05088" lon="4.76702">
        <ele>193</ele>
        <time>2018-10-12T09:14:05Z</time>
      </trkpt>
      <trkpt lat="46.05089" lon="4.76709">
        <ele>193</ele>
        <time>2018-10-12T09:14:06Z</time>
      </trkpt>
      <trkpt lat="46.0509" lon="4.76716">
        <ele>193</ele>
        <time>2018-10-12T09:14:07Z</time>
      </trkpt>
      <trkpt lat="46.05093" lon="4.76724">
        <ele>193</ele>
        <time>2018-10-12T09:14:08Z</time>
      </trkpt>
      <trkpt lat="46.05094" lon="4.76731">
        <ele>193</ele>
        <time>2018-10-12T09:14:09Z</time>
      </trkpt>
      <trkpt lat="46.05095" lon="4.76737">
        <ele>193</ele>
        <time>2018-10-12T09:14:10Z</time>
      </trkpt>
      <trkpt lat="46.05096" lon="4.76743">
        <ele>193</ele>
        <time>2018-10-12T09:14:11Z</time>
      </trkpt>
      <trkpt lat="46.05097" lon="4.7675">
        <ele>193</ele>
        <time>2018-10-12T09:14:12Z</time>
      </trkpt>
      <trkpt lat="46.05099" lon="4.76756">
        <ele>194</ele>
        <time>2018-10-12T09:14:13Z</time>
      </trkpt>
      <trkpt lat="46.05101" lon="4.76763">
        <ele>194</ele>
        <time>2018-10-12T09:14:14Z</time>
      </trkpt>
      <trkpt lat="46.05102" lon="4.7677">
        <ele>194</ele>
        <time>2018-10-12T09:14:15Z</time>
      </trkpt>
      <trkpt lat="46.05104" lon="4.76776">
        <ele>194</ele>
        <time>2018-10-12T09:14:16Z</time>
      </trkpt>
      <trkpt lat="46.05105" lon="4.76782">
        <ele>194</ele>
        <time>2018-10-12T09:14:17Z</time>
      </trkpt>
      <trkpt lat="46.05106" lon="4.76789">
        <ele>194</ele>
        <time>2018-10-12T09:14:18Z</time>
      </trkpt>
      <trkpt lat="46.05108" lon="4.76795">
        <ele>194</ele>
        <time>2018-10-12T09:14:19Z</time>
      </trkpt>
      <trkpt lat="46.05109" lon="4.76802">
        <ele>194</ele>
        <time>2018-10-12T09:14:20Z</time>
      </trkpt>
      <trkpt lat="46.05111" lon="4.7681">
        <ele>194</ele>
        <time>2018-10-12T09:14:21Z</time>
      </trkpt>
      <trkpt lat="46.05114" lon="4.76816">
        <ele>194</ele>
        <time>2018-10-12T09:14:22Z</time>
      </trkpt>
      <trkpt lat="46.05114" lon="4.76821">
        <ele>194</ele>
        <time>2018-10-12T09:14:23Z</time>
      </trkpt>
      <trkpt lat="46.05117" lon="4.76828">
        <ele>194</ele>
        <time>2018-10-12T09:14:24Z</time>
      </trkpt>
      <trkpt lat="46.0512" lon="4.76833">
        <ele>194</ele>
        <time>2018-10-12T09:14:25Z</time>
      </trkpt>
      <trkpt lat="46.05123" lon="4.76838">
        <ele>195</ele>
        <time>2018-10-12T09:14:26Z</time>
      </trkpt>
      <trkpt lat="46.05126" lon="4.76844">
        <ele>195</ele>
        <time>2018-10-12T09:14:27Z</time>
      </trkpt>
      <trkpt lat="46.05127" lon="4.7685">
        <ele>195</ele>
        <time>2018-10-12T09:14:28Z</time>
      </trkpt>
      <trkpt lat="46.0513" lon="4.76855">
        <ele>195</ele>
        <time>2018-10-12T09:14:29Z</time>
      </trkpt>
      <trkpt lat="46.05132" lon="4.76863">
        <ele>195</ele>
        <time>2018-10-12T09:14:30Z</time>
      </trkpt>
      <trkpt lat="46.05137" lon="4.76874">
        <ele>195</ele>
        <time>2018-10-12T09:14:32Z</time>
      </trkpt>
      <trkpt lat="46.0514" lon="4.76879">
        <ele>195</ele>
        <time>2018-10-12T09:14:33Z</time>
      </trkpt>
      <trkpt lat="46.05143" lon="4.76885">
        <ele>195</ele>
        <time>2018-10-12T09:14:34Z</time>
      </trkpt>
      <trkpt lat="46.05145" lon="4.76891">
        <ele>195</ele>
        <time>2018-10-12T09:14:35Z</time>
      </trkpt>
      <trkpt lat="46.05149" lon="4.76902">
        <ele>195</ele>
        <time>2018-10-12T09:14:37Z</time>
      </trkpt>
      <trkpt lat="46.05152" lon="4.76906">
        <ele>195</ele>
        <time>2018-10-12T09:14:38Z</time>
      </trkpt>
      <trkpt lat="46.05155" lon="4.76911">
        <ele>195</ele>
        <time>2018-10-12T09:14:39Z</time>
      </trkpt>
      <trkpt lat="46.05158" lon="4.76915">
        <ele>196</ele>
        <time>2018-10-12T09:14:40Z</time>
      </trkpt>
      <trkpt lat="46.0516" lon="4.76922">
        <ele>196</ele>
        <time>2018-10-12T09:14:41Z</time>
      </trkpt>
      <trkpt lat="46.05163" lon="4.76926">
        <ele>196</ele>
        <time>2018-10-12T09:14:42Z</time>
      </trkpt>
      <trkpt lat="46.05167" lon="4.76934">
        <ele>197</ele>
        <time>2018-10-12T09:14:44Z</time>
      </trkpt>
      <trkpt lat="46.0517" lon="4.76939">
        <ele>197</ele>
        <time>2018-10-12T09:14:45Z</time>
      </trkpt>
      <trkpt lat="46.05175" lon="4.76948">
        <ele>197</ele>
        <time>2018-10-12T09:14:47Z</time>
      </trkpt>
      <trkpt lat="46.05178" lon="4.76952">
        <ele>197</ele>
        <time>2018-10-12T09:14:48Z</time>
      </trkpt>
      <trkpt lat="46.05183" lon="4.76961">
        <ele>198</ele>
        <time>2018-10-12T09:14:50Z</time>
      </trkpt>
      <trkpt lat="46.05185" lon="4.76967">
        <ele>198</ele>
        <time>2018-10-12T09:14:51Z</time>
      </trkpt>
      <trkpt lat="46.05189" lon="4.76978">
        <ele>198</ele>
        <time>2018-10-12T09:14:53Z</time>
      </trkpt>
      <trkpt lat="46.05191" lon="4.76982">
        <ele>198</ele>
        <time>2018-10-12T09:14:54Z</time>
      </trkpt>
      <trkpt lat="46.05194" lon="4.7699">
        <ele>198</ele>
        <time>2018-10-12T09:14:56Z</time>
      </trkpt>
      <trkpt lat="46.05195" lon="4.76996">
        <ele>198</ele>
        <time>2018-10-12T09:14:57Z</time>
      </trkpt>
      <trkpt lat="46.05198" lon="4.77006">
        <ele>200</ele>
        <time>2018-10-12T09:15:00Z</time>
      </trkpt>
      <trkpt lat="46.05198" lon="4.77009">
        <ele>200</ele>
        <time>2018-10-12T09:15:01Z</time>
      </trkpt>
      <trkpt lat="46.05201" lon="4.77017">
        <ele>200</ele>
        <time>2018-10-12T09:15:03Z</time>
      </trkpt>
      <trkpt lat="46.05205" lon="4.77028">
        <ele>200</ele>
        <time>2018-10-12T09:15:04Z</time>
      </trkpt>
      <trkpt lat="46.05208" lon="4.77038">
        <ele>200</ele>
        <time>2018-10-12T09:15:06Z</time>
      </trkpt>
      <trkpt lat="46.0521" lon="4.77043">
        <ele>201</ele>
        <time>2018-10-12T09:15:07Z</time>
      </trkpt>
      <trkpt lat="46.05213" lon="4.77053">
        <ele>201</ele>
        <time>2018-10-12T09:15:09Z</time>
      </trkpt>
      <trkpt lat="46.05215" lon="4.77059">
        <ele>201</ele>
        <time>2018-10-12T09:15:10Z</time>
      </trkpt>
      <trkpt lat="46.05219" lon="4.7707">
        <ele>201</ele>
        <time>2018-10-12T09:15:12Z</time>
      </trkpt>
      <trkpt lat="46.0522" lon="4.77074">
        <ele>201</ele>
        <time>2018-10-12T09:15:13Z</time>
      </trkpt>
      <trkpt lat="46.05223" lon="4.77086">
        <ele>203</ele>
        <time>2018-10-12T09:15:15Z</time>
      </trkpt>
      <trkpt lat="46.05224" lon="4.77091">
        <ele>203</ele>
        <time>2018-10-12T09:15:16Z</time>
      </trkpt>
      <trkpt lat="46.05228" lon="4.77101">
        <ele>203</ele>
        <time>2018-10-12T09:15:18Z</time>
      </trkpt>
      <trkpt lat="46.0523" lon="4.77105">
        <ele>203</ele>
        <time>2018-10-12T09:15:19Z</time>
      </trkpt>
      <trkpt lat="46.05236" lon="4.77112">
        <ele>203</ele>
        <time>2018-10-12T09:15:21Z</time>
      </trkpt>
      <trkpt lat="46.05238" lon="4.77114">
        <ele>203</ele>
        <time>2018-10-12T09:15:22Z</time>
      </trkpt>
      <trkpt lat="46.05244" lon="4.77119">
        <ele>204</ele>
        <time>2018-10-12T09:15:24Z</time>
      </trkpt>
      <trkpt lat="46.05247" lon="4.77121">
        <ele>204</ele>
        <time>2018-10-12T09:15:25Z</time>
      </trkpt>
      <trkpt lat="46.05253" lon="4.77127">
        <ele>204</ele>
        <time>2018-10-12T09:15:28Z</time>
      </trkpt>
      <trkpt lat="46.05256" lon="4.7713">
        <ele>204</ele>
        <time>2018-10-12T09:15:29Z</time>
      </trkpt>
      <trkpt lat="46.05261" lon="4.77136">
        <ele>204</ele>
        <time>2018-10-12T09:15:31Z</time>
      </trkpt>
      <trkpt lat="46.05268" lon="4.77145">
        <ele>204</ele>
        <time>2018-10-12T09:15:32Z</time>
      </trkpt>
      <trkpt lat="46.05275" lon="4.7715">
        <ele>204</ele>
        <time>2018-10-12T09:15:34Z</time>
      </trkpt>
      <trkpt lat="46.05278" lon="4.77153">
        <ele>204</ele>
        <time>2018-10-12T09:15:35Z</time>
      </trkpt>
      <trkpt lat="46.05285" lon="4.77159">
        <ele>204</ele>
        <time>2018-10-12T09:15:37Z</time>
      </trkpt>
      <trkpt lat="46.05288" lon="4.77163">
        <ele>204</ele>
        <time>2018-10-12T09:15:38Z</time>
      </trkpt>
      <trkpt lat="46.05292" lon="4.77167">
        <ele>205</ele>
        <time>2018-10-12T09:15:39Z</time>
      </trkpt>
      <trkpt lat="46.05296" lon="4.77171">
        <ele>205</ele>
        <time>2018-10-12T09:15:40Z</time>
      </trkpt>
      <trkpt lat="46.053" lon="4.77175">
        <ele>205</ele>
        <time>2018-10-12T09:15:41Z</time>
      </trkpt>
      <trkpt lat="46.05303" lon="4.7718">
        <ele>205</ele>
        <time>2018-10-12T09:15:42Z</time>
      </trkpt>
      <trkpt lat="46.05309" lon="4.77188">
        <ele>205</ele>
        <time>2018-10-12T09:15:44Z</time>
      </trkpt>
      <trkpt lat="46.05313" lon="4.77191">
        <ele>205</ele>
        <time>2018-10-12T09:15:45Z</time>
      </trkpt>
      <trkpt lat="46.0532" lon="4.77198">
        <ele>205</ele>
        <time>2018-10-12T09:15:47Z</time>
      </trkpt>
      <trkpt lat="46.05324" lon="4.772">
        <ele>205</ele>
        <time>2018-10-12T09:15:48Z</time>
      </trkpt>
      <trkpt lat="46.05331" lon="4.77205">
        <ele>205</ele>
        <time>2018-10-12T09:15:50Z</time>
      </trkpt>
      <trkpt lat="46.05335" lon="4.77207">
        <ele>203</ele>
        <time>2018-10-12T09:15:51Z</time>
      </trkpt>
      <trkpt lat="46.05343" lon="4.77211">
        <ele>203</ele>
        <time>2018-10-12T09:15:53Z</time>
      </trkpt>
      <trkpt lat="46.05347" lon="4.77213">
        <ele>203</ele>
        <time>2018-10-12T09:15:54Z</time>
      </trkpt>
      <trkpt lat="46.05351" lon="4.77216">
        <ele>203</ele>
        <time>2018-10-12T09:15:55Z</time>
      </trkpt>
      <trkpt lat="46.05355" lon="4.77218">
        <ele>203</ele>
        <time>2018-10-12T09:15:56Z</time>
      </trkpt>
      <trkpt lat="46.05359" lon="4.77221">
        <ele>203</ele>
        <time>2018-10-12T09:15:57Z</time>
      </trkpt>
      <trkpt lat="46.05364" lon="4.77224">
        <ele>203</ele>
        <time>2018-10-12T09:15:58Z</time>
      </trkpt>
      <trkpt lat="46.05369" lon="4.77227">
        <ele>203</ele>
        <time>2018-10-12T09:15:59Z</time>
      </trkpt>
      <trkpt lat="46.05373" lon="4.7723">
        <ele>203</ele>
        <time>2018-10-12T09:16:00Z</time>
      </trkpt>
      <trkpt lat="46.05378" lon="4.77233">
        <ele>203</ele>
        <time>2018-10-12T09:16:01Z</time>
      </trkpt>
      <trkpt lat="46.05383" lon="4.77236">
        <ele>202</ele>
        <time>2018-10-12T09:16:02Z</time>
      </trkpt>
      <trkpt lat="46.05387" lon="4.77239">
        <ele>202</ele>
        <time>2018-10-12T09:16:03Z</time>
      </trkpt>
      <trkpt lat="46.05392" lon="4.77241">
        <ele>202</ele>
        <time>2018-10-12T09:16:04Z</time>
      </trkpt>
      <trkpt lat="46.05397" lon="4.77244">
        <ele>202</ele>
        <time>2018-10-12T09:16:05Z</time>
      </trkpt>
      <trkpt lat="46.05402" lon="4.77246">
        <ele>202</ele>
        <time>2018-10-12T09:16:06Z</time>
      </trkpt>
      <trkpt lat="46.05407" lon="4.7725">
        <ele>202</ele>
        <time>2018-10-12T09:16:07Z</time>
      </trkpt>
      <trkpt lat="46.05412" lon="4.77253">
        <ele>202</ele>
        <time>2018-10-12T09:16:08Z</time>
      </trkpt>
      <trkpt lat="46.05418" lon="4.77256">
        <ele>201</ele>
        <time>2018-10-12T09:16:09Z</time>
      </trkpt>
      <trkpt lat="46.05423" lon="4.77258">
        <ele>201</ele>
        <time>2018-10-12T09:16:10Z</time>
      </trkpt>
      <trkpt lat="46.05428" lon="4.77261">
        <ele>201</ele>
        <time>2018-10-12T09:16:11Z</time>
      </trkpt>
      <trkpt lat="46.05434" lon="4.77264">
        <ele>201</ele>
        <time>2018-10-12T09:16:12Z</time>
      </trkpt>
      <trkpt lat="46.0544" lon="4.77267">
        <ele>201</ele>
        <time>2018-10-12T09:16:13Z</time>
      </trkpt>
      <trkpt lat="46.05445" lon="4.7727">
        <ele>201</ele>
        <time>2018-10-12T09:16:14Z</time>
      </trkpt>
      <trkpt lat="46.0545" lon="4.77272">
        <ele>201</ele>
        <time>2018-10-12T09:16:15Z</time>
      </trkpt>
      <trkpt lat="46.05456" lon="4.77275">
        <ele>201</ele>
        <time>2018-10-12T09:16:16Z</time>
      </trkpt>
      <trkpt lat="46.05461" lon="4.77277">
        <ele>201</ele>
        <time>2018-10-12T09:16:17Z</time>
      </trkpt>
      <trkpt lat="46.05466" lon="4.7728">
        <ele>201</ele>
        <time>2018-10-12T09:16:18Z</time>
      </trkpt>
      <trkpt lat="46.05472" lon="4.77282">
        <ele>201</ele>
        <time>2018-10-12T09:16:19Z</time>
      </trkpt>
      <trkpt lat="46.05477" lon="4.77286">
        <ele>201</ele>
        <time>2018-10-12T09:16:20Z</time>
      </trkpt>
      <trkpt lat="46.05483" lon="4.77289">
        <ele>201</ele>
        <time>2018-10-12T09:16:21Z</time>
      </trkpt>
      <trkpt lat="46.05489" lon="4.77294">
        <ele>201</ele>
        <time>2018-10-12T09:16:22Z</time>
      </trkpt>
      <trkpt lat="46.05495" lon="4.77297">
        <ele>201</ele>
        <time>2018-10-12T09:16:23Z</time>
      </trkpt>
      <trkpt lat="46.055" lon="4.773">
        <ele>200</ele>
        <time>2018-10-12T09:16:24Z</time>
      </trkpt>
      <trkpt lat="46.05506" lon="4.77304">
        <ele>200</ele>
        <time>2018-10-12T09:16:25Z</time>
      </trkpt>
      <trkpt lat="46.05511" lon="4.77308">
        <ele>200</ele>
        <time>2018-10-12T09:16:26Z</time>
      </trkpt>
      <trkpt lat="46.05517" lon="4.77312">
        <ele>200</ele>
        <time>2018-10-12T09:16:27Z</time>
      </trkpt>
      <trkpt lat="46.05523" lon="4.77315">
        <ele>200</ele>
        <time>2018-10-12T09:16:28Z</time>
      </trkpt>
      <trkpt lat="46.05529" lon="4.77319">
        <ele>200</ele>
        <time>2018-10-12T09:16:29Z</time>
      </trkpt>
      <trkpt lat="46.05534" lon="4.77321">
        <ele>200</ele>
        <time>2018-10-12T09:16:30Z</time>
      </trkpt>
      <trkpt lat="46.05539" lon="4.77325">
        <ele>200</ele>
        <time>2018-10-12T09:16:31Z</time>
      </trkpt>
      <trkpt lat="46.05544" lon="4.77329">
        <ele>200</ele>
        <time>2018-10-12T09:16:32Z</time>
      </trkpt>
      <trkpt lat="46.0555" lon="4.77332">
        <ele>200</ele>
        <time>2018-10-12T09:16:33Z</time>
      </trkpt>
      <trkpt lat="46.05556" lon="4.77335">
        <ele>201</ele>
        <time>2018-10-12T09:16:34Z</time>
      </trkpt>
      <trkpt lat="46.05561" lon="4.77339">
        <ele>201</ele>
        <time>2018-10-12T09:16:35Z</time>
      </trkpt>
      <trkpt lat="46.05566" lon="4.77342">
        <ele>201</ele>
        <time>2018-10-12T09:16:36Z</time>
      </trkpt>
      <trkpt lat="46.05572" lon="4.77345">
        <ele>201</ele>
        <time>2018-10-12T09:16:37Z</time>
      </trkpt>
      <trkpt lat="46.05577" lon="4.77349">
        <ele>201</ele>
        <time>2018-10-12T09:16:38Z</time>
      </trkpt>
      <trkpt lat="46.05582" lon="4.77352">
        <ele>201</ele>
        <time>2018-10-12T09:16:39Z</time>
      </trkpt>
      <trkpt lat="46.05587" lon="4.77356">
        <ele>202</ele>
        <time>2018-10-12T09:16:40Z</time>
      </trkpt>
      <trkpt lat="46.05592" lon="4.7736">
        <ele>202</ele>
        <time>2018-10-12T09:16:41Z</time>
      </trkpt>
      <trkpt lat="46.05597" lon="4.77363">
        <ele>202</ele>
        <time>2018-10-12T09:16:42Z</time>
      </trkpt>
      <trkpt lat="46.05602" lon="4.77367">
        <ele>202</ele>
        <time>2018-10-12T09:16:43Z</time>
      </trkpt>
      <trkpt lat="46.05606" lon="4.77371">
        <ele>202</ele>
        <time>2018-10-12T09:16:44Z</time>
      </trkpt>
      <trkpt lat="46.05611" lon="4.77374">
        <ele>203</ele>
        <time>2018-10-12T09:16:45Z</time>
      </trkpt>
      <trkpt lat="46.05615" lon="4.77377">
        <ele>203</ele>
        <time>2018-10-12T09:16:46Z</time>
      </trkpt>
      <trkpt lat="46.0562" lon="4.7738">
        <ele>203</ele>
        <time>2018-10-12T09:16:47Z</time>
      </trkpt>
      <trkpt lat="46.05624" lon="4.77383">
        <ele>203</ele>
        <time>2018-10-12T09:16:48Z</time>
      </trkpt>
      <trkpt lat="46.05628" lon="4.77387">
        <ele>203</ele>
        <time>2018-10-12T09:16:49Z</time>
      </trkpt>
      <trkpt lat="46.05633" lon="4.77391">
        <ele>203</ele>
        <time>2018-10-12T09:16:50Z</time>
      </trkpt>
      <trkpt lat="46.05637" lon="4.77395">
        <ele>203</ele>
        <time>2018-10-12T09:16:51Z</time>
      </trkpt>
      <trkpt lat="46.05641" lon="4.77399">
        <ele>203</ele>
        <time>2018-10-12T09:16:52Z</time>
      </trkpt>
      <trkpt lat="46.05645" lon="4.77403">
        <ele>204</ele>
        <time>2018-10-12T09:16:53Z</time>
      </trkpt>
      <trkpt lat="46.05649" lon="4.77406">
        <ele>204</ele>
        <time>2018-10-12T09:16:54Z</time>
      </trkpt>
      <trkpt lat="46.05652" lon="4.77411">
        <ele>204</ele>
        <time>2018-10-12T09:16:55Z</time>
      </trkpt>
      <trkpt lat="46.05656" lon="4.77415">
        <ele>204</ele>
        <time>2018-10-12T09:16:56Z</time>
      </trkpt>
      <trkpt lat="46.05663" lon="4.77422">
        <ele>205</ele>
        <time>2018-10-12T09:16:58Z</time>
      </trkpt>
      <trkpt lat="46.05667" lon="4.77424">
        <ele>205</ele>
        <time>2018-10-12T09:16:59Z</time>
      </trkpt>
      <trkpt lat="46.05675" lon="4.77431">
        <ele>206</ele>
        <time>2018-10-12T09:17:01Z</time>
      </trkpt>
      <trkpt lat="46.05679" lon="4.77435">
        <ele>206</ele>
        <time>2018-10-12T09:17:02Z</time>
      </trkpt>
      <trkpt lat="46.05685" lon="4.7744">
        <ele>206</ele>
        <time>2018-10-12T09:17:04Z</time>
      </trkpt>
      <trkpt lat="46.05688" lon="4.77442">
        <ele>206</ele>
        <time>2018-10-12T09:17:05Z</time>
      </trkpt>
      <trkpt lat="46.05695" lon="4.77448">
        <ele>207</ele>
        <time>2018-10-12T09:17:07Z</time>
      </trkpt>
      <trkpt lat="46.057" lon="4.77451">
        <ele>207</ele>
        <time>2018-10-12T09:17:08Z</time>
      </trkpt>
      <trkpt lat="46.05707" lon="4.77455">
        <ele>207</ele>
        <time>2018-10-12T09:17:10Z</time>
      </trkpt>
      <trkpt lat="46.05711" lon="4.77457">
        <ele>207</ele>
        <time>2018-10-12T09:17:11Z</time>
      </trkpt>
      <trkpt lat="46.05715" lon="4.7746">
        <ele>207</ele>
        <time>2018-10-12T09:17:12Z</time>
      </trkpt>
      <trkpt lat="46.05719" lon="4.77463">
        <ele>207</ele>
        <time>2018-10-12T09:17:13Z</time>
      </trkpt>
      <trkpt lat="46.05727" lon="4.7747">
        <ele>207</ele>
        <time>2018-10-12T09:17:15Z</time>
      </trkpt>
      <trkpt lat="46.0573" lon="4.77474">
        <ele>207</ele>
        <time>2018-10-12T09:17:16Z</time>
      </trkpt>
      <trkpt lat="46.05734" lon="4.77478">
        <ele>207</ele>
        <time>2018-10-12T09:17:17Z</time>
      </trkpt>
      <trkpt lat="46.05736" lon="4.77484">
        <ele>207</ele>
        <time>2018-10-12T09:17:18Z</time>
      </trkpt>
      <trkpt lat="46.0574" lon="4.77487">
        <ele>207</ele>
        <time>2018-10-12T09:17:19Z</time>
      </trkpt>
      <trkpt lat="46.05744" lon="4.77492">
        <ele>208</ele>
        <time>2018-10-12T09:17:20Z</time>
      </trkpt>
      <trkpt lat="46.05747" lon="4.77497">
        <ele>208</ele>
        <time>2018-10-12T09:17:21Z</time>
      </trkpt>
      <trkpt lat="46.0575" lon="4.77503">
        <ele>208</ele>
        <time>2018-10-12T09:17:22Z</time>
      </trkpt>
      <trkpt lat="46.05753" lon="4.77508">
        <ele>208</ele>
        <time>2018-10-12T09:17:23Z</time>
      </trkpt>
      <trkpt lat="46.05757" lon="4.77515">
        <ele>208</ele>
        <time>2018-10-12T09:17:24Z</time>
      </trkpt>
      <trkpt lat="46.05761" lon="4.7752">
        <ele>208</ele>
        <time>2018-10-12T09:17:25Z</time>
      </trkpt>
      <trkpt lat="46.05764" lon="4.77526">
        <ele>208</ele>
        <time>2018-10-12T09:17:26Z</time>
      </trkpt>
      <trkpt lat="46.05767" lon="4.77531">
        <ele>208</ele>
        <time>2018-10-12T09:17:27Z</time>
      </trkpt>
      <trkpt lat="46.05771" lon="4.77536">
        <ele>208</ele>
        <time>2018-10-12T09:17:28Z</time>
      </trkpt>
      <trkpt lat="46.05774" lon="4.77541">
        <ele>208</ele>
        <time>2018-10-12T09:17:29Z</time>
      </trkpt>
      <trkpt lat="46.05777" lon="4.77546">
        <ele>208</ele>
        <time>2018-10-12T09:17:30Z</time>
      </trkpt>
      <trkpt lat="46.0578" lon="4.77551">
        <ele>208</ele>
        <time>2018-10-12T09:17:31Z</time>
      </trkpt>
      <trkpt lat="46.05783" lon="4.77556">
        <ele>208</ele>
        <time>2018-10-12T09:17:32Z</time>
      </trkpt>
      <trkpt lat="46.05786" lon="4.77562">
        <ele>208</ele>
        <time>2018-10-12T09:17:33Z</time>
      </trkpt>
      <trkpt lat="46.0579" lon="4.77567">
        <ele>208</ele>
        <time>2018-10-12T09:17:34Z</time>
      </trkpt>
      <trkpt lat="46.05794" lon="4.77572">
        <ele>208</ele>
        <time>2018-10-12T09:17:35Z</time>
      </trkpt>
      <trkpt lat="46.05798" lon="4.77577">
        <ele>208</ele>
        <time>2018-10-12T09:17:36Z</time>
      </trkpt>
      <trkpt lat="46.05802" lon="4.77583">
        <ele>208</ele>
        <time>2018-10-12T09:17:37Z</time>
      </trkpt>
      <trkpt lat="46.05807" lon="4.77589">
        <ele>209</ele>
        <time>2018-10-12T09:17:38Z</time>
      </trkpt>
      <trkpt lat="46.05812" lon="4.77594">
        <ele>208</ele>
        <time>2018-10-12T09:17:39Z</time>
      </trkpt>
      <trkpt lat="46.05817" lon="4.776">
        <ele>208</ele>
        <time>2018-10-12T09:17:40Z</time>
      </trkpt>
      <trkpt lat="46.05822" lon="4.77605">
        <ele>208</ele>
        <time>2018-10-12T09:17:41Z</time>
      </trkpt>
      <trkpt lat="46.05827" lon="4.7761">
        <ele>209</ele>
        <time>2018-10-12T09:17:42Z</time>
      </trkpt>
      <trkpt lat="46.05831" lon="4.77612">
        <ele>209</ele>
        <time>2018-10-12T09:17:43Z</time>
      </trkpt>
      <trkpt lat="46.05836" lon="4.77617">
        <ele>208</ele>
        <time>2018-10-12T09:17:44Z</time>
      </trkpt>
      <trkpt lat="46.05841" lon="4.77622">
        <ele>208</ele>
        <time>2018-10-12T09:17:45Z</time>
      </trkpt>
      <trkpt lat="46.05846" lon="4.77627">
        <ele>208</ele>
        <time>2018-10-12T09:17:46Z</time>
      </trkpt>
      <trkpt lat="46.0585" lon="4.77632">
        <ele>208</ele>
        <time>2018-10-12T09:17:47Z</time>
      </trkpt>
      <trkpt lat="46.05855" lon="4.77636">
        <ele>208</ele>
        <time>2018-10-12T09:17:48Z</time>
      </trkpt>
      <trkpt lat="46.0586" lon="4.77641">
        <ele>208</ele>
        <time>2018-10-12T09:17:49Z</time>
      </trkpt>
      <trkpt lat="46.05865" lon="4.77646">
        <ele>208</ele>
        <time>2018-10-12T09:17:50Z</time>
      </trkpt>
      <trkpt lat="46.05869" lon="4.77652">
        <ele>208</ele>
        <time>2018-10-12T09:17:51Z</time>
      </trkpt>
      <trkpt lat="46.05874" lon="4.77657">
        <ele>208</ele>
        <time>2018-10-12T09:17:52Z</time>
      </trkpt>
      <trkpt lat="46.05878" lon="4.77663">
        <ele>208</ele>
        <time>2018-10-12T09:17:53Z</time>
      </trkpt>
      <trkpt lat="46.05881" lon="4.77669">
        <ele>208</ele>
        <time>2018-10-12T09:17:54Z</time>
      </trkpt>
      <trkpt lat="46.05884" lon="4.77675">
        <ele>208</ele>
        <time>2018-10-12T09:17:55Z</time>
      </trkpt>
      <trkpt lat="46.05886" lon="4.77681">
        <ele>208</ele>
        <time>2018-10-12T09:17:56Z</time>
      </trkpt>
      <trkpt lat="46.05888" lon="4.77687">
        <ele>208</ele>
        <time>2018-10-12T09:17:57Z</time>
      </trkpt>
      <trkpt lat="46.05889" lon="4.77694">
        <ele>208</ele>
        <time>2018-10-12T09:17:58Z</time>
      </trkpt>
      <trkpt lat="46.0589" lon="4.77702">
        <ele>208</ele>
        <time>2018-10-12T09:17:59Z</time>
      </trkpt>
      <trkpt lat="46.05891" lon="4.77709">
        <ele>208</ele>
        <time>2018-10-12T09:18:00Z</time>
      </trkpt>
      <trkpt lat="46.05891" lon="4.77718">
        <ele>208</ele>
        <time>2018-10-12T09:18:01Z</time>
      </trkpt>
      <trkpt lat="46.05893" lon="4.77726">
        <ele>209</ele>
        <time>2018-10-12T09:18:02Z</time>
      </trkpt>
      <trkpt lat="46.05893" lon="4.77733">
        <ele>209</ele>
        <time>2018-10-12T09:18:03Z</time>
      </trkpt>
      <trkpt lat="46.05895" lon="4.77741">
        <ele>209</ele>
        <time>2018-10-12T09:18:04Z</time>
      </trkpt>
      <trkpt lat="46.05896" lon="4.77749">
        <ele>209</ele>
        <time>2018-10-12T09:18:05Z</time>
      </trkpt>
      <trkpt lat="46.05897" lon="4.77756">
        <ele>209</ele>
        <time>2018-10-12T09:18:06Z</time>
      </trkpt>
      <trkpt lat="46.05899" lon="4.77763">
        <ele>209</ele>
        <time>2018-10-12T09:18:07Z</time>
      </trkpt>
      <trkpt lat="46.059" lon="4.77769">
        <ele>210</ele>
        <time>2018-10-12T09:18:08Z</time>
      </trkpt>
      <trkpt lat="46.05904" lon="4.77775">
        <ele>210</ele>
        <time>2018-10-12T09:18:09Z</time>
      </trkpt>
      <trkpt lat="46.05907" lon="4.77782">
        <ele>210</ele>
        <time>2018-10-12T09:18:10Z</time>
      </trkpt>
      <trkpt lat="46.0591" lon="4.77788">
        <ele>210</ele>
        <time>2018-10-12T09:18:11Z</time>
      </trkpt>
      <trkpt lat="46.05913" lon="4.77792">
        <ele>210</ele>
        <time>2018-10-12T09:18:12Z</time>
      </trkpt>
      <trkpt lat="46.05919" lon="4.778">
        <ele>210</ele>
        <time>2018-10-12T09:18:14Z</time>
      </trkpt>
      <trkpt lat="46.05921" lon="4.77805">
        <ele>210</ele>
        <time>2018-10-12T09:18:15Z</time>
      </trkpt>
      <trkpt lat="46.05926" lon="4.7781">
        <ele>210</ele>
        <time>2018-10-12T09:18:16Z</time>
      </trkpt>
      <trkpt lat="46.05929" lon="4.77815">
        <ele>210</ele>
        <time>2018-10-12T09:18:17Z</time>
      </trkpt>
      <trkpt lat="46.05932" lon="4.77821">
        <ele>210</ele>
        <time>2018-10-12T09:18:18Z</time>
      </trkpt>
      <trkpt lat="46.05938" lon="4.77825">
        <ele>210</ele>
        <time>2018-10-12T09:18:19Z</time>
      </trkpt>
      <trkpt lat="46.0594" lon="4.77831">
        <ele>210</ele>
        <time>2018-10-12T09:18:20Z</time>
      </trkpt>
      <trkpt lat="46.05945" lon="4.77836">
        <ele>211</ele>
        <time>2018-10-12T09:18:21Z</time>
      </trkpt>
      <trkpt lat="46.0595" lon="4.77847">
        <ele>211</ele>
        <time>2018-10-12T09:18:23Z</time>
      </trkpt>
      <trkpt lat="46.05952" lon="4.77852">
        <ele>211</ele>
        <time>2018-10-12T09:18:24Z</time>
      </trkpt>
      <trkpt lat="46.05957" lon="4.77862">
        <ele>211</ele>
        <time>2018-10-12T09:18:26Z</time>
      </trkpt>
      <trkpt lat="46.0596" lon="4.77868">
        <ele>211</ele>
        <time>2018-10-12T09:18:27Z</time>
      </trkpt>
      <trkpt lat="46.05963" lon="4.77875">
        <ele>211</ele>
        <time>2018-10-12T09:18:28Z</time>
      </trkpt>
      <trkpt lat="46.05966" lon="4.77881">
        <ele>211</ele>
        <time>2018-10-12T09:18:29Z</time>
      </trkpt>
      <trkpt lat="46.05971" lon="4.77891">
        <ele>211</ele>
        <time>2018-10-12T09:18:31Z</time>
      </trkpt>
      <trkpt lat="46.05974" lon="4.77896">
        <ele>211</ele>
        <time>2018-10-12T09:18:32Z</time>
      </trkpt>
      <trkpt lat="46.05979" lon="4.77905">
        <ele>211</ele>
        <time>2018-10-12T09:18:34Z</time>
      </trkpt>
      <trkpt lat="46.05982" lon="4.7791">
        <ele>211</ele>
        <time>2018-10-12T09:18:35Z</time>
      </trkpt>
      <trkpt lat="46.05984" lon="4.77915">
        <ele>211</ele>
        <time>2018-10-12T09:18:36Z</time>
      </trkpt>
      <trkpt lat="46.05988" lon="4.77921">
        <ele>212</ele>
        <time>2018-10-12T09:18:37Z</time>
      </trkpt>
      <trkpt lat="46.05991" lon="4.77928">
        <ele>212</ele>
        <time>2018-10-12T09:18:38Z</time>
      </trkpt>
      <trkpt lat="46.05993" lon="4.77934">
        <ele>212</ele>
        <time>2018-10-12T09:18:39Z</time>
      </trkpt>
      <trkpt lat="46.05994" lon="4.77941">
        <ele>212</ele>
        <time>2018-10-12T09:18:40Z</time>
      </trkpt>
      <trkpt lat="46.05998" lon="4.77947">
        <ele>212</ele>
        <time>2018-10-12T09:18:41Z</time>
      </trkpt>
      <trkpt lat="46.06" lon="4.77955">
        <ele>212</ele>
        <time>2018-10-12T09:18:42Z</time>
      </trkpt>
      <trkpt lat="46.06002" lon="4.77962">
        <ele>211</ele>
        <time>2018-10-12T09:18:43Z</time>
      </trkpt>
      <trkpt lat="46.06007" lon="4.77967">
        <ele>211</ele>
        <time>2018-10-12T09:18:44Z</time>
      </trkpt>
      <trkpt lat="46.06011" lon="4.77972">
        <ele>211</ele>
        <time>2018-10-12T09:18:45Z</time>
      </trkpt>
      <trkpt lat="46.06015" lon="4.77975">
        <ele>211</ele>
        <time>2018-10-12T09:18:46Z</time>
      </trkpt>
      <trkpt lat="46.06019" lon="4.77979">
        <ele>211</ele>
        <time>2018-10-12T09:18:47Z</time>
      </trkpt>
      <trkpt lat="46.06023" lon="4.77984">
        <ele>211</ele>
        <time>2018-10-12T09:18:48Z</time>
      </trkpt>
      <trkpt lat="46.06027" lon="4.77988">
        <ele>211</ele>
        <time>2018-10-12T09:18:49Z</time>
      </trkpt>
      <trkpt lat="46.06032" lon="4.77993">
        <ele>211</ele>
        <time>2018-10-12T09:18:50Z</time>
      </trkpt>
      <trkpt lat="46.06035" lon="4.77999">
        <ele>211</ele>
        <time>2018-10-12T09:18:51Z</time>
      </trkpt>
      <trkpt lat="46.06039" lon="4.78004">
        <ele>211</ele>
        <time>2018-10-12T09:18:52Z</time>
      </trkpt>
      <trkpt lat="46.06043" lon="4.78009">
        <ele>211</ele>
        <time>2018-10-12T09:18:53Z</time>
      </trkpt>
      <trkpt lat="46.06047" lon="4.78014">
        <ele>211</ele>
        <time>2018-10-12T09:18:54Z</time>
      </trkpt>
      <trkpt lat="46.06051" lon="4.78021">
        <ele>211</ele>
        <time>2018-10-12T09:18:55Z</time>
      </trkpt>
      <trkpt lat="46.06057" lon="4.78026">
        <ele>211</ele>
        <time>2018-10-12T09:18:56Z</time>
      </trkpt>
      <trkpt lat="46.06061" lon="4.78032">
        <ele>211</ele>
        <time>2018-10-12T09:18:57Z</time>
      </trkpt>
      <trkpt lat="46.06066" lon="4.78036">
        <ele>211</ele>
        <time>2018-10-12T09:18:58Z</time>
      </trkpt>
      <trkpt lat="46.0607" lon="4.78039">
        <ele>211</ele>
        <time>2018-10-12T09:18:59Z</time>
      </trkpt>
      <trkpt lat="46.06076" lon="4.78042">
        <ele>211</ele>
        <time>2018-10-12T09:19:00Z</time>
      </trkpt>
      <trkpt lat="46.0608" lon="4.78046">
        <ele>211</ele>
        <time>2018-10-12T09:19:01Z</time>
      </trkpt>
      <trkpt lat="46.06084" lon="4.7805">
        <ele>210</ele>
        <time>2018-10-12T09:19:02Z</time>
      </trkpt>
      <trkpt lat="46.06089" lon="4.78053">
        <ele>210</ele>
        <time>2018-10-12T09:19:03Z</time>
      </trkpt>
      <trkpt lat="46.06095" lon="4.78056">
        <ele>210</ele>
        <time>2018-10-12T09:19:04Z</time>
      </trkpt>
      <trkpt lat="46.06099" lon="4.7806">
        <ele>210</ele>
        <time>2018-10-12T09:19:05Z</time>
      </trkpt>
      <trkpt lat="46.06104" lon="4.78063">
        <ele>210</ele>
        <time>2018-10-12T09:19:06Z</time>
      </trkpt>
      <trkpt lat="46.06108" lon="4.7807">
        <ele>210</ele>
        <time>2018-10-12T09:19:07Z</time>
      </trkpt>
      <trkpt lat="46.06114" lon="4.78077">
        <ele>210</ele>
        <time>2018-10-12T09:19:08Z</time>
      </trkpt>
      <trkpt lat="46.0612" lon="4.78084">
        <ele>209</ele>
        <time>2018-10-12T09:19:09Z</time>
      </trkpt>
      <trkpt lat="46.06121" lon="4.78088">
        <ele>209</ele>
        <time>2018-10-12T09:19:10Z</time>
      </trkpt>
      <trkpt lat="46.06127" lon="4.78093">
        <ele>209</ele>
        <time>2018-10-12T09:19:11Z</time>
      </trkpt>
      <trkpt lat="46.06131" lon="4.78097">
        <ele>209</ele>
        <time>2018-10-12T09:19:12Z</time>
      </trkpt>
      <trkpt lat="46.06136" lon="4.78103">
        <ele>208</ele>
        <time>2018-10-12T09:19:13Z</time>
      </trkpt>
      <trkpt lat="46.06142" lon="4.78109">
        <ele>208</ele>
        <time>2018-10-12T09:19:14Z</time>
      </trkpt>
      <trkpt lat="46.06148" lon="4.78115">
        <ele>208</ele>
        <time>2018-10-12T09:19:15Z</time>
      </trkpt>
      <trkpt lat="46.06156" lon="4.7812">
        <ele>208</ele>
        <time>2018-10-12T09:19:16Z</time>
      </trkpt>
      <trkpt lat="46.06163" lon="4.78126">
        <ele>208</ele>
        <time>2018-10-12T09:19:17Z</time>
      </trkpt>
      <trkpt lat="46.06172" lon="4.78132">
        <ele>206</ele>
        <time>2018-10-12T09:19:18Z</time>
      </trkpt>
      <trkpt lat="46.06179" lon="4.78137">
        <ele>206</ele>
        <time>2018-10-12T09:19:19Z</time>
      </trkpt>
      <trkpt lat="46.06186" lon="4.78143">
        <ele>206</ele>
        <time>2018-10-12T09:19:20Z</time>
      </trkpt>
      <trkpt lat="46.06194" lon="4.78146">
        <ele>205</ele>
        <time>2018-10-12T09:19:21Z</time>
      </trkpt>
      <trkpt lat="46.06202" lon="4.78151">
        <ele>205</ele>
        <time>2018-10-12T09:19:22Z</time>
      </trkpt>
      <trkpt lat="46.0621" lon="4.78155">
        <ele>205</ele>
        <time>2018-10-12T09:19:23Z</time>
      </trkpt>
      <trkpt lat="46.06218" lon="4.7816">
        <ele>205</ele>
        <time>2018-10-12T09:19:24Z</time>
      </trkpt>
      <trkpt lat="46.06226" lon="4.78166">
        <ele>205</ele>
        <time>2018-10-12T09:19:25Z</time>
      </trkpt>
      <trkpt lat="46.06232" lon="4.78171">
        <ele>206</ele>
        <time>2018-10-12T09:19:26Z</time>
      </trkpt>
      <trkpt lat="46.06239" lon="4.78176">
        <ele>206</ele>
        <time>2018-10-12T09:19:27Z</time>
      </trkpt>
      <trkpt lat="46.06245" lon="4.78181">
        <ele>206</ele>
        <time>2018-10-12T09:19:28Z</time>
      </trkpt>
      <trkpt lat="46.06252" lon="4.78184">
        <ele>205</ele>
        <time>2018-10-12T09:19:29Z</time>
      </trkpt>
      <trkpt lat="46.06259" lon="4.78189">
        <ele>205</ele>
        <time>2018-10-12T09:19:30Z</time>
      </trkpt>
      <trkpt lat="46.06266" lon="4.78194">
        <ele>205</ele>
        <time>2018-10-12T09:19:31Z</time>
      </trkpt>
      <trkpt lat="46.06272" lon="4.78198">
        <ele>205</ele>
        <time>2018-10-12T09:19:32Z</time>
      </trkpt>
      <trkpt lat="46.06277" lon="4.78202">
        <ele>205</ele>
        <time>2018-10-12T09:19:33Z</time>
      </trkpt>
      <trkpt lat="46.06283" lon="4.78206">
        <ele>205</ele>
        <time>2018-10-12T09:19:34Z</time>
      </trkpt>
      <trkpt lat="46.06288" lon="4.78211">
        <ele>205</ele>
        <time>2018-10-12T09:19:35Z</time>
      </trkpt>
      <trkpt lat="46.06294" lon="4.78217">
        <ele>205</ele>
        <time>2018-10-12T09:19:36Z</time>
      </trkpt>
      <trkpt lat="46.06301" lon="4.78224">
        <ele>205</ele>
        <time>2018-10-12T09:19:37Z</time>
      </trkpt>
      <trkpt lat="46.06306" lon="4.78228">
        <ele>205</ele>
        <time>2018-10-12T09:19:38Z</time>
      </trkpt>
      <trkpt lat="46.06312" lon="4.78232">
        <ele>206</ele>
        <time>2018-10-12T09:19:39Z</time>
      </trkpt>
      <trkpt lat="46.06318" lon="4.78234">
        <ele>206</ele>
        <time>2018-10-12T09:19:40Z</time>
      </trkpt>
      <trkpt lat="46.06324" lon="4.78237">
        <ele>206</ele>
        <time>2018-10-12T09:19:41Z</time>
      </trkpt>
      <trkpt lat="46.0633" lon="4.7824">
        <ele>206</ele>
        <time>2018-10-12T09:19:42Z</time>
      </trkpt>
      <trkpt lat="46.06336" lon="4.78242">
        <ele>205</ele>
        <time>2018-10-12T09:19:43Z</time>
      </trkpt>
      <trkpt lat="46.06342" lon="4.78243">
        <ele>205</ele>
        <time>2018-10-12T09:19:44Z</time>
      </trkpt>
      <trkpt lat="46.06347" lon="4.78242">
        <ele>205</ele>
        <time>2018-10-12T09:19:45Z</time>
      </trkpt>
      <trkpt lat="46.06352" lon="4.78239">
        <ele>205</ele>
        <time>2018-10-12T09:19:46Z</time>
      </trkpt>
      <trkpt lat="46.06356" lon="4.78234">
        <ele>205</ele>
        <time>2018-10-12T09:19:47Z</time>
      </trkpt>
      <trkpt lat="46.06361" lon="4.78228">
        <ele>205</ele>
        <time>2018-10-12T09:19:48Z</time>
      </trkpt>
      <trkpt lat="46.06365" lon="4.78224">
        <ele>205</ele>
        <time>2018-10-12T09:19:49Z</time>
      </trkpt>
      <trkpt lat="46.06369" lon="4.78221">
        <ele>205</ele>
        <time>2018-10-12T09:19:50Z</time>
      </trkpt>
      <trkpt lat="46.06374" lon="4.78212">
        <ele>204</ele>
        <time>2018-10-12T09:19:51Z</time>
      </trkpt>
      <trkpt lat="46.06379" lon="4.78208">
        <ele>204</ele>
        <time>2018-10-12T09:19:52Z</time>
      </trkpt>
      <trkpt lat="46.06385" lon="4.78203">
        <ele>204</ele>
        <time>2018-10-12T09:19:53Z</time>
      </trkpt>
      <trkpt lat="46.06389" lon="4.78196">
        <ele>204</ele>
        <time>2018-10-12T09:19:54Z</time>
      </trkpt>
      <trkpt lat="46.06391" lon="4.78188">
        <ele>204</ele>
        <time>2018-10-12T09:19:55Z</time>
      </trkpt>
      <trkpt lat="46.06393" lon="4.78179">
        <ele>204</ele>
        <time>2018-10-12T09:19:56Z</time>
      </trkpt>
      <trkpt lat="46.06394" lon="4.78169">
        <ele>204</ele>
        <time>2018-10-12T09:19:57Z</time>
      </trkpt>
      <trkpt lat="46.06394" lon="4.7816">
        <ele>202</ele>
        <time>2018-10-12T09:19:58Z</time>
      </trkpt>
      <trkpt lat="46.06393" lon="4.78149">
        <ele>201</ele>
        <time>2018-10-12T09:19:59Z</time>
      </trkpt>
      <trkpt lat="46.06392" lon="4.78141">
        <ele>201</ele>
        <time>2018-10-12T09:20:00Z</time>
      </trkpt>
      <trkpt lat="46.06393" lon="4.78132">
        <ele>201</ele>
        <time>2018-10-12T09:20:01Z</time>
      </trkpt>
      <trkpt lat="46.06393" lon="4.78122">
        <ele>201</ele>
        <time>2018-10-12T09:20:02Z</time>
      </trkpt>
      <trkpt lat="46.06394" lon="4.78111">
        <ele>200</ele>
        <time>2018-10-12T09:20:03Z</time>
      </trkpt>
      <trkpt lat="46.06396" lon="4.78102">
        <ele>200</ele>
        <time>2018-10-12T09:20:04Z</time>
      </trkpt>
      <trkpt lat="46.06398" lon="4.78092">
        <ele>200</ele>
        <time>2018-10-12T09:20:05Z</time>
      </trkpt>
      <trkpt lat="46.06403" lon="4.78083">
        <ele>198</ele>
        <time>2018-10-12T09:20:06Z</time>
      </trkpt>
      <trkpt lat="46.06405" lon="4.78075">
        <ele>198</ele>
        <time>2018-10-12T09:20:07Z</time>
      </trkpt>
      <trkpt lat="46.06407" lon="4.78067">
        <ele>198</ele>
        <time>2018-10-12T09:20:08Z</time>
      </trkpt>
      <trkpt lat="46.0641" lon="4.78059">
        <ele>198</ele>
        <time>2018-10-12T09:20:09Z</time>
      </trkpt>
      <trkpt lat="46.06415" lon="4.78053">
        <ele>198</ele>
        <time>2018-10-12T09:20:10Z</time>
      </trkpt>
      <trkpt lat="46.0642" lon="4.78048">
        <ele>198</ele>
        <time>2018-10-12T09:20:11Z</time>
      </trkpt>
      <trkpt lat="46.06425" lon="4.78042">
        <ele>198</ele>
        <time>2018-10-12T09:20:12Z</time>
      </trkpt>
      <trkpt lat="46.0643" lon="4.78036">
        <ele>198</ele>
        <time>2018-10-12T09:20:13Z</time>
      </trkpt>
      <trkpt lat="46.06434" lon="4.7803">
        <ele>198</ele>
        <time>2018-10-12T09:20:14Z</time>
      </trkpt>
      <trkpt lat="46.06438" lon="4.78025">
        <ele>198</ele>
        <time>2018-10-12T09:20:15Z</time>
      </trkpt>
      <trkpt lat="46.06442" lon="4.78017">
        <ele>198</ele>
        <time>2018-10-12T09:20:16Z</time>
      </trkpt>
      <trkpt lat="46.06446" lon="4.78007">
        <ele>198</ele>
        <time>2018-10-12T09:20:17Z</time>
      </trkpt>
      <trkpt lat="46.06448" lon="4.77999">
        <ele>195</ele>
        <time>2018-10-12T09:20:18Z</time>
      </trkpt>
      <trkpt lat="46.0645" lon="4.77989">
        <ele>195</ele>
        <time>2018-10-12T09:20:19Z</time>
      </trkpt>
      <trkpt lat="46.06452" lon="4.77977">
        <ele>195</ele>
        <time>2018-10-12T09:20:20Z</time>
      </trkpt>
      <trkpt lat="46.06454" lon="4.77968">
        <ele>195</ele>
        <time>2018-10-12T09:20:21Z</time>
      </trkpt>
      <trkpt lat="46.06456" lon="4.77957">
        <ele>195</ele>
        <time>2018-10-12T09:20:22Z</time>
      </trkpt>
      <trkpt lat="46.06458" lon="4.77946">
        <ele>195</ele>
        <time>2018-10-12T09:20:23Z</time>
      </trkpt>
      <trkpt lat="46.06462" lon="4.77936">
        <ele>195</ele>
        <time>2018-10-12T09:20:24Z</time>
      </trkpt>
      <trkpt lat="46.06465" lon="4.77926">
        <ele>195</ele>
        <time>2018-10-12T09:20:25Z</time>
      </trkpt>
      <trkpt lat="46.06469" lon="4.77915">
        <ele>193</ele>
        <time>2018-10-12T09:20:26Z</time>
      </trkpt>
      <trkpt lat="46.06473" lon="4.77904">
        <ele>193</ele>
        <time>2018-10-12T09:20:27Z</time>
      </trkpt>
      <trkpt lat="46.06477" lon="4.77894">
        <ele>193</ele>
        <time>2018-10-12T09:20:28Z</time>
      </trkpt>
      <trkpt lat="46.06482" lon="4.77881">
        <ele>193</ele>
        <time>2018-10-12T09:20:29Z</time>
      </trkpt>
      <trkpt lat="46.06486" lon="4.77871">
        <ele>193</ele>
        <time>2018-10-12T09:20:30Z</time>
      </trkpt>
      <trkpt lat="46.06487" lon="4.7786">
        <ele>192</ele>
        <time>2018-10-12T09:20:31Z</time>
      </trkpt>
      <trkpt lat="46.06492" lon="4.77848">
        <ele>192</ele>
        <time>2018-10-12T09:20:32Z</time>
      </trkpt>
      <trkpt lat="46.06496" lon="4.77837">
        <ele>192</ele>
        <time>2018-10-12T09:20:33Z</time>
      </trkpt>
      <trkpt lat="46.06501" lon="4.77827">
        <ele>192</ele>
        <time>2018-10-12T09:20:34Z</time>
      </trkpt>
      <trkpt lat="46.06506" lon="4.77816">
        <ele>192</ele>
        <time>2018-10-12T09:20:35Z</time>
      </trkpt>
      <trkpt lat="46.06511" lon="4.77807">
        <ele>192</ele>
        <time>2018-10-12T09:20:36Z</time>
      </trkpt>
      <trkpt lat="46.06516" lon="4.77794">
        <ele>192</ele>
        <time>2018-10-12T09:20:37Z</time>
      </trkpt>
      <trkpt lat="46.0652" lon="4.77783">
        <ele>192</ele>
        <time>2018-10-12T09:20:38Z</time>
      </trkpt>
      <trkpt lat="46.06526" lon="4.77773">
        <ele>192</ele>
        <time>2018-10-12T09:20:39Z</time>
      </trkpt>
      <trkpt lat="46.06531" lon="4.77763">
        <ele>192</ele>
        <time>2018-10-12T09:20:40Z</time>
      </trkpt>
      <trkpt lat="46.06536" lon="4.77752">
        <ele>191</ele>
        <time>2018-10-12T09:20:41Z</time>
      </trkpt>
      <trkpt lat="46.0654" lon="4.77742">
        <ele>190</ele>
        <time>2018-10-12T09:20:42Z</time>
      </trkpt>
      <trkpt lat="46.06546" lon="4.77732">
        <ele>189</ele>
        <time>2018-10-12T09:20:43Z</time>
      </trkpt>
      <trkpt lat="46.06551" lon="4.77722">
        <ele>189</ele>
        <time>2018-10-12T09:20:44Z</time>
      </trkpt>
      <trkpt lat="46.06557" lon="4.77713">
        <ele>189</ele>
        <time>2018-10-12T09:20:45Z</time>
      </trkpt>
      <trkpt lat="46.06564" lon="4.77705">
        <ele>189</ele>
        <time>2018-10-12T09:20:46Z</time>
      </trkpt>
      <trkpt lat="46.06572" lon="4.777">
        <ele>188</ele>
        <time>2018-10-12T09:20:47Z</time>
      </trkpt>
      <trkpt lat="46.06579" lon="4.77695">
        <ele>188</ele>
        <time>2018-10-12T09:20:48Z</time>
      </trkpt>
      <trkpt lat="46.06587" lon="4.77691">
        <ele>187</ele>
        <time>2018-10-12T09:20:49Z</time>
      </trkpt>
      <trkpt lat="46.06594" lon="4.77688">
        <ele>187</ele>
        <time>2018-10-12T09:20:50Z</time>
      </trkpt>
      <trkpt lat="46.06601" lon="4.77683">
        <ele>187</ele>
        <time>2018-10-12T09:20:51Z</time>
      </trkpt>
      <trkpt lat="46.06607" lon="4.77678">
        <ele>187</ele>
        <time>2018-10-12T09:20:52Z</time>
      </trkpt>
      <trkpt lat="46.06614" lon="4.77672">
        <ele>187</ele>
        <time>2018-10-12T09:20:53Z</time>
      </trkpt>
      <trkpt lat="46.06619" lon="4.77663">
        <ele>185</ele>
        <time>2018-10-12T09:20:54Z</time>
      </trkpt>
      <trkpt lat="46.06623" lon="4.77655">
        <ele>185</ele>
        <time>2018-10-12T09:20:55Z</time>
      </trkpt>
      <trkpt lat="46.06626" lon="4.77643">
        <ele>185</ele>
        <time>2018-10-12T09:20:56Z</time>
      </trkpt>
      <trkpt lat="46.06628" lon="4.7763">
        <ele>185</ele>
        <time>2018-10-12T09:20:57Z</time>
      </trkpt>
      <trkpt lat="46.0663" lon="4.77618">
        <ele>185</ele>
        <time>2018-10-12T09:20:58Z</time>
      </trkpt>
      <trkpt lat="46.06631" lon="4.77606">
        <ele>185</ele>
        <time>2018-10-12T09:20:59Z</time>
      </trkpt>
      <trkpt lat="46.06632" lon="4.77594">
        <ele>185</ele>
        <time>2018-10-12T09:21:00Z</time>
      </trkpt>
      <trkpt lat="46.06633" lon="4.77582">
        <ele>183</ele>
        <time>2018-10-12T09:21:01Z</time>
      </trkpt>
      <trkpt lat="46.06633" lon="4.77569">
        <ele>183</ele>
        <time>2018-10-12T09:21:02Z</time>
      </trkpt>
      <trkpt lat="46.06632" lon="4.77556">
        <ele>183</ele>
        <time>2018-10-12T09:21:03Z</time>
      </trkpt>
      <trkpt lat="46.0663" lon="4.77543">
        <ele>183</ele>
        <time>2018-10-12T09:21:04Z</time>
      </trkpt>
      <trkpt lat="46.06627" lon="4.77531">
        <ele>183</ele>
        <time>2018-10-12T09:21:05Z</time>
      </trkpt>
      <trkpt lat="46.06623" lon="4.77519">
        <ele>183</ele>
        <time>2018-10-12T09:21:06Z</time>
      </trkpt>
      <trkpt lat="46.06618" lon="4.77508">
        <ele>183</ele>
        <time>2018-10-12T09:21:07Z</time>
      </trkpt>
      <trkpt lat="46.06613" lon="4.77498">
        <ele>181</ele>
        <time>2018-10-12T09:21:08Z</time>
      </trkpt>
      <trkpt lat="46.06608" lon="4.77488">
        <ele>181</ele>
        <time>2018-10-12T09:21:09Z</time>
      </trkpt>
      <trkpt lat="46.06603" lon="4.77477">
        <ele>181</ele>
        <time>2018-10-12T09:21:10Z</time>
      </trkpt>
      <trkpt lat="46.06599" lon="4.77465">
        <ele>180</ele>
        <time>2018-10-12T09:21:11Z</time>
      </trkpt>
      <trkpt lat="46.06597" lon="4.77454">
        <ele>180</ele>
        <time>2018-10-12T09:21:12Z</time>
      </trkpt>
      <trkpt lat="46.06596" lon="4.77443">
        <ele>180</ele>
        <time>2018-10-12T09:21:13Z</time>
      </trkpt>
      <trkpt lat="46.06597" lon="4.77431">
        <ele>179</ele>
        <time>2018-10-12T09:21:14Z</time>
      </trkpt>
      <trkpt lat="46.06602" lon="4.77424">
        <ele>179</ele>
        <time>2018-10-12T09:21:15Z</time>
      </trkpt>
      <trkpt lat="46.06604" lon="4.77414">
        <ele>177</ele>
        <time>2018-10-12T09:21:16Z</time>
      </trkpt>
      <trkpt lat="46.06608" lon="4.77406">
        <ele>177</ele>
        <time>2018-10-12T09:21:17Z</time>
      </trkpt>
      <trkpt lat="46.06613" lon="4.77398">
        <ele>177</ele>
        <time>2018-10-12T09:21:18Z</time>
      </trkpt>
      <trkpt lat="46.06617" lon="4.77389">
        <ele>177</ele>
        <time>2018-10-12T09:21:19Z</time>
      </trkpt>
      <trkpt lat="46.06622" lon="4.7738">
        <ele>176</ele>
        <time>2018-10-12T09:21:20Z</time>
      </trkpt>
      <trkpt lat="46.06625" lon="4.77371">
        <ele>176</ele>
        <time>2018-10-12T09:21:21Z</time>
      </trkpt>
      <trkpt lat="46.06628" lon="4.77363">
        <ele>176</ele>
        <time>2018-10-12T09:21:22Z</time>
      </trkpt>
      <trkpt lat="46.06633" lon="4.77354">
        <ele>176</ele>
        <time>2018-10-12T09:21:23Z</time>
      </trkpt>
      <trkpt lat="46.06636" lon="4.77344">
        <ele>176</ele>
        <time>2018-10-12T09:21:24Z</time>
      </trkpt>
      <trkpt lat="46.0664" lon="4.77334">
        <ele>175</ele>
        <time>2018-10-12T09:21:25Z</time>
      </trkpt>
      <trkpt lat="46.06644" lon="4.77325">
        <ele>174</ele>
        <time>2018-10-12T09:21:26Z</time>
      </trkpt>
      <trkpt lat="46.06648" lon="4.77316">
        <ele>174</ele>
        <time>2018-10-12T09:21:27Z</time>
      </trkpt>
      <trkpt lat="46.06652" lon="4.77307">
        <ele>174</ele>
        <time>2018-10-12T09:21:28Z</time>
      </trkpt>
      <trkpt lat="46.06656" lon="4.77298">
        <ele>174</ele>
        <time>2018-10-12T09:21:29Z</time>
      </trkpt>
      <trkpt lat="46.0666" lon="4.7729">
        <ele>174</ele>
        <time>2018-10-12T09:21:30Z</time>
      </trkpt>
      <trkpt lat="46.06664" lon="4.77281">
        <ele>174</ele>
        <time>2018-10-12T09:21:31Z</time>
      </trkpt>
      <trkpt lat="46.06667" lon="4.77272">
        <ele>173</ele>
        <time>2018-10-12T09:21:32Z</time>
      </trkpt>
      <trkpt lat="46.06669" lon="4.77263">
        <ele>173</ele>
        <time>2018-10-12T09:21:33Z</time>
      </trkpt>
      <trkpt lat="46.06673" lon="4.77255">
        <ele>173</ele>
        <time>2018-10-12T09:21:34Z</time>
      </trkpt>
      <trkpt lat="46.06676" lon="4.77247">
        <ele>173</ele>
        <time>2018-10-12T09:21:35Z</time>
      </trkpt>
      <trkpt lat="46.0668" lon="4.77239">
        <ele>172</ele>
        <time>2018-10-12T09:21:36Z</time>
      </trkpt>
      <trkpt lat="46.06683" lon="4.77231">
        <ele>172</ele>
        <time>2018-10-12T09:21:37Z</time>
      </trkpt>
      <trkpt lat="46.06685" lon="4.77222">
        <ele>172</ele>
        <time>2018-10-12T09:21:38Z</time>
      </trkpt>
      <trkpt lat="46.06688" lon="4.77214">
        <ele>172</ele>
        <time>2018-10-12T09:21:39Z</time>
      </trkpt>
      <trkpt lat="46.06692" lon="4.77207">
        <ele>172</ele>
        <time>2018-10-12T09:21:40Z</time>
      </trkpt>
      <trkpt lat="46.06697" lon="4.77202">
        <ele>172</ele>
        <time>2018-10-12T09:21:41Z</time>
      </trkpt>
      <trkpt lat="46.06703" lon="4.77201">
        <ele>172</ele>
        <time>2018-10-12T09:21:42Z</time>
      </trkpt>
      <trkpt lat="46.06708" lon="4.772">
        <ele>172</ele>
        <time>2018-10-12T09:21:43Z</time>
      </trkpt>
      <trkpt lat="46.06713" lon="4.77199">
        <ele>172</ele>
        <time>2018-10-12T09:21:44Z</time>
      </trkpt>
      <trkpt lat="46.06718" lon="4.77198">
        <ele>172</ele>
        <time>2018-10-12T09:21:45Z</time>
      </trkpt>
      <trkpt lat="46.06723" lon="4.77196">
        <ele>172</ele>
        <time>2018-10-12T09:21:46Z</time>
      </trkpt>
      <trkpt lat="46.06729" lon="4.77194">
        <ele>172</ele>
        <time>2018-10-12T09:21:47Z</time>
      </trkpt>
      <trkpt lat="46.06734" lon="4.77192">
        <ele>172</ele>
        <time>2018-10-12T09:21:48Z</time>
      </trkpt>
      <trkpt lat="46.0674" lon="4.77188">
        <ele>172</ele>
        <time>2018-10-12T09:21:49Z</time>
      </trkpt>
      <trkpt lat="46.06745" lon="4.77183">
        <ele>172</ele>
        <time>2018-10-12T09:21:50Z</time>
      </trkpt>
      <trkpt lat="46.06751" lon="4.77179">
        <ele>172</ele>
        <time>2018-10-12T09:21:51Z</time>
      </trkpt>
      <trkpt lat="46.06756" lon="4.77175">
        <ele>172</ele>
        <time>2018-10-12T09:21:52Z</time>
      </trkpt>
      <trkpt lat="46.0676" lon="4.77169">
        <ele>172</ele>
        <time>2018-10-12T09:21:53Z</time>
      </trkpt>
      <trkpt lat="46.06765" lon="4.77165">
        <ele>172</ele>
        <time>2018-10-12T09:21:54Z</time>
      </trkpt>
      <trkpt lat="46.06769" lon="4.7716">
        <ele>172</ele>
        <time>2018-10-12T09:21:55Z</time>
      </trkpt>
      <trkpt lat="46.06774" lon="4.77154">
        <ele>172</ele>
        <time>2018-10-12T09:21:56Z</time>
      </trkpt>
      <trkpt lat="46.06778" lon="4.77149">
        <ele>172</ele>
        <time>2018-10-12T09:21:57Z</time>
      </trkpt>
      <trkpt lat="46.06783" lon="4.77143">
        <ele>172</ele>
        <time>2018-10-12T09:21:58Z</time>
      </trkpt>
      <trkpt lat="46.06787" lon="4.77138">
        <ele>172</ele>
        <time>2018-10-12T09:21:59Z</time>
      </trkpt>
      <trkpt lat="46.06792" lon="4.77133">
        <ele>172</ele>
        <time>2018-10-12T09:22:00Z</time>
      </trkpt>
      <trkpt lat="46.06797" lon="4.77128">
        <ele>172</ele>
        <time>2018-10-12T09:22:01Z</time>
      </trkpt>
      <trkpt lat="46.06801" lon="4.77124">
        <ele>172</ele>
        <time>2018-10-12T09:22:02Z</time>
      </trkpt>
      <trkpt lat="46.06807" lon="4.7712">
        <ele>172</ele>
        <time>2018-10-12T09:22:03Z</time>
      </trkpt>
      <trkpt lat="46.06811" lon="4.77116">
        <ele>172</ele>
        <time>2018-10-12T09:22:04Z</time>
      </trkpt>
      <trkpt lat="46.06817" lon="4.77113">
        <ele>172</ele>
        <time>2018-10-12T09:22:05Z</time>
      </trkpt>
      <trkpt lat="46.06823" lon="4.77109">
        <ele>173</ele>
        <time>2018-10-12T09:22:06Z</time>
      </trkpt>
      <trkpt lat="46.06829" lon="4.77105">
        <ele>173</ele>
        <time>2018-10-12T09:22:07Z</time>
      </trkpt>
      <trkpt lat="46.06835" lon="4.77102">
        <ele>173</ele>
        <time>2018-10-12T09:22:08Z</time>
      </trkpt>
      <trkpt lat="46.06841" lon="4.77099">
        <ele>173</ele>
        <time>2018-10-12T09:22:09Z</time>
      </trkpt>
      <trkpt lat="46.06847" lon="4.77096">
        <ele>173</ele>
        <time>2018-10-12T09:22:10Z</time>
      </trkpt>
      <trkpt lat="46.06853" lon="4.77093">
        <ele>173</ele>
        <time>2018-10-12T09:22:11Z</time>
      </trkpt>
      <trkpt lat="46.0686" lon="4.77091">
        <ele>173</ele>
        <time>2018-10-12T09:22:12Z</time>
      </trkpt>
      <trkpt lat="46.06866" lon="4.77089">
        <ele>173</ele>
        <time>2018-10-12T09:22:13Z</time>
      </trkpt>
      <trkpt lat="46.06873" lon="4.77088">
        <ele>173</ele>
        <time>2018-10-12T09:22:14Z</time>
      </trkpt>
      <trkpt lat="46.06879" lon="4.77087">
        <ele>173</ele>
        <time>2018-10-12T09:22:15Z</time>
      </trkpt>
      <trkpt lat="46.06885" lon="4.77088">
        <ele>173</ele>
        <time>2018-10-12T09:22:16Z</time>
      </trkpt>
      <trkpt lat="46.06891" lon="4.77088">
        <ele>173</ele>
        <time>2018-10-12T09:22:17Z</time>
      </trkpt>
      <trkpt lat="46.06897" lon="4.77088">
        <ele>173</ele>
        <time>2018-10-12T09:22:18Z</time>
      </trkpt>
      <trkpt lat="46.06902" lon="4.77088">
        <ele>173</ele>
        <time>2018-10-12T09:22:19Z</time>
      </trkpt>
      <trkpt lat="46.06908" lon="4.77087">
        <ele>173</ele>
        <time>2018-10-12T09:22:20Z</time>
      </trkpt>
      <trkpt lat="46.06914" lon="4.77088">
        <ele>173</ele>
        <time>2018-10-12T09:22:21Z</time>
      </trkpt>
      <trkpt lat="46.06919" lon="4.77085">
        <ele>173</ele>
        <time>2018-10-12T09:22:22Z</time>
      </trkpt>
      <trkpt lat="46.06924" lon="4.77085">
        <ele>173</ele>
        <time>2018-10-12T09:22:23Z</time>
      </trkpt>
      <trkpt lat="46.0693" lon="4.77084">
        <ele>173</ele>
        <time>2018-10-12T09:22:24Z</time>
      </trkpt>
      <trkpt lat="46.06935" lon="4.77083">
        <ele>173</ele>
        <time>2018-10-12T09:22:25Z</time>
      </trkpt>
      <trkpt lat="46.06941" lon="4.77083">
        <ele>173</ele>
        <time>2018-10-12T09:22:26Z</time>
      </trkpt>
      <trkpt lat="46.06946" lon="4.77082">
        <ele>173</ele>
        <time>2018-10-12T09:22:27Z</time>
      </trkpt>
      <trkpt lat="46.06952" lon="4.77081">
        <ele>173</ele>
        <time>2018-10-12T09:22:28Z</time>
      </trkpt>
      <trkpt lat="46.06958" lon="4.77081">
        <ele>173</ele>
        <time>2018-10-12T09:22:29Z</time>
      </trkpt>
      <trkpt lat="46.06964" lon="4.77081">
        <ele>173</ele>
        <time>2018-10-12T09:22:30Z</time>
      </trkpt>
      <trkpt lat="46.0697" lon="4.77079">
        <ele>173</ele>
        <time>2018-10-12T09:22:31Z</time>
      </trkpt>
      <trkpt lat="46.06975" lon="4.77077">
        <ele>173</ele>
        <time>2018-10-12T09:22:32Z</time>
      </trkpt>
      <trkpt lat="46.0698" lon="4.77076">
        <ele>174</ele>
        <time>2018-10-12T09:22:33Z</time>
      </trkpt>
      <trkpt lat="46.06985" lon="4.77069">
        <ele>174</ele>
        <time>2018-10-12T09:22:34Z</time>
      </trkpt>
      <trkpt lat="46.06988" lon="4.7706">
        <ele>173</ele>
        <time>2018-10-12T09:22:35Z</time>
      </trkpt>
      <trkpt lat="46.06991" lon="4.77052">
        <ele>173</ele>
        <time>2018-10-12T09:22:36Z</time>
      </trkpt>
      <trkpt lat="46.06993" lon="4.77043">
        <ele>173</ele>
        <time>2018-10-12T09:22:37Z</time>
      </trkpt>
      <trkpt lat="46.06996" lon="4.77035">
        <ele>173</ele>
        <time>2018-10-12T09:22:38Z</time>
      </trkpt>
      <trkpt lat="46.06999" lon="4.77028">
        <ele>173</ele>
        <time>2018-10-12T09:22:39Z</time>
      </trkpt>
      <trkpt lat="46.07002" lon="4.77021">
        <ele>174</ele>
        <time>2018-10-12T09:22:40Z</time>
      </trkpt>
      <trkpt lat="46.07006" lon="4.77013">
        <ele>174</ele>
        <time>2018-10-12T09:22:41Z</time>
      </trkpt>
      <trkpt lat="46.0701" lon="4.77005">
        <ele>173</ele>
        <time>2018-10-12T09:22:42Z</time>
      </trkpt>
      <trkpt lat="46.07014" lon="4.76997">
        <ele>173</ele>
        <time>2018-10-12T09:22:43Z</time>
      </trkpt>
      <trkpt lat="46.07018" lon="4.7699">
        <ele>173</ele>
        <time>2018-10-12T09:22:44Z</time>
      </trkpt>
      <trkpt lat="46.07022" lon="4.76983">
        <ele>173</ele>
        <time>2018-10-12T09:22:45Z</time>
      </trkpt>
      <trkpt lat="46.07026" lon="4.76976">
        <ele>173</ele>
        <time>2018-10-12T09:22:46Z</time>
      </trkpt>
      <trkpt lat="46.07029" lon="4.76968">
        <ele>173</ele>
        <time>2018-10-12T09:22:47Z</time>
      </trkpt>
      <trkpt lat="46.07033" lon="4.76961">
        <ele>173</ele>
        <time>2018-10-12T09:22:48Z</time>
      </trkpt>
      <trkpt lat="46.07037" lon="4.76954">
        <ele>173</ele>
        <time>2018-10-12T09:22:49Z</time>
      </trkpt>
      <trkpt lat="46.0704" lon="4.76948">
        <ele>173</ele>
        <time>2018-10-12T09:22:50Z</time>
      </trkpt>
      <trkpt lat="46.07044" lon="4.76941">
        <ele>173</ele>
        <time>2018-10-12T09:22:51Z</time>
      </trkpt>
      <trkpt lat="46.07047" lon="4.76935">
        <ele>173</ele>
        <time>2018-10-12T09:22:52Z</time>
      </trkpt>
      <trkpt lat="46.0705" lon="4.76927">
        <ele>173</ele>
        <time>2018-10-12T09:22:53Z</time>
      </trkpt>
      <trkpt lat="46.07055" lon="4.7692">
        <ele>173</ele>
        <time>2018-10-12T09:22:54Z</time>
      </trkpt>
      <trkpt lat="46.07058" lon="4.76913">
        <ele>172</ele>
        <time>2018-10-12T09:22:55Z</time>
      </trkpt>
      <trkpt lat="46.07062" lon="4.76907">
        <ele>172</ele>
        <time>2018-10-12T09:22:56Z</time>
      </trkpt>
      <trkpt lat="46.07066" lon="4.769">
        <ele>172</ele>
        <time>2018-10-12T09:22:57Z</time>
      </trkpt>
      <trkpt lat="46.0707" lon="4.76892">
        <ele>172</ele>
        <time>2018-10-12T09:22:58Z</time>
      </trkpt>
      <trkpt lat="46.07074" lon="4.76884">
        <ele>172</ele>
        <time>2018-10-12T09:22:59Z</time>
      </trkpt>
      <trkpt lat="46.07078" lon="4.76876">
        <ele>172</ele>
        <time>2018-10-12T09:23:00Z</time>
      </trkpt>
      <trkpt lat="46.07082" lon="4.76869">
        <ele>172</ele>
        <time>2018-10-12T09:23:01Z</time>
      </trkpt>
      <trkpt lat="46.07085" lon="4.76862">
        <ele>173</ele>
        <time>2018-10-12T09:23:02Z</time>
      </trkpt>
      <trkpt lat="46.07089" lon="4.76855">
        <ele>173</ele>
        <time>2018-10-12T09:23:03Z</time>
      </trkpt>
      <trkpt lat="46.07092" lon="4.76848">
        <ele>172</ele>
        <time>2018-10-12T09:23:04Z</time>
      </trkpt>
      <trkpt lat="46.07096" lon="4.76841">
        <ele>172</ele>
        <time>2018-10-12T09:23:05Z</time>
      </trkpt>
      <trkpt lat="46.071" lon="4.76835">
        <ele>172</ele>
        <time>2018-10-12T09:23:06Z</time>
      </trkpt>
      <trkpt lat="46.07103" lon="4.76829">
        <ele>172</ele>
        <time>2018-10-12T09:23:07Z</time>
      </trkpt>
      <trkpt lat="46.07107" lon="4.76823">
        <ele>172</ele>
        <time>2018-10-12T09:23:08Z</time>
      </trkpt>
      <trkpt lat="46.0711" lon="4.76816">
        <ele>172</ele>
        <time>2018-10-12T09:23:09Z</time>
      </trkpt>
      <trkpt lat="46.07113" lon="4.76809">
        <ele>172</ele>
        <time>2018-10-12T09:23:10Z</time>
      </trkpt>
      <trkpt lat="46.07117" lon="4.76802">
        <ele>172</ele>
        <time>2018-10-12T09:23:11Z</time>
      </trkpt>
      <trkpt lat="46.0712" lon="4.76796">
        <ele>172</ele>
        <time>2018-10-12T09:23:12Z</time>
      </trkpt>
      <trkpt lat="46.07123" lon="4.76789">
        <ele>171</ele>
        <time>2018-10-12T09:23:13Z</time>
      </trkpt>
      <trkpt lat="46.07126" lon="4.76782">
        <ele>171</ele>
        <time>2018-10-12T09:23:14Z</time>
      </trkpt>
      <trkpt lat="46.07129" lon="4.76775">
        <ele>171</ele>
        <time>2018-10-12T09:23:15Z</time>
      </trkpt>
      <trkpt lat="46.07133" lon="4.76768">
        <ele>171</ele>
        <time>2018-10-12T09:23:16Z</time>
      </trkpt>
      <trkpt lat="46.07137" lon="4.76761">
        <ele>171</ele>
        <time>2018-10-12T09:23:17Z</time>
      </trkpt>
      <trkpt lat="46.07141" lon="4.76754">
        <ele>171</ele>
        <time>2018-10-12T09:23:18Z</time>
      </trkpt>
      <trkpt lat="46.07145" lon="4.76746">
        <ele>171</ele>
        <time>2018-10-12T09:23:19Z</time>
      </trkpt>
      <trkpt lat="46.07149" lon="4.7674">
        <ele>171</ele>
        <time>2018-10-12T09:23:20Z</time>
      </trkpt>
      <trkpt lat="46.07154" lon="4.76731">
        <ele>171</ele>
        <time>2018-10-12T09:23:21Z</time>
      </trkpt>
      <trkpt lat="46.07158" lon="4.76725">
        <ele>171</ele>
        <time>2018-10-12T09:23:22Z</time>
      </trkpt>
      <trkpt lat="46.07161" lon="4.76717">
        <ele>170</ele>
        <time>2018-10-12T09:23:23Z</time>
      </trkpt>
      <trkpt lat="46.07165" lon="4.76709">
        <ele>170</ele>
        <time>2018-10-12T09:23:24Z</time>
      </trkpt>
      <trkpt lat="46.07169" lon="4.76701">
        <ele>171</ele>
        <time>2018-10-12T09:23:25Z</time>
      </trkpt>
      <trkpt lat="46.07173" lon="4.76694">
        <ele>171</ele>
        <time>2018-10-12T09:23:26Z</time>
      </trkpt>
      <trkpt lat="46.07176" lon="4.76687">
        <ele>170</ele>
        <time>2018-10-12T09:23:27Z</time>
      </trkpt>
      <trkpt lat="46.07179" lon="4.76681">
        <ele>170</ele>
        <time>2018-10-12T09:23:28Z</time>
      </trkpt>
      <trkpt lat="46.07182" lon="4.76675">
        <ele>170</ele>
        <time>2018-10-12T09:23:29Z</time>
      </trkpt>
      <trkpt lat="46.07185" lon="4.76668">
        <ele>170</ele>
        <time>2018-10-12T09:23:30Z</time>
      </trkpt>
      <trkpt lat="46.0719" lon="4.76661">
        <ele>170</ele>
        <time>2018-10-12T09:23:31Z</time>
      </trkpt>
      <trkpt lat="46.07194" lon="4.76654">
        <ele>170</ele>
        <time>2018-10-12T09:23:32Z</time>
      </trkpt>
      <trkpt lat="46.07198" lon="4.76647">
        <ele>170</ele>
        <time>2018-10-12T09:23:33Z</time>
      </trkpt>
      <trkpt lat="46.07202" lon="4.76641">
        <ele>170</ele>
        <time>2018-10-12T09:23:34Z</time>
      </trkpt>
      <trkpt lat="46.07207" lon="4.76634">
        <ele>170</ele>
        <time>2018-10-12T09:23:35Z</time>
      </trkpt>
      <trkpt lat="46.07211" lon="4.76628">
        <ele>171</ele>
        <time>2018-10-12T09:23:36Z</time>
      </trkpt>
      <trkpt lat="46.07216" lon="4.76622">
        <ele>170</ele>
        <time>2018-10-12T09:23:37Z</time>
      </trkpt>
      <trkpt lat="46.0722" lon="4.76616">
        <ele>170</ele>
        <time>2018-10-12T09:23:38Z</time>
      </trkpt>
      <trkpt lat="46.07225" lon="4.7661">
        <ele>170</ele>
        <time>2018-10-12T09:23:39Z</time>
      </trkpt>
      <trkpt lat="46.07229" lon="4.76604">
        <ele>170</ele>
        <time>2018-10-12T09:23:40Z</time>
      </trkpt>
      <trkpt lat="46.07235" lon="4.76598">
        <ele>170</ele>
        <time>2018-10-12T09:23:41Z</time>
      </trkpt>
      <trkpt lat="46.07239" lon="4.76592">
        <ele>170</ele>
        <time>2018-10-12T09:23:42Z</time>
      </trkpt>
      <trkpt lat="46.07243" lon="4.76586">
        <ele>170</ele>
        <time>2018-10-12T09:23:43Z</time>
      </trkpt>
      <trkpt lat="46.07247" lon="4.76579">
        <ele>170</ele>
        <time>2018-10-12T09:23:44Z</time>
      </trkpt>
      <trkpt lat="46.07251" lon="4.76574">
        <ele>170</ele>
        <time>2018-10-12T09:23:45Z</time>
      </trkpt>
      <trkpt lat="46.07255" lon="4.76571">
        <ele>170</ele>
        <time>2018-10-12T09:23:46Z</time>
      </trkpt>
      <trkpt lat="46.0726" lon="4.76566">
        <ele>170</ele>
        <time>2018-10-12T09:23:47Z</time>
      </trkpt>
      <trkpt lat="46.07265" lon="4.76561">
        <ele>170</ele>
        <time>2018-10-12T09:23:48Z</time>
      </trkpt>
      <trkpt lat="46.07269" lon="4.76556">
        <ele>170</ele>
        <time>2018-10-12T09:23:49Z</time>
      </trkpt>
      <trkpt lat="46.07274" lon="4.76551">
        <ele>170</ele>
        <time>2018-10-12T09:23:50Z</time>
      </trkpt>
      <trkpt lat="46.07279" lon="4.76544">
        <ele>170</ele>
        <time>2018-10-12T09:23:51Z</time>
      </trkpt>
      <trkpt lat="46.07284" lon="4.7654">
        <ele>170</ele>
        <time>2018-10-12T09:23:52Z</time>
      </trkpt>
      <trkpt lat="46.0729" lon="4.76535">
        <ele>170</ele>
        <time>2018-10-12T09:23:53Z</time>
      </trkpt>
      <trkpt lat="46.07294" lon="4.7653">
        <ele>170</ele>
        <time>2018-10-12T09:23:54Z</time>
      </trkpt>
      <trkpt lat="46.07299" lon="4.76525">
        <ele>170</ele>
        <time>2018-10-12T09:23:55Z</time>
      </trkpt>
      <trkpt lat="46.07304" lon="4.76517">
        <ele>170</ele>
        <time>2018-10-12T09:23:56Z</time>
      </trkpt>
      <trkpt lat="46.07309" lon="4.76512">
        <ele>170</ele>
        <time>2018-10-12T09:23:57Z</time>
      </trkpt>
      <trkpt lat="46.07314" lon="4.76507">
        <ele>170</ele>
        <time>2018-10-12T09:23:58Z</time>
      </trkpt>
      <trkpt lat="46.07319" lon="4.76501">
        <ele>170</ele>
        <time>2018-10-12T09:23:59Z</time>
      </trkpt>
      <trkpt lat="46.07323" lon="4.76496">
        <ele>170</ele>
        <time>2018-10-12T09:24:00Z</time>
      </trkpt>
      <trkpt lat="46.07327" lon="4.76491">
        <ele>170</ele>
        <time>2018-10-12T09:24:01Z</time>
      </trkpt>
      <trkpt lat="46.07332" lon="4.76486">
        <ele>170</ele>
        <time>2018-10-12T09:24:02Z</time>
      </trkpt>
      <trkpt lat="46.07336" lon="4.76482">
        <ele>171</ele>
        <time>2018-10-12T09:24:03Z</time>
      </trkpt>
      <trkpt lat="46.07341" lon="4.76479">
        <ele>171</ele>
        <time>2018-10-12T09:24:04Z</time>
      </trkpt>
      <trkpt lat="46.07346" lon="4.76473">
        <ele>171</ele>
        <time>2018-10-12T09:24:05Z</time>
      </trkpt>
      <trkpt lat="46.07351" lon="4.76466">
        <ele>171</ele>
        <time>2018-10-12T09:24:06Z</time>
      </trkpt>
      <trkpt lat="46.07355" lon="4.76461">
        <ele>171</ele>
        <time>2018-10-12T09:24:07Z</time>
      </trkpt>
      <trkpt lat="46.0736" lon="4.76456">
        <ele>171</ele>
        <time>2018-10-12T09:24:08Z</time>
      </trkpt>
      <trkpt lat="46.07365" lon="4.7645">
        <ele>171</ele>
        <time>2018-10-12T09:24:09Z</time>
      </trkpt>
      <trkpt lat="46.0737" lon="4.76445">
        <ele>171</ele>
        <time>2018-10-12T09:24:10Z</time>
      </trkpt>
      <trkpt lat="46.07375" lon="4.7644">
        <ele>171</ele>
        <time>2018-10-12T09:24:11Z</time>
      </trkpt>
      <trkpt lat="46.0738" lon="4.76435">
        <ele>171</ele>
        <time>2018-10-12T09:24:12Z</time>
      </trkpt>
      <trkpt lat="46.07384" lon="4.76431">
        <ele>171</ele>
        <time>2018-10-12T09:24:13Z</time>
      </trkpt>
      <trkpt lat="46.07388" lon="4.76427">
        <ele>171</ele>
        <time>2018-10-12T09:24:14Z</time>
      </trkpt>
      <trkpt lat="46.07393" lon="4.76423">
        <ele>171</ele>
        <time>2018-10-12T09:24:15Z</time>
      </trkpt>
      <trkpt lat="46.07397" lon="4.76418">
        <ele>171</ele>
        <time>2018-10-12T09:24:16Z</time>
      </trkpt>
      <trkpt lat="46.07402" lon="4.76413">
        <ele>171</ele>
        <time>2018-10-12T09:24:17Z</time>
      </trkpt>
      <trkpt lat="46.07406" lon="4.76408">
        <ele>171</ele>
        <time>2018-10-12T09:24:18Z</time>
      </trkpt>
      <trkpt lat="46.07411" lon="4.76405">
        <ele>171</ele>
        <time>2018-10-12T09:24:19Z</time>
      </trkpt>
      <trkpt lat="46.07415" lon="4.76399">
        <ele>171</ele>
        <time>2018-10-12T09:24:20Z</time>
      </trkpt>
      <trkpt lat="46.07419" lon="4.76395">
        <ele>171</ele>
        <time>2018-10-12T09:24:21Z</time>
      </trkpt>
      <trkpt lat="46.07424" lon="4.76389">
        <ele>171</ele>
        <time>2018-10-12T09:24:22Z</time>
      </trkpt>
      <trkpt lat="46.07428" lon="4.76384">
        <ele>171</ele>
        <time>2018-10-12T09:24:23Z</time>
      </trkpt>
      <trkpt lat="46.07433" lon="4.7638">
        <ele>171</ele>
        <time>2018-10-12T09:24:24Z</time>
      </trkpt>
      <trkpt lat="46.07437" lon="4.76375">
        <ele>171</ele>
        <time>2018-10-12T09:24:25Z</time>
      </trkpt>
      <trkpt lat="46.07443" lon="4.7637">
        <ele>172</ele>
        <time>2018-10-12T09:24:26Z</time>
      </trkpt>
      <trkpt lat="46.07447" lon="4.76366">
        <ele>172</ele>
        <time>2018-10-12T09:24:27Z</time>
      </trkpt>
      <trkpt lat="46.07452" lon="4.76361">
        <ele>172</ele>
        <time>2018-10-12T09:24:28Z</time>
      </trkpt>
      <trkpt lat="46.07455" lon="4.76356">
        <ele>172</ele>
        <time>2018-10-12T09:24:29Z</time>
      </trkpt>
      <trkpt lat="46.07459" lon="4.76352">
        <ele>172</ele>
        <time>2018-10-12T09:24:30Z</time>
      </trkpt>
      <trkpt lat="46.07463" lon="4.76349">
        <ele>172</ele>
        <time>2018-10-12T09:24:31Z</time>
      </trkpt>
      <trkpt lat="46.07471" lon="4.76344">
        <ele>172</ele>
        <time>2018-10-12T09:24:33Z</time>
      </trkpt>
      <trkpt lat="46.07476" lon="4.76344">
        <ele>172</ele>
        <time>2018-10-12T09:24:34Z</time>
      </trkpt>
      <trkpt lat="46.0748" lon="4.76343">
        <ele>173</ele>
        <time>2018-10-12T09:24:35Z</time>
      </trkpt>
      <trkpt lat="46.07485" lon="4.76341">
        <ele>173</ele>
        <time>2018-10-12T09:24:36Z</time>
      </trkpt>
      <trkpt lat="46.07488" lon="4.76335">
        <ele>173</ele>
        <time>2018-10-12T09:24:37Z</time>
      </trkpt>
      <trkpt lat="46.07491" lon="4.76329">
        <ele>173</ele>
        <time>2018-10-12T09:24:38Z</time>
      </trkpt>
      <trkpt lat="46.07492" lon="4.76322">
        <ele>173</ele>
        <time>2018-10-12T09:24:39Z</time>
      </trkpt>
      <trkpt lat="46.07494" lon="4.76316">
        <ele>173</ele>
        <time>2018-10-12T09:24:40Z</time>
      </trkpt>
      <trkpt lat="46.07497" lon="4.7631">
        <ele>173</ele>
        <time>2018-10-12T09:24:41Z</time>
      </trkpt>
      <trkpt lat="46.075" lon="4.76305">
        <ele>174</ele>
        <time>2018-10-12T09:24:42Z</time>
      </trkpt>
      <trkpt lat="46.07504" lon="4.76302">
        <ele>174</ele>
        <time>2018-10-12T09:24:43Z</time>
      </trkpt>
      <trkpt lat="46.07509" lon="4.76294">
        <ele>174</ele>
        <time>2018-10-12T09:24:44Z</time>
      </trkpt>
      <trkpt lat="46.07516" lon="4.76285">
        <ele>174</ele>
        <time>2018-10-12T09:24:46Z</time>
      </trkpt>
      <trkpt lat="46.0752" lon="4.76283">
        <ele>174</ele>
        <time>2018-10-12T09:24:47Z</time>
      </trkpt>
      <trkpt lat="46.07524" lon="4.7628">
        <ele>174</ele>
        <time>2018-10-12T09:24:48Z</time>
      </trkpt>
      <trkpt lat="46.07528" lon="4.76275">
        <ele>174</ele>
        <time>2018-10-12T09:24:49Z</time>
      </trkpt>
      <trkpt lat="46.07532" lon="4.76271">
        <ele>174</ele>
        <time>2018-10-12T09:24:50Z</time>
      </trkpt>
      <trkpt lat="46.07537" lon="4.76267">
        <ele>174</ele>
        <time>2018-10-12T09:24:51Z</time>
      </trkpt>
      <trkpt lat="46.07542" lon="4.76264">
        <ele>174</ele>
        <time>2018-10-12T09:24:52Z</time>
      </trkpt>
      <trkpt lat="46.07545" lon="4.76259">
        <ele>174</ele>
        <time>2018-10-12T09:24:53Z</time>
      </trkpt>
      <trkpt lat="46.07552" lon="4.76252">
        <ele>174</ele>
        <time>2018-10-12T09:24:55Z</time>
      </trkpt>
      <trkpt lat="46.07556" lon="4.76248">
        <ele>173</ele>
        <time>2018-10-12T09:24:56Z</time>
      </trkpt>
      <trkpt lat="46.07561" lon="4.76245">
        <ele>173</ele>
        <time>2018-10-12T09:24:57Z</time>
      </trkpt>
      <trkpt lat="46.07566" lon="4.76241">
        <ele>173</ele>
        <time>2018-10-12T09:24:58Z</time>
      </trkpt>
      <trkpt lat="46.0757" lon="4.76237">
        <ele>173</ele>
        <time>2018-10-12T09:24:59Z</time>
      </trkpt>
      <trkpt lat="46.07574" lon="4.76231">
        <ele>173</ele>
        <time>2018-10-12T09:25:00Z</time>
      </trkpt>
      <trkpt lat="46.07579" lon="4.76226">
        <ele>173</ele>
        <time>2018-10-12T09:25:01Z</time>
      </trkpt>
      <trkpt lat="46.07584" lon="4.76222">
        <ele>173</ele>
        <time>2018-10-12T09:25:02Z</time>
      </trkpt>
      <trkpt lat="46.07588" lon="4.76217">
        <ele>173</ele>
        <time>2018-10-12T09:25:03Z</time>
      </trkpt>
      <trkpt lat="46.07593" lon="4.76212">
        <ele>173</ele>
        <time>2018-10-12T09:25:04Z</time>
      </trkpt>
      <trkpt lat="46.07598" lon="4.76207">
        <ele>173</ele>
        <time>2018-10-12T09:25:05Z</time>
      </trkpt>
      <trkpt lat="46.07603" lon="4.76203">
        <ele>173</ele>
        <time>2018-10-12T09:25:06Z</time>
      </trkpt>
      <trkpt lat="46.07608" lon="4.76197">
        <ele>173</ele>
        <time>2018-10-12T09:25:07Z</time>
      </trkpt>
      <trkpt lat="46.07614" lon="4.76191">
        <ele>173</ele>
        <time>2018-10-12T09:25:08Z</time>
      </trkpt>
      <trkpt lat="46.0762" lon="4.76185">
        <ele>173</ele>
        <time>2018-10-12T09:25:09Z</time>
      </trkpt>
      <trkpt lat="46.07627" lon="4.76176">
        <ele>173</ele>
        <time>2018-10-12T09:25:10Z</time>
      </trkpt>
      <trkpt lat="46.07633" lon="4.7617">
        <ele>173</ele>
        <time>2018-10-12T09:25:11Z</time>
      </trkpt>
      <trkpt lat="46.07638" lon="4.76161">
        <ele>172</ele>
        <time>2018-10-12T09:25:12Z</time>
      </trkpt>
      <trkpt lat="46.07643" lon="4.76155">
        <ele>172</ele>
        <time>2018-10-12T09:25:13Z</time>
      </trkpt>
      <trkpt lat="46.07648" lon="4.76149">
        <ele>172</ele>
        <time>2018-10-12T09:25:14Z</time>
      </trkpt>
      <trkpt lat="46.07652" lon="4.76144">
        <ele>172</ele>
        <time>2018-10-12T09:25:15Z</time>
      </trkpt>
      <trkpt lat="46.07658" lon="4.7614">
        <ele>172</ele>
        <time>2018-10-12T09:25:16Z</time>
      </trkpt>
      <trkpt lat="46.07663" lon="4.76136">
        <ele>172</ele>
        <time>2018-10-12T09:25:17Z</time>
      </trkpt>
      <trkpt lat="46.07668" lon="4.7613">
        <ele>173</ele>
        <time>2018-10-12T09:25:18Z</time>
      </trkpt>
      <trkpt lat="46.07672" lon="4.76126">
        <ele>173</ele>
        <time>2018-10-12T09:25:19Z</time>
      </trkpt>
      <trkpt lat="46.07676" lon="4.76122">
        <ele>173</ele>
        <time>2018-10-12T09:25:20Z</time>
      </trkpt>
      <trkpt lat="46.0768" lon="4.76117">
        <ele>173</ele>
        <time>2018-10-12T09:25:21Z</time>
      </trkpt>
      <trkpt lat="46.07683" lon="4.76113">
        <ele>173</ele>
        <time>2018-10-12T09:25:22Z</time>
      </trkpt>
      <trkpt lat="46.07687" lon="4.76102">
        <ele>173</ele>
        <time>2018-10-12T09:25:24Z</time>
      </trkpt>
      <trkpt lat="46.07686" lon="4.76096">
        <ele>173</ele>
        <time>2018-10-12T09:25:25Z</time>
      </trkpt>
      <trkpt lat="46.07682" lon="4.76087">
        <ele>173</ele>
        <time>2018-10-12T09:25:27Z</time>
      </trkpt>
      <trkpt lat="46.07681" lon="4.76082">
        <ele>174</ele>
        <time>2018-10-12T09:25:28Z</time>
      </trkpt>
      <trkpt lat="46.07678" lon="4.76076">
        <ele>174</ele>
        <time>2018-10-12T09:25:30Z</time>
      </trkpt>
      <trkpt lat="46.07675" lon="4.76068">
        <ele>174</ele>
        <time>2018-10-12T09:25:31Z</time>
      </trkpt>
      <trkpt lat="46.07673" lon="4.76061">
        <ele>174</ele>
        <time>2018-10-12T09:25:32Z</time>
      </trkpt>
      <trkpt lat="46.07671" lon="4.76055">
        <ele>174</ele>
        <time>2018-10-12T09:25:33Z</time>
      </trkpt>
      <trkpt lat="46.0767" lon="4.76048">
        <ele>174</ele>
        <time>2018-10-12T09:25:34Z</time>
      </trkpt>
      <trkpt lat="46.07668" lon="4.76042">
        <ele>174</ele>
        <time>2018-10-12T09:25:35Z</time>
      </trkpt>
      <trkpt lat="46.07664" lon="4.76037">
        <ele>172</ele>
        <time>2018-10-12T09:25:36Z</time>
      </trkpt>
      <trkpt lat="46.07661" lon="4.76029">
        <ele>172</ele>
        <time>2018-10-12T09:25:37Z</time>
      </trkpt>
      <trkpt lat="46.07659" lon="4.76022">
        <ele>172</ele>
        <time>2018-10-12T09:25:38Z</time>
      </trkpt>
      <trkpt lat="46.07656" lon="4.76016">
        <ele>172</ele>
        <time>2018-10-12T09:25:39Z</time>
      </trkpt>
      <trkpt lat="46.07653" lon="4.76009">
        <ele>172</ele>
        <time>2018-10-12T09:25:40Z</time>
      </trkpt>
      <trkpt lat="46.07649" lon="4.76007">
        <ele>172</ele>
        <time>2018-10-12T09:25:41Z</time>
      </trkpt>
      <trkpt lat="46.07646" lon="4.75999">
        <ele>170</ele>
        <time>2018-10-12T09:25:44Z</time>
      </trkpt>
      <trkpt lat="46.07646" lon="4.75993">
        <ele>170</ele>
        <time>2018-10-12T09:25:45Z</time>
      </trkpt>
      <trkpt lat="46.07648" lon="4.75983">
        <ele>170</ele>
        <time>2018-10-12T09:25:46Z</time>
      </trkpt>
      <trkpt lat="46.0765" lon="4.7598">
        <ele>170</ele>
        <time>2018-10-12T09:25:47Z</time>
      </trkpt>
      <trkpt lat="46.07658" lon="4.75976">
        <ele>170</ele>
        <time>2018-10-12T09:25:49Z</time>
      </trkpt>
      <trkpt lat="46.07661" lon="4.75974">
        <ele>170</ele>
        <time>2018-10-12T09:25:50Z</time>
      </trkpt>
      <trkpt lat="46.07668" lon="4.7597">
        <ele>172</ele>
        <time>2018-10-12T09:25:52Z</time>
      </trkpt>
      <trkpt lat="46.07672" lon="4.75967">
        <ele>172</ele>
        <time>2018-10-12T09:25:53Z</time>
      </trkpt>
      <trkpt lat="46.07678" lon="4.75964">
        <ele>172</ele>
        <time>2018-10-12T09:25:54Z</time>
      </trkpt>
      <trkpt lat="46.07682" lon="4.75962">
        <ele>172</ele>
        <time>2018-10-12T09:25:55Z</time>
      </trkpt>
      <trkpt lat="46.07687" lon="4.75957">
        <ele>172</ele>
        <time>2018-10-12T09:25:56Z</time>
      </trkpt>
      <trkpt lat="46.07693" lon="4.75952">
        <ele>172</ele>
        <time>2018-10-12T09:25:57Z</time>
      </trkpt>
      <trkpt lat="46.07698" lon="4.7595">
        <ele>172</ele>
        <time>2018-10-12T09:25:58Z</time>
      </trkpt>
      <trkpt lat="46.07704" lon="4.75946">
        <ele>172</ele>
        <time>2018-10-12T09:25:59Z</time>
      </trkpt>
      <trkpt lat="46.0771" lon="4.75941">
        <ele>172</ele>
        <time>2018-10-12T09:26:00Z</time>
      </trkpt>
      <trkpt lat="46.07715" lon="4.75938">
        <ele>172</ele>
        <time>2018-10-12T09:26:01Z</time>
      </trkpt>
      <trkpt lat="46.0772" lon="4.75934">
        <ele>172</ele>
        <time>2018-10-12T09:26:02Z</time>
      </trkpt>
      <trkpt lat="46.07725" lon="4.75931">
        <ele>173</ele>
        <time>2018-10-12T09:26:03Z</time>
      </trkpt>
      <trkpt lat="46.07731" lon="4.75927">
        <ele>173</ele>
        <time>2018-10-12T09:26:04Z</time>
      </trkpt>
      <trkpt lat="46.07736" lon="4.75921">
        <ele>173</ele>
        <time>2018-10-12T09:26:05Z</time>
      </trkpt>
      <trkpt lat="46.0774" lon="4.75917">
        <ele>173</ele>
        <time>2018-10-12T09:26:06Z</time>
      </trkpt>
      <trkpt lat="46.07745" lon="4.75913">
        <ele>173</ele>
        <time>2018-10-12T09:26:07Z</time>
      </trkpt>
      <trkpt lat="46.0775" lon="4.75908">
        <ele>173</ele>
        <time>2018-10-12T09:26:08Z</time>
      </trkpt>
      <trkpt lat="46.07755" lon="4.75904">
        <ele>173</ele>
        <time>2018-10-12T09:26:09Z</time>
      </trkpt>
      <trkpt lat="46.0776" lon="4.759">
        <ele>173</ele>
        <time>2018-10-12T09:26:10Z</time>
      </trkpt>
      <trkpt lat="46.07765" lon="4.75896">
        <ele>173</ele>
        <time>2018-10-12T09:26:11Z</time>
      </trkpt>
      <trkpt lat="46.07769" lon="4.75894">
        <ele>173</ele>
        <time>2018-10-12T09:26:12Z</time>
      </trkpt>
      <trkpt lat="46.07774" lon="4.7589">
        <ele>172</ele>
        <time>2018-10-12T09:26:13Z</time>
      </trkpt>
      <trkpt lat="46.07779" lon="4.75886">
        <ele>172</ele>
        <time>2018-10-12T09:26:14Z</time>
      </trkpt>
      <trkpt lat="46.07784" lon="4.75881">
        <ele>172</ele>
        <time>2018-10-12T09:26:15Z</time>
      </trkpt>
      <trkpt lat="46.07789" lon="4.75877">
        <ele>172</ele>
        <time>2018-10-12T09:26:16Z</time>
      </trkpt>
      <trkpt lat="46.07794" lon="4.75871">
        <ele>172</ele>
        <time>2018-10-12T09:26:17Z</time>
      </trkpt>
      <trkpt lat="46.07799" lon="4.75864">
        <ele>172</ele>
        <time>2018-10-12T09:26:18Z</time>
      </trkpt>
      <trkpt lat="46.07805" lon="4.7586">
        <ele>172</ele>
        <time>2018-10-12T09:26:19Z</time>
      </trkpt>
      <trkpt lat="46.0781" lon="4.75855">
        <ele>172</ele>
        <time>2018-10-12T09:26:20Z</time>
      </trkpt>
      <trkpt lat="46.07815" lon="4.75851">
        <ele>172</ele>
        <time>2018-10-12T09:26:21Z</time>
      </trkpt>
      <trkpt lat="46.0782" lon="4.75847">
        <ele>173</ele>
        <time>2018-10-12T09:26:22Z</time>
      </trkpt>
      <trkpt lat="46.07825" lon="4.75842">
        <ele>173</ele>
        <time>2018-10-12T09:26:23Z</time>
      </trkpt>
      <trkpt lat="46.0783" lon="4.75836">
        <ele>173</ele>
        <time>2018-10-12T09:26:24Z</time>
      </trkpt>
      <trkpt lat="46.07834" lon="4.75831">
        <ele>173</ele>
        <time>2018-10-12T09:26:25Z</time>
      </trkpt>
      <trkpt lat="46.0784" lon="4.75826">
        <ele>172</ele>
        <time>2018-10-12T09:26:26Z</time>
      </trkpt>
      <trkpt lat="46.07844" lon="4.75822">
        <ele>172</ele>
        <time>2018-10-12T09:26:27Z</time>
      </trkpt>
      <trkpt lat="46.07849" lon="4.75818">
        <ele>172</ele>
        <time>2018-10-12T09:26:28Z</time>
      </trkpt>
      <trkpt lat="46.07854" lon="4.75813">
        <ele>172</ele>
        <time>2018-10-12T09:26:29Z</time>
      </trkpt>
      <trkpt lat="46.07857" lon="4.75806">
        <ele>172</ele>
        <time>2018-10-12T09:26:30Z</time>
      </trkpt>
      <trkpt lat="46.07863" lon="4.75801">
        <ele>172</ele>
        <time>2018-10-12T09:26:31Z</time>
      </trkpt>
      <trkpt lat="46.07869" lon="4.75797">
        <ele>171</ele>
        <time>2018-10-12T09:26:32Z</time>
      </trkpt>
      <trkpt lat="46.07874" lon="4.75793">
        <ele>172</ele>
        <time>2018-10-12T09:26:33Z</time>
      </trkpt>
      <trkpt lat="46.07881" lon="4.7579">
        <ele>172</ele>
        <time>2018-10-12T09:26:34Z</time>
      </trkpt>
      <trkpt lat="46.07887" lon="4.75785">
        <ele>172</ele>
        <time>2018-10-12T09:26:35Z</time>
      </trkpt>
      <trkpt lat="46.07892" lon="4.75778">
        <ele>172</ele>
        <time>2018-10-12T09:26:36Z</time>
      </trkpt>
      <trkpt lat="46.07897" lon="4.75773">
        <ele>172</ele>
        <time>2018-10-12T09:26:37Z</time>
      </trkpt>
      <trkpt lat="46.07901" lon="4.75767">
        <ele>172</ele>
        <time>2018-10-12T09:26:38Z</time>
      </trkpt>
      <trkpt lat="46.07907" lon="4.7576">
        <ele>172</ele>
        <time>2018-10-12T09:26:39Z</time>
      </trkpt>
      <trkpt lat="46.07912" lon="4.75753">
        <ele>173</ele>
        <time>2018-10-12T09:26:40Z</time>
      </trkpt>
      <trkpt lat="46.07915" lon="4.75747">
        <ele>172</ele>
        <time>2018-10-12T09:26:41Z</time>
      </trkpt>
      <trkpt lat="46.07923" lon="4.75742">
        <ele>173</ele>
        <time>2018-10-12T09:26:43Z</time>
      </trkpt>
      <trkpt lat="46.07929" lon="4.75736">
        <ele>173</ele>
        <time>2018-10-12T09:26:44Z</time>
      </trkpt>
      <trkpt lat="46.07933" lon="4.75732">
        <ele>173</ele>
        <time>2018-10-12T09:26:45Z</time>
      </trkpt>
      <trkpt lat="46.07937" lon="4.75729">
        <ele>173</ele>
        <time>2018-10-12T09:26:46Z</time>
      </trkpt>
      <trkpt lat="46.0794" lon="4.75726">
        <ele>173</ele>
        <time>2018-10-12T09:26:48Z</time>
      </trkpt>
      <trkpt lat="46.07948" lon="4.7572">
        <ele>173</ele>
        <time>2018-10-12T09:26:49Z</time>
      </trkpt>
      <trkpt lat="46.07952" lon="4.75717">
        <ele>173</ele>
        <time>2018-10-12T09:26:50Z</time>
      </trkpt>
      <trkpt lat="46.07957" lon="4.75713">
        <ele>173</ele>
        <time>2018-10-12T09:26:51Z</time>
      </trkpt>
      <trkpt lat="46.07962" lon="4.75709">
        <ele>173</ele>
        <time>2018-10-12T09:26:54Z</time>
      </trkpt>
      <trkpt lat="46.07969" lon="4.75704">
        <ele>173</ele>
        <time>2018-10-12T09:26:55Z</time>
      </trkpt>
      <trkpt lat="46.07972" lon="4.757">
        <ele>173</ele>
        <time>2018-10-12T09:26:57Z</time>
      </trkpt>
      <trkpt lat="46.07978" lon="4.75694">
        <ele>174</ele>
        <time>2018-10-12T09:26:58Z</time>
      </trkpt>
      <trkpt lat="46.07985" lon="4.75688">
        <ele>174</ele>
        <time>2018-10-12T09:27:00Z</time>
      </trkpt>
      <trkpt lat="46.07988" lon="4.75685">
        <ele>174</ele>
        <time>2018-10-12T09:27:01Z</time>
      </trkpt>
      <trkpt lat="46.07995" lon="4.75681">
        <ele>175</ele>
        <time>2018-10-12T09:27:03Z</time>
      </trkpt>
      <trkpt lat="46.07999" lon="4.75678">
        <ele>175</ele>
        <time>2018-10-12T09:27:04Z</time>
      </trkpt>
      <trkpt lat="46.08005" lon="4.75671">
        <ele>176</ele>
        <time>2018-10-12T09:27:06Z</time>
      </trkpt>
      <trkpt lat="46.08008" lon="4.75669">
        <ele>176</ele>
        <time>2018-10-12T09:27:07Z</time>
      </trkpt>
      <trkpt lat="46.08016" lon="4.75664">
        <ele>175</ele>
        <time>2018-10-12T09:27:09Z</time>
      </trkpt>
      <trkpt lat="46.08019" lon="4.75663">
        <ele>174</ele>
        <time>2018-10-12T09:27:10Z</time>
      </trkpt>
      <trkpt lat="46.08027" lon="4.75661">
        <ele>174</ele>
        <time>2018-10-12T09:27:13Z</time>
      </trkpt>
      <trkpt lat="46.0803" lon="4.75659">
        <ele>174</ele>
        <time>2018-10-12T09:27:14Z</time>
      </trkpt>
      <trkpt lat="46.08032" lon="4.75658">
        <ele>174</ele>
        <time>2018-10-12T09:27:15Z</time>
      </trkpt>
      <trkpt lat="46.08034" lon="4.75657">
        <ele>174</ele>
        <time>2018-10-12T09:27:16Z</time>
      </trkpt>
      <trkpt lat="46.08035" lon="4.75655">
        <ele>174</ele>
        <time>2018-10-12T09:27:17Z</time>
      </trkpt>
      <trkpt lat="46.08043" lon="4.75649">
        <ele>174</ele>
        <time>2018-10-12T09:27:20Z</time>
      </trkpt>
      <trkpt lat="46.08045" lon="4.75647">
        <ele>174</ele>
        <time>2018-10-12T09:27:21Z</time>
      </trkpt>
      <trkpt lat="46.08051" lon="4.75643">
        <ele>174</ele>
        <time>2018-10-12T09:27:23Z</time>
      </trkpt>
      <trkpt lat="46.08053" lon="4.7564">
        <ele>174</ele>
        <time>2018-10-12T09:27:24Z</time>
      </trkpt>
      <trkpt lat="46.08061" lon="4.75633">
        <ele>174</ele>
        <time>2018-10-12T09:27:28Z</time>
      </trkpt>
      <trkpt lat="46.08062" lon="4.75631">
        <ele>174</ele>
        <time>2018-10-12T09:27:29Z</time>
      </trkpt>
      <trkpt lat="46.08058" lon="4.7562">
        <ele>173</ele>
        <time>2018-10-12T09:27:50Z</time>
      </trkpt>
      <trkpt lat="46.08057" lon="4.75621">
        <ele>173</ele>
        <time>2018-10-12T09:27:51Z</time>
      </trkpt>
      <trkpt lat="46.08048" lon="4.75618">
        <ele>173</ele>
        <time>2018-10-12T09:28:44Z</time>
      </trkpt>
      <trkpt lat="46.08048" lon="4.75618">
        <ele>173</ele>
        <time>2018-10-12T09:28:45Z</time>
      </trkpt>
      <trkpt lat="46.08042" lon="4.75608">
        <ele>172</ele>
        <time>2018-10-12T09:32:31Z</time>
      </trkpt>
      <trkpt lat="46.08042" lon="4.75608">
        <ele>172</ele>
        <time>2018-10-12T09:32:32Z</time>
      </trkpt>
      <trkpt lat="46.08043" lon="4.75612">
        <ele>173</ele>
        <time>2018-10-12T09:32:55Z</time>
      </trkpt>
      <trkpt lat="46.08043" lon="4.75612">
        <ele>173</ele>
        <time>2018-10-12T09:32:56Z</time>
      </trkpt>
      <trkpt lat="46.08044" lon="4.75612">
        <ele>173</ele>
        <time>2018-10-12T09:32:57Z</time>
      </trkpt>
      <trkpt lat="46.08048" lon="4.75615">
        <ele>173</ele>
        <time>2018-10-12T09:33:21Z</time>
      </trkpt>
      <trkpt lat="46.08048" lon="4.75615">
        <ele>173</ele>
        <time>2018-10-12T09:33:22Z</time>
      </trkpt>
      <trkpt lat="46.08047" lon="4.75611">
        <ele>173</ele>
        <time>2018-10-12T09:40:04Z</time>
      </trkpt>
      <trkpt lat="46.08047" lon="4.75611">
        <ele>173</ele>
        <time>2018-10-12T09:40:05Z</time>
      </trkpt>
      <trkpt lat="46.08045" lon="4.75616">
        <ele>173</ele>
        <time>2018-10-12T09:41:24Z</time>
      </trkpt>
      <trkpt lat="46.08045" lon="4.75616">
        <ele>173</ele>
        <time>2018-10-12T09:41:25Z</time>
      </trkpt>
      <trkpt lat="46.08046" lon="4.75616">
        <ele>173</ele>
        <time>2018-10-12T09:41:31Z</time>
      </trkpt>
      <trkpt lat="46.08046" lon="4.75616">
        <ele>173</ele>
        <time>2018-10-12T09:41:32Z</time>
      </trkpt>
      <trkpt lat="46.08054" lon="4.75621">
        <ele>173</ele>
        <time>2018-10-12T09:42:51Z</time>
      </trkpt>
      <trkpt lat="46.08055" lon="4.75621">
        <ele>173</ele>
        <time>2018-10-12T09:42:52Z</time>
      </trkpt>
      <trkpt lat="46.08063" lon="4.75619">
        <ele>173</ele>
        <time>2018-10-12T09:42:57Z</time>
      </trkpt>
      <trkpt lat="46.08065" lon="4.75618">
        <ele>173</ele>
        <time>2018-10-12T09:42:58Z</time>
      </trkpt>
      <trkpt lat="46.08073" lon="4.75615">
        <ele>173</ele>
        <time>2018-10-12T09:43:02Z</time>
      </trkpt>
      <trkpt lat="46.08075" lon="4.75614">
        <ele>173</ele>
        <time>2018-10-12T09:43:03Z</time>
      </trkpt>
      <trkpt lat="46.08081" lon="4.75608">
        <ele>173</ele>
        <time>2018-10-12T09:43:07Z</time>
      </trkpt>
      <trkpt lat="46.08083" lon="4.75606">
        <ele>174</ele>
        <time>2018-10-12T09:43:08Z</time>
      </trkpt>
      <trkpt lat="46.08088" lon="4.75597">
        <ele>175</ele>
        <time>2018-10-12T09:43:16Z</time>
      </trkpt>
      <trkpt lat="46.08089" lon="4.75596">
        <ele>175</ele>
        <time>2018-10-12T09:43:17Z</time>
      </trkpt>
      <trkpt lat="46.0809" lon="4.75584">
        <ele>174</ele>
        <time>2018-10-12T09:43:24Z</time>
      </trkpt>
      <trkpt lat="46.0809" lon="4.75582">
        <ele>174</ele>
        <time>2018-10-12T09:43:25Z</time>
      </trkpt>
      <trkpt lat="46.08086" lon="4.75573">
        <ele>173</ele>
        <time>2018-10-12T09:43:28Z</time>
      </trkpt>
      <trkpt lat="46.08085" lon="4.7557">
        <ele>173</ele>
        <time>2018-10-12T09:43:29Z</time>
      </trkpt>
      <trkpt lat="46.08081" lon="4.75561">
        <ele>170</ele>
        <time>2018-10-12T09:43:31Z</time>
      </trkpt>
      <trkpt lat="46.0808" lon="4.75557">
        <ele>170</ele>
        <time>2018-10-12T09:43:32Z</time>
      </trkpt>
      <trkpt lat="46.08076" lon="4.75547">
        <ele>169</ele>
        <time>2018-10-12T09:43:35Z</time>
      </trkpt>
      <trkpt lat="46.08074" lon="4.75543">
        <ele>169</ele>
        <time>2018-10-12T09:43:36Z</time>
      </trkpt>
      <trkpt lat="46.08069" lon="4.75534">
        <ele>168</ele>
        <time>2018-10-12T09:43:39Z</time>
      </trkpt>
      <trkpt lat="46.08068" lon="4.7553">
        <ele>168</ele>
        <time>2018-10-12T09:43:40Z</time>
      </trkpt>
      <trkpt lat="46.08063" lon="4.75521">
        <ele>168</ele>
        <time>2018-10-12T09:43:41Z</time>
      </trkpt>
      <trkpt lat="46.08061" lon="4.75516">
        <ele>167</ele>
        <time>2018-10-12T09:43:42Z</time>
      </trkpt>
      <trkpt lat="46.08057" lon="4.75507">
        <ele>167</ele>
        <time>2018-10-12T09:43:44Z</time>
      </trkpt>
      <trkpt lat="46.08055" lon="4.75502">
        <ele>167</ele>
        <time>2018-10-12T09:43:45Z</time>
      </trkpt>
      <trkpt lat="46.08051" lon="4.75493">
        <ele>166</ele>
        <time>2018-10-12T09:43:47Z</time>
      </trkpt>
      <trkpt lat="46.0805" lon="4.75491">
        <ele>166</ele>
        <time>2018-10-12T09:43:48Z</time>
      </trkpt>
      <trkpt lat="46.08046" lon="4.75482">
        <ele>166</ele>
        <time>2018-10-12T09:43:51Z</time>
      </trkpt>
      <trkpt lat="46.08044" lon="4.75478">
        <ele>166</ele>
        <time>2018-10-12T09:43:52Z</time>
      </trkpt>
      <trkpt lat="46.08042" lon="4.75471">
        <ele>166</ele>
        <time>2018-10-12T09:43:54Z</time>
      </trkpt>
      <trkpt lat="46.08038" lon="4.75462">
        <ele>166</ele>
        <time>2018-10-12T09:43:55Z</time>
      </trkpt>
      <trkpt lat="46.08034" lon="4.75453">
        <ele>166</ele>
        <time>2018-10-12T09:43:57Z</time>
      </trkpt>
      <trkpt lat="46.08032" lon="4.75448">
        <ele>166</ele>
        <time>2018-10-12T09:43:58Z</time>
      </trkpt>
      <trkpt lat="46.08027" lon="4.75438">
        <ele>166</ele>
        <time>2018-10-12T09:44:00Z</time>
      </trkpt>
      <trkpt lat="46.08025" lon="4.75433">
        <ele>166</ele>
        <time>2018-10-12T09:44:01Z</time>
      </trkpt>
      <trkpt lat="46.08021" lon="4.75422">
        <ele>166</ele>
        <time>2018-10-12T09:44:03Z</time>
      </trkpt>
      <trkpt lat="46.08018" lon="4.75417">
        <ele>166</ele>
        <time>2018-10-12T09:44:04Z</time>
      </trkpt>
      <trkpt lat="46.08016" lon="4.75411">
        <ele>166</ele>
        <time>2018-10-12T09:44:05Z</time>
      </trkpt>
      <trkpt lat="46.08013" lon="4.75404">
        <ele>166</ele>
        <time>2018-10-12T09:44:06Z</time>
      </trkpt>
      <trkpt lat="46.0801" lon="4.75397">
        <ele>167</ele>
        <time>2018-10-12T09:44:07Z</time>
      </trkpt>
      <trkpt lat="46.08007" lon="4.75391">
        <ele>167</ele>
        <time>2018-10-12T09:44:08Z</time>
      </trkpt>
      <trkpt lat="46.08004" lon="4.75384">
        <ele>167</ele>
        <time>2018-10-12T09:44:09Z</time>
      </trkpt>
      <trkpt lat="46.08" lon="4.75377">
        <ele>167</ele>
        <time>2018-10-12T09:44:10Z</time>
      </trkpt>
      <trkpt lat="46.07996" lon="4.75369">
        <ele>168</ele>
        <time>2018-10-12T09:44:11Z</time>
      </trkpt>
      <trkpt lat="46.07993" lon="4.75362">
        <ele>168</ele>
        <time>2018-10-12T09:44:12Z</time>
      </trkpt>
      <trkpt lat="46.07988" lon="4.75354">
        <ele>168</ele>
        <time>2018-10-12T09:44:13Z</time>
      </trkpt>
      <trkpt lat="46.07985" lon="4.75346">
        <ele>168</ele>
        <time>2018-10-12T09:44:14Z</time>
      </trkpt>
      <trkpt lat="46.07982" lon="4.75338">
        <ele>168</ele>
        <time>2018-10-12T09:44:15Z</time>
      </trkpt>
      <trkpt lat="46.07978" lon="4.7533">
        <ele>169</ele>
        <time>2018-10-12T09:44:16Z</time>
      </trkpt>
      <trkpt lat="46.07975" lon="4.75323">
        <ele>169</ele>
        <time>2018-10-12T09:44:17Z</time>
      </trkpt>
      <trkpt lat="46.07972" lon="4.75315">
        <ele>169</ele>
        <time>2018-10-12T09:44:18Z</time>
      </trkpt>
      <trkpt lat="46.07968" lon="4.75308">
        <ele>169</ele>
        <time>2018-10-12T09:44:19Z</time>
      </trkpt>
      <trkpt lat="46.07965" lon="4.75301">
        <ele>169</ele>
        <time>2018-10-12T09:44:20Z</time>
      </trkpt>
      <trkpt lat="46.07962" lon="4.75294">
        <ele>169</ele>
        <time>2018-10-12T09:44:21Z</time>
      </trkpt>
      <trkpt lat="46.07958" lon="4.75287">
        <ele>169</ele>
        <time>2018-10-12T09:44:22Z</time>
      </trkpt>
      <trkpt lat="46.07956" lon="4.7528">
        <ele>169</ele>
        <time>2018-10-12T09:44:23Z</time>
      </trkpt>
      <trkpt lat="46.07953" lon="4.75274">
        <ele>169</ele>
        <time>2018-10-12T09:44:24Z</time>
      </trkpt>
      <trkpt lat="46.07951" lon="4.75268">
        <ele>169</ele>
        <time>2018-10-12T09:44:25Z</time>
      </trkpt>
      <trkpt lat="46.07949" lon="4.75262">
        <ele>169</ele>
        <time>2018-10-12T09:44:26Z</time>
      </trkpt>
      <trkpt lat="46.07946" lon="4.75256">
        <ele>170</ele>
        <time>2018-10-12T09:44:27Z</time>
      </trkpt>
      <trkpt lat="46.07944" lon="4.7525">
        <ele>170</ele>
        <time>2018-10-12T09:44:28Z</time>
      </trkpt>
      <trkpt lat="46.07941" lon="4.75244">
        <ele>170</ele>
        <time>2018-10-12T09:44:29Z</time>
      </trkpt>
      <trkpt lat="46.07938" lon="4.75238">
        <ele>170</ele>
        <time>2018-10-12T09:44:30Z</time>
      </trkpt>
      <trkpt lat="46.07934" lon="4.75231">
        <ele>171</ele>
        <time>2018-10-12T09:44:31Z</time>
      </trkpt>
      <trkpt lat="46.07931" lon="4.75224">
        <ele>171</ele>
        <time>2018-10-12T09:44:32Z</time>
      </trkpt>
      <trkpt lat="46.07928" lon="4.75218">
        <ele>171</ele>
        <time>2018-10-12T09:44:33Z</time>
      </trkpt>
      <trkpt lat="46.07924" lon="4.75211">
        <ele>171</ele>
        <time>2018-10-12T09:44:34Z</time>
      </trkpt>
      <trkpt lat="46.07921" lon="4.75205">
        <ele>171</ele>
        <time>2018-10-12T09:44:35Z</time>
      </trkpt>
      <trkpt lat="46.07917" lon="4.75199">
        <ele>171</ele>
        <time>2018-10-12T09:44:36Z</time>
      </trkpt>
      <trkpt lat="46.07915" lon="4.75192">
        <ele>171</ele>
        <time>2018-10-12T09:44:37Z</time>
      </trkpt>
      <trkpt lat="46.07912" lon="4.75186">
        <ele>171</ele>
        <time>2018-10-12T09:44:38Z</time>
      </trkpt>
      <trkpt lat="46.07907" lon="4.75175">
        <ele>172</ele>
        <time>2018-10-12T09:44:40Z</time>
      </trkpt>
      <trkpt lat="46.07904" lon="4.7517">
        <ele>172</ele>
        <time>2018-10-12T09:44:41Z</time>
      </trkpt>
      <trkpt lat="46.07902" lon="4.75165">
        <ele>171</ele>
        <time>2018-10-12T09:44:42Z</time>
      </trkpt>
      <trkpt lat="46.07899" lon="4.75159">
        <ele>171</ele>
        <time>2018-10-12T09:44:43Z</time>
      </trkpt>
      <trkpt lat="46.07896" lon="4.75155">
        <ele>171</ele>
        <time>2018-10-12T09:44:44Z</time>
      </trkpt>
      <trkpt lat="46.07892" lon="4.7515">
        <ele>171</ele>
        <time>2018-10-12T09:44:45Z</time>
      </trkpt>
      <trkpt lat="46.07888" lon="4.75145">
        <ele>171</ele>
        <time>2018-10-12T09:44:46Z</time>
      </trkpt>
      <trkpt lat="46.07886" lon="4.75139">
        <ele>171</ele>
        <time>2018-10-12T09:44:47Z</time>
      </trkpt>
      <trkpt lat="46.07882" lon="4.75134">
        <ele>171</ele>
        <time>2018-10-12T09:44:48Z</time>
      </trkpt>
      <trkpt lat="46.07877" lon="4.75128">
        <ele>171</ele>
        <time>2018-10-12T09:44:49Z</time>
      </trkpt>
      <trkpt lat="46.07873" lon="4.75122">
        <ele>171</ele>
        <time>2018-10-12T09:44:50Z</time>
      </trkpt>
      <trkpt lat="46.07869" lon="4.75114">
        <ele>171</ele>
        <time>2018-10-12T09:44:51Z</time>
      </trkpt>
      <trkpt lat="46.07866" lon="4.75108">
        <ele>171</ele>
        <time>2018-10-12T09:44:52Z</time>
      </trkpt>
      <trkpt lat="46.07863" lon="4.75102">
        <ele>171</ele>
        <time>2018-10-12T09:44:53Z</time>
      </trkpt>
      <trkpt lat="46.07859" lon="4.75096">
        <ele>171</ele>
        <time>2018-10-12T09:44:54Z</time>
      </trkpt>
      <trkpt lat="46.07855" lon="4.75091">
        <ele>171</ele>
        <time>2018-10-12T09:44:55Z</time>
      </trkpt>
      <trkpt lat="46.07852" lon="4.75086">
        <ele>171</ele>
        <time>2018-10-12T09:44:56Z</time>
      </trkpt>
      <trkpt lat="46.07848" lon="4.75082">
        <ele>171</ele>
        <time>2018-10-12T09:44:57Z</time>
      </trkpt>
      <trkpt lat="46.07845" lon="4.75077">
        <ele>171</ele>
        <time>2018-10-12T09:44:58Z</time>
      </trkpt>
      <trkpt lat="46.07842" lon="4.75072">
        <ele>171</ele>
        <time>2018-10-12T09:44:59Z</time>
      </trkpt>
      <trkpt lat="46.07839" lon="4.75068">
        <ele>171</ele>
        <time>2018-10-12T09:45:00Z</time>
      </trkpt>
      <trkpt lat="46.07836" lon="4.75062">
        <ele>171</ele>
        <time>2018-10-12T09:45:01Z</time>
      </trkpt>
      <trkpt lat="46.07832" lon="4.75058">
        <ele>171</ele>
        <time>2018-10-12T09:45:02Z</time>
      </trkpt>
      <trkpt lat="46.07829" lon="4.75054">
        <ele>171</ele>
        <time>2018-10-12T09:45:03Z</time>
      </trkpt>
      <trkpt lat="46.07824" lon="4.75049">
        <ele>171</ele>
        <time>2018-10-12T09:45:04Z</time>
      </trkpt>
      <trkpt lat="46.0782" lon="4.75044">
        <ele>171</ele>
        <time>2018-10-12T09:45:05Z</time>
      </trkpt>
      <trkpt lat="46.07816" lon="4.7504">
        <ele>171</ele>
        <time>2018-10-12T09:45:06Z</time>
      </trkpt>
      <trkpt lat="46.07812" lon="4.75036">
        <ele>171</ele>
        <time>2018-10-12T09:45:07Z</time>
      </trkpt>
      <trkpt lat="46.07804" lon="4.7503">
        <ele>171</ele>
        <time>2018-10-12T09:45:09Z</time>
      </trkpt>
      <trkpt lat="46.07801" lon="4.75028">
        <ele>171</ele>
        <time>2018-10-12T09:45:10Z</time>
      </trkpt>
      <trkpt lat="46.07793" lon="4.75022">
        <ele>171</ele>
        <time>2018-10-12T09:45:12Z</time>
      </trkpt>
      <trkpt lat="46.07788" lon="4.75017">
        <ele>172</ele>
        <time>2018-10-12T09:45:13Z</time>
      </trkpt>
      <trkpt lat="46.07783" lon="4.75014">
        <ele>172</ele>
        <time>2018-10-12T09:45:14Z</time>
      </trkpt>
      <trkpt lat="46.07778" lon="4.75009">
        <ele>172</ele>
        <time>2018-10-12T09:45:15Z</time>
      </trkpt>
      <trkpt lat="46.07773" lon="4.75005">
        <ele>172</ele>
        <time>2018-10-12T09:45:16Z</time>
      </trkpt>
      <trkpt lat="46.07767" lon="4.75001">
        <ele>172</ele>
        <time>2018-10-12T09:45:17Z</time>
      </trkpt>
      <trkpt lat="46.07761" lon="4.74997">
        <ele>172</ele>
        <time>2018-10-12T09:45:18Z</time>
      </trkpt>
      <trkpt lat="46.07757" lon="4.74993">
        <ele>172</ele>
        <time>2018-10-12T09:45:19Z</time>
      </trkpt>
      <trkpt lat="46.07751" lon="4.7499">
        <ele>172</ele>
        <time>2018-10-12T09:45:20Z</time>
      </trkpt>
      <trkpt lat="46.07747" lon="4.74986">
        <ele>173</ele>
        <time>2018-10-12T09:45:21Z</time>
      </trkpt>
      <trkpt lat="46.07743" lon="4.74981">
        <ele>173</ele>
        <time>2018-10-12T09:45:22Z</time>
      </trkpt>
      <trkpt lat="46.07739" lon="4.74977">
        <ele>172</ele>
        <time>2018-10-12T09:45:23Z</time>
      </trkpt>
      <trkpt lat="46.07734" lon="4.74974">
        <ele>172</ele>
        <time>2018-10-12T09:45:24Z</time>
      </trkpt>
      <trkpt lat="46.0773" lon="4.74971">
        <ele>172</ele>
        <time>2018-10-12T09:45:25Z</time>
      </trkpt>
      <trkpt lat="46.07725" lon="4.74968">
        <ele>172</ele>
        <time>2018-10-12T09:45:26Z</time>
      </trkpt>
      <trkpt lat="46.07721" lon="4.74964">
        <ele>172</ele>
        <time>2018-10-12T09:45:27Z</time>
      </trkpt>
      <trkpt lat="46.07716" lon="4.74959">
        <ele>172</ele>
        <time>2018-10-12T09:45:28Z</time>
      </trkpt>
      <trkpt lat="46.07712" lon="4.74956">
        <ele>172</ele>
        <time>2018-10-12T09:45:29Z</time>
      </trkpt>
      <trkpt lat="46.07707" lon="4.74951">
        <ele>172</ele>
        <time>2018-10-12T09:45:30Z</time>
      </trkpt>
      <trkpt lat="46.07702" lon="4.74947">
        <ele>172</ele>
        <time>2018-10-12T09:45:31Z</time>
      </trkpt>
      <trkpt lat="46.07696" lon="4.74943">
        <ele>172</ele>
        <time>2018-10-12T09:45:32Z</time>
      </trkpt>
      <trkpt lat="46.07691" lon="4.74939">
        <ele>172</ele>
        <time>2018-10-12T09:45:33Z</time>
      </trkpt>
      <trkpt lat="46.07686" lon="4.74935">
        <ele>172</ele>
        <time>2018-10-12T09:45:34Z</time>
      </trkpt>
      <trkpt lat="46.07681" lon="4.74931">
        <ele>172</ele>
        <time>2018-10-12T09:45:35Z</time>
      </trkpt>
      <trkpt lat="46.07676" lon="4.74928">
        <ele>172</ele>
        <time>2018-10-12T09:45:36Z</time>
      </trkpt>
      <trkpt lat="46.07672" lon="4.74924">
        <ele>172</ele>
        <time>2018-10-12T09:45:37Z</time>
      </trkpt>
      <trkpt lat="46.07668" lon="4.7492">
        <ele>172</ele>
        <time>2018-10-12T09:45:38Z</time>
      </trkpt>
      <trkpt lat="46.07664" lon="4.74915">
        <ele>172</ele>
        <time>2018-10-12T09:45:39Z</time>
      </trkpt>
      <trkpt lat="46.07659" lon="4.74912">
        <ele>172</ele>
        <time>2018-10-12T09:45:40Z</time>
      </trkpt>
      <trkpt lat="46.07654" lon="4.74909">
        <ele>172</ele>
        <time>2018-10-12T09:45:41Z</time>
      </trkpt>
      <trkpt lat="46.07649" lon="4.74906">
        <ele>171</ele>
        <time>2018-10-12T09:45:42Z</time>
      </trkpt>
      <trkpt lat="46.07644" lon="4.74903">
        <ele>171</ele>
        <time>2018-10-12T09:45:43Z</time>
      </trkpt>
      <trkpt lat="46.07639" lon="4.749">
        <ele>171</ele>
        <time>2018-10-12T09:45:44Z</time>
      </trkpt>
      <trkpt lat="46.07634" lon="4.74895">
        <ele>171</ele>
        <time>2018-10-12T09:45:45Z</time>
      </trkpt>
      <trkpt lat="46.0763" lon="4.74891">
        <ele>171</ele>
        <time>2018-10-12T09:45:46Z</time>
      </trkpt>
      <trkpt lat="46.07626" lon="4.74885">
        <ele>171</ele>
        <time>2018-10-12T09:45:47Z</time>
      </trkpt>
      <trkpt lat="46.0762" lon="4.74881">
        <ele>171</ele>
        <time>2018-10-12T09:45:48Z</time>
      </trkpt>
      <trkpt lat="46.07615" lon="4.74878">
        <ele>171</ele>
        <time>2018-10-12T09:45:49Z</time>
      </trkpt>
      <trkpt lat="46.0761" lon="4.74874">
        <ele>171</ele>
        <time>2018-10-12T09:45:50Z</time>
      </trkpt>
      <trkpt lat="46.07605" lon="4.7487">
        <ele>171</ele>
        <time>2018-10-12T09:45:51Z</time>
      </trkpt>
      <trkpt lat="46.07598" lon="4.74865">
        <ele>171</ele>
        <time>2018-10-12T09:45:52Z</time>
      </trkpt>
      <trkpt lat="46.07594" lon="4.74861">
        <ele>171</ele>
        <time>2018-10-12T09:45:53Z</time>
      </trkpt>
      <trkpt lat="46.07589" lon="4.74857">
        <ele>171</ele>
        <time>2018-10-12T09:45:54Z</time>
      </trkpt>
      <trkpt lat="46.07583" lon="4.74852">
        <ele>171</ele>
        <time>2018-10-12T09:45:55Z</time>
      </trkpt>
      <trkpt lat="46.07578" lon="4.74848">
        <ele>171</ele>
        <time>2018-10-12T09:45:56Z</time>
      </trkpt>
      <trkpt lat="46.07574" lon="4.74844">
        <ele>171</ele>
        <time>2018-10-12T09:45:57Z</time>
      </trkpt>
      <trkpt lat="46.07569" lon="4.7484">
        <ele>171</ele>
        <time>2018-10-12T09:45:58Z</time>
      </trkpt>
      <trkpt lat="46.07564" lon="4.74836">
        <ele>171</ele>
        <time>2018-10-12T09:45:59Z</time>
      </trkpt>
      <trkpt lat="46.07558" lon="4.74829">
        <ele>172</ele>
        <time>2018-10-12T09:46:01Z</time>
      </trkpt>
      <trkpt lat="46.07554" lon="4.74825">
        <ele>172</ele>
        <time>2018-10-12T09:46:02Z</time>
      </trkpt>
      <trkpt lat="46.07546" lon="4.74819">
        <ele>172</ele>
        <time>2018-10-12T09:46:04Z</time>
      </trkpt>
      <trkpt lat="46.07541" lon="4.74816">
        <ele>172</ele>
        <time>2018-10-12T09:46:05Z</time>
      </trkpt>
      <trkpt lat="46.07537" lon="4.74812">
        <ele>172</ele>
        <time>2018-10-12T09:46:06Z</time>
      </trkpt>
      <trkpt lat="46.07533" lon="4.74808">
        <ele>172</ele>
        <time>2018-10-12T09:46:07Z</time>
      </trkpt>
      <trkpt lat="46.07528" lon="4.74804">
        <ele>172</ele>
        <time>2018-10-12T09:46:08Z</time>
      </trkpt>
      <trkpt lat="46.07523" lon="4.74801">
        <ele>172</ele>
        <time>2018-10-12T09:46:09Z</time>
      </trkpt>
      <trkpt lat="46.07518" lon="4.74797">
        <ele>172</ele>
        <time>2018-10-12T09:46:10Z</time>
      </trkpt>
      <trkpt lat="46.07514" lon="4.74794">
        <ele>172</ele>
        <time>2018-10-12T09:46:11Z</time>
      </trkpt>
      <trkpt lat="46.07509" lon="4.74792">
        <ele>172</ele>
        <time>2018-10-12T09:46:12Z</time>
      </trkpt>
      <trkpt lat="46.07504" lon="4.74787">
        <ele>172</ele>
        <time>2018-10-12T09:46:13Z</time>
      </trkpt>
      <trkpt lat="46.07499" lon="4.74785">
        <ele>173</ele>
        <time>2018-10-12T09:46:14Z</time>
      </trkpt>
      <trkpt lat="46.07494" lon="4.74781">
        <ele>173</ele>
        <time>2018-10-12T09:46:15Z</time>
      </trkpt>
      <trkpt lat="46.07489" lon="4.74776">
        <ele>173</ele>
        <time>2018-10-12T09:46:16Z</time>
      </trkpt>
      <trkpt lat="46.07486" lon="4.74772">
        <ele>173</ele>
        <time>2018-10-12T09:46:17Z</time>
      </trkpt>
      <trkpt lat="46.07482" lon="4.74768">
        <ele>173</ele>
        <time>2018-10-12T09:46:18Z</time>
      </trkpt>
      <trkpt lat="46.07477" lon="4.74763">
        <ele>173</ele>
        <time>2018-10-12T09:46:19Z</time>
      </trkpt>
      <trkpt lat="46.07473" lon="4.74758">
        <ele>173</ele>
        <time>2018-10-12T09:46:20Z</time>
      </trkpt>
      <trkpt lat="46.07468" lon="4.74753">
        <ele>173</ele>
        <time>2018-10-12T09:46:21Z</time>
      </trkpt>
      <trkpt lat="46.07464" lon="4.74747">
        <ele>173</ele>
        <time>2018-10-12T09:46:22Z</time>
      </trkpt>
      <trkpt lat="46.0746" lon="4.74741">
        <ele>173</ele>
        <time>2018-10-12T09:46:23Z</time>
      </trkpt>
      <trkpt lat="46.07457" lon="4.74735">
        <ele>173</ele>
        <time>2018-10-12T09:46:24Z</time>
      </trkpt>
      <trkpt lat="46.07454" lon="4.74728">
        <ele>173</ele>
        <time>2018-10-12T09:46:25Z</time>
      </trkpt>
      <trkpt lat="46.0745" lon="4.74722">
        <ele>173</ele>
        <time>2018-10-12T09:46:26Z</time>
      </trkpt>
      <trkpt lat="46.07447" lon="4.74716">
        <ele>173</ele>
        <time>2018-10-12T09:46:27Z</time>
      </trkpt>
      <trkpt lat="46.07444" lon="4.7471">
        <ele>173</ele>
        <time>2018-10-12T09:46:28Z</time>
      </trkpt>
      <trkpt lat="46.0744" lon="4.74704">
        <ele>173</ele>
        <time>2018-10-12T09:46:29Z</time>
      </trkpt>
      <trkpt lat="46.07436" lon="4.74697">
        <ele>173</ele>
        <time>2018-10-12T09:46:30Z</time>
      </trkpt>
      <trkpt lat="46.07433" lon="4.74689">
        <ele>173</ele>
        <time>2018-10-12T09:46:31Z</time>
      </trkpt>
      <trkpt lat="46.0743" lon="4.74683">
        <ele>172</ele>
        <time>2018-10-12T09:46:32Z</time>
      </trkpt>
      <trkpt lat="46.07426" lon="4.74676">
        <ele>172</ele>
        <time>2018-10-12T09:46:33Z</time>
      </trkpt>
      <trkpt lat="46.07423" lon="4.74671">
        <ele>172</ele>
        <time>2018-10-12T09:46:34Z</time>
      </trkpt>
      <trkpt lat="46.0742" lon="4.74664">
        <ele>172</ele>
        <time>2018-10-12T09:46:35Z</time>
      </trkpt>
      <trkpt lat="46.07417" lon="4.74659">
        <ele>172</ele>
        <time>2018-10-12T09:46:36Z</time>
      </trkpt>
      <trkpt lat="46.07413" lon="4.74653">
        <ele>173</ele>
        <time>2018-10-12T09:46:37Z</time>
      </trkpt>
      <trkpt lat="46.07409" lon="4.74647">
        <ele>173</ele>
        <time>2018-10-12T09:46:38Z</time>
      </trkpt>
      <trkpt lat="46.07406" lon="4.74641">
        <ele>173</ele>
        <time>2018-10-12T09:46:39Z</time>
      </trkpt>
      <trkpt lat="46.07403" lon="4.74633">
        <ele>174</ele>
        <time>2018-10-12T09:46:40Z</time>
      </trkpt>
      <trkpt lat="46.07399" lon="4.74628">
        <ele>174</ele>
        <time>2018-10-12T09:46:41Z</time>
      </trkpt>
      <trkpt lat="46.07396" lon="4.74621">
        <ele>174</ele>
        <time>2018-10-12T09:46:42Z</time>
      </trkpt>
      <trkpt lat="46.07393" lon="4.74615">
        <ele>174</ele>
        <time>2018-10-12T09:46:43Z</time>
      </trkpt>
      <trkpt lat="46.07389" lon="4.74608">
        <ele>174</ele>
        <time>2018-10-12T09:46:44Z</time>
      </trkpt>
      <trkpt lat="46.07386" lon="4.74602">
        <ele>174</ele>
        <time>2018-10-12T09:46:45Z</time>
      </trkpt>
      <trkpt lat="46.07383" lon="4.74596">
        <ele>174</ele>
        <time>2018-10-12T09:46:46Z</time>
      </trkpt>
      <trkpt lat="46.0738" lon="4.74589">
        <ele>174</ele>
        <time>2018-10-12T09:46:47Z</time>
      </trkpt>
      <trkpt lat="46.07377" lon="4.74582">
        <ele>175</ele>
        <time>2018-10-12T09:46:48Z</time>
      </trkpt>
      <trkpt lat="46.07373" lon="4.74575">
        <ele>175</ele>
        <time>2018-10-12T09:46:49Z</time>
      </trkpt>
      <trkpt lat="46.07369" lon="4.74568">
        <ele>175</ele>
        <time>2018-10-12T09:46:50Z</time>
      </trkpt>
      <trkpt lat="46.07366" lon="4.74562">
        <ele>175</ele>
        <time>2018-10-12T09:46:51Z</time>
      </trkpt>
      <trkpt lat="46.07362" lon="4.74556">
        <ele>175</ele>
        <time>2018-10-12T09:46:52Z</time>
      </trkpt>
      <trkpt lat="46.07359" lon="4.74549">
        <ele>175</ele>
        <time>2018-10-12T09:46:53Z</time>
      </trkpt>
      <trkpt lat="46.07354" lon="4.74544">
        <ele>175</ele>
        <time>2018-10-12T09:46:54Z</time>
      </trkpt>
      <trkpt lat="46.0735" lon="4.7454">
        <ele>175</ele>
        <time>2018-10-12T09:46:55Z</time>
      </trkpt>
      <trkpt lat="46.07345" lon="4.7453">
        <ele>175</ele>
        <time>2018-10-12T09:46:57Z</time>
      </trkpt>
      <trkpt lat="46.07342" lon="4.74525">
        <ele>175</ele>
        <time>2018-10-12T09:46:58Z</time>
      </trkpt>
      <trkpt lat="46.07336" lon="4.74515">
        <ele>175</ele>
        <time>2018-10-12T09:47:00Z</time>
      </trkpt>
      <trkpt lat="46.07333" lon="4.74509">
        <ele>176</ele>
        <time>2018-10-12T09:47:01Z</time>
      </trkpt>
      <trkpt lat="46.0733" lon="4.74498">
        <ele>176</ele>
        <time>2018-10-12T09:47:03Z</time>
      </trkpt>
      <trkpt lat="46.07328" lon="4.74493">
        <ele>176</ele>
        <time>2018-10-12T09:47:04Z</time>
      </trkpt>
      <trkpt lat="46.07324" lon="4.74488">
        <ele>175</ele>
        <time>2018-10-12T09:47:05Z</time>
      </trkpt>
      <trkpt lat="46.07321" lon="4.74481">
        <ele>175</ele>
        <time>2018-10-12T09:47:06Z</time>
      </trkpt>
      <trkpt lat="46.0732" lon="4.74474">
        <ele>175</ele>
        <time>2018-10-12T09:47:07Z</time>
      </trkpt>
      <trkpt lat="46.07317" lon="4.74468">
        <ele>175</ele>
        <time>2018-10-12T09:47:08Z</time>
      </trkpt>
      <trkpt lat="46.07316" lon="4.74462">
        <ele>175</ele>
        <time>2018-10-12T09:47:09Z</time>
      </trkpt>
      <trkpt lat="46.07314" lon="4.74455">
        <ele>175</ele>
        <time>2018-10-12T09:47:10Z</time>
      </trkpt>
      <trkpt lat="46.07312" lon="4.74448">
        <ele>175</ele>
        <time>2018-10-12T09:47:11Z</time>
      </trkpt>
      <trkpt lat="46.07311" lon="4.74442">
        <ele>175</ele>
        <time>2018-10-12T09:47:12Z</time>
      </trkpt>
      <trkpt lat="46.0731" lon="4.74435">
        <ele>175</ele>
        <time>2018-10-12T09:47:13Z</time>
      </trkpt>
      <trkpt lat="46.07309" lon="4.74429">
        <ele>175</ele>
        <time>2018-10-12T09:47:14Z</time>
      </trkpt>
      <trkpt lat="46.07307" lon="4.74421">
        <ele>175</ele>
        <time>2018-10-12T09:47:15Z</time>
      </trkpt>
      <trkpt lat="46.07306" lon="4.74413">
        <ele>174</ele>
        <time>2018-10-12T09:47:16Z</time>
      </trkpt>
      <trkpt lat="46.07305" lon="4.74406">
        <ele>174</ele>
        <time>2018-10-12T09:47:17Z</time>
      </trkpt>
      <trkpt lat="46.07304" lon="4.74399">
        <ele>174</ele>
        <time>2018-10-12T09:47:18Z</time>
      </trkpt>
      <trkpt lat="46.07303" lon="4.74391">
        <ele>174</ele>
        <time>2018-10-12T09:47:19Z</time>
      </trkpt>
      <trkpt lat="46.07302" lon="4.74383">
        <ele>174</ele>
        <time>2018-10-12T09:47:20Z</time>
      </trkpt>
      <trkpt lat="46.07301" lon="4.74376">
        <ele>174</ele>
        <time>2018-10-12T09:47:21Z</time>
      </trkpt>
      <trkpt lat="46.073" lon="4.74368">
        <ele>174</ele>
        <time>2018-10-12T09:47:22Z</time>
      </trkpt>
      <trkpt lat="46.07299" lon="4.74361">
        <ele>174</ele>
        <time>2018-10-12T09:47:23Z</time>
      </trkpt>
      <trkpt lat="46.07298" lon="4.74353">
        <ele>174</ele>
        <time>2018-10-12T09:47:24Z</time>
      </trkpt>
      <trkpt lat="46.07297" lon="4.74345">
        <ele>174</ele>
        <time>2018-10-12T09:47:25Z</time>
      </trkpt>
      <trkpt lat="46.07296" lon="4.74338">
        <ele>174</ele>
        <time>2018-10-12T09:47:26Z</time>
      </trkpt>
      <trkpt lat="46.07296" lon="4.7433">
        <ele>174</ele>
        <time>2018-10-12T09:47:27Z</time>
      </trkpt>
      <trkpt lat="46.07295" lon="4.74323">
        <ele>174</ele>
        <time>2018-10-12T09:47:28Z</time>
      </trkpt>
      <trkpt lat="46.07294" lon="4.74316">
        <ele>174</ele>
        <time>2018-10-12T09:47:29Z</time>
      </trkpt>
      <trkpt lat="46.07293" lon="4.74308">
        <ele>174</ele>
        <time>2018-10-12T09:47:30Z</time>
      </trkpt>
      <trkpt lat="46.07292" lon="4.74301">
        <ele>174</ele>
        <time>2018-10-12T09:47:31Z</time>
      </trkpt>
      <trkpt lat="46.07291" lon="4.74294">
        <ele>174</ele>
        <time>2018-10-12T09:47:32Z</time>
      </trkpt>
      <trkpt lat="46.07289" lon="4.74282">
        <ele>175</ele>
        <time>2018-10-12T09:47:34Z</time>
      </trkpt>
      <trkpt lat="46.07288" lon="4.74276">
        <ele>175</ele>
        <time>2018-10-12T09:47:35Z</time>
      </trkpt>
      <trkpt lat="46.07285" lon="4.74264">
        <ele>175</ele>
        <time>2018-10-12T09:47:37Z</time>
      </trkpt>
      <trkpt lat="46.07283" lon="4.7426">
        <ele>175</ele>
        <time>2018-10-12T09:47:38Z</time>
      </trkpt>
      <trkpt lat="46.07279" lon="4.7425">
        <ele>175</ele>
        <time>2018-10-12T09:47:40Z</time>
      </trkpt>
      <trkpt lat="46.07277" lon="4.74245">
        <ele>175</ele>
        <time>2018-10-12T09:47:41Z</time>
      </trkpt>
      <trkpt lat="46.07274" lon="4.74238">
        <ele>175</ele>
        <time>2018-10-12T09:47:43Z</time>
      </trkpt>
      <trkpt lat="46.0727" lon="4.7423">
        <ele>176</ele>
        <time>2018-10-12T09:47:44Z</time>
      </trkpt>
      <trkpt lat="46.07267" lon="4.74221">
        <ele>176</ele>
        <time>2018-10-12T09:47:46Z</time>
      </trkpt>
      <trkpt lat="46.07266" lon="4.74218">
        <ele>176</ele>
        <time>2018-10-12T09:47:47Z</time>
      </trkpt>
      <trkpt lat="46.07262" lon="4.74207">
        <ele>176</ele>
        <time>2018-10-12T09:47:50Z</time>
      </trkpt>
      <trkpt lat="46.0726" lon="4.74199">
        <ele>176</ele>
        <time>2018-10-12T09:47:51Z</time>
      </trkpt>
      <trkpt lat="46.07256" lon="4.74189">
        <ele>176</ele>
        <time>2018-10-12T09:47:53Z</time>
      </trkpt>
      <trkpt lat="46.07255" lon="4.74187">
        <ele>176</ele>
        <time>2018-10-12T09:47:54Z</time>
      </trkpt>
      <trkpt lat="46.07252" lon="4.74175">
        <ele>177</ele>
        <time>2018-10-12T09:47:56Z</time>
      </trkpt>
      <trkpt lat="46.0725" lon="4.74171">
        <ele>177</ele>
        <time>2018-10-12T09:47:57Z</time>
      </trkpt>
      <trkpt lat="46.07247" lon="4.74161">
        <ele>177</ele>
        <time>2018-10-12T09:47:59Z</time>
      </trkpt>
      <trkpt lat="46.07246" lon="4.74159">
        <ele>177</ele>
        <time>2018-10-12T09:48:00Z</time>
      </trkpt>
      <trkpt lat="46.07242" lon="4.74147">
        <ele>177</ele>
        <time>2018-10-12T09:48:02Z</time>
      </trkpt>
      <trkpt lat="46.07241" lon="4.74142">
        <ele>177</ele>
        <time>2018-10-12T09:48:03Z</time>
      </trkpt>
      <trkpt lat="46.07237" lon="4.74131">
        <ele>177</ele>
        <time>2018-10-12T09:48:05Z</time>
      </trkpt>
      <trkpt lat="46.07235" lon="4.74125">
        <ele>177</ele>
        <time>2018-10-12T09:48:06Z</time>
      </trkpt>
      <trkpt lat="46.07233" lon="4.74119">
        <ele>177</ele>
        <time>2018-10-12T09:48:07Z</time>
      </trkpt>
      <trkpt lat="46.0723" lon="4.74111">
        <ele>177</ele>
        <time>2018-10-12T09:48:08Z</time>
      </trkpt>
      <trkpt lat="46.07227" lon="4.74106">
        <ele>177</ele>
        <time>2018-10-12T09:48:09Z</time>
      </trkpt>
      <trkpt lat="46.07225" lon="4.741">
        <ele>177</ele>
        <time>2018-10-12T09:48:10Z</time>
      </trkpt>
      <trkpt lat="46.07224" lon="4.74093">
        <ele>177</ele>
        <time>2018-10-12T09:48:11Z</time>
      </trkpt>
      <trkpt lat="46.07221" lon="4.74087">
        <ele>177</ele>
        <time>2018-10-12T09:48:12Z</time>
      </trkpt>
      <trkpt lat="46.07219" lon="4.74081">
        <ele>177</ele>
        <time>2018-10-12T09:48:13Z</time>
      </trkpt>
      <trkpt lat="46.07217" lon="4.74075">
        <ele>177</ele>
        <time>2018-10-12T09:48:14Z</time>
      </trkpt>
      <trkpt lat="46.07215" lon="4.74068">
        <ele>177</ele>
        <time>2018-10-12T09:48:15Z</time>
      </trkpt>
      <trkpt lat="46.07213" lon="4.74061">
        <ele>177</ele>
        <time>2018-10-12T09:48:16Z</time>
      </trkpt>
      <trkpt lat="46.0721" lon="4.74054">
        <ele>177</ele>
        <time>2018-10-12T09:48:17Z</time>
      </trkpt>
      <trkpt lat="46.07207" lon="4.74047">
        <ele>178</ele>
        <time>2018-10-12T09:48:18Z</time>
      </trkpt>
      <trkpt lat="46.07206" lon="4.74039">
        <ele>178</ele>
        <time>2018-10-12T09:48:19Z</time>
      </trkpt>
      <trkpt lat="46.07204" lon="4.74031">
        <ele>178</ele>
        <time>2018-10-12T09:48:20Z</time>
      </trkpt>
      <trkpt lat="46.07201" lon="4.74024">
        <ele>178</ele>
        <time>2018-10-12T09:48:21Z</time>
      </trkpt>
      <trkpt lat="46.07198" lon="4.74017">
        <ele>178</ele>
        <time>2018-10-12T09:48:22Z</time>
      </trkpt>
      <trkpt lat="46.07195" lon="4.74008">
        <ele>178</ele>
        <time>2018-10-12T09:48:23Z</time>
      </trkpt>
      <trkpt lat="46.07192" lon="4.73999">
        <ele>178</ele>
        <time>2018-10-12T09:48:24Z</time>
      </trkpt>
      <trkpt lat="46.07189" lon="4.73989">
        <ele>178</ele>
        <time>2018-10-12T09:48:25Z</time>
      </trkpt>
      <trkpt lat="46.07188" lon="4.73981">
        <ele>178</ele>
        <time>2018-10-12T09:48:26Z</time>
      </trkpt>
      <trkpt lat="46.07185" lon="4.73972">
        <ele>178</ele>
        <time>2018-10-12T09:48:27Z</time>
      </trkpt>
      <trkpt lat="46.07182" lon="4.73963">
        <ele>178</ele>
        <time>2018-10-12T09:48:28Z</time>
      </trkpt>
      <trkpt lat="46.07179" lon="4.73954">
        <ele>177</ele>
        <time>2018-10-12T09:48:29Z</time>
      </trkpt>
      <trkpt lat="46.07175" lon="4.73945">
        <ele>177</ele>
        <time>2018-10-12T09:48:30Z</time>
      </trkpt>
      <trkpt lat="46.07171" lon="4.73936">
        <ele>177</ele>
        <time>2018-10-12T09:48:31Z</time>
      </trkpt>
      <trkpt lat="46.07168" lon="4.73928">
        <ele>177</ele>
        <time>2018-10-12T09:48:32Z</time>
      </trkpt>
      <trkpt lat="46.07165" lon="4.73919">
        <ele>177</ele>
        <time>2018-10-12T09:48:33Z</time>
      </trkpt>
      <trkpt lat="46.07162" lon="4.73911">
        <ele>177</ele>
        <time>2018-10-12T09:48:34Z</time>
      </trkpt>
      <trkpt lat="46.0716" lon="4.73903">
        <ele>177</ele>
        <time>2018-10-12T09:48:35Z</time>
      </trkpt>
      <trkpt lat="46.07157" lon="4.73895">
        <ele>177</ele>
        <time>2018-10-12T09:48:36Z</time>
      </trkpt>
      <trkpt lat="46.07154" lon="4.73888">
        <ele>176</ele>
        <time>2018-10-12T09:48:37Z</time>
      </trkpt>
      <trkpt lat="46.07152" lon="4.73881">
        <ele>176</ele>
        <time>2018-10-12T09:48:38Z</time>
      </trkpt>
      <trkpt lat="46.07148" lon="4.73875">
        <ele>176</ele>
        <time>2018-10-12T09:48:39Z</time>
      </trkpt>
      <trkpt lat="46.07145" lon="4.73869">
        <ele>176</ele>
        <time>2018-10-12T09:48:40Z</time>
      </trkpt>
      <trkpt lat="46.07142" lon="4.73863">
        <ele>176</ele>
        <time>2018-10-12T09:48:41Z</time>
      </trkpt>
      <trkpt lat="46.07138" lon="4.73858">
        <ele>176</ele>
        <time>2018-10-12T09:48:42Z</time>
      </trkpt>
      <trkpt lat="46.07134" lon="4.73853">
        <ele>176</ele>
        <time>2018-10-12T09:48:43Z</time>
      </trkpt>
      <trkpt lat="46.07131" lon="4.73849">
        <ele>176</ele>
        <time>2018-10-12T09:48:44Z</time>
      </trkpt>
      <trkpt lat="46.07127" lon="4.73844">
        <ele>176</ele>
        <time>2018-10-12T09:48:45Z</time>
      </trkpt>
      <trkpt lat="46.07123" lon="4.73839">
        <ele>177</ele>
        <time>2018-10-12T09:48:46Z</time>
      </trkpt>
      <trkpt lat="46.07119" lon="4.73834">
        <ele>177</ele>
        <time>2018-10-12T09:48:47Z</time>
      </trkpt>
      <trkpt lat="46.07114" lon="4.7383">
        <ele>177</ele>
        <time>2018-10-12T09:48:48Z</time>
      </trkpt>
      <trkpt lat="46.0711" lon="4.73825">
        <ele>178</ele>
        <time>2018-10-12T09:48:49Z</time>
      </trkpt>
      <trkpt lat="46.07106" lon="4.73821">
        <ele>178</ele>
        <time>2018-10-12T09:48:50Z</time>
      </trkpt>
      <trkpt lat="46.07101" lon="4.73817">
        <ele>178</ele>
        <time>2018-10-12T09:48:51Z</time>
      </trkpt>
      <trkpt lat="46.07097" lon="4.73813">
        <ele>178</ele>
        <time>2018-10-12T09:48:52Z</time>
      </trkpt>
      <trkpt lat="46.07093" lon="4.7381">
        <ele>178</ele>
        <time>2018-10-12T09:48:53Z</time>
      </trkpt>
      <trkpt lat="46.07088" lon="4.73807">
        <ele>178</ele>
        <time>2018-10-12T09:48:54Z</time>
      </trkpt>
      <trkpt lat="46.07081" lon="4.73802">
        <ele>178</ele>
        <time>2018-10-12T09:48:56Z</time>
      </trkpt>
      <trkpt lat="46.07077" lon="4.73799">
        <ele>178</ele>
        <time>2018-10-12T09:48:57Z</time>
      </trkpt>
      <trkpt lat="46.07072" lon="4.73797">
        <ele>178</ele>
        <time>2018-10-12T09:48:58Z</time>
      </trkpt>
      <trkpt lat="46.07066" lon="4.73794">
        <ele>178</ele>
        <time>2018-10-12T09:48:59Z</time>
      </trkpt>
      <trkpt lat="46.07062" lon="4.73793">
        <ele>178</ele>
        <time>2018-10-12T09:49:00Z</time>
      </trkpt>
      <trkpt lat="46.07057" lon="4.73792">
        <ele>178</ele>
        <time>2018-10-12T09:49:01Z</time>
      </trkpt>
      <trkpt lat="46.07051" lon="4.7379">
        <ele>177</ele>
        <time>2018-10-12T09:49:02Z</time>
      </trkpt>
      <trkpt lat="46.07046" lon="4.7379">
        <ele>177</ele>
        <time>2018-10-12T09:49:03Z</time>
      </trkpt>
      <trkpt lat="46.07041" lon="4.73789">
        <ele>177</ele>
        <time>2018-10-12T09:49:04Z</time>
      </trkpt>
      <trkpt lat="46.07034" lon="4.73787">
        <ele>177</ele>
        <time>2018-10-12T09:49:05Z</time>
      </trkpt>
      <trkpt lat="46.07028" lon="4.73788">
        <ele>177</ele>
        <time>2018-10-12T09:49:06Z</time>
      </trkpt>
      <trkpt lat="46.07024" lon="4.73787">
        <ele>177</ele>
        <time>2018-10-12T09:49:07Z</time>
      </trkpt>
      <trkpt lat="46.07019" lon="4.73787">
        <ele>177</ele>
        <time>2018-10-12T09:49:08Z</time>
      </trkpt>
      <trkpt lat="46.07014" lon="4.73787">
        <ele>177</ele>
        <time>2018-10-12T09:49:09Z</time>
      </trkpt>
      <trkpt lat="46.0701" lon="4.73786">
        <ele>177</ele>
        <time>2018-10-12T09:49:10Z</time>
      </trkpt>
      <trkpt lat="46.07004" lon="4.73785">
        <ele>177</ele>
        <time>2018-10-12T09:49:11Z</time>
      </trkpt>
      <trkpt lat="46.06999" lon="4.73784">
        <ele>176</ele>
        <time>2018-10-12T09:49:12Z</time>
      </trkpt>
      <trkpt lat="46.06993" lon="4.73784">
        <ele>176</ele>
        <time>2018-10-12T09:49:13Z</time>
      </trkpt>
      <trkpt lat="46.06988" lon="4.73783">
        <ele>176</ele>
        <time>2018-10-12T09:49:14Z</time>
      </trkpt>
      <trkpt lat="46.06982" lon="4.73782">
        <ele>176</ele>
        <time>2018-10-12T09:49:15Z</time>
      </trkpt>
      <trkpt lat="46.06973" lon="4.7378">
        <ele>176</ele>
        <time>2018-10-12T09:49:17Z</time>
      </trkpt>
      <trkpt lat="46.06969" lon="4.73779">
        <ele>176</ele>
        <time>2018-10-12T09:49:18Z</time>
      </trkpt>
      <trkpt lat="46.0696" lon="4.73775">
        <ele>176</ele>
        <time>2018-10-12T09:49:20Z</time>
      </trkpt>
      <trkpt lat="46.06956" lon="4.73773">
        <ele>176</ele>
        <time>2018-10-12T09:49:21Z</time>
      </trkpt>
      <trkpt lat="46.06951" lon="4.7377">
        <ele>176</ele>
        <time>2018-10-12T09:49:22Z</time>
      </trkpt>
      <trkpt lat="46.06947" lon="4.73768">
        <ele>176</ele>
        <time>2018-10-12T09:49:23Z</time>
      </trkpt>
      <trkpt lat="46.06942" lon="4.73765">
        <ele>176</ele>
        <time>2018-10-12T09:49:24Z</time>
      </trkpt>
      <trkpt lat="46.06937" lon="4.73762">
        <ele>176</ele>
        <time>2018-10-12T09:49:25Z</time>
      </trkpt>
      <trkpt lat="46.06933" lon="4.73757">
        <ele>177</ele>
        <time>2018-10-12T09:49:26Z</time>
      </trkpt>
      <trkpt lat="46.06928" lon="4.73753">
        <ele>177</ele>
        <time>2018-10-12T09:49:27Z</time>
      </trkpt>
      <trkpt lat="46.06925" lon="4.73747">
        <ele>177</ele>
        <time>2018-10-12T09:49:28Z</time>
      </trkpt>
      <trkpt lat="46.06921" lon="4.73743">
        <ele>177</ele>
        <time>2018-10-12T09:49:29Z</time>
      </trkpt>
      <trkpt lat="46.06917" lon="4.73738">
        <ele>177</ele>
        <time>2018-10-12T09:49:30Z</time>
      </trkpt>
      <trkpt lat="46.06913" lon="4.73733">
        <ele>177</ele>
        <time>2018-10-12T09:49:31Z</time>
      </trkpt>
      <trkpt lat="46.06906" lon="4.73726">
        <ele>176</ele>
        <time>2018-10-12T09:49:33Z</time>
      </trkpt>
      <trkpt lat="46.06903" lon="4.73721">
        <ele>176</ele>
        <time>2018-10-12T09:49:34Z</time>
      </trkpt>
      <trkpt lat="46.06901" lon="4.73715">
        <ele>176</ele>
        <time>2018-10-12T09:49:35Z</time>
      </trkpt>
      <trkpt lat="46.06898" lon="4.7371">
        <ele>176</ele>
        <time>2018-10-12T09:49:36Z</time>
      </trkpt>
      <trkpt lat="46.06893" lon="4.73705">
        <ele>176</ele>
        <time>2018-10-12T09:49:37Z</time>
      </trkpt>
      <trkpt lat="46.06889" lon="4.737">
        <ele>176</ele>
        <time>2018-10-12T09:49:38Z</time>
      </trkpt>
      <trkpt lat="46.06885" lon="4.73697">
        <ele>176</ele>
        <time>2018-10-12T09:49:39Z</time>
      </trkpt>
      <trkpt lat="46.0688" lon="4.73692">
        <ele>176</ele>
        <time>2018-10-12T09:49:40Z</time>
      </trkpt>
      <trkpt lat="46.06875" lon="4.73687">
        <ele>176</ele>
        <time>2018-10-12T09:49:41Z</time>
      </trkpt>
      <trkpt lat="46.06872" lon="4.73682">
        <ele>176</ele>
        <time>2018-10-12T09:49:42Z</time>
      </trkpt>
      <trkpt lat="46.06867" lon="4.73676">
        <ele>176</ele>
        <time>2018-10-12T09:49:43Z</time>
      </trkpt>
      <trkpt lat="46.06862" lon="4.73672">
        <ele>176</ele>
        <time>2018-10-12T09:49:44Z</time>
      </trkpt>
      <trkpt lat="46.06858" lon="4.73667">
        <ele>176</ele>
        <time>2018-10-12T09:49:45Z</time>
      </trkpt>
      <trkpt lat="46.06854" lon="4.73663">
        <ele>176</ele>
        <time>2018-10-12T09:49:46Z</time>
      </trkpt>
      <trkpt lat="46.0685" lon="4.73658">
        <ele>176</ele>
        <time>2018-10-12T09:49:47Z</time>
      </trkpt>
      <trkpt lat="46.06846" lon="4.73653">
        <ele>176</ele>
        <time>2018-10-12T09:49:48Z</time>
      </trkpt>
      <trkpt lat="46.06843" lon="4.73649">
        <ele>176</ele>
        <time>2018-10-12T09:49:49Z</time>
      </trkpt>
      <trkpt lat="46.06838" lon="4.73645">
        <ele>177</ele>
        <time>2018-10-12T09:49:50Z</time>
      </trkpt>
      <trkpt lat="46.06834" lon="4.73642">
        <ele>177</ele>
        <time>2018-10-12T09:49:51Z</time>
      </trkpt>
      <trkpt lat="46.06831" lon="4.73636">
        <ele>178</ele>
        <time>2018-10-12T09:49:52Z</time>
      </trkpt>
      <trkpt lat="46.06826" lon="4.73632">
        <ele>178</ele>
        <time>2018-10-12T09:49:53Z</time>
      </trkpt>
      <trkpt lat="46.06822" lon="4.73628">
        <ele>178</ele>
        <time>2018-10-12T09:49:54Z</time>
      </trkpt>
      <trkpt lat="46.06818" lon="4.73624">
        <ele>178</ele>
        <time>2018-10-12T09:49:55Z</time>
      </trkpt>
      <trkpt lat="46.06815" lon="4.7362">
        <ele>178</ele>
        <time>2018-10-12T09:49:56Z</time>
      </trkpt>
      <trkpt lat="46.06811" lon="4.73616">
        <ele>178</ele>
        <time>2018-10-12T09:49:57Z</time>
      </trkpt>
      <trkpt lat="46.06808" lon="4.7361">
        <ele>178</ele>
        <time>2018-10-12T09:49:58Z</time>
      </trkpt>
      <trkpt lat="46.06804" lon="4.73605">
        <ele>178</ele>
        <time>2018-10-12T09:49:59Z</time>
      </trkpt>
      <trkpt lat="46.068" lon="4.736">
        <ele>178</ele>
        <time>2018-10-12T09:50:00Z</time>
      </trkpt>
      <trkpt lat="46.06796" lon="4.73595">
        <ele>179</ele>
        <time>2018-10-12T09:50:01Z</time>
      </trkpt>
      <trkpt lat="46.06793" lon="4.73591">
        <ele>179</ele>
        <time>2018-10-12T09:50:02Z</time>
      </trkpt>
      <trkpt lat="46.06789" lon="4.73586">
        <ele>179</ele>
        <time>2018-10-12T09:50:03Z</time>
      </trkpt>
      <trkpt lat="46.06785" lon="4.73582">
        <ele>179</ele>
        <time>2018-10-12T09:50:04Z</time>
      </trkpt>
      <trkpt lat="46.06782" lon="4.73576">
        <ele>179</ele>
        <time>2018-10-12T09:50:05Z</time>
      </trkpt>
      <trkpt lat="46.06779" lon="4.73569">
        <ele>179</ele>
        <time>2018-10-12T09:50:06Z</time>
      </trkpt>
      <trkpt lat="46.06777" lon="4.73563">
        <ele>179</ele>
        <time>2018-10-12T09:50:07Z</time>
      </trkpt>
      <trkpt lat="46.06773" lon="4.73556">
        <ele>179</ele>
        <time>2018-10-12T09:50:08Z</time>
      </trkpt>
      <trkpt lat="46.0677" lon="4.73549">
        <ele>179</ele>
        <time>2018-10-12T09:50:09Z</time>
      </trkpt>
      <trkpt lat="46.06768" lon="4.73541">
        <ele>179</ele>
        <time>2018-10-12T09:50:10Z</time>
      </trkpt>
      <trkpt lat="46.06765" lon="4.73533">
        <ele>179</ele>
        <time>2018-10-12T09:50:11Z</time>
      </trkpt>
      <trkpt lat="46.06763" lon="4.73527">
        <ele>179</ele>
        <time>2018-10-12T09:50:12Z</time>
      </trkpt>
      <trkpt lat="46.0676" lon="4.7352">
        <ele>179</ele>
        <time>2018-10-12T09:50:13Z</time>
      </trkpt>
      <trkpt lat="46.06756" lon="4.73513">
        <ele>179</ele>
        <time>2018-10-12T09:50:14Z</time>
      </trkpt>
      <trkpt lat="46.06752" lon="4.73507">
        <ele>179</ele>
        <time>2018-10-12T09:50:15Z</time>
      </trkpt>
      <trkpt lat="46.06748" lon="4.73503">
        <ele>179</ele>
        <time>2018-10-12T09:50:16Z</time>
      </trkpt>
      <trkpt lat="46.06743" lon="4.73499">
        <ele>179</ele>
        <time>2018-10-12T09:50:17Z</time>
      </trkpt>
      <trkpt lat="46.06738" lon="4.73495">
        <ele>179</ele>
        <time>2018-10-12T09:50:18Z</time>
      </trkpt>
      <trkpt lat="46.06734" lon="4.7349">
        <ele>180</ele>
        <time>2018-10-12T09:50:19Z</time>
      </trkpt>
      <trkpt lat="46.0673" lon="4.73484">
        <ele>180</ele>
        <time>2018-10-12T09:50:20Z</time>
      </trkpt>
      <trkpt lat="46.06725" lon="4.73479">
        <ele>180</ele>
        <time>2018-10-12T09:50:21Z</time>
      </trkpt>
      <trkpt lat="46.0672" lon="4.73473">
        <ele>180</ele>
        <time>2018-10-12T09:50:22Z</time>
      </trkpt>
      <trkpt lat="46.06717" lon="4.73467">
        <ele>180</ele>
        <time>2018-10-12T09:50:23Z</time>
      </trkpt>
      <trkpt lat="46.06714" lon="4.73463">
        <ele>180</ele>
        <time>2018-10-12T09:50:24Z</time>
      </trkpt>
      <trkpt lat="46.0671" lon="4.73458">
        <ele>180</ele>
        <time>2018-10-12T09:50:25Z</time>
      </trkpt>
      <trkpt lat="46.06707" lon="4.73453">
        <ele>180</ele>
        <time>2018-10-12T09:50:26Z</time>
      </trkpt>
      <trkpt lat="46.06701" lon="4.73445">
        <ele>180</ele>
        <time>2018-10-12T09:50:28Z</time>
      </trkpt>
      <trkpt lat="46.06698" lon="4.7344">
        <ele>181</ele>
        <time>2018-10-12T09:50:29Z</time>
      </trkpt>
      <trkpt lat="46.06695" lon="4.73436">
        <ele>181</ele>
        <time>2018-10-12T09:50:30Z</time>
      </trkpt>
      <trkpt lat="46.06692" lon="4.73431">
        <ele>181</ele>
        <time>2018-10-12T09:50:31Z</time>
      </trkpt>
      <trkpt lat="46.06686" lon="4.73422">
        <ele>181</ele>
        <time>2018-10-12T09:50:33Z</time>
      </trkpt>
      <trkpt lat="46.06682" lon="4.73416">
        <ele>181</ele>
        <time>2018-10-12T09:50:34Z</time>
      </trkpt>
      <trkpt lat="46.06678" lon="4.73411">
        <ele>181</ele>
        <time>2018-10-12T09:50:35Z</time>
      </trkpt>
      <trkpt lat="46.06675" lon="4.73406">
        <ele>181</ele>
        <time>2018-10-12T09:50:36Z</time>
      </trkpt>
      <trkpt lat="46.06671" lon="4.73401">
        <ele>181</ele>
        <time>2018-10-12T09:50:37Z</time>
      </trkpt>
      <trkpt lat="46.06667" lon="4.73396">
        <ele>181</ele>
        <time>2018-10-12T09:50:38Z</time>
      </trkpt>
      <trkpt lat="46.0666" lon="4.73387">
        <ele>182</ele>
        <time>2018-10-12T09:50:40Z</time>
      </trkpt>
      <trkpt lat="46.06656" lon="4.73382">
        <ele>182</ele>
        <time>2018-10-12T09:50:41Z</time>
      </trkpt>
      <trkpt lat="46.0665" lon="4.73374">
        <ele>182</ele>
        <time>2018-10-12T09:50:43Z</time>
      </trkpt>
      <trkpt lat="46.06647" lon="4.73369">
        <ele>182</ele>
        <time>2018-10-12T09:50:44Z</time>
      </trkpt>
      <trkpt lat="46.06642" lon="4.73366">
        <ele>182</ele>
        <time>2018-10-12T09:50:45Z</time>
      </trkpt>
      <trkpt lat="46.06638" lon="4.73362">
        <ele>182</ele>
        <time>2018-10-12T09:50:46Z</time>
      </trkpt>
      <trkpt lat="46.06633" lon="4.73358">
        <ele>182</ele>
        <time>2018-10-12T09:50:47Z</time>
      </trkpt>
      <trkpt lat="46.06628" lon="4.73356">
        <ele>182</ele>
        <time>2018-10-12T09:50:48Z</time>
      </trkpt>
      <trkpt lat="46.06623" lon="4.73353">
        <ele>182</ele>
        <time>2018-10-12T09:50:49Z</time>
      </trkpt>
      <trkpt lat="46.06619" lon="4.73351">
        <ele>182</ele>
        <time>2018-10-12T09:50:50Z</time>
      </trkpt>
      <trkpt lat="46.06611" lon="4.73346">
        <ele>182</ele>
        <time>2018-10-12T09:50:52Z</time>
      </trkpt>
      <trkpt lat="46.06609" lon="4.73342">
        <ele>182</ele>
        <time>2018-10-12T09:50:53Z</time>
      </trkpt>
      <trkpt lat="46.06603" lon="4.73333">
        <ele>182</ele>
        <time>2018-10-12T09:50:55Z</time>
      </trkpt>
      <trkpt lat="46.06601" lon="4.73328">
        <ele>182</ele>
        <time>2018-10-12T09:50:56Z</time>
      </trkpt>
      <trkpt lat="46.06596" lon="4.7332">
        <ele>182</ele>
        <time>2018-10-12T09:50:58Z</time>
      </trkpt>
      <trkpt lat="46.06593" lon="4.73315">
        <ele>182</ele>
        <time>2018-10-12T09:50:59Z</time>
      </trkpt>
      <trkpt lat="46.06587" lon="4.73305">
        <ele>183</ele>
        <time>2018-10-12T09:51:01Z</time>
      </trkpt>
      <trkpt lat="46.06584" lon="4.733">
        <ele>183</ele>
        <time>2018-10-12T09:51:02Z</time>
      </trkpt>
      <trkpt lat="46.06582" lon="4.73294">
        <ele>184</ele>
        <time>2018-10-12T09:51:03Z</time>
      </trkpt>
      <trkpt lat="46.0658" lon="4.73286">
        <ele>184</ele>
        <time>2018-10-12T09:51:04Z</time>
      </trkpt>
      <trkpt lat="46.06576" lon="4.73275">
        <ele>184</ele>
        <time>2018-10-12T09:51:06Z</time>
      </trkpt>
      <trkpt lat="46.06573" lon="4.73269">
        <ele>184</ele>
        <time>2018-10-12T09:51:07Z</time>
      </trkpt>
      <trkpt lat="46.06569" lon="4.73258">
        <ele>184</ele>
        <time>2018-10-12T09:51:09Z</time>
      </trkpt>
      <trkpt lat="46.06567" lon="4.73252">
        <ele>184</ele>
        <time>2018-10-12T09:51:10Z</time>
      </trkpt>
      <trkpt lat="46.06565" lon="4.73246">
        <ele>186</ele>
        <time>2018-10-12T09:51:11Z</time>
      </trkpt>
      <trkpt lat="46.06563" lon="4.7324">
        <ele>186</ele>
        <time>2018-10-12T09:51:12Z</time>
      </trkpt>
      <trkpt lat="46.06561" lon="4.73234">
        <ele>186</ele>
        <time>2018-10-12T09:51:13Z</time>
      </trkpt>
      <trkpt lat="46.06559" lon="4.73227">
        <ele>186</ele>
        <time>2018-10-12T09:51:14Z</time>
      </trkpt>
      <trkpt lat="46.06557" lon="4.73221">
        <ele>186</ele>
        <time>2018-10-12T09:51:15Z</time>
      </trkpt>
      <trkpt lat="46.06555" lon="4.73215">
        <ele>186</ele>
        <time>2018-10-12T09:51:16Z</time>
      </trkpt>
      <trkpt lat="46.06553" lon="4.73208">
        <ele>186</ele>
        <time>2018-10-12T09:51:17Z</time>
      </trkpt>
      <trkpt lat="46.06552" lon="4.732">
        <ele>186</ele>
        <time>2018-10-12T09:51:18Z</time>
      </trkpt>
      <trkpt lat="46.06551" lon="4.73193">
        <ele>187</ele>
        <time>2018-10-12T09:51:19Z</time>
      </trkpt>
      <trkpt lat="46.0655" lon="4.73185">
        <ele>187</ele>
        <time>2018-10-12T09:51:20Z</time>
      </trkpt>
      <trkpt lat="46.0655" lon="4.73178">
        <ele>187</ele>
        <time>2018-10-12T09:51:21Z</time>
      </trkpt>
      <trkpt lat="46.06549" lon="4.73171">
        <ele>187</ele>
        <time>2018-10-12T09:51:22Z</time>
      </trkpt>
      <trkpt lat="46.06548" lon="4.73164">
        <ele>187</ele>
        <time>2018-10-12T09:51:23Z</time>
      </trkpt>
      <trkpt lat="46.06549" lon="4.73157">
        <ele>187</ele>
        <time>2018-10-12T09:51:24Z</time>
      </trkpt>
      <trkpt lat="46.06548" lon="4.7315">
        <ele>187</ele>
        <time>2018-10-12T09:51:25Z</time>
      </trkpt>
      <trkpt lat="46.06548" lon="4.73143">
        <ele>187</ele>
        <time>2018-10-12T09:51:26Z</time>
      </trkpt>
      <trkpt lat="46.06546" lon="4.73136">
        <ele>187</ele>
        <time>2018-10-12T09:51:27Z</time>
      </trkpt>
      <trkpt lat="46.06545" lon="4.73128">
        <ele>187</ele>
        <time>2018-10-12T09:51:28Z</time>
      </trkpt>
      <trkpt lat="46.06543" lon="4.73121">
        <ele>187</ele>
        <time>2018-10-12T09:51:29Z</time>
      </trkpt>
      <trkpt lat="46.0654" lon="4.73115">
        <ele>188</ele>
        <time>2018-10-12T09:51:30Z</time>
      </trkpt>
      <trkpt lat="46.06539" lon="4.73109">
        <ele>188</ele>
        <time>2018-10-12T09:51:31Z</time>
      </trkpt>
      <trkpt lat="46.06536" lon="4.73102">
        <ele>188</ele>
        <time>2018-10-12T09:51:32Z</time>
      </trkpt>
      <trkpt lat="46.06533" lon="4.73096">
        <ele>188</ele>
        <time>2018-10-12T09:51:33Z</time>
      </trkpt>
      <trkpt lat="46.06531" lon="4.7309">
        <ele>188</ele>
        <time>2018-10-12T09:51:34Z</time>
      </trkpt>
      <trkpt lat="46.06528" lon="4.73084">
        <ele>188</ele>
        <time>2018-10-12T09:51:35Z</time>
      </trkpt>
      <trkpt lat="46.06525" lon="4.73078">
        <ele>188</ele>
        <time>2018-10-12T09:51:36Z</time>
      </trkpt>
      <trkpt lat="46.06523" lon="4.73072">
        <ele>188</ele>
        <time>2018-10-12T09:51:37Z</time>
      </trkpt>
      <trkpt lat="46.06521" lon="4.73066">
        <ele>188</ele>
        <time>2018-10-12T09:51:38Z</time>
      </trkpt>
      <trkpt lat="46.06517" lon="4.73054">
        <ele>188</ele>
        <time>2018-10-12T09:51:40Z</time>
      </trkpt>
      <trkpt lat="46.06515" lon="4.73048">
        <ele>188</ele>
        <time>2018-10-12T09:51:41Z</time>
      </trkpt>
      <trkpt lat="46.06513" lon="4.73041">
        <ele>188</ele>
        <time>2018-10-12T09:51:42Z</time>
      </trkpt>
      <trkpt lat="46.06511" lon="4.73035">
        <ele>189</ele>
        <time>2018-10-12T09:51:43Z</time>
      </trkpt>
      <trkpt lat="46.06508" lon="4.73029">
        <ele>189</ele>
        <time>2018-10-12T09:51:44Z</time>
      </trkpt>
      <trkpt lat="46.06505" lon="4.73024">
        <ele>189</ele>
        <time>2018-10-12T09:51:45Z</time>
      </trkpt>
      <trkpt lat="46.06502" lon="4.73019">
        <ele>189</ele>
        <time>2018-10-12T09:51:46Z</time>
      </trkpt>
      <trkpt lat="46.06499" lon="4.73013">
        <ele>189</ele>
        <time>2018-10-12T09:51:47Z</time>
      </trkpt>
      <trkpt lat="46.06494" lon="4.73003">
        <ele>189</ele>
        <time>2018-10-12T09:51:49Z</time>
      </trkpt>
      <trkpt lat="46.06492" lon="4.72997">
        <ele>189</ele>
        <time>2018-10-12T09:51:50Z</time>
      </trkpt>
      <trkpt lat="46.06489" lon="4.72985">
        <ele>189</ele>
        <time>2018-10-12T09:51:52Z</time>
      </trkpt>
      <trkpt lat="46.06488" lon="4.72978">
        <ele>189</ele>
        <time>2018-10-12T09:51:53Z</time>
      </trkpt>
      <trkpt lat="46.06487" lon="4.72966">
        <ele>188</ele>
        <time>2018-10-12T09:51:55Z</time>
      </trkpt>
      <trkpt lat="46.06486" lon="4.72961">
        <ele>188</ele>
        <time>2018-10-12T09:51:56Z</time>
      </trkpt>
      <trkpt lat="46.06485" lon="4.72948">
        <ele>188</ele>
        <time>2018-10-12T09:51:58Z</time>
      </trkpt>
      <trkpt lat="46.06484" lon="4.72941">
        <ele>188</ele>
        <time>2018-10-12T09:51:59Z</time>
      </trkpt>
      <trkpt lat="46.06483" lon="4.72934">
        <ele>189</ele>
        <time>2018-10-12T09:52:00Z</time>
      </trkpt>
      <trkpt lat="46.06481" lon="4.72925">
        <ele>189</ele>
        <time>2018-10-12T09:52:01Z</time>
      </trkpt>
      <trkpt lat="46.0648" lon="4.72918">
        <ele>189</ele>
        <time>2018-10-12T09:52:02Z</time>
      </trkpt>
      <trkpt lat="46.06478" lon="4.72911">
        <ele>188</ele>
        <time>2018-10-12T09:52:03Z</time>
      </trkpt>
      <trkpt lat="46.06478" lon="4.72902">
        <ele>188</ele>
        <time>2018-10-12T09:52:04Z</time>
      </trkpt>
      <trkpt lat="46.06478" lon="4.72895">
        <ele>188</ele>
        <time>2018-10-12T09:52:05Z</time>
      </trkpt>
      <trkpt lat="46.06477" lon="4.72889">
        <ele>188</ele>
        <time>2018-10-12T09:52:06Z</time>
      </trkpt>
      <trkpt lat="46.06475" lon="4.72883">
        <ele>188</ele>
        <time>2018-10-12T09:52:07Z</time>
      </trkpt>
      <trkpt lat="46.06476" lon="4.72871">
        <ele>188</ele>
        <time>2018-10-12T09:52:09Z</time>
      </trkpt>
      <trkpt lat="46.06476" lon="4.72861">
        <ele>188</ele>
        <time>2018-10-12T09:52:10Z</time>
      </trkpt>
      <trkpt lat="46.06476" lon="4.72853">
        <ele>188</ele>
        <time>2018-10-12T09:52:11Z</time>
      </trkpt>
      <trkpt lat="46.06476" lon="4.72847">
        <ele>189</ele>
        <time>2018-10-12T09:52:12Z</time>
      </trkpt>
      <trkpt lat="46.06474" lon="4.72834">
        <ele>189</ele>
        <time>2018-10-12T09:52:14Z</time>
      </trkpt>
      <trkpt lat="46.06473" lon="4.72827">
        <ele>188</ele>
        <time>2018-10-12T09:52:15Z</time>
      </trkpt>
      <trkpt lat="46.06472" lon="4.72819">
        <ele>188</ele>
        <time>2018-10-12T09:52:16Z</time>
      </trkpt>
      <trkpt lat="46.0647" lon="4.72811">
        <ele>188</ele>
        <time>2018-10-12T09:52:17Z</time>
      </trkpt>
      <trkpt lat="46.06468" lon="4.72803">
        <ele>188</ele>
        <time>2018-10-12T09:52:18Z</time>
      </trkpt>
      <trkpt lat="46.06466" lon="4.72794">
        <ele>188</ele>
        <time>2018-10-12T09:52:19Z</time>
      </trkpt>
      <trkpt lat="46.06463" lon="4.72787">
        <ele>188</ele>
        <time>2018-10-12T09:52:20Z</time>
      </trkpt>
      <trkpt lat="46.06461" lon="4.72778">
        <ele>188</ele>
        <time>2018-10-12T09:52:21Z</time>
      </trkpt>
      <trkpt lat="46.06459" lon="4.72769">
        <ele>188</ele>
        <time>2018-10-12T09:52:22Z</time>
      </trkpt>
      <trkpt lat="46.06458" lon="4.72761">
        <ele>188</ele>
        <time>2018-10-12T09:52:23Z</time>
      </trkpt>
      <trkpt lat="46.06456" lon="4.72753">
        <ele>188</ele>
        <time>2018-10-12T09:52:24Z</time>
      </trkpt>
      <trkpt lat="46.06455" lon="4.72746">
        <ele>189</ele>
        <time>2018-10-12T09:52:25Z</time>
      </trkpt>
      <trkpt lat="46.06453" lon="4.72738">
        <ele>189</ele>
        <time>2018-10-12T09:52:26Z</time>
      </trkpt>
      <trkpt lat="46.06451" lon="4.72731">
        <ele>189</ele>
        <time>2018-10-12T09:52:27Z</time>
      </trkpt>
      <trkpt lat="46.0645" lon="4.72724">
        <ele>190</ele>
        <time>2018-10-12T09:52:28Z</time>
      </trkpt>
      <trkpt lat="46.06449" lon="4.72718">
        <ele>190</ele>
        <time>2018-10-12T09:52:29Z</time>
      </trkpt>
      <trkpt lat="46.06448" lon="4.7271">
        <ele>190</ele>
        <time>2018-10-12T09:52:30Z</time>
      </trkpt>
      <trkpt lat="46.06446" lon="4.72704">
        <ele>190</ele>
        <time>2018-10-12T09:52:31Z</time>
      </trkpt>
      <trkpt lat="46.06445" lon="4.72697">
        <ele>190</ele>
        <time>2018-10-12T09:52:32Z</time>
      </trkpt>
      <trkpt lat="46.06444" lon="4.72691">
        <ele>190</ele>
        <time>2018-10-12T09:52:33Z</time>
      </trkpt>
      <trkpt lat="46.06443" lon="4.72684">
        <ele>190</ele>
        <time>2018-10-12T09:52:34Z</time>
      </trkpt>
      <trkpt lat="46.06442" lon="4.72677">
        <ele>191</ele>
        <time>2018-10-12T09:52:35Z</time>
      </trkpt>
      <trkpt lat="46.0644" lon="4.7267">
        <ele>191</ele>
        <time>2018-10-12T09:52:36Z</time>
      </trkpt>
      <trkpt lat="46.06439" lon="4.72663">
        <ele>192</ele>
        <time>2018-10-12T09:52:37Z</time>
      </trkpt>
      <trkpt lat="46.06437" lon="4.72656">
        <ele>192</ele>
        <time>2018-10-12T09:52:38Z</time>
      </trkpt>
      <trkpt lat="46.06435" lon="4.72649">
        <ele>192</ele>
        <time>2018-10-12T09:52:39Z</time>
      </trkpt>
      <trkpt lat="46.06433" lon="4.72644">
        <ele>192</ele>
        <time>2018-10-12T09:52:40Z</time>
      </trkpt>
      <trkpt lat="46.06431" lon="4.72637">
        <ele>192</ele>
        <time>2018-10-12T09:52:41Z</time>
      </trkpt>
      <trkpt lat="46.0643" lon="4.7263">
        <ele>193</ele>
        <time>2018-10-12T09:52:42Z</time>
      </trkpt>
      <trkpt lat="46.0643" lon="4.72624">
        <ele>193</ele>
        <time>2018-10-12T09:52:43Z</time>
      </trkpt>
      <trkpt lat="46.06428" lon="4.72612">
        <ele>193</ele>
        <time>2018-10-12T09:52:45Z</time>
      </trkpt>
      <trkpt lat="46.06428" lon="4.72606">
        <ele>193</ele>
        <time>2018-10-12T09:52:46Z</time>
      </trkpt>
      <trkpt lat="46.06427" lon="4.72594">
        <ele>194</ele>
        <time>2018-10-12T09:52:48Z</time>
      </trkpt>
      <trkpt lat="46.06426" lon="4.72587">
        <ele>194</ele>
        <time>2018-10-12T09:52:49Z</time>
      </trkpt>
      <trkpt lat="46.06423" lon="4.72575">
        <ele>195</ele>
        <time>2018-10-12T09:52:51Z</time>
      </trkpt>
      <trkpt lat="46.06422" lon="4.72569">
        <ele>195</ele>
        <time>2018-10-12T09:52:52Z</time>
      </trkpt>
      <trkpt lat="46.0642" lon="4.72557">
        <ele>196</ele>
        <time>2018-10-12T09:52:54Z</time>
      </trkpt>
      <trkpt lat="46.0642" lon="4.72551">
        <ele>196</ele>
        <time>2018-10-12T09:52:55Z</time>
      </trkpt>
      <trkpt lat="46.06418" lon="4.72538">
        <ele>196</ele>
        <time>2018-10-12T09:52:57Z</time>
      </trkpt>
      <trkpt lat="46.06417" lon="4.72532">
        <ele>197</ele>
        <time>2018-10-12T09:52:58Z</time>
      </trkpt>
      <trkpt lat="46.06415" lon="4.7252">
        <ele>198</ele>
        <time>2018-10-12T09:53:00Z</time>
      </trkpt>
      <trkpt lat="46.06413" lon="4.72515">
        <ele>198</ele>
        <time>2018-10-12T09:53:01Z</time>
      </trkpt>
      <trkpt lat="46.06413" lon="4.72505">
        <ele>199</ele>
        <time>2018-10-12T09:53:03Z</time>
      </trkpt>
      <trkpt lat="46.06412" lon="4.725">
        <ele>199</ele>
        <time>2018-10-12T09:53:04Z</time>
      </trkpt>
      <trkpt lat="46.0641" lon="4.72494">
        <ele>199</ele>
        <time>2018-10-12T09:53:05Z</time>
      </trkpt>
      <trkpt lat="46.06409" lon="4.72488">
        <ele>199</ele>
        <time>2018-10-12T09:53:06Z</time>
      </trkpt>
      <trkpt lat="46.06405" lon="4.72479">
        <ele>198</ele>
        <time>2018-10-12T09:53:08Z</time>
      </trkpt>
      <trkpt lat="46.06403" lon="4.72474">
        <ele>198</ele>
        <time>2018-10-12T09:53:09Z</time>
      </trkpt>
      <trkpt lat="46.06399" lon="4.72464">
        <ele>197</ele>
        <time>2018-10-12T09:53:11Z</time>
      </trkpt>
      <trkpt lat="46.06396" lon="4.72459">
        <ele>197</ele>
        <time>2018-10-12T09:53:12Z</time>
      </trkpt>
      <trkpt lat="46.06389" lon="4.72452">
        <ele>197</ele>
        <time>2018-10-12T09:53:14Z</time>
      </trkpt>
      <trkpt lat="46.06385" lon="4.72448">
        <ele>197</ele>
        <time>2018-10-12T09:53:15Z</time>
      </trkpt>
      <trkpt lat="46.06384" lon="4.72442">
        <ele>197</ele>
        <time>2018-10-12T09:53:16Z</time>
      </trkpt>
      <trkpt lat="46.06382" lon="4.72436">
        <ele>197</ele>
        <time>2018-10-12T09:53:17Z</time>
      </trkpt>
      <trkpt lat="46.0638" lon="4.72429">
        <ele>197</ele>
        <time>2018-10-12T09:53:18Z</time>
      </trkpt>
      <trkpt lat="46.06376" lon="4.72422">
        <ele>197</ele>
        <time>2018-10-12T09:53:19Z</time>
      </trkpt>
      <trkpt lat="46.06374" lon="4.72415">
        <ele>196</ele>
        <time>2018-10-12T09:53:20Z</time>
      </trkpt>
      <trkpt lat="46.06371" lon="4.72409">
        <ele>196</ele>
        <time>2018-10-12T09:53:21Z</time>
      </trkpt>
      <trkpt lat="46.06368" lon="4.72402">
        <ele>196</ele>
        <time>2018-10-12T09:53:22Z</time>
      </trkpt>
      <trkpt lat="46.06366" lon="4.72397">
        <ele>196</ele>
        <time>2018-10-12T09:53:23Z</time>
      </trkpt>
      <trkpt lat="46.06365" lon="4.7239">
        <ele>196</ele>
        <time>2018-10-12T09:53:24Z</time>
      </trkpt>
      <trkpt lat="46.06364" lon="4.72384">
        <ele>196</ele>
        <time>2018-10-12T09:53:25Z</time>
      </trkpt>
      <trkpt lat="46.06366" lon="4.72378">
        <ele>196</ele>
        <time>2018-10-12T09:53:26Z</time>
      </trkpt>
      <trkpt lat="46.06367" lon="4.72371">
        <ele>196</ele>
        <time>2018-10-12T09:53:27Z</time>
      </trkpt>
      <trkpt lat="46.06369" lon="4.72365">
        <ele>195</ele>
        <time>2018-10-12T09:53:28Z</time>
      </trkpt>
      <trkpt lat="46.06371" lon="4.72359">
        <ele>195</ele>
        <time>2018-10-12T09:53:29Z</time>
      </trkpt>
      <trkpt lat="46.06371" lon="4.72351">
        <ele>195</ele>
        <time>2018-10-12T09:53:30Z</time>
      </trkpt>
      <trkpt lat="46.06372" lon="4.72344">
        <ele>195</ele>
        <time>2018-10-12T09:53:31Z</time>
      </trkpt>
      <trkpt lat="46.06372" lon="4.72336">
        <ele>195</ele>
        <time>2018-10-12T09:53:32Z</time>
      </trkpt>
      <trkpt lat="46.06372" lon="4.72327">
        <ele>194</ele>
        <time>2018-10-12T09:53:33Z</time>
      </trkpt>
      <trkpt lat="46.06373" lon="4.7232">
        <ele>194</ele>
        <time>2018-10-12T09:53:34Z</time>
      </trkpt>
      <trkpt lat="46.06373" lon="4.72313">
        <ele>193</ele>
        <time>2018-10-12T09:53:35Z</time>
      </trkpt>
      <trkpt lat="46.06372" lon="4.72302">
        <ele>193</ele>
        <time>2018-10-12T09:53:38Z</time>
      </trkpt>
      <trkpt lat="46.06372" lon="4.72299">
        <ele>193</ele>
        <time>2018-10-12T09:53:39Z</time>
      </trkpt>
      <trkpt lat="46.06376" lon="4.72288">
        <ele>193</ele>
        <time>2018-10-12T09:53:45Z</time>
      </trkpt>
      <trkpt lat="46.06377" lon="4.72287">
        <ele>193</ele>
        <time>2018-10-12T09:53:46Z</time>
      </trkpt>
      <trkpt lat="46.06383" lon="4.72283">
        <ele>193</ele>
        <time>2018-10-12T09:54:01Z</time>
      </trkpt>
      <trkpt lat="46.06389" lon="4.72283">
        <ele>192</ele>
        <time>2018-10-12T09:54:02Z</time>
      </trkpt>
      <trkpt lat="46.06393" lon="4.72284">
        <ele>192</ele>
        <time>2018-10-12T09:54:03Z</time>
      </trkpt>
      <trkpt lat="46.06398" lon="4.72282">
        <ele>192</ele>
        <time>2018-10-12T09:54:04Z</time>
      </trkpt>
      <trkpt lat="46.06403" lon="4.72281">
        <ele>192</ele>
        <time>2018-10-12T09:54:05Z</time>
      </trkpt>
      <trkpt lat="46.06407" lon="4.72282">
        <ele>192</ele>
        <time>2018-10-12T09:54:06Z</time>
      </trkpt>
      <trkpt lat="46.06412" lon="4.72283">
        <ele>192</ele>
        <time>2018-10-12T09:54:07Z</time>
      </trkpt>
      <trkpt lat="46.06416" lon="4.72285">
        <ele>192</ele>
        <time>2018-10-12T09:54:08Z</time>
      </trkpt>
      <trkpt lat="46.06425" lon="4.72286">
        <ele>190</ele>
        <time>2018-10-12T09:54:10Z</time>
      </trkpt>
      <trkpt lat="46.06428" lon="4.72283">
        <ele>190</ele>
        <time>2018-10-12T09:54:11Z</time>
      </trkpt>
      <trkpt lat="46.06432" lon="4.72272">
        <ele>190</ele>
        <time>2018-10-12T09:54:13Z</time>
      </trkpt>
      <trkpt lat="46.06431" lon="4.72266">
        <ele>190</ele>
        <time>2018-10-12T09:54:14Z</time>
      </trkpt>
      <trkpt lat="46.06425" lon="4.72257">
        <ele>189</ele>
        <time>2018-10-12T09:54:16Z</time>
      </trkpt>
      <trkpt lat="46.06421" lon="4.72252">
        <ele>189</ele>
        <time>2018-10-12T09:54:17Z</time>
      </trkpt>
      <trkpt lat="46.06417" lon="4.72247">
        <ele>189</ele>
        <time>2018-10-12T09:54:18Z</time>
      </trkpt>
      <trkpt lat="46.06414" lon="4.7224">
        <ele>189</ele>
        <time>2018-10-12T09:54:19Z</time>
      </trkpt>
      <trkpt lat="46.06411" lon="4.72232">
        <ele>190</ele>
        <time>2018-10-12T09:54:20Z</time>
      </trkpt>
      <trkpt lat="46.06408" lon="4.72224">
        <ele>190</ele>
        <time>2018-10-12T09:54:21Z</time>
      </trkpt>
      <trkpt lat="46.06406" lon="4.72216">
        <ele>190</ele>
        <time>2018-10-12T09:54:22Z</time>
      </trkpt>
      <trkpt lat="46.06403" lon="4.72208">
        <ele>190</ele>
        <time>2018-10-12T09:54:23Z</time>
      </trkpt>
      <trkpt lat="46.064" lon="4.72199">
        <ele>189</ele>
        <time>2018-10-12T09:54:24Z</time>
      </trkpt>
      <trkpt lat="46.06396" lon="4.72189">
        <ele>189</ele>
        <time>2018-10-12T09:54:25Z</time>
      </trkpt>
      <trkpt lat="46.06393" lon="4.72179">
        <ele>189</ele>
        <time>2018-10-12T09:54:26Z</time>
      </trkpt>
      <trkpt lat="46.06391" lon="4.72169">
        <ele>189</ele>
        <time>2018-10-12T09:54:27Z</time>
      </trkpt>
      <trkpt lat="46.06387" lon="4.7216">
        <ele>188</ele>
        <time>2018-10-12T09:54:28Z</time>
      </trkpt>
      <trkpt lat="46.06384" lon="4.7215">
        <ele>189</ele>
        <time>2018-10-12T09:54:29Z</time>
      </trkpt>
      <trkpt lat="46.06382" lon="4.72142">
        <ele>189</ele>
        <time>2018-10-12T09:54:30Z</time>
      </trkpt>
      <trkpt lat="46.0638" lon="4.72132">
        <ele>189</ele>
        <time>2018-10-12T09:54:31Z</time>
      </trkpt>
      <trkpt lat="46.06377" lon="4.72123">
        <ele>189</ele>
        <time>2018-10-12T09:54:32Z</time>
      </trkpt>
      <trkpt lat="46.06374" lon="4.72115">
        <ele>189</ele>
        <time>2018-10-12T09:54:33Z</time>
      </trkpt>
      <trkpt lat="46.0637" lon="4.72107">
        <ele>189</ele>
        <time>2018-10-12T09:54:34Z</time>
      </trkpt>
      <trkpt lat="46.06368" lon="4.72099">
        <ele>189</ele>
        <time>2018-10-12T09:54:35Z</time>
      </trkpt>
      <trkpt lat="46.06366" lon="4.72091">
        <ele>189</ele>
        <time>2018-10-12T09:54:36Z</time>
      </trkpt>
      <trkpt lat="46.06363" lon="4.72082">
        <ele>189</ele>
        <time>2018-10-12T09:54:37Z</time>
      </trkpt>
      <trkpt lat="46.0636" lon="4.72075">
        <ele>189</ele>
        <time>2018-10-12T09:54:38Z</time>
      </trkpt>
      <trkpt lat="46.06357" lon="4.72067">
        <ele>189</ele>
        <time>2018-10-12T09:54:39Z</time>
      </trkpt>
      <trkpt lat="46.06355" lon="4.72059">
        <ele>189</ele>
        <time>2018-10-12T09:54:40Z</time>
      </trkpt>
      <trkpt lat="46.06352" lon="4.72052">
        <ele>189</ele>
        <time>2018-10-12T09:54:41Z</time>
      </trkpt>
      <trkpt lat="46.0635" lon="4.72045">
        <ele>189</ele>
        <time>2018-10-12T09:54:42Z</time>
      </trkpt>
      <trkpt lat="46.06348" lon="4.72039">
        <ele>189</ele>
        <time>2018-10-12T09:54:43Z</time>
      </trkpt>
      <trkpt lat="46.06345" lon="4.72031">
        <ele>189</ele>
        <time>2018-10-12T09:54:44Z</time>
      </trkpt>
      <trkpt lat="46.06343" lon="4.72025">
        <ele>189</ele>
        <time>2018-10-12T09:54:45Z</time>
      </trkpt>
      <trkpt lat="46.06341" lon="4.72018">
        <ele>189</ele>
        <time>2018-10-12T09:54:46Z</time>
      </trkpt>
      <trkpt lat="46.06339" lon="4.72011">
        <ele>189</ele>
        <time>2018-10-12T09:54:47Z</time>
      </trkpt>
      <trkpt lat="46.06335" lon="4.72">
        <ele>189</ele>
        <time>2018-10-12T09:54:49Z</time>
      </trkpt>
      <trkpt lat="46.06333" lon="4.71995">
        <ele>189</ele>
        <time>2018-10-12T09:54:50Z</time>
      </trkpt>
      <trkpt lat="46.0633" lon="4.71988">
        <ele>189</ele>
        <time>2018-10-12T09:54:52Z</time>
      </trkpt>
      <trkpt lat="46.06327" lon="4.71983">
        <ele>190</ele>
        <time>2018-10-12T09:54:53Z</time>
      </trkpt>
      <trkpt lat="46.06324" lon="4.71973">
        <ele>190</ele>
        <time>2018-10-12T09:54:55Z</time>
      </trkpt>
      <trkpt lat="46.06323" lon="4.71968">
        <ele>190</ele>
        <time>2018-10-12T09:54:56Z</time>
      </trkpt>
      <trkpt lat="46.06321" lon="4.71958">
        <ele>190</ele>
        <time>2018-10-12T09:54:58Z</time>
      </trkpt>
      <trkpt lat="46.0632" lon="4.71953">
        <ele>190</ele>
        <time>2018-10-12T09:54:59Z</time>
      </trkpt>
      <trkpt lat="46.0632" lon="4.71947">
        <ele>190</ele>
        <time>2018-10-12T09:55:00Z</time>
      </trkpt>
      <trkpt lat="46.06319" lon="4.71939">
        <ele>190</ele>
        <time>2018-10-12T09:55:01Z</time>
      </trkpt>
      <trkpt lat="46.06316" lon="4.71932">
        <ele>190</ele>
        <time>2018-10-12T09:55:02Z</time>
      </trkpt>
      <trkpt lat="46.06314" lon="4.71924">
        <ele>190</ele>
        <time>2018-10-12T09:55:03Z</time>
      </trkpt>
      <trkpt lat="46.06312" lon="4.71915">
        <ele>189</ele>
        <time>2018-10-12T09:55:04Z</time>
      </trkpt>
      <trkpt lat="46.06309" lon="4.71907">
        <ele>189</ele>
        <time>2018-10-12T09:55:05Z</time>
      </trkpt>
      <trkpt lat="46.06307" lon="4.71899">
        <ele>189</ele>
        <time>2018-10-12T09:55:06Z</time>
      </trkpt>
      <trkpt lat="46.06303" lon="4.71873">
        <ele>189</ele>
        <time>2018-10-12T09:55:09Z</time>
      </trkpt>
      <trkpt lat="46.06301" lon="4.71865">
        <ele>189</ele>
        <time>2018-10-12T09:55:10Z</time>
      </trkpt>
      <trkpt lat="46.06299" lon="4.71858">
        <ele>189</ele>
        <time>2018-10-12T09:55:11Z</time>
      </trkpt>
      <trkpt lat="46.06298" lon="4.7185">
        <ele>189</ele>
        <time>2018-10-12T09:55:12Z</time>
      </trkpt>
      <trkpt lat="46.06296" lon="4.71844">
        <ele>189</ele>
        <time>2018-10-12T09:55:13Z</time>
      </trkpt>
      <trkpt lat="46.06294" lon="4.71837">
        <ele>189</ele>
        <time>2018-10-12T09:55:14Z</time>
      </trkpt>
      <trkpt lat="46.06292" lon="4.71831">
        <ele>189</ele>
        <time>2018-10-12T09:55:15Z</time>
      </trkpt>
      <trkpt lat="46.0629" lon="4.71819">
        <ele>189</ele>
        <time>2018-10-12T09:55:17Z</time>
      </trkpt>
      <trkpt lat="46.06289" lon="4.71813">
        <ele>189</ele>
        <time>2018-10-12T09:55:18Z</time>
      </trkpt>
      <trkpt lat="46.06286" lon="4.71801">
        <ele>190</ele>
        <time>2018-10-12T09:55:20Z</time>
      </trkpt>
      <trkpt lat="46.06284" lon="4.71794">
        <ele>190</ele>
        <time>2018-10-12T09:55:21Z</time>
      </trkpt>
      <trkpt lat="46.06282" lon="4.71787">
        <ele>190</ele>
        <time>2018-10-12T09:55:22Z</time>
      </trkpt>
      <trkpt lat="46.0628" lon="4.7178">
        <ele>190</ele>
        <time>2018-10-12T09:55:23Z</time>
      </trkpt>
      <trkpt lat="46.06278" lon="4.71773">
        <ele>190</ele>
        <time>2018-10-12T09:55:24Z</time>
      </trkpt>
      <trkpt lat="46.06276" lon="4.71767">
        <ele>190</ele>
        <time>2018-10-12T09:55:25Z</time>
      </trkpt>
      <trkpt lat="46.06274" lon="4.7176">
        <ele>190</ele>
        <time>2018-10-12T09:55:26Z</time>
      </trkpt>
      <trkpt lat="46.06271" lon="4.71751">
        <ele>190</ele>
        <time>2018-10-12T09:55:27Z</time>
      </trkpt>
      <trkpt lat="46.0627" lon="4.71745">
        <ele>190</ele>
        <time>2018-10-12T09:55:28Z</time>
      </trkpt>
      <trkpt lat="46.06267" lon="4.71738">
        <ele>190</ele>
        <time>2018-10-12T09:55:29Z</time>
      </trkpt>
      <trkpt lat="46.06265" lon="4.71731">
        <ele>190</ele>
        <time>2018-10-12T09:55:30Z</time>
      </trkpt>
      <trkpt lat="46.06262" lon="4.71726">
        <ele>190</ele>
        <time>2018-10-12T09:55:31Z</time>
      </trkpt>
      <trkpt lat="46.06259" lon="4.71716">
        <ele>190</ele>
        <time>2018-10-12T09:55:33Z</time>
      </trkpt>
      <trkpt lat="46.06256" lon="4.71709">
        <ele>190</ele>
        <time>2018-10-12T09:55:34Z</time>
      </trkpt>
      <trkpt lat="46.06254" lon="4.71702">
        <ele>190</ele>
        <time>2018-10-12T09:55:35Z</time>
      </trkpt>
      <trkpt lat="46.06251" lon="4.71695">
        <ele>190</ele>
        <time>2018-10-12T09:55:36Z</time>
      </trkpt>
      <trkpt lat="46.06249" lon="4.71689">
        <ele>191</ele>
        <time>2018-10-12T09:55:37Z</time>
      </trkpt>
      <trkpt lat="46.06246" lon="4.71682">
        <ele>191</ele>
        <time>2018-10-12T09:55:38Z</time>
      </trkpt>
      <trkpt lat="46.06243" lon="4.71677">
        <ele>191</ele>
        <time>2018-10-12T09:55:39Z</time>
      </trkpt>
      <trkpt lat="46.06241" lon="4.7167">
        <ele>191</ele>
        <time>2018-10-12T09:55:40Z</time>
      </trkpt>
      <trkpt lat="46.06238" lon="4.71664">
        <ele>190</ele>
        <time>2018-10-12T09:55:41Z</time>
      </trkpt>
      <trkpt lat="46.06235" lon="4.71658">
        <ele>191</ele>
        <time>2018-10-12T09:55:42Z</time>
      </trkpt>
      <trkpt lat="46.06233" lon="4.71653">
        <ele>191</ele>
        <time>2018-10-12T09:55:43Z</time>
      </trkpt>
      <trkpt lat="46.0623" lon="4.71648">
        <ele>191</ele>
        <time>2018-10-12T09:55:44Z</time>
      </trkpt>
      <trkpt lat="46.06224" lon="4.71639">
        <ele>191</ele>
        <time>2018-10-12T09:55:46Z</time>
      </trkpt>
      <trkpt lat="46.06222" lon="4.71634">
        <ele>191</ele>
        <time>2018-10-12T09:55:47Z</time>
      </trkpt>
      <trkpt lat="46.06217" lon="4.71624">
        <ele>191</ele>
        <time>2018-10-12T09:55:49Z</time>
      </trkpt>
      <trkpt lat="46.06213" lon="4.71618">
        <ele>191</ele>
        <time>2018-10-12T09:55:50Z</time>
      </trkpt>
      <trkpt lat="46.0621" lon="4.71614">
        <ele>191</ele>
        <time>2018-10-12T09:55:51Z</time>
      </trkpt>
      <trkpt lat="46.06208" lon="4.71608">
        <ele>191</ele>
        <time>2018-10-12T09:55:52Z</time>
      </trkpt>
      <trkpt lat="46.06202" lon="4.71599">
        <ele>191</ele>
        <time>2018-10-12T09:55:54Z</time>
      </trkpt>
      <trkpt lat="46.06198" lon="4.71595">
        <ele>191</ele>
        <time>2018-10-12T09:55:55Z</time>
      </trkpt>
      <trkpt lat="46.06195" lon="4.7159">
        <ele>191</ele>
        <time>2018-10-12T09:55:56Z</time>
      </trkpt>
      <trkpt lat="46.06191" lon="4.71585">
        <ele>191</ele>
        <time>2018-10-12T09:55:57Z</time>
      </trkpt>
      <trkpt lat="46.06185" lon="4.71576">
        <ele>191</ele>
        <time>2018-10-12T09:55:59Z</time>
      </trkpt>
      <trkpt lat="46.06182" lon="4.71573">
        <ele>191</ele>
        <time>2018-10-12T09:56:00Z</time>
      </trkpt>
      <trkpt lat="46.06176" lon="4.71563">
        <ele>191</ele>
        <time>2018-10-12T09:56:02Z</time>
      </trkpt>
      <trkpt lat="46.06173" lon="4.71559">
        <ele>191</ele>
        <time>2018-10-12T09:56:03Z</time>
      </trkpt>
      <trkpt lat="46.06167" lon="4.7155">
        <ele>191</ele>
        <time>2018-10-12T09:56:05Z</time>
      </trkpt>
      <trkpt lat="46.06164" lon="4.71546">
        <ele>192</ele>
        <time>2018-10-12T09:56:06Z</time>
      </trkpt>
      <trkpt lat="46.06158" lon="4.71538">
        <ele>192</ele>
        <time>2018-10-12T09:56:08Z</time>
      </trkpt>
      <trkpt lat="46.06155" lon="4.71534">
        <ele>192</ele>
        <time>2018-10-12T09:56:09Z</time>
      </trkpt>
      <trkpt lat="46.06151" lon="4.71529">
        <ele>192</ele>
        <time>2018-10-12T09:56:10Z</time>
      </trkpt>
      <trkpt lat="46.06147" lon="4.71525">
        <ele>192</ele>
        <time>2018-10-12T09:56:11Z</time>
      </trkpt>
      <trkpt lat="46.06142" lon="4.71515">
        <ele>192</ele>
        <time>2018-10-12T09:56:13Z</time>
      </trkpt>
      <trkpt lat="46.0614" lon="4.71509">
        <ele>192</ele>
        <time>2018-10-12T09:56:14Z</time>
      </trkpt>
      <trkpt lat="46.06138" lon="4.71504">
        <ele>192</ele>
        <time>2018-10-12T09:56:15Z</time>
      </trkpt>
      <trkpt lat="46.06135" lon="4.71498">
        <ele>192</ele>
        <time>2018-10-12T09:56:16Z</time>
      </trkpt>
      <trkpt lat="46.06132" lon="4.71485">
        <ele>192</ele>
        <time>2018-10-12T09:56:18Z</time>
      </trkpt>
      <trkpt lat="46.06131" lon="4.71479">
        <ele>192</ele>
        <time>2018-10-12T09:56:19Z</time>
      </trkpt>
      <trkpt lat="46.06128" lon="4.71467">
        <ele>192</ele>
        <time>2018-10-12T09:56:21Z</time>
      </trkpt>
      <trkpt lat="46.06125" lon="4.71461">
        <ele>192</ele>
        <time>2018-10-12T09:56:22Z</time>
      </trkpt>
      <trkpt lat="46.06124" lon="4.71454">
        <ele>193</ele>
        <time>2018-10-12T09:56:23Z</time>
      </trkpt>
      <trkpt lat="46.06122" lon="4.71448">
        <ele>193</ele>
        <time>2018-10-12T09:56:24Z</time>
      </trkpt>
      <trkpt lat="46.06119" lon="4.71441">
        <ele>193</ele>
        <time>2018-10-12T09:56:25Z</time>
      </trkpt>
      <trkpt lat="46.06117" lon="4.71433">
        <ele>193</ele>
        <time>2018-10-12T09:56:26Z</time>
      </trkpt>
      <trkpt lat="46.06116" lon="4.71426">
        <ele>193</ele>
        <time>2018-10-12T09:56:27Z</time>
      </trkpt>
      <trkpt lat="46.06114" lon="4.71419">
        <ele>193</ele>
        <time>2018-10-12T09:56:28Z</time>
      </trkpt>
      <trkpt lat="46.06112" lon="4.71412">
        <ele>193</ele>
        <time>2018-10-12T09:56:29Z</time>
      </trkpt>
      <trkpt lat="46.0611" lon="4.71405">
        <ele>193</ele>
        <time>2018-10-12T09:56:30Z</time>
      </trkpt>
      <trkpt lat="46.06109" lon="4.71397">
        <ele>193</ele>
        <time>2018-10-12T09:56:31Z</time>
      </trkpt>
      <trkpt lat="46.06107" lon="4.71391">
        <ele>193</ele>
        <time>2018-10-12T09:56:32Z</time>
      </trkpt>
      <trkpt lat="46.06105" lon="4.71384">
        <ele>193</ele>
        <time>2018-10-12T09:56:33Z</time>
      </trkpt>
      <trkpt lat="46.06102" lon="4.71377">
        <ele>193</ele>
        <time>2018-10-12T09:56:34Z</time>
      </trkpt>
      <trkpt lat="46.06101" lon="4.7137">
        <ele>193</ele>
        <time>2018-10-12T09:56:35Z</time>
      </trkpt>
      <trkpt lat="46.06099" lon="4.71365">
        <ele>193</ele>
        <time>2018-10-12T09:56:36Z</time>
      </trkpt>
      <trkpt lat="46.06096" lon="4.71353">
        <ele>193</ele>
        <time>2018-10-12T09:56:38Z</time>
      </trkpt>
      <trkpt lat="46.06094" lon="4.71348">
        <ele>193</ele>
        <time>2018-10-12T09:56:39Z</time>
      </trkpt>
      <trkpt lat="46.06089" lon="4.71337">
        <ele>193</ele>
        <time>2018-10-12T09:56:41Z</time>
      </trkpt>
      <trkpt lat="46.06086" lon="4.71333">
        <ele>193</ele>
        <time>2018-10-12T09:56:42Z</time>
      </trkpt>
      <trkpt lat="46.06084" lon="4.71326">
        <ele>193</ele>
        <time>2018-10-12T09:56:43Z</time>
      </trkpt>
      <trkpt lat="46.06082" lon="4.7132">
        <ele>193</ele>
        <time>2018-10-12T09:56:44Z</time>
      </trkpt>
      <trkpt lat="46.06079" lon="4.71312">
        <ele>193</ele>
        <time>2018-10-12T09:56:45Z</time>
      </trkpt>
      <trkpt lat="46.06078" lon="4.71308">
        <ele>193</ele>
        <time>2018-10-12T09:56:46Z</time>
      </trkpt>
      <trkpt lat="46.06075" lon="4.71301">
        <ele>193</ele>
        <time>2018-10-12T09:56:47Z</time>
      </trkpt>
      <trkpt lat="46.06073" lon="4.71296">
        <ele>193</ele>
        <time>2018-10-12T09:56:48Z</time>
      </trkpt>
      <trkpt lat="46.06071" lon="4.7129">
        <ele>193</ele>
        <time>2018-10-12T09:56:49Z</time>
      </trkpt>
      <trkpt lat="46.0607" lon="4.71284">
        <ele>193</ele>
        <time>2018-10-12T09:56:50Z</time>
      </trkpt>
      <trkpt lat="46.06067" lon="4.71273">
        <ele>193</ele>
        <time>2018-10-12T09:56:52Z</time>
      </trkpt>
      <trkpt lat="46.06065" lon="4.71268">
        <ele>193</ele>
        <time>2018-10-12T09:56:53Z</time>
      </trkpt>
      <trkpt lat="46.06063" lon="4.71262">
        <ele>193</ele>
        <time>2018-10-12T09:56:54Z</time>
      </trkpt>
      <trkpt lat="46.0606" lon="4.71257">
        <ele>193</ele>
        <time>2018-10-12T09:56:55Z</time>
      </trkpt>
      <trkpt lat="46.06058" lon="4.71251">
        <ele>193</ele>
        <time>2018-10-12T09:56:56Z</time>
      </trkpt>
      <trkpt lat="46.06056" lon="4.71244">
        <ele>193</ele>
        <time>2018-10-12T09:56:57Z</time>
      </trkpt>
      <trkpt lat="46.06054" lon="4.71237">
        <ele>193</ele>
        <time>2018-10-12T09:56:58Z</time>
      </trkpt>
      <trkpt lat="46.06052" lon="4.71231">
        <ele>193</ele>
        <time>2018-10-12T09:56:59Z</time>
      </trkpt>
      <trkpt lat="46.0605" lon="4.71223">
        <ele>193</ele>
        <time>2018-10-12T09:57:00Z</time>
      </trkpt>
      <trkpt lat="46.06047" lon="4.71215">
        <ele>193</ele>
        <time>2018-10-12T09:57:01Z</time>
      </trkpt>
      <trkpt lat="46.06044" lon="4.71209">
        <ele>193</ele>
        <time>2018-10-12T09:57:02Z</time>
      </trkpt>
      <trkpt lat="46.06042" lon="4.71201">
        <ele>193</ele>
        <time>2018-10-12T09:57:03Z</time>
      </trkpt>
      <trkpt lat="46.06039" lon="4.71194">
        <ele>193</ele>
        <time>2018-10-12T09:57:04Z</time>
      </trkpt>
      <trkpt lat="46.06037" lon="4.71188">
        <ele>193</ele>
        <time>2018-10-12T09:57:05Z</time>
      </trkpt>
      <trkpt lat="46.06034" lon="4.71181">
        <ele>193</ele>
        <time>2018-10-12T09:57:06Z</time>
      </trkpt>
      <trkpt lat="46.06031" lon="4.71174">
        <ele>193</ele>
        <time>2018-10-12T09:57:07Z</time>
      </trkpt>
      <trkpt lat="46.0603" lon="4.71168">
        <ele>193</ele>
        <time>2018-10-12T09:57:08Z</time>
      </trkpt>
      <trkpt lat="46.06027" lon="4.71161">
        <ele>193</ele>
        <time>2018-10-12T09:57:09Z</time>
      </trkpt>
      <trkpt lat="46.06025" lon="4.71154">
        <ele>193</ele>
        <time>2018-10-12T09:57:10Z</time>
      </trkpt>
      <trkpt lat="46.06022" lon="4.71148">
        <ele>193</ele>
        <time>2018-10-12T09:57:11Z</time>
      </trkpt>
      <trkpt lat="46.0602" lon="4.71141">
        <ele>193</ele>
        <time>2018-10-12T09:57:12Z</time>
      </trkpt>
      <trkpt lat="46.06017" lon="4.71134">
        <ele>193</ele>
        <time>2018-10-12T09:57:13Z</time>
      </trkpt>
      <trkpt lat="46.06014" lon="4.71127">
        <ele>193</ele>
        <time>2018-10-12T09:57:14Z</time>
      </trkpt>
      <trkpt lat="46.06012" lon="4.7112">
        <ele>193</ele>
        <time>2018-10-12T09:57:15Z</time>
      </trkpt>
      <trkpt lat="46.06009" lon="4.71114">
        <ele>193</ele>
        <time>2018-10-12T09:57:16Z</time>
      </trkpt>
      <trkpt lat="46.06006" lon="4.71107">
        <ele>193</ele>
        <time>2018-10-12T09:57:17Z</time>
      </trkpt>
      <trkpt lat="46.06003" lon="4.711">
        <ele>193</ele>
        <time>2018-10-12T09:57:18Z</time>
      </trkpt>
      <trkpt lat="46.06" lon="4.71094">
        <ele>193</ele>
        <time>2018-10-12T09:57:19Z</time>
      </trkpt>
      <trkpt lat="46.05998" lon="4.71087">
        <ele>193</ele>
        <time>2018-10-12T09:57:20Z</time>
      </trkpt>
      <trkpt lat="46.05996" lon="4.71081">
        <ele>193</ele>
        <time>2018-10-12T09:57:21Z</time>
      </trkpt>
      <trkpt lat="46.05992" lon="4.7107">
        <ele>193</ele>
        <time>2018-10-12T09:57:23Z</time>
      </trkpt>
      <trkpt lat="46.0599" lon="4.71064">
        <ele>193</ele>
        <time>2018-10-12T09:57:24Z</time>
      </trkpt>
      <trkpt lat="46.05986" lon="4.71055">
        <ele>193</ele>
        <time>2018-10-12T09:57:26Z</time>
      </trkpt>
      <trkpt lat="46.05983" lon="4.7105">
        <ele>193</ele>
        <time>2018-10-12T09:57:27Z</time>
      </trkpt>
      <trkpt lat="46.05979" lon="4.71041">
        <ele>192</ele>
        <time>2018-10-12T09:57:29Z</time>
      </trkpt>
      <trkpt lat="46.05976" lon="4.71034">
        <ele>192</ele>
        <time>2018-10-12T09:57:30Z</time>
      </trkpt>
      <trkpt lat="46.05973" lon="4.71027">
        <ele>193</ele>
        <time>2018-10-12T09:57:31Z</time>
      </trkpt>
      <trkpt lat="46.0597" lon="4.71021">
        <ele>193</ele>
        <time>2018-10-12T09:57:32Z</time>
      </trkpt>
      <trkpt lat="46.05968" lon="4.71014">
        <ele>193</ele>
        <time>2018-10-12T09:57:33Z</time>
      </trkpt>
      <trkpt lat="46.05966" lon="4.71007">
        <ele>193</ele>
        <time>2018-10-12T09:57:34Z</time>
      </trkpt>
      <trkpt lat="46.05963" lon="4.71">
        <ele>193</ele>
        <time>2018-10-12T09:57:35Z</time>
      </trkpt>
      <trkpt lat="46.05961" lon="4.70993">
        <ele>193</ele>
        <time>2018-10-12T09:57:36Z</time>
      </trkpt>
      <trkpt lat="46.05958" lon="4.70985">
        <ele>193</ele>
        <time>2018-10-12T09:57:37Z</time>
      </trkpt>
      <trkpt lat="46.05956" lon="4.70977">
        <ele>193</ele>
        <time>2018-10-12T09:57:38Z</time>
      </trkpt>
      <trkpt lat="46.05954" lon="4.70969">
        <ele>193</ele>
        <time>2018-10-12T09:57:39Z</time>
      </trkpt>
      <trkpt lat="46.05952" lon="4.70962">
        <ele>193</ele>
        <time>2018-10-12T09:57:40Z</time>
      </trkpt>
      <trkpt lat="46.0595" lon="4.70955">
        <ele>193</ele>
        <time>2018-10-12T09:57:41Z</time>
      </trkpt>
      <trkpt lat="46.05949" lon="4.70947">
        <ele>193</ele>
        <time>2018-10-12T09:57:42Z</time>
      </trkpt>
      <trkpt lat="46.05947" lon="4.7094">
        <ele>193</ele>
        <time>2018-10-12T09:57:43Z</time>
      </trkpt>
      <trkpt lat="46.05945" lon="4.70933">
        <ele>193</ele>
        <time>2018-10-12T09:57:44Z</time>
      </trkpt>
      <trkpt lat="46.05944" lon="4.70926">
        <ele>193</ele>
        <time>2018-10-12T09:57:45Z</time>
      </trkpt>
      <trkpt lat="46.05942" lon="4.7092">
        <ele>194</ele>
        <time>2018-10-12T09:57:46Z</time>
      </trkpt>
      <trkpt lat="46.0594" lon="4.70913">
        <ele>194</ele>
        <time>2018-10-12T09:57:47Z</time>
      </trkpt>
      <trkpt lat="46.0594" lon="4.70906">
        <ele>194</ele>
        <time>2018-10-12T09:57:48Z</time>
      </trkpt>
      <trkpt lat="46.05939" lon="4.70899">
        <ele>194</ele>
        <time>2018-10-12T09:57:49Z</time>
      </trkpt>
      <trkpt lat="46.05938" lon="4.70891">
        <ele>194</ele>
        <time>2018-10-12T09:57:50Z</time>
      </trkpt>
      <trkpt lat="46.05937" lon="4.70882">
        <ele>194</ele>
        <time>2018-10-12T09:57:51Z</time>
      </trkpt>
      <trkpt lat="46.05936" lon="4.70874">
        <ele>194</ele>
        <time>2018-10-12T09:57:52Z</time>
      </trkpt>
      <trkpt lat="46.05935" lon="4.70866">
        <ele>194</ele>
        <time>2018-10-12T09:57:53Z</time>
      </trkpt>
      <trkpt lat="46.05935" lon="4.70857">
        <ele>194</ele>
        <time>2018-10-12T09:57:54Z</time>
      </trkpt>
      <trkpt lat="46.05934" lon="4.70848">
        <ele>194</ele>
        <time>2018-10-12T09:57:55Z</time>
      </trkpt>
      <trkpt lat="46.05934" lon="4.70839">
        <ele>194</ele>
        <time>2018-10-12T09:57:56Z</time>
      </trkpt>
      <trkpt lat="46.05933" lon="4.7083">
        <ele>194</ele>
        <time>2018-10-12T09:57:57Z</time>
      </trkpt>
      <trkpt lat="46.05932" lon="4.70822">
        <ele>194</ele>
        <time>2018-10-12T09:57:58Z</time>
      </trkpt>
      <trkpt lat="46.05932" lon="4.70815">
        <ele>194</ele>
        <time>2018-10-12T09:57:59Z</time>
      </trkpt>
      <trkpt lat="46.05929" lon="4.70808">
        <ele>194</ele>
        <time>2018-10-12T09:58:00Z</time>
      </trkpt>
      <trkpt lat="46.05928" lon="4.708">
        <ele>194</ele>
        <time>2018-10-12T09:58:01Z</time>
      </trkpt>
      <trkpt lat="46.05927" lon="4.70793">
        <ele>194</ele>
        <time>2018-10-12T09:58:02Z</time>
      </trkpt>
      <trkpt lat="46.05927" lon="4.70785">
        <ele>194</ele>
        <time>2018-10-12T09:58:03Z</time>
      </trkpt>
      <trkpt lat="46.05926" lon="4.70779">
        <ele>194</ele>
        <time>2018-10-12T09:58:04Z</time>
      </trkpt>
      <trkpt lat="46.05926" lon="4.70772">
        <ele>194</ele>
        <time>2018-10-12T09:58:05Z</time>
      </trkpt>
      <trkpt lat="46.05925" lon="4.70765">
        <ele>194</ele>
        <time>2018-10-12T09:58:06Z</time>
      </trkpt>
      <trkpt lat="46.05924" lon="4.70758">
        <ele>194</ele>
        <time>2018-10-12T09:58:07Z</time>
      </trkpt>
      <trkpt lat="46.05921" lon="4.7075">
        <ele>194</ele>
        <time>2018-10-12T09:58:08Z</time>
      </trkpt>
      <trkpt lat="46.0592" lon="4.70744">
        <ele>194</ele>
        <time>2018-10-12T09:58:09Z</time>
      </trkpt>
      <trkpt lat="46.05919" lon="4.70737">
        <ele>194</ele>
        <time>2018-10-12T09:58:10Z</time>
      </trkpt>
      <trkpt lat="46.05918" lon="4.7073">
        <ele>194</ele>
        <time>2018-10-12T09:58:11Z</time>
      </trkpt>
      <trkpt lat="46.05917" lon="4.70723">
        <ele>194</ele>
        <time>2018-10-12T09:58:12Z</time>
      </trkpt>
      <trkpt lat="46.05915" lon="4.70713">
        <ele>194</ele>
        <time>2018-10-12T09:58:13Z</time>
      </trkpt>
      <trkpt lat="46.05913" lon="4.70705">
        <ele>194</ele>
        <time>2018-10-12T09:58:14Z</time>
      </trkpt>
      <trkpt lat="46.05912" lon="4.70697">
        <ele>194</ele>
        <time>2018-10-12T09:58:15Z</time>
      </trkpt>
      <trkpt lat="46.05911" lon="4.7069">
        <ele>194</ele>
        <time>2018-10-12T09:58:16Z</time>
      </trkpt>
      <trkpt lat="46.05909" lon="4.70683">
        <ele>194</ele>
        <time>2018-10-12T09:58:17Z</time>
      </trkpt>
      <trkpt lat="46.05908" lon="4.70676">
        <ele>194</ele>
        <time>2018-10-12T09:58:18Z</time>
      </trkpt>
      <trkpt lat="46.05907" lon="4.70668">
        <ele>194</ele>
        <time>2018-10-12T09:58:19Z</time>
      </trkpt>
      <trkpt lat="46.05907" lon="4.70661">
        <ele>194</ele>
        <time>2018-10-12T09:58:20Z</time>
      </trkpt>
      <trkpt lat="46.05907" lon="4.70655">
        <ele>194</ele>
        <time>2018-10-12T09:58:21Z</time>
      </trkpt>
      <trkpt lat="46.05908" lon="4.70648">
        <ele>194</ele>
        <time>2018-10-12T09:58:22Z</time>
      </trkpt>
      <trkpt lat="46.05908" lon="4.70636">
        <ele>194</ele>
        <time>2018-10-12T09:58:24Z</time>
      </trkpt>
      <trkpt lat="46.05909" lon="4.70629">
        <ele>194</ele>
        <time>2018-10-12T09:58:25Z</time>
      </trkpt>
      <trkpt lat="46.05911" lon="4.70617">
        <ele>194</ele>
        <time>2018-10-12T09:58:27Z</time>
      </trkpt>
      <trkpt lat="46.05912" lon="4.7061">
        <ele>194</ele>
        <time>2018-10-12T09:58:28Z</time>
      </trkpt>
      <trkpt lat="46.05913" lon="4.70603">
        <ele>194</ele>
        <time>2018-10-12T09:58:29Z</time>
      </trkpt>
      <trkpt lat="46.05914" lon="4.70596">
        <ele>194</ele>
        <time>2018-10-12T09:58:30Z</time>
      </trkpt>
      <trkpt lat="46.05916" lon="4.7059">
        <ele>195</ele>
        <time>2018-10-12T09:58:31Z</time>
      </trkpt>
      <trkpt lat="46.05917" lon="4.70582">
        <ele>195</ele>
        <time>2018-10-12T09:58:32Z</time>
      </trkpt>
      <trkpt lat="46.05918" lon="4.70575">
        <ele>195</ele>
        <time>2018-10-12T09:58:33Z</time>
      </trkpt>
      <trkpt lat="46.05926" lon="4.70571">
        <ele>195</ele>
        <time>2018-10-12T09:58:34Z</time>
      </trkpt>
      <trkpt lat="46.05929" lon="4.70564">
        <ele>195</ele>
        <time>2018-10-12T09:58:35Z</time>
      </trkpt>
      <trkpt lat="46.05932" lon="4.70558">
        <ele>195</ele>
        <time>2018-10-12T09:58:36Z</time>
      </trkpt>
      <trkpt lat="46.05934" lon="4.7055">
        <ele>195</ele>
        <time>2018-10-12T09:58:37Z</time>
      </trkpt>
      <trkpt lat="46.05935" lon="4.70542">
        <ele>195</ele>
        <time>2018-10-12T09:58:38Z</time>
      </trkpt>
      <trkpt lat="46.05937" lon="4.70534">
        <ele>195</ele>
        <time>2018-10-12T09:58:39Z</time>
      </trkpt>
      <trkpt lat="46.05938" lon="4.70526">
        <ele>195</ele>
        <time>2018-10-12T09:58:40Z</time>
      </trkpt>
      <trkpt lat="46.05938" lon="4.70518">
        <ele>195</ele>
        <time>2018-10-12T09:58:41Z</time>
      </trkpt>
      <trkpt lat="46.05939" lon="4.70511">
        <ele>195</ele>
        <time>2018-10-12T09:58:42Z</time>
      </trkpt>
      <trkpt lat="46.05939" lon="4.70504">
        <ele>195</ele>
        <time>2018-10-12T09:58:43Z</time>
      </trkpt>
      <trkpt lat="46.05939" lon="4.70496">
        <ele>195</ele>
        <time>2018-10-12T09:58:44Z</time>
      </trkpt>
      <trkpt lat="46.05937" lon="4.70487">
        <ele>195</ele>
        <time>2018-10-12T09:58:45Z</time>
      </trkpt>
      <trkpt lat="46.05936" lon="4.70479">
        <ele>195</ele>
        <time>2018-10-12T09:58:46Z</time>
      </trkpt>
      <trkpt lat="46.05932" lon="4.70473">
        <ele>195</ele>
        <time>2018-10-12T09:58:47Z</time>
      </trkpt>
      <trkpt lat="46.05929" lon="4.70466">
        <ele>195</ele>
        <time>2018-10-12T09:58:48Z</time>
      </trkpt>
      <trkpt lat="46.05924" lon="4.7046">
        <ele>195</ele>
        <time>2018-10-12T09:58:49Z</time>
      </trkpt>
      <trkpt lat="46.05921" lon="4.70454">
        <ele>195</ele>
        <time>2018-10-12T09:58:50Z</time>
      </trkpt>
      <trkpt lat="46.05915" lon="4.70447">
        <ele>195</ele>
        <time>2018-10-12T09:58:51Z</time>
      </trkpt>
      <trkpt lat="46.05912" lon="4.70441">
        <ele>195</ele>
        <time>2018-10-12T09:58:52Z</time>
      </trkpt>
      <trkpt lat="46.05907" lon="4.70435">
        <ele>195</ele>
        <time>2018-10-12T09:58:53Z</time>
      </trkpt>
      <trkpt lat="46.05903" lon="4.70429">
        <ele>195</ele>
        <time>2018-10-12T09:58:54Z</time>
      </trkpt>
      <trkpt lat="46.059" lon="4.70423">
        <ele>195</ele>
        <time>2018-10-12T09:58:55Z</time>
      </trkpt>
      <trkpt lat="46.05897" lon="4.70418">
        <ele>195</ele>
        <time>2018-10-12T09:58:56Z</time>
      </trkpt>
      <trkpt lat="46.05894" lon="4.70411">
        <ele>196</ele>
        <time>2018-10-12T09:58:57Z</time>
      </trkpt>
      <trkpt lat="46.05892" lon="4.70406">
        <ele>196</ele>
        <time>2018-10-12T09:58:58Z</time>
      </trkpt>
      <trkpt lat="46.05886" lon="4.70397">
        <ele>196</ele>
        <time>2018-10-12T09:59:00Z</time>
      </trkpt>
      <trkpt lat="46.05884" lon="4.70393">
        <ele>196</ele>
        <time>2018-10-12T09:59:01Z</time>
      </trkpt>
      <trkpt lat="46.05878" lon="4.70384">
        <ele>196</ele>
        <time>2018-10-12T09:59:03Z</time>
      </trkpt>
      <trkpt lat="46.05873" lon="4.7038">
        <ele>196</ele>
        <time>2018-10-12T09:59:04Z</time>
      </trkpt>
      <trkpt lat="46.05871" lon="4.70375">
        <ele>196</ele>
        <time>2018-10-12T09:59:05Z</time>
      </trkpt>
      <trkpt lat="46.05867" lon="4.7037">
        <ele>196</ele>
        <time>2018-10-12T09:59:06Z</time>
      </trkpt>
      <trkpt lat="46.05862" lon="4.70362">
        <ele>196</ele>
        <time>2018-10-12T09:59:08Z</time>
      </trkpt>
      <trkpt lat="46.0586" lon="4.70358">
        <ele>196</ele>
        <time>2018-10-12T09:59:09Z</time>
      </trkpt>
      <trkpt lat="46.05855" lon="4.70351">
        <ele>196</ele>
        <time>2018-10-12T09:59:11Z</time>
      </trkpt>
      <trkpt lat="46.05852" lon="4.70346">
        <ele>196</ele>
        <time>2018-10-12T09:59:12Z</time>
      </trkpt>
      <trkpt lat="46.05848" lon="4.7034">
        <ele>197</ele>
        <time>2018-10-12T09:59:13Z</time>
      </trkpt>
      <trkpt lat="46.05845" lon="4.70335">
        <ele>197</ele>
        <time>2018-10-12T09:59:14Z</time>
      </trkpt>
      <trkpt lat="46.05841" lon="4.7033">
        <ele>197</ele>
        <time>2018-10-12T09:59:15Z</time>
      </trkpt>
      <trkpt lat="46.05838" lon="4.70326">
        <ele>197</ele>
        <time>2018-10-12T09:59:16Z</time>
      </trkpt>
      <trkpt lat="46.05834" lon="4.70321">
        <ele>197</ele>
        <time>2018-10-12T09:59:17Z</time>
      </trkpt>
      <trkpt lat="46.0583" lon="4.70315">
        <ele>197</ele>
        <time>2018-10-12T09:59:18Z</time>
      </trkpt>
      <trkpt lat="46.05827" lon="4.7031">
        <ele>197</ele>
        <time>2018-10-12T09:59:19Z</time>
      </trkpt>
      <trkpt lat="46.05824" lon="4.70305">
        <ele>197</ele>
        <time>2018-10-12T09:59:20Z</time>
      </trkpt>
      <trkpt lat="46.0582" lon="4.703">
        <ele>197</ele>
        <time>2018-10-12T09:59:21Z</time>
      </trkpt>
      <trkpt lat="46.05816" lon="4.70294">
        <ele>197</ele>
        <time>2018-10-12T09:59:22Z</time>
      </trkpt>
      <trkpt lat="46.05813" lon="4.70288">
        <ele>197</ele>
        <time>2018-10-12T09:59:23Z</time>
      </trkpt>
      <trkpt lat="46.05809" lon="4.70282">
        <ele>197</ele>
        <time>2018-10-12T09:59:24Z</time>
      </trkpt>
      <trkpt lat="46.05806" lon="4.70276">
        <ele>197</ele>
        <time>2018-10-12T09:59:25Z</time>
      </trkpt>
      <trkpt lat="46.05802" lon="4.7027">
        <ele>197</ele>
        <time>2018-10-12T09:59:26Z</time>
      </trkpt>
      <trkpt lat="46.058" lon="4.70265">
        <ele>197</ele>
        <time>2018-10-12T09:59:27Z</time>
      </trkpt>
      <trkpt lat="46.05796" lon="4.70262">
        <ele>197</ele>
        <time>2018-10-12T09:59:28Z</time>
      </trkpt>
      <trkpt lat="46.05792" lon="4.70256">
        <ele>197</ele>
        <time>2018-10-12T09:59:29Z</time>
      </trkpt>
      <trkpt lat="46.05789" lon="4.70251">
        <ele>198</ele>
        <time>2018-10-12T09:59:30Z</time>
      </trkpt>
      <trkpt lat="46.05785" lon="4.70246">
        <ele>198</ele>
        <time>2018-10-12T09:59:31Z</time>
      </trkpt>
      <trkpt lat="46.05782" lon="4.70239">
        <ele>198</ele>
        <time>2018-10-12T09:59:32Z</time>
      </trkpt>
      <trkpt lat="46.05779" lon="4.70234">
        <ele>198</ele>
        <time>2018-10-12T09:59:33Z</time>
      </trkpt>
      <trkpt lat="46.05775" lon="4.70227">
        <ele>198</ele>
        <time>2018-10-12T09:59:34Z</time>
      </trkpt>
      <trkpt lat="46.05771" lon="4.70221">
        <ele>198</ele>
        <time>2018-10-12T09:59:35Z</time>
      </trkpt>
      <trkpt lat="46.05768" lon="4.70216">
        <ele>198</ele>
        <time>2018-10-12T09:59:36Z</time>
      </trkpt>
      <trkpt lat="46.05765" lon="4.7021">
        <ele>198</ele>
        <time>2018-10-12T09:59:37Z</time>
      </trkpt>
      <trkpt lat="46.05761" lon="4.70204">
        <ele>198</ele>
        <time>2018-10-12T09:59:38Z</time>
      </trkpt>
      <trkpt lat="46.05757" lon="4.70198">
        <ele>198</ele>
        <time>2018-10-12T09:59:39Z</time>
      </trkpt>
      <trkpt lat="46.05753" lon="4.70193">
        <ele>198</ele>
        <time>2018-10-12T09:59:40Z</time>
      </trkpt>
      <trkpt lat="46.05751" lon="4.70187">
        <ele>198</ele>
        <time>2018-10-12T09:59:41Z</time>
      </trkpt>
      <trkpt lat="46.05748" lon="4.7018">
        <ele>198</ele>
        <time>2018-10-12T09:59:42Z</time>
      </trkpt>
      <trkpt lat="46.05745" lon="4.70174">
        <ele>198</ele>
        <time>2018-10-12T09:59:43Z</time>
      </trkpt>
      <trkpt lat="46.05742" lon="4.70169">
        <ele>198</ele>
        <time>2018-10-12T09:59:44Z</time>
      </trkpt>
      <trkpt lat="46.05738" lon="4.70162">
        <ele>199</ele>
        <time>2018-10-12T09:59:45Z</time>
      </trkpt>
      <trkpt lat="46.05735" lon="4.70157">
        <ele>199</ele>
        <time>2018-10-12T09:59:46Z</time>
      </trkpt>
      <trkpt lat="46.05732" lon="4.70151">
        <ele>198</ele>
        <time>2018-10-12T09:59:47Z</time>
      </trkpt>
      <trkpt lat="46.0573" lon="4.70146">
        <ele>198</ele>
        <time>2018-10-12T09:59:48Z</time>
      </trkpt>
      <trkpt lat="46.05727" lon="4.7014">
        <ele>198</ele>
        <time>2018-10-12T09:59:49Z</time>
      </trkpt>
      <trkpt lat="46.05722" lon="4.70135">
        <ele>198</ele>
        <time>2018-10-12T09:59:50Z</time>
      </trkpt>
      <trkpt lat="46.05719" lon="4.70129">
        <ele>198</ele>
        <time>2018-10-12T09:59:51Z</time>
      </trkpt>
      <trkpt lat="46.05716" lon="4.70125">
        <ele>198</ele>
        <time>2018-10-12T09:59:52Z</time>
      </trkpt>
      <trkpt lat="46.05713" lon="4.7012">
        <ele>198</ele>
        <time>2018-10-12T09:59:53Z</time>
      </trkpt>
      <trkpt lat="46.0571" lon="4.70115">
        <ele>198</ele>
        <time>2018-10-12T09:59:54Z</time>
      </trkpt>
      <trkpt lat="46.05706" lon="4.7011">
        <ele>198</ele>
        <time>2018-10-12T09:59:55Z</time>
      </trkpt>
      <trkpt lat="46.05705" lon="4.70102">
        <ele>198</ele>
        <time>2018-10-12T09:59:56Z</time>
      </trkpt>
      <trkpt lat="46.05704" lon="4.70096">
        <ele>198</ele>
        <time>2018-10-12T09:59:57Z</time>
      </trkpt>
      <trkpt lat="46.05701" lon="4.7009">
        <ele>198</ele>
        <time>2018-10-12T09:59:58Z</time>
      </trkpt>
      <trkpt lat="46.05695" lon="4.70079">
        <ele>199</ele>
        <time>2018-10-12T10:00:00Z</time>
      </trkpt>
      <trkpt lat="46.05692" lon="4.70074">
        <ele>199</ele>
        <time>2018-10-12T10:00:01Z</time>
      </trkpt>
      <trkpt lat="46.05689" lon="4.70067">
        <ele>199</ele>
        <time>2018-10-12T10:00:02Z</time>
      </trkpt>
      <trkpt lat="46.05687" lon="4.70062">
        <ele>199</ele>
        <time>2018-10-12T10:00:03Z</time>
      </trkpt>
      <trkpt lat="46.05682" lon="4.70058">
        <ele>199</ele>
        <time>2018-10-12T10:00:04Z</time>
      </trkpt>
      <trkpt lat="46.0568" lon="4.70051">
        <ele>199</ele>
        <time>2018-10-12T10:00:05Z</time>
      </trkpt>
      <trkpt lat="46.05676" lon="4.70042">
        <ele>199</ele>
        <time>2018-10-12T10:00:07Z</time>
      </trkpt>
      <trkpt lat="46.05674" lon="4.70038">
        <ele>199</ele>
        <time>2018-10-12T10:00:08Z</time>
      </trkpt>
      <trkpt lat="46.05669" lon="4.7003">
        <ele>199</ele>
        <time>2018-10-12T10:00:10Z</time>
      </trkpt>
      <trkpt lat="46.05667" lon="4.70026">
        <ele>199</ele>
        <time>2018-10-12T10:00:11Z</time>
      </trkpt>
      <trkpt lat="46.05663" lon="4.70015">
        <ele>200</ele>
        <time>2018-10-12T10:00:13Z</time>
      </trkpt>
      <trkpt lat="46.05659" lon="4.70009">
        <ele>200</ele>
        <time>2018-10-12T10:00:14Z</time>
      </trkpt>
      <trkpt lat="46.05656" lon="4.70003">
        <ele>200</ele>
        <time>2018-10-12T10:00:15Z</time>
      </trkpt>
      <trkpt lat="46.05652" lon="4.69997">
        <ele>200</ele>
        <time>2018-10-12T10:00:16Z</time>
      </trkpt>
      <trkpt lat="46.05648" lon="4.69992">
        <ele>200</ele>
        <time>2018-10-12T10:00:17Z</time>
      </trkpt>
      <trkpt lat="46.05644" lon="4.69986">
        <ele>200</ele>
        <time>2018-10-12T10:00:18Z</time>
      </trkpt>
      <trkpt lat="46.05641" lon="4.69979">
        <ele>200</ele>
        <time>2018-10-12T10:00:19Z</time>
      </trkpt>
      <trkpt lat="46.05638" lon="4.69973">
        <ele>200</ele>
        <time>2018-10-12T10:00:20Z</time>
      </trkpt>
      <trkpt lat="46.05634" lon="4.69966">
        <ele>200</ele>
        <time>2018-10-12T10:00:21Z</time>
      </trkpt>
      <trkpt lat="46.05632" lon="4.69961">
        <ele>200</ele>
        <time>2018-10-12T10:00:22Z</time>
      </trkpt>
      <trkpt lat="46.05629" lon="4.69955">
        <ele>200</ele>
        <time>2018-10-12T10:00:23Z</time>
      </trkpt>
      <trkpt lat="46.05626" lon="4.69949">
        <ele>200</ele>
        <time>2018-10-12T10:00:24Z</time>
      </trkpt>
      <trkpt lat="46.05623" lon="4.69943">
        <ele>200</ele>
        <time>2018-10-12T10:00:25Z</time>
      </trkpt>
      <trkpt lat="46.0562" lon="4.69936">
        <ele>200</ele>
        <time>2018-10-12T10:00:26Z</time>
      </trkpt>
      <trkpt lat="46.05617" lon="4.69929">
        <ele>200</ele>
        <time>2018-10-12T10:00:27Z</time>
      </trkpt>
      <trkpt lat="46.05614" lon="4.69924">
        <ele>201</ele>
        <time>2018-10-12T10:00:28Z</time>
      </trkpt>
      <trkpt lat="46.05611" lon="4.69918">
        <ele>201</ele>
        <time>2018-10-12T10:00:29Z</time>
      </trkpt>
      <trkpt lat="46.05607" lon="4.69912">
        <ele>200</ele>
        <time>2018-10-12T10:00:30Z</time>
      </trkpt>
      <trkpt lat="46.05604" lon="4.69906">
        <ele>200</ele>
        <time>2018-10-12T10:00:31Z</time>
      </trkpt>
      <trkpt lat="46.05601" lon="4.69901">
        <ele>201</ele>
        <time>2018-10-12T10:00:32Z</time>
      </trkpt>
      <trkpt lat="46.05597" lon="4.69891">
        <ele>201</ele>
        <time>2018-10-12T10:00:34Z</time>
      </trkpt>
      <trkpt lat="46.05594" lon="4.69886">
        <ele>200</ele>
        <time>2018-10-12T10:00:35Z</time>
      </trkpt>
      <trkpt lat="46.0559" lon="4.69878">
        <ele>201</ele>
        <time>2018-10-12T10:00:37Z</time>
      </trkpt>
      <trkpt lat="46.05588" lon="4.69874">
        <ele>201</ele>
        <time>2018-10-12T10:00:38Z</time>
      </trkpt>
      <trkpt lat="46.05582" lon="4.69865">
        <ele>200</ele>
        <time>2018-10-12T10:00:40Z</time>
      </trkpt>
      <trkpt lat="46.05579" lon="4.69861">
        <ele>200</ele>
        <time>2018-10-12T10:00:41Z</time>
      </trkpt>
      <trkpt lat="46.05574" lon="4.69852">
        <ele>200</ele>
        <time>2018-10-12T10:00:43Z</time>
      </trkpt>
      <trkpt lat="46.0557" lon="4.69849">
        <ele>200</ele>
        <time>2018-10-12T10:00:44Z</time>
      </trkpt>
      <trkpt lat="46.05561" lon="4.6985">
        <ele>200</ele>
        <time>2018-10-12T10:00:46Z</time>
      </trkpt>
      <trkpt lat="46.05558" lon="4.69854">
        <ele>200</ele>
        <time>2018-10-12T10:00:47Z</time>
      </trkpt>
      <trkpt lat="46.05549" lon="4.69858">
        <ele>200</ele>
        <time>2018-10-12T10:00:49Z</time>
      </trkpt>
      <trkpt lat="46.05544" lon="4.69858">
        <ele>200</ele>
        <time>2018-10-12T10:00:50Z</time>
      </trkpt>
      <trkpt lat="46.05539" lon="4.69859">
        <ele>200</ele>
        <time>2018-10-12T10:00:51Z</time>
      </trkpt>
      <trkpt lat="46.05535" lon="4.69861">
        <ele>200</ele>
        <time>2018-10-12T10:00:52Z</time>
      </trkpt>
      <trkpt lat="46.0553" lon="4.69862">
        <ele>200</ele>
        <time>2018-10-12T10:00:53Z</time>
      </trkpt>
      <trkpt lat="46.05524" lon="4.69864">
        <ele>200</ele>
        <time>2018-10-12T10:00:54Z</time>
      </trkpt>
      <trkpt lat="46.05518" lon="4.69866">
        <ele>199</ele>
        <time>2018-10-12T10:00:55Z</time>
      </trkpt>
      <trkpt lat="46.05513" lon="4.69867">
        <ele>199</ele>
        <time>2018-10-12T10:00:56Z</time>
      </trkpt>
      <trkpt lat="46.05507" lon="4.69869">
        <ele>199</ele>
        <time>2018-10-12T10:00:57Z</time>
      </trkpt>
      <trkpt lat="46.05501" lon="4.69871">
        <ele>199</ele>
        <time>2018-10-12T10:00:58Z</time>
      </trkpt>
      <trkpt lat="46.05496" lon="4.69874">
        <ele>199</ele>
        <time>2018-10-12T10:00:59Z</time>
      </trkpt>
      <trkpt lat="46.05491" lon="4.69876">
        <ele>199</ele>
        <time>2018-10-12T10:01:00Z</time>
      </trkpt>
      <trkpt lat="46.05486" lon="4.69878">
        <ele>199</ele>
        <time>2018-10-12T10:01:01Z</time>
      </trkpt>
      <trkpt lat="46.05481" lon="4.69879">
        <ele>199</ele>
        <time>2018-10-12T10:01:02Z</time>
      </trkpt>
      <trkpt lat="46.05476" lon="4.69883">
        <ele>199</ele>
        <time>2018-10-12T10:01:03Z</time>
      </trkpt>
      <trkpt lat="46.05471" lon="4.69885">
        <ele>199</ele>
        <time>2018-10-12T10:01:04Z</time>
      </trkpt>
      <trkpt lat="46.05466" lon="4.69886">
        <ele>199</ele>
        <time>2018-10-12T10:01:05Z</time>
      </trkpt>
      <trkpt lat="46.05461" lon="4.69887">
        <ele>199</ele>
        <time>2018-10-12T10:01:06Z</time>
      </trkpt>
      <trkpt lat="46.05456" lon="4.6989">
        <ele>199</ele>
        <time>2018-10-12T10:01:07Z</time>
      </trkpt>
      <trkpt lat="46.05452" lon="4.69891">
        <ele>199</ele>
        <time>2018-10-12T10:01:08Z</time>
      </trkpt>
      <trkpt lat="46.05447" lon="4.69892">
        <ele>199</ele>
        <time>2018-10-12T10:01:09Z</time>
      </trkpt>
      <trkpt lat="46.05441" lon="4.69894">
        <ele>199</ele>
        <time>2018-10-12T10:01:10Z</time>
      </trkpt>
      <trkpt lat="46.05437" lon="4.69897">
        <ele>199</ele>
        <time>2018-10-12T10:01:11Z</time>
      </trkpt>
      <trkpt lat="46.05432" lon="4.69899">
        <ele>199</ele>
        <time>2018-10-12T10:01:12Z</time>
      </trkpt>
      <trkpt lat="46.05426" lon="4.699">
        <ele>199</ele>
        <time>2018-10-12T10:01:13Z</time>
      </trkpt>
      <trkpt lat="46.05422" lon="4.699">
        <ele>199</ele>
        <time>2018-10-12T10:01:14Z</time>
      </trkpt>
      <trkpt lat="46.05416" lon="4.69902">
        <ele>199</ele>
        <time>2018-10-12T10:01:15Z</time>
      </trkpt>
      <trkpt lat="46.05411" lon="4.69903">
        <ele>199</ele>
        <time>2018-10-12T10:01:16Z</time>
      </trkpt>
      <trkpt lat="46.05406" lon="4.69903">
        <ele>199</ele>
        <time>2018-10-12T10:01:17Z</time>
      </trkpt>
      <trkpt lat="46.05401" lon="4.69902">
        <ele>199</ele>
        <time>2018-10-12T10:01:18Z</time>
      </trkpt>
      <trkpt lat="46.05396" lon="4.69901">
        <ele>199</ele>
        <time>2018-10-12T10:01:19Z</time>
      </trkpt>
      <trkpt lat="46.05392" lon="4.69899">
        <ele>199</ele>
        <time>2018-10-12T10:01:20Z</time>
      </trkpt>
      <trkpt lat="46.05387" lon="4.69898">
        <ele>199</ele>
        <time>2018-10-12T10:01:21Z</time>
      </trkpt>
      <trkpt lat="46.05383" lon="4.69895">
        <ele>199</ele>
        <time>2018-10-12T10:01:22Z</time>
      </trkpt>
      <trkpt lat="46.05377" lon="4.69893">
        <ele>199</ele>
        <time>2018-10-12T10:01:23Z</time>
      </trkpt>
      <trkpt lat="46.05373" lon="4.69893">
        <ele>199</ele>
        <time>2018-10-12T10:01:24Z</time>
      </trkpt>
      <trkpt lat="46.05368" lon="4.6989">
        <ele>199</ele>
        <time>2018-10-12T10:01:25Z</time>
      </trkpt>
      <trkpt lat="46.05363" lon="4.69888">
        <ele>199</ele>
        <time>2018-10-12T10:01:26Z</time>
      </trkpt>
      <trkpt lat="46.05359" lon="4.69887">
        <ele>199</ele>
        <time>2018-10-12T10:01:27Z</time>
      </trkpt>
      <trkpt lat="46.05354" lon="4.69884">
        <ele>199</ele>
        <time>2018-10-12T10:01:28Z</time>
      </trkpt>
      <trkpt lat="46.05348" lon="4.69882">
        <ele>199</ele>
        <time>2018-10-12T10:01:29Z</time>
      </trkpt>
      <trkpt lat="46.05344" lon="4.6988">
        <ele>199</ele>
        <time>2018-10-12T10:01:30Z</time>
      </trkpt>
      <trkpt lat="46.05338" lon="4.69879">
        <ele>199</ele>
        <time>2018-10-12T10:01:31Z</time>
      </trkpt>
      <trkpt lat="46.05333" lon="4.69877">
        <ele>199</ele>
        <time>2018-10-12T10:01:32Z</time>
      </trkpt>
      <trkpt lat="46.05327" lon="4.69876">
        <ele>199</ele>
        <time>2018-10-12T10:01:33Z</time>
      </trkpt>
      <trkpt lat="46.05322" lon="4.69875">
        <ele>199</ele>
        <time>2018-10-12T10:01:34Z</time>
      </trkpt>
      <trkpt lat="46.05317" lon="4.69873">
        <ele>199</ele>
        <time>2018-10-12T10:01:35Z</time>
      </trkpt>
      <trkpt lat="46.05312" lon="4.69872">
        <ele>199</ele>
        <time>2018-10-12T10:01:36Z</time>
      </trkpt>
      <trkpt lat="46.05307" lon="4.69872">
        <ele>199</ele>
        <time>2018-10-12T10:01:37Z</time>
      </trkpt>
      <trkpt lat="46.05302" lon="4.69872">
        <ele>199</ele>
        <time>2018-10-12T10:01:38Z</time>
      </trkpt>
      <trkpt lat="46.05297" lon="4.69871">
        <ele>199</ele>
        <time>2018-10-12T10:01:39Z</time>
      </trkpt>
      <trkpt lat="46.05293" lon="4.6987">
        <ele>199</ele>
        <time>2018-10-12T10:01:40Z</time>
      </trkpt>
      <trkpt lat="46.05288" lon="4.6987">
        <ele>199</ele>
        <time>2018-10-12T10:01:41Z</time>
      </trkpt>
      <trkpt lat="46.05283" lon="4.69869">
        <ele>199</ele>
        <time>2018-10-12T10:01:42Z</time>
      </trkpt>
      <trkpt lat="46.05279" lon="4.69868">
        <ele>199</ele>
        <time>2018-10-12T10:01:43Z</time>
      </trkpt>
      <trkpt lat="46.05274" lon="4.69867">
        <ele>199</ele>
        <time>2018-10-12T10:01:44Z</time>
      </trkpt>
      <trkpt lat="46.05269" lon="4.69865">
        <ele>199</ele>
        <time>2018-10-12T10:01:45Z</time>
      </trkpt>
      <trkpt lat="46.05264" lon="4.69864">
        <ele>199</ele>
        <time>2018-10-12T10:01:46Z</time>
      </trkpt>
      <trkpt lat="46.0526" lon="4.69863">
        <ele>199</ele>
        <time>2018-10-12T10:01:47Z</time>
      </trkpt>
      <trkpt lat="46.05255" lon="4.69863">
        <ele>199</ele>
        <time>2018-10-12T10:01:48Z</time>
      </trkpt>
      <trkpt lat="46.05247" lon="4.69861">
        <ele>201</ele>
        <time>2018-10-12T10:01:50Z</time>
      </trkpt>
      <trkpt lat="46.05242" lon="4.69859">
        <ele>201</ele>
        <time>2018-10-12T10:01:51Z</time>
      </trkpt>
      <trkpt lat="46.05237" lon="4.69857">
        <ele>201</ele>
        <time>2018-10-12T10:01:52Z</time>
      </trkpt>
      <trkpt lat="46.05233" lon="4.69856">
        <ele>201</ele>
        <time>2018-10-12T10:01:53Z</time>
      </trkpt>
      <trkpt lat="46.05228" lon="4.69855">
        <ele>201</ele>
        <time>2018-10-12T10:01:54Z</time>
      </trkpt>
      <trkpt lat="46.05224" lon="4.69853">
        <ele>201</ele>
        <time>2018-10-12T10:01:55Z</time>
      </trkpt>
      <trkpt lat="46.05215" lon="4.69851">
        <ele>201</ele>
        <time>2018-10-12T10:01:57Z</time>
      </trkpt>
      <trkpt lat="46.05211" lon="4.69851">
        <ele>201</ele>
        <time>2018-10-12T10:01:58Z</time>
      </trkpt>
      <trkpt lat="46.05207" lon="4.69849">
        <ele>201</ele>
        <time>2018-10-12T10:01:59Z</time>
      </trkpt>
      <trkpt lat="46.05202" lon="4.69847">
        <ele>201</ele>
        <time>2018-10-12T10:02:00Z</time>
      </trkpt>
      <trkpt lat="46.05197" lon="4.69845">
        <ele>201</ele>
        <time>2018-10-12T10:02:01Z</time>
      </trkpt>
      <trkpt lat="46.05193" lon="4.69843">
        <ele>202</ele>
        <time>2018-10-12T10:02:02Z</time>
      </trkpt>
      <trkpt lat="46.05184" lon="4.69841">
        <ele>202</ele>
        <time>2018-10-12T10:02:04Z</time>
      </trkpt>
      <trkpt lat="46.05181" lon="4.6984">
        <ele>202</ele>
        <time>2018-10-12T10:02:05Z</time>
      </trkpt>
      <trkpt lat="46.05173" lon="4.69837">
        <ele>202</ele>
        <time>2018-10-12T10:02:07Z</time>
      </trkpt>
      <trkpt lat="46.0517" lon="4.69835">
        <ele>203</ele>
        <time>2018-10-12T10:02:08Z</time>
      </trkpt>
      <trkpt lat="46.05164" lon="4.69833">
        <ele>203</ele>
        <time>2018-10-12T10:02:10Z</time>
      </trkpt>
      <trkpt lat="46.05159" lon="4.69831">
        <ele>203</ele>
        <time>2018-10-12T10:02:11Z</time>
      </trkpt>
      <trkpt lat="46.05151" lon="4.69829">
        <ele>204</ele>
        <time>2018-10-12T10:02:13Z</time>
      </trkpt>
      <trkpt lat="46.05148" lon="4.69828">
        <ele>204</ele>
        <time>2018-10-12T10:02:14Z</time>
      </trkpt>
      <trkpt lat="46.05139" lon="4.69826">
        <ele>204</ele>
        <time>2018-10-12T10:02:17Z</time>
      </trkpt>
      <trkpt lat="46.05133" lon="4.69825">
        <ele>204</ele>
        <time>2018-10-12T10:02:18Z</time>
      </trkpt>
      <trkpt lat="46.05129" lon="4.69825">
        <ele>204</ele>
        <time>2018-10-12T10:02:20Z</time>
      </trkpt>
      <trkpt lat="46.05124" lon="4.69828">
        <ele>204</ele>
        <time>2018-10-12T10:02:21Z</time>
      </trkpt>
      <trkpt lat="46.0512" lon="4.69838">
        <ele>204</ele>
        <time>2018-10-12T10:02:23Z</time>
      </trkpt>
      <trkpt lat="46.05119" lon="4.69845">
        <ele>204</ele>
        <time>2018-10-12T10:02:24Z</time>
      </trkpt>
      <trkpt lat="46.0512" lon="4.69854">
        <ele>204</ele>
        <time>2018-10-12T10:02:25Z</time>
      </trkpt>
      <trkpt lat="46.05118" lon="4.6986">
        <ele>204</ele>
        <time>2018-10-12T10:02:26Z</time>
      </trkpt>
      <trkpt lat="46.05117" lon="4.69867">
        <ele>204</ele>
        <time>2018-10-12T10:02:27Z</time>
      </trkpt>
      <trkpt lat="46.05116" lon="4.69874">
        <ele>204</ele>
        <time>2018-10-12T10:02:28Z</time>
      </trkpt>
      <trkpt lat="46.05115" lon="4.69881">
        <ele>204</ele>
        <time>2018-10-12T10:02:29Z</time>
      </trkpt>
      <trkpt lat="46.05114" lon="4.69888">
        <ele>204</ele>
        <time>2018-10-12T10:02:30Z</time>
      </trkpt>
      <trkpt lat="46.05113" lon="4.69896">
        <ele>204</ele>
        <time>2018-10-12T10:02:31Z</time>
      </trkpt>
      <trkpt lat="46.05111" lon="4.69904">
        <ele>204</ele>
        <time>2018-10-12T10:02:32Z</time>
      </trkpt>
      <trkpt lat="46.0511" lon="4.6991">
        <ele>204</ele>
        <time>2018-10-12T10:02:33Z</time>
      </trkpt>
      <trkpt lat="46.05109" lon="4.69917">
        <ele>203</ele>
        <time>2018-10-12T10:02:34Z</time>
      </trkpt>
      <trkpt lat="46.05108" lon="4.69923">
        <ele>203</ele>
        <time>2018-10-12T10:02:35Z</time>
      </trkpt>
      <trkpt lat="46.05107" lon="4.6993">
        <ele>203</ele>
        <time>2018-10-12T10:02:36Z</time>
      </trkpt>
      <trkpt lat="46.05105" lon="4.69937">
        <ele>203</ele>
        <time>2018-10-12T10:02:37Z</time>
      </trkpt>
      <trkpt lat="46.05104" lon="4.69944">
        <ele>203</ele>
        <time>2018-10-12T10:02:38Z</time>
      </trkpt>
      <trkpt lat="46.05102" lon="4.6995">
        <ele>203</ele>
        <time>2018-10-12T10:02:39Z</time>
      </trkpt>
      <trkpt lat="46.05101" lon="4.69957">
        <ele>203</ele>
        <time>2018-10-12T10:02:40Z</time>
      </trkpt>
      <trkpt lat="46.05099" lon="4.69963">
        <ele>203</ele>
        <time>2018-10-12T10:02:41Z</time>
      </trkpt>
      <trkpt lat="46.05101" lon="4.6997">
        <ele>203</ele>
        <time>2018-10-12T10:02:42Z</time>
      </trkpt>
      <trkpt lat="46.05101" lon="4.69976">
        <ele>203</ele>
        <time>2018-10-12T10:02:43Z</time>
      </trkpt>
      <trkpt lat="46.05101" lon="4.69986">
        <ele>204</ele>
        <time>2018-10-12T10:02:44Z</time>
      </trkpt>
      <trkpt lat="46.05098" lon="4.69992">
        <ele>204</ele>
        <time>2018-10-12T10:02:45Z</time>
      </trkpt>
      <trkpt lat="46.05096" lon="4.69999">
        <ele>204</ele>
        <time>2018-10-12T10:02:46Z</time>
      </trkpt>
      <trkpt lat="46.05092" lon="4.70009">
        <ele>204</ele>
        <time>2018-10-12T10:02:48Z</time>
      </trkpt>
      <trkpt lat="46.0509" lon="4.70015">
        <ele>204</ele>
        <time>2018-10-12T10:02:49Z</time>
      </trkpt>
      <trkpt lat="46.05085" lon="4.70023">
        <ele>203</ele>
        <time>2018-10-12T10:02:51Z</time>
      </trkpt>
      <trkpt lat="46.05083" lon="4.70029">
        <ele>204</ele>
        <time>2018-10-12T10:02:52Z</time>
      </trkpt>
      <trkpt lat="46.05075" lon="4.70034">
        <ele>204</ele>
        <time>2018-10-12T10:02:54Z</time>
      </trkpt>
      <trkpt lat="46.0507" lon="4.70035">
        <ele>204</ele>
        <time>2018-10-12T10:02:55Z</time>
      </trkpt>
      <trkpt lat="46.05065" lon="4.70035">
        <ele>204</ele>
        <time>2018-10-12T10:02:56Z</time>
      </trkpt>
      <trkpt lat="46.05059" lon="4.70033">
        <ele>204</ele>
        <time>2018-10-12T10:02:57Z</time>
      </trkpt>
      <trkpt lat="46.05055" lon="4.7003">
        <ele>204</ele>
        <time>2018-10-12T10:02:58Z</time>
      </trkpt>
      <trkpt lat="46.05051" lon="4.70027">
        <ele>204</ele>
        <time>2018-10-12T10:02:59Z</time>
      </trkpt>
      <trkpt lat="46.05046" lon="4.70024">
        <ele>204</ele>
        <time>2018-10-12T10:03:00Z</time>
      </trkpt>
      <trkpt lat="46.05042" lon="4.70021">
        <ele>204</ele>
        <time>2018-10-12T10:03:01Z</time>
      </trkpt>
      <trkpt lat="46.05035" lon="4.70016">
        <ele>204</ele>
        <time>2018-10-12T10:03:03Z</time>
      </trkpt>
      <trkpt lat="46.05031" lon="4.70013">
        <ele>204</ele>
        <time>2018-10-12T10:03:04Z</time>
      </trkpt>
      <trkpt lat="46.05024" lon="4.70005">
        <ele>204</ele>
        <time>2018-10-12T10:03:06Z</time>
      </trkpt>
      <trkpt lat="46.05021" lon="4.7">
        <ele>205</ele>
        <time>2018-10-12T10:03:07Z</time>
      </trkpt>
      <trkpt lat="46.05014" lon="4.69992">
        <ele>205</ele>
        <time>2018-10-12T10:03:09Z</time>
      </trkpt>
      <trkpt lat="46.05011" lon="4.6999">
        <ele>205</ele>
        <time>2018-10-12T10:03:10Z</time>
      </trkpt>
      <trkpt lat="46.05005" lon="4.69981">
        <ele>205</ele>
        <time>2018-10-12T10:03:12Z</time>
      </trkpt>
      <trkpt lat="46.05003" lon="4.69976">
        <ele>205</ele>
        <time>2018-10-12T10:03:13Z</time>
      </trkpt>
      <trkpt lat="46.04996" lon="4.69967">
        <ele>205</ele>
        <time>2018-10-12T10:03:15Z</time>
      </trkpt>
      <trkpt lat="46.04993" lon="4.69962">
        <ele>205</ele>
        <time>2018-10-12T10:03:16Z</time>
      </trkpt>
      <trkpt lat="46.04987" lon="4.69953">
        <ele>206</ele>
        <time>2018-10-12T10:03:18Z</time>
      </trkpt>
      <trkpt lat="46.04985" lon="4.69948">
        <ele>206</ele>
        <time>2018-10-12T10:03:19Z</time>
      </trkpt>
      <trkpt lat="46.0498" lon="4.69938">
        <ele>206</ele>
        <time>2018-10-12T10:03:21Z</time>
      </trkpt>
      <trkpt lat="46.04976" lon="4.69933">
        <ele>206</ele>
        <time>2018-10-12T10:03:22Z</time>
      </trkpt>
      <trkpt lat="46.04973" lon="4.69928">
        <ele>206</ele>
        <time>2018-10-12T10:03:23Z</time>
      </trkpt>
      <trkpt lat="46.0497" lon="4.69921">
        <ele>206</ele>
        <time>2018-10-12T10:03:24Z</time>
      </trkpt>
      <trkpt lat="46.04964" lon="4.69913">
        <ele>206</ele>
        <time>2018-10-12T10:03:26Z</time>
      </trkpt>
      <trkpt lat="46.0496" lon="4.69908">
        <ele>206</ele>
        <time>2018-10-12T10:03:27Z</time>
      </trkpt>
      <trkpt lat="46.04957" lon="4.69903">
        <ele>207</ele>
        <time>2018-10-12T10:03:28Z</time>
      </trkpt>
      <trkpt lat="46.04953" lon="4.69899">
        <ele>207</ele>
        <time>2018-10-12T10:03:29Z</time>
      </trkpt>
      <trkpt lat="46.04946" lon="4.6989">
        <ele>207</ele>
        <time>2018-10-12T10:03:31Z</time>
      </trkpt>
      <trkpt lat="46.04943" lon="4.69886">
        <ele>207</ele>
        <time>2018-10-12T10:03:32Z</time>
      </trkpt>
      <trkpt lat="46.04937" lon="4.69879">
        <ele>207</ele>
        <time>2018-10-12T10:03:34Z</time>
      </trkpt>
      <trkpt lat="46.04932" lon="4.69876">
        <ele>207</ele>
        <time>2018-10-12T10:03:35Z</time>
      </trkpt>
      <trkpt lat="46.04925" lon="4.69871">
        <ele>207</ele>
        <time>2018-10-12T10:03:37Z</time>
      </trkpt>
      <trkpt lat="46.0492" lon="4.69869">
        <ele>207</ele>
        <time>2018-10-12T10:03:38Z</time>
      </trkpt>
      <trkpt lat="46.04914" lon="4.69866">
        <ele>206</ele>
        <time>2018-10-12T10:03:39Z</time>
      </trkpt>
      <trkpt lat="46.0491" lon="4.69864">
        <ele>206</ele>
        <time>2018-10-12T10:03:40Z</time>
      </trkpt>
      <trkpt lat="46.04905" lon="4.69861">
        <ele>206</ele>
        <time>2018-10-12T10:03:41Z</time>
      </trkpt>
      <trkpt lat="46.04901" lon="4.69859">
        <ele>206</ele>
        <time>2018-10-12T10:03:42Z</time>
      </trkpt>
      <trkpt lat="46.04897" lon="4.69856">
        <ele>206</ele>
        <time>2018-10-12T10:03:43Z</time>
      </trkpt>
      <trkpt lat="46.04892" lon="4.69853">
        <ele>206</ele>
        <time>2018-10-12T10:03:44Z</time>
      </trkpt>
      <trkpt lat="46.04885" lon="4.69848">
        <ele>206</ele>
        <time>2018-10-12T10:03:46Z</time>
      </trkpt>
      <trkpt lat="46.04881" lon="4.69845">
        <ele>206</ele>
        <time>2018-10-12T10:03:47Z</time>
      </trkpt>
      <trkpt lat="46.04877" lon="4.69842">
        <ele>206</ele>
        <time>2018-10-12T10:03:48Z</time>
      </trkpt>
      <trkpt lat="46.04872" lon="4.6984">
        <ele>206</ele>
        <time>2018-10-12T10:03:49Z</time>
      </trkpt>
      <trkpt lat="46.04864" lon="4.69837">
        <ele>206</ele>
        <time>2018-10-12T10:03:51Z</time>
      </trkpt>
      <trkpt lat="46.0486" lon="4.69836">
        <ele>206</ele>
        <time>2018-10-12T10:03:52Z</time>
      </trkpt>
      <trkpt lat="46.04853" lon="4.69832">
        <ele>207</ele>
        <time>2018-10-12T10:03:54Z</time>
      </trkpt>
      <trkpt lat="46.0485" lon="4.6983">
        <ele>207</ele>
        <time>2018-10-12T10:03:55Z</time>
      </trkpt>
      <trkpt lat="46.04842" lon="4.69825">
        <ele>207</ele>
        <time>2018-10-12T10:03:57Z</time>
      </trkpt>
      <trkpt lat="46.04838" lon="4.69823">
        <ele>207</ele>
        <time>2018-10-12T10:03:58Z</time>
      </trkpt>
      <trkpt lat="46.04834" lon="4.6982">
        <ele>207</ele>
        <time>2018-10-12T10:03:59Z</time>
      </trkpt>
      <trkpt lat="46.04829" lon="4.69817">
        <ele>207</ele>
        <time>2018-10-12T10:04:00Z</time>
      </trkpt>
      <trkpt lat="46.04821" lon="4.69814">
        <ele>207</ele>
        <time>2018-10-12T10:04:02Z</time>
      </trkpt>
      <trkpt lat="46.04816" lon="4.69812">
        <ele>207</ele>
        <time>2018-10-12T10:04:03Z</time>
      </trkpt>
      <trkpt lat="46.04808" lon="4.69809">
        <ele>206</ele>
        <time>2018-10-12T10:04:05Z</time>
      </trkpt>
      <trkpt lat="46.04804" lon="4.69806">
        <ele>206</ele>
        <time>2018-10-12T10:04:06Z</time>
      </trkpt>
      <trkpt lat="46.048" lon="4.69805">
        <ele>206</ele>
        <time>2018-10-12T10:04:09Z</time>
      </trkpt>
      <trkpt lat="46.04796" lon="4.69813">
        <ele>206</ele>
        <time>2018-10-12T10:04:10Z</time>
      </trkpt>
      <trkpt lat="46.04793" lon="4.69819">
        <ele>206</ele>
        <time>2018-10-12T10:04:13Z</time>
      </trkpt>
      <trkpt lat="46.0479" lon="4.69823">
        <ele>206</ele>
        <time>2018-10-12T10:04:14Z</time>
      </trkpt>
      <trkpt lat="46.04785" lon="4.6983">
        <ele>206</ele>
        <time>2018-10-12T10:04:15Z</time>
      </trkpt>
      <trkpt lat="46.04781" lon="4.69832">
        <ele>206</ele>
        <time>2018-10-12T10:04:16Z</time>
      </trkpt>
      <trkpt lat="46.04774" lon="4.69835">
        <ele>205</ele>
        <time>2018-10-12T10:04:18Z</time>
      </trkpt>
      <trkpt lat="46.04769" lon="4.69836">
        <ele>205</ele>
        <time>2018-10-12T10:04:19Z</time>
      </trkpt>
      <trkpt lat="46.04761" lon="4.69836">
        <ele>205</ele>
        <time>2018-10-12T10:04:21Z</time>
      </trkpt>
      <trkpt lat="46.04757" lon="4.69836">
        <ele>205</ele>
        <time>2018-10-12T10:04:22Z</time>
      </trkpt>
      <trkpt lat="46.04749" lon="4.69836">
        <ele>205</ele>
        <time>2018-10-12T10:04:24Z</time>
      </trkpt>
      <trkpt lat="46.04745" lon="4.69836">
        <ele>204</ele>
        <time>2018-10-12T10:04:25Z</time>
      </trkpt>
      <trkpt lat="46.04737" lon="4.69835">
        <ele>204</ele>
        <time>2018-10-12T10:04:27Z</time>
      </trkpt>
      <trkpt lat="46.04733" lon="4.69835">
        <ele>203</ele>
        <time>2018-10-12T10:04:28Z</time>
      </trkpt>
      <trkpt lat="46.04728" lon="4.69836">
        <ele>203</ele>
        <time>2018-10-12T10:04:29Z</time>
      </trkpt>
      <trkpt lat="46.04723" lon="4.69837">
        <ele>203</ele>
        <time>2018-10-12T10:04:30Z</time>
      </trkpt>
      <trkpt lat="46.04718" lon="4.69838">
        <ele>203</ele>
        <time>2018-10-12T10:04:31Z</time>
      </trkpt>
      <trkpt lat="46.04713" lon="4.69839">
        <ele>203</ele>
        <time>2018-10-12T10:04:32Z</time>
      </trkpt>
      <trkpt lat="46.04709" lon="4.69839">
        <ele>203</ele>
        <time>2018-10-12T10:04:33Z</time>
      </trkpt>
      <trkpt lat="46.04704" lon="4.69839">
        <ele>202</ele>
        <time>2018-10-12T10:04:34Z</time>
      </trkpt>
      <trkpt lat="46.04697" lon="4.69837">
        <ele>202</ele>
        <time>2018-10-12T10:04:36Z</time>
      </trkpt>
      <trkpt lat="46.04692" lon="4.69835">
        <ele>202</ele>
        <time>2018-10-12T10:04:37Z</time>
      </trkpt>
      <trkpt lat="46.04687" lon="4.69834">
        <ele>202</ele>
        <time>2018-10-12T10:04:38Z</time>
      </trkpt>
      <trkpt lat="46.04682" lon="4.69833">
        <ele>203</ele>
        <time>2018-10-12T10:04:39Z</time>
      </trkpt>
      <trkpt lat="46.04677" lon="4.69832">
        <ele>203</ele>
        <time>2018-10-12T10:04:40Z</time>
      </trkpt>
      <trkpt lat="46.04672" lon="4.6983">
        <ele>203</ele>
        <time>2018-10-12T10:04:41Z</time>
      </trkpt>
      <trkpt lat="46.04667" lon="4.69829">
        <ele>203</ele>
        <time>2018-10-12T10:04:42Z</time>
      </trkpt>
      <trkpt lat="46.04661" lon="4.69828">
        <ele>203</ele>
        <time>2018-10-12T10:04:43Z</time>
      </trkpt>
      <trkpt lat="46.04656" lon="4.69826">
        <ele>202</ele>
        <time>2018-10-12T10:04:44Z</time>
      </trkpt>
      <trkpt lat="46.04651" lon="4.69823">
        <ele>202</ele>
        <time>2018-10-12T10:04:45Z</time>
      </trkpt>
      <trkpt lat="46.04646" lon="4.69821">
        <ele>202</ele>
        <time>2018-10-12T10:04:46Z</time>
      </trkpt>
      <trkpt lat="46.0464" lon="4.69819">
        <ele>202</ele>
        <time>2018-10-12T10:04:47Z</time>
      </trkpt>
      <trkpt lat="46.04634" lon="4.69817">
        <ele>202</ele>
        <time>2018-10-12T10:04:48Z</time>
      </trkpt>
      <trkpt lat="46.04628" lon="4.69814">
        <ele>202</ele>
        <time>2018-10-12T10:04:49Z</time>
      </trkpt>
      <trkpt lat="46.04621" lon="4.69812">
        <ele>202</ele>
        <time>2018-10-12T10:04:50Z</time>
      </trkpt>
      <trkpt lat="46.04616" lon="4.69811">
        <ele>202</ele>
        <time>2018-10-12T10:04:51Z</time>
      </trkpt>
      <trkpt lat="46.0461" lon="4.69809">
        <ele>201</ele>
        <time>2018-10-12T10:04:52Z</time>
      </trkpt>
      <trkpt lat="46.04604" lon="4.69806">
        <ele>201</ele>
        <time>2018-10-12T10:04:53Z</time>
      </trkpt>
      <trkpt lat="46.04599" lon="4.69805">
        <ele>201</ele>
        <time>2018-10-12T10:04:54Z</time>
      </trkpt>
      <trkpt lat="46.04594" lon="4.69804">
        <ele>201</ele>
        <time>2018-10-12T10:04:55Z</time>
      </trkpt>
      <trkpt lat="46.04589" lon="4.69803">
        <ele>201</ele>
        <time>2018-10-12T10:04:56Z</time>
      </trkpt>
      <trkpt lat="46.04583" lon="4.69802">
        <ele>200</ele>
        <time>2018-10-12T10:04:57Z</time>
      </trkpt>
      <trkpt lat="46.04578" lon="4.698">
        <ele>200</ele>
        <time>2018-10-12T10:04:58Z</time>
      </trkpt>
      <trkpt lat="46.04573" lon="4.69797">
        <ele>200</ele>
        <time>2018-10-12T10:04:59Z</time>
      </trkpt>
      <trkpt lat="46.04567" lon="4.69796">
        <ele>200</ele>
        <time>2018-10-12T10:05:00Z</time>
      </trkpt>
      <trkpt lat="46.04561" lon="4.69794">
        <ele>200</ele>
        <time>2018-10-12T10:05:01Z</time>
      </trkpt>
      <trkpt lat="46.04556" lon="4.69794">
        <ele>199</ele>
        <time>2018-10-12T10:05:02Z</time>
      </trkpt>
      <trkpt lat="46.0455" lon="4.69793">
        <ele>199</ele>
        <time>2018-10-12T10:05:03Z</time>
      </trkpt>
      <trkpt lat="46.04545" lon="4.69792">
        <ele>199</ele>
        <time>2018-10-12T10:05:04Z</time>
      </trkpt>
      <trkpt lat="46.0454" lon="4.69791">
        <ele>199</ele>
        <time>2018-10-12T10:05:05Z</time>
      </trkpt>
      <trkpt lat="46.04535" lon="4.6979">
        <ele>199</ele>
        <time>2018-10-12T10:05:06Z</time>
      </trkpt>
      <trkpt lat="46.0453" lon="4.69788">
        <ele>199</ele>
        <time>2018-10-12T10:05:07Z</time>
      </trkpt>
      <trkpt lat="46.04525" lon="4.69787">
        <ele>199</ele>
        <time>2018-10-12T10:05:08Z</time>
      </trkpt>
      <trkpt lat="46.0452" lon="4.69788">
        <ele>199</ele>
        <time>2018-10-12T10:05:09Z</time>
      </trkpt>
      <trkpt lat="46.04514" lon="4.69787">
        <ele>199</ele>
        <time>2018-10-12T10:05:10Z</time>
      </trkpt>
      <trkpt lat="46.04509" lon="4.69786">
        <ele>199</ele>
        <time>2018-10-12T10:05:11Z</time>
      </trkpt>
      <trkpt lat="46.04503" lon="4.69786">
        <ele>199</ele>
        <time>2018-10-12T10:05:12Z</time>
      </trkpt>
      <trkpt lat="46.04498" lon="4.69787">
        <ele>197</ele>
        <time>2018-10-12T10:05:13Z</time>
      </trkpt>
      <trkpt lat="46.04492" lon="4.69789">
        <ele>197</ele>
        <time>2018-10-12T10:05:14Z</time>
      </trkpt>
      <trkpt lat="46.04486" lon="4.6979">
        <ele>197</ele>
        <time>2018-10-12T10:05:15Z</time>
      </trkpt>
      <trkpt lat="46.0448" lon="4.69791">
        <ele>197</ele>
        <time>2018-10-12T10:05:16Z</time>
      </trkpt>
      <trkpt lat="46.04474" lon="4.69792">
        <ele>197</ele>
        <time>2018-10-12T10:05:17Z</time>
      </trkpt>
      <trkpt lat="46.04468" lon="4.69793">
        <ele>197</ele>
        <time>2018-10-12T10:05:18Z</time>
      </trkpt>
      <trkpt lat="46.04463" lon="4.69795">
        <ele>197</ele>
        <time>2018-10-12T10:05:19Z</time>
      </trkpt>
      <trkpt lat="46.04458" lon="4.69797">
        <ele>196</ele>
        <time>2018-10-12T10:05:20Z</time>
      </trkpt>
      <trkpt lat="46.04452" lon="4.69799">
        <ele>196</ele>
        <time>2018-10-12T10:05:21Z</time>
      </trkpt>
      <trkpt lat="46.04446" lon="4.698">
        <ele>196</ele>
        <time>2018-10-12T10:05:22Z</time>
      </trkpt>
      <trkpt lat="46.04441" lon="4.698">
        <ele>196</ele>
        <time>2018-10-12T10:05:23Z</time>
      </trkpt>
      <trkpt lat="46.04436" lon="4.69802">
        <ele>196</ele>
        <time>2018-10-12T10:05:24Z</time>
      </trkpt>
      <trkpt lat="46.0443" lon="4.69803">
        <ele>196</ele>
        <time>2018-10-12T10:05:25Z</time>
      </trkpt>
      <trkpt lat="46.04425" lon="4.69803">
        <ele>196</ele>
        <time>2018-10-12T10:05:26Z</time>
      </trkpt>
      <trkpt lat="46.0442" lon="4.69805">
        <ele>196</ele>
        <time>2018-10-12T10:05:27Z</time>
      </trkpt>
      <trkpt lat="46.04415" lon="4.69806">
        <ele>194</ele>
        <time>2018-10-12T10:05:28Z</time>
      </trkpt>
      <trkpt lat="46.04409" lon="4.69808">
        <ele>194</ele>
        <time>2018-10-12T10:05:29Z</time>
      </trkpt>
      <trkpt lat="46.04403" lon="4.69809">
        <ele>194</ele>
        <time>2018-10-12T10:05:30Z</time>
      </trkpt>
      <trkpt lat="46.04398" lon="4.69812">
        <ele>194</ele>
        <time>2018-10-12T10:05:31Z</time>
      </trkpt>
      <trkpt lat="46.04392" lon="4.69813">
        <ele>194</ele>
        <time>2018-10-12T10:05:32Z</time>
      </trkpt>
      <trkpt lat="46.04387" lon="4.69816">
        <ele>194</ele>
        <time>2018-10-12T10:05:33Z</time>
      </trkpt>
      <trkpt lat="46.04381" lon="4.69819">
        <ele>194</ele>
        <time>2018-10-12T10:05:34Z</time>
      </trkpt>
      <trkpt lat="46.04375" lon="4.69823">
        <ele>194</ele>
        <time>2018-10-12T10:05:35Z</time>
      </trkpt>
      <trkpt lat="46.0437" lon="4.69826">
        <ele>194</ele>
        <time>2018-10-12T10:05:36Z</time>
      </trkpt>
      <trkpt lat="46.04365" lon="4.6983">
        <ele>193</ele>
        <time>2018-10-12T10:05:37Z</time>
      </trkpt>
      <trkpt lat="46.0436" lon="4.69834">
        <ele>193</ele>
        <time>2018-10-12T10:05:38Z</time>
      </trkpt>
      <trkpt lat="46.04355" lon="4.69839">
        <ele>193</ele>
        <time>2018-10-12T10:05:39Z</time>
      </trkpt>
      <trkpt lat="46.04349" lon="4.69842">
        <ele>193</ele>
        <time>2018-10-12T10:05:40Z</time>
      </trkpt>
      <trkpt lat="46.04344" lon="4.69846">
        <ele>192</ele>
        <time>2018-10-12T10:05:41Z</time>
      </trkpt>
      <trkpt lat="46.0434" lon="4.69851">
        <ele>192</ele>
        <time>2018-10-12T10:05:42Z</time>
      </trkpt>
      <trkpt lat="46.04335" lon="4.69857">
        <ele>192</ele>
        <time>2018-10-12T10:05:43Z</time>
      </trkpt>
      <trkpt lat="46.04331" lon="4.69863">
        <ele>191</ele>
        <time>2018-10-12T10:05:44Z</time>
      </trkpt>
      <trkpt lat="46.04326" lon="4.69871">
        <ele>191</ele>
        <time>2018-10-12T10:05:45Z</time>
      </trkpt>
      <trkpt lat="46.04322" lon="4.69878">
        <ele>190</ele>
        <time>2018-10-12T10:05:46Z</time>
      </trkpt>
      <trkpt lat="46.04318" lon="4.69886">
        <ele>190</ele>
        <time>2018-10-12T10:05:47Z</time>
      </trkpt>
      <trkpt lat="46.04314" lon="4.69893">
        <ele>190</ele>
        <time>2018-10-12T10:05:48Z</time>
      </trkpt>
      <trkpt lat="46.04309" lon="4.699">
        <ele>190</ele>
        <time>2018-10-12T10:05:49Z</time>
      </trkpt>
      <trkpt lat="46.04306" lon="4.69906">
        <ele>190</ele>
        <time>2018-10-12T10:05:50Z</time>
      </trkpt>
      <trkpt lat="46.04301" lon="4.69911">
        <ele>190</ele>
        <time>2018-10-12T10:05:51Z</time>
      </trkpt>
      <trkpt lat="46.04296" lon="4.69916">
        <ele>190</ele>
        <time>2018-10-12T10:05:52Z</time>
      </trkpt>
      <trkpt lat="46.04291" lon="4.6992">
        <ele>189</ele>
        <time>2018-10-12T10:05:53Z</time>
      </trkpt>
      <trkpt lat="46.04287" lon="4.69925">
        <ele>189</ele>
        <time>2018-10-12T10:05:54Z</time>
      </trkpt>
      <trkpt lat="46.04282" lon="4.6993">
        <ele>189</ele>
        <time>2018-10-12T10:05:55Z</time>
      </trkpt>
      <trkpt lat="46.04278" lon="4.69934">
        <ele>189</ele>
        <time>2018-10-12T10:05:56Z</time>
      </trkpt>
      <trkpt lat="46.04273" lon="4.69938">
        <ele>189</ele>
        <time>2018-10-12T10:05:57Z</time>
      </trkpt>
      <trkpt lat="46.04267" lon="4.69942">
        <ele>188</ele>
        <time>2018-10-12T10:05:58Z</time>
      </trkpt>
      <trkpt lat="46.04263" lon="4.69947">
        <ele>188</ele>
        <time>2018-10-12T10:05:59Z</time>
      </trkpt>
      <trkpt lat="46.04259" lon="4.69951">
        <ele>188</ele>
        <time>2018-10-12T10:06:00Z</time>
      </trkpt>
      <trkpt lat="46.04255" lon="4.69955">
        <ele>188</ele>
        <time>2018-10-12T10:06:01Z</time>
      </trkpt>
      <trkpt lat="46.0425" lon="4.69959">
        <ele>188</ele>
        <time>2018-10-12T10:06:02Z</time>
      </trkpt>
      <trkpt lat="46.04246" lon="4.69963">
        <ele>188</ele>
        <time>2018-10-12T10:06:03Z</time>
      </trkpt>
      <trkpt lat="46.04242" lon="4.69967">
        <ele>188</ele>
        <time>2018-10-12T10:06:04Z</time>
      </trkpt>
      <trkpt lat="46.04238" lon="4.69971">
        <ele>188</ele>
        <time>2018-10-12T10:06:05Z</time>
      </trkpt>
      <trkpt lat="46.04233" lon="4.69975">
        <ele>188</ele>
        <time>2018-10-12T10:06:06Z</time>
      </trkpt>
      <trkpt lat="46.04229" lon="4.69981">
        <ele>188</ele>
        <time>2018-10-12T10:06:07Z</time>
      </trkpt>
      <trkpt lat="46.04224" lon="4.69986">
        <ele>188</ele>
        <time>2018-10-12T10:06:08Z</time>
      </trkpt>
      <trkpt lat="46.04219" lon="4.6999">
        <ele>188</ele>
        <time>2018-10-12T10:06:09Z</time>
      </trkpt>
      <trkpt lat="46.04213" lon="4.69994">
        <ele>188</ele>
        <time>2018-10-12T10:06:10Z</time>
      </trkpt>
      <trkpt lat="46.04208" lon="4.69999">
        <ele>188</ele>
        <time>2018-10-12T10:06:11Z</time>
      </trkpt>
      <trkpt lat="46.04204" lon="4.70004">
        <ele>188</ele>
        <time>2018-10-12T10:06:12Z</time>
      </trkpt>
      <trkpt lat="46.04198" lon="4.7001">
        <ele>188</ele>
        <time>2018-10-12T10:06:13Z</time>
      </trkpt>
      <trkpt lat="46.04193" lon="4.70015">
        <ele>188</ele>
        <time>2018-10-12T10:06:14Z</time>
      </trkpt>
      <trkpt lat="46.04187" lon="4.7002">
        <ele>189</ele>
        <time>2018-10-12T10:06:15Z</time>
      </trkpt>
      <trkpt lat="46.04182" lon="4.70024">
        <ele>189</ele>
        <time>2018-10-12T10:06:16Z</time>
      </trkpt>
      <trkpt lat="46.04176" lon="4.70028">
        <ele>189</ele>
        <time>2018-10-12T10:06:17Z</time>
      </trkpt>
      <trkpt lat="46.0417" lon="4.7003">
        <ele>189</ele>
        <time>2018-10-12T10:06:18Z</time>
      </trkpt>
      <trkpt lat="46.04165" lon="4.70033">
        <ele>191</ele>
        <time>2018-10-12T10:06:19Z</time>
      </trkpt>
      <trkpt lat="46.0416" lon="4.70035">
        <ele>191</ele>
        <time>2018-10-12T10:06:20Z</time>
      </trkpt>
      <trkpt lat="46.04155" lon="4.70036">
        <ele>191</ele>
        <time>2018-10-12T10:06:21Z</time>
      </trkpt>
      <trkpt lat="46.0415" lon="4.70039">
        <ele>191</ele>
        <time>2018-10-12T10:06:22Z</time>
      </trkpt>
      <trkpt lat="46.04145" lon="4.7004">
        <ele>191</ele>
        <time>2018-10-12T10:06:23Z</time>
      </trkpt>
      <trkpt lat="46.04137" lon="4.70042">
        <ele>192</ele>
        <time>2018-10-12T10:06:26Z</time>
      </trkpt>
      <trkpt lat="46.04127" lon="4.70048">
        <ele>192</ele>
        <time>2018-10-12T10:06:27Z</time>
      </trkpt>
      <trkpt lat="46.04123" lon="4.7005">
        <ele>192</ele>
        <time>2018-10-12T10:06:29Z</time>
      </trkpt>
      <trkpt lat="46.04114" lon="4.70052">
        <ele>192</ele>
        <time>2018-10-12T10:06:30Z</time>
      </trkpt>
      <trkpt lat="46.0411" lon="4.70056">
        <ele>192</ele>
        <time>2018-10-12T10:06:31Z</time>
      </trkpt>
      <trkpt lat="46.04104" lon="4.70059">
        <ele>193</ele>
        <time>2018-10-12T10:06:32Z</time>
      </trkpt>
      <trkpt lat="46.04097" lon="4.70061">
        <ele>193</ele>
        <time>2018-10-12T10:06:34Z</time>
      </trkpt>
      <trkpt lat="46.04089" lon="4.70064">
        <ele>193</ele>
        <time>2018-10-12T10:06:35Z</time>
      </trkpt>
      <trkpt lat="46.04083" lon="4.70066">
        <ele>194</ele>
        <time>2018-10-12T10:06:37Z</time>
      </trkpt>
      <trkpt lat="46.04077" lon="4.70065">
        <ele>194</ele>
        <time>2018-10-12T10:06:38Z</time>
      </trkpt>
      <trkpt lat="46.04074" lon="4.70066">
        <ele>194</ele>
        <time>2018-10-12T10:06:39Z</time>
      </trkpt>
      <trkpt lat="46.04068" lon="4.70067">
        <ele>194</ele>
        <time>2018-10-12T10:06:40Z</time>
      </trkpt>
      <trkpt lat="46.04063" lon="4.70068">
        <ele>194</ele>
        <time>2018-10-12T10:06:41Z</time>
      </trkpt>
      <trkpt lat="46.04059" lon="4.70071">
        <ele>194</ele>
        <time>2018-10-12T10:06:42Z</time>
      </trkpt>
      <trkpt lat="46.04053" lon="4.70071">
        <ele>194</ele>
        <time>2018-10-12T10:06:43Z</time>
      </trkpt>
      <trkpt lat="46.04048" lon="4.70071">
        <ele>194</ele>
        <time>2018-10-12T10:06:44Z</time>
      </trkpt>
      <trkpt lat="46.04042" lon="4.70071">
        <ele>194</ele>
        <time>2018-10-12T10:06:45Z</time>
      </trkpt>
      <trkpt lat="46.04037" lon="4.70071">
        <ele>195</ele>
        <time>2018-10-12T10:06:46Z</time>
      </trkpt>
      <trkpt lat="46.04033" lon="4.7007">
        <ele>195</ele>
        <time>2018-10-12T10:06:47Z</time>
      </trkpt>
      <trkpt lat="46.04028" lon="4.70071">
        <ele>195</ele>
        <time>2018-10-12T10:06:48Z</time>
      </trkpt>
      <trkpt lat="46.04023" lon="4.70069">
        <ele>195</ele>
        <time>2018-10-12T10:06:49Z</time>
      </trkpt>
      <trkpt lat="46.04017" lon="4.70068">
        <ele>195</ele>
        <time>2018-10-12T10:06:50Z</time>
      </trkpt>
      <trkpt lat="46.04011" lon="4.70068">
        <ele>195</ele>
        <time>2018-10-12T10:06:51Z</time>
      </trkpt>
      <trkpt lat="46.04005" lon="4.70068">
        <ele>195</ele>
        <time>2018-10-12T10:06:52Z</time>
      </trkpt>
      <trkpt lat="46.04" lon="4.70069">
        <ele>195</ele>
        <time>2018-10-12T10:06:53Z</time>
      </trkpt>
      <trkpt lat="46.03995" lon="4.70072">
        <ele>195</ele>
        <time>2018-10-12T10:06:54Z</time>
      </trkpt>
      <trkpt lat="46.03989" lon="4.70072">
        <ele>195</ele>
        <time>2018-10-12T10:06:55Z</time>
      </trkpt>
      <trkpt lat="46.03983" lon="4.70074">
        <ele>195</ele>
        <time>2018-10-12T10:06:56Z</time>
      </trkpt>
      <trkpt lat="46.03977" lon="4.70077">
        <ele>194</ele>
        <time>2018-10-12T10:06:57Z</time>
      </trkpt>
      <trkpt lat="46.03971" lon="4.70078">
        <ele>194</ele>
        <time>2018-10-12T10:06:58Z</time>
      </trkpt>
      <trkpt lat="46.03966" lon="4.70079">
        <ele>194</ele>
        <time>2018-10-12T10:06:59Z</time>
      </trkpt>
      <trkpt lat="46.03961" lon="4.70079">
        <ele>194</ele>
        <time>2018-10-12T10:07:00Z</time>
      </trkpt>
      <trkpt lat="46.03955" lon="4.7008">
        <ele>194</ele>
        <time>2018-10-12T10:07:01Z</time>
      </trkpt>
      <trkpt lat="46.03949" lon="4.70082">
        <ele>194</ele>
        <time>2018-10-12T10:07:02Z</time>
      </trkpt>
      <trkpt lat="46.03944" lon="4.70085">
        <ele>196</ele>
        <time>2018-10-12T10:07:03Z</time>
      </trkpt>
      <trkpt lat="46.03938" lon="4.70087">
        <ele>195</ele>
        <time>2018-10-12T10:07:04Z</time>
      </trkpt>
      <trkpt lat="46.03933" lon="4.70089">
        <ele>195</ele>
        <time>2018-10-12T10:07:05Z</time>
      </trkpt>
      <trkpt lat="46.03928" lon="4.7009">
        <ele>195</ele>
        <time>2018-10-12T10:07:06Z</time>
      </trkpt>
      <trkpt lat="46.03924" lon="4.70092">
        <ele>195</ele>
        <time>2018-10-12T10:07:07Z</time>
      </trkpt>
      <trkpt lat="46.03916" lon="4.70095">
        <ele>194</ele>
        <time>2018-10-12T10:07:08Z</time>
      </trkpt>
      <trkpt lat="46.03909" lon="4.70096">
        <ele>194</ele>
        <time>2018-10-12T10:07:09Z</time>
      </trkpt>
      <trkpt lat="46.03903" lon="4.70098">
        <ele>194</ele>
        <time>2018-10-12T10:07:10Z</time>
      </trkpt>
      <trkpt lat="46.03896" lon="4.70101">
        <ele>194</ele>
        <time>2018-10-12T10:07:11Z</time>
      </trkpt>
      <trkpt lat="46.0389" lon="4.701">
        <ele>193</ele>
        <time>2018-10-12T10:07:12Z</time>
      </trkpt>
      <trkpt lat="46.03883" lon="4.70099">
        <ele>193</ele>
        <time>2018-10-12T10:07:13Z</time>
      </trkpt>
      <trkpt lat="46.03876" lon="4.70102">
        <ele>193</ele>
        <time>2018-10-12T10:07:14Z</time>
      </trkpt>
      <trkpt lat="46.0387" lon="4.70103">
        <ele>193</ele>
        <time>2018-10-12T10:07:15Z</time>
      </trkpt>
      <trkpt lat="46.03864" lon="4.70106">
        <ele>192</ele>
        <time>2018-10-12T10:07:16Z</time>
      </trkpt>
      <trkpt lat="46.03858" lon="4.70107">
        <ele>192</ele>
        <time>2018-10-12T10:07:17Z</time>
      </trkpt>
      <trkpt lat="46.03852" lon="4.70109">
        <ele>192</ele>
        <time>2018-10-12T10:07:18Z</time>
      </trkpt>
      <trkpt lat="46.03847" lon="4.70112">
        <ele>192</ele>
        <time>2018-10-12T10:07:19Z</time>
      </trkpt>
      <trkpt lat="46.03841" lon="4.70115">
        <ele>192</ele>
        <time>2018-10-12T10:07:20Z</time>
      </trkpt>
      <trkpt lat="46.03836" lon="4.70118">
        <ele>192</ele>
        <time>2018-10-12T10:07:21Z</time>
      </trkpt>
      <trkpt lat="46.0383" lon="4.70121">
        <ele>189</ele>
        <time>2018-10-12T10:07:22Z</time>
      </trkpt>
      <trkpt lat="46.03824" lon="4.70124">
        <ele>189</ele>
        <time>2018-10-12T10:07:23Z</time>
      </trkpt>
      <trkpt lat="46.03818" lon="4.70125">
        <ele>189</ele>
        <time>2018-10-12T10:07:24Z</time>
      </trkpt>
      <trkpt lat="46.03813" lon="4.70128">
        <ele>189</ele>
        <time>2018-10-12T10:07:25Z</time>
      </trkpt>
      <trkpt lat="46.03807" lon="4.7013">
        <ele>189</ele>
        <time>2018-10-12T10:07:26Z</time>
      </trkpt>
      <trkpt lat="46.03801" lon="4.70132">
        <ele>189</ele>
        <time>2018-10-12T10:07:27Z</time>
      </trkpt>
      <trkpt lat="46.03796" lon="4.70134">
        <ele>189</ele>
        <time>2018-10-12T10:07:28Z</time>
      </trkpt>
      <trkpt lat="46.03791" lon="4.70136">
        <ele>189</ele>
        <time>2018-10-12T10:07:29Z</time>
      </trkpt>
      <trkpt lat="46.03787" lon="4.70138">
        <ele>189</ele>
        <time>2018-10-12T10:07:30Z</time>
      </trkpt>
      <trkpt lat="46.03782" lon="4.70139">
        <ele>189</ele>
        <time>2018-10-12T10:07:31Z</time>
      </trkpt>
      <trkpt lat="46.03778" lon="4.70141">
        <ele>189</ele>
        <time>2018-10-12T10:07:32Z</time>
      </trkpt>
      <trkpt lat="46.03769" lon="4.70144">
        <ele>188</ele>
        <time>2018-10-12T10:07:34Z</time>
      </trkpt>
      <trkpt lat="46.03766" lon="4.7015">
        <ele>188</ele>
        <time>2018-10-12T10:07:35Z</time>
      </trkpt>
      <trkpt lat="46.03762" lon="4.7015">
        <ele>188</ele>
        <time>2018-10-12T10:07:36Z</time>
      </trkpt>
      <trkpt lat="46.03757" lon="4.70153">
        <ele>188</ele>
        <time>2018-10-12T10:07:37Z</time>
      </trkpt>
      <trkpt lat="46.03752" lon="4.70155">
        <ele>188</ele>
        <time>2018-10-12T10:07:38Z</time>
      </trkpt>
      <trkpt lat="46.03747" lon="4.70156">
        <ele>188</ele>
        <time>2018-10-12T10:07:39Z</time>
      </trkpt>
      <trkpt lat="46.03742" lon="4.70157">
        <ele>188</ele>
        <time>2018-10-12T10:07:40Z</time>
      </trkpt>
      <trkpt lat="46.03737" lon="4.70159">
        <ele>189</ele>
        <time>2018-10-12T10:07:41Z</time>
      </trkpt>
      <trkpt lat="46.03733" lon="4.70162">
        <ele>189</ele>
        <time>2018-10-12T10:07:42Z</time>
      </trkpt>
      <trkpt lat="46.03728" lon="4.70163">
        <ele>189</ele>
        <time>2018-10-12T10:07:43Z</time>
      </trkpt>
      <trkpt lat="46.03724" lon="4.70165">
        <ele>190</ele>
        <time>2018-10-12T10:07:44Z</time>
      </trkpt>
      <trkpt lat="46.0372" lon="4.70167">
        <ele>188</ele>
        <time>2018-10-12T10:07:45Z</time>
      </trkpt>
      <trkpt lat="46.03715" lon="4.70169">
        <ele>188</ele>
        <time>2018-10-12T10:07:46Z</time>
      </trkpt>
      <trkpt lat="46.0371" lon="4.70172">
        <ele>189</ele>
        <time>2018-10-12T10:07:47Z</time>
      </trkpt>
      <trkpt lat="46.03705" lon="4.70175">
        <ele>189</ele>
        <time>2018-10-12T10:07:48Z</time>
      </trkpt>
      <trkpt lat="46.037" lon="4.70176">
        <ele>189</ele>
        <time>2018-10-12T10:07:49Z</time>
      </trkpt>
      <trkpt lat="46.03695" lon="4.70179">
        <ele>189</ele>
        <time>2018-10-12T10:07:50Z</time>
      </trkpt>
      <trkpt lat="46.0369" lon="4.70182">
        <ele>189</ele>
        <time>2018-10-12T10:07:51Z</time>
      </trkpt>
      <trkpt lat="46.03686" lon="4.70185">
        <ele>190</ele>
        <time>2018-10-12T10:07:52Z</time>
      </trkpt>
      <trkpt lat="46.03682" lon="4.70188">
        <ele>190</ele>
        <time>2018-10-12T10:07:53Z</time>
      </trkpt>
      <trkpt lat="46.0368" lon="4.70195">
        <ele>189</ele>
        <time>2018-10-12T10:07:54Z</time>
      </trkpt>
      <trkpt lat="46.03673" lon="4.70195">
        <ele>189</ele>
        <time>2018-10-12T10:07:55Z</time>
      </trkpt>
      <trkpt lat="46.03665" lon="4.70199">
        <ele>191</ele>
        <time>2018-10-12T10:07:57Z</time>
      </trkpt>
      <trkpt lat="46.03664" lon="4.70199">
        <ele>191</ele>
        <time>2018-10-12T10:07:58Z</time>
      </trkpt>
      <trkpt lat="46.03662" lon="4.702">
        <ele>191</ele>
        <time>2018-10-12T10:07:59Z</time>
      </trkpt>
      <trkpt lat="46.03655" lon="4.70203">
        <ele>190</ele>
        <time>2018-10-12T10:08:00Z</time>
      </trkpt>
      <trkpt lat="46.03648" lon="4.70205">
        <ele>190</ele>
        <time>2018-10-12T10:08:02Z</time>
      </trkpt>
      <trkpt lat="46.03645" lon="4.70207">
        <ele>190</ele>
        <time>2018-10-12T10:08:03Z</time>
      </trkpt>
      <trkpt lat="46.03638" lon="4.70209">
        <ele>190</ele>
        <time>2018-10-12T10:08:06Z</time>
      </trkpt>
      <trkpt lat="46.03622" lon="4.70215">
        <ele>190</ele>
        <time>2018-10-12T10:08:07Z</time>
      </trkpt>
      <trkpt lat="46.03614" lon="4.70217">
        <ele>190</ele>
        <time>2018-10-12T10:08:10Z</time>
      </trkpt>
      <trkpt lat="46.03611" lon="4.70218">
        <ele>190</ele>
        <time>2018-10-12T10:08:11Z</time>
      </trkpt>
      <trkpt lat="46.03602" lon="4.70219">
        <ele>190</ele>
        <time>2018-10-12T10:08:12Z</time>
      </trkpt>
      <trkpt lat="46.03598" lon="4.70221">
        <ele>190</ele>
        <time>2018-10-12T10:08:13Z</time>
      </trkpt>
      <trkpt lat="46.03594" lon="4.70224">
        <ele>190</ele>
        <time>2018-10-12T10:08:14Z</time>
      </trkpt>
      <trkpt lat="46.03589" lon="4.70226">
        <ele>190</ele>
        <time>2018-10-12T10:08:15Z</time>
      </trkpt>
      <trkpt lat="46.03585" lon="4.70229">
        <ele>190</ele>
        <time>2018-10-12T10:08:16Z</time>
      </trkpt>
      <trkpt lat="46.03579" lon="4.70229">
        <ele>190</ele>
        <time>2018-10-12T10:08:17Z</time>
      </trkpt>
      <trkpt lat="46.03574" lon="4.70231">
        <ele>190</ele>
        <time>2018-10-12T10:08:18Z</time>
      </trkpt>
      <trkpt lat="46.03568" lon="4.70234">
        <ele>190</ele>
        <time>2018-10-12T10:08:19Z</time>
      </trkpt>
      <trkpt lat="46.03564" lon="4.70235">
        <ele>190</ele>
        <time>2018-10-12T10:08:20Z</time>
      </trkpt>
      <trkpt lat="46.03558" lon="4.70237">
        <ele>190</ele>
        <time>2018-10-12T10:08:21Z</time>
      </trkpt>
      <trkpt lat="46.03554" lon="4.70239">
        <ele>190</ele>
        <time>2018-10-12T10:08:22Z</time>
      </trkpt>
      <trkpt lat="46.03549" lon="4.70241">
        <ele>190</ele>
        <time>2018-10-12T10:08:23Z</time>
      </trkpt>
      <trkpt lat="46.03544" lon="4.70243">
        <ele>189</ele>
        <time>2018-10-12T10:08:24Z</time>
      </trkpt>
      <trkpt lat="46.03538" lon="4.70245">
        <ele>189</ele>
        <time>2018-10-12T10:08:25Z</time>
      </trkpt>
      <trkpt lat="46.03534" lon="4.70247">
        <ele>189</ele>
        <time>2018-10-12T10:08:26Z</time>
      </trkpt>
      <trkpt lat="46.03528" lon="4.70248">
        <ele>189</ele>
        <time>2018-10-12T10:08:27Z</time>
      </trkpt>
      <trkpt lat="46.03521" lon="4.7025">
        <ele>189</ele>
        <time>2018-10-12T10:08:28Z</time>
      </trkpt>
      <trkpt lat="46.03516" lon="4.70252">
        <ele>187</ele>
        <time>2018-10-12T10:08:29Z</time>
      </trkpt>
      <trkpt lat="46.03509" lon="4.70254">
        <ele>187</ele>
        <time>2018-10-12T10:08:30Z</time>
      </trkpt>
      <trkpt lat="46.03504" lon="4.70256">
        <ele>187</ele>
        <time>2018-10-12T10:08:31Z</time>
      </trkpt>
      <trkpt lat="46.03498" lon="4.70258">
        <ele>187</ele>
        <time>2018-10-12T10:08:32Z</time>
      </trkpt>
      <trkpt lat="46.03492" lon="4.70259">
        <ele>187</ele>
        <time>2018-10-12T10:08:33Z</time>
      </trkpt>
      <trkpt lat="46.03487" lon="4.7026">
        <ele>188</ele>
        <time>2018-10-12T10:08:34Z</time>
      </trkpt>
      <trkpt lat="46.03481" lon="4.70262">
        <ele>188</ele>
        <time>2018-10-12T10:08:35Z</time>
      </trkpt>
      <trkpt lat="46.03475" lon="4.70261">
        <ele>188</ele>
        <time>2018-10-12T10:08:36Z</time>
      </trkpt>
      <trkpt lat="46.0347" lon="4.70262">
        <ele>188</ele>
        <time>2018-10-12T10:08:37Z</time>
      </trkpt>
      <trkpt lat="46.03466" lon="4.70265">
        <ele>188</ele>
        <time>2018-10-12T10:08:38Z</time>
      </trkpt>
      <trkpt lat="46.03461" lon="4.70267">
        <ele>188</ele>
        <time>2018-10-12T10:08:39Z</time>
      </trkpt>
      <trkpt lat="46.03456" lon="4.7027">
        <ele>188</ele>
        <time>2018-10-12T10:08:40Z</time>
      </trkpt>
      <trkpt lat="46.03452" lon="4.70272">
        <ele>188</ele>
        <time>2018-10-12T10:08:41Z</time>
      </trkpt>
      <trkpt lat="46.03447" lon="4.70273">
        <ele>189</ele>
        <time>2018-10-12T10:08:42Z</time>
      </trkpt>
      <trkpt lat="46.03443" lon="4.70277">
        <ele>189</ele>
        <time>2018-10-12T10:08:43Z</time>
      </trkpt>
      <trkpt lat="46.03438" lon="4.70281">
        <ele>189</ele>
        <time>2018-10-12T10:08:44Z</time>
      </trkpt>
      <trkpt lat="46.03434" lon="4.70283">
        <ele>189</ele>
        <time>2018-10-12T10:08:45Z</time>
      </trkpt>
      <trkpt lat="46.03429" lon="4.70284">
        <ele>189</ele>
        <time>2018-10-12T10:08:46Z</time>
      </trkpt>
      <trkpt lat="46.03424" lon="4.70286">
        <ele>189</ele>
        <time>2018-10-12T10:08:47Z</time>
      </trkpt>
      <trkpt lat="46.03416" lon="4.70289">
        <ele>191</ele>
        <time>2018-10-12T10:08:49Z</time>
      </trkpt>
      <trkpt lat="46.03411" lon="4.7029">
        <ele>191</ele>
        <time>2018-10-12T10:08:50Z</time>
      </trkpt>
      <trkpt lat="46.03406" lon="4.70292">
        <ele>191</ele>
        <time>2018-10-12T10:08:51Z</time>
      </trkpt>
      <trkpt lat="46.03402" lon="4.70294">
        <ele>191</ele>
        <time>2018-10-12T10:08:52Z</time>
      </trkpt>
      <trkpt lat="46.03394" lon="4.70299">
        <ele>191</ele>
        <time>2018-10-12T10:08:54Z</time>
      </trkpt>
      <trkpt lat="46.03389" lon="4.70301">
        <ele>191</ele>
        <time>2018-10-12T10:08:55Z</time>
      </trkpt>
      <trkpt lat="46.03382" lon="4.70303">
        <ele>191</ele>
        <time>2018-10-12T10:08:57Z</time>
      </trkpt>
      <trkpt lat="46.03378" lon="4.70304">
        <ele>191</ele>
        <time>2018-10-12T10:08:58Z</time>
      </trkpt>
      <trkpt lat="46.0337" lon="4.70308">
        <ele>191</ele>
        <time>2018-10-12T10:09:00Z</time>
      </trkpt>
      <trkpt lat="46.03365" lon="4.7031">
        <ele>191</ele>
        <time>2018-10-12T10:09:01Z</time>
      </trkpt>
      <trkpt lat="46.03357" lon="4.70313">
        <ele>191</ele>
        <time>2018-10-12T10:09:03Z</time>
      </trkpt>
      <trkpt lat="46.03353" lon="4.70314">
        <ele>191</ele>
        <time>2018-10-12T10:09:04Z</time>
      </trkpt>
      <trkpt lat="46.03346" lon="4.70318">
        <ele>191</ele>
        <time>2018-10-12T10:09:06Z</time>
      </trkpt>
      <trkpt lat="46.03342" lon="4.70321">
        <ele>191</ele>
        <time>2018-10-12T10:09:07Z</time>
      </trkpt>
      <trkpt lat="46.03334" lon="4.70324">
        <ele>191</ele>
        <time>2018-10-12T10:09:09Z</time>
      </trkpt>
      <trkpt lat="46.0333" lon="4.70326">
        <ele>192</ele>
        <time>2018-10-12T10:09:10Z</time>
      </trkpt>
      <trkpt lat="46.03322" lon="4.70329">
        <ele>192</ele>
        <time>2018-10-12T10:09:12Z</time>
      </trkpt>
      <trkpt lat="46.03318" lon="4.7033">
        <ele>192</ele>
        <time>2018-10-12T10:09:13Z</time>
      </trkpt>
      <trkpt lat="46.0331" lon="4.70334">
        <ele>191</ele>
        <time>2018-10-12T10:09:15Z</time>
      </trkpt>
      <trkpt lat="46.03306" lon="4.70336">
        <ele>191</ele>
        <time>2018-10-12T10:09:16Z</time>
      </trkpt>
      <trkpt lat="46.03298" lon="4.70339">
        <ele>191</ele>
        <time>2018-10-12T10:09:18Z</time>
      </trkpt>
      <trkpt lat="46.03294" lon="4.70341">
        <ele>191</ele>
        <time>2018-10-12T10:09:19Z</time>
      </trkpt>
      <trkpt lat="46.03285" lon="4.70344">
        <ele>191</ele>
        <time>2018-10-12T10:09:21Z</time>
      </trkpt>
      <trkpt lat="46.03281" lon="4.70346">
        <ele>191</ele>
        <time>2018-10-12T10:09:22Z</time>
      </trkpt>
      <trkpt lat="46.03272" lon="4.70348">
        <ele>191</ele>
        <time>2018-10-12T10:09:24Z</time>
      </trkpt>
      <trkpt lat="46.03268" lon="4.7035">
        <ele>191</ele>
        <time>2018-10-12T10:09:25Z</time>
      </trkpt>
      <trkpt lat="46.03259" lon="4.70352">
        <ele>191</ele>
        <time>2018-10-12T10:09:27Z</time>
      </trkpt>
      <trkpt lat="46.03255" lon="4.70354">
        <ele>191</ele>
        <time>2018-10-12T10:09:28Z</time>
      </trkpt>
      <trkpt lat="46.03247" lon="4.70358">
        <ele>192</ele>
        <time>2018-10-12T10:09:30Z</time>
      </trkpt>
      <trkpt lat="46.03243" lon="4.7036">
        <ele>192</ele>
        <time>2018-10-12T10:09:31Z</time>
      </trkpt>
      <trkpt lat="46.03235" lon="4.70364">
        <ele>192</ele>
        <time>2018-10-12T10:09:33Z</time>
      </trkpt>
      <trkpt lat="46.03231" lon="4.70366">
        <ele>192</ele>
        <time>2018-10-12T10:09:34Z</time>
      </trkpt>
      <trkpt lat="46.03223" lon="4.70371">
        <ele>192</ele>
        <time>2018-10-12T10:09:36Z</time>
      </trkpt>
      <trkpt lat="46.03219" lon="4.70373">
        <ele>192</ele>
        <time>2018-10-12T10:09:37Z</time>
      </trkpt>
      <trkpt lat="46.03216" lon="4.70378">
        <ele>192</ele>
        <time>2018-10-12T10:09:38Z</time>
      </trkpt>
      <trkpt lat="46.03212" lon="4.70381">
        <ele>192</ele>
        <time>2018-10-12T10:09:39Z</time>
      </trkpt>
      <trkpt lat="46.03208" lon="4.70384">
        <ele>192</ele>
        <time>2018-10-12T10:09:40Z</time>
      </trkpt>
      <trkpt lat="46.03203" lon="4.70386">
        <ele>192</ele>
        <time>2018-10-12T10:09:41Z</time>
      </trkpt>
      <trkpt lat="46.03199" lon="4.70388">
        <ele>192</ele>
        <time>2018-10-12T10:09:42Z</time>
      </trkpt>
      <trkpt lat="46.03194" lon="4.7039">
        <ele>192</ele>
        <time>2018-10-12T10:09:43Z</time>
      </trkpt>
      <trkpt lat="46.03189" lon="4.70392">
        <ele>192</ele>
        <time>2018-10-12T10:09:44Z</time>
      </trkpt>
      <trkpt lat="46.03184" lon="4.70393">
        <ele>192</ele>
        <time>2018-10-12T10:09:45Z</time>
      </trkpt>
      <trkpt lat="46.03179" lon="4.70394">
        <ele>192</ele>
        <time>2018-10-12T10:09:46Z</time>
      </trkpt>
      <trkpt lat="46.03174" lon="4.70397">
        <ele>192</ele>
        <time>2018-10-12T10:09:47Z</time>
      </trkpt>
      <trkpt lat="46.0317" lon="4.70399">
        <ele>192</ele>
        <time>2018-10-12T10:09:48Z</time>
      </trkpt>
      <trkpt lat="46.03166" lon="4.704">
        <ele>192</ele>
        <time>2018-10-12T10:09:49Z</time>
      </trkpt>
      <trkpt lat="46.03161" lon="4.70403">
        <ele>192</ele>
        <time>2018-10-12T10:09:50Z</time>
      </trkpt>
      <trkpt lat="46.03157" lon="4.70406">
        <ele>192</ele>
        <time>2018-10-12T10:09:51Z</time>
      </trkpt>
      <trkpt lat="46.03152" lon="4.70408">
        <ele>192</ele>
        <time>2018-10-12T10:09:52Z</time>
      </trkpt>
      <trkpt lat="46.03147" lon="4.7041">
        <ele>192</ele>
        <time>2018-10-12T10:09:53Z</time>
      </trkpt>
      <trkpt lat="46.03143" lon="4.70411">
        <ele>192</ele>
        <time>2018-10-12T10:09:54Z</time>
      </trkpt>
      <trkpt lat="46.03138" lon="4.70414">
        <ele>192</ele>
        <time>2018-10-12T10:09:55Z</time>
      </trkpt>
      <trkpt lat="46.03134" lon="4.70417">
        <ele>192</ele>
        <time>2018-10-12T10:09:56Z</time>
      </trkpt>
      <trkpt lat="46.03129" lon="4.70419">
        <ele>192</ele>
        <time>2018-10-12T10:09:57Z</time>
      </trkpt>
      <trkpt lat="46.03124" lon="4.70422">
        <ele>192</ele>
        <time>2018-10-12T10:09:58Z</time>
      </trkpt>
      <trkpt lat="46.03119" lon="4.70424">
        <ele>192</ele>
        <time>2018-10-12T10:09:59Z</time>
      </trkpt>
      <trkpt lat="46.03114" lon="4.70427">
        <ele>192</ele>
        <time>2018-10-12T10:10:00Z</time>
      </trkpt>
      <trkpt lat="46.03109" lon="4.7043">
        <ele>192</ele>
        <time>2018-10-12T10:10:01Z</time>
      </trkpt>
      <trkpt lat="46.03103" lon="4.70433">
        <ele>192</ele>
        <time>2018-10-12T10:10:02Z</time>
      </trkpt>
      <trkpt lat="46.03098" lon="4.70435">
        <ele>192</ele>
        <time>2018-10-12T10:10:03Z</time>
      </trkpt>
      <trkpt lat="46.03092" lon="4.70437">
        <ele>192</ele>
        <time>2018-10-12T10:10:04Z</time>
      </trkpt>
      <trkpt lat="46.03087" lon="4.7044">
        <ele>192</ele>
        <time>2018-10-12T10:10:05Z</time>
      </trkpt>
      <trkpt lat="46.03082" lon="4.70445">
        <ele>191</ele>
        <time>2018-10-12T10:10:06Z</time>
      </trkpt>
      <trkpt lat="46.03078" lon="4.70447">
        <ele>191</ele>
        <time>2018-10-12T10:10:07Z</time>
      </trkpt>
      <trkpt lat="46.03073" lon="4.70449">
        <ele>191</ele>
        <time>2018-10-12T10:10:08Z</time>
      </trkpt>
      <trkpt lat="46.03069" lon="4.70452">
        <ele>191</ele>
        <time>2018-10-12T10:10:09Z</time>
      </trkpt>
      <trkpt lat="46.03064" lon="4.70455">
        <ele>191</ele>
        <time>2018-10-12T10:10:10Z</time>
      </trkpt>
      <trkpt lat="46.0306" lon="4.70458">
        <ele>191</ele>
        <time>2018-10-12T10:10:11Z</time>
      </trkpt>
      <trkpt lat="46.03052" lon="4.70466">
        <ele>191</ele>
        <time>2018-10-12T10:10:13Z</time>
      </trkpt>
      <trkpt lat="46.03049" lon="4.70469">
        <ele>191</ele>
        <time>2018-10-12T10:10:14Z</time>
      </trkpt>
      <trkpt lat="46.03043" lon="4.70478">
        <ele>191</ele>
        <time>2018-10-12T10:10:16Z</time>
      </trkpt>
      <trkpt lat="46.03038" lon="4.70482">
        <ele>191</ele>
        <time>2018-10-12T10:10:17Z</time>
      </trkpt>
      <trkpt lat="46.03034" lon="4.70486">
        <ele>191</ele>
        <time>2018-10-12T10:10:18Z</time>
      </trkpt>
      <trkpt lat="46.03029" lon="4.7049">
        <ele>191</ele>
        <time>2018-10-12T10:10:19Z</time>
      </trkpt>
      <trkpt lat="46.03025" lon="4.70494">
        <ele>191</ele>
        <time>2018-10-12T10:10:20Z</time>
      </trkpt>
      <trkpt lat="46.03021" lon="4.70498">
        <ele>191</ele>
        <time>2018-10-12T10:10:21Z</time>
      </trkpt>
      <trkpt lat="46.03016" lon="4.70503">
        <ele>191</ele>
        <time>2018-10-12T10:10:22Z</time>
      </trkpt>
      <trkpt lat="46.03011" lon="4.70506">
        <ele>191</ele>
        <time>2018-10-12T10:10:23Z</time>
      </trkpt>
      <trkpt lat="46.03007" lon="4.70511">
        <ele>191</ele>
        <time>2018-10-12T10:10:24Z</time>
      </trkpt>
      <trkpt lat="46.03002" lon="4.70514">
        <ele>191</ele>
        <time>2018-10-12T10:10:25Z</time>
      </trkpt>
      <trkpt lat="46.02997" lon="4.70517">
        <ele>191</ele>
        <time>2018-10-12T10:10:26Z</time>
      </trkpt>
      <trkpt lat="46.02992" lon="4.70521">
        <ele>191</ele>
        <time>2018-10-12T10:10:27Z</time>
      </trkpt>
      <trkpt lat="46.02985" lon="4.70529">
        <ele>191</ele>
        <time>2018-10-12T10:10:29Z</time>
      </trkpt>
      <trkpt lat="46.02982" lon="4.70531">
        <ele>191</ele>
        <time>2018-10-12T10:10:30Z</time>
      </trkpt>
      <trkpt lat="46.02974" lon="4.70538">
        <ele>191</ele>
        <time>2018-10-12T10:10:32Z</time>
      </trkpt>
      <trkpt lat="46.0297" lon="4.70542">
        <ele>191</ele>
        <time>2018-10-12T10:10:33Z</time>
      </trkpt>
      <trkpt lat="46.02966" lon="4.70547">
        <ele>191</ele>
        <time>2018-10-12T10:10:34Z</time>
      </trkpt>
      <trkpt lat="46.02961" lon="4.70552">
        <ele>191</ele>
        <time>2018-10-12T10:10:35Z</time>
      </trkpt>
      <trkpt lat="46.02958" lon="4.70559">
        <ele>191</ele>
        <time>2018-10-12T10:10:36Z</time>
      </trkpt>
      <trkpt lat="46.02955" lon="4.70565">
        <ele>191</ele>
        <time>2018-10-12T10:10:37Z</time>
      </trkpt>
      <trkpt lat="46.02951" lon="4.70571">
        <ele>191</ele>
        <time>2018-10-12T10:10:38Z</time>
      </trkpt>
      <trkpt lat="46.02947" lon="4.70577">
        <ele>191</ele>
        <time>2018-10-12T10:10:39Z</time>
      </trkpt>
      <trkpt lat="46.02944" lon="4.70584">
        <ele>192</ele>
        <time>2018-10-12T10:10:40Z</time>
      </trkpt>
      <trkpt lat="46.02941" lon="4.70591">
        <ele>192</ele>
        <time>2018-10-12T10:10:41Z</time>
      </trkpt>
      <trkpt lat="46.02938" lon="4.70597">
        <ele>192</ele>
        <time>2018-10-12T10:10:42Z</time>
      </trkpt>
      <trkpt lat="46.02936" lon="4.70604">
        <ele>192</ele>
        <time>2018-10-12T10:10:43Z</time>
      </trkpt>
      <trkpt lat="46.02935" lon="4.70611">
        <ele>192</ele>
        <time>2018-10-12T10:10:44Z</time>
      </trkpt>
      <trkpt lat="46.02933" lon="4.70617">
        <ele>192</ele>
        <time>2018-10-12T10:10:45Z</time>
      </trkpt>
      <trkpt lat="46.02931" lon="4.70625">
        <ele>192</ele>
        <time>2018-10-12T10:10:46Z</time>
      </trkpt>
      <trkpt lat="46.02929" lon="4.70632">
        <ele>192</ele>
        <time>2018-10-12T10:10:47Z</time>
      </trkpt>
      <trkpt lat="46.02927" lon="4.70641">
        <ele>192</ele>
        <time>2018-10-12T10:10:48Z</time>
      </trkpt>
      <trkpt lat="46.02925" lon="4.70647">
        <ele>192</ele>
        <time>2018-10-12T10:10:49Z</time>
      </trkpt>
      <trkpt lat="46.02922" lon="4.70653">
        <ele>191</ele>
        <time>2018-10-12T10:10:50Z</time>
      </trkpt>
      <trkpt lat="46.02918" lon="4.70657">
        <ele>191</ele>
        <time>2018-10-12T10:10:51Z</time>
      </trkpt>
      <trkpt lat="46.02913" lon="4.70659">
        <ele>191</ele>
        <time>2018-10-12T10:10:52Z</time>
      </trkpt>
      <trkpt lat="46.02908" lon="4.70661">
        <ele>191</ele>
        <time>2018-10-12T10:10:53Z</time>
      </trkpt>
      <trkpt lat="46.02903" lon="4.70661">
        <ele>191</ele>
        <time>2018-10-12T10:10:54Z</time>
      </trkpt>
      <trkpt lat="46.02898" lon="4.7066">
        <ele>191</ele>
        <time>2018-10-12T10:10:55Z</time>
      </trkpt>
      <trkpt lat="46.02892" lon="4.70659">
        <ele>190</ele>
        <time>2018-10-12T10:10:56Z</time>
      </trkpt>
      <trkpt lat="46.02886" lon="4.70659">
        <ele>190</ele>
        <time>2018-10-12T10:10:57Z</time>
      </trkpt>
      <trkpt lat="46.02881" lon="4.70658">
        <ele>190</ele>
        <time>2018-10-12T10:10:58Z</time>
      </trkpt>
      <trkpt lat="46.02875" lon="4.70659">
        <ele>190</ele>
        <time>2018-10-12T10:10:59Z</time>
      </trkpt>
      <trkpt lat="46.0287" lon="4.70659">
        <ele>190</ele>
        <time>2018-10-12T10:11:00Z</time>
      </trkpt>
      <trkpt lat="46.02865" lon="4.70659">
        <ele>190</ele>
        <time>2018-10-12T10:11:01Z</time>
      </trkpt>
      <trkpt lat="46.0286" lon="4.7066">
        <ele>190</ele>
        <time>2018-10-12T10:11:02Z</time>
      </trkpt>
      <trkpt lat="46.02855" lon="4.70662">
        <ele>190</ele>
        <time>2018-10-12T10:11:03Z</time>
      </trkpt>
      <trkpt lat="46.02851" lon="4.70663">
        <ele>190</ele>
        <time>2018-10-12T10:11:04Z</time>
      </trkpt>
      <trkpt lat="46.02846" lon="4.70664">
        <ele>190</ele>
        <time>2018-10-12T10:11:05Z</time>
      </trkpt>
      <trkpt lat="46.02841" lon="4.70665">
        <ele>189</ele>
        <time>2018-10-12T10:11:06Z</time>
      </trkpt>
      <trkpt lat="46.02836" lon="4.70666">
        <ele>189</ele>
        <time>2018-10-12T10:11:07Z</time>
      </trkpt>
      <trkpt lat="46.02831" lon="4.70665">
        <ele>189</ele>
        <time>2018-10-12T10:11:08Z</time>
      </trkpt>
      <trkpt lat="46.02826" lon="4.70667">
        <ele>189</ele>
        <time>2018-10-12T10:11:09Z</time>
      </trkpt>
      <trkpt lat="46.02822" lon="4.70667">
        <ele>189</ele>
        <time>2018-10-12T10:11:10Z</time>
      </trkpt>
      <trkpt lat="46.02816" lon="4.70668">
        <ele>189</ele>
        <time>2018-10-12T10:11:11Z</time>
      </trkpt>
      <trkpt lat="46.02812" lon="4.7067">
        <ele>189</ele>
        <time>2018-10-12T10:11:12Z</time>
      </trkpt>
      <trkpt lat="46.02807" lon="4.7067">
        <ele>189</ele>
        <time>2018-10-12T10:11:13Z</time>
      </trkpt>
      <trkpt lat="46.02802" lon="4.70671">
        <ele>189</ele>
        <time>2018-10-12T10:11:14Z</time>
      </trkpt>
      <trkpt lat="46.02797" lon="4.70671">
        <ele>189</ele>
        <time>2018-10-12T10:11:15Z</time>
      </trkpt>
      <trkpt lat="46.02792" lon="4.70671">
        <ele>189</ele>
        <time>2018-10-12T10:11:16Z</time>
      </trkpt>
      <trkpt lat="46.02787" lon="4.70671">
        <ele>189</ele>
        <time>2018-10-12T10:11:17Z</time>
      </trkpt>
      <trkpt lat="46.02778" lon="4.70671">
        <ele>189</ele>
        <time>2018-10-12T10:11:19Z</time>
      </trkpt>
      <trkpt lat="46.02773" lon="4.7067">
        <ele>189</ele>
        <time>2018-10-12T10:11:20Z</time>
      </trkpt>
      <trkpt lat="46.02764" lon="4.70668">
        <ele>189</ele>
        <time>2018-10-12T10:11:22Z</time>
      </trkpt>
      <trkpt lat="46.02759" lon="4.70668">
        <ele>189</ele>
        <time>2018-10-12T10:11:23Z</time>
      </trkpt>
      <trkpt lat="46.02753" lon="4.70668">
        <ele>189</ele>
        <time>2018-10-12T10:11:24Z</time>
      </trkpt>
      <trkpt lat="46.02748" lon="4.70667">
        <ele>189</ele>
        <time>2018-10-12T10:11:25Z</time>
      </trkpt>
      <trkpt lat="46.02743" lon="4.70667">
        <ele>189</ele>
        <time>2018-10-12T10:11:26Z</time>
      </trkpt>
      <trkpt lat="46.02738" lon="4.70666">
        <ele>189</ele>
        <time>2018-10-12T10:11:27Z</time>
      </trkpt>
      <trkpt lat="46.02733" lon="4.70666">
        <ele>189</ele>
        <time>2018-10-12T10:11:28Z</time>
      </trkpt>
      <trkpt lat="46.02728" lon="4.70664">
        <ele>189</ele>
        <time>2018-10-12T10:11:29Z</time>
      </trkpt>
      <trkpt lat="46.02723" lon="4.70663">
        <ele>189</ele>
        <time>2018-10-12T10:11:30Z</time>
      </trkpt>
      <trkpt lat="46.02719" lon="4.70663">
        <ele>189</ele>
        <time>2018-10-12T10:11:31Z</time>
      </trkpt>
      <trkpt lat="46.02714" lon="4.70662">
        <ele>189</ele>
        <time>2018-10-12T10:11:32Z</time>
      </trkpt>
      <trkpt lat="46.02709" lon="4.70661">
        <ele>189</ele>
        <time>2018-10-12T10:11:33Z</time>
      </trkpt>
      <trkpt lat="46.02701" lon="4.70661">
        <ele>189</ele>
        <time>2018-10-12T10:11:35Z</time>
      </trkpt>
      <trkpt lat="46.02697" lon="4.7066">
        <ele>189</ele>
        <time>2018-10-12T10:11:36Z</time>
      </trkpt>
      <trkpt lat="46.02689" lon="4.7066">
        <ele>190</ele>
        <time>2018-10-12T10:11:38Z</time>
      </trkpt>
      <trkpt lat="46.02685" lon="4.70659">
        <ele>190</ele>
        <time>2018-10-12T10:11:39Z</time>
      </trkpt>
      <trkpt lat="46.02681" lon="4.70658">
        <ele>190</ele>
        <time>2018-10-12T10:11:40Z</time>
      </trkpt>
      <trkpt lat="46.02676" lon="4.70658">
        <ele>190</ele>
        <time>2018-10-12T10:11:41Z</time>
      </trkpt>
      <trkpt lat="46.02667" lon="4.70657">
        <ele>190</ele>
        <time>2018-10-12T10:11:43Z</time>
      </trkpt>
      <trkpt lat="46.02663" lon="4.70656">
        <ele>190</ele>
        <time>2018-10-12T10:11:44Z</time>
      </trkpt>
      <trkpt lat="46.02657" lon="4.70655">
        <ele>190</ele>
        <time>2018-10-12T10:11:45Z</time>
      </trkpt>
      <trkpt lat="46.02651" lon="4.70654">
        <ele>190</ele>
        <time>2018-10-12T10:11:46Z</time>
      </trkpt>
      <trkpt lat="46.02646" lon="4.70653">
        <ele>190</ele>
        <time>2018-10-12T10:11:47Z</time>
      </trkpt>
      <trkpt lat="46.02641" lon="4.70653">
        <ele>190</ele>
        <time>2018-10-12T10:11:48Z</time>
      </trkpt>
      <trkpt lat="46.02636" lon="4.70652">
        <ele>190</ele>
        <time>2018-10-12T10:11:49Z</time>
      </trkpt>
      <trkpt lat="46.02631" lon="4.70653">
        <ele>190</ele>
        <time>2018-10-12T10:11:50Z</time>
      </trkpt>
      <trkpt lat="46.02622" lon="4.70651">
        <ele>190</ele>
        <time>2018-10-12T10:11:52Z</time>
      </trkpt>
      <trkpt lat="46.02617" lon="4.70652">
        <ele>190</ele>
        <time>2018-10-12T10:11:53Z</time>
      </trkpt>
      <trkpt lat="46.02612" lon="4.70651">
        <ele>190</ele>
        <time>2018-10-12T10:11:54Z</time>
      </trkpt>
      <trkpt lat="46.02606" lon="4.70651">
        <ele>190</ele>
        <time>2018-10-12T10:11:55Z</time>
      </trkpt>
      <trkpt lat="46.02601" lon="4.70649">
        <ele>190</ele>
        <time>2018-10-12T10:11:56Z</time>
      </trkpt>
      <trkpt lat="46.02595" lon="4.70646">
        <ele>190</ele>
        <time>2018-10-12T10:11:57Z</time>
      </trkpt>
      <trkpt lat="46.0259" lon="4.70645">
        <ele>190</ele>
        <time>2018-10-12T10:11:58Z</time>
      </trkpt>
      <trkpt lat="46.02584" lon="4.70644">
        <ele>190</ele>
        <time>2018-10-12T10:11:59Z</time>
      </trkpt>
      <trkpt lat="46.02579" lon="4.70642">
        <ele>190</ele>
        <time>2018-10-12T10:12:00Z</time>
      </trkpt>
      <trkpt lat="46.02574" lon="4.70641">
        <ele>190</ele>
        <time>2018-10-12T10:12:01Z</time>
      </trkpt>
      <trkpt lat="46.02569" lon="4.7064">
        <ele>189</ele>
        <time>2018-10-12T10:12:02Z</time>
      </trkpt>
      <trkpt lat="46.02564" lon="4.70638">
        <ele>189</ele>
        <time>2018-10-12T10:12:03Z</time>
      </trkpt>
      <trkpt lat="46.02559" lon="4.70637">
        <ele>189</ele>
        <time>2018-10-12T10:12:04Z</time>
      </trkpt>
      <trkpt lat="46.02554" lon="4.70635">
        <ele>189</ele>
        <time>2018-10-12T10:12:05Z</time>
      </trkpt>
      <trkpt lat="46.02546" lon="4.70635">
        <ele>189</ele>
        <time>2018-10-12T10:12:07Z</time>
      </trkpt>
      <trkpt lat="46.02541" lon="4.70634">
        <ele>189</ele>
        <time>2018-10-12T10:12:08Z</time>
      </trkpt>
      <trkpt lat="46.02534" lon="4.7063">
        <ele>189</ele>
        <time>2018-10-12T10:12:10Z</time>
      </trkpt>
      <trkpt lat="46.02529" lon="4.70629">
        <ele>189</ele>
        <time>2018-10-12T10:12:11Z</time>
      </trkpt>
      <trkpt lat="46.02524" lon="4.70627">
        <ele>189</ele>
        <time>2018-10-12T10:12:12Z</time>
      </trkpt>
      <trkpt lat="46.02519" lon="4.70627">
        <ele>189</ele>
        <time>2018-10-12T10:12:13Z</time>
      </trkpt>
      <trkpt lat="46.02514" lon="4.70625">
        <ele>189</ele>
        <time>2018-10-12T10:12:14Z</time>
      </trkpt>
      <trkpt lat="46.0251" lon="4.70623">
        <ele>189</ele>
        <time>2018-10-12T10:12:15Z</time>
      </trkpt>
      <trkpt lat="46.02501" lon="4.7062">
        <ele>189</ele>
        <time>2018-10-12T10:12:17Z</time>
      </trkpt>
      <trkpt lat="46.02497" lon="4.70618">
        <ele>188</ele>
        <time>2018-10-12T10:12:18Z</time>
      </trkpt>
      <trkpt lat="46.0249" lon="4.70615">
        <ele>188</ele>
        <time>2018-10-12T10:12:20Z</time>
      </trkpt>
      <trkpt lat="46.02485" lon="4.70614">
        <ele>188</ele>
        <time>2018-10-12T10:12:21Z</time>
      </trkpt>
      <trkpt lat="46.02481" lon="4.70616">
        <ele>188</ele>
        <time>2018-10-12T10:12:22Z</time>
      </trkpt>
      <trkpt lat="46.02476" lon="4.70618">
        <ele>188</ele>
        <time>2018-10-12T10:12:23Z</time>
      </trkpt>
      <trkpt lat="46.02471" lon="4.70627">
        <ele>188</ele>
        <time>2018-10-12T10:12:25Z</time>
      </trkpt>
      <trkpt lat="46.0247" lon="4.70634">
        <ele>188</ele>
        <time>2018-10-12T10:12:26Z</time>
      </trkpt>
      <trkpt lat="46.02468" lon="4.70641">
        <ele>188</ele>
        <time>2018-10-12T10:12:27Z</time>
      </trkpt>
      <trkpt lat="46.02466" lon="4.70648">
        <ele>188</ele>
        <time>2018-10-12T10:12:28Z</time>
      </trkpt>
      <trkpt lat="46.02464" lon="4.70655">
        <ele>189</ele>
        <time>2018-10-12T10:12:29Z</time>
      </trkpt>
      <trkpt lat="46.02462" lon="4.7066">
        <ele>189</ele>
        <time>2018-10-12T10:12:30Z</time>
      </trkpt>
      <trkpt lat="46.02461" lon="4.70667">
        <ele>190</ele>
        <time>2018-10-12T10:12:31Z</time>
      </trkpt>
      <trkpt lat="46.02459" lon="4.70674">
        <ele>190</ele>
        <time>2018-10-12T10:12:32Z</time>
      </trkpt>
      <trkpt lat="46.02458" lon="4.70682">
        <ele>190</ele>
        <time>2018-10-12T10:12:33Z</time>
      </trkpt>
      <trkpt lat="46.02456" lon="4.70688">
        <ele>190</ele>
        <time>2018-10-12T10:12:34Z</time>
      </trkpt>
      <trkpt lat="46.02455" lon="4.70694">
        <ele>190</ele>
        <time>2018-10-12T10:12:35Z</time>
      </trkpt>
      <trkpt lat="46.02455" lon="4.70703">
        <ele>190</ele>
        <time>2018-10-12T10:12:36Z</time>
      </trkpt>
      <trkpt lat="46.02452" lon="4.70708">
        <ele>190</ele>
        <time>2018-10-12T10:12:37Z</time>
      </trkpt>
      <trkpt lat="46.0245" lon="4.70715">
        <ele>190</ele>
        <time>2018-10-12T10:12:38Z</time>
      </trkpt>
      <trkpt lat="46.02448" lon="4.70721">
        <ele>190</ele>
        <time>2018-10-12T10:12:39Z</time>
      </trkpt>
      <trkpt lat="46.02446" lon="4.70729">
        <ele>190</ele>
        <time>2018-10-12T10:12:40Z</time>
      </trkpt>
      <trkpt lat="46.02442" lon="4.70737">
        <ele>190</ele>
        <time>2018-10-12T10:12:41Z</time>
      </trkpt>
      <trkpt lat="46.02439" lon="4.70743">
        <ele>189</ele>
        <time>2018-10-12T10:12:42Z</time>
      </trkpt>
      <trkpt lat="46.02435" lon="4.70749">
        <ele>189</ele>
        <time>2018-10-12T10:12:43Z</time>
      </trkpt>
      <trkpt lat="46.02431" lon="4.70754">
        <ele>189</ele>
        <time>2018-10-12T10:12:44Z</time>
      </trkpt>
      <trkpt lat="46.02426" lon="4.70758">
        <ele>189</ele>
        <time>2018-10-12T10:12:45Z</time>
      </trkpt>
      <trkpt lat="46.02422" lon="4.70763">
        <ele>189</ele>
        <time>2018-10-12T10:12:46Z</time>
      </trkpt>
      <trkpt lat="46.02416" lon="4.70768">
        <ele>186</ele>
        <time>2018-10-12T10:12:47Z</time>
      </trkpt>
      <trkpt lat="46.02412" lon="4.70771">
        <ele>186</ele>
        <time>2018-10-12T10:12:48Z</time>
      </trkpt>
      <trkpt lat="46.02406" lon="4.70774">
        <ele>185</ele>
        <time>2018-10-12T10:12:49Z</time>
      </trkpt>
      <trkpt lat="46.024" lon="4.70776">
        <ele>185</ele>
        <time>2018-10-12T10:12:50Z</time>
      </trkpt>
      <trkpt lat="46.02395" lon="4.70778">
        <ele>185</ele>
        <time>2018-10-12T10:12:51Z</time>
      </trkpt>
      <trkpt lat="46.02389" lon="4.70778">
        <ele>184</ele>
        <time>2018-10-12T10:12:52Z</time>
      </trkpt>
      <trkpt lat="46.02383" lon="4.70777">
        <ele>184</ele>
        <time>2018-10-12T10:12:53Z</time>
      </trkpt>
      <trkpt lat="46.02377" lon="4.70777">
        <ele>184</ele>
        <time>2018-10-12T10:12:54Z</time>
      </trkpt>
      <trkpt lat="46.02371" lon="4.70775">
        <ele>184</ele>
        <time>2018-10-12T10:12:55Z</time>
      </trkpt>
      <trkpt lat="46.02365" lon="4.70775">
        <ele>183</ele>
        <time>2018-10-12T10:12:56Z</time>
      </trkpt>
      <trkpt lat="46.02359" lon="4.70774">
        <ele>183</ele>
        <time>2018-10-12T10:12:57Z</time>
      </trkpt>
      <trkpt lat="46.02353" lon="4.70772">
        <ele>183</ele>
        <time>2018-10-12T10:12:58Z</time>
      </trkpt>
      <trkpt lat="46.02347" lon="4.7077">
        <ele>182</ele>
        <time>2018-10-12T10:12:59Z</time>
      </trkpt>
      <trkpt lat="46.02342" lon="4.7077">
        <ele>182</ele>
        <time>2018-10-12T10:13:00Z</time>
      </trkpt>
      <trkpt lat="46.02336" lon="4.70769">
        <ele>182</ele>
        <time>2018-10-12T10:13:01Z</time>
      </trkpt>
      <trkpt lat="46.0233" lon="4.70768">
        <ele>180</ele>
        <time>2018-10-12T10:13:02Z</time>
      </trkpt>
      <trkpt lat="46.02324" lon="4.70767">
        <ele>180</ele>
        <time>2018-10-12T10:13:03Z</time>
      </trkpt>
      <trkpt lat="46.02318" lon="4.70766">
        <ele>180</ele>
        <time>2018-10-12T10:13:04Z</time>
      </trkpt>
      <trkpt lat="46.02312" lon="4.70765">
        <ele>180</ele>
        <time>2018-10-12T10:13:05Z</time>
      </trkpt>
      <trkpt lat="46.02306" lon="4.70764">
        <ele>180</ele>
        <time>2018-10-12T10:13:06Z</time>
      </trkpt>
      <trkpt lat="46.02301" lon="4.70763">
        <ele>180</ele>
        <time>2018-10-12T10:13:07Z</time>
      </trkpt>
      <trkpt lat="46.02295" lon="4.70762">
        <ele>180</ele>
        <time>2018-10-12T10:13:08Z</time>
      </trkpt>
      <trkpt lat="46.02289" lon="4.70761">
        <ele>181</ele>
        <time>2018-10-12T10:13:09Z</time>
      </trkpt>
      <trkpt lat="46.02283" lon="4.7076">
        <ele>181</ele>
        <time>2018-10-12T10:13:10Z</time>
      </trkpt>
      <trkpt lat="46.02278" lon="4.70758">
        <ele>181</ele>
        <time>2018-10-12T10:13:11Z</time>
      </trkpt>
      <trkpt lat="46.02272" lon="4.70758">
        <ele>181</ele>
        <time>2018-10-12T10:13:12Z</time>
      </trkpt>
      <trkpt lat="46.02267" lon="4.70756">
        <ele>181</ele>
        <time>2018-10-12T10:13:13Z</time>
      </trkpt>
      <trkpt lat="46.02261" lon="4.70755">
        <ele>181</ele>
        <time>2018-10-12T10:13:14Z</time>
      </trkpt>
      <trkpt lat="46.02256" lon="4.70754">
        <ele>181</ele>
        <time>2018-10-12T10:13:15Z</time>
      </trkpt>
      <trkpt lat="46.0225" lon="4.70753">
        <ele>181</ele>
        <time>2018-10-12T10:13:16Z</time>
      </trkpt>
      <trkpt lat="46.02244" lon="4.70752">
        <ele>181</ele>
        <time>2018-10-12T10:13:17Z</time>
      </trkpt>
      <trkpt lat="46.02238" lon="4.7075">
        <ele>180</ele>
        <time>2018-10-12T10:13:18Z</time>
      </trkpt>
      <trkpt lat="46.02232" lon="4.70749">
        <ele>181</ele>
        <time>2018-10-12T10:13:19Z</time>
      </trkpt>
      <trkpt lat="46.02226" lon="4.70747">
        <ele>181</ele>
        <time>2018-10-12T10:13:20Z</time>
      </trkpt>
      <trkpt lat="46.02221" lon="4.70747">
        <ele>181</ele>
        <time>2018-10-12T10:13:21Z</time>
      </trkpt>
      <trkpt lat="46.02215" lon="4.70747">
        <ele>180</ele>
        <time>2018-10-12T10:13:22Z</time>
      </trkpt>
      <trkpt lat="46.02209" lon="4.70745">
        <ele>180</ele>
        <time>2018-10-12T10:13:23Z</time>
      </trkpt>
      <trkpt lat="46.02204" lon="4.70744">
        <ele>180</ele>
        <time>2018-10-12T10:13:24Z</time>
      </trkpt>
      <trkpt lat="46.02199" lon="4.70743">
        <ele>180</ele>
        <time>2018-10-12T10:13:25Z</time>
      </trkpt>
      <trkpt lat="46.02194" lon="4.70742">
        <ele>180</ele>
        <time>2018-10-12T10:13:26Z</time>
      </trkpt>
      <trkpt lat="46.0219" lon="4.70741">
        <ele>180</ele>
        <time>2018-10-12T10:13:27Z</time>
      </trkpt>
      <trkpt lat="46.02185" lon="4.7074">
        <ele>180</ele>
        <time>2018-10-12T10:13:28Z</time>
      </trkpt>
      <trkpt lat="46.0218" lon="4.70739">
        <ele>180</ele>
        <time>2018-10-12T10:13:29Z</time>
      </trkpt>
      <trkpt lat="46.02175" lon="4.70739">
        <ele>180</ele>
        <time>2018-10-12T10:13:30Z</time>
      </trkpt>
      <trkpt lat="46.0217" lon="4.70738">
        <ele>180</ele>
        <time>2018-10-12T10:13:31Z</time>
      </trkpt>
      <trkpt lat="46.02165" lon="4.70736">
        <ele>179</ele>
        <time>2018-10-12T10:13:32Z</time>
      </trkpt>
      <trkpt lat="46.02159" lon="4.70736">
        <ele>179</ele>
        <time>2018-10-12T10:13:33Z</time>
      </trkpt>
      <trkpt lat="46.02154" lon="4.70734">
        <ele>179</ele>
        <time>2018-10-12T10:13:34Z</time>
      </trkpt>
      <trkpt lat="46.02149" lon="4.70733">
        <ele>179</ele>
        <time>2018-10-12T10:13:35Z</time>
      </trkpt>
      <trkpt lat="46.02143" lon="4.70732">
        <ele>179</ele>
        <time>2018-10-12T10:13:36Z</time>
      </trkpt>
      <trkpt lat="46.02139" lon="4.7073">
        <ele>179</ele>
        <time>2018-10-12T10:13:37Z</time>
      </trkpt>
      <trkpt lat="46.02133" lon="4.70729">
        <ele>179</ele>
        <time>2018-10-12T10:13:38Z</time>
      </trkpt>
      <trkpt lat="46.02128" lon="4.70728">
        <ele>179</ele>
        <time>2018-10-12T10:13:39Z</time>
      </trkpt>
      <trkpt lat="46.02123" lon="4.70727">
        <ele>179</ele>
        <time>2018-10-12T10:13:40Z</time>
      </trkpt>
      <trkpt lat="46.02119" lon="4.70726">
        <ele>179</ele>
        <time>2018-10-12T10:13:41Z</time>
      </trkpt>
      <trkpt lat="46.02114" lon="4.70725">
        <ele>179</ele>
        <time>2018-10-12T10:13:42Z</time>
      </trkpt>
      <trkpt lat="46.02109" lon="4.70725">
        <ele>179</ele>
        <time>2018-10-12T10:13:43Z</time>
      </trkpt>
      <trkpt lat="46.02104" lon="4.70724">
        <ele>179</ele>
        <time>2018-10-12T10:13:44Z</time>
      </trkpt>
      <trkpt lat="46.02099" lon="4.70722">
        <ele>179</ele>
        <time>2018-10-12T10:13:45Z</time>
      </trkpt>
      <trkpt lat="46.02094" lon="4.70722">
        <ele>178</ele>
        <time>2018-10-12T10:13:46Z</time>
      </trkpt>
      <trkpt lat="46.02089" lon="4.70721">
        <ele>178</ele>
        <time>2018-10-12T10:13:47Z</time>
      </trkpt>
      <trkpt lat="46.02084" lon="4.7072">
        <ele>178</ele>
        <time>2018-10-12T10:13:48Z</time>
      </trkpt>
      <trkpt lat="46.02079" lon="4.70719">
        <ele>179</ele>
        <time>2018-10-12T10:13:49Z</time>
      </trkpt>
      <trkpt lat="46.02075" lon="4.70718">
        <ele>179</ele>
        <time>2018-10-12T10:13:50Z</time>
      </trkpt>
      <trkpt lat="46.02066" lon="4.70718">
        <ele>179</ele>
        <time>2018-10-12T10:13:52Z</time>
      </trkpt>
      <trkpt lat="46.02061" lon="4.70717">
        <ele>179</ele>
        <time>2018-10-12T10:13:53Z</time>
      </trkpt>
      <trkpt lat="46.02052" lon="4.70716">
        <ele>179</ele>
        <time>2018-10-12T10:13:55Z</time>
      </trkpt>
      <trkpt lat="46.02047" lon="4.70715">
        <ele>179</ele>
        <time>2018-10-12T10:13:56Z</time>
      </trkpt>
      <trkpt lat="46.02039" lon="4.70714">
        <ele>179</ele>
        <time>2018-10-12T10:13:58Z</time>
      </trkpt>
      <trkpt lat="46.02035" lon="4.70713">
        <ele>179</ele>
        <time>2018-10-12T10:13:59Z</time>
      </trkpt>
      <trkpt lat="46.02028" lon="4.70711">
        <ele>179</ele>
        <time>2018-10-12T10:14:01Z</time>
      </trkpt>
      <trkpt lat="46.02024" lon="4.7071">
        <ele>179</ele>
        <time>2018-10-12T10:14:02Z</time>
      </trkpt>
      <trkpt lat="46.02017" lon="4.70708">
        <ele>179</ele>
        <time>2018-10-12T10:14:04Z</time>
      </trkpt>
      <trkpt lat="46.02013" lon="4.70707">
        <ele>179</ele>
        <time>2018-10-12T10:14:05Z</time>
      </trkpt>
      <trkpt lat="46.02005" lon="4.70706">
        <ele>179</ele>
        <time>2018-10-12T10:14:07Z</time>
      </trkpt>
      <trkpt lat="46.02001" lon="4.70705">
        <ele>179</ele>
        <time>2018-10-12T10:14:08Z</time>
      </trkpt>
      <trkpt lat="46.01993" lon="4.70703">
        <ele>181</ele>
        <time>2018-10-12T10:14:10Z</time>
      </trkpt>
      <trkpt lat="46.01989" lon="4.70702">
        <ele>181</ele>
        <time>2018-10-12T10:14:11Z</time>
      </trkpt>
      <trkpt lat="46.01981" lon="4.707">
        <ele>181</ele>
        <time>2018-10-12T10:14:13Z</time>
      </trkpt>
      <trkpt lat="46.01977" lon="4.707">
        <ele>181</ele>
        <time>2018-10-12T10:14:14Z</time>
      </trkpt>
      <trkpt lat="46.01969" lon="4.70698">
        <ele>181</ele>
        <time>2018-10-12T10:14:16Z</time>
      </trkpt>
      <trkpt lat="46.01966" lon="4.70698">
        <ele>181</ele>
        <time>2018-10-12T10:14:17Z</time>
      </trkpt>
      <trkpt lat="46.01958" lon="4.70697">
        <ele>181</ele>
        <time>2018-10-12T10:14:19Z</time>
      </trkpt>
      <trkpt lat="46.01954" lon="4.70697">
        <ele>181</ele>
        <time>2018-10-12T10:14:20Z</time>
      </trkpt>
      <trkpt lat="46.01946" lon="4.70696">
        <ele>182</ele>
        <time>2018-10-12T10:14:22Z</time>
      </trkpt>
      <trkpt lat="46.01942" lon="4.70695">
        <ele>182</ele>
        <time>2018-10-12T10:14:23Z</time>
      </trkpt>
      <trkpt lat="46.01934" lon="4.70694">
        <ele>182</ele>
        <time>2018-10-12T10:14:25Z</time>
      </trkpt>
      <trkpt lat="46.01931" lon="4.70694">
        <ele>182</ele>
        <time>2018-10-12T10:14:26Z</time>
      </trkpt>
      <trkpt lat="46.01923" lon="4.70693">
        <ele>182</ele>
        <time>2018-10-12T10:14:28Z</time>
      </trkpt>
      <trkpt lat="46.0192" lon="4.70692">
        <ele>182</ele>
        <time>2018-10-12T10:14:29Z</time>
      </trkpt>
      <trkpt lat="46.01912" lon="4.70691">
        <ele>184</ele>
        <time>2018-10-12T10:14:31Z</time>
      </trkpt>
      <trkpt lat="46.01908" lon="4.70691">
        <ele>184</ele>
        <time>2018-10-12T10:14:32Z</time>
      </trkpt>
      <trkpt lat="46.019" lon="4.7069">
        <ele>184</ele>
        <time>2018-10-12T10:14:34Z</time>
      </trkpt>
      <trkpt lat="46.01896" lon="4.70689">
        <ele>184</ele>
        <time>2018-10-12T10:14:35Z</time>
      </trkpt>
      <trkpt lat="46.01888" lon="4.70688">
        <ele>184</ele>
        <time>2018-10-12T10:14:37Z</time>
      </trkpt>
      <trkpt lat="46.01884" lon="4.70688">
        <ele>185</ele>
        <time>2018-10-12T10:14:38Z</time>
      </trkpt>
      <trkpt lat="46.01875" lon="4.70688">
        <ele>185</ele>
        <time>2018-10-12T10:14:40Z</time>
      </trkpt>
      <trkpt lat="46.01871" lon="4.70688">
        <ele>185</ele>
        <time>2018-10-12T10:14:41Z</time>
      </trkpt>
      <trkpt lat="46.01863" lon="4.70689">
        <ele>185</ele>
        <time>2018-10-12T10:14:43Z</time>
      </trkpt>
      <trkpt lat="46.01859" lon="4.70689">
        <ele>185</ele>
        <time>2018-10-12T10:14:44Z</time>
      </trkpt>
      <trkpt lat="46.01851" lon="4.7069">
        <ele>185</ele>
        <time>2018-10-12T10:14:46Z</time>
      </trkpt>
      <trkpt lat="46.01847" lon="4.7069">
        <ele>185</ele>
        <time>2018-10-12T10:14:47Z</time>
      </trkpt>
      <trkpt lat="46.01838" lon="4.7069">
        <ele>186</ele>
        <time>2018-10-12T10:14:49Z</time>
      </trkpt>
      <trkpt lat="46.01834" lon="4.70691">
        <ele>186</ele>
        <time>2018-10-12T10:14:50Z</time>
      </trkpt>
      <trkpt lat="46.01825" lon="4.70692">
        <ele>187</ele>
        <time>2018-10-12T10:14:52Z</time>
      </trkpt>
      <trkpt lat="46.01821" lon="4.70692">
        <ele>187</ele>
        <time>2018-10-12T10:14:53Z</time>
      </trkpt>
      <trkpt lat="46.01813" lon="4.70693">
        <ele>187</ele>
        <time>2018-10-12T10:14:55Z</time>
      </trkpt>
      <trkpt lat="46.01809" lon="4.70693">
        <ele>187</ele>
        <time>2018-10-12T10:14:56Z</time>
      </trkpt>
      <trkpt lat="46.018" lon="4.70693">
        <ele>187</ele>
        <time>2018-10-12T10:14:58Z</time>
      </trkpt>
      <trkpt lat="46.01796" lon="4.70693">
        <ele>187</ele>
        <time>2018-10-12T10:14:59Z</time>
      </trkpt>
      <trkpt lat="46.01788" lon="4.70694">
        <ele>187</ele>
        <time>2018-10-12T10:15:01Z</time>
      </trkpt>
      <trkpt lat="46.01784" lon="4.70695">
        <ele>187</ele>
        <time>2018-10-12T10:15:02Z</time>
      </trkpt>
      <trkpt lat="46.01776" lon="4.70696">
        <ele>187</ele>
        <time>2018-10-12T10:15:04Z</time>
      </trkpt>
      <trkpt lat="46.01772" lon="4.70697">
        <ele>187</ele>
        <time>2018-10-12T10:15:05Z</time>
      </trkpt>
      <trkpt lat="46.01764" lon="4.70698">
        <ele>187</ele>
        <time>2018-10-12T10:15:07Z</time>
      </trkpt>
      <trkpt lat="46.0176" lon="4.70698">
        <ele>187</ele>
        <time>2018-10-12T10:15:08Z</time>
      </trkpt>
      <trkpt lat="46.01752" lon="4.70698">
        <ele>187</ele>
        <time>2018-10-12T10:15:10Z</time>
      </trkpt>
      <trkpt lat="46.01748" lon="4.70699">
        <ele>188</ele>
        <time>2018-10-12T10:15:11Z</time>
      </trkpt>
      <trkpt lat="46.0174" lon="4.70701">
        <ele>188</ele>
        <time>2018-10-12T10:15:13Z</time>
      </trkpt>
      <trkpt lat="46.01736" lon="4.70702">
        <ele>188</ele>
        <time>2018-10-12T10:15:14Z</time>
      </trkpt>
      <trkpt lat="46.0173" lon="4.70703">
        <ele>188</ele>
        <time>2018-10-12T10:15:16Z</time>
      </trkpt>
      <trkpt lat="46.01725" lon="4.70704">
        <ele>188</ele>
        <time>2018-10-12T10:15:17Z</time>
      </trkpt>
      <trkpt lat="46.01717" lon="4.70705">
        <ele>188</ele>
        <time>2018-10-12T10:15:19Z</time>
      </trkpt>
      <trkpt lat="46.01713" lon="4.70705">
        <ele>188</ele>
        <time>2018-10-12T10:15:20Z</time>
      </trkpt>
      <trkpt lat="46.01706" lon="4.70706">
        <ele>189</ele>
        <time>2018-10-12T10:15:22Z</time>
      </trkpt>
      <trkpt lat="46.01702" lon="4.70706">
        <ele>189</ele>
        <time>2018-10-12T10:15:23Z</time>
      </trkpt>
      <trkpt lat="46.01695" lon="4.70707">
        <ele>189</ele>
        <time>2018-10-12T10:15:25Z</time>
      </trkpt>
      <trkpt lat="46.01691" lon="4.70708">
        <ele>189</ele>
        <time>2018-10-12T10:15:26Z</time>
      </trkpt>
      <trkpt lat="46.01684" lon="4.70709">
        <ele>189</ele>
        <time>2018-10-12T10:15:28Z</time>
      </trkpt>
      <trkpt lat="46.0168" lon="4.7071">
        <ele>189</ele>
        <time>2018-10-12T10:15:29Z</time>
      </trkpt>
      <trkpt lat="46.01673" lon="4.70711">
        <ele>189</ele>
        <time>2018-10-12T10:15:31Z</time>
      </trkpt>
      <trkpt lat="46.01669" lon="4.70712">
        <ele>189</ele>
        <time>2018-10-12T10:15:32Z</time>
      </trkpt>
      <trkpt lat="46.01662" lon="4.70713">
        <ele>190</ele>
        <time>2018-10-12T10:15:34Z</time>
      </trkpt>
      <trkpt lat="46.01658" lon="4.70713">
        <ele>190</ele>
        <time>2018-10-12T10:15:35Z</time>
      </trkpt>
      <trkpt lat="46.0165" lon="4.70713">
        <ele>190</ele>
        <time>2018-10-12T10:15:37Z</time>
      </trkpt>
      <trkpt lat="46.01646" lon="4.70714">
        <ele>190</ele>
        <time>2018-10-12T10:15:38Z</time>
      </trkpt>
      <trkpt lat="46.01638" lon="4.70714">
        <ele>190</ele>
        <time>2018-10-12T10:15:40Z</time>
      </trkpt>
      <trkpt lat="46.01635" lon="4.70715">
        <ele>190</ele>
        <time>2018-10-12T10:15:41Z</time>
      </trkpt>
      <trkpt lat="46.01627" lon="4.70715">
        <ele>190</ele>
        <time>2018-10-12T10:15:43Z</time>
      </trkpt>
      <trkpt lat="46.01623" lon="4.70716">
        <ele>190</ele>
        <time>2018-10-12T10:15:44Z</time>
      </trkpt>
      <trkpt lat="46.01615" lon="4.70716">
        <ele>190</ele>
        <time>2018-10-12T10:15:46Z</time>
      </trkpt>
      <trkpt lat="46.01612" lon="4.70717">
        <ele>190</ele>
        <time>2018-10-12T10:15:47Z</time>
      </trkpt>
      <trkpt lat="46.01604" lon="4.70717">
        <ele>190</ele>
        <time>2018-10-12T10:15:49Z</time>
      </trkpt>
      <trkpt lat="46.016" lon="4.70717">
        <ele>190</ele>
        <time>2018-10-12T10:15:50Z</time>
      </trkpt>
      <trkpt lat="46.01594" lon="4.70718">
        <ele>190</ele>
        <time>2018-10-12T10:15:52Z</time>
      </trkpt>
      <trkpt lat="46.01589" lon="4.70718">
        <ele>190</ele>
        <time>2018-10-12T10:15:53Z</time>
      </trkpt>
      <trkpt lat="46.01582" lon="4.70718">
        <ele>190</ele>
        <time>2018-10-12T10:15:55Z</time>
      </trkpt>
      <trkpt lat="46.0158" lon="4.70718">
        <ele>190</ele>
        <time>2018-10-12T10:15:56Z</time>
      </trkpt>
      <trkpt lat="46.01572" lon="4.70719">
        <ele>190</ele>
        <time>2018-10-12T10:15:58Z</time>
      </trkpt>
      <trkpt lat="46.0157" lon="4.70719">
        <ele>190</ele>
        <time>2018-10-12T10:15:59Z</time>
      </trkpt>
      <trkpt lat="46.01564" lon="4.7072">
        <ele>190</ele>
        <time>2018-10-12T10:16:00Z</time>
      </trkpt>
      <trkpt lat="46.0156" lon="4.7072">
        <ele>190</ele>
        <time>2018-10-12T10:16:01Z</time>
      </trkpt>
      <trkpt lat="46.01553" lon="4.70721">
        <ele>190</ele>
        <time>2018-10-12T10:16:03Z</time>
      </trkpt>
      <trkpt lat="46.01549" lon="4.70721">
        <ele>190</ele>
        <time>2018-10-12T10:16:04Z</time>
      </trkpt>
      <trkpt lat="46.01542" lon="4.70722">
        <ele>190</ele>
        <time>2018-10-12T10:16:06Z</time>
      </trkpt>
      <trkpt lat="46.01538" lon="4.70722">
        <ele>190</ele>
        <time>2018-10-12T10:16:07Z</time>
      </trkpt>
      <trkpt lat="46.0153" lon="4.70723">
        <ele>190</ele>
        <time>2018-10-12T10:16:09Z</time>
      </trkpt>
      <trkpt lat="46.01527" lon="4.70723">
        <ele>190</ele>
        <time>2018-10-12T10:16:10Z</time>
      </trkpt>
      <trkpt lat="46.01519" lon="4.70724">
        <ele>190</ele>
        <time>2018-10-12T10:16:12Z</time>
      </trkpt>
      <trkpt lat="46.01516" lon="4.70725">
        <ele>190</ele>
        <time>2018-10-12T10:16:13Z</time>
      </trkpt>
      <trkpt lat="46.01508" lon="4.70726">
        <ele>190</ele>
        <time>2018-10-12T10:16:15Z</time>
      </trkpt>
      <trkpt lat="46.01504" lon="4.70727">
        <ele>190</ele>
        <time>2018-10-12T10:16:16Z</time>
      </trkpt>
      <trkpt lat="46.01496" lon="4.70728">
        <ele>190</ele>
        <time>2018-10-12T10:16:18Z</time>
      </trkpt>
      <trkpt lat="46.01492" lon="4.70729">
        <ele>190</ele>
        <time>2018-10-12T10:16:19Z</time>
      </trkpt>
      <trkpt lat="46.01484" lon="4.7073">
        <ele>190</ele>
        <time>2018-10-12T10:16:21Z</time>
      </trkpt>
      <trkpt lat="46.0148" lon="4.70731">
        <ele>190</ele>
        <time>2018-10-12T10:16:22Z</time>
      </trkpt>
      <trkpt lat="46.01473" lon="4.70731">
        <ele>190</ele>
        <time>2018-10-12T10:16:24Z</time>
      </trkpt>
      <trkpt lat="46.01469" lon="4.70731">
        <ele>190</ele>
        <time>2018-10-12T10:16:25Z</time>
      </trkpt>
      <trkpt lat="46.01461" lon="4.70732">
        <ele>189</ele>
        <time>2018-10-12T10:16:27Z</time>
      </trkpt>
      <trkpt lat="46.01457" lon="4.70732">
        <ele>189</ele>
        <time>2018-10-12T10:16:28Z</time>
      </trkpt>
      <trkpt lat="46.01449" lon="4.70732">
        <ele>189</ele>
        <time>2018-10-12T10:16:30Z</time>
      </trkpt>
      <trkpt lat="46.01444" lon="4.70733">
        <ele>189</ele>
        <time>2018-10-12T10:16:31Z</time>
      </trkpt>
      <trkpt lat="46.01436" lon="4.70734">
        <ele>189</ele>
        <time>2018-10-12T10:16:33Z</time>
      </trkpt>
      <trkpt lat="46.01432" lon="4.70734">
        <ele>189</ele>
        <time>2018-10-12T10:16:34Z</time>
      </trkpt>
      <trkpt lat="46.01424" lon="4.70737">
        <ele>189</ele>
        <time>2018-10-12T10:16:36Z</time>
      </trkpt>
      <trkpt lat="46.0142" lon="4.70737">
        <ele>189</ele>
        <time>2018-10-12T10:16:37Z</time>
      </trkpt>
      <trkpt lat="46.01412" lon="4.70738">
        <ele>189</ele>
        <time>2018-10-12T10:16:39Z</time>
      </trkpt>
      <trkpt lat="46.01408" lon="4.70738">
        <ele>189</ele>
        <time>2018-10-12T10:16:40Z</time>
      </trkpt>
      <trkpt lat="46.014" lon="4.70739">
        <ele>189</ele>
        <time>2018-10-12T10:16:42Z</time>
      </trkpt>
      <trkpt lat="46.01395" lon="4.7074">
        <ele>189</ele>
        <time>2018-10-12T10:16:43Z</time>
      </trkpt>
      <trkpt lat="46.01387" lon="4.70741">
        <ele>189</ele>
        <time>2018-10-12T10:16:45Z</time>
      </trkpt>
      <trkpt lat="46.01383" lon="4.70741">
        <ele>189</ele>
        <time>2018-10-12T10:16:46Z</time>
      </trkpt>
      <trkpt lat="46.01375" lon="4.70741">
        <ele>189</ele>
        <time>2018-10-12T10:16:48Z</time>
      </trkpt>
      <trkpt lat="46.01371" lon="4.70741">
        <ele>189</ele>
        <time>2018-10-12T10:16:49Z</time>
      </trkpt>
      <trkpt lat="46.01363" lon="4.70742">
        <ele>189</ele>
        <time>2018-10-12T10:16:51Z</time>
      </trkpt>
      <trkpt lat="46.01359" lon="4.70742">
        <ele>189</ele>
        <time>2018-10-12T10:16:52Z</time>
      </trkpt>
      <trkpt lat="46.01351" lon="4.70742">
        <ele>189</ele>
        <time>2018-10-12T10:16:54Z</time>
      </trkpt>
      <trkpt lat="46.01346" lon="4.70742">
        <ele>189</ele>
        <time>2018-10-12T10:16:55Z</time>
      </trkpt>
      <trkpt lat="46.01337" lon="4.7074">
        <ele>189</ele>
        <time>2018-10-12T10:16:57Z</time>
      </trkpt>
      <trkpt lat="46.01333" lon="4.70739">
        <ele>190</ele>
        <time>2018-10-12T10:16:58Z</time>
      </trkpt>
      <trkpt lat="46.01324" lon="4.70737">
        <ele>190</ele>
        <time>2018-10-12T10:17:00Z</time>
      </trkpt>
      <trkpt lat="46.0132" lon="4.70737">
        <ele>190</ele>
        <time>2018-10-12T10:17:01Z</time>
      </trkpt>
      <trkpt lat="46.01311" lon="4.70736">
        <ele>191</ele>
        <time>2018-10-12T10:17:03Z</time>
      </trkpt>
      <trkpt lat="46.01307" lon="4.70735">
        <ele>191</ele>
        <time>2018-10-12T10:17:04Z</time>
      </trkpt>
      <trkpt lat="46.01298" lon="4.70734">
        <ele>191</ele>
        <time>2018-10-12T10:17:06Z</time>
      </trkpt>
      <trkpt lat="46.01294" lon="4.70734">
        <ele>191</ele>
        <time>2018-10-12T10:17:07Z</time>
      </trkpt>
      <trkpt lat="46.01286" lon="4.70733">
        <ele>191</ele>
        <time>2018-10-12T10:17:09Z</time>
      </trkpt>
      <trkpt lat="46.01281" lon="4.70732">
        <ele>191</ele>
        <time>2018-10-12T10:17:10Z</time>
      </trkpt>
      <trkpt lat="46.01273" lon="4.70731">
        <ele>192</ele>
        <time>2018-10-12T10:17:12Z</time>
      </trkpt>
      <trkpt lat="46.01269" lon="4.70731">
        <ele>192</ele>
        <time>2018-10-12T10:17:13Z</time>
      </trkpt>
      <trkpt lat="46.0126" lon="4.70729">
        <ele>192</ele>
        <time>2018-10-12T10:17:15Z</time>
      </trkpt>
      <trkpt lat="46.01256" lon="4.70727">
        <ele>192</ele>
        <time>2018-10-12T10:17:16Z</time>
      </trkpt>
      <trkpt lat="46.01248" lon="4.70725">
        <ele>193</ele>
        <time>2018-10-12T10:17:18Z</time>
      </trkpt>
      <trkpt lat="46.01243" lon="4.70723">
        <ele>193</ele>
        <time>2018-10-12T10:17:19Z</time>
      </trkpt>
      <trkpt lat="46.01235" lon="4.7072">
        <ele>194</ele>
        <time>2018-10-12T10:17:21Z</time>
      </trkpt>
      <trkpt lat="46.01231" lon="4.70718">
        <ele>194</ele>
        <time>2018-10-12T10:17:22Z</time>
      </trkpt>
      <trkpt lat="46.01223" lon="4.70715">
        <ele>194</ele>
        <time>2018-10-12T10:17:24Z</time>
      </trkpt>
      <trkpt lat="46.01218" lon="4.70713">
        <ele>194</ele>
        <time>2018-10-12T10:17:25Z</time>
      </trkpt>
      <trkpt lat="46.0121" lon="4.70709">
        <ele>194</ele>
        <time>2018-10-12T10:17:27Z</time>
      </trkpt>
      <trkpt lat="46.01205" lon="4.70707">
        <ele>194</ele>
        <time>2018-10-12T10:17:28Z</time>
      </trkpt>
      <trkpt lat="46.01197" lon="4.70704">
        <ele>194</ele>
        <time>2018-10-12T10:17:30Z</time>
      </trkpt>
      <trkpt lat="46.01193" lon="4.70702">
        <ele>194</ele>
        <time>2018-10-12T10:17:31Z</time>
      </trkpt>
      <trkpt lat="46.01184" lon="4.70698">
        <ele>194</ele>
        <time>2018-10-12T10:17:33Z</time>
      </trkpt>
      <trkpt lat="46.0118" lon="4.70696">
        <ele>194</ele>
        <time>2018-10-12T10:17:34Z</time>
      </trkpt>
      <trkpt lat="46.01173" lon="4.70692">
        <ele>194</ele>
        <time>2018-10-12T10:17:36Z</time>
      </trkpt>
      <trkpt lat="46.01169" lon="4.70691">
        <ele>194</ele>
        <time>2018-10-12T10:17:37Z</time>
      </trkpt>
      <trkpt lat="46.0116" lon="4.70687">
        <ele>194</ele>
        <time>2018-10-12T10:17:39Z</time>
      </trkpt>
      <trkpt lat="46.01156" lon="4.70685">
        <ele>194</ele>
        <time>2018-10-12T10:17:40Z</time>
      </trkpt>
      <trkpt lat="46.01148" lon="4.70681">
        <ele>194</ele>
        <time>2018-10-12T10:17:42Z</time>
      </trkpt>
      <trkpt lat="46.01144" lon="4.70679">
        <ele>194</ele>
        <time>2018-10-12T10:17:43Z</time>
      </trkpt>
      <trkpt lat="46.01136" lon="4.70676">
        <ele>194</ele>
        <time>2018-10-12T10:17:45Z</time>
      </trkpt>
      <trkpt lat="46.01132" lon="4.70674">
        <ele>194</ele>
        <time>2018-10-12T10:17:46Z</time>
      </trkpt>
      <trkpt lat="46.01124" lon="4.7067">
        <ele>195</ele>
        <time>2018-10-12T10:17:48Z</time>
      </trkpt>
      <trkpt lat="46.0112" lon="4.70668">
        <ele>195</ele>
        <time>2018-10-12T10:17:49Z</time>
      </trkpt>
      <trkpt lat="46.01112" lon="4.70665">
        <ele>194</ele>
        <time>2018-10-12T10:17:51Z</time>
      </trkpt>
      <trkpt lat="46.01108" lon="4.70663">
        <ele>195</ele>
        <time>2018-10-12T10:17:52Z</time>
      </trkpt>
      <trkpt lat="46.011" lon="4.7066">
        <ele>195</ele>
        <time>2018-10-12T10:17:54Z</time>
      </trkpt>
      <trkpt lat="46.01095" lon="4.70658">
        <ele>195</ele>
        <time>2018-10-12T10:17:55Z</time>
      </trkpt>
      <trkpt lat="46.01087" lon="4.70655">
        <ele>195</ele>
        <time>2018-10-12T10:17:57Z</time>
      </trkpt>
      <trkpt lat="46.01083" lon="4.70654">
        <ele>195</ele>
        <time>2018-10-12T10:17:58Z</time>
      </trkpt>
      <trkpt lat="46.01076" lon="4.7065">
        <ele>195</ele>
        <time>2018-10-12T10:18:00Z</time>
      </trkpt>
      <trkpt lat="46.01072" lon="4.70648">
        <ele>195</ele>
        <time>2018-10-12T10:18:01Z</time>
      </trkpt>
      <trkpt lat="46.01064" lon="4.70645">
        <ele>195</ele>
        <time>2018-10-12T10:18:03Z</time>
      </trkpt>
      <trkpt lat="46.0106" lon="4.70643">
        <ele>195</ele>
        <time>2018-10-12T10:18:04Z</time>
      </trkpt>
      <trkpt lat="46.01055" lon="4.7064">
        <ele>195</ele>
        <time>2018-10-12T10:18:06Z</time>
      </trkpt>
      <trkpt lat="46.0105" lon="4.70638">
        <ele>195</ele>
        <time>2018-10-12T10:18:07Z</time>
      </trkpt>
      <trkpt lat="46.01042" lon="4.70635">
        <ele>195</ele>
        <time>2018-10-12T10:18:09Z</time>
      </trkpt>
      <trkpt lat="46.01039" lon="4.70633">
        <ele>196</ele>
        <time>2018-10-12T10:18:10Z</time>
      </trkpt>
      <trkpt lat="46.01031" lon="4.7063">
        <ele>196</ele>
        <time>2018-10-12T10:18:12Z</time>
      </trkpt>
      <trkpt lat="46.01027" lon="4.70628">
        <ele>196</ele>
        <time>2018-10-12T10:18:13Z</time>
      </trkpt>
      <trkpt lat="46.01019" lon="4.70624">
        <ele>196</ele>
        <time>2018-10-12T10:18:15Z</time>
      </trkpt>
      <trkpt lat="46.01015" lon="4.70622">
        <ele>196</ele>
        <time>2018-10-12T10:18:16Z</time>
      </trkpt>
      <trkpt lat="46.01006" lon="4.70618">
        <ele>196</ele>
        <time>2018-10-12T10:18:18Z</time>
      </trkpt>
      <trkpt lat="46.01002" lon="4.70616">
        <ele>196</ele>
        <time>2018-10-12T10:18:19Z</time>
      </trkpt>
      <trkpt lat="46.00994" lon="4.70612">
        <ele>197</ele>
        <time>2018-10-12T10:18:21Z</time>
      </trkpt>
      <trkpt lat="46.00989" lon="4.7061">
        <ele>197</ele>
        <time>2018-10-12T10:18:22Z</time>
      </trkpt>
      <trkpt lat="46.00981" lon="4.70606">
        <ele>197</ele>
        <time>2018-10-12T10:18:24Z</time>
      </trkpt>
      <trkpt lat="46.00977" lon="4.70604">
        <ele>197</ele>
        <time>2018-10-12T10:18:25Z</time>
      </trkpt>
      <trkpt lat="46.00969" lon="4.706">
        <ele>197</ele>
        <time>2018-10-12T10:18:27Z</time>
      </trkpt>
      <trkpt lat="46.00966" lon="4.70598">
        <ele>197</ele>
        <time>2018-10-12T10:18:28Z</time>
      </trkpt>
      <trkpt lat="46.00958" lon="4.70595">
        <ele>197</ele>
        <time>2018-10-12T10:18:30Z</time>
      </trkpt>
      <trkpt lat="46.00955" lon="4.70593">
        <ele>197</ele>
        <time>2018-10-12T10:18:31Z</time>
      </trkpt>
      <trkpt lat="46.00948" lon="4.7059">
        <ele>197</ele>
        <time>2018-10-12T10:18:33Z</time>
      </trkpt>
      <trkpt lat="46.00944" lon="4.70588">
        <ele>197</ele>
        <time>2018-10-12T10:18:34Z</time>
      </trkpt>
      <trkpt lat="46.00938" lon="4.70586">
        <ele>198</ele>
        <time>2018-10-12T10:18:36Z</time>
      </trkpt>
      <trkpt lat="46.00934" lon="4.70584">
        <ele>198</ele>
        <time>2018-10-12T10:18:37Z</time>
      </trkpt>
      <trkpt lat="46.00926" lon="4.70581">
        <ele>198</ele>
        <time>2018-10-12T10:18:39Z</time>
      </trkpt>
      <trkpt lat="46.00923" lon="4.70579">
        <ele>198</ele>
        <time>2018-10-12T10:18:40Z</time>
      </trkpt>
      <trkpt lat="46.00917" lon="4.70577">
        <ele>198</ele>
        <time>2018-10-12T10:18:42Z</time>
      </trkpt>
      <trkpt lat="46.00914" lon="4.70576">
        <ele>199</ele>
        <time>2018-10-12T10:18:43Z</time>
      </trkpt>
      <trkpt lat="46.00905" lon="4.70573">
        <ele>199</ele>
        <time>2018-10-12T10:18:46Z</time>
      </trkpt>
      <trkpt lat="46.00902" lon="4.70571">
        <ele>200</ele>
        <time>2018-10-12T10:18:47Z</time>
      </trkpt>
      <trkpt lat="46.00895" lon="4.70568">
        <ele>200</ele>
        <time>2018-10-12T10:18:49Z</time>
      </trkpt>
      <trkpt lat="46.00892" lon="4.70567">
        <ele>200</ele>
        <time>2018-10-12T10:18:50Z</time>
      </trkpt>
      <trkpt lat="46.00885" lon="4.70564">
        <ele>200</ele>
        <time>2018-10-12T10:18:51Z</time>
      </trkpt>
      <trkpt lat="46.00882" lon="4.70563">
        <ele>200</ele>
        <time>2018-10-12T10:18:52Z</time>
      </trkpt>
      <trkpt lat="46.0088" lon="4.70562">
        <ele>200</ele>
        <time>2018-10-12T10:18:53Z</time>
      </trkpt>
      <trkpt lat="46.00874" lon="4.70559">
        <ele>201</ele>
        <time>2018-10-12T10:18:54Z</time>
      </trkpt>
      <trkpt lat="46.00866" lon="4.70556">
        <ele>201</ele>
        <time>2018-10-12T10:18:56Z</time>
      </trkpt>
      <trkpt lat="46.00863" lon="4.70554">
        <ele>201</ele>
        <time>2018-10-12T10:18:57Z</time>
      </trkpt>
      <trkpt lat="46.00856" lon="4.70551">
        <ele>201</ele>
        <time>2018-10-12T10:18:59Z</time>
      </trkpt>
      <trkpt lat="46.00854" lon="4.7055">
        <ele>201</ele>
        <time>2018-10-12T10:19:00Z</time>
      </trkpt>
      <trkpt lat="46.00847" lon="4.70547">
        <ele>201</ele>
        <time>2018-10-12T10:19:02Z</time>
      </trkpt>
      <trkpt lat="46.00843" lon="4.70545">
        <ele>201</ele>
        <time>2018-10-12T10:19:03Z</time>
      </trkpt>
      <trkpt lat="46.00838" lon="4.70543">
        <ele>201</ele>
        <time>2018-10-12T10:19:05Z</time>
      </trkpt>
      <trkpt lat="46.00833" lon="4.70541">
        <ele>203</ele>
        <time>2018-10-12T10:19:06Z</time>
      </trkpt>
      <trkpt lat="46.00826" lon="4.70537">
        <ele>203</ele>
        <time>2018-10-12T10:19:08Z</time>
      </trkpt>
      <trkpt lat="46.00822" lon="4.70536">
        <ele>203</ele>
        <time>2018-10-12T10:19:09Z</time>
      </trkpt>
      <trkpt lat="46.00815" lon="4.70532">
        <ele>204</ele>
        <time>2018-10-12T10:19:12Z</time>
      </trkpt>
      <trkpt lat="46.00813" lon="4.70531">
        <ele>204</ele>
        <time>2018-10-12T10:19:13Z</time>
      </trkpt>
      <trkpt lat="46.00807" lon="4.70528">
        <ele>204</ele>
        <time>2018-10-12T10:19:15Z</time>
      </trkpt>
      <trkpt lat="46.008" lon="4.70525">
        <ele>204</ele>
        <time>2018-10-12T10:19:16Z</time>
      </trkpt>
      <trkpt lat="46.00793" lon="4.70522">
        <ele>204</ele>
        <time>2018-10-12T10:19:18Z</time>
      </trkpt>
      <trkpt lat="46.00789" lon="4.7052">
        <ele>204</ele>
        <time>2018-10-12T10:19:19Z</time>
      </trkpt>
      <trkpt lat="46.00782" lon="4.70517">
        <ele>205</ele>
        <time>2018-10-12T10:19:22Z</time>
      </trkpt>
      <trkpt lat="46.00779" lon="4.70515">
        <ele>205</ele>
        <time>2018-10-12T10:19:23Z</time>
      </trkpt>
      <trkpt lat="46.00773" lon="4.70512">
        <ele>205</ele>
        <time>2018-10-12T10:19:25Z</time>
      </trkpt>
      <trkpt lat="46.00769" lon="4.7051">
        <ele>205</ele>
        <time>2018-10-12T10:19:26Z</time>
      </trkpt>
      <trkpt lat="46.00765" lon="4.70508">
        <ele>206</ele>
        <time>2018-10-12T10:19:27Z</time>
      </trkpt>
      <trkpt lat="46.00759" lon="4.70505">
        <ele>206</ele>
        <time>2018-10-12T10:19:28Z</time>
      </trkpt>
      <trkpt lat="46.00751" lon="4.70501">
        <ele>208</ele>
        <time>2018-10-12T10:19:31Z</time>
      </trkpt>
      <trkpt lat="46.00745" lon="4.705">
        <ele>209</ele>
        <time>2018-10-12T10:19:32Z</time>
      </trkpt>
      <trkpt lat="46.00738" lon="4.70497">
        <ele>209</ele>
        <time>2018-10-12T10:19:34Z</time>
      </trkpt>
      <trkpt lat="46.00735" lon="4.70496">
        <ele>209</ele>
        <time>2018-10-12T10:19:35Z</time>
      </trkpt>
      <trkpt lat="46.00727" lon="4.70494">
        <ele>210</ele>
        <time>2018-10-12T10:19:37Z</time>
      </trkpt>
      <trkpt lat="46.00723" lon="4.70493">
        <ele>210</ele>
        <time>2018-10-12T10:19:38Z</time>
      </trkpt>
      <trkpt lat="46.00715" lon="4.70492">
        <ele>210</ele>
        <time>2018-10-12T10:19:40Z</time>
      </trkpt>
      <trkpt lat="46.00713" lon="4.70492">
        <ele>210</ele>
        <time>2018-10-12T10:19:41Z</time>
      </trkpt>
      <trkpt lat="46.00704" lon="4.70493">
        <ele>211</ele>
        <time>2018-10-12T10:19:43Z</time>
      </trkpt>
      <trkpt lat="46.007" lon="4.70493">
        <ele>211</ele>
        <time>2018-10-12T10:19:44Z</time>
      </trkpt>
      <trkpt lat="46.00694" lon="4.70493">
        <ele>211</ele>
        <time>2018-10-12T10:19:46Z</time>
      </trkpt>
      <trkpt lat="46.0069" lon="4.70492">
        <ele>211</ele>
        <time>2018-10-12T10:19:47Z</time>
      </trkpt>
      <trkpt lat="46.00683" lon="4.70492">
        <ele>211</ele>
        <time>2018-10-12T10:19:49Z</time>
      </trkpt>
      <trkpt lat="46.00679" lon="4.70492">
        <ele>211</ele>
        <time>2018-10-12T10:19:50Z</time>
      </trkpt>
      <trkpt lat="46.00671" lon="4.70493">
        <ele>212</ele>
        <time>2018-10-12T10:19:52Z</time>
      </trkpt>
      <trkpt lat="46.00667" lon="4.70493">
        <ele>212</ele>
        <time>2018-10-12T10:19:53Z</time>
      </trkpt>
      <trkpt lat="46.0066" lon="4.70494">
        <ele>212</ele>
        <time>2018-10-12T10:19:55Z</time>
      </trkpt>
      <trkpt lat="46.00658" lon="4.70494">
        <ele>212</ele>
        <time>2018-10-12T10:19:56Z</time>
      </trkpt>
      <trkpt lat="46.00653" lon="4.70495">
        <ele>212</ele>
        <time>2018-10-12T10:19:58Z</time>
      </trkpt>
      <trkpt lat="46.00646" lon="4.70496">
        <ele>211</ele>
        <time>2018-10-12T10:19:59Z</time>
      </trkpt>
      <trkpt lat="46.00639" lon="4.70498">
        <ele>211</ele>
        <time>2018-10-12T10:20:01Z</time>
      </trkpt>
      <trkpt lat="46.00634" lon="4.70499">
        <ele>211</ele>
        <time>2018-10-12T10:20:02Z</time>
      </trkpt>
      <trkpt lat="46.0063" lon="4.705">
        <ele>211</ele>
        <time>2018-10-12T10:20:03Z</time>
      </trkpt>
      <trkpt lat="46.00625" lon="4.70501">
        <ele>207</ele>
        <time>2018-10-12T10:20:04Z</time>
      </trkpt>
      <trkpt lat="46.0062" lon="4.70501">
        <ele>207</ele>
        <time>2018-10-12T10:20:05Z</time>
      </trkpt>
      <trkpt lat="46.00616" lon="4.70502">
        <ele>207</ele>
        <time>2018-10-12T10:20:06Z</time>
      </trkpt>
      <trkpt lat="46.00608" lon="4.70504">
        <ele>207</ele>
        <time>2018-10-12T10:20:08Z</time>
      </trkpt>
      <trkpt lat="46.00602" lon="4.70504">
        <ele>207</ele>
        <time>2018-10-12T10:20:09Z</time>
      </trkpt>
      <trkpt lat="46.00593" lon="4.70506">
        <ele>207</ele>
        <time>2018-10-12T10:20:11Z</time>
      </trkpt>
      <trkpt lat="46.00589" lon="4.70507">
        <ele>207</ele>
        <time>2018-10-12T10:20:12Z</time>
      </trkpt>
      <trkpt lat="46.00585" lon="4.70507">
        <ele>207</ele>
        <time>2018-10-12T10:20:13Z</time>
      </trkpt>
      <trkpt lat="46.00579" lon="4.70508">
        <ele>206</ele>
        <time>2018-10-12T10:20:14Z</time>
      </trkpt>
      <trkpt lat="46.00571" lon="4.70508">
        <ele>205</ele>
        <time>2018-10-12T10:20:16Z</time>
      </trkpt>
      <trkpt lat="46.00566" lon="4.70509">
        <ele>205</ele>
        <time>2018-10-12T10:20:17Z</time>
      </trkpt>
      <trkpt lat="46.0056" lon="4.7051">
        <ele>205</ele>
        <time>2018-10-12T10:20:18Z</time>
      </trkpt>
      <trkpt lat="46.00554" lon="4.7051">
        <ele>204</ele>
        <time>2018-10-12T10:20:19Z</time>
      </trkpt>
      <trkpt lat="46.00549" lon="4.7051">
        <ele>204</ele>
        <time>2018-10-12T10:20:20Z</time>
      </trkpt>
      <trkpt lat="46.00543" lon="4.7051">
        <ele>204</ele>
        <time>2018-10-12T10:20:21Z</time>
      </trkpt>
      <trkpt lat="46.00537" lon="4.70509">
        <ele>204</ele>
        <time>2018-10-12T10:20:22Z</time>
      </trkpt>
      <trkpt lat="46.00532" lon="4.70509">
        <ele>204</ele>
        <time>2018-10-12T10:20:23Z</time>
      </trkpt>
      <trkpt lat="46.00525" lon="4.70509">
        <ele>204</ele>
        <time>2018-10-12T10:20:24Z</time>
      </trkpt>
      <trkpt lat="46.00519" lon="4.70509">
        <ele>204</ele>
        <time>2018-10-12T10:20:25Z</time>
      </trkpt>
      <trkpt lat="46.00514" lon="4.70509">
        <ele>204</ele>
        <time>2018-10-12T10:20:26Z</time>
      </trkpt>
      <trkpt lat="46.00508" lon="4.7051">
        <ele>204</ele>
        <time>2018-10-12T10:20:27Z</time>
      </trkpt>
      <trkpt lat="46.00503" lon="4.7051">
        <ele>204</ele>
        <time>2018-10-12T10:20:28Z</time>
      </trkpt>
      <trkpt lat="46.00497" lon="4.70512">
        <ele>203</ele>
        <time>2018-10-12T10:20:29Z</time>
      </trkpt>
      <trkpt lat="46.00492" lon="4.70512">
        <ele>202</ele>
        <time>2018-10-12T10:20:30Z</time>
      </trkpt>
      <trkpt lat="46.00487" lon="4.70509">
        <ele>202</ele>
        <time>2018-10-12T10:20:31Z</time>
      </trkpt>
      <trkpt lat="46.00482" lon="4.70508">
        <ele>202</ele>
        <time>2018-10-12T10:20:32Z</time>
      </trkpt>
      <trkpt lat="46.00476" lon="4.70507">
        <ele>202</ele>
        <time>2018-10-12T10:20:33Z</time>
      </trkpt>
      <trkpt lat="46.00471" lon="4.70507">
        <ele>201</ele>
        <time>2018-10-12T10:20:34Z</time>
      </trkpt>
      <trkpt lat="46.00466" lon="4.70507">
        <ele>201</ele>
        <time>2018-10-12T10:20:35Z</time>
      </trkpt>
      <trkpt lat="46.00461" lon="4.70504">
        <ele>201</ele>
        <time>2018-10-12T10:20:36Z</time>
      </trkpt>
      <trkpt lat="46.00456" lon="4.70501">
        <ele>201</ele>
        <time>2018-10-12T10:20:37Z</time>
      </trkpt>
      <trkpt lat="46.0045" lon="4.70499">
        <ele>202</ele>
        <time>2018-10-12T10:20:38Z</time>
      </trkpt>
      <trkpt lat="46.00444" lon="4.70497">
        <ele>202</ele>
        <time>2018-10-12T10:20:39Z</time>
      </trkpt>
      <trkpt lat="46.00439" lon="4.70496">
        <ele>202</ele>
        <time>2018-10-12T10:20:40Z</time>
      </trkpt>
      <trkpt lat="46.00434" lon="4.70496">
        <ele>202</ele>
        <time>2018-10-12T10:20:41Z</time>
      </trkpt>
      <trkpt lat="46.00429" lon="4.70495">
        <ele>201</ele>
        <time>2018-10-12T10:20:42Z</time>
      </trkpt>
      <trkpt lat="46.00423" lon="4.70494">
        <ele>201</ele>
        <time>2018-10-12T10:20:43Z</time>
      </trkpt>
      <trkpt lat="46.00419" lon="4.70493">
        <ele>201</ele>
        <time>2018-10-12T10:20:44Z</time>
      </trkpt>
      <trkpt lat="46.00413" lon="4.70493">
        <ele>200</ele>
        <time>2018-10-12T10:20:45Z</time>
      </trkpt>
      <trkpt lat="46.00409" lon="4.70492">
        <ele>200</ele>
        <time>2018-10-12T10:20:46Z</time>
      </trkpt>
      <trkpt lat="46.00404" lon="4.70492">
        <ele>200</ele>
        <time>2018-10-12T10:20:47Z</time>
      </trkpt>
      <trkpt lat="46.00399" lon="4.70491">
        <ele>200</ele>
        <time>2018-10-12T10:20:48Z</time>
      </trkpt>
      <trkpt lat="46.00395" lon="4.70492">
        <ele>200</ele>
        <time>2018-10-12T10:20:49Z</time>
      </trkpt>
      <trkpt lat="46.0039" lon="4.70491">
        <ele>200</ele>
        <time>2018-10-12T10:20:50Z</time>
      </trkpt>
      <trkpt lat="46.00385" lon="4.70492">
        <ele>200</ele>
        <time>2018-10-12T10:20:51Z</time>
      </trkpt>
      <trkpt lat="46.0038" lon="4.70491">
        <ele>200</ele>
        <time>2018-10-12T10:20:52Z</time>
      </trkpt>
      <trkpt lat="46.00374" lon="4.70492">
        <ele>200</ele>
        <time>2018-10-12T10:20:53Z</time>
      </trkpt>
      <trkpt lat="46.00369" lon="4.70493">
        <ele>200</ele>
        <time>2018-10-12T10:20:54Z</time>
      </trkpt>
      <trkpt lat="46.00363" lon="4.70494">
        <ele>200</ele>
        <time>2018-10-12T10:20:55Z</time>
      </trkpt>
      <trkpt lat="46.00358" lon="4.70494">
        <ele>200</ele>
        <time>2018-10-12T10:20:56Z</time>
      </trkpt>
      <trkpt lat="46.00353" lon="4.70496">
        <ele>199</ele>
        <time>2018-10-12T10:20:57Z</time>
      </trkpt>
      <trkpt lat="46.00347" lon="4.70497">
        <ele>199</ele>
        <time>2018-10-12T10:20:58Z</time>
      </trkpt>
      <trkpt lat="46.00343" lon="4.70498">
        <ele>199</ele>
        <time>2018-10-12T10:20:59Z</time>
      </trkpt>
      <trkpt lat="46.00338" lon="4.70499">
        <ele>198</ele>
        <time>2018-10-12T10:21:00Z</time>
      </trkpt>
      <trkpt lat="46.00333" lon="4.705">
        <ele>198</ele>
        <time>2018-10-12T10:21:01Z</time>
      </trkpt>
      <trkpt lat="46.00328" lon="4.70501">
        <ele>198</ele>
        <time>2018-10-12T10:21:02Z</time>
      </trkpt>
      <trkpt lat="46.00323" lon="4.70502">
        <ele>198</ele>
        <time>2018-10-12T10:21:03Z</time>
      </trkpt>
      <trkpt lat="46.00318" lon="4.70503">
        <ele>198</ele>
        <time>2018-10-12T10:21:04Z</time>
      </trkpt>
      <trkpt lat="46.00313" lon="4.70504">
        <ele>197</ele>
        <time>2018-10-12T10:21:05Z</time>
      </trkpt>
      <trkpt lat="46.00304" lon="4.70505">
        <ele>197</ele>
        <time>2018-10-12T10:21:07Z</time>
      </trkpt>
      <trkpt lat="46.003" lon="4.70506">
        <ele>197</ele>
        <time>2018-10-12T10:21:08Z</time>
      </trkpt>
      <trkpt lat="46.00295" lon="4.70508">
        <ele>197</ele>
        <time>2018-10-12T10:21:09Z</time>
      </trkpt>
      <trkpt lat="46.00289" lon="4.70508">
        <ele>197</ele>
        <time>2018-10-12T10:21:10Z</time>
      </trkpt>
      <trkpt lat="46.00284" lon="4.7051">
        <ele>197</ele>
        <time>2018-10-12T10:21:11Z</time>
      </trkpt>
      <trkpt lat="46.00278" lon="4.7051">
        <ele>197</ele>
        <time>2018-10-12T10:21:12Z</time>
      </trkpt>
      <trkpt lat="46.00273" lon="4.70511">
        <ele>197</ele>
        <time>2018-10-12T10:21:13Z</time>
      </trkpt>
      <trkpt lat="46.00267" lon="4.70513">
        <ele>197</ele>
        <time>2018-10-12T10:21:14Z</time>
      </trkpt>
      <trkpt lat="46.00262" lon="4.70514">
        <ele>197</ele>
        <time>2018-10-12T10:21:15Z</time>
      </trkpt>
      <trkpt lat="46.00258" lon="4.70515">
        <ele>198</ele>
        <time>2018-10-12T10:21:16Z</time>
      </trkpt>
      <trkpt lat="46.00253" lon="4.70515">
        <ele>198</ele>
        <time>2018-10-12T10:21:17Z</time>
      </trkpt>
      <trkpt lat="46.00248" lon="4.70516">
        <ele>198</ele>
        <time>2018-10-12T10:21:18Z</time>
      </trkpt>
      <trkpt lat="46.0024" lon="4.70519">
        <ele>198</ele>
        <time>2018-10-12T10:21:20Z</time>
      </trkpt>
      <trkpt lat="46.00236" lon="4.7052">
        <ele>198</ele>
        <time>2018-10-12T10:21:21Z</time>
      </trkpt>
      <trkpt lat="46.00231" lon="4.70521">
        <ele>198</ele>
        <time>2018-10-12T10:21:22Z</time>
      </trkpt>
      <trkpt lat="46.00226" lon="4.70523">
        <ele>198</ele>
        <time>2018-10-12T10:21:23Z</time>
      </trkpt>
      <trkpt lat="46.00221" lon="4.70524">
        <ele>198</ele>
        <time>2018-10-12T10:21:24Z</time>
      </trkpt>
      <trkpt lat="46.00217" lon="4.70525">
        <ele>198</ele>
        <time>2018-10-12T10:21:25Z</time>
      </trkpt>
      <trkpt lat="46.00212" lon="4.70527">
        <ele>198</ele>
        <time>2018-10-12T10:21:26Z</time>
      </trkpt>
      <trkpt lat="46.00207" lon="4.70528">
        <ele>198</ele>
        <time>2018-10-12T10:21:27Z</time>
      </trkpt>
      <trkpt lat="46.00201" lon="4.70529">
        <ele>198</ele>
        <time>2018-10-12T10:21:28Z</time>
      </trkpt>
      <trkpt lat="46.00195" lon="4.70529">
        <ele>198</ele>
        <time>2018-10-12T10:21:29Z</time>
      </trkpt>
      <trkpt lat="46.00189" lon="4.70529">
        <ele>198</ele>
        <time>2018-10-12T10:21:30Z</time>
      </trkpt>
      <trkpt lat="46.00184" lon="4.7053">
        <ele>198</ele>
        <time>2018-10-12T10:21:31Z</time>
      </trkpt>
      <trkpt lat="46.00179" lon="4.70531">
        <ele>198</ele>
        <time>2018-10-12T10:21:32Z</time>
      </trkpt>
      <trkpt lat="46.00174" lon="4.7053">
        <ele>198</ele>
        <time>2018-10-12T10:21:33Z</time>
      </trkpt>
      <trkpt lat="46.00169" lon="4.70529">
        <ele>198</ele>
        <time>2018-10-12T10:21:34Z</time>
      </trkpt>
      <trkpt lat="46.00165" lon="4.70526">
        <ele>198</ele>
        <time>2018-10-12T10:21:35Z</time>
      </trkpt>
      <trkpt lat="46.0016" lon="4.70521">
        <ele>198</ele>
        <time>2018-10-12T10:21:36Z</time>
      </trkpt>
      <trkpt lat="46.00156" lon="4.70518">
        <ele>198</ele>
        <time>2018-10-12T10:21:37Z</time>
      </trkpt>
      <trkpt lat="46.00151" lon="4.70515">
        <ele>198</ele>
        <time>2018-10-12T10:21:38Z</time>
      </trkpt>
      <trkpt lat="46.00146" lon="4.70514">
        <ele>198</ele>
        <time>2018-10-12T10:21:39Z</time>
      </trkpt>
      <trkpt lat="46.00141" lon="4.70516">
        <ele>198</ele>
        <time>2018-10-12T10:21:40Z</time>
      </trkpt>
      <trkpt lat="46.00137" lon="4.7052">
        <ele>198</ele>
        <time>2018-10-12T10:21:41Z</time>
      </trkpt>
      <trkpt lat="46.00134" lon="4.70526">
        <ele>198</ele>
        <time>2018-10-12T10:21:42Z</time>
      </trkpt>
      <trkpt lat="46.00133" lon="4.70533">
        <ele>198</ele>
        <time>2018-10-12T10:21:43Z</time>
      </trkpt>
      <trkpt lat="46.00131" lon="4.70539">
        <ele>198</ele>
        <time>2018-10-12T10:21:44Z</time>
      </trkpt>
      <trkpt lat="46.0013" lon="4.70545">
        <ele>198</ele>
        <time>2018-10-12T10:21:45Z</time>
      </trkpt>
      <trkpt lat="46.00128" lon="4.70552">
        <ele>198</ele>
        <time>2018-10-12T10:21:46Z</time>
      </trkpt>
      <trkpt lat="46.00126" lon="4.70558">
        <ele>198</ele>
        <time>2018-10-12T10:21:47Z</time>
      </trkpt>
      <trkpt lat="46.00122" lon="4.70563">
        <ele>198</ele>
        <time>2018-10-12T10:21:48Z</time>
      </trkpt>
      <trkpt lat="46.00119" lon="4.70568">
        <ele>198</ele>
        <time>2018-10-12T10:21:49Z</time>
      </trkpt>
      <trkpt lat="46.00114" lon="4.7057">
        <ele>198</ele>
        <time>2018-10-12T10:21:50Z</time>
      </trkpt>
      <trkpt lat="46.00109" lon="4.70573">
        <ele>198</ele>
        <time>2018-10-12T10:21:51Z</time>
      </trkpt>
      <trkpt lat="46.00104" lon="4.70576">
        <ele>198</ele>
        <time>2018-10-12T10:21:52Z</time>
      </trkpt>
      <trkpt lat="46.001" lon="4.70578">
        <ele>198</ele>
        <time>2018-10-12T10:21:53Z</time>
      </trkpt>
      <trkpt lat="46.00095" lon="4.70581">
        <ele>198</ele>
        <time>2018-10-12T10:21:54Z</time>
      </trkpt>
      <trkpt lat="46.0009" lon="4.70584">
        <ele>198</ele>
        <time>2018-10-12T10:21:55Z</time>
      </trkpt>
      <trkpt lat="46.00086" lon="4.70587">
        <ele>198</ele>
        <time>2018-10-12T10:21:56Z</time>
      </trkpt>
      <trkpt lat="46.00082" lon="4.70591">
        <ele>198</ele>
        <time>2018-10-12T10:21:57Z</time>
      </trkpt>
      <trkpt lat="46.00074" lon="4.70595">
        <ele>198</ele>
        <time>2018-10-12T10:21:59Z</time>
      </trkpt>
      <trkpt lat="46.00068" lon="4.70597">
        <ele>198</ele>
        <time>2018-10-12T10:22:00Z</time>
      </trkpt>
      <trkpt lat="46.0006" lon="4.70599">
        <ele>198</ele>
        <time>2018-10-12T10:22:02Z</time>
      </trkpt>
      <trkpt lat="46.00055" lon="4.70599">
        <ele>198</ele>
        <time>2018-10-12T10:22:03Z</time>
      </trkpt>
      <trkpt lat="46.00047" lon="4.70601">
        <ele>198</ele>
        <time>2018-10-12T10:22:06Z</time>
      </trkpt>
      <trkpt lat="46.00042" lon="4.70602">
        <ele>198</ele>
        <time>2018-10-12T10:22:07Z</time>
      </trkpt>
      <trkpt lat="46.00038" lon="4.70603">
        <ele>199</ele>
        <time>2018-10-12T10:22:09Z</time>
      </trkpt>
      <trkpt lat="46.00031" lon="4.70604">
        <ele>199</ele>
        <time>2018-10-12T10:22:10Z</time>
      </trkpt>
      <trkpt lat="46.00023" lon="4.70605">
        <ele>199</ele>
        <time>2018-10-12T10:22:12Z</time>
      </trkpt>
      <trkpt lat="46.00018" lon="4.70606">
        <ele>199</ele>
        <time>2018-10-12T10:22:13Z</time>
      </trkpt>
      <trkpt lat="46.00013" lon="4.70607">
        <ele>199</ele>
        <time>2018-10-12T10:22:14Z</time>
      </trkpt>
      <trkpt lat="46.00007" lon="4.70608">
        <ele>199</ele>
        <time>2018-10-12T10:22:15Z</time>
      </trkpt>
      <trkpt lat="46.00002" lon="4.7061">
        <ele>199</ele>
        <time>2018-10-12T10:22:16Z</time>
      </trkpt>
      <trkpt lat="45.99995" lon="4.70612">
        <ele>199</ele>
        <time>2018-10-12T10:22:17Z</time>
      </trkpt>
      <trkpt lat="45.99991" lon="4.70615">
        <ele>199</ele>
        <time>2018-10-12T10:22:18Z</time>
      </trkpt>
      <trkpt lat="45.99986" lon="4.70617">
        <ele>199</ele>
        <time>2018-10-12T10:22:19Z</time>
      </trkpt>
      <trkpt lat="45.99981" lon="4.70618">
        <ele>199</ele>
        <time>2018-10-12T10:22:20Z</time>
      </trkpt>
      <trkpt lat="45.99976" lon="4.70619">
        <ele>199</ele>
        <time>2018-10-12T10:22:21Z</time>
      </trkpt>
      <trkpt lat="45.99971" lon="4.70619">
        <ele>199</ele>
        <time>2018-10-12T10:22:22Z</time>
      </trkpt>
      <trkpt lat="45.99965" lon="4.70619">
        <ele>199</ele>
        <time>2018-10-12T10:22:23Z</time>
      </trkpt>
      <trkpt lat="45.9996" lon="4.7062">
        <ele>199</ele>
        <time>2018-10-12T10:22:24Z</time>
      </trkpt>
      <trkpt lat="45.99954" lon="4.70622">
        <ele>199</ele>
        <time>2018-10-12T10:22:25Z</time>
      </trkpt>
      <trkpt lat="45.99949" lon="4.70624">
        <ele>199</ele>
        <time>2018-10-12T10:22:26Z</time>
      </trkpt>
      <trkpt lat="45.99944" lon="4.70625">
        <ele>199</ele>
        <time>2018-10-12T10:22:27Z</time>
      </trkpt>
      <trkpt lat="45.99938" lon="4.70625">
        <ele>199</ele>
        <time>2018-10-12T10:22:28Z</time>
      </trkpt>
      <trkpt lat="45.99933" lon="4.70624">
        <ele>199</ele>
        <time>2018-10-12T10:22:29Z</time>
      </trkpt>
      <trkpt lat="45.99928" lon="4.70624">
        <ele>199</ele>
        <time>2018-10-12T10:22:30Z</time>
      </trkpt>
      <trkpt lat="45.99924" lon="4.70624">
        <ele>199</ele>
        <time>2018-10-12T10:22:31Z</time>
      </trkpt>
      <trkpt lat="45.99915" lon="4.70625">
        <ele>200</ele>
        <time>2018-10-12T10:22:33Z</time>
      </trkpt>
      <trkpt lat="45.9991" lon="4.70626">
        <ele>200</ele>
        <time>2018-10-12T10:22:34Z</time>
      </trkpt>
      <trkpt lat="45.99905" lon="4.70627">
        <ele>200</ele>
        <time>2018-10-12T10:22:35Z</time>
      </trkpt>
      <trkpt lat="45.999" lon="4.70628">
        <ele>200</ele>
        <time>2018-10-12T10:22:36Z</time>
      </trkpt>
      <trkpt lat="45.99895" lon="4.70629">
        <ele>200</ele>
        <time>2018-10-12T10:22:37Z</time>
      </trkpt>
      <trkpt lat="45.9989" lon="4.7063">
        <ele>200</ele>
        <time>2018-10-12T10:22:38Z</time>
      </trkpt>
      <trkpt lat="45.99885" lon="4.70631">
        <ele>200</ele>
        <time>2018-10-12T10:22:39Z</time>
      </trkpt>
      <trkpt lat="45.99879" lon="4.70631">
        <ele>201</ele>
        <time>2018-10-12T10:22:40Z</time>
      </trkpt>
      <trkpt lat="45.99875" lon="4.70632">
        <ele>201</ele>
        <time>2018-10-12T10:22:41Z</time>
      </trkpt>
      <trkpt lat="45.99869" lon="4.70633">
        <ele>201</ele>
        <time>2018-10-12T10:22:42Z</time>
      </trkpt>
      <trkpt lat="45.99864" lon="4.70635">
        <ele>201</ele>
        <time>2018-10-12T10:22:43Z</time>
      </trkpt>
      <trkpt lat="45.99859" lon="4.70636">
        <ele>201</ele>
        <time>2018-10-12T10:22:44Z</time>
      </trkpt>
      <trkpt lat="45.99853" lon="4.70637">
        <ele>201</ele>
        <time>2018-10-12T10:22:45Z</time>
      </trkpt>
      <trkpt lat="45.99849" lon="4.70639">
        <ele>201</ele>
        <time>2018-10-12T10:22:46Z</time>
      </trkpt>
      <trkpt lat="45.99844" lon="4.70641">
        <ele>201</ele>
        <time>2018-10-12T10:22:47Z</time>
      </trkpt>
      <trkpt lat="45.99839" lon="4.70641">
        <ele>201</ele>
        <time>2018-10-12T10:22:48Z</time>
      </trkpt>
      <trkpt lat="45.99833" lon="4.70643">
        <ele>201</ele>
        <time>2018-10-12T10:22:49Z</time>
      </trkpt>
      <trkpt lat="45.99829" lon="4.70644">
        <ele>202</ele>
        <time>2018-10-12T10:22:50Z</time>
      </trkpt>
      <trkpt lat="45.99824" lon="4.70645">
        <ele>202</ele>
        <time>2018-10-12T10:22:51Z</time>
      </trkpt>
      <trkpt lat="45.99818" lon="4.70646">
        <ele>202</ele>
        <time>2018-10-12T10:22:52Z</time>
      </trkpt>
      <trkpt lat="45.99813" lon="4.70647">
        <ele>202</ele>
        <time>2018-10-12T10:22:53Z</time>
      </trkpt>
      <trkpt lat="45.99809" lon="4.70648">
        <ele>202</ele>
        <time>2018-10-12T10:22:54Z</time>
      </trkpt>
      <trkpt lat="45.99805" lon="4.70649">
        <ele>202</ele>
        <time>2018-10-12T10:22:55Z</time>
      </trkpt>
      <trkpt lat="45.998" lon="4.7065">
        <ele>202</ele>
        <time>2018-10-12T10:22:56Z</time>
      </trkpt>
      <trkpt lat="45.99796" lon="4.70653">
        <ele>202</ele>
        <time>2018-10-12T10:22:57Z</time>
      </trkpt>
      <trkpt lat="45.99791" lon="4.70655">
        <ele>202</ele>
        <time>2018-10-12T10:22:58Z</time>
      </trkpt>
      <trkpt lat="45.99782" lon="4.70658">
        <ele>202</ele>
        <time>2018-10-12T10:23:00Z</time>
      </trkpt>
      <trkpt lat="45.99778" lon="4.7066">
        <ele>202</ele>
        <time>2018-10-12T10:23:01Z</time>
      </trkpt>
      <trkpt lat="45.99773" lon="4.70661">
        <ele>202</ele>
        <time>2018-10-12T10:23:02Z</time>
      </trkpt>
      <trkpt lat="45.99768" lon="4.70662">
        <ele>202</ele>
        <time>2018-10-12T10:23:03Z</time>
      </trkpt>
      <trkpt lat="45.99763" lon="4.70663">
        <ele>202</ele>
        <time>2018-10-12T10:23:04Z</time>
      </trkpt>
      <trkpt lat="45.99758" lon="4.70663">
        <ele>202</ele>
        <time>2018-10-12T10:23:05Z</time>
      </trkpt>
      <trkpt lat="45.99754" lon="4.70665">
        <ele>202</ele>
        <time>2018-10-12T10:23:06Z</time>
      </trkpt>
      <trkpt lat="45.99749" lon="4.70666">
        <ele>202</ele>
        <time>2018-10-12T10:23:07Z</time>
      </trkpt>
      <trkpt lat="45.99741" lon="4.70668">
        <ele>202</ele>
        <time>2018-10-12T10:23:09Z</time>
      </trkpt>
      <trkpt lat="45.99737" lon="4.70669">
        <ele>202</ele>
        <time>2018-10-12T10:23:10Z</time>
      </trkpt>
      <trkpt lat="45.99729" lon="4.70671">
        <ele>202</ele>
        <time>2018-10-12T10:23:12Z</time>
      </trkpt>
      <trkpt lat="45.99725" lon="4.70672">
        <ele>202</ele>
        <time>2018-10-12T10:23:13Z</time>
      </trkpt>
      <trkpt lat="45.9972" lon="4.70672">
        <ele>201</ele>
        <time>2018-10-12T10:23:14Z</time>
      </trkpt>
      <trkpt lat="45.99716" lon="4.70675">
        <ele>201</ele>
        <time>2018-10-12T10:23:15Z</time>
      </trkpt>
      <trkpt lat="45.99712" lon="4.70676">
        <ele>201</ele>
        <time>2018-10-12T10:23:16Z</time>
      </trkpt>
      <trkpt lat="45.99706" lon="4.70677">
        <ele>201</ele>
        <time>2018-10-12T10:23:17Z</time>
      </trkpt>
      <trkpt lat="45.99697" lon="4.70678">
        <ele>201</ele>
        <time>2018-10-12T10:23:19Z</time>
      </trkpt>
      <trkpt lat="45.99693" lon="4.7068">
        <ele>201</ele>
        <time>2018-10-12T10:23:20Z</time>
      </trkpt>
      <trkpt lat="45.99685" lon="4.70682">
        <ele>201</ele>
        <time>2018-10-12T10:23:22Z</time>
      </trkpt>
      <trkpt lat="45.9968" lon="4.70683">
        <ele>201</ele>
        <time>2018-10-12T10:23:23Z</time>
      </trkpt>
      <trkpt lat="45.99675" lon="4.70684">
        <ele>201</ele>
        <time>2018-10-12T10:23:24Z</time>
      </trkpt>
      <trkpt lat="45.99671" lon="4.70684">
        <ele>201</ele>
        <time>2018-10-12T10:23:25Z</time>
      </trkpt>
      <trkpt lat="45.99662" lon="4.70684">
        <ele>201</ele>
        <time>2018-10-12T10:23:27Z</time>
      </trkpt>
      <trkpt lat="45.99658" lon="4.70685">
        <ele>201</ele>
        <time>2018-10-12T10:23:28Z</time>
      </trkpt>
      <trkpt lat="45.99651" lon="4.70686">
        <ele>201</ele>
        <time>2018-10-12T10:23:30Z</time>
      </trkpt>
      <trkpt lat="45.99646" lon="4.70687">
        <ele>201</ele>
        <time>2018-10-12T10:23:31Z</time>
      </trkpt>
      <trkpt lat="45.99638" lon="4.70688">
        <ele>200</ele>
        <time>2018-10-12T10:23:33Z</time>
      </trkpt>
      <trkpt lat="45.99633" lon="4.70689">
        <ele>200</ele>
        <time>2018-10-12T10:23:34Z</time>
      </trkpt>
      <trkpt lat="45.99629" lon="4.70692">
        <ele>200</ele>
        <time>2018-10-12T10:23:35Z</time>
      </trkpt>
      <trkpt lat="45.99623" lon="4.70693">
        <ele>200</ele>
        <time>2018-10-12T10:23:36Z</time>
      </trkpt>
      <trkpt lat="45.99619" lon="4.70694">
        <ele>200</ele>
        <time>2018-10-12T10:23:37Z</time>
      </trkpt>
      <trkpt lat="45.99614" lon="4.70694">
        <ele>200</ele>
        <time>2018-10-12T10:23:38Z</time>
      </trkpt>
      <trkpt lat="45.99608" lon="4.70695">
        <ele>200</ele>
        <time>2018-10-12T10:23:39Z</time>
      </trkpt>
      <trkpt lat="45.99604" lon="4.70696">
        <ele>200</ele>
        <time>2018-10-12T10:23:40Z</time>
      </trkpt>
      <trkpt lat="45.99599" lon="4.70697">
        <ele>200</ele>
        <time>2018-10-12T10:23:41Z</time>
      </trkpt>
      <trkpt lat="45.99595" lon="4.70699">
        <ele>200</ele>
        <time>2018-10-12T10:23:42Z</time>
      </trkpt>
      <trkpt lat="45.9959" lon="4.707">
        <ele>200</ele>
        <time>2018-10-12T10:23:43Z</time>
      </trkpt>
      <trkpt lat="45.99585" lon="4.70701">
        <ele>200</ele>
        <time>2018-10-12T10:23:44Z</time>
      </trkpt>
      <trkpt lat="45.9958" lon="4.70702">
        <ele>200</ele>
        <time>2018-10-12T10:23:45Z</time>
      </trkpt>
      <trkpt lat="45.99575" lon="4.70703">
        <ele>200</ele>
        <time>2018-10-12T10:23:46Z</time>
      </trkpt>
      <trkpt lat="45.9957" lon="4.70703">
        <ele>200</ele>
        <time>2018-10-12T10:23:47Z</time>
      </trkpt>
      <trkpt lat="45.99566" lon="4.70705">
        <ele>200</ele>
        <time>2018-10-12T10:23:48Z</time>
      </trkpt>
      <trkpt lat="45.99561" lon="4.70706">
        <ele>200</ele>
        <time>2018-10-12T10:23:49Z</time>
      </trkpt>
      <trkpt lat="45.99556" lon="4.70706">
        <ele>200</ele>
        <time>2018-10-12T10:23:50Z</time>
      </trkpt>
      <trkpt lat="45.99551" lon="4.70707">
        <ele>200</ele>
        <time>2018-10-12T10:23:51Z</time>
      </trkpt>
      <trkpt lat="45.99547" lon="4.70708">
        <ele>200</ele>
        <time>2018-10-12T10:23:52Z</time>
      </trkpt>
      <trkpt lat="45.99542" lon="4.7071">
        <ele>199</ele>
        <time>2018-10-12T10:23:53Z</time>
      </trkpt>
      <trkpt lat="45.99537" lon="4.70711">
        <ele>199</ele>
        <time>2018-10-12T10:23:54Z</time>
      </trkpt>
      <trkpt lat="45.99531" lon="4.70712">
        <ele>199</ele>
        <time>2018-10-12T10:23:55Z</time>
      </trkpt>
      <trkpt lat="45.99526" lon="4.70714">
        <ele>199</ele>
        <time>2018-10-12T10:23:56Z</time>
      </trkpt>
      <trkpt lat="45.9952" lon="4.70716">
        <ele>199</ele>
        <time>2018-10-12T10:23:57Z</time>
      </trkpt>
      <trkpt lat="45.99515" lon="4.70717">
        <ele>199</ele>
        <time>2018-10-12T10:23:58Z</time>
      </trkpt>
      <trkpt lat="45.9951" lon="4.70718">
        <ele>199</ele>
        <time>2018-10-12T10:23:59Z</time>
      </trkpt>
      <trkpt lat="45.99505" lon="4.70719">
        <ele>199</ele>
        <time>2018-10-12T10:24:00Z</time>
      </trkpt>
      <trkpt lat="45.995" lon="4.7072">
        <ele>199</ele>
        <time>2018-10-12T10:24:01Z</time>
      </trkpt>
      <trkpt lat="45.99495" lon="4.70722">
        <ele>199</ele>
        <time>2018-10-12T10:24:02Z</time>
      </trkpt>
      <trkpt lat="45.9949" lon="4.70724">
        <ele>199</ele>
        <time>2018-10-12T10:24:03Z</time>
      </trkpt>
      <trkpt lat="45.99486" lon="4.70726">
        <ele>199</ele>
        <time>2018-10-12T10:24:04Z</time>
      </trkpt>
      <trkpt lat="45.99481" lon="4.70727">
        <ele>199</ele>
        <time>2018-10-12T10:24:05Z</time>
      </trkpt>
      <trkpt lat="45.99476" lon="4.70726">
        <ele>199</ele>
        <time>2018-10-12T10:24:06Z</time>
      </trkpt>
      <trkpt lat="45.99471" lon="4.70725">
        <ele>199</ele>
        <time>2018-10-12T10:24:07Z</time>
      </trkpt>
      <trkpt lat="45.99466" lon="4.70725">
        <ele>200</ele>
        <time>2018-10-12T10:24:08Z</time>
      </trkpt>
      <trkpt lat="45.99458" lon="4.70727">
        <ele>200</ele>
        <time>2018-10-12T10:24:10Z</time>
      </trkpt>
      <trkpt lat="45.99454" lon="4.70726">
        <ele>200</ele>
        <time>2018-10-12T10:24:11Z</time>
      </trkpt>
      <trkpt lat="45.99445" lon="4.70722">
        <ele>200</ele>
        <time>2018-10-12T10:24:13Z</time>
      </trkpt>
      <trkpt lat="45.9944" lon="4.70721">
        <ele>200</ele>
        <time>2018-10-12T10:24:14Z</time>
      </trkpt>
      <trkpt lat="45.99435" lon="4.70721">
        <ele>200</ele>
        <time>2018-10-12T10:24:15Z</time>
      </trkpt>
      <trkpt lat="45.9943" lon="4.70721">
        <ele>200</ele>
        <time>2018-10-12T10:24:16Z</time>
      </trkpt>
      <trkpt lat="45.99424" lon="4.70721">
        <ele>200</ele>
        <time>2018-10-12T10:24:17Z</time>
      </trkpt>
      <trkpt lat="45.99419" lon="4.7072">
        <ele>200</ele>
        <time>2018-10-12T10:24:18Z</time>
      </trkpt>
      <trkpt lat="45.99413" lon="4.70719">
        <ele>199</ele>
        <time>2018-10-12T10:24:19Z</time>
      </trkpt>
      <trkpt lat="45.99407" lon="4.7072">
        <ele>199</ele>
        <time>2018-10-12T10:24:20Z</time>
      </trkpt>
      <trkpt lat="45.99401" lon="4.7072">
        <ele>199</ele>
        <time>2018-10-12T10:24:21Z</time>
      </trkpt>
      <trkpt lat="45.99395" lon="4.7072">
        <ele>199</ele>
        <time>2018-10-12T10:24:22Z</time>
      </trkpt>
      <trkpt lat="45.99389" lon="4.7072">
        <ele>199</ele>
        <time>2018-10-12T10:24:23Z</time>
      </trkpt>
      <trkpt lat="45.99383" lon="4.70719">
        <ele>198</ele>
        <time>2018-10-12T10:24:24Z</time>
      </trkpt>
      <trkpt lat="45.99378" lon="4.70719">
        <ele>198</ele>
        <time>2018-10-12T10:24:25Z</time>
      </trkpt>
      <trkpt lat="45.99373" lon="4.70718">
        <ele>198</ele>
        <time>2018-10-12T10:24:26Z</time>
      </trkpt>
      <trkpt lat="45.99368" lon="4.70718">
        <ele>198</ele>
        <time>2018-10-12T10:24:27Z</time>
      </trkpt>
      <trkpt lat="45.99363" lon="4.70718">
        <ele>198</ele>
        <time>2018-10-12T10:24:28Z</time>
      </trkpt>
      <trkpt lat="45.99358" lon="4.70718">
        <ele>198</ele>
        <time>2018-10-12T10:24:29Z</time>
      </trkpt>
      <trkpt lat="45.99353" lon="4.70717">
        <ele>198</ele>
        <time>2018-10-12T10:24:30Z</time>
      </trkpt>
      <trkpt lat="45.99348" lon="4.70716">
        <ele>197</ele>
        <time>2018-10-12T10:24:31Z</time>
      </trkpt>
      <trkpt lat="45.99343" lon="4.70715">
        <ele>197</ele>
        <time>2018-10-12T10:24:32Z</time>
      </trkpt>
      <trkpt lat="45.99339" lon="4.70715">
        <ele>197</ele>
        <time>2018-10-12T10:24:33Z</time>
      </trkpt>
      <trkpt lat="45.99334" lon="4.70714">
        <ele>197</ele>
        <time>2018-10-12T10:24:34Z</time>
      </trkpt>
      <trkpt lat="45.99329" lon="4.70713">
        <ele>196</ele>
        <time>2018-10-12T10:24:35Z</time>
      </trkpt>
      <trkpt lat="45.99324" lon="4.70712">
        <ele>196</ele>
        <time>2018-10-12T10:24:36Z</time>
      </trkpt>
      <trkpt lat="45.99319" lon="4.70712">
        <ele>196</ele>
        <time>2018-10-12T10:24:37Z</time>
      </trkpt>
      <trkpt lat="45.99313" lon="4.70712">
        <ele>196</ele>
        <time>2018-10-12T10:24:38Z</time>
      </trkpt>
      <trkpt lat="45.99308" lon="4.70712">
        <ele>196</ele>
        <time>2018-10-12T10:24:39Z</time>
      </trkpt>
      <trkpt lat="45.99303" lon="4.70712">
        <ele>196</ele>
        <time>2018-10-12T10:24:40Z</time>
      </trkpt>
      <trkpt lat="45.99298" lon="4.70712">
        <ele>196</ele>
        <time>2018-10-12T10:24:41Z</time>
      </trkpt>
      <trkpt lat="45.99293" lon="4.70711">
        <ele>196</ele>
        <time>2018-10-12T10:24:42Z</time>
      </trkpt>
      <trkpt lat="45.99288" lon="4.70712">
        <ele>196</ele>
        <time>2018-10-12T10:24:43Z</time>
      </trkpt>
      <trkpt lat="45.99284" lon="4.70712">
        <ele>196</ele>
        <time>2018-10-12T10:24:44Z</time>
      </trkpt>
      <trkpt lat="45.99278" lon="4.70713">
        <ele>196</ele>
        <time>2018-10-12T10:24:45Z</time>
      </trkpt>
      <trkpt lat="45.99274" lon="4.70714">
        <ele>196</ele>
        <time>2018-10-12T10:24:46Z</time>
      </trkpt>
      <trkpt lat="45.99268" lon="4.70713">
        <ele>196</ele>
        <time>2018-10-12T10:24:47Z</time>
      </trkpt>
      <trkpt lat="45.99262" lon="4.70713">
        <ele>196</ele>
        <time>2018-10-12T10:24:48Z</time>
      </trkpt>
      <trkpt lat="45.99255" lon="4.70713">
        <ele>196</ele>
        <time>2018-10-12T10:24:49Z</time>
      </trkpt>
      <trkpt lat="45.9925" lon="4.70712">
        <ele>196</ele>
        <time>2018-10-12T10:24:50Z</time>
      </trkpt>
      <trkpt lat="45.99245" lon="4.70712">
        <ele>196</ele>
        <time>2018-10-12T10:24:51Z</time>
      </trkpt>
      <trkpt lat="45.99239" lon="4.70712">
        <ele>196</ele>
        <time>2018-10-12T10:24:52Z</time>
      </trkpt>
      <trkpt lat="45.99233" lon="4.70712">
        <ele>196</ele>
        <time>2018-10-12T10:24:53Z</time>
      </trkpt>
      <trkpt lat="45.99229" lon="4.70712">
        <ele>196</ele>
        <time>2018-10-12T10:24:54Z</time>
      </trkpt>
      <trkpt lat="45.99223" lon="4.70712">
        <ele>196</ele>
        <time>2018-10-12T10:24:55Z</time>
      </trkpt>
      <trkpt lat="45.99217" lon="4.70712">
        <ele>196</ele>
        <time>2018-10-12T10:24:56Z</time>
      </trkpt>
      <trkpt lat="45.99212" lon="4.70712">
        <ele>196</ele>
        <time>2018-10-12T10:24:57Z</time>
      </trkpt>
      <trkpt lat="45.99207" lon="4.70711">
        <ele>196</ele>
        <time>2018-10-12T10:24:58Z</time>
      </trkpt>
      <trkpt lat="45.99202" lon="4.70711">
        <ele>196</ele>
        <time>2018-10-12T10:24:59Z</time>
      </trkpt>
      <trkpt lat="45.99198" lon="4.7071">
        <ele>196</ele>
        <time>2018-10-12T10:25:00Z</time>
      </trkpt>
      <trkpt lat="45.99193" lon="4.7071">
        <ele>196</ele>
        <time>2018-10-12T10:25:01Z</time>
      </trkpt>
      <trkpt lat="45.99188" lon="4.7071">
        <ele>196</ele>
        <time>2018-10-12T10:25:02Z</time>
      </trkpt>
      <trkpt lat="45.99183" lon="4.7071">
        <ele>196</ele>
        <time>2018-10-12T10:25:03Z</time>
      </trkpt>
      <trkpt lat="45.99178" lon="4.70709">
        <ele>196</ele>
        <time>2018-10-12T10:25:04Z</time>
      </trkpt>
      <trkpt lat="45.99172" lon="4.70709">
        <ele>196</ele>
        <time>2018-10-12T10:25:05Z</time>
      </trkpt>
      <trkpt lat="45.99167" lon="4.70709">
        <ele>196</ele>
        <time>2018-10-12T10:25:06Z</time>
      </trkpt>
      <trkpt lat="45.99163" lon="4.7071">
        <ele>195</ele>
        <time>2018-10-12T10:25:07Z</time>
      </trkpt>
      <trkpt lat="45.99157" lon="4.7071">
        <ele>195</ele>
        <time>2018-10-12T10:25:08Z</time>
      </trkpt>
      <trkpt lat="45.99152" lon="4.70709">
        <ele>195</ele>
        <time>2018-10-12T10:25:09Z</time>
      </trkpt>
      <trkpt lat="45.99148" lon="4.70709">
        <ele>195</ele>
        <time>2018-10-12T10:25:10Z</time>
      </trkpt>
      <trkpt lat="45.99143" lon="4.70709">
        <ele>195</ele>
        <time>2018-10-12T10:25:11Z</time>
      </trkpt>
      <trkpt lat="45.99138" lon="4.70708">
        <ele>195</ele>
        <time>2018-10-12T10:25:12Z</time>
      </trkpt>
      <trkpt lat="45.99133" lon="4.70709">
        <ele>195</ele>
        <time>2018-10-12T10:25:13Z</time>
      </trkpt>
      <trkpt lat="45.99128" lon="4.70709">
        <ele>195</ele>
        <time>2018-10-12T10:25:14Z</time>
      </trkpt>
      <trkpt lat="45.99123" lon="4.70709">
        <ele>195</ele>
        <time>2018-10-12T10:25:15Z</time>
      </trkpt>
      <trkpt lat="45.99118" lon="4.70708">
        <ele>195</ele>
        <time>2018-10-12T10:25:16Z</time>
      </trkpt>
      <trkpt lat="45.99112" lon="4.70708">
        <ele>195</ele>
        <time>2018-10-12T10:25:17Z</time>
      </trkpt>
      <trkpt lat="45.99107" lon="4.70709">
        <ele>195</ele>
        <time>2018-10-12T10:25:18Z</time>
      </trkpt>
      <trkpt lat="45.99101" lon="4.70708">
        <ele>195</ele>
        <time>2018-10-12T10:25:19Z</time>
      </trkpt>
      <trkpt lat="45.99095" lon="4.70708">
        <ele>195</ele>
        <time>2018-10-12T10:25:20Z</time>
      </trkpt>
      <trkpt lat="45.9909" lon="4.70706">
        <ele>195</ele>
        <time>2018-10-12T10:25:21Z</time>
      </trkpt>
      <trkpt lat="45.99084" lon="4.70707">
        <ele>194</ele>
        <time>2018-10-12T10:25:22Z</time>
      </trkpt>
      <trkpt lat="45.99079" lon="4.70706">
        <ele>193</ele>
        <time>2018-10-12T10:25:23Z</time>
      </trkpt>
      <trkpt lat="45.99075" lon="4.70706">
        <ele>193</ele>
        <time>2018-10-12T10:25:24Z</time>
      </trkpt>
      <trkpt lat="45.99066" lon="4.70706">
        <ele>193</ele>
        <time>2018-10-12T10:25:27Z</time>
      </trkpt>
      <trkpt lat="45.99064" lon="4.70707">
        <ele>193</ele>
        <time>2018-10-12T10:25:28Z</time>
      </trkpt>
      <trkpt lat="45.99057" lon="4.70706">
        <ele>193</ele>
        <time>2018-10-12T10:25:30Z</time>
      </trkpt>
      <trkpt lat="45.99054" lon="4.70706">
        <ele>193</ele>
        <time>2018-10-12T10:25:31Z</time>
      </trkpt>
      <trkpt lat="45.99047" lon="4.70705">
        <ele>193</ele>
        <time>2018-10-12T10:25:32Z</time>
      </trkpt>
      <trkpt lat="45.99042" lon="4.70706">
        <ele>193</ele>
        <time>2018-10-12T10:25:33Z</time>
      </trkpt>
      <trkpt lat="45.99037" lon="4.70706">
        <ele>192</ele>
        <time>2018-10-12T10:25:34Z</time>
      </trkpt>
      <trkpt lat="45.99032" lon="4.70705">
        <ele>192</ele>
        <time>2018-10-12T10:25:35Z</time>
      </trkpt>
      <trkpt lat="45.99026" lon="4.70707">
        <ele>192</ele>
        <time>2018-10-12T10:25:36Z</time>
      </trkpt>
      <trkpt lat="45.99021" lon="4.70707">
        <ele>192</ele>
        <time>2018-10-12T10:25:37Z</time>
      </trkpt>
      <trkpt lat="45.99016" lon="4.70707">
        <ele>192</ele>
        <time>2018-10-12T10:25:38Z</time>
      </trkpt>
      <trkpt lat="45.9901" lon="4.70707">
        <ele>192</ele>
        <time>2018-10-12T10:25:39Z</time>
      </trkpt>
      <trkpt lat="45.99004" lon="4.70709">
        <ele>192</ele>
        <time>2018-10-12T10:25:40Z</time>
      </trkpt>
      <trkpt lat="45.98997" lon="4.7071">
        <ele>191</ele>
        <time>2018-10-12T10:25:41Z</time>
      </trkpt>
      <trkpt lat="45.98991" lon="4.70713">
        <ele>191</ele>
        <time>2018-10-12T10:25:42Z</time>
      </trkpt>
      <trkpt lat="45.98984" lon="4.70716">
        <ele>191</ele>
        <time>2018-10-12T10:25:43Z</time>
      </trkpt>
      <trkpt lat="45.98978" lon="4.7072">
        <ele>191</ele>
        <time>2018-10-12T10:25:44Z</time>
      </trkpt>
      <trkpt lat="45.98972" lon="4.70726">
        <ele>191</ele>
        <time>2018-10-12T10:25:45Z</time>
      </trkpt>
      <trkpt lat="45.98967" lon="4.70735">
        <ele>191</ele>
        <time>2018-10-12T10:25:46Z</time>
      </trkpt>
      <trkpt lat="45.98962" lon="4.70742">
        <ele>190</ele>
        <time>2018-10-12T10:25:47Z</time>
      </trkpt>
      <trkpt lat="45.98958" lon="4.7075">
        <ele>189</ele>
        <time>2018-10-12T10:25:48Z</time>
      </trkpt>
      <trkpt lat="45.98954" lon="4.70758">
        <ele>189</ele>
        <time>2018-10-12T10:25:49Z</time>
      </trkpt>
      <trkpt lat="45.9895" lon="4.70765">
        <ele>189</ele>
        <time>2018-10-12T10:25:50Z</time>
      </trkpt>
      <trkpt lat="45.98946" lon="4.70771">
        <ele>189</ele>
        <time>2018-10-12T10:25:51Z</time>
      </trkpt>
      <trkpt lat="45.98942" lon="4.70779">
        <ele>189</ele>
        <time>2018-10-12T10:25:53Z</time>
      </trkpt>
      <trkpt lat="45.9894" lon="4.70781">
        <ele>189</ele>
        <time>2018-10-12T10:25:54Z</time>
      </trkpt>
      <trkpt lat="45.98935" lon="4.7079">
        <ele>189</ele>
        <time>2018-10-12T10:25:58Z</time>
      </trkpt>
      <trkpt lat="45.98934" lon="4.70793">
        <ele>189</ele>
        <time>2018-10-12T10:25:59Z</time>
      </trkpt>
      <trkpt lat="45.98931" lon="4.70802">
        <ele>188</ele>
        <time>2018-10-12T10:26:00Z</time>
      </trkpt>
      <trkpt lat="45.98929" lon="4.70807">
        <ele>188</ele>
        <time>2018-10-12T10:26:01Z</time>
      </trkpt>
      <trkpt lat="45.98925" lon="4.70811">
        <ele>188</ele>
        <time>2018-10-12T10:26:02Z</time>
      </trkpt>
      <trkpt lat="45.98922" lon="4.70816">
        <ele>188</ele>
        <time>2018-10-12T10:26:03Z</time>
      </trkpt>
      <trkpt lat="45.98918" lon="4.70823">
        <ele>188</ele>
        <time>2018-10-12T10:26:04Z</time>
      </trkpt>
      <trkpt lat="45.98915" lon="4.70829">
        <ele>187</ele>
        <time>2018-10-12T10:26:05Z</time>
      </trkpt>
      <trkpt lat="45.98912" lon="4.70834">
        <ele>187</ele>
        <time>2018-10-12T10:26:06Z</time>
      </trkpt>
      <trkpt lat="45.98908" lon="4.7084">
        <ele>187</ele>
        <time>2018-10-12T10:26:07Z</time>
      </trkpt>
      <trkpt lat="45.98905" lon="4.70846">
        <ele>186</ele>
        <time>2018-10-12T10:26:08Z</time>
      </trkpt>
      <trkpt lat="45.98902" lon="4.70853">
        <ele>186</ele>
        <time>2018-10-12T10:26:09Z</time>
      </trkpt>
      <trkpt lat="45.98898" lon="4.70859">
        <ele>186</ele>
        <time>2018-10-12T10:26:10Z</time>
      </trkpt>
      <trkpt lat="45.98895" lon="4.70865">
        <ele>186</ele>
        <time>2018-10-12T10:26:11Z</time>
      </trkpt>
      <trkpt lat="45.98892" lon="4.70871">
        <ele>186</ele>
        <time>2018-10-12T10:26:12Z</time>
      </trkpt>
      <trkpt lat="45.98889" lon="4.70878">
        <ele>186</ele>
        <time>2018-10-12T10:26:13Z</time>
      </trkpt>
      <trkpt lat="45.98886" lon="4.70883">
        <ele>186</ele>
        <time>2018-10-12T10:26:14Z</time>
      </trkpt>
      <trkpt lat="45.98884" lon="4.7089">
        <ele>186</ele>
        <time>2018-10-12T10:26:15Z</time>
      </trkpt>
      <trkpt lat="45.98881" lon="4.70895">
        <ele>186</ele>
        <time>2018-10-12T10:26:16Z</time>
      </trkpt>
      <trkpt lat="45.98878" lon="4.70901">
        <ele>186</ele>
        <time>2018-10-12T10:26:17Z</time>
      </trkpt>
      <trkpt lat="45.98876" lon="4.70906">
        <ele>186</ele>
        <time>2018-10-12T10:26:18Z</time>
      </trkpt>
      <trkpt lat="45.98873" lon="4.70912">
        <ele>186</ele>
        <time>2018-10-12T10:26:19Z</time>
      </trkpt>
      <trkpt lat="45.9887" lon="4.70918">
        <ele>185</ele>
        <time>2018-10-12T10:26:20Z</time>
      </trkpt>
      <trkpt lat="45.98866" lon="4.70926">
        <ele>185</ele>
        <time>2018-10-12T10:26:21Z</time>
      </trkpt>
      <trkpt lat="45.98863" lon="4.70934">
        <ele>185</ele>
        <time>2018-10-12T10:26:22Z</time>
      </trkpt>
      <trkpt lat="45.98859" lon="4.70939">
        <ele>185</ele>
        <time>2018-10-12T10:26:23Z</time>
      </trkpt>
      <trkpt lat="45.98856" lon="4.70946">
        <ele>185</ele>
        <time>2018-10-12T10:26:24Z</time>
      </trkpt>
      <trkpt lat="45.98854" lon="4.70953">
        <ele>185</ele>
        <time>2018-10-12T10:26:25Z</time>
      </trkpt>
      <trkpt lat="45.98852" lon="4.7096">
        <ele>185</ele>
        <time>2018-10-12T10:26:26Z</time>
      </trkpt>
      <trkpt lat="45.98849" lon="4.70967">
        <ele>185</ele>
        <time>2018-10-12T10:26:27Z</time>
      </trkpt>
      <trkpt lat="45.98846" lon="4.70976">
        <ele>185</ele>
        <time>2018-10-12T10:26:29Z</time>
      </trkpt>
      <trkpt lat="45.98843" lon="4.70984">
        <ele>185</ele>
        <time>2018-10-12T10:26:30Z</time>
      </trkpt>
      <trkpt lat="45.98841" lon="4.70991">
        <ele>185</ele>
        <time>2018-10-12T10:26:31Z</time>
      </trkpt>
      <trkpt lat="45.98839" lon="4.70999">
        <ele>185</ele>
        <time>2018-10-12T10:26:32Z</time>
      </trkpt>
      <trkpt lat="45.98837" lon="4.71007">
        <ele>185</ele>
        <time>2018-10-12T10:26:33Z</time>
      </trkpt>
      <trkpt lat="45.98835" lon="4.71014">
        <ele>185</ele>
        <time>2018-10-12T10:26:34Z</time>
      </trkpt>
      <trkpt lat="45.98833" lon="4.71021">
        <ele>186</ele>
        <time>2018-10-12T10:26:35Z</time>
      </trkpt>
      <trkpt lat="45.98831" lon="4.71027">
        <ele>186</ele>
        <time>2018-10-12T10:26:36Z</time>
      </trkpt>
      <trkpt lat="45.98827" lon="4.71038">
        <ele>187</ele>
        <time>2018-10-12T10:26:38Z</time>
      </trkpt>
      <trkpt lat="45.98825" lon="4.71044">
        <ele>187</ele>
        <time>2018-10-12T10:26:39Z</time>
      </trkpt>
      <trkpt lat="45.98823" lon="4.7105">
        <ele>187</ele>
        <time>2018-10-12T10:26:40Z</time>
      </trkpt>
      <trkpt lat="45.98821" lon="4.71056">
        <ele>187</ele>
        <time>2018-10-12T10:26:41Z</time>
      </trkpt>
      <trkpt lat="45.98819" lon="4.71062">
        <ele>187</ele>
        <time>2018-10-12T10:26:42Z</time>
      </trkpt>
      <trkpt lat="45.98819" lon="4.71068">
        <ele>187</ele>
        <time>2018-10-12T10:26:43Z</time>
      </trkpt>
      <trkpt lat="45.98818" lon="4.71074">
        <ele>187</ele>
        <time>2018-10-12T10:26:44Z</time>
      </trkpt>
      <trkpt lat="45.98818" lon="4.71082">
        <ele>187</ele>
        <time>2018-10-12T10:26:45Z</time>
      </trkpt>
      <trkpt lat="45.98815" lon="4.71094">
        <ele>188</ele>
        <time>2018-10-12T10:26:47Z</time>
      </trkpt>
      <trkpt lat="45.98814" lon="4.71096">
        <ele>188</ele>
        <time>2018-10-12T10:26:48Z</time>
      </trkpt>
      <trkpt lat="45.98811" lon="4.71103">
        <ele>188</ele>
        <time>2018-10-12T10:26:49Z</time>
      </trkpt>
      <trkpt lat="45.9881" lon="4.71108">
        <ele>187</ele>
        <time>2018-10-12T10:26:50Z</time>
      </trkpt>
      <trkpt lat="45.98809" lon="4.71115">
        <ele>187</ele>
        <time>2018-10-12T10:26:51Z</time>
      </trkpt>
      <trkpt lat="45.98807" lon="4.71121">
        <ele>187</ele>
        <time>2018-10-12T10:26:52Z</time>
      </trkpt>
      <trkpt lat="45.98805" lon="4.71128">
        <ele>187</ele>
        <time>2018-10-12T10:26:53Z</time>
      </trkpt>
      <trkpt lat="45.98803" lon="4.71134">
        <ele>187</ele>
        <time>2018-10-12T10:26:54Z</time>
      </trkpt>
      <trkpt lat="45.98798" lon="4.71142">
        <ele>187</ele>
        <time>2018-10-12T10:26:56Z</time>
      </trkpt>
      <trkpt lat="45.98796" lon="4.71147">
        <ele>187</ele>
        <time>2018-10-12T10:26:57Z</time>
      </trkpt>
      <trkpt lat="45.98792" lon="4.71157">
        <ele>187</ele>
        <time>2018-10-12T10:26:59Z</time>
      </trkpt>
      <trkpt lat="45.98789" lon="4.71162">
        <ele>187</ele>
        <time>2018-10-12T10:27:00Z</time>
      </trkpt>
      <trkpt lat="45.98788" lon="4.71168">
        <ele>186</ele>
        <time>2018-10-12T10:27:01Z</time>
      </trkpt>
      <trkpt lat="45.98787" lon="4.71176">
        <ele>186</ele>
        <time>2018-10-12T10:27:02Z</time>
      </trkpt>
      <trkpt lat="45.98783" lon="4.71186">
        <ele>186</ele>
        <time>2018-10-12T10:27:04Z</time>
      </trkpt>
      <trkpt lat="45.9878" lon="4.71193">
        <ele>186</ele>
        <time>2018-10-12T10:27:05Z</time>
      </trkpt>
      <trkpt lat="45.98778" lon="4.71198">
        <ele>186</ele>
        <time>2018-10-12T10:27:06Z</time>
      </trkpt>
      <trkpt lat="45.98775" lon="4.71205">
        <ele>186</ele>
        <time>2018-10-12T10:27:07Z</time>
      </trkpt>
      <trkpt lat="45.98773" lon="4.71212">
        <ele>186</ele>
        <time>2018-10-12T10:27:08Z</time>
      </trkpt>
      <trkpt lat="45.98772" lon="4.7122">
        <ele>186</ele>
        <time>2018-10-12T10:27:09Z</time>
      </trkpt>
      <trkpt lat="45.9877" lon="4.71226">
        <ele>186</ele>
        <time>2018-10-12T10:27:10Z</time>
      </trkpt>
      <trkpt lat="45.98767" lon="4.71233">
        <ele>186</ele>
        <time>2018-10-12T10:27:11Z</time>
      </trkpt>
      <trkpt lat="45.98765" lon="4.7124">
        <ele>186</ele>
        <time>2018-10-12T10:27:12Z</time>
      </trkpt>
      <trkpt lat="45.98764" lon="4.71245">
        <ele>186</ele>
        <time>2018-10-12T10:27:13Z</time>
      </trkpt>
      <trkpt lat="45.98761" lon="4.71251">
        <ele>186</ele>
        <time>2018-10-12T10:27:14Z</time>
      </trkpt>
      <trkpt lat="45.98759" lon="4.71257">
        <ele>186</ele>
        <time>2018-10-12T10:27:15Z</time>
      </trkpt>
      <trkpt lat="45.98756" lon="4.71269">
        <ele>186</ele>
        <time>2018-10-12T10:27:17Z</time>
      </trkpt>
      <trkpt lat="45.98754" lon="4.71275">
        <ele>186</ele>
        <time>2018-10-12T10:27:18Z</time>
      </trkpt>
      <trkpt lat="45.98752" lon="4.71283">
        <ele>186</ele>
        <time>2018-10-12T10:27:20Z</time>
      </trkpt>
      <trkpt lat="45.98751" lon="4.71291">
        <ele>185</ele>
        <time>2018-10-12T10:27:21Z</time>
      </trkpt>
      <trkpt lat="45.98749" lon="4.713">
        <ele>188</ele>
        <time>2018-10-12T10:27:25Z</time>
      </trkpt>
      <trkpt lat="45.98748" lon="4.71304">
        <ele>188</ele>
        <time>2018-10-12T10:27:26Z</time>
      </trkpt>
      <trkpt lat="45.98745" lon="4.71312">
        <ele>188</ele>
        <time>2018-10-12T10:27:28Z</time>
      </trkpt>
      <trkpt lat="45.98744" lon="4.71316">
        <ele>188</ele>
        <time>2018-10-12T10:27:29Z</time>
      </trkpt>
      <trkpt lat="45.98741" lon="4.71326">
        <ele>187</ele>
        <time>2018-10-12T10:27:32Z</time>
      </trkpt>
      <trkpt lat="45.98741" lon="4.71329">
        <ele>187</ele>
        <time>2018-10-12T10:27:33Z</time>
      </trkpt>
      <trkpt lat="45.98738" lon="4.71341">
        <ele>187</ele>
        <time>2018-10-12T10:27:37Z</time>
      </trkpt>
      <trkpt lat="45.98738" lon="4.71346">
        <ele>187</ele>
        <time>2018-10-12T10:27:38Z</time>
      </trkpt>
      <trkpt lat="45.98736" lon="4.71358">
        <ele>187</ele>
        <time>2018-10-12T10:27:42Z</time>
      </trkpt>
      <trkpt lat="45.98733" lon="4.71368">
        <ele>187</ele>
        <time>2018-10-12T10:27:43Z</time>
      </trkpt>
      <trkpt lat="45.9873" lon="4.71379">
        <ele>187</ele>
        <time>2018-10-12T10:27:47Z</time>
      </trkpt>
      <trkpt lat="45.98729" lon="4.71382">
        <ele>187</ele>
        <time>2018-10-12T10:27:48Z</time>
      </trkpt>
      <trkpt lat="45.98728" lon="4.71392">
        <ele>187</ele>
        <time>2018-10-12T10:27:51Z</time>
      </trkpt>
      <trkpt lat="45.98725" lon="4.71396">
        <ele>187</ele>
        <time>2018-10-12T10:27:52Z</time>
      </trkpt>
      <trkpt lat="45.98719" lon="4.71408">
        <ele>187</ele>
        <time>2018-10-12T10:27:53Z</time>
      </trkpt>
      <trkpt lat="45.98714" lon="4.71419">
        <ele>186</ele>
        <time>2018-10-12T10:27:55Z</time>
      </trkpt>
      <trkpt lat="45.98713" lon="4.71421">
        <ele>186</ele>
        <time>2018-10-12T10:27:56Z</time>
      </trkpt>
      <trkpt lat="45.98709" lon="4.71432">
        <ele>186</ele>
        <time>2018-10-12T10:27:58Z</time>
      </trkpt>
      <trkpt lat="45.98707" lon="4.71434">
        <ele>187</ele>
        <time>2018-10-12T10:27:59Z</time>
      </trkpt>
      <trkpt lat="45.98702" lon="4.71442">
        <ele>187</ele>
        <time>2018-10-12T10:28:04Z</time>
      </trkpt>
      <trkpt lat="45.987" lon="4.71444">
        <ele>187</ele>
        <time>2018-10-12T10:28:05Z</time>
      </trkpt>
      <trkpt lat="45.98696" lon="4.7145">
        <ele>187</ele>
        <time>2018-10-12T10:28:07Z</time>
      </trkpt>
      <trkpt lat="45.98694" lon="4.71454">
        <ele>187</ele>
        <time>2018-10-12T10:28:08Z</time>
      </trkpt>
      <trkpt lat="45.9869" lon="4.7146">
        <ele>187</ele>
        <time>2018-10-12T10:28:10Z</time>
      </trkpt>
      <trkpt lat="45.98689" lon="4.71464">
        <ele>187</ele>
        <time>2018-10-12T10:28:11Z</time>
      </trkpt>
      <trkpt lat="45.98686" lon="4.71475">
        <ele>187</ele>
        <time>2018-10-12T10:28:14Z</time>
      </trkpt>
      <trkpt lat="45.98685" lon="4.71477">
        <ele>187</ele>
        <time>2018-10-12T10:28:15Z</time>
      </trkpt>
      <trkpt lat="45.98677" lon="4.7148">
        <ele>188</ele>
        <time>2018-10-12T10:28:19Z</time>
      </trkpt>
      <trkpt lat="45.98675" lon="4.71479">
        <ele>188</ele>
        <time>2018-10-12T10:28:20Z</time>
      </trkpt>
      <trkpt lat="45.98667" lon="4.7148">
        <ele>188</ele>
        <time>2018-10-12T10:28:24Z</time>
      </trkpt>
      <trkpt lat="45.98665" lon="4.71481">
        <ele>190</ele>
        <time>2018-10-12T10:28:25Z</time>
      </trkpt>
      <trkpt lat="45.98658" lon="4.71482">
        <ele>190</ele>
        <time>2018-10-12T10:28:27Z</time>
      </trkpt>
      <trkpt lat="45.98655" lon="4.71483">
        <ele>190</ele>
        <time>2018-10-12T10:28:28Z</time>
      </trkpt>
      <trkpt lat="45.98649" lon="4.71485">
        <ele>190</ele>
        <time>2018-10-12T10:28:30Z</time>
      </trkpt>
      <trkpt lat="45.98646" lon="4.71485">
        <ele>190</ele>
        <time>2018-10-12T10:28:31Z</time>
      </trkpt>
      <trkpt lat="45.98639" lon="4.71487">
        <ele>190</ele>
        <time>2018-10-12T10:28:32Z</time>
      </trkpt>
      <trkpt lat="45.98635" lon="4.71488">
        <ele>190</ele>
        <time>2018-10-12T10:28:33Z</time>
      </trkpt>
      <trkpt lat="45.98627" lon="4.71489">
        <ele>190</ele>
        <time>2018-10-12T10:28:36Z</time>
      </trkpt>
      <trkpt lat="45.98623" lon="4.7149">
        <ele>190</ele>
        <time>2018-10-12T10:28:37Z</time>
      </trkpt>
      <trkpt lat="45.98616" lon="4.71491">
        <ele>191</ele>
        <time>2018-10-12T10:28:39Z</time>
      </trkpt>
      <trkpt lat="45.98611" lon="4.71493">
        <ele>191</ele>
        <time>2018-10-12T10:28:40Z</time>
      </trkpt>
      <trkpt lat="45.98604" lon="4.71495">
        <ele>191</ele>
        <time>2018-10-12T10:28:42Z</time>
      </trkpt>
      <trkpt lat="45.98602" lon="4.71495">
        <ele>191</ele>
        <time>2018-10-12T10:28:43Z</time>
      </trkpt>
      <trkpt lat="45.98594" lon="4.71495">
        <ele>191</ele>
        <time>2018-10-12T10:28:45Z</time>
      </trkpt>
      <trkpt lat="45.9859" lon="4.71496">
        <ele>192</ele>
        <time>2018-10-12T10:28:46Z</time>
      </trkpt>
      <trkpt lat="45.98583" lon="4.71498">
        <ele>192</ele>
        <time>2018-10-12T10:28:49Z</time>
      </trkpt>
      <trkpt lat="45.9858" lon="4.715">
        <ele>192</ele>
        <time>2018-10-12T10:28:50Z</time>
      </trkpt>
      <trkpt lat="45.98577" lon="4.71501">
        <ele>193</ele>
        <time>2018-10-12T10:28:51Z</time>
      </trkpt>
      <trkpt lat="45.98571" lon="4.71503">
        <ele>193</ele>
        <time>2018-10-12T10:28:52Z</time>
      </trkpt>
      <trkpt lat="45.98564" lon="4.71506">
        <ele>193</ele>
        <time>2018-10-12T10:28:55Z</time>
      </trkpt>
      <trkpt lat="45.98561" lon="4.71506">
        <ele>193</ele>
        <time>2018-10-12T10:28:56Z</time>
      </trkpt>
      <trkpt lat="45.98553" lon="4.71508">
        <ele>194</ele>
        <time>2018-10-12T10:28:59Z</time>
      </trkpt>
      <trkpt lat="45.9855" lon="4.71509">
        <ele>194</ele>
        <time>2018-10-12T10:29:00Z</time>
      </trkpt>
      <trkpt lat="45.98543" lon="4.71512">
        <ele>194</ele>
        <time>2018-10-12T10:29:03Z</time>
      </trkpt>
      <trkpt lat="45.98541" lon="4.71512">
        <ele>194</ele>
        <time>2018-10-12T10:29:04Z</time>
      </trkpt>
      <trkpt lat="45.98533" lon="4.71512">
        <ele>194</ele>
        <time>2018-10-12T10:29:08Z</time>
      </trkpt>
      <trkpt lat="45.98531" lon="4.71513">
        <ele>194</ele>
        <time>2018-10-12T10:29:09Z</time>
      </trkpt>
      <trkpt lat="45.98523" lon="4.71514">
        <ele>194</ele>
        <time>2018-10-12T10:29:16Z</time>
      </trkpt>
      <trkpt lat="45.98522" lon="4.71514">
        <ele>194</ele>
        <time>2018-10-12T10:29:17Z</time>
      </trkpt>
      <trkpt lat="45.98515" lon="4.71516">
        <ele>195</ele>
        <time>2018-10-12T10:29:20Z</time>
      </trkpt>
      <trkpt lat="45.98512" lon="4.71517">
        <ele>195</ele>
        <time>2018-10-12T10:29:21Z</time>
      </trkpt>
      <trkpt lat="45.98504" lon="4.71519">
        <ele>195</ele>
        <time>2018-10-12T10:29:24Z</time>
      </trkpt>
      <trkpt lat="45.98501" lon="4.71519">
        <ele>195</ele>
        <time>2018-10-12T10:29:25Z</time>
      </trkpt>
      <trkpt lat="45.98498" lon="4.7152">
        <ele>196</ele>
        <time>2018-10-12T10:29:26Z</time>
      </trkpt>
      <trkpt lat="45.9849" lon="4.71521">
        <ele>196</ele>
        <time>2018-10-12T10:29:27Z</time>
      </trkpt>
      <trkpt lat="45.98483" lon="4.71524">
        <ele>196</ele>
        <time>2018-10-12T10:29:30Z</time>
      </trkpt>
      <trkpt lat="45.9848" lon="4.71525">
        <ele>196</ele>
        <time>2018-10-12T10:29:31Z</time>
      </trkpt>
      <trkpt lat="45.98477" lon="4.71526">
        <ele>196</ele>
        <time>2018-10-12T10:29:32Z</time>
      </trkpt>
      <trkpt lat="45.9847" lon="4.71529">
        <ele>197</ele>
        <time>2018-10-12T10:29:33Z</time>
      </trkpt>
      <trkpt lat="45.98463" lon="4.71532">
        <ele>197</ele>
        <time>2018-10-12T10:29:35Z</time>
      </trkpt>
      <trkpt lat="45.98459" lon="4.71532">
        <ele>197</ele>
        <time>2018-10-12T10:29:36Z</time>
      </trkpt>
      <trkpt lat="45.98453" lon="4.71531">
        <ele>197</ele>
        <time>2018-10-12T10:29:38Z</time>
      </trkpt>
      <trkpt lat="45.98448" lon="4.71532">
        <ele>197</ele>
        <time>2018-10-12T10:29:39Z</time>
      </trkpt>
      <trkpt lat="45.9844" lon="4.71534">
        <ele>197</ele>
        <time>2018-10-12T10:29:42Z</time>
      </trkpt>
      <trkpt lat="45.98437" lon="4.71535">
        <ele>197</ele>
        <time>2018-10-12T10:29:43Z</time>
      </trkpt>
      <trkpt lat="45.98429" lon="4.71537">
        <ele>197</ele>
        <time>2018-10-12T10:29:46Z</time>
      </trkpt>
      <trkpt lat="45.98427" lon="4.71538">
        <ele>197</ele>
        <time>2018-10-12T10:29:47Z</time>
      </trkpt>
      <trkpt lat="45.98418" lon="4.71539">
        <ele>197</ele>
        <time>2018-10-12T10:29:51Z</time>
      </trkpt>
      <trkpt lat="45.98416" lon="4.71539">
        <ele>198</ele>
        <time>2018-10-12T10:29:52Z</time>
      </trkpt>
      <trkpt lat="45.98415" lon="4.71539">
        <ele>198</ele>
        <time>2018-10-12T10:29:53Z</time>
      </trkpt>
      <trkpt lat="45.98414" lon="4.71539">
        <ele>198</ele>
        <time>2018-10-12T10:29:54Z</time>
      </trkpt>
      <trkpt lat="45.98407" lon="4.71545">
        <ele>198</ele>
        <time>2018-10-12T10:29:59Z</time>
      </trkpt>
      <trkpt lat="45.98405" lon="4.71547">
        <ele>198</ele>
        <time>2018-10-12T10:30:00Z</time>
      </trkpt>
      <trkpt lat="45.98398" lon="4.71555">
        <ele>198</ele>
        <time>2018-10-12T10:30:03Z</time>
      </trkpt>
      <trkpt lat="45.98396" lon="4.71557">
        <ele>198</ele>
        <time>2018-10-12T10:30:04Z</time>
      </trkpt>
      <trkpt lat="45.98393" lon="4.7156">
        <ele>198</ele>
        <time>2018-10-12T10:30:05Z</time>
      </trkpt>
      <trkpt lat="45.98388" lon="4.71566">
        <ele>198</ele>
        <time>2018-10-12T10:30:06Z</time>
      </trkpt>
      <trkpt lat="45.98386" lon="4.71573">
        <ele>198</ele>
        <time>2018-10-12T10:30:07Z</time>
      </trkpt>
      <trkpt lat="45.98382" lon="4.71576">
        <ele>198</ele>
        <time>2018-10-12T10:30:08Z</time>
      </trkpt>
      <trkpt lat="45.98377" lon="4.7158">
        <ele>198</ele>
        <time>2018-10-12T10:30:09Z</time>
      </trkpt>
      <trkpt lat="45.98373" lon="4.71583">
        <ele>198</ele>
        <time>2018-10-12T10:30:10Z</time>
      </trkpt>
      <trkpt lat="45.98364" lon="4.71584">
        <ele>198</ele>
        <time>2018-10-12T10:30:12Z</time>
      </trkpt>
      <trkpt lat="45.9836" lon="4.71584">
        <ele>198</ele>
        <time>2018-10-12T10:30:13Z</time>
      </trkpt>
      <trkpt lat="45.98353" lon="4.7158">
        <ele>199</ele>
        <time>2018-10-12T10:30:15Z</time>
      </trkpt>
      <trkpt lat="45.98349" lon="4.71577">
        <ele>199</ele>
        <time>2018-10-12T10:30:16Z</time>
      </trkpt>
      <trkpt lat="45.98342" lon="4.71574">
        <ele>199</ele>
        <time>2018-10-12T10:30:18Z</time>
      </trkpt>
      <trkpt lat="45.98335" lon="4.7157">
        <ele>199</ele>
        <time>2018-10-12T10:30:19Z</time>
      </trkpt>
      <trkpt lat="45.98331" lon="4.71567">
        <ele>198</ele>
        <time>2018-10-12T10:30:20Z</time>
      </trkpt>
      <trkpt lat="45.98327" lon="4.71564">
        <ele>198</ele>
        <time>2018-10-12T10:30:21Z</time>
      </trkpt>
      <trkpt lat="45.98322" lon="4.71561">
        <ele>198</ele>
        <time>2018-10-12T10:30:22Z</time>
      </trkpt>
      <trkpt lat="45.98318" lon="4.71559">
        <ele>198</ele>
        <time>2018-10-12T10:30:23Z</time>
      </trkpt>
      <trkpt lat="45.9831" lon="4.71557">
        <ele>198</ele>
        <time>2018-10-12T10:30:25Z</time>
      </trkpt>
      <trkpt lat="45.98306" lon="4.71556">
        <ele>198</ele>
        <time>2018-10-12T10:30:26Z</time>
      </trkpt>
      <trkpt lat="45.983" lon="4.71552">
        <ele>198</ele>
        <time>2018-10-12T10:30:28Z</time>
      </trkpt>
      <trkpt lat="45.98296" lon="4.7155">
        <ele>198</ele>
        <time>2018-10-12T10:30:29Z</time>
      </trkpt>
      <trkpt lat="45.98288" lon="4.71547">
        <ele>198</ele>
        <time>2018-10-12T10:30:31Z</time>
      </trkpt>
      <trkpt lat="45.98284" lon="4.71544">
        <ele>198</ele>
        <time>2018-10-12T10:30:32Z</time>
      </trkpt>
      <trkpt lat="45.98279" lon="4.7154">
        <ele>198</ele>
        <time>2018-10-12T10:30:33Z</time>
      </trkpt>
      <trkpt lat="45.98275" lon="4.71537">
        <ele>197</ele>
        <time>2018-10-12T10:30:34Z</time>
      </trkpt>
      <trkpt lat="45.9827" lon="4.71534">
        <ele>197</ele>
        <time>2018-10-12T10:30:35Z</time>
      </trkpt>
      <trkpt lat="45.98265" lon="4.71531">
        <ele>197</ele>
        <time>2018-10-12T10:30:36Z</time>
      </trkpt>
      <trkpt lat="45.9826" lon="4.71528">
        <ele>197</ele>
        <time>2018-10-12T10:30:37Z</time>
      </trkpt>
      <trkpt lat="45.98256" lon="4.71526">
        <ele>197</ele>
        <time>2018-10-12T10:30:38Z</time>
      </trkpt>
      <trkpt lat="45.98251" lon="4.71522">
        <ele>197</ele>
        <time>2018-10-12T10:30:39Z</time>
      </trkpt>
      <trkpt lat="45.98247" lon="4.71518">
        <ele>196</ele>
        <time>2018-10-12T10:30:40Z</time>
      </trkpt>
      <trkpt lat="45.98243" lon="4.71514">
        <ele>196</ele>
        <time>2018-10-12T10:30:41Z</time>
      </trkpt>
      <trkpt lat="45.98238" lon="4.71512">
        <ele>196</ele>
        <time>2018-10-12T10:30:42Z</time>
      </trkpt>
      <trkpt lat="45.98234" lon="4.71509">
        <ele>196</ele>
        <time>2018-10-12T10:30:43Z</time>
      </trkpt>
      <trkpt lat="45.98229" lon="4.71506">
        <ele>196</ele>
        <time>2018-10-12T10:30:44Z</time>
      </trkpt>
      <trkpt lat="45.98224" lon="4.71503">
        <ele>196</ele>
        <time>2018-10-12T10:30:45Z</time>
      </trkpt>
      <trkpt lat="45.9822" lon="4.715">
        <ele>197</ele>
        <time>2018-10-12T10:30:46Z</time>
      </trkpt>
      <trkpt lat="45.98215" lon="4.71497">
        <ele>197</ele>
        <time>2018-10-12T10:30:47Z</time>
      </trkpt>
      <trkpt lat="45.98211" lon="4.71494">
        <ele>197</ele>
        <time>2018-10-12T10:30:48Z</time>
      </trkpt>
      <trkpt lat="45.98206" lon="4.71491">
        <ele>197</ele>
        <time>2018-10-12T10:30:49Z</time>
      </trkpt>
      <trkpt lat="45.982" lon="4.7149">
        <ele>197</ele>
        <time>2018-10-12T10:30:50Z</time>
      </trkpt>
      <trkpt lat="45.98195" lon="4.7149">
        <ele>197</ele>
        <time>2018-10-12T10:30:51Z</time>
      </trkpt>
      <trkpt lat="45.9819" lon="4.7149">
        <ele>197</ele>
        <time>2018-10-12T10:30:52Z</time>
      </trkpt>
      <trkpt lat="45.98185" lon="4.71489">
        <ele>197</ele>
        <time>2018-10-12T10:30:53Z</time>
      </trkpt>
      <trkpt lat="45.9818" lon="4.71489">
        <ele>197</ele>
        <time>2018-10-12T10:30:54Z</time>
      </trkpt>
      <trkpt lat="45.98176" lon="4.7149">
        <ele>197</ele>
        <time>2018-10-12T10:30:55Z</time>
      </trkpt>
      <trkpt lat="45.98171" lon="4.71491">
        <ele>197</ele>
        <time>2018-10-12T10:30:56Z</time>
      </trkpt>
      <trkpt lat="45.98167" lon="4.71493">
        <ele>197</ele>
        <time>2018-10-12T10:30:57Z</time>
      </trkpt>
      <trkpt lat="45.98163" lon="4.71496">
        <ele>197</ele>
        <time>2018-10-12T10:30:58Z</time>
      </trkpt>
      <trkpt lat="45.98158" lon="4.71499">
        <ele>197</ele>
        <time>2018-10-12T10:30:59Z</time>
      </trkpt>
      <trkpt lat="45.98153" lon="4.71502">
        <ele>197</ele>
        <time>2018-10-12T10:31:00Z</time>
      </trkpt>
      <trkpt lat="45.98149" lon="4.71504">
        <ele>197</ele>
        <time>2018-10-12T10:31:01Z</time>
      </trkpt>
      <trkpt lat="45.98145" lon="4.71507">
        <ele>197</ele>
        <time>2018-10-12T10:31:02Z</time>
      </trkpt>
      <trkpt lat="45.9814" lon="4.7151">
        <ele>197</ele>
        <time>2018-10-12T10:31:03Z</time>
      </trkpt>
      <trkpt lat="45.98135" lon="4.71513">
        <ele>197</ele>
        <time>2018-10-12T10:31:04Z</time>
      </trkpt>
      <trkpt lat="45.98128" lon="4.71519">
        <ele>197</ele>
        <time>2018-10-12T10:31:06Z</time>
      </trkpt>
      <trkpt lat="45.98125" lon="4.71522">
        <ele>197</ele>
        <time>2018-10-12T10:31:07Z</time>
      </trkpt>
      <trkpt lat="45.98118" lon="4.71528">
        <ele>197</ele>
        <time>2018-10-12T10:31:09Z</time>
      </trkpt>
      <trkpt lat="45.98114" lon="4.71529">
        <ele>197</ele>
        <time>2018-10-12T10:31:10Z</time>
      </trkpt>
      <trkpt lat="45.98107" lon="4.71534">
        <ele>197</ele>
        <time>2018-10-12T10:31:12Z</time>
      </trkpt>
      <trkpt lat="45.98102" lon="4.71538">
        <ele>197</ele>
        <time>2018-10-12T10:31:13Z</time>
      </trkpt>
      <trkpt lat="45.98094" lon="4.71543">
        <ele>197</ele>
        <time>2018-10-12T10:31:15Z</time>
      </trkpt>
      <trkpt lat="45.98091" lon="4.71545">
        <ele>198</ele>
        <time>2018-10-12T10:31:16Z</time>
      </trkpt>
      <trkpt lat="45.98083" lon="4.7155">
        <ele>198</ele>
        <time>2018-10-12T10:31:18Z</time>
      </trkpt>
      <trkpt lat="45.98078" lon="4.71555">
        <ele>198</ele>
        <time>2018-10-12T10:31:19Z</time>
      </trkpt>
      <trkpt lat="45.98075" lon="4.71557">
        <ele>198</ele>
        <time>2018-10-12T10:31:21Z</time>
      </trkpt>
      <trkpt lat="45.98069" lon="4.71562">
        <ele>198</ele>
        <time>2018-10-12T10:31:22Z</time>
      </trkpt>
      <trkpt lat="45.98065" lon="4.71565">
        <ele>198</ele>
        <time>2018-10-12T10:31:23Z</time>
      </trkpt>
      <trkpt lat="45.98061" lon="4.71569">
        <ele>198</ele>
        <time>2018-10-12T10:31:24Z</time>
      </trkpt>
      <trkpt lat="45.98054" lon="4.71575">
        <ele>198</ele>
        <time>2018-10-12T10:31:26Z</time>
      </trkpt>
      <trkpt lat="45.9805" lon="4.71578">
        <ele>198</ele>
        <time>2018-10-12T10:31:27Z</time>
      </trkpt>
      <trkpt lat="45.98043" lon="4.71584">
        <ele>198</ele>
        <time>2018-10-12T10:31:29Z</time>
      </trkpt>
      <trkpt lat="45.98039" lon="4.71587">
        <ele>198</ele>
        <time>2018-10-12T10:31:30Z</time>
      </trkpt>
      <trkpt lat="45.98034" lon="4.7159">
        <ele>198</ele>
        <time>2018-10-12T10:31:31Z</time>
      </trkpt>
      <trkpt lat="45.98029" lon="4.71593">
        <ele>198</ele>
        <time>2018-10-12T10:31:32Z</time>
      </trkpt>
      <trkpt lat="45.98025" lon="4.71597">
        <ele>198</ele>
        <time>2018-10-12T10:31:33Z</time>
      </trkpt>
      <trkpt lat="45.9802" lon="4.716">
        <ele>198</ele>
        <time>2018-10-12T10:31:34Z</time>
      </trkpt>
      <trkpt lat="45.98015" lon="4.71603">
        <ele>198</ele>
        <time>2018-10-12T10:31:35Z</time>
      </trkpt>
      <trkpt lat="45.98011" lon="4.71605">
        <ele>198</ele>
        <time>2018-10-12T10:31:36Z</time>
      </trkpt>
      <trkpt lat="45.98007" lon="4.71608">
        <ele>198</ele>
        <time>2018-10-12T10:31:37Z</time>
      </trkpt>
      <trkpt lat="45.98003" lon="4.71611">
        <ele>198</ele>
        <time>2018-10-12T10:31:38Z</time>
      </trkpt>
      <trkpt lat="45.97995" lon="4.71617">
        <ele>198</ele>
        <time>2018-10-12T10:31:40Z</time>
      </trkpt>
      <trkpt lat="45.97991" lon="4.7162">
        <ele>197</ele>
        <time>2018-10-12T10:31:41Z</time>
      </trkpt>
      <trkpt lat="45.97986" lon="4.71623">
        <ele>197</ele>
        <time>2018-10-12T10:31:42Z</time>
      </trkpt>
      <trkpt lat="45.97982" lon="4.71626">
        <ele>197</ele>
        <time>2018-10-12T10:31:43Z</time>
      </trkpt>
      <trkpt lat="45.97978" lon="4.7163">
        <ele>197</ele>
        <time>2018-10-12T10:31:44Z</time>
      </trkpt>
      <trkpt lat="45.97973" lon="4.71634">
        <ele>197</ele>
        <time>2018-10-12T10:31:45Z</time>
      </trkpt>
      <trkpt lat="45.97969" lon="4.71637">
        <ele>197</ele>
        <time>2018-10-12T10:31:46Z</time>
      </trkpt>
      <trkpt lat="45.97965" lon="4.7164">
        <ele>197</ele>
        <time>2018-10-12T10:31:47Z</time>
      </trkpt>
      <trkpt lat="45.9796" lon="4.71644">
        <ele>197</ele>
        <time>2018-10-12T10:31:48Z</time>
      </trkpt>
      <trkpt lat="45.97955" lon="4.71649">
        <ele>197</ele>
        <time>2018-10-12T10:31:49Z</time>
      </trkpt>
      <trkpt lat="45.97951" lon="4.71653">
        <ele>197</ele>
        <time>2018-10-12T10:31:50Z</time>
      </trkpt>
      <trkpt lat="45.97946" lon="4.71657">
        <ele>197</ele>
        <time>2018-10-12T10:31:51Z</time>
      </trkpt>
      <trkpt lat="45.97941" lon="4.71661">
        <ele>197</ele>
        <time>2018-10-12T10:31:52Z</time>
      </trkpt>
      <trkpt lat="45.97937" lon="4.71665">
        <ele>197</ele>
        <time>2018-10-12T10:31:53Z</time>
      </trkpt>
      <trkpt lat="45.97935" lon="4.71667">
        <ele>197</ele>
        <time>2018-10-12T10:31:54Z</time>
      </trkpt>
      <trkpt lat="45.97928" lon="4.71672">
        <ele>197</ele>
        <time>2018-10-12T10:31:55Z</time>
      </trkpt>
      <trkpt lat="45.97924" lon="4.71675">
        <ele>197</ele>
        <time>2018-10-12T10:31:56Z</time>
      </trkpt>
      <trkpt lat="45.9792" lon="4.71678">
        <ele>197</ele>
        <time>2018-10-12T10:31:57Z</time>
      </trkpt>
      <trkpt lat="45.97914" lon="4.71686">
        <ele>196</ele>
        <time>2018-10-12T10:31:59Z</time>
      </trkpt>
      <trkpt lat="45.9791" lon="4.71689">
        <ele>196</ele>
        <time>2018-10-12T10:32:00Z</time>
      </trkpt>
      <trkpt lat="45.97906" lon="4.71693">
        <ele>196</ele>
        <time>2018-10-12T10:32:01Z</time>
      </trkpt>
      <trkpt lat="45.97902" lon="4.71698">
        <ele>196</ele>
        <time>2018-10-12T10:32:02Z</time>
      </trkpt>
      <trkpt lat="45.97898" lon="4.71703">
        <ele>196</ele>
        <time>2018-10-12T10:32:03Z</time>
      </trkpt>
      <trkpt lat="45.97895" lon="4.71707">
        <ele>196</ele>
        <time>2018-10-12T10:32:04Z</time>
      </trkpt>
      <trkpt lat="45.97887" lon="4.71711">
        <ele>196</ele>
        <time>2018-10-12T10:32:08Z</time>
      </trkpt>
      <trkpt lat="45.97881" lon="4.7171">
        <ele>196</ele>
        <time>2018-10-12T10:32:09Z</time>
      </trkpt>
      <trkpt lat="45.97872" lon="4.7171">
        <ele>196</ele>
        <time>2018-10-12T10:32:11Z</time>
      </trkpt>
      <trkpt lat="45.97868" lon="4.71711">
        <ele>196</ele>
        <time>2018-10-12T10:32:12Z</time>
      </trkpt>
      <trkpt lat="45.97864" lon="4.71714">
        <ele>196</ele>
        <time>2018-10-12T10:32:13Z</time>
      </trkpt>
      <trkpt lat="45.97859" lon="4.71718">
        <ele>196</ele>
        <time>2018-10-12T10:32:14Z</time>
      </trkpt>
      <trkpt lat="45.97856" lon="4.71723">
        <ele>196</ele>
        <time>2018-10-12T10:32:15Z</time>
      </trkpt>
      <trkpt lat="45.97854" lon="4.71729">
        <ele>196</ele>
        <time>2018-10-12T10:32:16Z</time>
      </trkpt>
      <trkpt lat="45.97851" lon="4.71734">
        <ele>196</ele>
        <time>2018-10-12T10:32:17Z</time>
      </trkpt>
      <trkpt lat="45.97848" lon="4.71739">
        <ele>196</ele>
        <time>2018-10-12T10:32:18Z</time>
      </trkpt>
      <trkpt lat="45.9784" lon="4.71744">
        <ele>195</ele>
        <time>2018-10-12T10:32:20Z</time>
      </trkpt>
      <trkpt lat="45.97835" lon="4.71745">
        <ele>195</ele>
        <time>2018-10-12T10:32:21Z</time>
      </trkpt>
      <trkpt lat="45.97827" lon="4.71746">
        <ele>195</ele>
        <time>2018-10-12T10:32:23Z</time>
      </trkpt>
      <trkpt lat="45.97823" lon="4.71746">
        <ele>196</ele>
        <time>2018-10-12T10:32:24Z</time>
      </trkpt>
      <trkpt lat="45.97815" lon="4.71746">
        <ele>196</ele>
        <time>2018-10-12T10:32:26Z</time>
      </trkpt>
      <trkpt lat="45.9781" lon="4.71746">
        <ele>196</ele>
        <time>2018-10-12T10:32:27Z</time>
      </trkpt>
      <trkpt lat="45.97806" lon="4.71746">
        <ele>196</ele>
        <time>2018-10-12T10:32:28Z</time>
      </trkpt>
      <trkpt lat="45.97801" lon="4.71745">
        <ele>196</ele>
        <time>2018-10-12T10:32:29Z</time>
      </trkpt>
      <trkpt lat="45.97796" lon="4.71744">
        <ele>196</ele>
        <time>2018-10-12T10:32:30Z</time>
      </trkpt>
      <trkpt lat="45.97791" lon="4.71744">
        <ele>196</ele>
        <time>2018-10-12T10:32:31Z</time>
      </trkpt>
      <trkpt lat="45.97786" lon="4.71743">
        <ele>196</ele>
        <time>2018-10-12T10:32:32Z</time>
      </trkpt>
      <trkpt lat="45.97781" lon="4.71742">
        <ele>196</ele>
        <time>2018-10-12T10:32:33Z</time>
      </trkpt>
      <trkpt lat="45.97775" lon="4.71741">
        <ele>196</ele>
        <time>2018-10-12T10:32:34Z</time>
      </trkpt>
      <trkpt lat="45.97769" lon="4.71739">
        <ele>196</ele>
        <time>2018-10-12T10:32:35Z</time>
      </trkpt>
      <trkpt lat="45.97764" lon="4.71737">
        <ele>196</ele>
        <time>2018-10-12T10:32:36Z</time>
      </trkpt>
      <trkpt lat="45.97759" lon="4.71737">
        <ele>196</ele>
        <time>2018-10-12T10:32:37Z</time>
      </trkpt>
      <trkpt lat="45.97754" lon="4.71736">
        <ele>196</ele>
        <time>2018-10-12T10:32:38Z</time>
      </trkpt>
      <trkpt lat="45.97749" lon="4.71737">
        <ele>196</ele>
        <time>2018-10-12T10:32:39Z</time>
      </trkpt>
      <trkpt lat="45.97744" lon="4.71736">
        <ele>196</ele>
        <time>2018-10-12T10:32:40Z</time>
      </trkpt>
      <trkpt lat="45.97739" lon="4.71735">
        <ele>196</ele>
        <time>2018-10-12T10:32:41Z</time>
      </trkpt>
      <trkpt lat="45.97731" lon="4.71733">
        <ele>196</ele>
        <time>2018-10-12T10:32:43Z</time>
      </trkpt>
      <trkpt lat="45.97725" lon="4.71733">
        <ele>196</ele>
        <time>2018-10-12T10:32:44Z</time>
      </trkpt>
      <trkpt lat="45.9772" lon="4.71732">
        <ele>196</ele>
        <time>2018-10-12T10:32:45Z</time>
      </trkpt>
      <trkpt lat="45.97716" lon="4.71731">
        <ele>196</ele>
        <time>2018-10-12T10:32:46Z</time>
      </trkpt>
      <trkpt lat="45.97707" lon="4.71731">
        <ele>196</ele>
        <time>2018-10-12T10:32:48Z</time>
      </trkpt>
      <trkpt lat="45.97702" lon="4.71731">
        <ele>196</ele>
        <time>2018-10-12T10:32:49Z</time>
      </trkpt>
      <trkpt lat="45.97697" lon="4.71732">
        <ele>196</ele>
        <time>2018-10-12T10:32:50Z</time>
      </trkpt>
      <trkpt lat="45.97693" lon="4.71733">
        <ele>196</ele>
        <time>2018-10-12T10:32:51Z</time>
      </trkpt>
      <trkpt lat="45.97686" lon="4.71732">
        <ele>196</ele>
        <time>2018-10-12T10:32:53Z</time>
      </trkpt>
      <trkpt lat="45.9768" lon="4.71732">
        <ele>196</ele>
        <time>2018-10-12T10:32:54Z</time>
      </trkpt>
      <trkpt lat="45.97675" lon="4.71731">
        <ele>196</ele>
        <time>2018-10-12T10:32:55Z</time>
      </trkpt>
      <trkpt lat="45.9767" lon="4.71731">
        <ele>196</ele>
        <time>2018-10-12T10:32:56Z</time>
      </trkpt>
      <trkpt lat="45.97664" lon="4.71731">
        <ele>196</ele>
        <time>2018-10-12T10:32:57Z</time>
      </trkpt>
      <trkpt lat="45.97658" lon="4.7173">
        <ele>196</ele>
        <time>2018-10-12T10:32:58Z</time>
      </trkpt>
      <trkpt lat="45.97653" lon="4.71729">
        <ele>196</ele>
        <time>2018-10-12T10:32:59Z</time>
      </trkpt>
      <trkpt lat="45.97649" lon="4.71729">
        <ele>196</ele>
        <time>2018-10-12T10:33:00Z</time>
      </trkpt>
      <trkpt lat="45.97642" lon="4.71727">
        <ele>196</ele>
        <time>2018-10-12T10:33:02Z</time>
      </trkpt>
      <trkpt lat="45.97637" lon="4.71725">
        <ele>196</ele>
        <time>2018-10-12T10:33:03Z</time>
      </trkpt>
      <trkpt lat="45.97632" lon="4.7172">
        <ele>197</ele>
        <time>2018-10-12T10:33:05Z</time>
      </trkpt>
      <trkpt lat="45.97628" lon="4.71718">
        <ele>197</ele>
        <time>2018-10-12T10:33:06Z</time>
      </trkpt>
      <trkpt lat="45.97622" lon="4.71712">
        <ele>197</ele>
        <time>2018-10-12T10:33:08Z</time>
      </trkpt>
      <trkpt lat="45.97619" lon="4.7171">
        <ele>197</ele>
        <time>2018-10-12T10:33:09Z</time>
      </trkpt>
      <trkpt lat="45.9761" lon="4.71712">
        <ele>197</ele>
        <time>2018-10-12T10:33:11Z</time>
      </trkpt>
      <trkpt lat="45.97606" lon="4.71715">
        <ele>197</ele>
        <time>2018-10-12T10:33:12Z</time>
      </trkpt>
      <trkpt lat="45.97602" lon="4.71719">
        <ele>197</ele>
        <time>2018-10-12T10:33:13Z</time>
      </trkpt>
      <trkpt lat="45.97598" lon="4.71723">
        <ele>197</ele>
        <time>2018-10-12T10:33:14Z</time>
      </trkpt>
      <trkpt lat="45.97593" lon="4.71725">
        <ele>196</ele>
        <time>2018-10-12T10:33:15Z</time>
      </trkpt>
      <trkpt lat="45.97588" lon="4.71725">
        <ele>196</ele>
        <time>2018-10-12T10:33:16Z</time>
      </trkpt>
      <trkpt lat="45.97583" lon="4.71725">
        <ele>196</ele>
        <time>2018-10-12T10:33:17Z</time>
      </trkpt>
      <trkpt lat="45.97578" lon="4.71724">
        <ele>197</ele>
        <time>2018-10-12T10:33:18Z</time>
      </trkpt>
      <trkpt lat="45.97574" lon="4.71724">
        <ele>197</ele>
        <time>2018-10-12T10:33:19Z</time>
      </trkpt>
      <trkpt lat="45.97569" lon="4.71723">
        <ele>198</ele>
        <time>2018-10-12T10:33:20Z</time>
      </trkpt>
      <trkpt lat="45.97564" lon="4.71723">
        <ele>198</ele>
        <time>2018-10-12T10:33:21Z</time>
      </trkpt>
      <trkpt lat="45.97559" lon="4.71723">
        <ele>198</ele>
        <time>2018-10-12T10:33:22Z</time>
      </trkpt>
      <trkpt lat="45.97551" lon="4.71723">
        <ele>198</ele>
        <time>2018-10-12T10:33:24Z</time>
      </trkpt>
      <trkpt lat="45.97547" lon="4.71722">
        <ele>198</ele>
        <time>2018-10-12T10:33:25Z</time>
      </trkpt>
      <trkpt lat="45.97542" lon="4.71722">
        <ele>198</ele>
        <time>2018-10-12T10:33:26Z</time>
      </trkpt>
      <trkpt lat="45.97536" lon="4.71722">
        <ele>198</ele>
        <time>2018-10-12T10:33:27Z</time>
      </trkpt>
      <trkpt lat="45.97531" lon="4.71721">
        <ele>198</ele>
        <time>2018-10-12T10:33:28Z</time>
      </trkpt>
      <trkpt lat="45.97525" lon="4.71721">
        <ele>198</ele>
        <time>2018-10-12T10:33:29Z</time>
      </trkpt>
      <trkpt lat="45.97516" lon="4.71721">
        <ele>198</ele>
        <time>2018-10-12T10:33:31Z</time>
      </trkpt>
      <trkpt lat="45.97512" lon="4.71721">
        <ele>198</ele>
        <time>2018-10-12T10:33:32Z</time>
      </trkpt>
      <trkpt lat="45.97506" lon="4.7172">
        <ele>198</ele>
        <time>2018-10-12T10:33:34Z</time>
      </trkpt>
      <trkpt lat="45.97501" lon="4.71721">
        <ele>198</ele>
        <time>2018-10-12T10:33:35Z</time>
      </trkpt>
      <trkpt lat="45.97493" lon="4.7172">
        <ele>197</ele>
        <time>2018-10-12T10:33:37Z</time>
      </trkpt>
      <trkpt lat="45.97489" lon="4.71719">
        <ele>197</ele>
        <time>2018-10-12T10:33:38Z</time>
      </trkpt>
      <trkpt lat="45.97484" lon="4.71719">
        <ele>197</ele>
        <time>2018-10-12T10:33:39Z</time>
      </trkpt>
      <trkpt lat="45.97479" lon="4.71719">
        <ele>197</ele>
        <time>2018-10-12T10:33:40Z</time>
      </trkpt>
      <trkpt lat="45.97475" lon="4.71718">
        <ele>197</ele>
        <time>2018-10-12T10:33:41Z</time>
      </trkpt>
      <trkpt lat="45.9747" lon="4.71718">
        <ele>197</ele>
        <time>2018-10-12T10:33:42Z</time>
      </trkpt>
      <trkpt lat="45.97462" lon="4.71716">
        <ele>197</ele>
        <time>2018-10-12T10:33:44Z</time>
      </trkpt>
      <trkpt lat="45.97458" lon="4.71715">
        <ele>197</ele>
        <time>2018-10-12T10:33:45Z</time>
      </trkpt>
      <trkpt lat="45.97452" lon="4.71716">
        <ele>197</ele>
        <time>2018-10-12T10:33:46Z</time>
      </trkpt>
      <trkpt lat="45.97448" lon="4.71716">
        <ele>197</ele>
        <time>2018-10-12T10:33:47Z</time>
      </trkpt>
      <trkpt lat="45.97443" lon="4.71715">
        <ele>197</ele>
        <time>2018-10-12T10:33:48Z</time>
      </trkpt>
      <trkpt lat="45.97438" lon="4.71715">
        <ele>196</ele>
        <time>2018-10-12T10:33:49Z</time>
      </trkpt>
      <trkpt lat="45.97434" lon="4.71714">
        <ele>196</ele>
        <time>2018-10-12T10:33:50Z</time>
      </trkpt>
      <trkpt lat="45.97429" lon="4.71714">
        <ele>196</ele>
        <time>2018-10-12T10:33:51Z</time>
      </trkpt>
      <trkpt lat="45.97424" lon="4.71714">
        <ele>196</ele>
        <time>2018-10-12T10:33:52Z</time>
      </trkpt>
      <trkpt lat="45.9742" lon="4.71713">
        <ele>196</ele>
        <time>2018-10-12T10:33:53Z</time>
      </trkpt>
      <trkpt lat="45.97415" lon="4.71713">
        <ele>195</ele>
        <time>2018-10-12T10:33:54Z</time>
      </trkpt>
      <trkpt lat="45.9741" lon="4.71713">
        <ele>195</ele>
        <time>2018-10-12T10:33:55Z</time>
      </trkpt>
      <trkpt lat="45.97406" lon="4.71712">
        <ele>195</ele>
        <time>2018-10-12T10:33:56Z</time>
      </trkpt>
      <trkpt lat="45.97401" lon="4.71711">
        <ele>195</ele>
        <time>2018-10-12T10:33:57Z</time>
      </trkpt>
      <trkpt lat="45.97393" lon="4.7171">
        <ele>195</ele>
        <time>2018-10-12T10:33:59Z</time>
      </trkpt>
      <trkpt lat="45.97389" lon="4.71711">
        <ele>195</ele>
        <time>2018-10-12T10:34:00Z</time>
      </trkpt>
      <trkpt lat="45.97381" lon="4.7171">
        <ele>195</ele>
        <time>2018-10-12T10:34:02Z</time>
      </trkpt>
      <trkpt lat="45.97377" lon="4.71712">
        <ele>195</ele>
        <time>2018-10-12T10:34:03Z</time>
      </trkpt>
      <trkpt lat="45.97369" lon="4.71711">
        <ele>195</ele>
        <time>2018-10-12T10:34:05Z</time>
      </trkpt>
      <trkpt lat="45.97364" lon="4.71711">
        <ele>195</ele>
        <time>2018-10-12T10:34:06Z</time>
      </trkpt>
      <trkpt lat="45.97359" lon="4.71711">
        <ele>195</ele>
        <time>2018-10-12T10:34:07Z</time>
      </trkpt>
      <trkpt lat="45.97353" lon="4.7171">
        <ele>195</ele>
        <time>2018-10-12T10:34:08Z</time>
      </trkpt>
      <trkpt lat="45.97348" lon="4.7171">
        <ele>195</ele>
        <time>2018-10-12T10:34:09Z</time>
      </trkpt>
      <trkpt lat="45.97344" lon="4.71709">
        <ele>195</ele>
        <time>2018-10-12T10:34:10Z</time>
      </trkpt>
      <trkpt lat="45.97335" lon="4.71708">
        <ele>195</ele>
        <time>2018-10-12T10:34:12Z</time>
      </trkpt>
      <trkpt lat="45.9733" lon="4.71707">
        <ele>196</ele>
        <time>2018-10-12T10:34:13Z</time>
      </trkpt>
      <trkpt lat="45.97322" lon="4.71703">
        <ele>196</ele>
        <time>2018-10-12T10:34:15Z</time>
      </trkpt>
      <trkpt lat="45.97319" lon="4.717">
        <ele>196</ele>
        <time>2018-10-12T10:34:16Z</time>
      </trkpt>
      <trkpt lat="45.97315" lon="4.71697">
        <ele>196</ele>
        <time>2018-10-12T10:34:17Z</time>
      </trkpt>
      <trkpt lat="45.9731" lon="4.71694">
        <ele>196</ele>
        <time>2018-10-12T10:34:18Z</time>
      </trkpt>
      <trkpt lat="45.97306" lon="4.71693">
        <ele>196</ele>
        <time>2018-10-12T10:34:19Z</time>
      </trkpt>
      <trkpt lat="45.97301" lon="4.71694">
        <ele>196</ele>
        <time>2018-10-12T10:34:20Z</time>
      </trkpt>
      <trkpt lat="45.97296" lon="4.71696">
        <ele>196</ele>
        <time>2018-10-12T10:34:21Z</time>
      </trkpt>
      <trkpt lat="45.97291" lon="4.71699">
        <ele>196</ele>
        <time>2018-10-12T10:34:22Z</time>
      </trkpt>
      <trkpt lat="45.97287" lon="4.71701">
        <ele>196</ele>
        <time>2018-10-12T10:34:23Z</time>
      </trkpt>
      <trkpt lat="45.97282" lon="4.71703">
        <ele>196</ele>
        <time>2018-10-12T10:34:24Z</time>
      </trkpt>
      <trkpt lat="45.97273" lon="4.71703">
        <ele>197</ele>
        <time>2018-10-12T10:34:26Z</time>
      </trkpt>
      <trkpt lat="45.97269" lon="4.71702">
        <ele>197</ele>
        <time>2018-10-12T10:34:27Z</time>
      </trkpt>
      <trkpt lat="45.97261" lon="4.71702">
        <ele>197</ele>
        <time>2018-10-12T10:34:29Z</time>
      </trkpt>
      <trkpt lat="45.97256" lon="4.71701">
        <ele>197</ele>
        <time>2018-10-12T10:34:30Z</time>
      </trkpt>
      <trkpt lat="45.97251" lon="4.717">
        <ele>197</ele>
        <time>2018-10-12T10:34:31Z</time>
      </trkpt>
      <trkpt lat="45.97246" lon="4.71699">
        <ele>197</ele>
        <time>2018-10-12T10:34:32Z</time>
      </trkpt>
      <trkpt lat="45.9724" lon="4.71699">
        <ele>197</ele>
        <time>2018-10-12T10:34:33Z</time>
      </trkpt>
      <trkpt lat="45.97234" lon="4.71698">
        <ele>197</ele>
        <time>2018-10-12T10:34:34Z</time>
      </trkpt>
      <trkpt lat="45.97229" lon="4.71697">
        <ele>197</ele>
        <time>2018-10-12T10:34:35Z</time>
      </trkpt>
      <trkpt lat="45.97225" lon="4.71697">
        <ele>197</ele>
        <time>2018-10-12T10:34:36Z</time>
      </trkpt>
      <trkpt lat="45.9722" lon="4.71696">
        <ele>197</ele>
        <time>2018-10-12T10:34:37Z</time>
      </trkpt>
      <trkpt lat="45.97215" lon="4.71695">
        <ele>197</ele>
        <time>2018-10-12T10:34:38Z</time>
      </trkpt>
      <trkpt lat="45.97209" lon="4.71694">
        <ele>197</ele>
        <time>2018-10-12T10:34:40Z</time>
      </trkpt>
      <trkpt lat="45.97202" lon="4.71693">
        <ele>197</ele>
        <time>2018-10-12T10:34:41Z</time>
      </trkpt>
      <trkpt lat="45.97194" lon="4.71693">
        <ele>197</ele>
        <time>2018-10-12T10:34:43Z</time>
      </trkpt>
      <trkpt lat="45.97191" lon="4.71693">
        <ele>197</ele>
        <time>2018-10-12T10:34:44Z</time>
      </trkpt>
      <trkpt lat="45.97182" lon="4.71692">
        <ele>197</ele>
        <time>2018-10-12T10:34:46Z</time>
      </trkpt>
      <trkpt lat="45.97178" lon="4.71692">
        <ele>197</ele>
        <time>2018-10-12T10:34:47Z</time>
      </trkpt>
      <trkpt lat="45.97173" lon="4.71693">
        <ele>197</ele>
        <time>2018-10-12T10:34:48Z</time>
      </trkpt>
      <trkpt lat="45.97168" lon="4.71692">
        <ele>197</ele>
        <time>2018-10-12T10:34:49Z</time>
      </trkpt>
      <trkpt lat="45.97159" lon="4.7169">
        <ele>195</ele>
        <time>2018-10-12T10:34:51Z</time>
      </trkpt>
      <trkpt lat="45.97154" lon="4.7169">
        <ele>195</ele>
        <time>2018-10-12T10:34:52Z</time>
      </trkpt>
      <trkpt lat="45.97145" lon="4.71688">
        <ele>195</ele>
        <time>2018-10-12T10:34:54Z</time>
      </trkpt>
      <trkpt lat="45.97141" lon="4.71688">
        <ele>195</ele>
        <time>2018-10-12T10:34:55Z</time>
      </trkpt>
      <trkpt lat="45.97133" lon="4.71688">
        <ele>195</ele>
        <time>2018-10-12T10:34:57Z</time>
      </trkpt>
      <trkpt lat="45.97128" lon="4.71689">
        <ele>195</ele>
        <time>2018-10-12T10:34:58Z</time>
      </trkpt>
      <trkpt lat="45.97119" lon="4.7169">
        <ele>194</ele>
        <time>2018-10-12T10:35:00Z</time>
      </trkpt>
      <trkpt lat="45.97115" lon="4.71689">
        <ele>194</ele>
        <time>2018-10-12T10:35:01Z</time>
      </trkpt>
      <trkpt lat="45.97111" lon="4.71688">
        <ele>194</ele>
        <time>2018-10-12T10:35:02Z</time>
      </trkpt>
      <trkpt lat="45.97106" lon="4.71688">
        <ele>194</ele>
        <time>2018-10-12T10:35:03Z</time>
      </trkpt>
      <trkpt lat="45.97101" lon="4.71688">
        <ele>194</ele>
        <time>2018-10-12T10:35:04Z</time>
      </trkpt>
      <trkpt lat="45.97097" lon="4.71687">
        <ele>194</ele>
        <time>2018-10-12T10:35:05Z</time>
      </trkpt>
      <trkpt lat="45.97092" lon="4.71687">
        <ele>194</ele>
        <time>2018-10-12T10:35:06Z</time>
      </trkpt>
      <trkpt lat="45.97087" lon="4.71686">
        <ele>194</ele>
        <time>2018-10-12T10:35:07Z</time>
      </trkpt>
      <trkpt lat="45.97082" lon="4.71685">
        <ele>193</ele>
        <time>2018-10-12T10:35:08Z</time>
      </trkpt>
      <trkpt lat="45.97077" lon="4.71684">
        <ele>193</ele>
        <time>2018-10-12T10:35:09Z</time>
      </trkpt>
      <trkpt lat="45.97069" lon="4.71683">
        <ele>193</ele>
        <time>2018-10-12T10:35:11Z</time>
      </trkpt>
      <trkpt lat="45.97064" lon="4.71682">
        <ele>193</ele>
        <time>2018-10-12T10:35:12Z</time>
      </trkpt>
      <trkpt lat="45.97056" lon="4.7168">
        <ele>193</ele>
        <time>2018-10-12T10:35:14Z</time>
      </trkpt>
      <trkpt lat="45.97052" lon="4.7168">
        <ele>193</ele>
        <time>2018-10-12T10:35:15Z</time>
      </trkpt>
      <trkpt lat="45.97044" lon="4.71681">
        <ele>193</ele>
        <time>2018-10-12T10:35:17Z</time>
      </trkpt>
      <trkpt lat="45.97039" lon="4.7168">
        <ele>193</ele>
        <time>2018-10-12T10:35:18Z</time>
      </trkpt>
      <trkpt lat="45.9703" lon="4.71678">
        <ele>193</ele>
        <time>2018-10-12T10:35:20Z</time>
      </trkpt>
      <trkpt lat="45.97026" lon="4.71678">
        <ele>193</ele>
        <time>2018-10-12T10:35:21Z</time>
      </trkpt>
      <trkpt lat="45.97017" lon="4.71678">
        <ele>193</ele>
        <time>2018-10-12T10:35:23Z</time>
      </trkpt>
      <trkpt lat="45.97013" lon="4.71677">
        <ele>193</ele>
        <time>2018-10-12T10:35:24Z</time>
      </trkpt>
      <trkpt lat="45.97008" lon="4.71677">
        <ele>193</ele>
        <time>2018-10-12T10:35:25Z</time>
      </trkpt>
      <trkpt lat="45.97003" lon="4.71676">
        <ele>193</ele>
        <time>2018-10-12T10:35:26Z</time>
      </trkpt>
      <trkpt lat="45.96996" lon="4.71674">
        <ele>193</ele>
        <time>2018-10-12T10:35:28Z</time>
      </trkpt>
      <trkpt lat="45.96991" lon="4.71675">
        <ele>193</ele>
        <time>2018-10-12T10:35:29Z</time>
      </trkpt>
      <trkpt lat="45.96986" lon="4.71674">
        <ele>193</ele>
        <time>2018-10-12T10:35:30Z</time>
      </trkpt>
      <trkpt lat="45.96981" lon="4.71674">
        <ele>192</ele>
        <time>2018-10-12T10:35:31Z</time>
      </trkpt>
      <trkpt lat="45.96976" lon="4.71675">
        <ele>192</ele>
        <time>2018-10-12T10:35:32Z</time>
      </trkpt>
      <trkpt lat="45.96971" lon="4.71676">
        <ele>192</ele>
        <time>2018-10-12T10:35:33Z</time>
      </trkpt>
      <trkpt lat="45.96965" lon="4.71675">
        <ele>192</ele>
        <time>2018-10-12T10:35:34Z</time>
      </trkpt>
      <trkpt lat="45.9696" lon="4.71674">
        <ele>192</ele>
        <time>2018-10-12T10:35:35Z</time>
      </trkpt>
      <trkpt lat="45.96955" lon="4.71673">
        <ele>192</ele>
        <time>2018-10-12T10:35:36Z</time>
      </trkpt>
      <trkpt lat="45.9695" lon="4.71673">
        <ele>192</ele>
        <time>2018-10-12T10:35:37Z</time>
      </trkpt>
      <trkpt lat="45.96944" lon="4.71672">
        <ele>192</ele>
        <time>2018-10-12T10:35:38Z</time>
      </trkpt>
      <trkpt lat="45.96938" lon="4.71672">
        <ele>193</ele>
        <time>2018-10-12T10:35:39Z</time>
      </trkpt>
      <trkpt lat="45.96933" lon="4.71671">
        <ele>193</ele>
        <time>2018-10-12T10:35:40Z</time>
      </trkpt>
      <trkpt lat="45.96927" lon="4.7167">
        <ele>193</ele>
        <time>2018-10-12T10:35:41Z</time>
      </trkpt>
      <trkpt lat="45.96921" lon="4.71669">
        <ele>194</ele>
        <time>2018-10-12T10:35:42Z</time>
      </trkpt>
      <trkpt lat="45.96916" lon="4.71668">
        <ele>195</ele>
        <time>2018-10-12T10:35:43Z</time>
      </trkpt>
      <trkpt lat="45.96911" lon="4.71668">
        <ele>194</ele>
        <time>2018-10-12T10:35:44Z</time>
      </trkpt>
      <trkpt lat="45.96906" lon="4.71668">
        <ele>193</ele>
        <time>2018-10-12T10:35:45Z</time>
      </trkpt>
      <trkpt lat="45.96901" lon="4.71667">
        <ele>192</ele>
        <time>2018-10-12T10:35:46Z</time>
      </trkpt>
      <trkpt lat="45.96896" lon="4.71667">
        <ele>192</ele>
        <time>2018-10-12T10:35:47Z</time>
      </trkpt>
      <trkpt lat="45.96892" lon="4.71666">
        <ele>195</ele>
        <time>2018-10-12T10:35:48Z</time>
      </trkpt>
      <trkpt lat="45.96887" lon="4.71665">
        <ele>195</ele>
        <time>2018-10-12T10:35:49Z</time>
      </trkpt>
      <trkpt lat="45.96879" lon="4.71663">
        <ele>195</ele>
        <time>2018-10-12T10:35:51Z</time>
      </trkpt>
      <trkpt lat="45.96874" lon="4.71662">
        <ele>195</ele>
        <time>2018-10-12T10:35:52Z</time>
      </trkpt>
      <trkpt lat="45.96865" lon="4.71661">
        <ele>195</ele>
        <time>2018-10-12T10:35:54Z</time>
      </trkpt>
      <trkpt lat="45.9686" lon="4.71662">
        <ele>194</ele>
        <time>2018-10-12T10:35:55Z</time>
      </trkpt>
      <trkpt lat="45.96855" lon="4.71662">
        <ele>194</ele>
        <time>2018-10-12T10:35:56Z</time>
      </trkpt>
      <trkpt lat="45.96849" lon="4.71661">
        <ele>194</ele>
        <time>2018-10-12T10:35:57Z</time>
      </trkpt>
      <trkpt lat="45.96843" lon="4.71661">
        <ele>193</ele>
        <time>2018-10-12T10:35:58Z</time>
      </trkpt>
      <trkpt lat="45.96837" lon="4.7166">
        <ele>193</ele>
        <time>2018-10-12T10:35:59Z</time>
      </trkpt>
      <trkpt lat="45.96832" lon="4.71659">
        <ele>192</ele>
        <time>2018-10-12T10:36:00Z</time>
      </trkpt>
      <trkpt lat="45.96827" lon="4.71658">
        <ele>192</ele>
        <time>2018-10-12T10:36:01Z</time>
      </trkpt>
      <trkpt lat="45.96822" lon="4.71657">
        <ele>193</ele>
        <time>2018-10-12T10:36:02Z</time>
      </trkpt>
      <trkpt lat="45.96817" lon="4.71658">
        <ele>193</ele>
        <time>2018-10-12T10:36:03Z</time>
      </trkpt>
      <trkpt lat="45.96811" lon="4.71657">
        <ele>193</ele>
        <time>2018-10-12T10:36:04Z</time>
      </trkpt>
      <trkpt lat="45.96804" lon="4.71656">
        <ele>193</ele>
        <time>2018-10-12T10:36:05Z</time>
      </trkpt>
      <trkpt lat="45.96798" lon="4.71655">
        <ele>193</ele>
        <time>2018-10-12T10:36:06Z</time>
      </trkpt>
      <trkpt lat="45.96792" lon="4.71654">
        <ele>192</ele>
        <time>2018-10-12T10:36:07Z</time>
      </trkpt>
      <trkpt lat="45.96787" lon="4.71654">
        <ele>192</ele>
        <time>2018-10-12T10:36:08Z</time>
      </trkpt>
      <trkpt lat="45.96781" lon="4.71652">
        <ele>192</ele>
        <time>2018-10-12T10:36:09Z</time>
      </trkpt>
      <trkpt lat="45.96776" lon="4.71651">
        <ele>192</ele>
        <time>2018-10-12T10:36:10Z</time>
      </trkpt>
      <trkpt lat="45.96772" lon="4.7165">
        <ele>192</ele>
        <time>2018-10-12T10:36:11Z</time>
      </trkpt>
      <trkpt lat="45.96767" lon="4.71651">
        <ele>192</ele>
        <time>2018-10-12T10:36:12Z</time>
      </trkpt>
      <trkpt lat="45.96762" lon="4.7165">
        <ele>191</ele>
        <time>2018-10-12T10:36:13Z</time>
      </trkpt>
      <trkpt lat="45.96757" lon="4.71649">
        <ele>191</ele>
        <time>2018-10-12T10:36:14Z</time>
      </trkpt>
      <trkpt lat="45.96752" lon="4.71648">
        <ele>191</ele>
        <time>2018-10-12T10:36:15Z</time>
      </trkpt>
      <trkpt lat="45.96747" lon="4.71647">
        <ele>190</ele>
        <time>2018-10-12T10:36:16Z</time>
      </trkpt>
      <trkpt lat="45.96742" lon="4.71646">
        <ele>190</ele>
        <time>2018-10-12T10:36:17Z</time>
      </trkpt>
      <trkpt lat="45.96738" lon="4.71646">
        <ele>190</ele>
        <time>2018-10-12T10:36:18Z</time>
      </trkpt>
      <trkpt lat="45.96733" lon="4.71645">
        <ele>190</ele>
        <time>2018-10-12T10:36:19Z</time>
      </trkpt>
      <trkpt lat="45.96728" lon="4.71644">
        <ele>190</ele>
        <time>2018-10-12T10:36:20Z</time>
      </trkpt>
      <trkpt lat="45.96723" lon="4.71642">
        <ele>190</ele>
        <time>2018-10-12T10:36:21Z</time>
      </trkpt>
      <trkpt lat="45.96718" lon="4.71642">
        <ele>190</ele>
        <time>2018-10-12T10:36:22Z</time>
      </trkpt>
      <trkpt lat="45.96713" lon="4.71642">
        <ele>190</ele>
        <time>2018-10-12T10:36:23Z</time>
      </trkpt>
      <trkpt lat="45.96708" lon="4.71641">
        <ele>190</ele>
        <time>2018-10-12T10:36:24Z</time>
      </trkpt>
      <trkpt lat="45.96702" lon="4.7164">
        <ele>190</ele>
        <time>2018-10-12T10:36:25Z</time>
      </trkpt>
      <trkpt lat="45.96697" lon="4.71639">
        <ele>190</ele>
        <time>2018-10-12T10:36:26Z</time>
      </trkpt>
      <trkpt lat="45.96692" lon="4.71637">
        <ele>190</ele>
        <time>2018-10-12T10:36:27Z</time>
      </trkpt>
      <trkpt lat="45.96687" lon="4.71635">
        <ele>190</ele>
        <time>2018-10-12T10:36:28Z</time>
      </trkpt>
      <trkpt lat="45.96682" lon="4.71635">
        <ele>190</ele>
        <time>2018-10-12T10:36:29Z</time>
      </trkpt>
      <trkpt lat="45.96674" lon="4.71634">
        <ele>190</ele>
        <time>2018-10-12T10:36:31Z</time>
      </trkpt>
      <trkpt lat="45.96668" lon="4.71633">
        <ele>190</ele>
        <time>2018-10-12T10:36:32Z</time>
      </trkpt>
      <trkpt lat="45.96663" lon="4.71632">
        <ele>188</ele>
        <time>2018-10-12T10:36:33Z</time>
      </trkpt>
      <trkpt lat="45.96658" lon="4.71631">
        <ele>188</ele>
        <time>2018-10-12T10:36:34Z</time>
      </trkpt>
      <trkpt lat="45.96653" lon="4.71632">
        <ele>188</ele>
        <time>2018-10-12T10:36:35Z</time>
      </trkpt>
      <trkpt lat="45.96648" lon="4.71631">
        <ele>188</ele>
        <time>2018-10-12T10:36:36Z</time>
      </trkpt>
      <trkpt lat="45.96644" lon="4.71631">
        <ele>188</ele>
        <time>2018-10-12T10:36:37Z</time>
      </trkpt>
      <trkpt lat="45.96639" lon="4.7163">
        <ele>188</ele>
        <time>2018-10-12T10:36:38Z</time>
      </trkpt>
      <trkpt lat="45.96634" lon="4.71629">
        <ele>188</ele>
        <time>2018-10-12T10:36:39Z</time>
      </trkpt>
      <trkpt lat="45.96629" lon="4.71628">
        <ele>188</ele>
        <time>2018-10-12T10:36:40Z</time>
      </trkpt>
      <trkpt lat="45.96624" lon="4.71628">
        <ele>188</ele>
        <time>2018-10-12T10:36:41Z</time>
      </trkpt>
      <trkpt lat="45.96619" lon="4.71627">
        <ele>188</ele>
        <time>2018-10-12T10:36:42Z</time>
      </trkpt>
      <trkpt lat="45.96614" lon="4.71626">
        <ele>187</ele>
        <time>2018-10-12T10:36:43Z</time>
      </trkpt>
      <trkpt lat="45.9661" lon="4.71625">
        <ele>187</ele>
        <time>2018-10-12T10:36:44Z</time>
      </trkpt>
      <trkpt lat="45.96605" lon="4.71623">
        <ele>187</ele>
        <time>2018-10-12T10:36:45Z</time>
      </trkpt>
      <trkpt lat="45.966" lon="4.71623">
        <ele>187</ele>
        <time>2018-10-12T10:36:46Z</time>
      </trkpt>
      <trkpt lat="45.96595" lon="4.71622">
        <ele>187</ele>
        <time>2018-10-12T10:36:47Z</time>
      </trkpt>
      <trkpt lat="45.96589" lon="4.71621">
        <ele>187</ele>
        <time>2018-10-12T10:36:48Z</time>
      </trkpt>
      <trkpt lat="45.96584" lon="4.7162">
        <ele>187</ele>
        <time>2018-10-12T10:36:49Z</time>
      </trkpt>
      <trkpt lat="45.96578" lon="4.71619">
        <ele>185</ele>
        <time>2018-10-12T10:36:50Z</time>
      </trkpt>
      <trkpt lat="45.96572" lon="4.71618">
        <ele>185</ele>
        <time>2018-10-12T10:36:51Z</time>
      </trkpt>
      <trkpt lat="45.96566" lon="4.71617">
        <ele>185</ele>
        <time>2018-10-12T10:36:52Z</time>
      </trkpt>
      <trkpt lat="45.96562" lon="4.71617">
        <ele>185</ele>
        <time>2018-10-12T10:36:53Z</time>
      </trkpt>
      <trkpt lat="45.96556" lon="4.71615">
        <ele>185</ele>
        <time>2018-10-12T10:36:54Z</time>
      </trkpt>
      <trkpt lat="45.96551" lon="4.71612">
        <ele>185</ele>
        <time>2018-10-12T10:36:55Z</time>
      </trkpt>
      <trkpt lat="45.96547" lon="4.71609">
        <ele>185</ele>
        <time>2018-10-12T10:36:56Z</time>
      </trkpt>
      <trkpt lat="45.96543" lon="4.71604">
        <ele>185</ele>
        <time>2018-10-12T10:36:57Z</time>
      </trkpt>
      <trkpt lat="45.9654" lon="4.716">
        <ele>185</ele>
        <time>2018-10-12T10:36:58Z</time>
      </trkpt>
      <trkpt lat="45.96536" lon="4.71599">
        <ele>185</ele>
        <time>2018-10-12T10:36:59Z</time>
      </trkpt>
      <trkpt lat="45.96529" lon="4.71596">
        <ele>185</ele>
        <time>2018-10-12T10:37:00Z</time>
      </trkpt>
      <trkpt lat="45.96523" lon="4.71597">
        <ele>185</ele>
        <time>2018-10-12T10:37:01Z</time>
      </trkpt>
      <trkpt lat="45.96519" lon="4.71599">
        <ele>185</ele>
        <time>2018-10-12T10:37:02Z</time>
      </trkpt>
      <trkpt lat="45.96515" lon="4.71602">
        <ele>185</ele>
        <time>2018-10-12T10:37:03Z</time>
      </trkpt>
      <trkpt lat="45.9651" lon="4.71604">
        <ele>184</ele>
        <time>2018-10-12T10:37:04Z</time>
      </trkpt>
      <trkpt lat="45.96505" lon="4.71604">
        <ele>184</ele>
        <time>2018-10-12T10:37:05Z</time>
      </trkpt>
      <trkpt lat="45.965" lon="4.71605">
        <ele>183</ele>
        <time>2018-10-12T10:37:06Z</time>
      </trkpt>
      <trkpt lat="45.96492" lon="4.71602">
        <ele>184</ele>
        <time>2018-10-12T10:37:08Z</time>
      </trkpt>
      <trkpt lat="45.96488" lon="4.71601">
        <ele>184</ele>
        <time>2018-10-12T10:37:09Z</time>
      </trkpt>
      <trkpt lat="45.96482" lon="4.71601">
        <ele>183</ele>
        <time>2018-10-12T10:37:10Z</time>
      </trkpt>
      <trkpt lat="45.96478" lon="4.71602">
        <ele>183</ele>
        <time>2018-10-12T10:37:11Z</time>
      </trkpt>
      <trkpt lat="45.96472" lon="4.71601">
        <ele>183</ele>
        <time>2018-10-12T10:37:12Z</time>
      </trkpt>
      <trkpt lat="45.96467" lon="4.71601">
        <ele>183</ele>
        <time>2018-10-12T10:37:13Z</time>
      </trkpt>
      <trkpt lat="45.96461" lon="4.716">
        <ele>183</ele>
        <time>2018-10-12T10:37:14Z</time>
      </trkpt>
      <trkpt lat="45.96455" lon="4.71599">
        <ele>183</ele>
        <time>2018-10-12T10:37:15Z</time>
      </trkpt>
      <trkpt lat="45.9645" lon="4.71599">
        <ele>183</ele>
        <time>2018-10-12T10:37:16Z</time>
      </trkpt>
      <trkpt lat="45.96445" lon="4.71598">
        <ele>183</ele>
        <time>2018-10-12T10:37:17Z</time>
      </trkpt>
      <trkpt lat="45.9644" lon="4.71598">
        <ele>183</ele>
        <time>2018-10-12T10:37:18Z</time>
      </trkpt>
      <trkpt lat="45.96435" lon="4.71597">
        <ele>184</ele>
        <time>2018-10-12T10:37:19Z</time>
      </trkpt>
      <trkpt lat="45.96426" lon="4.71595">
        <ele>184</ele>
        <time>2018-10-12T10:37:21Z</time>
      </trkpt>
      <trkpt lat="45.96422" lon="4.71595">
        <ele>184</ele>
        <time>2018-10-12T10:37:22Z</time>
      </trkpt>
      <trkpt lat="45.96413" lon="4.71594">
        <ele>184</ele>
        <time>2018-10-12T10:37:24Z</time>
      </trkpt>
      <trkpt lat="45.96407" lon="4.71595">
        <ele>183</ele>
        <time>2018-10-12T10:37:25Z</time>
      </trkpt>
      <trkpt lat="45.96403" lon="4.71594">
        <ele>183</ele>
        <time>2018-10-12T10:37:26Z</time>
      </trkpt>
      <trkpt lat="45.96398" lon="4.71594">
        <ele>183</ele>
        <time>2018-10-12T10:37:27Z</time>
      </trkpt>
      <trkpt lat="45.96393" lon="4.71594">
        <ele>183</ele>
        <time>2018-10-12T10:37:28Z</time>
      </trkpt>
      <trkpt lat="45.96388" lon="4.71593">
        <ele>183</ele>
        <time>2018-10-12T10:37:29Z</time>
      </trkpt>
      <trkpt lat="45.96383" lon="4.71592">
        <ele>183</ele>
        <time>2018-10-12T10:37:30Z</time>
      </trkpt>
      <trkpt lat="45.96378" lon="4.71591">
        <ele>182</ele>
        <time>2018-10-12T10:37:31Z</time>
      </trkpt>
      <trkpt lat="45.9637" lon="4.7159">
        <ele>182</ele>
        <time>2018-10-12T10:37:33Z</time>
      </trkpt>
      <trkpt lat="45.96366" lon="4.71589">
        <ele>182</ele>
        <time>2018-10-12T10:37:34Z</time>
      </trkpt>
      <trkpt lat="45.96359" lon="4.71589">
        <ele>182</ele>
        <time>2018-10-12T10:37:36Z</time>
      </trkpt>
      <trkpt lat="45.96355" lon="4.71587">
        <ele>182</ele>
        <time>2018-10-12T10:37:37Z</time>
      </trkpt>
      <trkpt lat="45.96348" lon="4.71586">
        <ele>182</ele>
        <time>2018-10-12T10:37:39Z</time>
      </trkpt>
      <trkpt lat="45.96344" lon="4.71584">
        <ele>183</ele>
        <time>2018-10-12T10:37:40Z</time>
      </trkpt>
      <trkpt lat="45.96336" lon="4.71584">
        <ele>183</ele>
        <time>2018-10-12T10:37:42Z</time>
      </trkpt>
      <trkpt lat="45.96331" lon="4.71583">
        <ele>183</ele>
        <time>2018-10-12T10:37:43Z</time>
      </trkpt>
      <trkpt lat="45.96327" lon="4.71581">
        <ele>184</ele>
        <time>2018-10-12T10:37:44Z</time>
      </trkpt>
      <trkpt lat="45.96322" lon="4.7158">
        <ele>184</ele>
        <time>2018-10-12T10:37:45Z</time>
      </trkpt>
      <trkpt lat="45.96317" lon="4.71579">
        <ele>184</ele>
        <time>2018-10-12T10:37:46Z</time>
      </trkpt>
      <trkpt lat="45.96313" lon="4.71579">
        <ele>184</ele>
        <time>2018-10-12T10:37:47Z</time>
      </trkpt>
      <trkpt lat="45.96308" lon="4.71578">
        <ele>184</ele>
        <time>2018-10-12T10:37:48Z</time>
      </trkpt>
      <trkpt lat="45.96303" lon="4.71578">
        <ele>184</ele>
        <time>2018-10-12T10:37:49Z</time>
      </trkpt>
      <trkpt lat="45.96297" lon="4.71577">
        <ele>184</ele>
        <time>2018-10-12T10:37:50Z</time>
      </trkpt>
      <trkpt lat="45.96292" lon="4.71576">
        <ele>184</ele>
        <time>2018-10-12T10:37:51Z</time>
      </trkpt>
      <trkpt lat="45.96287" lon="4.71575">
        <ele>184</ele>
        <time>2018-10-12T10:37:52Z</time>
      </trkpt>
      <trkpt lat="45.96282" lon="4.71574">
        <ele>184</ele>
        <time>2018-10-12T10:37:53Z</time>
      </trkpt>
      <trkpt lat="45.96277" lon="4.71573">
        <ele>184</ele>
        <time>2018-10-12T10:37:54Z</time>
      </trkpt>
      <trkpt lat="45.96272" lon="4.71572">
        <ele>184</ele>
        <time>2018-10-12T10:37:55Z</time>
      </trkpt>
      <trkpt lat="45.96266" lon="4.71571">
        <ele>183</ele>
        <time>2018-10-12T10:37:56Z</time>
      </trkpt>
      <trkpt lat="45.96261" lon="4.7157">
        <ele>183</ele>
        <time>2018-10-12T10:37:57Z</time>
      </trkpt>
      <trkpt lat="45.96256" lon="4.7157">
        <ele>183</ele>
        <time>2018-10-12T10:37:58Z</time>
      </trkpt>
      <trkpt lat="45.96252" lon="4.71569">
        <ele>183</ele>
        <time>2018-10-12T10:37:59Z</time>
      </trkpt>
      <trkpt lat="45.96247" lon="4.71569">
        <ele>182</ele>
        <time>2018-10-12T10:38:00Z</time>
      </trkpt>
      <trkpt lat="45.96241" lon="4.71568">
        <ele>183</ele>
        <time>2018-10-12T10:38:01Z</time>
      </trkpt>
      <trkpt lat="45.96233" lon="4.71567">
        <ele>183</ele>
        <time>2018-10-12T10:38:03Z</time>
      </trkpt>
      <trkpt lat="45.96228" lon="4.71566">
        <ele>183</ele>
        <time>2018-10-12T10:38:04Z</time>
      </trkpt>
      <trkpt lat="45.96224" lon="4.71565">
        <ele>183</ele>
        <time>2018-10-12T10:38:05Z</time>
      </trkpt>
      <trkpt lat="45.96218" lon="4.71564">
        <ele>183</ele>
        <time>2018-10-12T10:38:06Z</time>
      </trkpt>
      <trkpt lat="45.96209" lon="4.71562">
        <ele>183</ele>
        <time>2018-10-12T10:38:08Z</time>
      </trkpt>
      <trkpt lat="45.96205" lon="4.71561">
        <ele>183</ele>
        <time>2018-10-12T10:38:09Z</time>
      </trkpt>
      <trkpt lat="45.962" lon="4.7156">
        <ele>183</ele>
        <time>2018-10-12T10:38:10Z</time>
      </trkpt>
      <trkpt lat="45.96196" lon="4.71559">
        <ele>183</ele>
        <time>2018-10-12T10:38:11Z</time>
      </trkpt>
      <trkpt lat="45.96191" lon="4.71558">
        <ele>183</ele>
        <time>2018-10-12T10:38:12Z</time>
      </trkpt>
      <trkpt lat="45.96186" lon="4.71557">
        <ele>183</ele>
        <time>2018-10-12T10:38:13Z</time>
      </trkpt>
      <trkpt lat="45.96181" lon="4.71556">
        <ele>183</ele>
        <time>2018-10-12T10:38:14Z</time>
      </trkpt>
      <trkpt lat="45.96176" lon="4.71555">
        <ele>183</ele>
        <time>2018-10-12T10:38:15Z</time>
      </trkpt>
      <trkpt lat="45.96172" lon="4.71555">
        <ele>183</ele>
        <time>2018-10-12T10:38:16Z</time>
      </trkpt>
      <trkpt lat="45.96167" lon="4.71554">
        <ele>183</ele>
        <time>2018-10-12T10:38:17Z</time>
      </trkpt>
      <trkpt lat="45.96162" lon="4.71552">
        <ele>184</ele>
        <time>2018-10-12T10:38:18Z</time>
      </trkpt>
      <trkpt lat="45.96158" lon="4.71551">
        <ele>184</ele>
        <time>2018-10-12T10:38:19Z</time>
      </trkpt>
      <trkpt lat="45.96153" lon="4.7155">
        <ele>184</ele>
        <time>2018-10-12T10:38:20Z</time>
      </trkpt>
      <trkpt lat="45.96148" lon="4.71545">
        <ele>184</ele>
        <time>2018-10-12T10:38:21Z</time>
      </trkpt>
      <trkpt lat="45.9614" lon="4.71544">
        <ele>185</ele>
        <time>2018-10-12T10:38:23Z</time>
      </trkpt>
      <trkpt lat="45.96136" lon="4.71545">
        <ele>185</ele>
        <time>2018-10-12T10:38:24Z</time>
      </trkpt>
      <trkpt lat="45.96128" lon="4.71542">
        <ele>185</ele>
        <time>2018-10-12T10:38:26Z</time>
      </trkpt>
      <trkpt lat="45.96123" lon="4.71541">
        <ele>185</ele>
        <time>2018-10-12T10:38:27Z</time>
      </trkpt>
      <trkpt lat="45.96116" lon="4.71542">
        <ele>185</ele>
        <time>2018-10-12T10:38:29Z</time>
      </trkpt>
      <trkpt lat="45.96112" lon="4.71541">
        <ele>185</ele>
        <time>2018-10-12T10:38:30Z</time>
      </trkpt>
      <trkpt lat="45.96103" lon="4.7154">
        <ele>185</ele>
        <time>2018-10-12T10:38:32Z</time>
      </trkpt>
      <trkpt lat="45.96099" lon="4.71539">
        <ele>185</ele>
        <time>2018-10-12T10:38:33Z</time>
      </trkpt>
      <trkpt lat="45.96091" lon="4.71538">
        <ele>185</ele>
        <time>2018-10-12T10:38:35Z</time>
      </trkpt>
      <trkpt lat="45.96087" lon="4.71537">
        <ele>185</ele>
        <time>2018-10-12T10:38:36Z</time>
      </trkpt>
      <trkpt lat="45.96079" lon="4.71536">
        <ele>186</ele>
        <time>2018-10-12T10:38:38Z</time>
      </trkpt>
      <trkpt lat="45.96075" lon="4.71535">
        <ele>186</ele>
        <time>2018-10-12T10:38:39Z</time>
      </trkpt>
      <trkpt lat="45.96067" lon="4.71533">
        <ele>186</ele>
        <time>2018-10-12T10:38:41Z</time>
      </trkpt>
      <trkpt lat="45.96063" lon="4.71532">
        <ele>186</ele>
        <time>2018-10-12T10:38:42Z</time>
      </trkpt>
      <trkpt lat="45.96055" lon="4.7153">
        <ele>186</ele>
        <time>2018-10-12T10:38:44Z</time>
      </trkpt>
      <trkpt lat="45.96051" lon="4.71529">
        <ele>186</ele>
        <time>2018-10-12T10:38:45Z</time>
      </trkpt>
      <trkpt lat="45.96042" lon="4.71527">
        <ele>186</ele>
        <time>2018-10-12T10:38:47Z</time>
      </trkpt>
      <trkpt lat="45.96038" lon="4.71526">
        <ele>186</ele>
        <time>2018-10-12T10:38:48Z</time>
      </trkpt>
      <trkpt lat="45.9603" lon="4.71524">
        <ele>186</ele>
        <time>2018-10-12T10:38:50Z</time>
      </trkpt>
      <trkpt lat="45.96025" lon="4.71524">
        <ele>186</ele>
        <time>2018-10-12T10:38:51Z</time>
      </trkpt>
      <trkpt lat="45.96017" lon="4.71523">
        <ele>186</ele>
        <time>2018-10-12T10:38:53Z</time>
      </trkpt>
      <trkpt lat="45.96012" lon="4.71521">
        <ele>186</ele>
        <time>2018-10-12T10:38:54Z</time>
      </trkpt>
      <trkpt lat="45.96004" lon="4.71518">
        <ele>186</ele>
        <time>2018-10-12T10:38:56Z</time>
      </trkpt>
      <trkpt lat="45.96" lon="4.71516">
        <ele>186</ele>
        <time>2018-10-12T10:38:57Z</time>
      </trkpt>
      <trkpt lat="45.95992" lon="4.7151">
        <ele>186</ele>
        <time>2018-10-12T10:38:59Z</time>
      </trkpt>
      <trkpt lat="45.95987" lon="4.71508">
        <ele>186</ele>
        <time>2018-10-12T10:39:00Z</time>
      </trkpt>
      <trkpt lat="45.95982" lon="4.71508">
        <ele>185</ele>
        <time>2018-10-12T10:39:01Z</time>
      </trkpt>
      <trkpt lat="45.95977" lon="4.7151">
        <ele>185</ele>
        <time>2018-10-12T10:39:02Z</time>
      </trkpt>
      <trkpt lat="45.95972" lon="4.71512">
        <ele>185</ele>
        <time>2018-10-12T10:39:03Z</time>
      </trkpt>
      <trkpt lat="45.95967" lon="4.71515">
        <ele>184</ele>
        <time>2018-10-12T10:39:04Z</time>
      </trkpt>
      <trkpt lat="45.95962" lon="4.71517">
        <ele>184</ele>
        <time>2018-10-12T10:39:05Z</time>
      </trkpt>
      <trkpt lat="45.95957" lon="4.71519">
        <ele>184</ele>
        <time>2018-10-12T10:39:06Z</time>
      </trkpt>
      <trkpt lat="45.95952" lon="4.71519">
        <ele>184</ele>
        <time>2018-10-12T10:39:07Z</time>
      </trkpt>
      <trkpt lat="45.95946" lon="4.71519">
        <ele>184</ele>
        <time>2018-10-12T10:39:08Z</time>
      </trkpt>
      <trkpt lat="45.95941" lon="4.71519">
        <ele>184</ele>
        <time>2018-10-12T10:39:09Z</time>
      </trkpt>
      <trkpt lat="45.95935" lon="4.71519">
        <ele>184</ele>
        <time>2018-10-12T10:39:10Z</time>
      </trkpt>
      <trkpt lat="45.9593" lon="4.71519">
        <ele>184</ele>
        <time>2018-10-12T10:39:11Z</time>
      </trkpt>
      <trkpt lat="45.95925" lon="4.71518">
        <ele>184</ele>
        <time>2018-10-12T10:39:12Z</time>
      </trkpt>
      <trkpt lat="45.9592" lon="4.71518">
        <ele>184</ele>
        <time>2018-10-12T10:39:13Z</time>
      </trkpt>
      <trkpt lat="45.95915" lon="4.71518">
        <ele>183</ele>
        <time>2018-10-12T10:39:14Z</time>
      </trkpt>
      <trkpt lat="45.9591" lon="4.71518">
        <ele>183</ele>
        <time>2018-10-12T10:39:15Z</time>
      </trkpt>
      <trkpt lat="45.95905" lon="4.71517">
        <ele>183</ele>
        <time>2018-10-12T10:39:16Z</time>
      </trkpt>
      <trkpt lat="45.95901" lon="4.71517">
        <ele>183</ele>
        <time>2018-10-12T10:39:17Z</time>
      </trkpt>
      <trkpt lat="45.95896" lon="4.71517">
        <ele>183</ele>
        <time>2018-10-12T10:39:18Z</time>
      </trkpt>
      <trkpt lat="45.95891" lon="4.71517">
        <ele>182</ele>
        <time>2018-10-12T10:39:19Z</time>
      </trkpt>
      <trkpt lat="45.95885" lon="4.71518">
        <ele>182</ele>
        <time>2018-10-12T10:39:20Z</time>
      </trkpt>
      <trkpt lat="45.9588" lon="4.71518">
        <ele>182</ele>
        <time>2018-10-12T10:39:21Z</time>
      </trkpt>
      <trkpt lat="45.95875" lon="4.71517">
        <ele>182</ele>
        <time>2018-10-12T10:39:22Z</time>
      </trkpt>
      <trkpt lat="45.95869" lon="4.71517">
        <ele>182</ele>
        <time>2018-10-12T10:39:23Z</time>
      </trkpt>
      <trkpt lat="45.95863" lon="4.71518">
        <ele>182</ele>
        <time>2018-10-12T10:39:24Z</time>
      </trkpt>
      <trkpt lat="45.95857" lon="4.71517">
        <ele>182</ele>
        <time>2018-10-12T10:39:25Z</time>
      </trkpt>
      <trkpt lat="45.95852" lon="4.71516">
        <ele>182</ele>
        <time>2018-10-12T10:39:26Z</time>
      </trkpt>
      <trkpt lat="45.95846" lon="4.71516">
        <ele>182</ele>
        <time>2018-10-12T10:39:27Z</time>
      </trkpt>
      <trkpt lat="45.95841" lon="4.71515">
        <ele>183</ele>
        <time>2018-10-12T10:39:28Z</time>
      </trkpt>
      <trkpt lat="45.95836" lon="4.71516">
        <ele>183</ele>
        <time>2018-10-12T10:39:29Z</time>
      </trkpt>
      <trkpt lat="45.9583" lon="4.71515">
        <ele>182</ele>
        <time>2018-10-12T10:39:30Z</time>
      </trkpt>
      <trkpt lat="45.95825" lon="4.71515">
        <ele>182</ele>
        <time>2018-10-12T10:39:31Z</time>
      </trkpt>
      <trkpt lat="45.95819" lon="4.71514">
        <ele>182</ele>
        <time>2018-10-12T10:39:32Z</time>
      </trkpt>
      <trkpt lat="45.95815" lon="4.71514">
        <ele>182</ele>
        <time>2018-10-12T10:39:33Z</time>
      </trkpt>
      <trkpt lat="45.9581" lon="4.71514">
        <ele>182</ele>
        <time>2018-10-12T10:39:34Z</time>
      </trkpt>
      <trkpt lat="45.95804" lon="4.71514">
        <ele>181</ele>
        <time>2018-10-12T10:39:35Z</time>
      </trkpt>
      <trkpt lat="45.958" lon="4.71512">
        <ele>181</ele>
        <time>2018-10-12T10:39:36Z</time>
      </trkpt>
      <trkpt lat="45.95794" lon="4.71512">
        <ele>181</ele>
        <time>2018-10-12T10:39:37Z</time>
      </trkpt>
      <trkpt lat="45.9579" lon="4.71512">
        <ele>181</ele>
        <time>2018-10-12T10:39:38Z</time>
      </trkpt>
      <trkpt lat="45.95784" lon="4.71512">
        <ele>181</ele>
        <time>2018-10-12T10:39:39Z</time>
      </trkpt>
      <trkpt lat="45.9578" lon="4.71511">
        <ele>181</ele>
        <time>2018-10-12T10:39:40Z</time>
      </trkpt>
      <trkpt lat="45.95775" lon="4.7151">
        <ele>181</ele>
        <time>2018-10-12T10:39:41Z</time>
      </trkpt>
      <trkpt lat="45.95769" lon="4.7151">
        <ele>181</ele>
        <time>2018-10-12T10:39:42Z</time>
      </trkpt>
      <trkpt lat="45.95763" lon="4.71509">
        <ele>181</ele>
        <time>2018-10-12T10:39:43Z</time>
      </trkpt>
      <trkpt lat="45.95757" lon="4.71509">
        <ele>181</ele>
        <time>2018-10-12T10:39:44Z</time>
      </trkpt>
      <trkpt lat="45.95751" lon="4.71509">
        <ele>181</ele>
        <time>2018-10-12T10:39:45Z</time>
      </trkpt>
      <trkpt lat="45.95745" lon="4.71509">
        <ele>181</ele>
        <time>2018-10-12T10:39:46Z</time>
      </trkpt>
      <trkpt lat="45.95739" lon="4.71508">
        <ele>181</ele>
        <time>2018-10-12T10:39:47Z</time>
      </trkpt>
      <trkpt lat="45.95733" lon="4.71508">
        <ele>181</ele>
        <time>2018-10-12T10:39:48Z</time>
      </trkpt>
      <trkpt lat="45.95727" lon="4.71508">
        <ele>181</ele>
        <time>2018-10-12T10:39:49Z</time>
      </trkpt>
      <trkpt lat="45.95721" lon="4.71508">
        <ele>180</ele>
        <time>2018-10-12T10:39:50Z</time>
      </trkpt>
      <trkpt lat="45.95715" lon="4.71507">
        <ele>180</ele>
        <time>2018-10-12T10:39:51Z</time>
      </trkpt>
      <trkpt lat="45.95709" lon="4.71506">
        <ele>180</ele>
        <time>2018-10-12T10:39:52Z</time>
      </trkpt>
      <trkpt lat="45.95703" lon="4.71506">
        <ele>180</ele>
        <time>2018-10-12T10:39:53Z</time>
      </trkpt>
      <trkpt lat="45.95697" lon="4.71505">
        <ele>180</ele>
        <time>2018-10-12T10:39:54Z</time>
      </trkpt>
      <trkpt lat="45.95692" lon="4.71505">
        <ele>181</ele>
        <time>2018-10-12T10:39:55Z</time>
      </trkpt>
      <trkpt lat="45.95686" lon="4.71504">
        <ele>181</ele>
        <time>2018-10-12T10:39:56Z</time>
      </trkpt>
      <trkpt lat="45.95681" lon="4.71504">
        <ele>181</ele>
        <time>2018-10-12T10:39:57Z</time>
      </trkpt>
      <trkpt lat="45.95675" lon="4.71503">
        <ele>181</ele>
        <time>2018-10-12T10:39:58Z</time>
      </trkpt>
      <trkpt lat="45.9567" lon="4.715">
        <ele>182</ele>
        <time>2018-10-12T10:39:59Z</time>
      </trkpt>
      <trkpt lat="45.95664" lon="4.71499">
        <ele>182</ele>
        <time>2018-10-12T10:40:00Z</time>
      </trkpt>
      <trkpt lat="45.95659" lon="4.71499">
        <ele>182</ele>
        <time>2018-10-12T10:40:01Z</time>
      </trkpt>
      <trkpt lat="45.95653" lon="4.715">
        <ele>181</ele>
        <time>2018-10-12T10:40:02Z</time>
      </trkpt>
      <trkpt lat="45.95648" lon="4.715">
        <ele>182</ele>
        <time>2018-10-12T10:40:03Z</time>
      </trkpt>
      <trkpt lat="45.95642" lon="4.715">
        <ele>182</ele>
        <time>2018-10-12T10:40:04Z</time>
      </trkpt>
      <trkpt lat="45.95637" lon="4.71499">
        <ele>182</ele>
        <time>2018-10-12T10:40:05Z</time>
      </trkpt>
      <trkpt lat="45.95631" lon="4.71499">
        <ele>182</ele>
        <time>2018-10-12T10:40:06Z</time>
      </trkpt>
      <trkpt lat="45.95626" lon="4.71501">
        <ele>180</ele>
        <time>2018-10-12T10:40:07Z</time>
      </trkpt>
      <trkpt lat="45.95621" lon="4.71501">
        <ele>180</ele>
        <time>2018-10-12T10:40:08Z</time>
      </trkpt>
      <trkpt lat="45.95615" lon="4.71502">
        <ele>179</ele>
        <time>2018-10-12T10:40:09Z</time>
      </trkpt>
      <trkpt lat="45.9561" lon="4.71501">
        <ele>179</ele>
        <time>2018-10-12T10:40:10Z</time>
      </trkpt>
      <trkpt lat="45.95606" lon="4.715">
        <ele>181</ele>
        <time>2018-10-12T10:40:11Z</time>
      </trkpt>
      <trkpt lat="45.95601" lon="4.71499">
        <ele>181</ele>
        <time>2018-10-12T10:40:12Z</time>
      </trkpt>
      <trkpt lat="45.95596" lon="4.71498">
        <ele>181</ele>
        <time>2018-10-12T10:40:13Z</time>
      </trkpt>
      <trkpt lat="45.95591" lon="4.71498">
        <ele>180</ele>
        <time>2018-10-12T10:40:14Z</time>
      </trkpt>
      <trkpt lat="45.95585" lon="4.71497">
        <ele>180</ele>
        <time>2018-10-12T10:40:15Z</time>
      </trkpt>
      <trkpt lat="45.9558" lon="4.71496">
        <ele>180</ele>
        <time>2018-10-12T10:40:16Z</time>
      </trkpt>
      <trkpt lat="45.95574" lon="4.71497">
        <ele>180</ele>
        <time>2018-10-12T10:40:17Z</time>
      </trkpt>
      <trkpt lat="45.95569" lon="4.71496">
        <ele>180</ele>
        <time>2018-10-12T10:40:18Z</time>
      </trkpt>
      <trkpt lat="45.95562" lon="4.71496">
        <ele>179</ele>
        <time>2018-10-12T10:40:19Z</time>
      </trkpt>
      <trkpt lat="45.95557" lon="4.71495">
        <ele>179</ele>
        <time>2018-10-12T10:40:20Z</time>
      </trkpt>
      <trkpt lat="45.9555" lon="4.71495">
        <ele>179</ele>
        <time>2018-10-12T10:40:21Z</time>
      </trkpt>
      <trkpt lat="45.95544" lon="4.71495">
        <ele>179</ele>
        <time>2018-10-12T10:40:22Z</time>
      </trkpt>
      <trkpt lat="45.95538" lon="4.71495">
        <ele>179</ele>
        <time>2018-10-12T10:40:23Z</time>
      </trkpt>
      <trkpt lat="45.95532" lon="4.71495">
        <ele>179</ele>
        <time>2018-10-12T10:40:24Z</time>
      </trkpt>
      <trkpt lat="45.95526" lon="4.71495">
        <ele>178</ele>
        <time>2018-10-12T10:40:25Z</time>
      </trkpt>
      <trkpt lat="45.9552" lon="4.71495">
        <ele>178</ele>
        <time>2018-10-12T10:40:26Z</time>
      </trkpt>
      <trkpt lat="45.95514" lon="4.71495">
        <ele>178</ele>
        <time>2018-10-12T10:40:27Z</time>
      </trkpt>
      <trkpt lat="45.95508" lon="4.71495">
        <ele>178</ele>
        <time>2018-10-12T10:40:28Z</time>
      </trkpt>
      <trkpt lat="45.95503" lon="4.71494">
        <ele>177</ele>
        <time>2018-10-12T10:40:29Z</time>
      </trkpt>
      <trkpt lat="45.95497" lon="4.71494">
        <ele>177</ele>
        <time>2018-10-12T10:40:30Z</time>
      </trkpt>
      <trkpt lat="45.95492" lon="4.71493">
        <ele>177</ele>
        <time>2018-10-12T10:40:31Z</time>
      </trkpt>
      <trkpt lat="45.95487" lon="4.71493">
        <ele>177</ele>
        <time>2018-10-12T10:40:32Z</time>
      </trkpt>
      <trkpt lat="45.95482" lon="4.71493">
        <ele>176</ele>
        <time>2018-10-12T10:40:33Z</time>
      </trkpt>
      <trkpt lat="45.95477" lon="4.71493">
        <ele>176</ele>
        <time>2018-10-12T10:40:34Z</time>
      </trkpt>
      <trkpt lat="45.95472" lon="4.71492">
        <ele>176</ele>
        <time>2018-10-12T10:40:35Z</time>
      </trkpt>
      <trkpt lat="45.95467" lon="4.71492">
        <ele>176</ele>
        <time>2018-10-12T10:40:36Z</time>
      </trkpt>
      <trkpt lat="45.9546" lon="4.71494">
        <ele>176</ele>
        <time>2018-10-12T10:40:38Z</time>
      </trkpt>
      <trkpt lat="45.95454" lon="4.71494">
        <ele>176</ele>
        <time>2018-10-12T10:40:39Z</time>
      </trkpt>
      <trkpt lat="45.9545" lon="4.71493">
        <ele>176</ele>
        <time>2018-10-12T10:40:40Z</time>
      </trkpt>
      <trkpt lat="45.95444" lon="4.71492">
        <ele>176</ele>
        <time>2018-10-12T10:40:41Z</time>
      </trkpt>
      <trkpt lat="45.95439" lon="4.71492">
        <ele>175</ele>
        <time>2018-10-12T10:40:42Z</time>
      </trkpt>
      <trkpt lat="45.95434" lon="4.71493">
        <ele>175</ele>
        <time>2018-10-12T10:40:43Z</time>
      </trkpt>
      <trkpt lat="45.95428" lon="4.71492">
        <ele>175</ele>
        <time>2018-10-12T10:40:44Z</time>
      </trkpt>
      <trkpt lat="45.95422" lon="4.71492">
        <ele>175</ele>
        <time>2018-10-12T10:40:45Z</time>
      </trkpt>
      <trkpt lat="45.95417" lon="4.71493">
        <ele>175</ele>
        <time>2018-10-12T10:40:46Z</time>
      </trkpt>
      <trkpt lat="45.95413" lon="4.71493">
        <ele>174</ele>
        <time>2018-10-12T10:40:47Z</time>
      </trkpt>
      <trkpt lat="45.95404" lon="4.71491">
        <ele>175</ele>
        <time>2018-10-12T10:40:49Z</time>
      </trkpt>
      <trkpt lat="45.95399" lon="4.71491">
        <ele>175</ele>
        <time>2018-10-12T10:40:50Z</time>
      </trkpt>
      <trkpt lat="45.9539" lon="4.71489">
        <ele>175</ele>
        <time>2018-10-12T10:40:52Z</time>
      </trkpt>
      <trkpt lat="45.95385" lon="4.71488">
        <ele>175</ele>
        <time>2018-10-12T10:40:53Z</time>
      </trkpt>
      <trkpt lat="45.9538" lon="4.71488">
        <ele>175</ele>
        <time>2018-10-12T10:40:54Z</time>
      </trkpt>
      <trkpt lat="45.95374" lon="4.71488">
        <ele>175</ele>
        <time>2018-10-12T10:40:55Z</time>
      </trkpt>
      <trkpt lat="45.95369" lon="4.71487">
        <ele>175</ele>
        <time>2018-10-12T10:40:56Z</time>
      </trkpt>
      <trkpt lat="45.95364" lon="4.71487">
        <ele>175</ele>
        <time>2018-10-12T10:40:57Z</time>
      </trkpt>
      <trkpt lat="45.95358" lon="4.71486">
        <ele>175</ele>
        <time>2018-10-12T10:40:58Z</time>
      </trkpt>
      <trkpt lat="45.95352" lon="4.71486">
        <ele>175</ele>
        <time>2018-10-12T10:40:59Z</time>
      </trkpt>
      <trkpt lat="45.95346" lon="4.71486">
        <ele>175</ele>
        <time>2018-10-12T10:41:00Z</time>
      </trkpt>
      <trkpt lat="45.9534" lon="4.71485">
        <ele>175</ele>
        <time>2018-10-12T10:41:01Z</time>
      </trkpt>
      <trkpt lat="45.95333" lon="4.71485">
        <ele>175</ele>
        <time>2018-10-12T10:41:02Z</time>
      </trkpt>
      <trkpt lat="45.95327" lon="4.71484">
        <ele>175</ele>
        <time>2018-10-12T10:41:03Z</time>
      </trkpt>
      <trkpt lat="45.95321" lon="4.71484">
        <ele>175</ele>
        <time>2018-10-12T10:41:04Z</time>
      </trkpt>
      <trkpt lat="45.95316" lon="4.71484">
        <ele>175</ele>
        <time>2018-10-12T10:41:05Z</time>
      </trkpt>
      <trkpt lat="45.95309" lon="4.71483">
        <ele>175</ele>
        <time>2018-10-12T10:41:06Z</time>
      </trkpt>
      <trkpt lat="45.95303" lon="4.71483">
        <ele>175</ele>
        <time>2018-10-12T10:41:07Z</time>
      </trkpt>
      <trkpt lat="45.95297" lon="4.71483">
        <ele>176</ele>
        <time>2018-10-12T10:41:08Z</time>
      </trkpt>
      <trkpt lat="45.95291" lon="4.71484">
        <ele>176</ele>
        <time>2018-10-12T10:41:09Z</time>
      </trkpt>
      <trkpt lat="45.95285" lon="4.71483">
        <ele>176</ele>
        <time>2018-10-12T10:41:10Z</time>
      </trkpt>
      <trkpt lat="45.9528" lon="4.71483">
        <ele>176</ele>
        <time>2018-10-12T10:41:11Z</time>
      </trkpt>
      <trkpt lat="45.95275" lon="4.71483">
        <ele>176</ele>
        <time>2018-10-12T10:41:12Z</time>
      </trkpt>
      <trkpt lat="45.9527" lon="4.71483">
        <ele>176</ele>
        <time>2018-10-12T10:41:13Z</time>
      </trkpt>
      <trkpt lat="45.95262" lon="4.71483">
        <ele>176</ele>
        <time>2018-10-12T10:41:15Z</time>
      </trkpt>
      <trkpt lat="45.95258" lon="4.71483">
        <ele>176</ele>
        <time>2018-10-12T10:41:16Z</time>
      </trkpt>
      <trkpt lat="45.95249" lon="4.71483">
        <ele>177</ele>
        <time>2018-10-12T10:41:18Z</time>
      </trkpt>
      <trkpt lat="45.95245" lon="4.71482">
        <ele>177</ele>
        <time>2018-10-12T10:41:19Z</time>
      </trkpt>
      <trkpt lat="45.9524" lon="4.71481">
        <ele>177</ele>
        <time>2018-10-12T10:41:20Z</time>
      </trkpt>
      <trkpt lat="45.95236" lon="4.71481">
        <ele>177</ele>
        <time>2018-10-12T10:41:21Z</time>
      </trkpt>
      <trkpt lat="45.95227" lon="4.7148">
        <ele>177</ele>
        <time>2018-10-12T10:41:23Z</time>
      </trkpt>
      <trkpt lat="45.95221" lon="4.7148">
        <ele>177</ele>
        <time>2018-10-12T10:41:24Z</time>
      </trkpt>
      <trkpt lat="45.95217" lon="4.71479">
        <ele>177</ele>
        <time>2018-10-12T10:41:25Z</time>
      </trkpt>
      <trkpt lat="45.95212" lon="4.71479">
        <ele>177</ele>
        <time>2018-10-12T10:41:26Z</time>
      </trkpt>
      <trkpt lat="45.95207" lon="4.71479">
        <ele>177</ele>
        <time>2018-10-12T10:41:27Z</time>
      </trkpt>
      <trkpt lat="45.95203" lon="4.71478">
        <ele>177</ele>
        <time>2018-10-12T10:41:28Z</time>
      </trkpt>
      <trkpt lat="45.95198" lon="4.71477">
        <ele>177</ele>
        <time>2018-10-12T10:41:29Z</time>
      </trkpt>
      <trkpt lat="45.95194" lon="4.71477">
        <ele>177</ele>
        <time>2018-10-12T10:41:30Z</time>
      </trkpt>
      <trkpt lat="45.95188" lon="4.71476">
        <ele>177</ele>
        <time>2018-10-12T10:41:31Z</time>
      </trkpt>
      <trkpt lat="45.95184" lon="4.71476">
        <ele>177</ele>
        <time>2018-10-12T10:41:32Z</time>
      </trkpt>
      <trkpt lat="45.95177" lon="4.71475">
        <ele>177</ele>
        <time>2018-10-12T10:41:34Z</time>
      </trkpt>
      <trkpt lat="45.95172" lon="4.71474">
        <ele>177</ele>
        <time>2018-10-12T10:41:35Z</time>
      </trkpt>
      <trkpt lat="45.95163" lon="4.71474">
        <ele>178</ele>
        <time>2018-10-12T10:41:37Z</time>
      </trkpt>
      <trkpt lat="45.95159" lon="4.71474">
        <ele>178</ele>
        <time>2018-10-12T10:41:38Z</time>
      </trkpt>
      <trkpt lat="45.95154" lon="4.71473">
        <ele>178</ele>
        <time>2018-10-12T10:41:39Z</time>
      </trkpt>
      <trkpt lat="45.95149" lon="4.71473">
        <ele>178</ele>
        <time>2018-10-12T10:41:40Z</time>
      </trkpt>
      <trkpt lat="45.95141" lon="4.71471">
        <ele>178</ele>
        <time>2018-10-12T10:41:42Z</time>
      </trkpt>
      <trkpt lat="45.95137" lon="4.71471">
        <ele>178</ele>
        <time>2018-10-12T10:41:43Z</time>
      </trkpt>
      <trkpt lat="45.95128" lon="4.71471">
        <ele>178</ele>
        <time>2018-10-12T10:41:45Z</time>
      </trkpt>
      <trkpt lat="45.95124" lon="4.71471">
        <ele>178</ele>
        <time>2018-10-12T10:41:46Z</time>
      </trkpt>
      <trkpt lat="45.95115" lon="4.71471">
        <ele>179</ele>
        <time>2018-10-12T10:41:48Z</time>
      </trkpt>
      <trkpt lat="45.95111" lon="4.71471">
        <ele>179</ele>
        <time>2018-10-12T10:41:49Z</time>
      </trkpt>
      <trkpt lat="45.95102" lon="4.71471">
        <ele>179</ele>
        <time>2018-10-12T10:41:51Z</time>
      </trkpt>
      <trkpt lat="45.95098" lon="4.7147">
        <ele>179</ele>
        <time>2018-10-12T10:41:52Z</time>
      </trkpt>
      <trkpt lat="45.95089" lon="4.71469">
        <ele>179</ele>
        <time>2018-10-12T10:41:54Z</time>
      </trkpt>
      <trkpt lat="45.95085" lon="4.71469">
        <ele>179</ele>
        <time>2018-10-12T10:41:55Z</time>
      </trkpt>
      <trkpt lat="45.95077" lon="4.71469">
        <ele>181</ele>
        <time>2018-10-12T10:41:57Z</time>
      </trkpt>
      <trkpt lat="45.95073" lon="4.71469">
        <ele>181</ele>
        <time>2018-10-12T10:41:58Z</time>
      </trkpt>
      <trkpt lat="45.95065" lon="4.71468">
        <ele>181</ele>
        <time>2018-10-12T10:42:00Z</time>
      </trkpt>
      <trkpt lat="45.95061" lon="4.71467">
        <ele>181</ele>
        <time>2018-10-12T10:42:01Z</time>
      </trkpt>
      <trkpt lat="45.95054" lon="4.71467">
        <ele>181</ele>
        <time>2018-10-12T10:42:04Z</time>
      </trkpt>
      <trkpt lat="45.95047" lon="4.71467">
        <ele>181</ele>
        <time>2018-10-12T10:42:05Z</time>
      </trkpt>
      <trkpt lat="45.9504" lon="4.71466">
        <ele>182</ele>
        <time>2018-10-12T10:42:09Z</time>
      </trkpt>
      <trkpt lat="45.95038" lon="4.71465">
        <ele>182</ele>
        <time>2018-10-12T10:42:10Z</time>
      </trkpt>
      <trkpt lat="45.95036" lon="4.71465">
        <ele>182</ele>
        <time>2018-10-12T10:42:11Z</time>
      </trkpt>
      <trkpt lat="45.95028" lon="4.71465">
        <ele>182</ele>
        <time>2018-10-12T10:42:12Z</time>
      </trkpt>
      <trkpt lat="45.95021" lon="4.71464">
        <ele>182</ele>
        <time>2018-10-12T10:42:14Z</time>
      </trkpt>
      <trkpt lat="45.95017" lon="4.71464">
        <ele>182</ele>
        <time>2018-10-12T10:42:15Z</time>
      </trkpt>
      <trkpt lat="45.95009" lon="4.71464">
        <ele>182</ele>
        <time>2018-10-12T10:42:18Z</time>
      </trkpt>
      <trkpt lat="45.95006" lon="4.71463">
        <ele>182</ele>
        <time>2018-10-12T10:42:19Z</time>
      </trkpt>
      <trkpt lat="45.94999" lon="4.71461">
        <ele>183</ele>
        <time>2018-10-12T10:42:20Z</time>
      </trkpt>
      <trkpt lat="45.94995" lon="4.71458">
        <ele>184</ele>
        <time>2018-10-12T10:42:21Z</time>
      </trkpt>
      <trkpt lat="45.9499" lon="4.71453">
        <ele>184</ele>
        <time>2018-10-12T10:42:23Z</time>
      </trkpt>
      <trkpt lat="45.94986" lon="4.71448">
        <ele>184</ele>
        <time>2018-10-12T10:42:24Z</time>
      </trkpt>
      <trkpt lat="45.94981" lon="4.71439">
        <ele>185</ele>
        <time>2018-10-12T10:42:26Z</time>
      </trkpt>
      <trkpt lat="45.94977" lon="4.71436">
        <ele>185</ele>
        <time>2018-10-12T10:42:27Z</time>
      </trkpt>
      <trkpt lat="45.94969" lon="4.71432">
        <ele>185</ele>
        <time>2018-10-12T10:42:29Z</time>
      </trkpt>
      <trkpt lat="45.94965" lon="4.71432">
        <ele>185</ele>
        <time>2018-10-12T10:42:30Z</time>
      </trkpt>
      <trkpt lat="45.9496" lon="4.71437">
        <ele>184</ele>
        <time>2018-10-12T10:42:31Z</time>
      </trkpt>
      <trkpt lat="45.94956" lon="4.71441">
        <ele>184</ele>
        <time>2018-10-12T10:42:32Z</time>
      </trkpt>
      <trkpt lat="45.94952" lon="4.71446">
        <ele>184</ele>
        <time>2018-10-12T10:42:33Z</time>
      </trkpt>
      <trkpt lat="45.94948" lon="4.7145">
        <ele>184</ele>
        <time>2018-10-12T10:42:34Z</time>
      </trkpt>
      <trkpt lat="45.94944" lon="4.71454">
        <ele>184</ele>
        <time>2018-10-12T10:42:35Z</time>
      </trkpt>
      <trkpt lat="45.94939" lon="4.71456">
        <ele>184</ele>
        <time>2018-10-12T10:42:36Z</time>
      </trkpt>
      <trkpt lat="45.94935" lon="4.71458">
        <ele>184</ele>
        <time>2018-10-12T10:42:37Z</time>
      </trkpt>
      <trkpt lat="45.9493" lon="4.7146">
        <ele>183</ele>
        <time>2018-10-12T10:42:38Z</time>
      </trkpt>
      <trkpt lat="45.94926" lon="4.7146">
        <ele>183</ele>
        <time>2018-10-12T10:42:39Z</time>
      </trkpt>
      <trkpt lat="45.94921" lon="4.7146">
        <ele>183</ele>
        <time>2018-10-12T10:42:40Z</time>
      </trkpt>
      <trkpt lat="45.94915" lon="4.71461">
        <ele>183</ele>
        <time>2018-10-12T10:42:41Z</time>
      </trkpt>
      <trkpt lat="45.94911" lon="4.7146">
        <ele>183</ele>
        <time>2018-10-12T10:42:42Z</time>
      </trkpt>
      <trkpt lat="45.94906" lon="4.71459">
        <ele>183</ele>
        <time>2018-10-12T10:42:43Z</time>
      </trkpt>
      <trkpt lat="45.94902" lon="4.71458">
        <ele>183</ele>
        <time>2018-10-12T10:42:44Z</time>
      </trkpt>
      <trkpt lat="45.94894" lon="4.71459">
        <ele>183</ele>
        <time>2018-10-12T10:42:46Z</time>
      </trkpt>
      <trkpt lat="45.9489" lon="4.71458">
        <ele>184</ele>
        <time>2018-10-12T10:42:47Z</time>
      </trkpt>
      <trkpt lat="45.94882" lon="4.71457">
        <ele>184</ele>
        <time>2018-10-12T10:42:49Z</time>
      </trkpt>
      <trkpt lat="45.94879" lon="4.71457">
        <ele>184</ele>
        <time>2018-10-12T10:42:50Z</time>
      </trkpt>
      <trkpt lat="45.9487" lon="4.71458">
        <ele>184</ele>
        <time>2018-10-12T10:42:52Z</time>
      </trkpt>
      <trkpt lat="45.94865" lon="4.71458">
        <ele>184</ele>
        <time>2018-10-12T10:42:53Z</time>
      </trkpt>
      <trkpt lat="45.94857" lon="4.71457">
        <ele>184</ele>
        <time>2018-10-12T10:42:55Z</time>
      </trkpt>
      <trkpt lat="45.94852" lon="4.71457">
        <ele>184</ele>
        <time>2018-10-12T10:42:56Z</time>
      </trkpt>
      <trkpt lat="45.94848" lon="4.71456">
        <ele>184</ele>
        <time>2018-10-12T10:42:57Z</time>
      </trkpt>
      <trkpt lat="45.94843" lon="4.71456">
        <ele>184</ele>
        <time>2018-10-12T10:42:58Z</time>
      </trkpt>
      <trkpt lat="45.94838" lon="4.71456">
        <ele>184</ele>
        <time>2018-10-12T10:42:59Z</time>
      </trkpt>
      <trkpt lat="45.94833" lon="4.71455">
        <ele>184</ele>
        <time>2018-10-12T10:43:00Z</time>
      </trkpt>
      <trkpt lat="45.94827" lon="4.71453">
        <ele>183</ele>
        <time>2018-10-12T10:43:02Z</time>
      </trkpt>
      <trkpt lat="45.94822" lon="4.71453">
        <ele>183</ele>
        <time>2018-10-12T10:43:03Z</time>
      </trkpt>
      <trkpt lat="45.94814" lon="4.71452">
        <ele>183</ele>
        <time>2018-10-12T10:43:05Z</time>
      </trkpt>
      <trkpt lat="45.9481" lon="4.71452">
        <ele>183</ele>
        <time>2018-10-12T10:43:06Z</time>
      </trkpt>
      <trkpt lat="45.94806" lon="4.71452">
        <ele>183</ele>
        <time>2018-10-12T10:43:07Z</time>
      </trkpt>
      <trkpt lat="45.94801" lon="4.71452">
        <ele>183</ele>
        <time>2018-10-12T10:43:08Z</time>
      </trkpt>
      <trkpt lat="45.94796" lon="4.71451">
        <ele>183</ele>
        <time>2018-10-12T10:43:09Z</time>
      </trkpt>
      <trkpt lat="45.94792" lon="4.7145">
        <ele>183</ele>
        <time>2018-10-12T10:43:10Z</time>
      </trkpt>
      <trkpt lat="45.94786" lon="4.7145">
        <ele>183</ele>
        <time>2018-10-12T10:43:11Z</time>
      </trkpt>
      <trkpt lat="45.94781" lon="4.7145">
        <ele>183</ele>
        <time>2018-10-12T10:43:12Z</time>
      </trkpt>
      <trkpt lat="45.94772" lon="4.71449">
        <ele>183</ele>
        <time>2018-10-12T10:43:14Z</time>
      </trkpt>
      <trkpt lat="45.94769" lon="4.71448">
        <ele>183</ele>
        <time>2018-10-12T10:43:15Z</time>
      </trkpt>
      <trkpt lat="45.94761" lon="4.71447">
        <ele>183</ele>
        <time>2018-10-12T10:43:17Z</time>
      </trkpt>
      <trkpt lat="45.94757" lon="4.71447">
        <ele>184</ele>
        <time>2018-10-12T10:43:18Z</time>
      </trkpt>
      <trkpt lat="45.94748" lon="4.71447">
        <ele>183</ele>
        <time>2018-10-12T10:43:20Z</time>
      </trkpt>
      <trkpt lat="45.94743" lon="4.71446">
        <ele>183</ele>
        <time>2018-10-12T10:43:21Z</time>
      </trkpt>
      <trkpt lat="45.94738" lon="4.71446">
        <ele>183</ele>
        <time>2018-10-12T10:43:22Z</time>
      </trkpt>
      <trkpt lat="45.94733" lon="4.71446">
        <ele>182</ele>
        <time>2018-10-12T10:43:23Z</time>
      </trkpt>
      <trkpt lat="45.94729" lon="4.71445">
        <ele>182</ele>
        <time>2018-10-12T10:43:24Z</time>
      </trkpt>
      <trkpt lat="45.94724" lon="4.71445">
        <ele>182</ele>
        <time>2018-10-12T10:43:25Z</time>
      </trkpt>
      <trkpt lat="45.94719" lon="4.71444">
        <ele>182</ele>
        <time>2018-10-12T10:43:26Z</time>
      </trkpt>
      <trkpt lat="45.94715" lon="4.71444">
        <ele>182</ele>
        <time>2018-10-12T10:43:27Z</time>
      </trkpt>
      <trkpt lat="45.9471" lon="4.71443">
        <ele>182</ele>
        <time>2018-10-12T10:43:28Z</time>
      </trkpt>
      <trkpt lat="45.94705" lon="4.71444">
        <ele>182</ele>
        <time>2018-10-12T10:43:29Z</time>
      </trkpt>
      <trkpt lat="45.947" lon="4.71443">
        <ele>182</ele>
        <time>2018-10-12T10:43:30Z</time>
      </trkpt>
      <trkpt lat="45.94696" lon="4.71443">
        <ele>182</ele>
        <time>2018-10-12T10:43:31Z</time>
      </trkpt>
      <trkpt lat="45.94688" lon="4.71444">
        <ele>182</ele>
        <time>2018-10-12T10:43:33Z</time>
      </trkpt>
      <trkpt lat="45.94684" lon="4.71443">
        <ele>182</ele>
        <time>2018-10-12T10:43:34Z</time>
      </trkpt>
      <trkpt lat="45.94676" lon="4.71442">
        <ele>182</ele>
        <time>2018-10-12T10:43:36Z</time>
      </trkpt>
      <trkpt lat="45.94672" lon="4.71442">
        <ele>182</ele>
        <time>2018-10-12T10:43:37Z</time>
      </trkpt>
      <trkpt lat="45.94664" lon="4.71442">
        <ele>182</ele>
        <time>2018-10-12T10:43:39Z</time>
      </trkpt>
      <trkpt lat="45.94659" lon="4.71442">
        <ele>182</ele>
        <time>2018-10-12T10:43:40Z</time>
      </trkpt>
      <trkpt lat="45.9465" lon="4.71442">
        <ele>181</ele>
        <time>2018-10-12T10:43:42Z</time>
      </trkpt>
      <trkpt lat="45.94646" lon="4.71442">
        <ele>181</ele>
        <time>2018-10-12T10:43:43Z</time>
      </trkpt>
      <trkpt lat="45.94638" lon="4.7144">
        <ele>181</ele>
        <time>2018-10-12T10:43:45Z</time>
      </trkpt>
      <trkpt lat="45.94634" lon="4.7144">
        <ele>181</ele>
        <time>2018-10-12T10:43:46Z</time>
      </trkpt>
      <trkpt lat="45.94626" lon="4.71439">
        <ele>181</ele>
        <time>2018-10-12T10:43:48Z</time>
      </trkpt>
      <trkpt lat="45.94621" lon="4.71438">
        <ele>181</ele>
        <time>2018-10-12T10:43:49Z</time>
      </trkpt>
      <trkpt lat="45.94615" lon="4.71438">
        <ele>182</ele>
        <time>2018-10-12T10:43:50Z</time>
      </trkpt>
      <trkpt lat="45.9461" lon="4.71437">
        <ele>182</ele>
        <time>2018-10-12T10:43:51Z</time>
      </trkpt>
      <trkpt lat="45.94605" lon="4.71437">
        <ele>182</ele>
        <time>2018-10-12T10:43:52Z</time>
      </trkpt>
      <trkpt lat="45.94601" lon="4.71437">
        <ele>182</ele>
        <time>2018-10-12T10:43:53Z</time>
      </trkpt>
      <trkpt lat="45.94596" lon="4.71436">
        <ele>182</ele>
        <time>2018-10-12T10:43:54Z</time>
      </trkpt>
      <trkpt lat="45.94591" lon="4.71437">
        <ele>182</ele>
        <time>2018-10-12T10:43:55Z</time>
      </trkpt>
      <trkpt lat="45.94587" lon="4.71436">
        <ele>182</ele>
        <time>2018-10-12T10:43:56Z</time>
      </trkpt>
      <trkpt lat="45.94582" lon="4.71437">
        <ele>182</ele>
        <time>2018-10-12T10:43:57Z</time>
      </trkpt>
      <trkpt lat="45.94578" lon="4.71437">
        <ele>182</ele>
        <time>2018-10-12T10:43:58Z</time>
      </trkpt>
      <trkpt lat="45.94572" lon="4.71438">
        <ele>182</ele>
        <time>2018-10-12T10:43:59Z</time>
      </trkpt>
      <trkpt lat="45.94568" lon="4.7144">
        <ele>181</ele>
        <time>2018-10-12T10:44:00Z</time>
      </trkpt>
      <trkpt lat="45.94562" lon="4.71441">
        <ele>181</ele>
        <time>2018-10-12T10:44:01Z</time>
      </trkpt>
      <trkpt lat="45.94556" lon="4.71443">
        <ele>181</ele>
        <time>2018-10-12T10:44:02Z</time>
      </trkpt>
      <trkpt lat="45.9455" lon="4.71444">
        <ele>181</ele>
        <time>2018-10-12T10:44:03Z</time>
      </trkpt>
      <trkpt lat="45.94545" lon="4.71446">
        <ele>181</ele>
        <time>2018-10-12T10:44:04Z</time>
      </trkpt>
      <trkpt lat="45.94539" lon="4.71447">
        <ele>180</ele>
        <time>2018-10-12T10:44:05Z</time>
      </trkpt>
      <trkpt lat="45.94532" lon="4.71449">
        <ele>180</ele>
        <time>2018-10-12T10:44:06Z</time>
      </trkpt>
      <trkpt lat="45.94526" lon="4.71451">
        <ele>180</ele>
        <time>2018-10-12T10:44:07Z</time>
      </trkpt>
      <trkpt lat="45.9452" lon="4.71453">
        <ele>180</ele>
        <time>2018-10-12T10:44:08Z</time>
      </trkpt>
      <trkpt lat="45.94514" lon="4.71456">
        <ele>180</ele>
        <time>2018-10-12T10:44:09Z</time>
      </trkpt>
      <trkpt lat="45.94508" lon="4.71456">
        <ele>180</ele>
        <time>2018-10-12T10:44:10Z</time>
      </trkpt>
      <trkpt lat="45.94502" lon="4.71458">
        <ele>180</ele>
        <time>2018-10-12T10:44:11Z</time>
      </trkpt>
      <trkpt lat="45.94496" lon="4.71461">
        <ele>179</ele>
        <time>2018-10-12T10:44:12Z</time>
      </trkpt>
      <trkpt lat="45.9449" lon="4.71464">
        <ele>179</ele>
        <time>2018-10-12T10:44:13Z</time>
      </trkpt>
      <trkpt lat="45.94483" lon="4.71468">
        <ele>179</ele>
        <time>2018-10-12T10:44:14Z</time>
      </trkpt>
      <trkpt lat="45.94478" lon="4.7147">
        <ele>179</ele>
        <time>2018-10-12T10:44:15Z</time>
      </trkpt>
      <trkpt lat="45.94472" lon="4.71472">
        <ele>179</ele>
        <time>2018-10-12T10:44:16Z</time>
      </trkpt>
      <trkpt lat="45.94464" lon="4.71475">
        <ele>179</ele>
        <time>2018-10-12T10:44:17Z</time>
      </trkpt>
      <trkpt lat="45.94458" lon="4.71479">
        <ele>179</ele>
        <time>2018-10-12T10:44:18Z</time>
      </trkpt>
      <trkpt lat="45.94451" lon="4.71482">
        <ele>179</ele>
        <time>2018-10-12T10:44:19Z</time>
      </trkpt>
      <trkpt lat="45.94443" lon="4.71484">
        <ele>179</ele>
        <time>2018-10-12T10:44:20Z</time>
      </trkpt>
      <trkpt lat="45.94437" lon="4.71487">
        <ele>179</ele>
        <time>2018-10-12T10:44:21Z</time>
      </trkpt>
      <trkpt lat="45.9443" lon="4.71489">
        <ele>178</ele>
        <time>2018-10-12T10:44:22Z</time>
      </trkpt>
      <trkpt lat="45.94424" lon="4.71491">
        <ele>178</ele>
        <time>2018-10-12T10:44:23Z</time>
      </trkpt>
      <trkpt lat="45.94417" lon="4.71492">
        <ele>178</ele>
        <time>2018-10-12T10:44:24Z</time>
      </trkpt>
      <trkpt lat="45.94411" lon="4.71495">
        <ele>178</ele>
        <time>2018-10-12T10:44:25Z</time>
      </trkpt>
      <trkpt lat="45.94406" lon="4.71499">
        <ele>178</ele>
        <time>2018-10-12T10:44:26Z</time>
      </trkpt>
      <trkpt lat="45.94399" lon="4.71501">
        <ele>177</ele>
        <time>2018-10-12T10:44:27Z</time>
      </trkpt>
      <trkpt lat="45.94393" lon="4.71503">
        <ele>177</ele>
        <time>2018-10-12T10:44:28Z</time>
      </trkpt>
      <trkpt lat="45.94387" lon="4.71505">
        <ele>177</ele>
        <time>2018-10-12T10:44:29Z</time>
      </trkpt>
      <trkpt lat="45.94383" lon="4.71508">
        <ele>177</ele>
        <time>2018-10-12T10:44:30Z</time>
      </trkpt>
      <trkpt lat="45.94377" lon="4.71511">
        <ele>177</ele>
        <time>2018-10-12T10:44:31Z</time>
      </trkpt>
      <trkpt lat="45.9437" lon="4.71514">
        <ele>176</ele>
        <time>2018-10-12T10:44:32Z</time>
      </trkpt>
      <trkpt lat="45.94365" lon="4.71516">
        <ele>176</ele>
        <time>2018-10-12T10:44:33Z</time>
      </trkpt>
      <trkpt lat="45.9436" lon="4.71518">
        <ele>176</ele>
        <time>2018-10-12T10:44:34Z</time>
      </trkpt>
      <trkpt lat="45.94354" lon="4.7152">
        <ele>176</ele>
        <time>2018-10-12T10:44:35Z</time>
      </trkpt>
      <trkpt lat="45.94349" lon="4.71523">
        <ele>176</ele>
        <time>2018-10-12T10:44:36Z</time>
      </trkpt>
      <trkpt lat="45.94343" lon="4.71525">
        <ele>176</ele>
        <time>2018-10-12T10:44:37Z</time>
      </trkpt>
      <trkpt lat="45.94338" lon="4.71527">
        <ele>176</ele>
        <time>2018-10-12T10:44:38Z</time>
      </trkpt>
      <trkpt lat="45.94332" lon="4.71528">
        <ele>176</ele>
        <time>2018-10-12T10:44:39Z</time>
      </trkpt>
      <trkpt lat="45.94326" lon="4.7153">
        <ele>176</ele>
        <time>2018-10-12T10:44:40Z</time>
      </trkpt>
      <trkpt lat="45.9432" lon="4.71532">
        <ele>176</ele>
        <time>2018-10-12T10:44:41Z</time>
      </trkpt>
      <trkpt lat="45.94316" lon="4.71534">
        <ele>175</ele>
        <time>2018-10-12T10:44:42Z</time>
      </trkpt>
      <trkpt lat="45.9431" lon="4.71536">
        <ele>175</ele>
        <time>2018-10-12T10:44:43Z</time>
      </trkpt>
      <trkpt lat="45.94304" lon="4.71538">
        <ele>175</ele>
        <time>2018-10-12T10:44:44Z</time>
      </trkpt>
      <trkpt lat="45.943" lon="4.71541">
        <ele>175</ele>
        <time>2018-10-12T10:44:45Z</time>
      </trkpt>
      <trkpt lat="45.94295" lon="4.71543">
        <ele>175</ele>
        <time>2018-10-12T10:44:46Z</time>
      </trkpt>
      <trkpt lat="45.9429" lon="4.71545">
        <ele>175</ele>
        <time>2018-10-12T10:44:47Z</time>
      </trkpt>
      <trkpt lat="45.94285" lon="4.71545">
        <ele>175</ele>
        <time>2018-10-12T10:44:48Z</time>
      </trkpt>
      <trkpt lat="45.94279" lon="4.71546">
        <ele>175</ele>
        <time>2018-10-12T10:44:49Z</time>
      </trkpt>
      <trkpt lat="45.94274" lon="4.71548">
        <ele>175</ele>
        <time>2018-10-12T10:44:50Z</time>
      </trkpt>
      <trkpt lat="45.94269" lon="4.71549">
        <ele>175</ele>
        <time>2018-10-12T10:44:51Z</time>
      </trkpt>
      <trkpt lat="45.94264" lon="4.71551">
        <ele>175</ele>
        <time>2018-10-12T10:44:52Z</time>
      </trkpt>
      <trkpt lat="45.9426" lon="4.71552">
        <ele>175</ele>
        <time>2018-10-12T10:44:53Z</time>
      </trkpt>
      <trkpt lat="45.94254" lon="4.71554">
        <ele>175</ele>
        <time>2018-10-12T10:44:54Z</time>
      </trkpt>
      <trkpt lat="45.94249" lon="4.71556">
        <ele>174</ele>
        <time>2018-10-12T10:44:55Z</time>
      </trkpt>
      <trkpt lat="45.94244" lon="4.71558">
        <ele>174</ele>
        <time>2018-10-12T10:44:56Z</time>
      </trkpt>
      <trkpt lat="45.94239" lon="4.7156">
        <ele>174</ele>
        <time>2018-10-12T10:44:57Z</time>
      </trkpt>
      <trkpt lat="45.94233" lon="4.71562">
        <ele>174</ele>
        <time>2018-10-12T10:44:58Z</time>
      </trkpt>
      <trkpt lat="45.94228" lon="4.71564">
        <ele>174</ele>
        <time>2018-10-12T10:44:59Z</time>
      </trkpt>
      <trkpt lat="45.94223" lon="4.71566">
        <ele>174</ele>
        <time>2018-10-12T10:45:00Z</time>
      </trkpt>
      <trkpt lat="45.94219" lon="4.71568">
        <ele>174</ele>
        <time>2018-10-12T10:45:01Z</time>
      </trkpt>
      <trkpt lat="45.94215" lon="4.7157">
        <ele>174</ele>
        <time>2018-10-12T10:45:02Z</time>
      </trkpt>
      <trkpt lat="45.9421" lon="4.71572">
        <ele>174</ele>
        <time>2018-10-12T10:45:03Z</time>
      </trkpt>
      <trkpt lat="45.94202" lon="4.71575">
        <ele>174</ele>
        <time>2018-10-12T10:45:05Z</time>
      </trkpt>
      <trkpt lat="45.94198" lon="4.71577">
        <ele>174</ele>
        <time>2018-10-12T10:45:06Z</time>
      </trkpt>
      <trkpt lat="45.94194" lon="4.7158">
        <ele>174</ele>
        <time>2018-10-12T10:45:07Z</time>
      </trkpt>
      <trkpt lat="45.94189" lon="4.71582">
        <ele>174</ele>
        <time>2018-10-12T10:45:08Z</time>
      </trkpt>
      <trkpt lat="45.94184" lon="4.71584">
        <ele>173</ele>
        <time>2018-10-12T10:45:09Z</time>
      </trkpt>
      <trkpt lat="45.94179" lon="4.71586">
        <ele>174</ele>
        <time>2018-10-12T10:45:10Z</time>
      </trkpt>
      <trkpt lat="45.94176" lon="4.71589">
        <ele>174</ele>
        <time>2018-10-12T10:45:11Z</time>
      </trkpt>
      <trkpt lat="45.94171" lon="4.71591">
        <ele>174</ele>
        <time>2018-10-12T10:45:12Z</time>
      </trkpt>
      <trkpt lat="45.94165" lon="4.71593">
        <ele>174</ele>
        <time>2018-10-12T10:45:13Z</time>
      </trkpt>
      <trkpt lat="45.94161" lon="4.71595">
        <ele>173</ele>
        <time>2018-10-12T10:45:14Z</time>
      </trkpt>
      <trkpt lat="45.94156" lon="4.71596">
        <ele>173</ele>
        <time>2018-10-12T10:45:15Z</time>
      </trkpt>
      <trkpt lat="45.94151" lon="4.71598">
        <ele>173</ele>
        <time>2018-10-12T10:45:16Z</time>
      </trkpt>
      <trkpt lat="45.94146" lon="4.71601">
        <ele>173</ele>
        <time>2018-10-12T10:45:17Z</time>
      </trkpt>
      <trkpt lat="45.94142" lon="4.71603">
        <ele>173</ele>
        <time>2018-10-12T10:45:18Z</time>
      </trkpt>
      <trkpt lat="45.94137" lon="4.71604">
        <ele>173</ele>
        <time>2018-10-12T10:45:19Z</time>
      </trkpt>
      <trkpt lat="45.94133" lon="4.71606">
        <ele>173</ele>
        <time>2018-10-12T10:45:20Z</time>
      </trkpt>
      <trkpt lat="45.94129" lon="4.71607">
        <ele>173</ele>
        <time>2018-10-12T10:45:21Z</time>
      </trkpt>
      <trkpt lat="45.94123" lon="4.71609">
        <ele>173</ele>
        <time>2018-10-12T10:45:22Z</time>
      </trkpt>
      <trkpt lat="45.94118" lon="4.7161">
        <ele>173</ele>
        <time>2018-10-12T10:45:23Z</time>
      </trkpt>
      <trkpt lat="45.94113" lon="4.71612">
        <ele>173</ele>
        <time>2018-10-12T10:45:24Z</time>
      </trkpt>
      <trkpt lat="45.94108" lon="4.71613">
        <ele>173</ele>
        <time>2018-10-12T10:45:25Z</time>
      </trkpt>
      <trkpt lat="45.94103" lon="4.71615">
        <ele>173</ele>
        <time>2018-10-12T10:45:26Z</time>
      </trkpt>
      <trkpt lat="45.94098" lon="4.71619">
        <ele>173</ele>
        <time>2018-10-12T10:45:27Z</time>
      </trkpt>
      <trkpt lat="45.94093" lon="4.71621">
        <ele>173</ele>
        <time>2018-10-12T10:45:28Z</time>
      </trkpt>
      <trkpt lat="45.94088" lon="4.71623">
        <ele>173</ele>
        <time>2018-10-12T10:45:29Z</time>
      </trkpt>
      <trkpt lat="45.94084" lon="4.71625">
        <ele>173</ele>
        <time>2018-10-12T10:45:30Z</time>
      </trkpt>
      <trkpt lat="45.94079" lon="4.71627">
        <ele>174</ele>
        <time>2018-10-12T10:45:31Z</time>
      </trkpt>
      <trkpt lat="45.94075" lon="4.71628">
        <ele>174</ele>
        <time>2018-10-12T10:45:32Z</time>
      </trkpt>
      <trkpt lat="45.94066" lon="4.71631">
        <ele>174</ele>
        <time>2018-10-12T10:45:34Z</time>
      </trkpt>
      <trkpt lat="45.94063" lon="4.71632">
        <ele>174</ele>
        <time>2018-10-12T10:45:35Z</time>
      </trkpt>
      <trkpt lat="45.94055" lon="4.71634">
        <ele>174</ele>
        <time>2018-10-12T10:45:37Z</time>
      </trkpt>
      <trkpt lat="45.94051" lon="4.71635">
        <ele>175</ele>
        <time>2018-10-12T10:45:38Z</time>
      </trkpt>
      <trkpt lat="45.94043" lon="4.71638">
        <ele>175</ele>
        <time>2018-10-12T10:45:40Z</time>
      </trkpt>
      <trkpt lat="45.94038" lon="4.7164">
        <ele>175</ele>
        <time>2018-10-12T10:45:41Z</time>
      </trkpt>
      <trkpt lat="45.94034" lon="4.71641">
        <ele>175</ele>
        <time>2018-10-12T10:45:42Z</time>
      </trkpt>
      <trkpt lat="45.94029" lon="4.71643">
        <ele>175</ele>
        <time>2018-10-12T10:45:43Z</time>
      </trkpt>
      <trkpt lat="45.9402" lon="4.71648">
        <ele>175</ele>
        <time>2018-10-12T10:45:45Z</time>
      </trkpt>
      <trkpt lat="45.94017" lon="4.7165">
        <ele>176</ele>
        <time>2018-10-12T10:45:46Z</time>
      </trkpt>
      <trkpt lat="45.9401" lon="4.71655">
        <ele>176</ele>
        <time>2018-10-12T10:45:48Z</time>
      </trkpt>
      <trkpt lat="45.94006" lon="4.71658">
        <ele>176</ele>
        <time>2018-10-12T10:45:49Z</time>
      </trkpt>
      <trkpt lat="45.93997" lon="4.7166">
        <ele>177</ele>
        <time>2018-10-12T10:45:51Z</time>
      </trkpt>
      <trkpt lat="45.93992" lon="4.7166">
        <ele>177</ele>
        <time>2018-10-12T10:45:52Z</time>
      </trkpt>
      <trkpt lat="45.93987" lon="4.71661">
        <ele>177</ele>
        <time>2018-10-12T10:45:53Z</time>
      </trkpt>
      <trkpt lat="45.93983" lon="4.71662">
        <ele>177</ele>
        <time>2018-10-12T10:45:54Z</time>
      </trkpt>
      <trkpt lat="45.93977" lon="4.71664">
        <ele>177</ele>
        <time>2018-10-12T10:45:55Z</time>
      </trkpt>
      <trkpt lat="45.93972" lon="4.71666">
        <ele>177</ele>
        <time>2018-10-12T10:45:56Z</time>
      </trkpt>
      <trkpt lat="45.93967" lon="4.71668">
        <ele>175</ele>
        <time>2018-10-12T10:45:57Z</time>
      </trkpt>
      <trkpt lat="45.93962" lon="4.71669">
        <ele>175</ele>
        <time>2018-10-12T10:45:58Z</time>
      </trkpt>
      <trkpt lat="45.93954" lon="4.71672">
        <ele>175</ele>
        <time>2018-10-12T10:46:00Z</time>
      </trkpt>
      <trkpt lat="45.93949" lon="4.71674">
        <ele>175</ele>
        <time>2018-10-12T10:46:01Z</time>
      </trkpt>
      <trkpt lat="45.93941" lon="4.71677">
        <ele>175</ele>
        <time>2018-10-12T10:46:03Z</time>
      </trkpt>
      <trkpt lat="45.93936" lon="4.71679">
        <ele>175</ele>
        <time>2018-10-12T10:46:04Z</time>
      </trkpt>
      <trkpt lat="45.93931" lon="4.71681">
        <ele>175</ele>
        <time>2018-10-12T10:46:05Z</time>
      </trkpt>
      <trkpt lat="45.93926" lon="4.71683">
        <ele>175</ele>
        <time>2018-10-12T10:46:06Z</time>
      </trkpt>
      <trkpt lat="45.93921" lon="4.71685">
        <ele>175</ele>
        <time>2018-10-12T10:46:07Z</time>
      </trkpt>
      <trkpt lat="45.93917" lon="4.71687">
        <ele>175</ele>
        <time>2018-10-12T10:46:08Z</time>
      </trkpt>
      <trkpt lat="45.93913" lon="4.71688">
        <ele>174</ele>
        <time>2018-10-12T10:46:09Z</time>
      </trkpt>
      <trkpt lat="45.93907" lon="4.71691">
        <ele>174</ele>
        <time>2018-10-12T10:46:10Z</time>
      </trkpt>
      <trkpt lat="45.93902" lon="4.71693">
        <ele>174</ele>
        <time>2018-10-12T10:46:11Z</time>
      </trkpt>
      <trkpt lat="45.93897" lon="4.71695">
        <ele>174</ele>
        <time>2018-10-12T10:46:12Z</time>
      </trkpt>
      <trkpt lat="45.93892" lon="4.71697">
        <ele>174</ele>
        <time>2018-10-12T10:46:13Z</time>
      </trkpt>
      <trkpt lat="45.93887" lon="4.71699">
        <ele>174</ele>
        <time>2018-10-12T10:46:14Z</time>
      </trkpt>
      <trkpt lat="45.93882" lon="4.71701">
        <ele>174</ele>
        <time>2018-10-12T10:46:15Z</time>
      </trkpt>
      <trkpt lat="45.93877" lon="4.71702">
        <ele>174</ele>
        <time>2018-10-12T10:46:16Z</time>
      </trkpt>
      <trkpt lat="45.93872" lon="4.71704">
        <ele>174</ele>
        <time>2018-10-12T10:46:17Z</time>
      </trkpt>
      <trkpt lat="45.93867" lon="4.71706">
        <ele>174</ele>
        <time>2018-10-12T10:46:18Z</time>
      </trkpt>
      <trkpt lat="45.93862" lon="4.71707">
        <ele>174</ele>
        <time>2018-10-12T10:46:19Z</time>
      </trkpt>
      <trkpt lat="45.93857" lon="4.71709">
        <ele>174</ele>
        <time>2018-10-12T10:46:20Z</time>
      </trkpt>
      <trkpt lat="45.93853" lon="4.7171">
        <ele>174</ele>
        <time>2018-10-12T10:46:21Z</time>
      </trkpt>
      <trkpt lat="45.93848" lon="4.71712">
        <ele>174</ele>
        <time>2018-10-12T10:46:22Z</time>
      </trkpt>
      <trkpt lat="45.9384" lon="4.71716">
        <ele>175</ele>
        <time>2018-10-12T10:46:24Z</time>
      </trkpt>
      <trkpt lat="45.93835" lon="4.71717">
        <ele>175</ele>
        <time>2018-10-12T10:46:25Z</time>
      </trkpt>
      <trkpt lat="45.93827" lon="4.71719">
        <ele>175</ele>
        <time>2018-10-12T10:46:27Z</time>
      </trkpt>
      <trkpt lat="45.93821" lon="4.71722">
        <ele>175</ele>
        <time>2018-10-12T10:46:28Z</time>
      </trkpt>
      <trkpt lat="45.93815" lon="4.71725">
        <ele>175</ele>
        <time>2018-10-12T10:46:29Z</time>
      </trkpt>
      <trkpt lat="45.93811" lon="4.71725">
        <ele>175</ele>
        <time>2018-10-12T10:46:30Z</time>
      </trkpt>
      <trkpt lat="45.93805" lon="4.71727">
        <ele>175</ele>
        <time>2018-10-12T10:46:31Z</time>
      </trkpt>
      <trkpt lat="45.938" lon="4.71729">
        <ele>175</ele>
        <time>2018-10-12T10:46:32Z</time>
      </trkpt>
      <trkpt lat="45.93796" lon="4.71731">
        <ele>175</ele>
        <time>2018-10-12T10:46:33Z</time>
      </trkpt>
      <trkpt lat="45.93791" lon="4.71733">
        <ele>175</ele>
        <time>2018-10-12T10:46:34Z</time>
      </trkpt>
      <trkpt lat="45.93787" lon="4.71736">
        <ele>175</ele>
        <time>2018-10-12T10:46:35Z</time>
      </trkpt>
      <trkpt lat="45.93782" lon="4.71739">
        <ele>175</ele>
        <time>2018-10-12T10:46:36Z</time>
      </trkpt>
      <trkpt lat="45.93777" lon="4.71741">
        <ele>175</ele>
        <time>2018-10-12T10:46:37Z</time>
      </trkpt>
      <trkpt lat="45.93773" lon="4.71743">
        <ele>175</ele>
        <time>2018-10-12T10:46:38Z</time>
      </trkpt>
      <trkpt lat="45.93768" lon="4.71745">
        <ele>175</ele>
        <time>2018-10-12T10:46:39Z</time>
      </trkpt>
      <trkpt lat="45.93763" lon="4.71746">
        <ele>175</ele>
        <time>2018-10-12T10:46:40Z</time>
      </trkpt>
      <trkpt lat="45.93758" lon="4.71749">
        <ele>175</ele>
        <time>2018-10-12T10:46:41Z</time>
      </trkpt>
      <trkpt lat="45.93752" lon="4.71751">
        <ele>175</ele>
        <time>2018-10-12T10:46:42Z</time>
      </trkpt>
      <trkpt lat="45.93746" lon="4.71753">
        <ele>175</ele>
        <time>2018-10-12T10:46:43Z</time>
      </trkpt>
      <trkpt lat="45.93741" lon="4.71754">
        <ele>175</ele>
        <time>2018-10-12T10:46:44Z</time>
      </trkpt>
      <trkpt lat="45.93737" lon="4.71758">
        <ele>176</ele>
        <time>2018-10-12T10:46:45Z</time>
      </trkpt>
      <trkpt lat="45.93733" lon="4.7176">
        <ele>176</ele>
        <time>2018-10-12T10:46:46Z</time>
      </trkpt>
      <trkpt lat="45.93724" lon="4.71764">
        <ele>176</ele>
        <time>2018-10-12T10:46:50Z</time>
      </trkpt>
      <trkpt lat="45.93723" lon="4.71765">
        <ele>176</ele>
        <time>2018-10-12T10:46:51Z</time>
      </trkpt>
      <trkpt lat="45.93718" lon="4.71774">
        <ele>176</ele>
        <time>2018-10-12T10:47:06Z</time>
      </trkpt>
      <trkpt lat="45.93717" lon="4.71777">
        <ele>176</ele>
        <time>2018-10-12T10:47:07Z</time>
      </trkpt>
      <trkpt lat="45.93713" lon="4.71785">
        <ele>176</ele>
        <time>2018-10-12T10:47:09Z</time>
      </trkpt>
      <trkpt lat="45.93712" lon="4.71789">
        <ele>176</ele>
        <time>2018-10-12T10:47:10Z</time>
      </trkpt>
      <trkpt lat="45.9371" lon="4.71798">
        <ele>176</ele>
        <time>2018-10-12T10:47:11Z</time>
      </trkpt>
      <trkpt lat="45.93709" lon="4.71803">
        <ele>176</ele>
        <time>2018-10-12T10:47:12Z</time>
      </trkpt>
      <trkpt lat="45.93706" lon="4.71815">
        <ele>176</ele>
        <time>2018-10-12T10:47:14Z</time>
      </trkpt>
      <trkpt lat="45.93704" lon="4.7182">
        <ele>176</ele>
        <time>2018-10-12T10:47:15Z</time>
      </trkpt>
      <trkpt lat="45.93702" lon="4.71825">
        <ele>176</ele>
        <time>2018-10-12T10:47:16Z</time>
      </trkpt>
      <trkpt lat="45.937" lon="4.71832">
        <ele>176</ele>
        <time>2018-10-12T10:47:17Z</time>
      </trkpt>
      <trkpt lat="45.93698" lon="4.71838">
        <ele>175</ele>
        <time>2018-10-12T10:47:18Z</time>
      </trkpt>
      <trkpt lat="45.93696" lon="4.71844">
        <ele>175</ele>
        <time>2018-10-12T10:47:19Z</time>
      </trkpt>
      <trkpt lat="45.93691" lon="4.71855">
        <ele>175</ele>
        <time>2018-10-12T10:47:21Z</time>
      </trkpt>
      <trkpt lat="45.93689" lon="4.71861">
        <ele>175</ele>
        <time>2018-10-12T10:47:22Z</time>
      </trkpt>
      <trkpt lat="45.93686" lon="4.71868">
        <ele>175</ele>
        <time>2018-10-12T10:47:24Z</time>
      </trkpt>
      <trkpt lat="45.93684" lon="4.71872">
        <ele>175</ele>
        <time>2018-10-12T10:47:25Z</time>
      </trkpt>
      <trkpt lat="45.93681" lon="4.71882">
        <ele>175</ele>
        <time>2018-10-12T10:47:26Z</time>
      </trkpt>
      <trkpt lat="45.9368" lon="4.71885">
        <ele>175</ele>
        <time>2018-10-12T10:47:27Z</time>
      </trkpt>
      <trkpt lat="45.93677" lon="4.71891">
        <ele>175</ele>
        <time>2018-10-12T10:47:28Z</time>
      </trkpt>
      <trkpt lat="45.93675" lon="4.71896">
        <ele>175</ele>
        <time>2018-10-12T10:47:29Z</time>
      </trkpt>
      <trkpt lat="45.93672" lon="4.71904">
        <ele>175</ele>
        <time>2018-10-12T10:47:32Z</time>
      </trkpt>
      <trkpt lat="45.9367" lon="4.71908">
        <ele>175</ele>
        <time>2018-10-12T10:47:33Z</time>
      </trkpt>
      <trkpt lat="45.93668" lon="4.71911">
        <ele>175</ele>
        <time>2018-10-12T10:47:34Z</time>
      </trkpt>
      <trkpt lat="45.93664" lon="4.71919">
        <ele>175</ele>
        <time>2018-10-12T10:47:35Z</time>
      </trkpt>
      <trkpt lat="45.93661" lon="4.71929">
        <ele>175</ele>
        <time>2018-10-12T10:47:37Z</time>
      </trkpt>
      <trkpt lat="45.93658" lon="4.71937">
        <ele>175</ele>
        <time>2018-10-12T10:47:38Z</time>
      </trkpt>
      <trkpt lat="45.93655" lon="4.71944">
        <ele>175</ele>
        <time>2018-10-12T10:47:39Z</time>
      </trkpt>
      <trkpt lat="45.93653" lon="4.71951">
        <ele>175</ele>
        <time>2018-10-12T10:47:40Z</time>
      </trkpt>
      <trkpt lat="45.9365" lon="4.71958">
        <ele>175</ele>
        <time>2018-10-12T10:47:41Z</time>
      </trkpt>
      <trkpt lat="45.93648" lon="4.71964">
        <ele>175</ele>
        <time>2018-10-12T10:47:42Z</time>
      </trkpt>
      <trkpt lat="45.93646" lon="4.71971">
        <ele>175</ele>
        <time>2018-10-12T10:47:43Z</time>
      </trkpt>
      <trkpt lat="45.93643" lon="4.71977">
        <ele>175</ele>
        <time>2018-10-12T10:47:44Z</time>
      </trkpt>
      <trkpt lat="45.9364" lon="4.71983">
        <ele>175</ele>
        <time>2018-10-12T10:47:45Z</time>
      </trkpt>
      <trkpt lat="45.93637" lon="4.7199">
        <ele>175</ele>
        <time>2018-10-12T10:47:46Z</time>
      </trkpt>
      <trkpt lat="45.93635" lon="4.71997">
        <ele>175</ele>
        <time>2018-10-12T10:47:47Z</time>
      </trkpt>
      <trkpt lat="45.93632" lon="4.72004">
        <ele>174</ele>
        <time>2018-10-12T10:47:48Z</time>
      </trkpt>
      <trkpt lat="45.93629" lon="4.72011">
        <ele>175</ele>
        <time>2018-10-12T10:47:49Z</time>
      </trkpt>
      <trkpt lat="45.93626" lon="4.72018">
        <ele>175</ele>
        <time>2018-10-12T10:47:50Z</time>
      </trkpt>
      <trkpt lat="45.93623" lon="4.72026">
        <ele>175</ele>
        <time>2018-10-12T10:47:51Z</time>
      </trkpt>
      <trkpt lat="45.93623" lon="4.72033">
        <ele>175</ele>
        <time>2018-10-12T10:47:52Z</time>
      </trkpt>
      <trkpt lat="45.93619" lon="4.72042">
        <ele>175</ele>
        <time>2018-10-12T10:47:53Z</time>
      </trkpt>
      <trkpt lat="45.93616" lon="4.72049">
        <ele>175</ele>
        <time>2018-10-12T10:47:54Z</time>
      </trkpt>
      <trkpt lat="45.93613" lon="4.72055">
        <ele>175</ele>
        <time>2018-10-12T10:47:55Z</time>
      </trkpt>
      <trkpt lat="45.93609" lon="4.72062">
        <ele>175</ele>
        <time>2018-10-12T10:47:56Z</time>
      </trkpt>
      <trkpt lat="45.93607" lon="4.7207">
        <ele>175</ele>
        <time>2018-10-12T10:47:57Z</time>
      </trkpt>
      <trkpt lat="45.93604" lon="4.72076">
        <ele>175</ele>
        <time>2018-10-12T10:47:58Z</time>
      </trkpt>
      <trkpt lat="45.93602" lon="4.72084">
        <ele>175</ele>
        <time>2018-10-12T10:47:59Z</time>
      </trkpt>
      <trkpt lat="45.936" lon="4.7209">
        <ele>175</ele>
        <time>2018-10-12T10:48:00Z</time>
      </trkpt>
      <trkpt lat="45.93598" lon="4.72096">
        <ele>174</ele>
        <time>2018-10-12T10:48:01Z</time>
      </trkpt>
      <trkpt lat="45.93596" lon="4.72101">
        <ele>174</ele>
        <time>2018-10-12T10:48:02Z</time>
      </trkpt>
      <trkpt lat="45.93594" lon="4.72108">
        <ele>174</ele>
        <time>2018-10-12T10:48:03Z</time>
      </trkpt>
      <trkpt lat="45.93592" lon="4.72113">
        <ele>174</ele>
        <time>2018-10-12T10:48:04Z</time>
      </trkpt>
      <trkpt lat="45.93586" lon="4.72123">
        <ele>174</ele>
        <time>2018-10-12T10:48:06Z</time>
      </trkpt>
      <trkpt lat="45.93583" lon="4.72129">
        <ele>174</ele>
        <time>2018-10-12T10:48:07Z</time>
      </trkpt>
      <trkpt lat="45.9358" lon="4.72133">
        <ele>174</ele>
        <time>2018-10-12T10:48:08Z</time>
      </trkpt>
      <trkpt lat="45.93576" lon="4.72139">
        <ele>174</ele>
        <time>2018-10-12T10:48:09Z</time>
      </trkpt>
      <trkpt lat="45.93574" lon="4.72147">
        <ele>174</ele>
        <time>2018-10-12T10:48:10Z</time>
      </trkpt>
      <trkpt lat="45.93573" lon="4.72154">
        <ele>174</ele>
        <time>2018-10-12T10:48:11Z</time>
      </trkpt>
      <trkpt lat="45.93571" lon="4.72161">
        <ele>174</ele>
        <time>2018-10-12T10:48:12Z</time>
      </trkpt>
      <trkpt lat="45.93568" lon="4.72168">
        <ele>173</ele>
        <time>2018-10-12T10:48:13Z</time>
      </trkpt>
      <trkpt lat="45.93566" lon="4.72174">
        <ele>173</ele>
        <time>2018-10-12T10:48:14Z</time>
      </trkpt>
      <trkpt lat="45.93564" lon="4.72182">
        <ele>173</ele>
        <time>2018-10-12T10:48:15Z</time>
      </trkpt>
      <trkpt lat="45.93561" lon="4.72188">
        <ele>173</ele>
        <time>2018-10-12T10:48:16Z</time>
      </trkpt>
      <trkpt lat="45.9356" lon="4.72196">
        <ele>173</ele>
        <time>2018-10-12T10:48:17Z</time>
      </trkpt>
      <trkpt lat="45.93557" lon="4.72202">
        <ele>173</ele>
        <time>2018-10-12T10:48:18Z</time>
      </trkpt>
      <trkpt lat="45.93554" lon="4.72209">
        <ele>173</ele>
        <time>2018-10-12T10:48:19Z</time>
      </trkpt>
      <trkpt lat="45.93551" lon="4.72216">
        <ele>173</ele>
        <time>2018-10-12T10:48:20Z</time>
      </trkpt>
      <trkpt lat="45.9355" lon="4.72222">
        <ele>172</ele>
        <time>2018-10-12T10:48:21Z</time>
      </trkpt>
      <trkpt lat="45.93546" lon="4.72233">
        <ele>172</ele>
        <time>2018-10-12T10:48:23Z</time>
      </trkpt>
      <trkpt lat="45.93543" lon="4.72239">
        <ele>172</ele>
        <time>2018-10-12T10:48:24Z</time>
      </trkpt>
      <trkpt lat="45.93542" lon="4.72246">
        <ele>172</ele>
        <time>2018-10-12T10:48:25Z</time>
      </trkpt>
      <trkpt lat="45.9354" lon="4.72252">
        <ele>172</ele>
        <time>2018-10-12T10:48:26Z</time>
      </trkpt>
      <trkpt lat="45.93538" lon="4.72258">
        <ele>172</ele>
        <time>2018-10-12T10:48:27Z</time>
      </trkpt>
      <trkpt lat="45.93535" lon="4.72263">
        <ele>172</ele>
        <time>2018-10-12T10:48:28Z</time>
      </trkpt>
      <trkpt lat="45.93532" lon="4.7227">
        <ele>172</ele>
        <time>2018-10-12T10:48:29Z</time>
      </trkpt>
      <trkpt lat="45.9353" lon="4.72277">
        <ele>172</ele>
        <time>2018-10-12T10:48:30Z</time>
      </trkpt>
      <trkpt lat="45.93527" lon="4.72283">
        <ele>172</ele>
        <time>2018-10-12T10:48:31Z</time>
      </trkpt>
      <trkpt lat="45.93524" lon="4.7229">
        <ele>172</ele>
        <time>2018-10-12T10:48:32Z</time>
      </trkpt>
      <trkpt lat="45.93521" lon="4.72297">
        <ele>172</ele>
        <time>2018-10-12T10:48:33Z</time>
      </trkpt>
      <trkpt lat="45.93517" lon="4.72303">
        <ele>173</ele>
        <time>2018-10-12T10:48:34Z</time>
      </trkpt>
      <trkpt lat="45.93513" lon="4.72309">
        <ele>173</ele>
        <time>2018-10-12T10:48:35Z</time>
      </trkpt>
      <trkpt lat="45.93509" lon="4.72314">
        <ele>173</ele>
        <time>2018-10-12T10:48:36Z</time>
      </trkpt>
      <trkpt lat="45.93504" lon="4.72319">
        <ele>173</ele>
        <time>2018-10-12T10:48:37Z</time>
      </trkpt>
      <trkpt lat="45.935" lon="4.72324">
        <ele>173</ele>
        <time>2018-10-12T10:48:38Z</time>
      </trkpt>
      <trkpt lat="45.93496" lon="4.72329">
        <ele>173</ele>
        <time>2018-10-12T10:48:39Z</time>
      </trkpt>
      <trkpt lat="45.93492" lon="4.72334">
        <ele>173</ele>
        <time>2018-10-12T10:48:40Z</time>
      </trkpt>
      <trkpt lat="45.93488" lon="4.72339">
        <ele>173</ele>
        <time>2018-10-12T10:48:41Z</time>
      </trkpt>
      <trkpt lat="45.93484" lon="4.72344">
        <ele>173</ele>
        <time>2018-10-12T10:48:42Z</time>
      </trkpt>
      <trkpt lat="45.93481" lon="4.72348">
        <ele>173</ele>
        <time>2018-10-12T10:48:43Z</time>
      </trkpt>
      <trkpt lat="45.93477" lon="4.72352">
        <ele>173</ele>
        <time>2018-10-12T10:48:44Z</time>
      </trkpt>
      <trkpt lat="45.93474" lon="4.72358">
        <ele>173</ele>
        <time>2018-10-12T10:48:45Z</time>
      </trkpt>
      <trkpt lat="45.93471" lon="4.72362">
        <ele>173</ele>
        <time>2018-10-12T10:48:46Z</time>
      </trkpt>
      <trkpt lat="45.93466" lon="4.72372">
        <ele>173</ele>
        <time>2018-10-12T10:48:48Z</time>
      </trkpt>
      <trkpt lat="45.93462" lon="4.72378">
        <ele>173</ele>
        <time>2018-10-12T10:48:49Z</time>
      </trkpt>
      <trkpt lat="45.93459" lon="4.72384">
        <ele>173</ele>
        <time>2018-10-12T10:48:50Z</time>
      </trkpt>
      <trkpt lat="45.93455" lon="4.72387">
        <ele>173</ele>
        <time>2018-10-12T10:48:51Z</time>
      </trkpt>
      <trkpt lat="45.9345" lon="4.72392">
        <ele>173</ele>
        <time>2018-10-12T10:48:52Z</time>
      </trkpt>
      <trkpt lat="45.93446" lon="4.72395">
        <ele>173</ele>
        <time>2018-10-12T10:48:53Z</time>
      </trkpt>
      <trkpt lat="45.93441" lon="4.72399">
        <ele>173</ele>
        <time>2018-10-12T10:48:54Z</time>
      </trkpt>
      <trkpt lat="45.93436" lon="4.72402">
        <ele>174</ele>
        <time>2018-10-12T10:48:55Z</time>
      </trkpt>
      <trkpt lat="45.9343" lon="4.72404">
        <ele>174</ele>
        <time>2018-10-12T10:48:56Z</time>
      </trkpt>
      <trkpt lat="45.93424" lon="4.72406">
        <ele>174</ele>
        <time>2018-10-12T10:48:57Z</time>
      </trkpt>
      <trkpt lat="45.93419" lon="4.72408">
        <ele>174</ele>
        <time>2018-10-12T10:48:58Z</time>
      </trkpt>
      <trkpt lat="45.93414" lon="4.72409">
        <ele>174</ele>
        <time>2018-10-12T10:48:59Z</time>
      </trkpt>
      <trkpt lat="45.93409" lon="4.72411">
        <ele>174</ele>
        <time>2018-10-12T10:49:00Z</time>
      </trkpt>
      <trkpt lat="45.93404" lon="4.72411">
        <ele>174</ele>
        <time>2018-10-12T10:49:01Z</time>
      </trkpt>
      <trkpt lat="45.93395" lon="4.72411">
        <ele>174</ele>
        <time>2018-10-12T10:49:03Z</time>
      </trkpt>
      <trkpt lat="45.93391" lon="4.72415">
        <ele>174</ele>
        <time>2018-10-12T10:49:04Z</time>
      </trkpt>
      <trkpt lat="45.93386" lon="4.72425">
        <ele>173</ele>
        <time>2018-10-12T10:49:06Z</time>
      </trkpt>
      <trkpt lat="45.93386" lon="4.7243">
        <ele>173</ele>
        <time>2018-10-12T10:49:07Z</time>
      </trkpt>
      <trkpt lat="45.93388" lon="4.72437">
        <ele>173</ele>
        <time>2018-10-12T10:49:08Z</time>
      </trkpt>
      <trkpt lat="45.93389" lon="4.72443">
        <ele>173</ele>
        <time>2018-10-12T10:49:09Z</time>
      </trkpt>
      <trkpt lat="45.93392" lon="4.7245">
        <ele>173</ele>
        <time>2018-10-12T10:49:10Z</time>
      </trkpt>
      <trkpt lat="45.93392" lon="4.72456">
        <ele>173</ele>
        <time>2018-10-12T10:49:11Z</time>
      </trkpt>
      <trkpt lat="45.93391" lon="4.72463">
        <ele>173</ele>
        <time>2018-10-12T10:49:12Z</time>
      </trkpt>
      <trkpt lat="45.93389" lon="4.72469">
        <ele>173</ele>
        <time>2018-10-12T10:49:13Z</time>
      </trkpt>
      <trkpt lat="45.93383" lon="4.72478">
        <ele>173</ele>
        <time>2018-10-12T10:49:15Z</time>
      </trkpt>
      <trkpt lat="45.93379" lon="4.72482">
        <ele>173</ele>
        <time>2018-10-12T10:49:16Z</time>
      </trkpt>
      <trkpt lat="45.93376" lon="4.72487">
        <ele>173</ele>
        <time>2018-10-12T10:49:17Z</time>
      </trkpt>
      <trkpt lat="45.93372" lon="4.72492">
        <ele>173</ele>
        <time>2018-10-12T10:49:18Z</time>
      </trkpt>
      <trkpt lat="45.93368" lon="4.72497">
        <ele>173</ele>
        <time>2018-10-12T10:49:19Z</time>
      </trkpt>
      <trkpt lat="45.93364" lon="4.72501">
        <ele>172</ele>
        <time>2018-10-12T10:49:20Z</time>
      </trkpt>
      <trkpt lat="45.9336" lon="4.72506">
        <ele>172</ele>
        <time>2018-10-12T10:49:21Z</time>
      </trkpt>
      <trkpt lat="45.93356" lon="4.7251">
        <ele>172</ele>
        <time>2018-10-12T10:49:22Z</time>
      </trkpt>
      <trkpt lat="45.9335" lon="4.72518">
        <ele>172</ele>
        <time>2018-10-12T10:49:24Z</time>
      </trkpt>
      <trkpt lat="45.93346" lon="4.72522">
        <ele>172</ele>
        <time>2018-10-12T10:49:25Z</time>
      </trkpt>
      <trkpt lat="45.93342" lon="4.72526">
        <ele>172</ele>
        <time>2018-10-12T10:49:26Z</time>
      </trkpt>
      <trkpt lat="45.93339" lon="4.7253">
        <ele>172</ele>
        <time>2018-10-12T10:49:27Z</time>
      </trkpt>
      <trkpt lat="45.93333" lon="4.72538">
        <ele>172</ele>
        <time>2018-10-12T10:49:29Z</time>
      </trkpt>
      <trkpt lat="45.9333" lon="4.72541">
        <ele>172</ele>
        <time>2018-10-12T10:49:30Z</time>
      </trkpt>
      <trkpt lat="45.93327" lon="4.72544">
        <ele>172</ele>
        <time>2018-10-12T10:49:31Z</time>
      </trkpt>
      <trkpt lat="45.93323" lon="4.72549">
        <ele>172</ele>
        <time>2018-10-12T10:49:32Z</time>
      </trkpt>
      <trkpt lat="45.93318" lon="4.72553">
        <ele>172</ele>
        <time>2018-10-12T10:49:33Z</time>
      </trkpt>
      <trkpt lat="45.93315" lon="4.72558">
        <ele>171</ele>
        <time>2018-10-12T10:49:34Z</time>
      </trkpt>
      <trkpt lat="45.93311" lon="4.72562">
        <ele>171</ele>
        <time>2018-10-12T10:49:35Z</time>
      </trkpt>
      <trkpt lat="45.93307" lon="4.72568">
        <ele>171</ele>
        <time>2018-10-12T10:49:36Z</time>
      </trkpt>
      <trkpt lat="45.93303" lon="4.72572">
        <ele>171</ele>
        <time>2018-10-12T10:49:37Z</time>
      </trkpt>
      <trkpt lat="45.93299" lon="4.72577">
        <ele>171</ele>
        <time>2018-10-12T10:49:38Z</time>
      </trkpt>
      <trkpt lat="45.93294" lon="4.72581">
        <ele>171</ele>
        <time>2018-10-12T10:49:39Z</time>
      </trkpt>
      <trkpt lat="45.93291" lon="4.72586">
        <ele>170</ele>
        <time>2018-10-12T10:49:40Z</time>
      </trkpt>
      <trkpt lat="45.93287" lon="4.7259">
        <ele>170</ele>
        <time>2018-10-12T10:49:41Z</time>
      </trkpt>
      <trkpt lat="45.93284" lon="4.72594">
        <ele>170</ele>
        <time>2018-10-12T10:49:42Z</time>
      </trkpt>
      <trkpt lat="45.93281" lon="4.72599">
        <ele>170</ele>
        <time>2018-10-12T10:49:43Z</time>
      </trkpt>
      <trkpt lat="45.93278" lon="4.72604">
        <ele>170</ele>
        <time>2018-10-12T10:49:44Z</time>
      </trkpt>
      <trkpt lat="45.93271" lon="4.72611">
        <ele>170</ele>
        <time>2018-10-12T10:49:46Z</time>
      </trkpt>
      <trkpt lat="45.93267" lon="4.72615">
        <ele>170</ele>
        <time>2018-10-12T10:49:47Z</time>
      </trkpt>
      <trkpt lat="45.93264" lon="4.7262">
        <ele>170</ele>
        <time>2018-10-12T10:49:48Z</time>
      </trkpt>
      <trkpt lat="45.9326" lon="4.72624">
        <ele>170</ele>
        <time>2018-10-12T10:49:49Z</time>
      </trkpt>
      <trkpt lat="45.93256" lon="4.72629">
        <ele>170</ele>
        <time>2018-10-12T10:49:50Z</time>
      </trkpt>
      <trkpt lat="45.93252" lon="4.72635">
        <ele>170</ele>
        <time>2018-10-12T10:49:51Z</time>
      </trkpt>
      <trkpt lat="45.93248" lon="4.7264">
        <ele>170</ele>
        <time>2018-10-12T10:49:52Z</time>
      </trkpt>
      <trkpt lat="45.93243" lon="4.72644">
        <ele>170</ele>
        <time>2018-10-12T10:49:53Z</time>
      </trkpt>
      <trkpt lat="45.93236" lon="4.72651">
        <ele>169</ele>
        <time>2018-10-12T10:49:55Z</time>
      </trkpt>
      <trkpt lat="45.93233" lon="4.72655">
        <ele>169</ele>
        <time>2018-10-12T10:49:56Z</time>
      </trkpt>
      <trkpt lat="45.93226" lon="4.72662">
        <ele>170</ele>
        <time>2018-10-12T10:49:58Z</time>
      </trkpt>
      <trkpt lat="45.93223" lon="4.72665">
        <ele>170</ele>
        <time>2018-10-12T10:49:59Z</time>
      </trkpt>
      <trkpt lat="45.93218" lon="4.72672">
        <ele>169</ele>
        <time>2018-10-12T10:50:01Z</time>
      </trkpt>
      <trkpt lat="45.93215" lon="4.72675">
        <ele>169</ele>
        <time>2018-10-12T10:50:02Z</time>
      </trkpt>
      <trkpt lat="45.93208" lon="4.72682">
        <ele>169</ele>
        <time>2018-10-12T10:50:04Z</time>
      </trkpt>
      <trkpt lat="45.93204" lon="4.72686">
        <ele>169</ele>
        <time>2018-10-12T10:50:05Z</time>
      </trkpt>
      <trkpt lat="45.932" lon="4.72691">
        <ele>169</ele>
        <time>2018-10-12T10:50:06Z</time>
      </trkpt>
      <trkpt lat="45.93196" lon="4.72695">
        <ele>169</ele>
        <time>2018-10-12T10:50:07Z</time>
      </trkpt>
      <trkpt lat="45.93193" lon="4.72699">
        <ele>169</ele>
        <time>2018-10-12T10:50:08Z</time>
      </trkpt>
      <trkpt lat="45.9319" lon="4.72704">
        <ele>169</ele>
        <time>2018-10-12T10:50:09Z</time>
      </trkpt>
      <trkpt lat="45.93185" lon="4.72709">
        <ele>169</ele>
        <time>2018-10-12T10:50:10Z</time>
      </trkpt>
      <trkpt lat="45.93182" lon="4.72713">
        <ele>169</ele>
        <time>2018-10-12T10:50:11Z</time>
      </trkpt>
      <trkpt lat="45.93178" lon="4.72719">
        <ele>169</ele>
        <time>2018-10-12T10:50:12Z</time>
      </trkpt>
      <trkpt lat="45.93173" lon="4.72724">
        <ele>170</ele>
        <time>2018-10-12T10:50:13Z</time>
      </trkpt>
      <trkpt lat="45.93169" lon="4.72729">
        <ele>170</ele>
        <time>2018-10-12T10:50:14Z</time>
      </trkpt>
      <trkpt lat="45.93164" lon="4.72734">
        <ele>170</ele>
        <time>2018-10-12T10:50:15Z</time>
      </trkpt>
      <trkpt lat="45.93159" lon="4.72738">
        <ele>170</ele>
        <time>2018-10-12T10:50:16Z</time>
      </trkpt>
      <trkpt lat="45.93154" lon="4.72743">
        <ele>170</ele>
        <time>2018-10-12T10:50:17Z</time>
      </trkpt>
      <trkpt lat="45.9315" lon="4.72747">
        <ele>170</ele>
        <time>2018-10-12T10:50:18Z</time>
      </trkpt>
      <trkpt lat="45.93147" lon="4.72751">
        <ele>170</ele>
        <time>2018-10-12T10:50:19Z</time>
      </trkpt>
      <trkpt lat="45.93144" lon="4.72755">
        <ele>171</ele>
        <time>2018-10-12T10:50:20Z</time>
      </trkpt>
      <trkpt lat="45.9314" lon="4.7276">
        <ele>171</ele>
        <time>2018-10-12T10:50:21Z</time>
      </trkpt>
      <trkpt lat="45.93136" lon="4.72765">
        <ele>171</ele>
        <time>2018-10-12T10:50:22Z</time>
      </trkpt>
      <trkpt lat="45.93132" lon="4.7277">
        <ele>171</ele>
        <time>2018-10-12T10:50:23Z</time>
      </trkpt>
      <trkpt lat="45.93128" lon="4.72775">
        <ele>171</ele>
        <time>2018-10-12T10:50:24Z</time>
      </trkpt>
      <trkpt lat="45.93124" lon="4.7278">
        <ele>171</ele>
        <time>2018-10-12T10:50:25Z</time>
      </trkpt>
      <trkpt lat="45.9312" lon="4.72785">
        <ele>171</ele>
        <time>2018-10-12T10:50:26Z</time>
      </trkpt>
      <trkpt lat="45.93117" lon="4.72791">
        <ele>171</ele>
        <time>2018-10-12T10:50:27Z</time>
      </trkpt>
      <trkpt lat="45.93112" lon="4.72796">
        <ele>171</ele>
        <time>2018-10-12T10:50:28Z</time>
      </trkpt>
      <trkpt lat="45.93108" lon="4.72801">
        <ele>171</ele>
        <time>2018-10-12T10:50:29Z</time>
      </trkpt>
      <trkpt lat="45.93104" lon="4.72806">
        <ele>171</ele>
        <time>2018-10-12T10:50:30Z</time>
      </trkpt>
      <trkpt lat="45.931" lon="4.72811">
        <ele>172</ele>
        <time>2018-10-12T10:50:31Z</time>
      </trkpt>
      <trkpt lat="45.93096" lon="4.72815">
        <ele>172</ele>
        <time>2018-10-12T10:50:32Z</time>
      </trkpt>
      <trkpt lat="45.93093" lon="4.72819">
        <ele>172</ele>
        <time>2018-10-12T10:50:33Z</time>
      </trkpt>
      <trkpt lat="45.93086" lon="4.72826">
        <ele>172</ele>
        <time>2018-10-12T10:50:35Z</time>
      </trkpt>
      <trkpt lat="45.93085" lon="4.72827">
        <ele>173</ele>
        <time>2018-10-12T10:50:36Z</time>
      </trkpt>
      <trkpt lat="45.93082" lon="4.72829">
        <ele>173</ele>
        <time>2018-10-12T10:50:41Z</time>
      </trkpt>
      <trkpt lat="45.93065" lon="4.72849">
        <ele>172</ele>
        <time>2018-10-12T10:50:43Z</time>
      </trkpt>
      <trkpt lat="45.93056" lon="4.72855">
        <ele>172</ele>
        <time>2018-10-12T10:50:44Z</time>
      </trkpt>
      <trkpt lat="45.93052" lon="4.72859">
        <ele>172</ele>
        <time>2018-10-12T10:50:45Z</time>
      </trkpt>
      <trkpt lat="45.93049" lon="4.72863">
        <ele>172</ele>
        <time>2018-10-12T10:50:46Z</time>
      </trkpt>
      <trkpt lat="45.93045" lon="4.72868">
        <ele>172</ele>
        <time>2018-10-12T10:50:47Z</time>
      </trkpt>
      <trkpt lat="45.93042" lon="4.72872">
        <ele>172</ele>
        <time>2018-10-12T10:50:48Z</time>
      </trkpt>
      <trkpt lat="45.93038" lon="4.72876">
        <ele>172</ele>
        <time>2018-10-12T10:50:49Z</time>
      </trkpt>
      <trkpt lat="45.93035" lon="4.72881">
        <ele>172</ele>
        <time>2018-10-12T10:50:50Z</time>
      </trkpt>
      <trkpt lat="45.93031" lon="4.72886">
        <ele>172</ele>
        <time>2018-10-12T10:50:51Z</time>
      </trkpt>
      <trkpt lat="45.93027" lon="4.7289">
        <ele>172</ele>
        <time>2018-10-12T10:50:52Z</time>
      </trkpt>
      <trkpt lat="45.93023" lon="4.72894">
        <ele>172</ele>
        <time>2018-10-12T10:50:53Z</time>
      </trkpt>
      <trkpt lat="45.9302" lon="4.72899">
        <ele>172</ele>
        <time>2018-10-12T10:50:54Z</time>
      </trkpt>
      <trkpt lat="45.93016" lon="4.72906">
        <ele>172</ele>
        <time>2018-10-12T10:50:55Z</time>
      </trkpt>
      <trkpt lat="45.93013" lon="4.72912">
        <ele>171</ele>
        <time>2018-10-12T10:50:56Z</time>
      </trkpt>
      <trkpt lat="45.93007" lon="4.7292">
        <ele>171</ele>
        <time>2018-10-12T10:50:58Z</time>
      </trkpt>
      <trkpt lat="45.93003" lon="4.72924">
        <ele>170</ele>
        <time>2018-10-12T10:50:59Z</time>
      </trkpt>
      <trkpt lat="45.92996" lon="4.72931">
        <ele>171</ele>
        <time>2018-10-12T10:51:01Z</time>
      </trkpt>
      <trkpt lat="45.92992" lon="4.72935">
        <ele>171</ele>
        <time>2018-10-12T10:51:02Z</time>
      </trkpt>
      <trkpt lat="45.92989" lon="4.72941">
        <ele>171</ele>
        <time>2018-10-12T10:51:03Z</time>
      </trkpt>
      <trkpt lat="45.92986" lon="4.72946">
        <ele>171</ele>
        <time>2018-10-12T10:51:04Z</time>
      </trkpt>
      <trkpt lat="45.92982" lon="4.7295">
        <ele>171</ele>
        <time>2018-10-12T10:51:05Z</time>
      </trkpt>
      <trkpt lat="45.92978" lon="4.72955">
        <ele>171</ele>
        <time>2018-10-12T10:51:06Z</time>
      </trkpt>
      <trkpt lat="45.92971" lon="4.72961">
        <ele>171</ele>
        <time>2018-10-12T10:51:08Z</time>
      </trkpt>
      <trkpt lat="45.92968" lon="4.72965">
        <ele>171</ele>
        <time>2018-10-12T10:51:09Z</time>
      </trkpt>
      <trkpt lat="45.92963" lon="4.72972">
        <ele>171</ele>
        <time>2018-10-12T10:51:11Z</time>
      </trkpt>
      <trkpt lat="45.9296" lon="4.72977">
        <ele>171</ele>
        <time>2018-10-12T10:51:12Z</time>
      </trkpt>
      <trkpt lat="45.92953" lon="4.72983">
        <ele>171</ele>
        <time>2018-10-12T10:51:14Z</time>
      </trkpt>
      <trkpt lat="45.9295" lon="4.72986">
        <ele>171</ele>
        <time>2018-10-12T10:51:15Z</time>
      </trkpt>
      <trkpt lat="45.92943" lon="4.72993">
        <ele>171</ele>
        <time>2018-10-12T10:51:17Z</time>
      </trkpt>
      <trkpt lat="45.9294" lon="4.72997">
        <ele>171</ele>
        <time>2018-10-12T10:51:18Z</time>
      </trkpt>
      <trkpt lat="45.92934" lon="4.73006">
        <ele>171</ele>
        <time>2018-10-12T10:51:20Z</time>
      </trkpt>
      <trkpt lat="45.9293" lon="4.7301">
        <ele>171</ele>
        <time>2018-10-12T10:51:21Z</time>
      </trkpt>
      <trkpt lat="45.92927" lon="4.73014">
        <ele>172</ele>
        <time>2018-10-12T10:51:22Z</time>
      </trkpt>
      <trkpt lat="45.92924" lon="4.73018">
        <ele>172</ele>
        <time>2018-10-12T10:51:23Z</time>
      </trkpt>
      <trkpt lat="45.92918" lon="4.73027">
        <ele>172</ele>
        <time>2018-10-12T10:51:25Z</time>
      </trkpt>
      <trkpt lat="45.92914" lon="4.73032">
        <ele>172</ele>
        <time>2018-10-12T10:51:26Z</time>
      </trkpt>
      <trkpt lat="45.92908" lon="4.73041">
        <ele>172</ele>
        <time>2018-10-12T10:51:28Z</time>
      </trkpt>
      <trkpt lat="45.92905" lon="4.73045">
        <ele>172</ele>
        <time>2018-10-12T10:51:29Z</time>
      </trkpt>
      <trkpt lat="45.929" lon="4.73054">
        <ele>172</ele>
        <time>2018-10-12T10:51:31Z</time>
      </trkpt>
      <trkpt lat="45.92897" lon="4.73059">
        <ele>172</ele>
        <time>2018-10-12T10:51:32Z</time>
      </trkpt>
      <trkpt lat="45.92893" lon="4.73064">
        <ele>172</ele>
        <time>2018-10-12T10:51:33Z</time>
      </trkpt>
      <trkpt lat="45.9289" lon="4.73069">
        <ele>172</ele>
        <time>2018-10-12T10:51:34Z</time>
      </trkpt>
      <trkpt lat="45.92884" lon="4.73077">
        <ele>172</ele>
        <time>2018-10-12T10:51:36Z</time>
      </trkpt>
      <trkpt lat="45.92881" lon="4.7308">
        <ele>172</ele>
        <time>2018-10-12T10:51:37Z</time>
      </trkpt>
      <trkpt lat="45.92876" lon="4.73091">
        <ele>172</ele>
        <time>2018-10-12T10:51:39Z</time>
      </trkpt>
      <trkpt lat="45.92873" lon="4.73095">
        <ele>172</ele>
        <time>2018-10-12T10:51:40Z</time>
      </trkpt>
      <trkpt lat="45.92867" lon="4.73104">
        <ele>172</ele>
        <time>2018-10-12T10:51:42Z</time>
      </trkpt>
      <trkpt lat="45.92863" lon="4.73107">
        <ele>171</ele>
        <time>2018-10-12T10:51:43Z</time>
      </trkpt>
      <trkpt lat="45.92854" lon="4.73106">
        <ele>171</ele>
        <time>2018-10-12T10:51:45Z</time>
      </trkpt>
      <trkpt lat="45.92851" lon="4.73102">
        <ele>171</ele>
        <time>2018-10-12T10:51:46Z</time>
      </trkpt>
      <trkpt lat="45.9285" lon="4.73095">
        <ele>171</ele>
        <time>2018-10-12T10:51:47Z</time>
      </trkpt>
      <trkpt lat="45.9285" lon="4.73087">
        <ele>171</ele>
        <time>2018-10-12T10:51:48Z</time>
      </trkpt>
      <trkpt lat="45.92849" lon="4.73079">
        <ele>171</ele>
        <time>2018-10-12T10:51:49Z</time>
      </trkpt>
      <trkpt lat="45.92848" lon="4.73072">
        <ele>171</ele>
        <time>2018-10-12T10:51:50Z</time>
      </trkpt>
      <trkpt lat="45.92847" lon="4.73065">
        <ele>171</ele>
        <time>2018-10-12T10:51:51Z</time>
      </trkpt>
      <trkpt lat="45.92846" lon="4.73059">
        <ele>171</ele>
        <time>2018-10-12T10:51:52Z</time>
      </trkpt>
      <trkpt lat="45.92843" lon="4.73047">
        <ele>171</ele>
        <time>2018-10-12T10:51:54Z</time>
      </trkpt>
      <trkpt lat="45.92842" lon="4.73041">
        <ele>171</ele>
        <time>2018-10-12T10:51:55Z</time>
      </trkpt>
      <trkpt lat="45.9284" lon="4.73028">
        <ele>171</ele>
        <time>2018-10-12T10:51:57Z</time>
      </trkpt>
      <trkpt lat="45.92839" lon="4.73022">
        <ele>171</ele>
        <time>2018-10-12T10:51:58Z</time>
      </trkpt>
      <trkpt lat="45.92837" lon="4.73012">
        <ele>171</ele>
        <time>2018-10-12T10:52:00Z</time>
      </trkpt>
      <trkpt lat="45.92836" lon="4.73007">
        <ele>170</ele>
        <time>2018-10-12T10:52:01Z</time>
      </trkpt>
      <trkpt lat="45.92834" lon="4.72996">
        <ele>170</ele>
        <time>2018-10-12T10:52:03Z</time>
      </trkpt>
      <trkpt lat="45.92834" lon="4.7299">
        <ele>170</ele>
        <time>2018-10-12T10:52:04Z</time>
      </trkpt>
      <trkpt lat="45.92834" lon="4.72984">
        <ele>171</ele>
        <time>2018-10-12T10:52:05Z</time>
      </trkpt>
      <trkpt lat="45.92833" lon="4.72976">
        <ele>170</ele>
        <time>2018-10-12T10:52:06Z</time>
      </trkpt>
      <trkpt lat="45.92833" lon="4.72969">
        <ele>170</ele>
        <time>2018-10-12T10:52:07Z</time>
      </trkpt>
      <trkpt lat="45.92832" lon="4.72962">
        <ele>170</ele>
        <time>2018-10-12T10:52:08Z</time>
      </trkpt>
      <trkpt lat="45.9283" lon="4.72955">
        <ele>170</ele>
        <time>2018-10-12T10:52:09Z</time>
      </trkpt>
      <trkpt lat="45.9283" lon="4.72948">
        <ele>170</ele>
        <time>2018-10-12T10:52:10Z</time>
      </trkpt>
      <trkpt lat="45.92829" lon="4.72936">
        <ele>170</ele>
        <time>2018-10-12T10:52:12Z</time>
      </trkpt>
      <trkpt lat="45.92828" lon="4.7293">
        <ele>170</ele>
        <time>2018-10-12T10:52:13Z</time>
      </trkpt>
      <trkpt lat="45.92827" lon="4.72919">
        <ele>170</ele>
        <time>2018-10-12T10:52:15Z</time>
      </trkpt>
      <trkpt lat="45.92826" lon="4.72914">
        <ele>170</ele>
        <time>2018-10-12T10:52:16Z</time>
      </trkpt>
      <trkpt lat="45.92825" lon="4.72903">
        <ele>170</ele>
        <time>2018-10-12T10:52:18Z</time>
      </trkpt>
      <trkpt lat="45.92824" lon="4.72897">
        <ele>170</ele>
        <time>2018-10-12T10:52:19Z</time>
      </trkpt>
      <trkpt lat="45.92823" lon="4.72885">
        <ele>170</ele>
        <time>2018-10-12T10:52:21Z</time>
      </trkpt>
      <trkpt lat="45.92822" lon="4.72878">
        <ele>170</ele>
        <time>2018-10-12T10:52:22Z</time>
      </trkpt>
      <trkpt lat="45.9282" lon="4.72872">
        <ele>170</ele>
        <time>2018-10-12T10:52:23Z</time>
      </trkpt>
      <trkpt lat="45.92819" lon="4.72865">
        <ele>170</ele>
        <time>2018-10-12T10:52:24Z</time>
      </trkpt>
      <trkpt lat="45.92817" lon="4.72853">
        <ele>170</ele>
        <time>2018-10-12T10:52:26Z</time>
      </trkpt>
      <trkpt lat="45.92816" lon="4.72847">
        <ele>170</ele>
        <time>2018-10-12T10:52:27Z</time>
      </trkpt>
      <trkpt lat="45.92813" lon="4.72835">
        <ele>170</ele>
        <time>2018-10-12T10:52:29Z</time>
      </trkpt>
      <trkpt lat="45.92812" lon="4.7283">
        <ele>171</ele>
        <time>2018-10-12T10:52:30Z</time>
      </trkpt>
      <trkpt lat="45.9281" lon="4.72818">
        <ele>171</ele>
        <time>2018-10-12T10:52:32Z</time>
      </trkpt>
      <trkpt lat="45.92809" lon="4.72812">
        <ele>171</ele>
        <time>2018-10-12T10:52:33Z</time>
      </trkpt>
      <trkpt lat="45.92808" lon="4.728">
        <ele>171</ele>
        <time>2018-10-12T10:52:35Z</time>
      </trkpt>
      <trkpt lat="45.92807" lon="4.72794">
        <ele>171</ele>
        <time>2018-10-12T10:52:36Z</time>
      </trkpt>
      <trkpt lat="45.92803" lon="4.72784">
        <ele>171</ele>
        <time>2018-10-12T10:52:38Z</time>
      </trkpt>
      <trkpt lat="45.928" lon="4.72782">
        <ele>171</ele>
        <time>2018-10-12T10:52:39Z</time>
      </trkpt>
      <trkpt lat="45.92795" lon="4.72786">
        <ele>171</ele>
        <time>2018-10-12T10:52:43Z</time>
      </trkpt>
      <trkpt lat="45.92793" lon="4.72789">
        <ele>171</ele>
        <time>2018-10-12T10:52:44Z</time>
      </trkpt>
      <trkpt lat="45.92788" lon="4.72794">
        <ele>170</ele>
        <time>2018-10-12T10:52:46Z</time>
      </trkpt>
      <trkpt lat="45.92781" lon="4.72798">
        <ele>170</ele>
        <time>2018-10-12T10:52:47Z</time>
      </trkpt>
      <trkpt lat="45.92774" lon="4.72804">
        <ele>170</ele>
        <time>2018-10-12T10:52:49Z</time>
      </trkpt>
      <trkpt lat="45.9277" lon="4.72807">
        <ele>170</ele>
        <time>2018-10-12T10:52:50Z</time>
      </trkpt>
      <trkpt lat="45.92767" lon="4.7281">
        <ele>170</ele>
        <time>2018-10-12T10:52:51Z</time>
      </trkpt>
      <trkpt lat="45.92763" lon="4.72817">
        <ele>170</ele>
        <time>2018-10-12T10:52:52Z</time>
      </trkpt>
      <trkpt lat="45.92759" lon="4.72822">
        <ele>170</ele>
        <time>2018-10-12T10:52:53Z</time>
      </trkpt>
      <trkpt lat="45.92755" lon="4.72825">
        <ele>169</ele>
        <time>2018-10-12T10:52:54Z</time>
      </trkpt>
      <trkpt lat="45.9275" lon="4.72829">
        <ele>169</ele>
        <time>2018-10-12T10:52:55Z</time>
      </trkpt>
      <trkpt lat="45.92746" lon="4.7283">
        <ele>169</ele>
        <time>2018-10-12T10:52:56Z</time>
      </trkpt>
      <trkpt lat="45.92739" lon="4.72836">
        <ele>169</ele>
        <time>2018-10-12T10:52:58Z</time>
      </trkpt>
      <trkpt lat="45.92735" lon="4.72838">
        <ele>169</ele>
        <time>2018-10-12T10:52:59Z</time>
      </trkpt>
      <trkpt lat="45.92729" lon="4.72843">
        <ele>169</ele>
        <time>2018-10-12T10:53:01Z</time>
      </trkpt>
      <trkpt lat="45.92726" lon="4.72847">
        <ele>169</ele>
        <time>2018-10-12T10:53:02Z</time>
      </trkpt>
      <trkpt lat="45.92719" lon="4.72852">
        <ele>169</ele>
        <time>2018-10-12T10:53:04Z</time>
      </trkpt>
      <trkpt lat="45.92715" lon="4.72855">
        <ele>169</ele>
        <time>2018-10-12T10:53:05Z</time>
      </trkpt>
      <trkpt lat="45.92707" lon="4.7286">
        <ele>169</ele>
        <time>2018-10-12T10:53:07Z</time>
      </trkpt>
      <trkpt lat="45.92703" lon="4.72862">
        <ele>169</ele>
        <time>2018-10-12T10:53:08Z</time>
      </trkpt>
      <trkpt lat="45.92696" lon="4.72869">
        <ele>169</ele>
        <time>2018-10-12T10:53:10Z</time>
      </trkpt>
      <trkpt lat="45.92693" lon="4.72872">
        <ele>169</ele>
        <time>2018-10-12T10:53:11Z</time>
      </trkpt>
      <trkpt lat="45.92686" lon="4.72878">
        <ele>170</ele>
        <time>2018-10-12T10:53:13Z</time>
      </trkpt>
      <trkpt lat="45.92682" lon="4.72881">
        <ele>170</ele>
        <time>2018-10-12T10:53:14Z</time>
      </trkpt>
      <trkpt lat="45.92675" lon="4.72887">
        <ele>170</ele>
        <time>2018-10-12T10:53:16Z</time>
      </trkpt>
      <trkpt lat="45.92672" lon="4.7289">
        <ele>170</ele>
        <time>2018-10-12T10:53:17Z</time>
      </trkpt>
      <trkpt lat="45.92665" lon="4.72895">
        <ele>170</ele>
        <time>2018-10-12T10:53:19Z</time>
      </trkpt>
      <trkpt lat="45.92661" lon="4.72897">
        <ele>170</ele>
        <time>2018-10-12T10:53:20Z</time>
      </trkpt>
      <trkpt lat="45.92654" lon="4.72903">
        <ele>170</ele>
        <time>2018-10-12T10:53:22Z</time>
      </trkpt>
      <trkpt lat="45.92651" lon="4.72906">
        <ele>170</ele>
        <time>2018-10-12T10:53:23Z</time>
      </trkpt>
      <trkpt lat="45.92644" lon="4.72911">
        <ele>170</ele>
        <time>2018-10-12T10:53:25Z</time>
      </trkpt>
      <trkpt lat="45.92641" lon="4.72914">
        <ele>169</ele>
        <time>2018-10-12T10:53:26Z</time>
      </trkpt>
      <trkpt lat="45.92634" lon="4.72919">
        <ele>170</ele>
        <time>2018-10-12T10:53:28Z</time>
      </trkpt>
      <trkpt lat="45.92632" lon="4.7292">
        <ele>170</ele>
        <time>2018-10-12T10:53:29Z</time>
      </trkpt>
      <trkpt lat="45.92624" lon="4.72926">
        <ele>169</ele>
        <time>2018-10-12T10:53:31Z</time>
      </trkpt>
      <trkpt lat="45.9262" lon="4.72929">
        <ele>169</ele>
        <time>2018-10-12T10:53:32Z</time>
      </trkpt>
      <trkpt lat="45.92614" lon="4.72936">
        <ele>169</ele>
        <time>2018-10-12T10:53:34Z</time>
      </trkpt>
      <trkpt lat="45.92611" lon="4.72939">
        <ele>169</ele>
        <time>2018-10-12T10:53:35Z</time>
      </trkpt>
      <trkpt lat="45.92604" lon="4.72946">
        <ele>169</ele>
        <time>2018-10-12T10:53:37Z</time>
      </trkpt>
      <trkpt lat="45.92601" lon="4.7295">
        <ele>169</ele>
        <time>2018-10-12T10:53:38Z</time>
      </trkpt>
      <trkpt lat="45.92595" lon="4.72958">
        <ele>169</ele>
        <time>2018-10-12T10:53:40Z</time>
      </trkpt>
      <trkpt lat="45.92593" lon="4.72962">
        <ele>169</ele>
        <time>2018-10-12T10:53:41Z</time>
      </trkpt>
      <trkpt lat="45.92587" lon="4.7297">
        <ele>169</ele>
        <time>2018-10-12T10:53:43Z</time>
      </trkpt>
      <trkpt lat="45.92584" lon="4.72973">
        <ele>169</ele>
        <time>2018-10-12T10:53:44Z</time>
      </trkpt>
      <trkpt lat="45.92578" lon="4.7298">
        <ele>169</ele>
        <time>2018-10-12T10:53:46Z</time>
      </trkpt>
      <trkpt lat="45.92575" lon="4.72983">
        <ele>169</ele>
        <time>2018-10-12T10:53:47Z</time>
      </trkpt>
      <trkpt lat="45.92569" lon="4.7299">
        <ele>169</ele>
        <time>2018-10-12T10:53:49Z</time>
      </trkpt>
      <trkpt lat="45.92566" lon="4.72993">
        <ele>169</ele>
        <time>2018-10-12T10:53:50Z</time>
      </trkpt>
      <trkpt lat="45.9256" lon="4.72999">
        <ele>169</ele>
        <time>2018-10-12T10:53:52Z</time>
      </trkpt>
      <trkpt lat="45.92557" lon="4.73003">
        <ele>169</ele>
        <time>2018-10-12T10:53:53Z</time>
      </trkpt>
      <trkpt lat="45.92551" lon="4.73009">
        <ele>169</ele>
        <time>2018-10-12T10:53:55Z</time>
      </trkpt>
      <trkpt lat="45.92547" lon="4.73012">
        <ele>169</ele>
        <time>2018-10-12T10:53:56Z</time>
      </trkpt>
      <trkpt lat="45.92541" lon="4.73018">
        <ele>169</ele>
        <time>2018-10-12T10:53:58Z</time>
      </trkpt>
      <trkpt lat="45.92538" lon="4.73021">
        <ele>169</ele>
        <time>2018-10-12T10:53:59Z</time>
      </trkpt>
      <trkpt lat="45.92534" lon="4.73025">
        <ele>169</ele>
        <time>2018-10-12T10:54:01Z</time>
      </trkpt>
      <trkpt lat="45.9253" lon="4.7303">
        <ele>169</ele>
        <time>2018-10-12T10:54:02Z</time>
      </trkpt>
      <trkpt lat="45.92525" lon="4.73035">
        <ele>169</ele>
        <time>2018-10-12T10:54:04Z</time>
      </trkpt>
      <trkpt lat="45.9252" lon="4.73039">
        <ele>169</ele>
        <time>2018-10-12T10:54:05Z</time>
      </trkpt>
      <trkpt lat="45.92514" lon="4.73044">
        <ele>170</ele>
        <time>2018-10-12T10:54:07Z</time>
      </trkpt>
      <trkpt lat="45.92511" lon="4.73047">
        <ele>170</ele>
        <time>2018-10-12T10:54:08Z</time>
      </trkpt>
      <trkpt lat="45.92506" lon="4.73051">
        <ele>170</ele>
        <time>2018-10-12T10:54:10Z</time>
      </trkpt>
      <trkpt lat="45.92502" lon="4.73054">
        <ele>170</ele>
        <time>2018-10-12T10:54:11Z</time>
      </trkpt>
      <trkpt lat="45.92495" lon="4.7306">
        <ele>170</ele>
        <time>2018-10-12T10:54:13Z</time>
      </trkpt>
      <trkpt lat="45.92492" lon="4.73062">
        <ele>170</ele>
        <time>2018-10-12T10:54:14Z</time>
      </trkpt>
      <trkpt lat="45.92485" lon="4.73067">
        <ele>170</ele>
        <time>2018-10-12T10:54:16Z</time>
      </trkpt>
      <trkpt lat="45.92482" lon="4.7307">
        <ele>170</ele>
        <time>2018-10-12T10:54:17Z</time>
      </trkpt>
      <trkpt lat="45.92475" lon="4.73075">
        <ele>170</ele>
        <time>2018-10-12T10:54:19Z</time>
      </trkpt>
      <trkpt lat="45.92472" lon="4.73078">
        <ele>170</ele>
        <time>2018-10-12T10:54:20Z</time>
      </trkpt>
      <trkpt lat="45.92465" lon="4.73083">
        <ele>170</ele>
        <time>2018-10-12T10:54:22Z</time>
      </trkpt>
      <trkpt lat="45.92462" lon="4.73086">
        <ele>170</ele>
        <time>2018-10-12T10:54:23Z</time>
      </trkpt>
      <trkpt lat="45.92456" lon="4.73092">
        <ele>170</ele>
        <time>2018-10-12T10:54:25Z</time>
      </trkpt>
      <trkpt lat="45.92454" lon="4.73093">
        <ele>170</ele>
        <time>2018-10-12T10:54:26Z</time>
      </trkpt>
      <trkpt lat="45.92447" lon="4.73098">
        <ele>170</ele>
        <time>2018-10-12T10:54:28Z</time>
      </trkpt>
      <trkpt lat="45.92443" lon="4.73102">
        <ele>170</ele>
        <time>2018-10-12T10:54:29Z</time>
      </trkpt>
      <trkpt lat="45.92436" lon="4.73108">
        <ele>170</ele>
        <time>2018-10-12T10:54:31Z</time>
      </trkpt>
      <trkpt lat="45.92433" lon="4.73111">
        <ele>170</ele>
        <time>2018-10-12T10:54:32Z</time>
      </trkpt>
      <trkpt lat="45.92426" lon="4.73116">
        <ele>170</ele>
        <time>2018-10-12T10:54:34Z</time>
      </trkpt>
      <trkpt lat="45.92423" lon="4.73119">
        <ele>170</ele>
        <time>2018-10-12T10:54:35Z</time>
      </trkpt>
      <trkpt lat="45.92416" lon="4.73125">
        <ele>171</ele>
        <time>2018-10-12T10:54:37Z</time>
      </trkpt>
      <trkpt lat="45.92413" lon="4.73129">
        <ele>171</ele>
        <time>2018-10-12T10:54:38Z</time>
      </trkpt>
      <trkpt lat="45.9241" lon="4.7314">
        <ele>171</ele>
        <time>2018-10-12T10:54:40Z</time>
      </trkpt>
      <trkpt lat="45.92409" lon="4.73146">
        <ele>171</ele>
        <time>2018-10-12T10:54:41Z</time>
      </trkpt>
      <trkpt lat="45.9241" lon="4.73159">
        <ele>170</ele>
        <time>2018-10-12T10:54:43Z</time>
      </trkpt>
      <trkpt lat="45.9241" lon="4.73165">
        <ele>170</ele>
        <time>2018-10-12T10:54:44Z</time>
      </trkpt>
      <trkpt lat="45.9241" lon="4.73177">
        <ele>171</ele>
        <time>2018-10-12T10:54:46Z</time>
      </trkpt>
      <trkpt lat="45.92411" lon="4.73184">
        <ele>171</ele>
        <time>2018-10-12T10:54:47Z</time>
      </trkpt>
      <trkpt lat="45.92412" lon="4.73196">
        <ele>171</ele>
        <time>2018-10-12T10:54:49Z</time>
      </trkpt>
      <trkpt lat="45.92412" lon="4.73203">
        <ele>171</ele>
        <time>2018-10-12T10:54:50Z</time>
      </trkpt>
      <trkpt lat="45.92413" lon="4.73216">
        <ele>171</ele>
        <time>2018-10-12T10:54:52Z</time>
      </trkpt>
      <trkpt lat="45.92414" lon="4.73222">
        <ele>171</ele>
        <time>2018-10-12T10:54:53Z</time>
      </trkpt>
      <trkpt lat="45.92414" lon="4.73228">
        <ele>171</ele>
        <time>2018-10-12T10:54:54Z</time>
      </trkpt>
      <trkpt lat="45.92414" lon="4.73235">
        <ele>171</ele>
        <time>2018-10-12T10:54:55Z</time>
      </trkpt>
      <trkpt lat="45.92415" lon="4.73247">
        <ele>171</ele>
        <time>2018-10-12T10:54:57Z</time>
      </trkpt>
      <trkpt lat="45.92415" lon="4.73253">
        <ele>171</ele>
        <time>2018-10-12T10:54:58Z</time>
      </trkpt>
      <trkpt lat="45.92416" lon="4.73265">
        <ele>171</ele>
        <time>2018-10-12T10:55:00Z</time>
      </trkpt>
      <trkpt lat="45.92416" lon="4.73272">
        <ele>171</ele>
        <time>2018-10-12T10:55:01Z</time>
      </trkpt>
      <trkpt lat="45.92416" lon="4.73283">
        <ele>171</ele>
        <time>2018-10-12T10:55:03Z</time>
      </trkpt>
      <trkpt lat="45.92417" lon="4.73289">
        <ele>171</ele>
        <time>2018-10-12T10:55:04Z</time>
      </trkpt>
      <trkpt lat="45.92418" lon="4.73298">
        <ele>171</ele>
        <time>2018-10-12T10:55:06Z</time>
      </trkpt>
      <trkpt lat="45.92419" lon="4.73304">
        <ele>171</ele>
        <time>2018-10-12T10:55:07Z</time>
      </trkpt>
      <trkpt lat="45.92419" lon="4.73315">
        <ele>171</ele>
        <time>2018-10-12T10:55:09Z</time>
      </trkpt>
      <trkpt lat="45.92419" lon="4.73321">
        <ele>171</ele>
        <time>2018-10-12T10:55:10Z</time>
      </trkpt>
      <trkpt lat="45.9242" lon="4.73334">
        <ele>171</ele>
        <time>2018-10-12T10:55:12Z</time>
      </trkpt>
      <trkpt lat="45.9242" lon="4.7334">
        <ele>171</ele>
        <time>2018-10-12T10:55:13Z</time>
      </trkpt>
      <trkpt lat="45.92421" lon="4.73347">
        <ele>171</ele>
        <time>2018-10-12T10:55:14Z</time>
      </trkpt>
      <trkpt lat="45.92421" lon="4.73353">
        <ele>171</ele>
        <time>2018-10-12T10:55:15Z</time>
      </trkpt>
      <trkpt lat="45.92422" lon="4.7336">
        <ele>172</ele>
        <time>2018-10-12T10:55:16Z</time>
      </trkpt>
      <trkpt lat="45.92423" lon="4.73367">
        <ele>172</ele>
        <time>2018-10-12T10:55:17Z</time>
      </trkpt>
      <trkpt lat="45.92424" lon="4.73374">
        <ele>172</ele>
        <time>2018-10-12T10:55:18Z</time>
      </trkpt>
      <trkpt lat="45.92426" lon="4.73381">
        <ele>172</ele>
        <time>2018-10-12T10:55:19Z</time>
      </trkpt>
      <trkpt lat="45.92429" lon="4.73393">
        <ele>172</ele>
        <time>2018-10-12T10:55:21Z</time>
      </trkpt>
      <trkpt lat="45.9243" lon="4.73399">
        <ele>172</ele>
        <time>2018-10-12T10:55:22Z</time>
      </trkpt>
      <trkpt lat="45.92433" lon="4.7341">
        <ele>172</ele>
        <time>2018-10-12T10:55:24Z</time>
      </trkpt>
      <trkpt lat="45.92436" lon="4.73414">
        <ele>172</ele>
        <time>2018-10-12T10:55:25Z</time>
      </trkpt>
      <trkpt lat="45.92443" lon="4.7342">
        <ele>173</ele>
        <time>2018-10-12T10:55:27Z</time>
      </trkpt>
      <trkpt lat="45.92447" lon="4.73421">
        <ele>173</ele>
        <time>2018-10-12T10:55:28Z</time>
      </trkpt>
      <trkpt lat="45.92455" lon="4.73427">
        <ele>173</ele>
        <time>2018-10-12T10:55:30Z</time>
      </trkpt>
      <trkpt lat="45.92459" lon="4.73429">
        <ele>173</ele>
        <time>2018-10-12T10:55:31Z</time>
      </trkpt>
      <trkpt lat="45.92463" lon="4.73435">
        <ele>173</ele>
        <time>2018-10-12T10:55:32Z</time>
      </trkpt>
      <trkpt lat="45.92467" lon="4.73442">
        <ele>173</ele>
        <time>2018-10-12T10:55:33Z</time>
      </trkpt>
      <trkpt lat="45.92469" lon="4.73449">
        <ele>173</ele>
        <time>2018-10-12T10:55:34Z</time>
      </trkpt>
      <trkpt lat="45.9247" lon="4.73456">
        <ele>173</ele>
        <time>2018-10-12T10:55:35Z</time>
      </trkpt>
      <trkpt lat="45.92471" lon="4.73463">
        <ele>173</ele>
        <time>2018-10-12T10:55:36Z</time>
      </trkpt>
      <trkpt lat="45.92471" lon="4.7347">
        <ele>173</ele>
        <time>2018-10-12T10:55:37Z</time>
      </trkpt>
      <trkpt lat="45.92471" lon="4.73478">
        <ele>173</ele>
        <time>2018-10-12T10:55:38Z</time>
      </trkpt>
      <trkpt lat="45.92471" lon="4.73485">
        <ele>173</ele>
        <time>2018-10-12T10:55:39Z</time>
      </trkpt>
      <trkpt lat="45.9247" lon="4.73497">
        <ele>173</ele>
        <time>2018-10-12T10:55:41Z</time>
      </trkpt>
      <trkpt lat="45.9247" lon="4.73502">
        <ele>174</ele>
        <time>2018-10-12T10:55:42Z</time>
      </trkpt>
      <trkpt lat="45.92469" lon="4.73514">
        <ele>174</ele>
        <time>2018-10-12T10:55:44Z</time>
      </trkpt>
      <trkpt lat="45.92469" lon="4.73522">
        <ele>174</ele>
        <time>2018-10-12T10:55:45Z</time>
      </trkpt>
      <trkpt lat="45.9247" lon="4.73534">
        <ele>174</ele>
        <time>2018-10-12T10:55:47Z</time>
      </trkpt>
      <trkpt lat="45.9247" lon="4.7354">
        <ele>174</ele>
        <time>2018-10-12T10:55:48Z</time>
      </trkpt>
      <trkpt lat="45.92468" lon="4.73552">
        <ele>173</ele>
        <time>2018-10-12T10:55:50Z</time>
      </trkpt>
      <trkpt lat="45.92468" lon="4.73557">
        <ele>173</ele>
        <time>2018-10-12T10:55:51Z</time>
      </trkpt>
      <trkpt lat="45.92468" lon="4.73564">
        <ele>173</ele>
        <time>2018-10-12T10:55:52Z</time>
      </trkpt>
      <trkpt lat="45.92468" lon="4.73571">
        <ele>173</ele>
        <time>2018-10-12T10:55:53Z</time>
      </trkpt>
      <trkpt lat="45.92468" lon="4.73578">
        <ele>173</ele>
        <time>2018-10-12T10:55:54Z</time>
      </trkpt>
      <trkpt lat="45.92469" lon="4.73586">
        <ele>174</ele>
        <time>2018-10-12T10:55:55Z</time>
      </trkpt>
      <trkpt lat="45.92469" lon="4.73593">
        <ele>174</ele>
        <time>2018-10-12T10:55:56Z</time>
      </trkpt>
      <trkpt lat="45.9247" lon="4.73601">
        <ele>174</ele>
        <time>2018-10-12T10:55:57Z</time>
      </trkpt>
      <trkpt lat="45.92469" lon="4.73609">
        <ele>174</ele>
        <time>2018-10-12T10:55:58Z</time>
      </trkpt>
      <trkpt lat="45.9247" lon="4.73617">
        <ele>174</ele>
        <time>2018-10-12T10:55:59Z</time>
      </trkpt>
      <trkpt lat="45.9247" lon="4.73624">
        <ele>174</ele>
        <time>2018-10-12T10:56:00Z</time>
      </trkpt>
      <trkpt lat="45.92471" lon="4.73631">
        <ele>174</ele>
        <time>2018-10-12T10:56:01Z</time>
      </trkpt>
      <trkpt lat="45.92471" lon="4.73638">
        <ele>174</ele>
        <time>2018-10-12T10:56:02Z</time>
      </trkpt>
      <trkpt lat="45.92471" lon="4.73645">
        <ele>174</ele>
        <time>2018-10-12T10:56:03Z</time>
      </trkpt>
      <trkpt lat="45.92472" lon="4.73656">
        <ele>174</ele>
        <time>2018-10-12T10:56:05Z</time>
      </trkpt>
      <trkpt lat="45.92471" lon="4.73663">
        <ele>174</ele>
        <time>2018-10-12T10:56:06Z</time>
      </trkpt>
      <trkpt lat="45.92471" lon="4.73674">
        <ele>174</ele>
        <time>2018-10-12T10:56:08Z</time>
      </trkpt>
      <trkpt lat="45.92471" lon="4.73678">
        <ele>174</ele>
        <time>2018-10-12T10:56:09Z</time>
      </trkpt>
      <trkpt lat="45.9247" lon="4.73684">
        <ele>174</ele>
        <time>2018-10-12T10:56:11Z</time>
      </trkpt>
      <trkpt lat="45.92468" lon="4.73693">
        <ele>174</ele>
        <time>2018-10-12T10:56:12Z</time>
      </trkpt>
      <trkpt lat="45.92468" lon="4.73705">
        <ele>174</ele>
        <time>2018-10-12T10:56:16Z</time>
      </trkpt>
      <trkpt lat="45.92468" lon="4.73707">
        <ele>174</ele>
        <time>2018-10-12T10:56:17Z</time>
      </trkpt>
      <trkpt lat="45.92465" lon="4.73711">
        <ele>174</ele>
        <time>2018-10-12T10:56:38Z</time>
      </trkpt>
      <trkpt lat="45.92465" lon="4.73711">
        <ele>174</ele>
        <time>2018-10-12T10:56:39Z</time>
      </trkpt>
      <trkpt lat="45.92465" lon="4.73712">
        <ele>174</ele>
        <time>2018-10-12T10:56:40Z</time>
      </trkpt>
      <trkpt lat="45.92462" lon="4.73712">
        <ele>174</ele>
        <time>2018-10-12T10:56:48.721Z</time>
      </trkpt>
    </trkseg>
  </trk>
</gpx>